<?xml version="1.0"?>
<gpx
 version="1.1"
 creator="Satmap Active 20"
 xmlns:xsi="http://www.w3.org/2001/XMLSchema-instance"
 xmlns="http://www.topografix.com/GPX/1/1"
 xmlns:satmap="http://www.satmap.com/updates/xmlschemas/GpxExtensions/v2/GpxExtensions_v2.xsd"
 xsi:schemaLocation="http://www.topografix.com/GPX/1/1 http://www.topografix.com/GPX/1/1/gpx.xsd">
<metadata>
<time>2021-05-12T10:02:41Z</time>
<extensions>
<satmap:platform>43</satmap:platform>
<satmap:software version="3.13.037">SM15.exe</satmap:software>
<satmap:username>pieter metz</satmap:username>
<satmap:network_ids>
<satmap:network_id type="wifi">00-23-A7-CA-E3-5C</satmap:network_id>
<satmap:network_id type="bluetooth">80-BB-EB-78-4F-29</satmap:network_id>
</satmap:network_ids>
<satmap:snap_type>simple</satmap:snap_type>
</extensions>
</metadata>
<trk>
<name>2021-05-12_1002</name>
<desc>Track 1</desc>
<number>1</number>
<trkseg>
<trkpt lat="53.099851" lon="06.074615"><ele>-3.4</ele><time>2021-05-12T10:02:41Z</time><name>PT1</name></trkpt>
<trkpt lat="53.099858" lon="06.074615"><ele>-3.7</ele><time>2021-05-12T10:02:43Z</time><name>PT2</name></trkpt>
<trkpt lat="53.099870" lon="06.074616"><ele>-3.9</ele><time>2021-05-12T10:02:44Z</time><name>PT3</name></trkpt>
<trkpt lat="53.099884" lon="06.074620"><ele>-3.8</ele><time>2021-05-12T10:02:45Z</time><name>PT4</name></trkpt>
<trkpt lat="53.099896" lon="06.074623"><ele>-3.9</ele><time>2021-05-12T10:02:46Z</time><name>PT5</name></trkpt>
<trkpt lat="53.099909" lon="06.074626"><ele>-3.7</ele><time>2021-05-12T10:02:47Z</time><name>PT6</name></trkpt>
<trkpt lat="53.099923" lon="06.074630"><ele>-3.6</ele><time>2021-05-12T10:02:48Z</time><name>PT7</name></trkpt>
<trkpt lat="53.099937" lon="06.074632"><ele>-3.6</ele><time>2021-05-12T10:02:49Z</time><name>PT8</name></trkpt>
<trkpt lat="53.099950" lon="06.074633"><ele>-3.4</ele><time>2021-05-12T10:02:50Z</time><name>PT9</name></trkpt>
<trkpt lat="53.099963" lon="06.074629"><ele>-3.3</ele><time>2021-05-12T10:02:52Z</time><name>PT10</name></trkpt>
<trkpt lat="53.099970" lon="06.074615"><ele>-3.5</ele><time>2021-05-12T10:02:52Z</time><name>PT11</name></trkpt>
<trkpt lat="53.099974" lon="06.074595"><ele>-3.5</ele><time>2021-05-12T10:02:53Z</time><name>PT12</name></trkpt>
<trkpt lat="53.099976" lon="06.074573"><ele>-3.6</ele><time>2021-05-12T10:02:54Z</time><name>PT13</name></trkpt>
<trkpt lat="53.099978" lon="06.074550"><ele>-3.7</ele><time>2021-05-12T10:02:55Z</time><name>PT14</name></trkpt>
<trkpt lat="53.099980" lon="06.074528"><ele>-3.7</ele><time>2021-05-12T10:02:56Z</time><name>PT15</name></trkpt>
<trkpt lat="53.099982" lon="06.074505"><ele>-3.7</ele><time>2021-05-12T10:02:58Z</time><name>PT16</name></trkpt>
<trkpt lat="53.099983" lon="06.074483"><ele>-3.7</ele><time>2021-05-12T10:02:58Z</time><name>PT17</name></trkpt>
<trkpt lat="53.099985" lon="06.074461"><ele>-3.6</ele><time>2021-05-12T10:02:59Z</time><name>PT18</name></trkpt>
<trkpt lat="53.099986" lon="06.074438"><ele>-3.4</ele><time>2021-05-12T10:03:00Z</time><name>PT19</name></trkpt>
<trkpt lat="53.099987" lon="06.074416"><ele>-3.1</ele><time>2021-05-12T10:03:01Z</time><name>PT20</name></trkpt>
<trkpt lat="53.099989" lon="06.074394"><ele>-3.1</ele><time>2021-05-12T10:03:02Z</time><name>PT21</name></trkpt>
<trkpt lat="53.099989" lon="06.074375"><ele>-3.1</ele><time>2021-05-12T10:03:03Z</time><name>PT22</name></trkpt>
<trkpt lat="53.099991" lon="06.074358"><ele>-3</ele><time>2021-05-12T10:03:04Z</time><name>PT23</name></trkpt>
<trkpt lat="53.099998" lon="06.074350"><ele>-3.1</ele><time>2021-05-12T10:03:05Z</time><name>PT24</name></trkpt>
<trkpt lat="53.100009" lon="06.074346"><ele>-3.1</ele><time>2021-05-12T10:03:06Z</time><name>PT25</name></trkpt>
<trkpt lat="53.100023" lon="06.074345"><ele>-3.3</ele><time>2021-05-12T10:03:07Z</time><name>PT26</name></trkpt>
<trkpt lat="53.100036" lon="06.074347"><ele>-3.4</ele><time>2021-05-12T10:03:08Z</time><name>PT27</name></trkpt>
<trkpt lat="53.100050" lon="06.074349"><ele>-3.6</ele><time>2021-05-12T10:03:09Z</time><name>PT28</name></trkpt>
<trkpt lat="53.100065" lon="06.074351"><ele>-3.6</ele><time>2021-05-12T10:03:10Z</time><name>PT29</name></trkpt>
<trkpt lat="53.100076" lon="06.074355"><ele>-3.3</ele><time>2021-05-12T10:03:11Z</time><name>PT30</name></trkpt>
<trkpt lat="53.100088" lon="06.074356"><ele>-3.2</ele><time>2021-05-12T10:03:12Z</time><name>PT31</name></trkpt>
<trkpt lat="53.100101" lon="06.074358"><ele>-3.1</ele><time>2021-05-12T10:03:13Z</time><name>PT32</name></trkpt>
<trkpt lat="53.100112" lon="06.074360"><ele>-2.9</ele><time>2021-05-12T10:03:14Z</time><name>PT33</name></trkpt>
<trkpt lat="53.100122" lon="06.074360"><ele>-2.9</ele><time>2021-05-12T10:03:15Z</time><name>PT34</name></trkpt>
<trkpt lat="53.100132" lon="06.074362"><ele>-3</ele><time>2021-05-12T10:03:16Z</time><name>PT35</name></trkpt>
<trkpt lat="53.100143" lon="06.074359"><ele>-2.9</ele><time>2021-05-12T10:03:17Z</time><name>PT36</name></trkpt>
<trkpt lat="53.100150" lon="06.074347"><ele>-2.8</ele><time>2021-05-12T10:03:18Z</time><name>PT37</name></trkpt>
<trkpt lat="53.100153" lon="06.074333"><ele>-2.6</ele><time>2021-05-12T10:03:19Z</time><name>PT38</name></trkpt>
<trkpt lat="53.100154" lon="06.074315"><ele>-2.6</ele><time>2021-05-12T10:03:20Z</time><name>PT39</name></trkpt>
<trkpt lat="53.100158" lon="06.074298"><ele>-2.6</ele><time>2021-05-12T10:03:21Z</time><name>PT40</name></trkpt>
<trkpt lat="53.100160" lon="06.074284"><ele>-2.7</ele><time>2021-05-12T10:03:22Z</time><name>PT41</name></trkpt>
<trkpt lat="53.100161" lon="06.074269"><ele>-3</ele><time>2021-05-12T10:03:23Z</time><name>PT42</name></trkpt>
<trkpt lat="53.100162" lon="06.074251"><ele>-3.2</ele><time>2021-05-12T10:03:24Z</time><name>PT43</name></trkpt>
<trkpt lat="53.100165" lon="06.074236"><ele>-3.2</ele><time>2021-05-12T10:03:25Z</time><name>PT44</name></trkpt>
<trkpt lat="53.100168" lon="06.074226"><ele>-3.2</ele><time>2021-05-12T10:03:26Z</time><name>PT45</name></trkpt>
<trkpt lat="53.100174" lon="06.074219"><ele>-3.1</ele><time>2021-05-12T10:03:27Z</time><name>PT46</name></trkpt>
<trkpt lat="53.100182" lon="06.074216"><ele>-3.1</ele><time>2021-05-12T10:03:28Z</time><name>PT47</name></trkpt>
<trkpt lat="53.100190" lon="06.074211"><ele>-3</ele><time>2021-05-12T10:03:29Z</time><name>PT48</name></trkpt>
<trkpt lat="53.100200" lon="06.074208"><ele>-3.1</ele><time>2021-05-12T10:03:31Z</time><name>PT49</name></trkpt>
<trkpt lat="53.100211" lon="06.074207"><ele>-3.1</ele><time>2021-05-12T10:03:31Z</time><name>PT50</name></trkpt>
<trkpt lat="53.100221" lon="06.074206"><ele>-3.1</ele><time>2021-05-12T10:03:32Z</time><name>PT51</name></trkpt>
<trkpt lat="53.100230" lon="06.074206"><ele>-3.1</ele><time>2021-05-12T10:03:34Z</time><name>PT52</name></trkpt>
<trkpt lat="53.100240" lon="06.074205"><ele>-3</ele><time>2021-05-12T10:03:34Z</time><name>PT53</name></trkpt>
<trkpt lat="53.100255" lon="06.074208"><ele>-2.9</ele><time>2021-05-12T10:03:35Z</time><name>PT54</name></trkpt>
<trkpt lat="53.100266" lon="06.074207"><ele>-2.9</ele><time>2021-05-12T10:03:36Z</time><name>PT55</name></trkpt>
<trkpt lat="53.100275" lon="06.074206"><ele>-3.1</ele><time>2021-05-12T10:03:37Z</time><name>PT56</name></trkpt>
<trkpt lat="53.100276" lon="06.074204"><ele>-3.1</ele><time>2021-05-12T10:03:38Z</time><name>PT57</name></trkpt>
<trkpt lat="53.099841" lon="06.074620"><ele>-3.9</ele><time>2021-05-12T10:05:48Z</time><name>PT58</name></trkpt>
<trkpt lat="53.099839" lon="06.074630"><ele>-3.7</ele><time>2021-05-12T10:05:49Z</time><name>PT59</name></trkpt>
<trkpt lat="53.099833" lon="06.074646"><ele>-3.6</ele><time>2021-05-12T10:05:50Z</time><name>PT60</name></trkpt>
<trkpt lat="53.099830" lon="06.074666"><ele>-3.6</ele><time>2021-05-12T10:05:51Z</time><name>PT61</name></trkpt>
<trkpt lat="53.099829" lon="06.074688"><ele>-3.6</ele><time>2021-05-12T10:05:52Z</time><name>PT62</name></trkpt>
<trkpt lat="53.099828" lon="06.074710"><ele>-3.7</ele><time>2021-05-12T10:05:53Z</time><name>PT63</name></trkpt>
<trkpt lat="53.099827" lon="06.074737"><ele>-3.7</ele><time>2021-05-12T10:05:54Z</time><name>PT64</name></trkpt>
<trkpt lat="53.099825" lon="06.074763"><ele>-3.7</ele><time>2021-05-12T10:05:55Z</time><name>PT65</name></trkpt>
<trkpt lat="53.099824" lon="06.074784"><ele>-3.8</ele><time>2021-05-12T10:05:56Z</time><name>PT66</name></trkpt>
<trkpt lat="53.099823" lon="06.074801"><ele>-3.9</ele><time>2021-05-12T10:05:57Z</time><name>PT67</name></trkpt>
<trkpt lat="53.099826" lon="06.074815"><ele>-3.9</ele><time>2021-05-12T10:05:58Z</time><name>PT68</name></trkpt>
<trkpt lat="53.099829" lon="06.074821"><ele>-4.1</ele><time>2021-05-12T10:05:59Z</time><name>PT69</name></trkpt>
<trkpt lat="53.099836" lon="06.074821"><ele>-4.1</ele><time>2021-05-12T10:06:00Z</time><name>PT70</name></trkpt>
<trkpt lat="53.099844" lon="06.074821"><ele>-4.1</ele><time>2021-05-12T10:06:01Z</time><name>PT71</name></trkpt>
<trkpt lat="53.099852" lon="06.074824"><ele>-3.9</ele><time>2021-05-12T10:06:02Z</time><name>PT72</name></trkpt>
<trkpt lat="53.099862" lon="06.074827"><ele>-3.6</ele><time>2021-05-12T10:06:03Z</time><name>PT73</name></trkpt>
<trkpt lat="53.099871" lon="06.074826"><ele>-3.6</ele><time>2021-05-12T10:06:04Z</time><name>PT74</name></trkpt>
<trkpt lat="53.099880" lon="06.074824"><ele>-3.7</ele><time>2021-05-12T10:06:05Z</time><name>PT75</name></trkpt>
<trkpt lat="53.099889" lon="06.074822"><ele>-3.7</ele><time>2021-05-12T10:06:06Z</time><name>PT76</name></trkpt>
<trkpt lat="53.099900" lon="06.074821"><ele>-3.8</ele><time>2021-05-12T10:06:07Z</time><name>PT77</name></trkpt>
<trkpt lat="53.099909" lon="06.074823"><ele>-4</ele><time>2021-05-12T10:06:08Z</time><name>PT78</name></trkpt>
<trkpt lat="53.099920" lon="06.074823"><ele>-3.8</ele><time>2021-05-12T10:06:09Z</time><name>PT79</name></trkpt>
<trkpt lat="53.099927" lon="06.074824"><ele>-3.7</ele><time>2021-05-12T10:06:10Z</time><name>PT80</name></trkpt>
<trkpt lat="53.099934" lon="06.074827"><ele>-3.6</ele><time>2021-05-12T10:06:11Z</time><name>PT81</name></trkpt>
<trkpt lat="53.099944" lon="06.074830"><ele>-3.4</ele><time>2021-05-12T10:06:12Z</time><name>PT82</name></trkpt>
<trkpt lat="53.099956" lon="06.074833"><ele>-3.5</ele><time>2021-05-12T10:06:13Z</time><name>PT83</name></trkpt>
<trkpt lat="53.099967" lon="06.074833"><ele>-3.5</ele><time>2021-05-12T10:06:14Z</time><name>PT84</name></trkpt>
<trkpt lat="53.099978" lon="06.074834"><ele>-3.6</ele><time>2021-05-12T10:06:15Z</time><name>PT85</name></trkpt>
<trkpt lat="53.099988" lon="06.074835"><ele>-3.6</ele><time>2021-05-12T10:06:16Z</time><name>PT86</name></trkpt>
<trkpt lat="53.100000" lon="06.074836"><ele>-3.5</ele><time>2021-05-12T10:06:17Z</time><name>PT87</name></trkpt>
<trkpt lat="53.100009" lon="06.074840"><ele>-3.3</ele><time>2021-05-12T10:06:18Z</time><name>PT88</name></trkpt>
<trkpt lat="53.100019" lon="06.074843"><ele>-3.2</ele><time>2021-05-12T10:06:19Z</time><name>PT89</name></trkpt>
<trkpt lat="53.100029" lon="06.074846"><ele>-3.1</ele><time>2021-05-12T10:06:20Z</time><name>PT90</name></trkpt>
<trkpt lat="53.100038" lon="06.074847"><ele>-3.1</ele><time>2021-05-12T10:06:21Z</time><name>PT91</name></trkpt>
<trkpt lat="53.100048" lon="06.074851"><ele>-3.1</ele><time>2021-05-12T10:06:22Z</time><name>PT92</name></trkpt>
<trkpt lat="53.100059" lon="06.074853"><ele>-3.1</ele><time>2021-05-12T10:06:23Z</time><name>PT93</name></trkpt>
<trkpt lat="53.100069" lon="06.074851"><ele>-3.3</ele><time>2021-05-12T10:06:24Z</time><name>PT94</name></trkpt>
<trkpt lat="53.100073" lon="06.074851"><ele>-3.3</ele><time>2021-05-12T10:06:25Z</time><name>PT95</name></trkpt>
<trkpt lat="53.100075" lon="06.074851"><ele>-3.4</ele><time>2021-05-12T10:06:26Z</time><name>PT96</name></trkpt>
<trkpt lat="53.100083" lon="06.074852"><ele>-3.4</ele><time>2021-05-12T10:06:27Z</time><name>PT97</name></trkpt>
<trkpt lat="53.100094" lon="06.074850"><ele>-3.2</ele><time>2021-05-12T10:06:28Z</time><name>PT98</name></trkpt>
<trkpt lat="53.100103" lon="06.074851"><ele>-3.1</ele><time>2021-05-12T10:06:29Z</time><name>PT99</name></trkpt>
<trkpt lat="53.100111" lon="06.074854"><ele>-2.9</ele><time>2021-05-12T10:06:30Z</time><name>PT100</name></trkpt>
<trkpt lat="53.100120" lon="06.074855"><ele>-2.9</ele><time>2021-05-12T10:06:31Z</time><name>PT101</name></trkpt>
<trkpt lat="53.100132" lon="06.074860"><ele>-2.6</ele><time>2021-05-12T10:06:32Z</time><name>PT102</name></trkpt>
<trkpt lat="53.100143" lon="06.074862"><ele>-2.7</ele><time>2021-05-12T10:06:33Z</time><name>PT103</name></trkpt>
<trkpt lat="53.100155" lon="06.074861"><ele>-2.7</ele><time>2021-05-12T10:06:34Z</time><name>PT104</name></trkpt>
<trkpt lat="53.100167" lon="06.074862"><ele>-2.6</ele><time>2021-05-12T10:06:35Z</time><name>PT105</name></trkpt>
<trkpt lat="53.100178" lon="06.074866"><ele>-2.8</ele><time>2021-05-12T10:06:36Z</time><name>PT106</name></trkpt>
<trkpt lat="53.100187" lon="06.074872"><ele>-2.7</ele><time>2021-05-12T10:06:37Z</time><name>PT107</name></trkpt>
<trkpt lat="53.100197" lon="06.074875"><ele>-2.9</ele><time>2021-05-12T10:06:38Z</time><name>PT108</name></trkpt>
<trkpt lat="53.100213" lon="06.074877"><ele>-3.1</ele><time>2021-05-12T10:06:39Z</time><name>PT109</name></trkpt>
<trkpt lat="53.100228" lon="06.074880"><ele>-3.2</ele><time>2021-05-12T10:06:40Z</time><name>PT110</name></trkpt>
<trkpt lat="53.100240" lon="06.074883"><ele>-3.3</ele><time>2021-05-12T10:06:41Z</time><name>PT111</name></trkpt>
<trkpt lat="53.100247" lon="06.074884"><ele>-3.4</ele><time>2021-05-12T10:06:43Z</time><name>PT112</name></trkpt>
<trkpt lat="53.100255" lon="06.074885"><ele>-3.6</ele><time>2021-05-12T10:06:43Z</time><name>PT113</name></trkpt>
<trkpt lat="53.100266" lon="06.074889"><ele>-3.5</ele><time>2021-05-12T10:06:44Z</time><name>PT114</name></trkpt>
<trkpt lat="53.100277" lon="06.074892"><ele>-3.4</ele><time>2021-05-12T10:06:45Z</time><name>PT115</name></trkpt>
<trkpt lat="53.100288" lon="06.074893"><ele>-3.4</ele><time>2021-05-12T10:06:46Z</time><name>PT116</name></trkpt>
<trkpt lat="53.100299" lon="06.074894"><ele>-3.4</ele><time>2021-05-12T10:06:47Z</time><name>PT117</name></trkpt>
<trkpt lat="53.100309" lon="06.074893"><ele>-3.3</ele><time>2021-05-12T10:06:48Z</time><name>PT118</name></trkpt>
<trkpt lat="53.100318" lon="06.074896"><ele>-3.4</ele><time>2021-05-12T10:06:49Z</time><name>PT119</name></trkpt>
<trkpt lat="53.100328" lon="06.074898"><ele>-3.3</ele><time>2021-05-12T10:06:50Z</time><name>PT120</name></trkpt>
<trkpt lat="53.100339" lon="06.074900"><ele>-3.3</ele><time>2021-05-12T10:06:51Z</time><name>PT121</name></trkpt>
<trkpt lat="53.100350" lon="06.074901"><ele>-3.2</ele><time>2021-05-12T10:06:52Z</time><name>PT122</name></trkpt>
<trkpt lat="53.100360" lon="06.074901"><ele>-3.2</ele><time>2021-05-12T10:06:53Z</time><name>PT123</name></trkpt>
<trkpt lat="53.100368" lon="06.074903"><ele>-3.4</ele><time>2021-05-12T10:06:54Z</time><name>PT124</name></trkpt>
<trkpt lat="53.100377" lon="06.074903"><ele>-3.5</ele><time>2021-05-12T10:06:55Z</time><name>PT125</name></trkpt>
<trkpt lat="53.100389" lon="06.074901"><ele>-3.4</ele><time>2021-05-12T10:06:56Z</time><name>PT126</name></trkpt>
<trkpt lat="53.100405" lon="06.074899"><ele>-3.5</ele><time>2021-05-12T10:06:57Z</time><name>PT127</name></trkpt>
<trkpt lat="53.100418" lon="06.074900"><ele>-3.4</ele><time>2021-05-12T10:06:58Z</time><name>PT128</name></trkpt>
<trkpt lat="53.100432" lon="06.074896"><ele>-3.5</ele><time>2021-05-12T10:06:59Z</time><name>PT129</name></trkpt>
<trkpt lat="53.100440" lon="06.074898"><ele>-3.2</ele><time>2021-05-12T10:07:00Z</time><name>PT130</name></trkpt>
<trkpt lat="53.100447" lon="06.074898"><ele>-3.1</ele><time>2021-05-12T10:07:01Z</time><name>PT131</name></trkpt>
<trkpt lat="53.100453" lon="06.074895"><ele>-3.2</ele><time>2021-05-12T10:07:02Z</time><name>PT132</name></trkpt>
<trkpt lat="53.100462" lon="06.074898"><ele>-3.3</ele><time>2021-05-12T10:07:03Z</time><name>PT133</name></trkpt>
<trkpt lat="53.100478" lon="06.074903"><ele>-3.4</ele><time>2021-05-12T10:07:04Z</time><name>PT134</name></trkpt>
<trkpt lat="53.100493" lon="06.074912"><ele>-3.5</ele><time>2021-05-12T10:07:05Z</time><name>PT135</name></trkpt>
<trkpt lat="53.100508" lon="06.074917"><ele>-3.4</ele><time>2021-05-12T10:07:06Z</time><name>PT136</name></trkpt>
<trkpt lat="53.100520" lon="06.074919"><ele>-3.4</ele><time>2021-05-12T10:07:07Z</time><name>PT137</name></trkpt>
<trkpt lat="53.100533" lon="06.074922"><ele>-3.3</ele><time>2021-05-12T10:07:08Z</time><name>PT138</name></trkpt>
<trkpt lat="53.100552" lon="06.074922"><ele>-3.4</ele><time>2021-05-12T10:07:09Z</time><name>PT139</name></trkpt>
<trkpt lat="53.100563" lon="06.074920"><ele>-3.6</ele><time>2021-05-12T10:07:10Z</time><name>PT140</name></trkpt>
<trkpt lat="53.100578" lon="06.074925"><ele>-3.6</ele><time>2021-05-12T10:07:11Z</time><name>PT141</name></trkpt>
<trkpt lat="53.100598" lon="06.074930"><ele>-3.6</ele><time>2021-05-12T10:07:12Z</time><name>PT142</name></trkpt>
<trkpt lat="53.100611" lon="06.074917"><ele>-3.6</ele><time>2021-05-12T10:07:13Z</time><name>PT143</name></trkpt>
<trkpt lat="53.100619" lon="06.074899"><ele>-3.5</ele><time>2021-05-12T10:07:14Z</time><name>PT144</name></trkpt>
<trkpt lat="53.100621" lon="06.074880"><ele>-3.7</ele><time>2021-05-12T10:07:15Z</time><name>PT145</name></trkpt>
<trkpt lat="53.100618" lon="06.074857"><ele>-3.8</ele><time>2021-05-12T10:07:16Z</time><name>PT146</name></trkpt>
<trkpt lat="53.100619" lon="06.074834"><ele>-3.6</ele><time>2021-05-12T10:07:17Z</time><name>PT147</name></trkpt>
<trkpt lat="53.100620" lon="06.074817"><ele>-3.6</ele><time>2021-05-12T10:07:18Z</time><name>PT148</name></trkpt>
<trkpt lat="53.100620" lon="06.074804"><ele>-3.5</ele><time>2021-05-12T10:07:19Z</time><name>PT149</name></trkpt>
<trkpt lat="53.100619" lon="06.074793"><ele>-3.5</ele><time>2021-05-12T10:07:20Z</time><name>PT150</name></trkpt>
<trkpt lat="53.100618" lon="06.074784"><ele>-3.5</ele><time>2021-05-12T10:07:21Z</time><name>PT151</name></trkpt>
<trkpt lat="53.100618" lon="06.074775"><ele>-3.6</ele><time>2021-05-12T10:07:22Z</time><name>PT152</name></trkpt>
<trkpt lat="53.100627" lon="06.074764"><ele>-3.4</ele><time>2021-05-12T10:07:23Z</time><name>PT153</name></trkpt>
<trkpt lat="53.100639" lon="06.074759"><ele>-3.3</ele><time>2021-05-12T10:07:24Z</time><name>PT154</name></trkpt>
<trkpt lat="53.100655" lon="06.074760"><ele>-3.3</ele><time>2021-05-12T10:07:25Z</time><name>PT155</name></trkpt>
<trkpt lat="53.100671" lon="06.074760"><ele>-3.3</ele><time>2021-05-12T10:07:26Z</time><name>PT156</name></trkpt>
<trkpt lat="53.100689" lon="06.074759"><ele>-3.1</ele><time>2021-05-12T10:07:27Z</time><name>PT157</name></trkpt>
<trkpt lat="53.100707" lon="06.074758"><ele>-3.1</ele><time>2021-05-12T10:07:28Z</time><name>PT158</name></trkpt>
<trkpt lat="53.100726" lon="06.074757"><ele>-3</ele><time>2021-05-12T10:07:29Z</time><name>PT159</name></trkpt>
<trkpt lat="53.100744" lon="06.074755"><ele>-3.5</ele><time>2021-05-12T10:07:30Z</time><name>PT160</name></trkpt>
<trkpt lat="53.100760" lon="06.074749"><ele>-3.9</ele><time>2021-05-12T10:07:31Z</time><name>PT161</name></trkpt>
<trkpt lat="53.100773" lon="06.074745"><ele>-3.8</ele><time>2021-05-12T10:07:32Z</time><name>PT162</name></trkpt>
<trkpt lat="53.100788" lon="06.074742"><ele>-3.4</ele><time>2021-05-12T10:07:33Z</time><name>PT163</name></trkpt>
<trkpt lat="53.100801" lon="06.074742"><ele>-3.3</ele><time>2021-05-12T10:07:34Z</time><name>PT164</name></trkpt>
<trkpt lat="53.100812" lon="06.074746"><ele>-2.3</ele><time>2021-05-12T10:07:35Z</time><name>PT165</name></trkpt>
<trkpt lat="53.100823" lon="06.074747"><ele>-2.2</ele><time>2021-05-12T10:07:36Z</time><name>PT166</name></trkpt>
<trkpt lat="53.100836" lon="06.074741"><ele>-2.2</ele><time>2021-05-12T10:07:37Z</time><name>PT167</name></trkpt>
<trkpt lat="53.100848" lon="06.074738"><ele>-2.6</ele><time>2021-05-12T10:07:38Z</time><name>PT168</name></trkpt>
<trkpt lat="53.100859" lon="06.074739"><ele>-3.1</ele><time>2021-05-12T10:07:39Z</time><name>PT169</name></trkpt>
<trkpt lat="53.100874" lon="06.074741"><ele>-3.1</ele><time>2021-05-12T10:07:40Z</time><name>PT170</name></trkpt>
<trkpt lat="53.100885" lon="06.074744"><ele>-3.1</ele><time>2021-05-12T10:07:41Z</time><name>PT171</name></trkpt>
<trkpt lat="53.100896" lon="06.074747"><ele>-3.4</ele><time>2021-05-12T10:07:42Z</time><name>PT172</name></trkpt>
<trkpt lat="53.100903" lon="06.074747"><ele>-3.6</ele><time>2021-05-12T10:07:43Z</time><name>PT173</name></trkpt>
<trkpt lat="53.100910" lon="06.074745"><ele>-3.7</ele><time>2021-05-12T10:07:44Z</time><name>PT174</name></trkpt>
<trkpt lat="53.100918" lon="06.074745"><ele>-3.7</ele><time>2021-05-12T10:07:46Z</time><name>PT175</name></trkpt>
<trkpt lat="53.100924" lon="06.074744"><ele>-3.8</ele><time>2021-05-12T10:07:46Z</time><name>PT176</name></trkpt>
<trkpt lat="53.100933" lon="06.074747"><ele>-3.9</ele><time>2021-05-12T10:07:47Z</time><name>PT177</name></trkpt>
<trkpt lat="53.100945" lon="06.074755"><ele>-3.7</ele><time>2021-05-12T10:07:48Z</time><name>PT178</name></trkpt>
<trkpt lat="53.100959" lon="06.074760"><ele>-3.6</ele><time>2021-05-12T10:07:49Z</time><name>PT179</name></trkpt>
<trkpt lat="53.100967" lon="06.074769"><ele>-3.6</ele><time>2021-05-12T10:07:50Z</time><name>PT180</name></trkpt>
<trkpt lat="53.100965" lon="06.074777"><ele>-3.5</ele><time>2021-05-12T10:07:52Z</time><name>PT181</name></trkpt>
<trkpt lat="53.100961" lon="06.074777"><ele>-3.6</ele><time>2021-05-12T10:07:52Z</time><name>PT182</name></trkpt>
<trkpt lat="53.100967" lon="06.074784"><ele>-3.6</ele><time>2021-05-12T10:07:53Z</time><name>PT183</name></trkpt>
<trkpt lat="53.100966" lon="06.074785"><ele>-3.6</ele><time>2021-05-12T10:07:55Z</time><name>PT184</name></trkpt>
<trkpt lat="53.100966" lon="06.074789"><ele>-3.8</ele><time>2021-05-12T10:07:57Z</time><name>PT185</name></trkpt>
<trkpt lat="53.100980" lon="06.074790"><ele>-3.7</ele><time>2021-05-12T10:07:58Z</time><name>PT186</name></trkpt>
<trkpt lat="53.100996" lon="06.074777"><ele>-3.7</ele><time>2021-05-12T10:07:59Z</time><name>PT187</name></trkpt>
<trkpt lat="53.101007" lon="06.074772"><ele>-3.7</ele><time>2021-05-12T10:08:00Z</time><name>PT188</name></trkpt>
<trkpt lat="53.101014" lon="06.074770"><ele>-3.8</ele><time>2021-05-12T10:08:01Z</time><name>PT189</name></trkpt>
<trkpt lat="53.101025" lon="06.074771"><ele>-3.6</ele><time>2021-05-12T10:08:02Z</time><name>PT190</name></trkpt>
<trkpt lat="53.101036" lon="06.074769"><ele>-3.6</ele><time>2021-05-12T10:08:03Z</time><name>PT191</name></trkpt>
<trkpt lat="53.101046" lon="06.074762"><ele>-3.6</ele><time>2021-05-12T10:08:04Z</time><name>PT192</name></trkpt>
<trkpt lat="53.101054" lon="06.074765"><ele>-3.6</ele><time>2021-05-12T10:08:05Z</time><name>PT193</name></trkpt>
<trkpt lat="53.101062" lon="06.074778"><ele>-3.6</ele><time>2021-05-12T10:08:06Z</time><name>PT194</name></trkpt>
<trkpt lat="53.101065" lon="06.074793"><ele>-3.6</ele><time>2021-05-12T10:08:07Z</time><name>PT195</name></trkpt>
<trkpt lat="53.101065" lon="06.074819"><ele>-3.6</ele><time>2021-05-12T10:08:08Z</time><name>PT196</name></trkpt>
<trkpt lat="53.101068" lon="06.074842"><ele>-3.6</ele><time>2021-05-12T10:08:09Z</time><name>PT197</name></trkpt>
<trkpt lat="53.101072" lon="06.074865"><ele>-3.6</ele><time>2021-05-12T10:08:10Z</time><name>PT198</name></trkpt>
<trkpt lat="53.101077" lon="06.074882"><ele>-3.7</ele><time>2021-05-12T10:08:11Z</time><name>PT199</name></trkpt>
<trkpt lat="53.101087" lon="06.074897"><ele>-3.7</ele><time>2021-05-12T10:08:12Z</time><name>PT200</name></trkpt>
<trkpt lat="53.101093" lon="06.074906"><ele>-3.6</ele><time>2021-05-12T10:08:13Z</time><name>PT201</name></trkpt>
<trkpt lat="53.101102" lon="06.074906"><ele>-3.3</ele><time>2021-05-12T10:08:14Z</time><name>PT202</name></trkpt>
<trkpt lat="53.101105" lon="06.074907"><ele>-3.1</ele><time>2021-05-12T10:08:15Z</time><name>PT203</name></trkpt>
<trkpt lat="53.101108" lon="06.074907"><ele>-3.1</ele><time>2021-05-12T10:08:16Z</time><name>PT204</name></trkpt>
<trkpt lat="53.101118" lon="06.074908"><ele>-3.1</ele><time>2021-05-12T10:08:17Z</time><name>PT205</name></trkpt>
<trkpt lat="53.101129" lon="06.074909"><ele>-3.2</ele><time>2021-05-12T10:08:18Z</time><name>PT206</name></trkpt>
<trkpt lat="53.101140" lon="06.074918"><ele>-3.2</ele><time>2021-05-12T10:08:19Z</time><name>PT207</name></trkpt>
<trkpt lat="53.101155" lon="06.074923"><ele>-3.2</ele><time>2021-05-12T10:08:20Z</time><name>PT208</name></trkpt>
<trkpt lat="53.101174" lon="06.074928"><ele>-3.1</ele><time>2021-05-12T10:08:21Z</time><name>PT209</name></trkpt>
<trkpt lat="53.101190" lon="06.074929"><ele>-3.2</ele><time>2021-05-12T10:08:22Z</time><name>PT210</name></trkpt>
<trkpt lat="53.101202" lon="06.074930"><ele>-3.3</ele><time>2021-05-12T10:08:23Z</time><name>PT211</name></trkpt>
<trkpt lat="53.101215" lon="06.074931"><ele>-3.6</ele><time>2021-05-12T10:08:24Z</time><name>PT212</name></trkpt>
<trkpt lat="53.101225" lon="06.074932"><ele>-3.7</ele><time>2021-05-12T10:08:25Z</time><name>PT213</name></trkpt>
<trkpt lat="53.101232" lon="06.074929"><ele>-3.7</ele><time>2021-05-12T10:08:26Z</time><name>PT214</name></trkpt>
<trkpt lat="53.101236" lon="06.074930"><ele>-3.5</ele><time>2021-05-12T10:08:27Z</time><name>PT215</name></trkpt>
<trkpt lat="53.101248" lon="06.074932"><ele>-3.4</ele><time>2021-05-12T10:08:28Z</time><name>PT216</name></trkpt>
<trkpt lat="53.101263" lon="06.074933"><ele>-3.2</ele><time>2021-05-12T10:08:29Z</time><name>PT217</name></trkpt>
<trkpt lat="53.101281" lon="06.074932"><ele>-3.1</ele><time>2021-05-12T10:08:30Z</time><name>PT218</name></trkpt>
<trkpt lat="53.101295" lon="06.074933"><ele>-3.1</ele><time>2021-05-12T10:08:31Z</time><name>PT219</name></trkpt>
<trkpt lat="53.101310" lon="06.074935"><ele>-3.1</ele><time>2021-05-12T10:08:32Z</time><name>PT220</name></trkpt>
<trkpt lat="53.101326" lon="06.074937"><ele>-3.1</ele><time>2021-05-12T10:08:33Z</time><name>PT221</name></trkpt>
<trkpt lat="53.101340" lon="06.074936"><ele>-3.2</ele><time>2021-05-12T10:08:34Z</time><name>PT222</name></trkpt>
<trkpt lat="53.101354" lon="06.074937"><ele>-3.3</ele><time>2021-05-12T10:08:35Z</time><name>PT223</name></trkpt>
<trkpt lat="53.101367" lon="06.074938"><ele>-3.5</ele><time>2021-05-12T10:08:36Z</time><name>PT224</name></trkpt>
<trkpt lat="53.101378" lon="06.074937"><ele>-3.6</ele><time>2021-05-12T10:08:37Z</time><name>PT225</name></trkpt>
<trkpt lat="53.101387" lon="06.074936"><ele>-3.6</ele><time>2021-05-12T10:08:38Z</time><name>PT226</name></trkpt>
<trkpt lat="53.101398" lon="06.074940"><ele>-3.5</ele><time>2021-05-12T10:08:39Z</time><name>PT227</name></trkpt>
<trkpt lat="53.101410" lon="06.074943"><ele>-3.5</ele><time>2021-05-12T10:08:40Z</time><name>PT228</name></trkpt>
<trkpt lat="53.101421" lon="06.074946"><ele>-3.3</ele><time>2021-05-12T10:08:41Z</time><name>PT229</name></trkpt>
<trkpt lat="53.101433" lon="06.074948"><ele>-3.1</ele><time>2021-05-12T10:08:43Z</time><name>PT230</name></trkpt>
<trkpt lat="53.101445" lon="06.074951"><ele>-3.1</ele><time>2021-05-12T10:08:43Z</time><name>PT231</name></trkpt>
<trkpt lat="53.101458" lon="06.074954"><ele>-3</ele><time>2021-05-12T10:08:44Z</time><name>PT232</name></trkpt>
<trkpt lat="53.101473" lon="06.074956"><ele>-3</ele><time>2021-05-12T10:08:45Z</time><name>PT233</name></trkpt>
<trkpt lat="53.101488" lon="06.074952"><ele>-3</ele><time>2021-05-12T10:08:46Z</time><name>PT234</name></trkpt>
<trkpt lat="53.101494" lon="06.074944"><ele>-3.1</ele><time>2021-05-12T10:08:47Z</time><name>PT235</name></trkpt>
<trkpt lat="53.101502" lon="06.074944"><ele>-3.2</ele><time>2021-05-12T10:08:49Z</time><name>PT236</name></trkpt>
<trkpt lat="53.101512" lon="06.074944"><ele>-3.1</ele><time>2021-05-12T10:08:49Z</time><name>PT237</name></trkpt>
<trkpt lat="53.101521" lon="06.074946"><ele>-3.4</ele><time>2021-05-12T10:08:50Z</time><name>PT238</name></trkpt>
<trkpt lat="53.101530" lon="06.074947"><ele>-3.4</ele><time>2021-05-12T10:08:51Z</time><name>PT239</name></trkpt>
<trkpt lat="53.101541" lon="06.074947"><ele>-3.4</ele><time>2021-05-12T10:08:52Z</time><name>PT240</name></trkpt>
<trkpt lat="53.101553" lon="06.074946"><ele>-3.4</ele><time>2021-05-12T10:08:53Z</time><name>PT241</name></trkpt>
<trkpt lat="53.101564" lon="06.074947"><ele>-3.4</ele><time>2021-05-12T10:08:54Z</time><name>PT242</name></trkpt>
<trkpt lat="53.101572" lon="06.074947"><ele>-3.2</ele><time>2021-05-12T10:08:55Z</time><name>PT243</name></trkpt>
<trkpt lat="53.101579" lon="06.074948"><ele>-3.3</ele><time>2021-05-12T10:08:56Z</time><name>PT244</name></trkpt>
<trkpt lat="53.101589" lon="06.074947"><ele>-3.2</ele><time>2021-05-12T10:08:57Z</time><name>PT245</name></trkpt>
<trkpt lat="53.101600" lon="06.074944"><ele>-3.3</ele><time>2021-05-12T10:08:58Z</time><name>PT246</name></trkpt>
<trkpt lat="53.101611" lon="06.074943"><ele>-3.4</ele><time>2021-05-12T10:08:59Z</time><name>PT247</name></trkpt>
<trkpt lat="53.101623" lon="06.074939"><ele>-3.4</ele><time>2021-05-12T10:09:00Z</time><name>PT248</name></trkpt>
<trkpt lat="53.101635" lon="06.074934"><ele>-3.5</ele><time>2021-05-12T10:09:01Z</time><name>PT249</name></trkpt>
<trkpt lat="53.101647" lon="06.074924"><ele>-3.5</ele><time>2021-05-12T10:09:02Z</time><name>PT250</name></trkpt>
<trkpt lat="53.101655" lon="06.074919"><ele>-3.3</ele><time>2021-05-12T10:09:03Z</time><name>PT251</name></trkpt>
<trkpt lat="53.101659" lon="06.074915"><ele>-3.2</ele><time>2021-05-12T10:09:04Z</time><name>PT252</name></trkpt>
<trkpt lat="53.101669" lon="06.074913"><ele>-3.1</ele><time>2021-05-12T10:09:05Z</time><name>PT253</name></trkpt>
<trkpt lat="53.101683" lon="06.074910"><ele>-3.1</ele><time>2021-05-12T10:09:06Z</time><name>PT254</name></trkpt>
<trkpt lat="53.101696" lon="06.074905"><ele>-3.2</ele><time>2021-05-12T10:09:07Z</time><name>PT255</name></trkpt>
<trkpt lat="53.101706" lon="06.074895"><ele>-3.4</ele><time>2021-05-12T10:09:08Z</time><name>PT256</name></trkpt>
<trkpt lat="53.101718" lon="06.074883"><ele>-3.2</ele><time>2021-05-12T10:09:10Z</time><name>PT257</name></trkpt>
<trkpt lat="53.101727" lon="06.074874"><ele>-3.2</ele><time>2021-05-12T10:09:10Z</time><name>PT258</name></trkpt>
<trkpt lat="53.101739" lon="06.074864"><ele>-3.1</ele><time>2021-05-12T10:09:11Z</time><name>PT259</name></trkpt>
<trkpt lat="53.101751" lon="06.074855"><ele>-3.1</ele><time>2021-05-12T10:09:12Z</time><name>PT260</name></trkpt>
<trkpt lat="53.101760" lon="06.074849"><ele>-3.1</ele><time>2021-05-12T10:09:13Z</time><name>PT261</name></trkpt>
<trkpt lat="53.101769" lon="06.074844"><ele>-3.1</ele><time>2021-05-12T10:09:14Z</time><name>PT262</name></trkpt>
<trkpt lat="53.101780" lon="06.074836"><ele>-3.2</ele><time>2021-05-12T10:09:15Z</time><name>PT263</name></trkpt>
<trkpt lat="53.101790" lon="06.074833"><ele>-3.2</ele><time>2021-05-12T10:09:16Z</time><name>PT264</name></trkpt>
<trkpt lat="53.101796" lon="06.074825"><ele>-3.2</ele><time>2021-05-12T10:09:17Z</time><name>PT265</name></trkpt>
<trkpt lat="53.101807" lon="06.074817"><ele>-3.3</ele><time>2021-05-12T10:09:18Z</time><name>PT266</name></trkpt>
<trkpt lat="53.101818" lon="06.074813"><ele>-3.3</ele><time>2021-05-12T10:09:19Z</time><name>PT267</name></trkpt>
<trkpt lat="53.101830" lon="06.074805"><ele>-3.4</ele><time>2021-05-12T10:09:20Z</time><name>PT268</name></trkpt>
<trkpt lat="53.101844" lon="06.074797"><ele>-3.3</ele><time>2021-05-12T10:09:21Z</time><name>PT269</name></trkpt>
<trkpt lat="53.101857" lon="06.074789"><ele>-3.4</ele><time>2021-05-12T10:09:22Z</time><name>PT270</name></trkpt>
<trkpt lat="53.101873" lon="06.074779"><ele>-3.4</ele><time>2021-05-12T10:09:23Z</time><name>PT271</name></trkpt>
<trkpt lat="53.101891" lon="06.074770"><ele>-3.4</ele><time>2021-05-12T10:09:25Z</time><name>PT272</name></trkpt>
<trkpt lat="53.101906" lon="06.074762"><ele>-3.2</ele><time>2021-05-12T10:09:25Z</time><name>PT273</name></trkpt>
<trkpt lat="53.101915" lon="06.074753"><ele>-3.2</ele><time>2021-05-12T10:09:26Z</time><name>PT274</name></trkpt>
<trkpt lat="53.101922" lon="06.074743"><ele>-3.2</ele><time>2021-05-12T10:09:27Z</time><name>PT275</name></trkpt>
<trkpt lat="53.101930" lon="06.074735"><ele>-3.3</ele><time>2021-05-12T10:09:28Z</time><name>PT276</name></trkpt>
<trkpt lat="53.101938" lon="06.074728"><ele>-3.5</ele><time>2021-05-12T10:09:29Z</time><name>PT277</name></trkpt>
<trkpt lat="53.101944" lon="06.074723"><ele>-3.5</ele><time>2021-05-12T10:09:30Z</time><name>PT278</name></trkpt>
<trkpt lat="53.101947" lon="06.074718"><ele>-3.6</ele><time>2021-05-12T10:09:31Z</time><name>PT279</name></trkpt>
<trkpt lat="53.101951" lon="06.074713"><ele>-3.5</ele><time>2021-05-12T10:09:32Z</time><name>PT280</name></trkpt>
<trkpt lat="53.101958" lon="06.074707"><ele>-3.3</ele><time>2021-05-12T10:09:33Z</time><name>PT281</name></trkpt>
<trkpt lat="53.101965" lon="06.074704"><ele>-3.2</ele><time>2021-05-12T10:09:34Z</time><name>PT282</name></trkpt>
<trkpt lat="53.101976" lon="06.074702"><ele>-3.2</ele><time>2021-05-12T10:09:35Z</time><name>PT283</name></trkpt>
<trkpt lat="53.101985" lon="06.074704"><ele>-3.2</ele><time>2021-05-12T10:09:36Z</time><name>PT284</name></trkpt>
<trkpt lat="53.101991" lon="06.074710"><ele>-3.1</ele><time>2021-05-12T10:09:37Z</time><name>PT285</name></trkpt>
<trkpt lat="53.102001" lon="06.074712"><ele>-3.2</ele><time>2021-05-12T10:09:38Z</time><name>PT286</name></trkpt>
<trkpt lat="53.102010" lon="06.074714"><ele>-3.4</ele><time>2021-05-12T10:09:40Z</time><name>PT287</name></trkpt>
<trkpt lat="53.102024" lon="06.074719"><ele>-3.4</ele><time>2021-05-12T10:09:40Z</time><name>PT288</name></trkpt>
<trkpt lat="53.102038" lon="06.074727"><ele>-3.2</ele><time>2021-05-12T10:09:41Z</time><name>PT289</name></trkpt>
<trkpt lat="53.102054" lon="06.074732"><ele>-3.3</ele><time>2021-05-12T10:09:42Z</time><name>PT290</name></trkpt>
<trkpt lat="53.102070" lon="06.074736"><ele>-3.2</ele><time>2021-05-12T10:09:43Z</time><name>PT291</name></trkpt>
<trkpt lat="53.102086" lon="06.074738"><ele>-3.2</ele><time>2021-05-12T10:09:44Z</time><name>PT292</name></trkpt>
<trkpt lat="53.102104" lon="06.074741"><ele>-3.2</ele><time>2021-05-12T10:09:45Z</time><name>PT293</name></trkpt>
<trkpt lat="53.102124" lon="06.074742"><ele>-3.3</ele><time>2021-05-12T10:09:46Z</time><name>PT294</name></trkpt>
<trkpt lat="53.102140" lon="06.074739"><ele>-3.3</ele><time>2021-05-12T10:09:47Z</time><name>PT295</name></trkpt>
<trkpt lat="53.102150" lon="06.074741"><ele>-3.4</ele><time>2021-05-12T10:09:48Z</time><name>PT296</name></trkpt>
<trkpt lat="53.102159" lon="06.074742"><ele>-3.5</ele><time>2021-05-12T10:09:49Z</time><name>PT297</name></trkpt>
<trkpt lat="53.102168" lon="06.074743"><ele>-3.6</ele><time>2021-05-12T10:09:50Z</time><name>PT298</name></trkpt>
<trkpt lat="53.102175" lon="06.074748"><ele>-3.6</ele><time>2021-05-12T10:09:51Z</time><name>PT299</name></trkpt>
<trkpt lat="53.102186" lon="06.074752"><ele>-3.5</ele><time>2021-05-12T10:09:52Z</time><name>PT300</name></trkpt>
<trkpt lat="53.102192" lon="06.074760"><ele>-3.4</ele><time>2021-05-12T10:09:53Z</time><name>PT301</name></trkpt>
<trkpt lat="53.102198" lon="06.074772"><ele>-3.3</ele><time>2021-05-12T10:09:55Z</time><name>PT302</name></trkpt>
<trkpt lat="53.102209" lon="06.074785"><ele>-3.1</ele><time>2021-05-12T10:09:55Z</time><name>PT303</name></trkpt>
<trkpt lat="53.102220" lon="06.074798"><ele>-3</ele><time>2021-05-12T10:09:56Z</time><name>PT304</name></trkpt>
<trkpt lat="53.102231" lon="06.074810"><ele>-3</ele><time>2021-05-12T10:09:57Z</time><name>PT305</name></trkpt>
<trkpt lat="53.102245" lon="06.074829"><ele>-3.1</ele><time>2021-05-12T10:09:58Z</time><name>PT306</name></trkpt>
<trkpt lat="53.102255" lon="06.074851"><ele>-2.9</ele><time>2021-05-12T10:09:59Z</time><name>PT307</name></trkpt>
<trkpt lat="53.102264" lon="06.074873"><ele>-3</ele><time>2021-05-12T10:10:00Z</time><name>PT308</name></trkpt>
<trkpt lat="53.102273" lon="06.074890"><ele>-3.1</ele><time>2021-05-12T10:10:01Z</time><name>PT309</name></trkpt>
<trkpt lat="53.102283" lon="06.074902"><ele>-3.1</ele><time>2021-05-12T10:10:02Z</time><name>PT310</name></trkpt>
<trkpt lat="53.102294" lon="06.074914"><ele>-3.2</ele><time>2021-05-12T10:10:03Z</time><name>PT311</name></trkpt>
<trkpt lat="53.102303" lon="06.074921"><ele>-3.3</ele><time>2021-05-12T10:10:04Z</time><name>PT312</name></trkpt>
<trkpt lat="53.102309" lon="06.074927"><ele>-3.4</ele><time>2021-05-12T10:10:05Z</time><name>PT313</name></trkpt>
<trkpt lat="53.102319" lon="06.074931"><ele>-3.5</ele><time>2021-05-12T10:10:06Z</time><name>PT314</name></trkpt>
<trkpt lat="53.102330" lon="06.074936"><ele>-3.5</ele><time>2021-05-12T10:10:07Z</time><name>PT315</name></trkpt>
<trkpt lat="53.102344" lon="06.074941"><ele>-3.5</ele><time>2021-05-12T10:10:08Z</time><name>PT316</name></trkpt>
<trkpt lat="53.102356" lon="06.074944"><ele>-3.3</ele><time>2021-05-12T10:10:10Z</time><name>PT317</name></trkpt>
<trkpt lat="53.102363" lon="06.074951"><ele>-3.3</ele><time>2021-05-12T10:10:10Z</time><name>PT318</name></trkpt>
<trkpt lat="53.102371" lon="06.074960"><ele>-2.9</ele><time>2021-05-12T10:10:11Z</time><name>PT319</name></trkpt>
<trkpt lat="53.102383" lon="06.074974"><ele>-2.8</ele><time>2021-05-12T10:10:12Z</time><name>PT320</name></trkpt>
<trkpt lat="53.102394" lon="06.074986"><ele>-2.7</ele><time>2021-05-12T10:10:13Z</time><name>PT321</name></trkpt>
<trkpt lat="53.102411" lon="06.075003"><ele>-2.8</ele><time>2021-05-12T10:10:14Z</time><name>PT322</name></trkpt>
<trkpt lat="53.102426" lon="06.075022"><ele>-2.8</ele><time>2021-05-12T10:10:15Z</time><name>PT323</name></trkpt>
<trkpt lat="53.102436" lon="06.075040"><ele>-2.8</ele><time>2021-05-12T10:10:16Z</time><name>PT324</name></trkpt>
<trkpt lat="53.102446" lon="06.075055"><ele>-3.1</ele><time>2021-05-12T10:10:17Z</time><name>PT325</name></trkpt>
<trkpt lat="53.102458" lon="06.075067"><ele>-3.1</ele><time>2021-05-12T10:10:18Z</time><name>PT326</name></trkpt>
<trkpt lat="53.102466" lon="06.075079"><ele>-3.1</ele><time>2021-05-12T10:10:19Z</time><name>PT327</name></trkpt>
<trkpt lat="53.102472" lon="06.075086"><ele>-3.1</ele><time>2021-05-12T10:10:20Z</time><name>PT328</name></trkpt>
<trkpt lat="53.102480" lon="06.075089"><ele>-3.1</ele><time>2021-05-12T10:10:22Z</time><name>PT329</name></trkpt>
<trkpt lat="53.102489" lon="06.075092"><ele>-2.9</ele><time>2021-05-12T10:10:22Z</time><name>PT330</name></trkpt>
<trkpt lat="53.102498" lon="06.075098"><ele>-3</ele><time>2021-05-12T10:10:23Z</time><name>PT331</name></trkpt>
<trkpt lat="53.102505" lon="06.075103"><ele>-3</ele><time>2021-05-12T10:10:25Z</time><name>PT332</name></trkpt>
<trkpt lat="53.102511" lon="06.075109"><ele>-3</ele><time>2021-05-12T10:10:25Z</time><name>PT333</name></trkpt>
<trkpt lat="53.102522" lon="06.075117"><ele>-2.9</ele><time>2021-05-12T10:10:26Z</time><name>PT334</name></trkpt>
<trkpt lat="53.102532" lon="06.075133"><ele>-3</ele><time>2021-05-12T10:10:27Z</time><name>PT335</name></trkpt>
<trkpt lat="53.102548" lon="06.075149"><ele>-3</ele><time>2021-05-12T10:10:28Z</time><name>PT336</name></trkpt>
<trkpt lat="53.102563" lon="06.075163"><ele>-3.1</ele><time>2021-05-12T10:10:29Z</time><name>PT337</name></trkpt>
<trkpt lat="53.102578" lon="06.075176"><ele>-3.3</ele><time>2021-05-12T10:10:30Z</time><name>PT338</name></trkpt>
<trkpt lat="53.102590" lon="06.075183"><ele>-3.5</ele><time>2021-05-12T10:10:31Z</time><name>PT339</name></trkpt>
<trkpt lat="53.102598" lon="06.075185"><ele>-3.4</ele><time>2021-05-12T10:10:32Z</time><name>PT340</name></trkpt>
<trkpt lat="53.102603" lon="06.075184"><ele>-3.4</ele><time>2021-05-12T10:10:33Z</time><name>PT341</name></trkpt>
<trkpt lat="53.102613" lon="06.075194"><ele>-3.3</ele><time>2021-05-12T10:10:34Z</time><name>PT342</name></trkpt>
<trkpt lat="53.102620" lon="06.075204"><ele>-3.1</ele><time>2021-05-12T10:10:35Z</time><name>PT343</name></trkpt>
<trkpt lat="53.102632" lon="06.075221"><ele>-3.1</ele><time>2021-05-12T10:10:37Z</time><name>PT344</name></trkpt>
<trkpt lat="53.102647" lon="06.075235"><ele>-3.1</ele><time>2021-05-12T10:10:37Z</time><name>PT345</name></trkpt>
<trkpt lat="53.102660" lon="06.075241"><ele>-3.1</ele><time>2021-05-12T10:10:38Z</time><name>PT346</name></trkpt>
<trkpt lat="53.102670" lon="06.075241"><ele>-3.1</ele><time>2021-05-12T10:10:39Z</time><name>PT347</name></trkpt>
<trkpt lat="53.102677" lon="06.075236"><ele>-3.1</ele><time>2021-05-12T10:10:40Z</time><name>PT348</name></trkpt>
<trkpt lat="53.102687" lon="06.075234"><ele>-3.3</ele><time>2021-05-12T10:10:41Z</time><name>PT349</name></trkpt>
<trkpt lat="53.102704" lon="06.075235"><ele>-3.4</ele><time>2021-05-12T10:10:42Z</time><name>PT350</name></trkpt>
<trkpt lat="53.102720" lon="06.075233"><ele>-3.3</ele><time>2021-05-12T10:10:43Z</time><name>PT351</name></trkpt>
<trkpt lat="53.102736" lon="06.075230"><ele>-3.5</ele><time>2021-05-12T10:10:44Z</time><name>PT352</name></trkpt>
<trkpt lat="53.102748" lon="06.075227"><ele>-3.3</ele><time>2021-05-12T10:10:45Z</time><name>PT353</name></trkpt>
<trkpt lat="53.102756" lon="06.075225"><ele>-3.1</ele><time>2021-05-12T10:10:46Z</time><name>PT354</name></trkpt>
<trkpt lat="53.102765" lon="06.075223"><ele>-3.1</ele><time>2021-05-12T10:10:47Z</time><name>PT355</name></trkpt>
<trkpt lat="53.102772" lon="06.075222"><ele>-2.9</ele><time>2021-05-12T10:10:48Z</time><name>PT356</name></trkpt>
<trkpt lat="53.102782" lon="06.075224"><ele>-3</ele><time>2021-05-12T10:10:49Z</time><name>PT357</name></trkpt>
<trkpt lat="53.102792" lon="06.075230"><ele>-2.9</ele><time>2021-05-12T10:10:50Z</time><name>PT358</name></trkpt>
<trkpt lat="53.102799" lon="06.075236"><ele>-3</ele><time>2021-05-12T10:10:52Z</time><name>PT359</name></trkpt>
<trkpt lat="53.102807" lon="06.075246"><ele>-2.9</ele><time>2021-05-12T10:10:52Z</time><name>PT360</name></trkpt>
<trkpt lat="53.102813" lon="06.075250"><ele>-3</ele><time>2021-05-12T10:10:53Z</time><name>PT361</name></trkpt>
<trkpt lat="53.102818" lon="06.075255"><ele>-3</ele><time>2021-05-12T10:10:54Z</time><name>PT362</name></trkpt>
<trkpt lat="53.102818" lon="06.075260"><ele>-3.1</ele><time>2021-05-12T10:10:55Z</time><name>PT363</name></trkpt>
<trkpt lat="53.102819" lon="06.075262"><ele>-3</ele><time>2021-05-12T10:10:56Z</time><name>PT364</name></trkpt>
<trkpt lat="53.102819" lon="06.075263"><ele>-3.1</ele><time>2021-05-12T10:10:57Z</time><name>PT365</name></trkpt>
<trkpt lat="53.102819" lon="06.075264"><ele>-3.2</ele><time>2021-05-12T10:10:58Z</time><name>PT366</name></trkpt>
<trkpt lat="53.102821" lon="06.075265"><ele>-3.1</ele><time>2021-05-12T10:10:59Z</time><name>PT367</name></trkpt>
<trkpt lat="53.102826" lon="06.075275"><ele>-2.6</ele><time>2021-05-12T10:11:07Z</time><name>PT368</name></trkpt>
<trkpt lat="53.102831" lon="06.075299"><ele>-2.6</ele><time>2021-05-12T10:11:07Z</time><name>PT369</name></trkpt>
<trkpt lat="53.102840" lon="06.075316"><ele>-2.7</ele><time>2021-05-12T10:11:08Z</time><name>PT370</name></trkpt>
<trkpt lat="53.102854" lon="06.075314"><ele>-2.9</ele><time>2021-05-12T10:11:09Z</time><name>PT371</name></trkpt>
<trkpt lat="53.102864" lon="06.075321"><ele>-3.1</ele><time>2021-05-12T10:11:10Z</time><name>PT372</name></trkpt>
<trkpt lat="53.102873" lon="06.075323"><ele>-3.1</ele><time>2021-05-12T10:11:11Z</time><name>PT373</name></trkpt>
<trkpt lat="53.102877" lon="06.075321"><ele>-3.1</ele><time>2021-05-12T10:11:12Z</time><name>PT374</name></trkpt>
<trkpt lat="53.102885" lon="06.075324"><ele>-3.1</ele><time>2021-05-12T10:11:13Z</time><name>PT375</name></trkpt>
<trkpt lat="53.102892" lon="06.075335"><ele>-2.9</ele><time>2021-05-12T10:11:14Z</time><name>PT376</name></trkpt>
<trkpt lat="53.102901" lon="06.075336"><ele>-3</ele><time>2021-05-12T10:11:16Z</time><name>PT377</name></trkpt>
<trkpt lat="53.102915" lon="06.075325"><ele>-2.9</ele><time>2021-05-12T10:11:16Z</time><name>PT378</name></trkpt>
<trkpt lat="53.102923" lon="06.075314"><ele>-2.9</ele><time>2021-05-12T10:11:17Z</time><name>PT379</name></trkpt>
<trkpt lat="53.102927" lon="06.075309"><ele>-2.9</ele><time>2021-05-12T10:11:18Z</time><name>PT380</name></trkpt>
<trkpt lat="53.102931" lon="06.075308"><ele>-3</ele><time>2021-05-12T10:11:19Z</time><name>PT381</name></trkpt>
<trkpt lat="53.102940" lon="06.075299"><ele>-2.9</ele><time>2021-05-12T10:11:20Z</time><name>PT382</name></trkpt>
<trkpt lat="53.102950" lon="06.075283"><ele>-2.8</ele><time>2021-05-12T10:11:22Z</time><name>PT383</name></trkpt>
<trkpt lat="53.102960" lon="06.075268"><ele>-2.8</ele><time>2021-05-12T10:11:22Z</time><name>PT384</name></trkpt>
<trkpt lat="53.102969" lon="06.075255"><ele>-2.8</ele><time>2021-05-12T10:11:23Z</time><name>PT385</name></trkpt>
<trkpt lat="53.102976" lon="06.075240"><ele>-2.6</ele><time>2021-05-12T10:11:25Z</time><name>PT386</name></trkpt>
<trkpt lat="53.102987" lon="06.075233"><ele>-2.6</ele><time>2021-05-12T10:11:25Z</time><name>PT387</name></trkpt>
<trkpt lat="53.102992" lon="06.075228"><ele>-2.6</ele><time>2021-05-12T10:11:26Z</time><name>PT388</name></trkpt>
<trkpt lat="53.102997" lon="06.075220"><ele>-2.5</ele><time>2021-05-12T10:11:27Z</time><name>PT389</name></trkpt>
<trkpt lat="53.103002" lon="06.075214"><ele>-2.6</ele><time>2021-05-12T10:11:28Z</time><name>PT390</name></trkpt>
<trkpt lat="53.103005" lon="06.075218"><ele>-2.3</ele><time>2021-05-12T10:11:29Z</time><name>PT391</name></trkpt>
<trkpt lat="53.103005" lon="06.075220"><ele>-2.4</ele><time>2021-05-12T10:11:31Z</time><name>PT392</name></trkpt>
<trkpt lat="53.102999" lon="06.075222"><ele>-2.5</ele><time>2021-05-12T10:11:31Z</time><name>PT393</name></trkpt>
<trkpt lat="53.103001" lon="06.075215"><ele>-2.6</ele><time>2021-05-12T10:11:32Z</time><name>PT394</name></trkpt>
<trkpt lat="53.103008" lon="06.075202"><ele>-3</ele><time>2021-05-12T10:11:34Z</time><name>PT395</name></trkpt>
<trkpt lat="53.103014" lon="06.075194"><ele>-3</ele><time>2021-05-12T10:11:34Z</time><name>PT396</name></trkpt>
<trkpt lat="53.103019" lon="06.075188"><ele>-3.1</ele><time>2021-05-12T10:11:35Z</time><name>PT397</name></trkpt>
<trkpt lat="53.103025" lon="06.075180"><ele>-2.9</ele><time>2021-05-12T10:11:37Z</time><name>PT398</name></trkpt>
<trkpt lat="53.103028" lon="06.075168"><ele>-2.9</ele><time>2021-05-12T10:11:37Z</time><name>PT399</name></trkpt>
<trkpt lat="53.103030" lon="06.075159"><ele>-2.7</ele><time>2021-05-12T10:11:38Z</time><name>PT400</name></trkpt>
<trkpt lat="53.103036" lon="06.075138"><ele>-2.7</ele><time>2021-05-12T10:11:39Z</time><name>PT401</name></trkpt>
<trkpt lat="53.103040" lon="06.075120"><ele>-2.8</ele><time>2021-05-12T10:11:40Z</time><name>PT402</name></trkpt>
<trkpt lat="53.103047" lon="06.075101"><ele>-3</ele><time>2021-05-12T10:11:41Z</time><name>PT403</name></trkpt>
<trkpt lat="53.103053" lon="06.075075"><ele>-3.1</ele><time>2021-05-12T10:11:42Z</time><name>PT404</name></trkpt>
<trkpt lat="53.103059" lon="06.075050"><ele>-3.1</ele><time>2021-05-12T10:11:43Z</time><name>PT405</name></trkpt>
<trkpt lat="53.103066" lon="06.075029"><ele>-3.3</ele><time>2021-05-12T10:11:44Z</time><name>PT406</name></trkpt>
<trkpt lat="53.103071" lon="06.075007"><ele>-3.2</ele><time>2021-05-12T10:11:45Z</time><name>PT407</name></trkpt>
<trkpt lat="53.103072" lon="06.074981"><ele>-3.3</ele><time>2021-05-12T10:11:46Z</time><name>PT408</name></trkpt>
<trkpt lat="53.103073" lon="06.074960"><ele>-3.4</ele><time>2021-05-12T10:11:47Z</time><name>PT409</name></trkpt>
<trkpt lat="53.103078" lon="06.074935"><ele>-3.4</ele><time>2021-05-12T10:11:48Z</time><name>PT410</name></trkpt>
<trkpt lat="53.103084" lon="06.074907"><ele>-3.3</ele><time>2021-05-12T10:11:49Z</time><name>PT411</name></trkpt>
<trkpt lat="53.103087" lon="06.074888"><ele>-3.1</ele><time>2021-05-12T10:11:50Z</time><name>PT412</name></trkpt>
<trkpt lat="53.103089" lon="06.074867"><ele>-3.2</ele><time>2021-05-12T10:11:51Z</time><name>PT413</name></trkpt>
<trkpt lat="53.103091" lon="06.074848"><ele>-3.2</ele><time>2021-05-12T10:11:52Z</time><name>PT414</name></trkpt>
<trkpt lat="53.103091" lon="06.074828"><ele>-3.2</ele><time>2021-05-12T10:11:53Z</time><name>PT415</name></trkpt>
<trkpt lat="53.103094" lon="06.074814"><ele>-3.4</ele><time>2021-05-12T10:11:54Z</time><name>PT416</name></trkpt>
<trkpt lat="53.103093" lon="06.074803"><ele>-3.4</ele><time>2021-05-12T10:11:55Z</time><name>PT417</name></trkpt>
<trkpt lat="53.103093" lon="06.074794"><ele>-3.3</ele><time>2021-05-12T10:11:56Z</time><name>PT418</name></trkpt>
<trkpt lat="53.103090" lon="06.074783"><ele>-3.2</ele><time>2021-05-12T10:11:57Z</time><name>PT419</name></trkpt>
<trkpt lat="53.103091" lon="06.074766"><ele>-3.3</ele><time>2021-05-12T10:11:58Z</time><name>PT420</name></trkpt>
<trkpt lat="53.103088" lon="06.074745"><ele>-3.2</ele><time>2021-05-12T10:11:59Z</time><name>PT421</name></trkpt>
<trkpt lat="53.103090" lon="06.074730"><ele>-3.3</ele><time>2021-05-12T10:12:00Z</time><name>PT422</name></trkpt>
<trkpt lat="53.103093" lon="06.074717"><ele>-3.2</ele><time>2021-05-12T10:12:01Z</time><name>PT423</name></trkpt>
<trkpt lat="53.103095" lon="06.074699"><ele>-3.1</ele><time>2021-05-12T10:12:02Z</time><name>PT424</name></trkpt>
<trkpt lat="53.103100" lon="06.074682"><ele>-3.1</ele><time>2021-05-12T10:12:03Z</time><name>PT425</name></trkpt>
<trkpt lat="53.103101" lon="06.074655"><ele>-3.2</ele><time>2021-05-12T10:12:04Z</time><name>PT426</name></trkpt>
<trkpt lat="53.103102" lon="06.074633"><ele>-3.1</ele><time>2021-05-12T10:12:05Z</time><name>PT427</name></trkpt>
<trkpt lat="53.103101" lon="06.074608"><ele>-3.4</ele><time>2021-05-12T10:12:06Z</time><name>PT428</name></trkpt>
<trkpt lat="53.103098" lon="06.074584"><ele>-3.4</ele><time>2021-05-12T10:12:07Z</time><name>PT429</name></trkpt>
<trkpt lat="53.103099" lon="06.074560"><ele>-3.4</ele><time>2021-05-12T10:12:08Z</time><name>PT430</name></trkpt>
<trkpt lat="53.103094" lon="06.074539"><ele>-3.3</ele><time>2021-05-12T10:12:09Z</time><name>PT431</name></trkpt>
<trkpt lat="53.103089" lon="06.074521"><ele>-3.4</ele><time>2021-05-12T10:12:10Z</time><name>PT432</name></trkpt>
<trkpt lat="53.103088" lon="06.074505"><ele>-3.3</ele><time>2021-05-12T10:12:11Z</time><name>PT433</name></trkpt>
<trkpt lat="53.103086" lon="06.074491"><ele>-3.1</ele><time>2021-05-12T10:12:12Z</time><name>PT434</name></trkpt>
<trkpt lat="53.103085" lon="06.074477"><ele>-3.1</ele><time>2021-05-12T10:12:13Z</time><name>PT435</name></trkpt>
<trkpt lat="53.103086" lon="06.074463"><ele>-3.1</ele><time>2021-05-12T10:12:14Z</time><name>PT436</name></trkpt>
<trkpt lat="53.103087" lon="06.074446"><ele>-3.1</ele><time>2021-05-12T10:12:15Z</time><name>PT437</name></trkpt>
<trkpt lat="53.103088" lon="06.074433"><ele>-3.1</ele><time>2021-05-12T10:12:16Z</time><name>PT438</name></trkpt>
<trkpt lat="53.103094" lon="06.074419"><ele>-3.1</ele><time>2021-05-12T10:12:17Z</time><name>PT439</name></trkpt>
<trkpt lat="53.103101" lon="06.074404"><ele>-3.2</ele><time>2021-05-12T10:12:18Z</time><name>PT440</name></trkpt>
<trkpt lat="53.103106" lon="06.074374"><ele>-3.1</ele><time>2021-05-12T10:12:19Z</time><name>PT441</name></trkpt>
<trkpt lat="53.103113" lon="06.074349"><ele>-3.1</ele><time>2021-05-12T10:12:20Z</time><name>PT442</name></trkpt>
<trkpt lat="53.103120" lon="06.074321"><ele>-3.1</ele><time>2021-05-12T10:12:21Z</time><name>PT443</name></trkpt>
<trkpt lat="53.103126" lon="06.074297"><ele>-3.1</ele><time>2021-05-12T10:12:22Z</time><name>PT444</name></trkpt>
<trkpt lat="53.103133" lon="06.074277"><ele>-3</ele><time>2021-05-12T10:12:23Z</time><name>PT445</name></trkpt>
<trkpt lat="53.103137" lon="06.074258"><ele>-3.1</ele><time>2021-05-12T10:12:24Z</time><name>PT446</name></trkpt>
<trkpt lat="53.103137" lon="06.074233"><ele>-3.1</ele><time>2021-05-12T10:12:25Z</time><name>PT447</name></trkpt>
<trkpt lat="53.103139" lon="06.074213"><ele>-3.1</ele><time>2021-05-12T10:12:26Z</time><name>PT448</name></trkpt>
<trkpt lat="53.103140" lon="06.074192"><ele>-3.1</ele><time>2021-05-12T10:12:27Z</time><name>PT449</name></trkpt>
<trkpt lat="53.103144" lon="06.074178"><ele>-3.1</ele><time>2021-05-12T10:12:28Z</time><name>PT450</name></trkpt>
<trkpt lat="53.103147" lon="06.074160"><ele>-3</ele><time>2021-05-12T10:12:29Z</time><name>PT451</name></trkpt>
<trkpt lat="53.103152" lon="06.074144"><ele>-3.1</ele><time>2021-05-12T10:12:31Z</time><name>PT452</name></trkpt>
<trkpt lat="53.103157" lon="06.074129"><ele>-3.2</ele><time>2021-05-12T10:12:31Z</time><name>PT453</name></trkpt>
<trkpt lat="53.103161" lon="06.074107"><ele>-3</ele><time>2021-05-12T10:12:32Z</time><name>PT454</name></trkpt>
<trkpt lat="53.103171" lon="06.074095"><ele>-3</ele><time>2021-05-12T10:12:33Z</time><name>PT455</name></trkpt>
<trkpt lat="53.103172" lon="06.074069"><ele>-3.1</ele><time>2021-05-12T10:12:34Z</time><name>PT456</name></trkpt>
<trkpt lat="53.103177" lon="06.074043"><ele>-3</ele><time>2021-05-12T10:12:35Z</time><name>PT457</name></trkpt>
<trkpt lat="53.103180" lon="06.074018"><ele>-2.9</ele><time>2021-05-12T10:12:36Z</time><name>PT458</name></trkpt>
<trkpt lat="53.103183" lon="06.073989"><ele>-3</ele><time>2021-05-12T10:12:37Z</time><name>PT459</name></trkpt>
<trkpt lat="53.103189" lon="06.073960"><ele>-3</ele><time>2021-05-12T10:12:38Z</time><name>PT460</name></trkpt>
<trkpt lat="53.103191" lon="06.073932"><ele>-2.9</ele><time>2021-05-12T10:12:39Z</time><name>PT461</name></trkpt>
<trkpt lat="53.103192" lon="06.073910"><ele>-2.9</ele><time>2021-05-12T10:12:40Z</time><name>PT462</name></trkpt>
<trkpt lat="53.103188" lon="06.073879"><ele>-3.1</ele><time>2021-05-12T10:12:41Z</time><name>PT463</name></trkpt>
<trkpt lat="53.103189" lon="06.073860"><ele>-2.9</ele><time>2021-05-12T10:12:42Z</time><name>PT464</name></trkpt>
<trkpt lat="53.103190" lon="06.073841"><ele>-2.9</ele><time>2021-05-12T10:12:43Z</time><name>PT465</name></trkpt>
<trkpt lat="53.103194" lon="06.073825"><ele>-3</ele><time>2021-05-12T10:12:44Z</time><name>PT466</name></trkpt>
<trkpt lat="53.103198" lon="06.073807"><ele>-3.1</ele><time>2021-05-12T10:12:45Z</time><name>PT467</name></trkpt>
<trkpt lat="53.103202" lon="06.073791"><ele>-3</ele><time>2021-05-12T10:12:46Z</time><name>PT468</name></trkpt>
<trkpt lat="53.103207" lon="06.073773"><ele>-3.1</ele><time>2021-05-12T10:12:47Z</time><name>PT469</name></trkpt>
<trkpt lat="53.103212" lon="06.073754"><ele>-3.1</ele><time>2021-05-12T10:12:48Z</time><name>PT470</name></trkpt>
<trkpt lat="53.103216" lon="06.073730"><ele>-3.1</ele><time>2021-05-12T10:12:49Z</time><name>PT471</name></trkpt>
<trkpt lat="53.103221" lon="06.073702"><ele>-3.1</ele><time>2021-05-12T10:12:50Z</time><name>PT472</name></trkpt>
<trkpt lat="53.103225" lon="06.073681"><ele>-3.2</ele><time>2021-05-12T10:12:51Z</time><name>PT473</name></trkpt>
<trkpt lat="53.103232" lon="06.073658"><ele>-3.1</ele><time>2021-05-12T10:12:52Z</time><name>PT474</name></trkpt>
<trkpt lat="53.103237" lon="06.073640"><ele>-3.1</ele><time>2021-05-12T10:12:53Z</time><name>PT475</name></trkpt>
<trkpt lat="53.103240" lon="06.073626"><ele>-3</ele><time>2021-05-12T10:12:54Z</time><name>PT476</name></trkpt>
<trkpt lat="53.103243" lon="06.073612"><ele>-3</ele><time>2021-05-12T10:12:55Z</time><name>PT477</name></trkpt>
<trkpt lat="53.103247" lon="06.073600"><ele>-3.1</ele><time>2021-05-12T10:12:56Z</time><name>PT478</name></trkpt>
<trkpt lat="53.103254" lon="06.073588"><ele>-3.2</ele><time>2021-05-12T10:12:57Z</time><name>PT479</name></trkpt>
<trkpt lat="53.103266" lon="06.073575"><ele>-3.3</ele><time>2021-05-12T10:12:58Z</time><name>PT480</name></trkpt>
<trkpt lat="53.103278" lon="06.073564"><ele>-3.4</ele><time>2021-05-12T10:12:59Z</time><name>PT481</name></trkpt>
<trkpt lat="53.103288" lon="06.073549"><ele>-3.5</ele><time>2021-05-12T10:13:00Z</time><name>PT482</name></trkpt>
<trkpt lat="53.103296" lon="06.073536"><ele>-3.3</ele><time>2021-05-12T10:13:01Z</time><name>PT483</name></trkpt>
<trkpt lat="53.103303" lon="06.073521"><ele>-3.1</ele><time>2021-05-12T10:13:02Z</time><name>PT484</name></trkpt>
<trkpt lat="53.103307" lon="06.073512"><ele>-3.1</ele><time>2021-05-12T10:13:03Z</time><name>PT485</name></trkpt>
<trkpt lat="53.103312" lon="06.073505"><ele>-3.1</ele><time>2021-05-12T10:13:04Z</time><name>PT486</name></trkpt>
<trkpt lat="53.103322" lon="06.073497"><ele>-3</ele><time>2021-05-12T10:13:05Z</time><name>PT487</name></trkpt>
<trkpt lat="53.103334" lon="06.073483"><ele>-3.1</ele><time>2021-05-12T10:13:06Z</time><name>PT488</name></trkpt>
<trkpt lat="53.103344" lon="06.073470"><ele>-3.1</ele><time>2021-05-12T10:13:07Z</time><name>PT489</name></trkpt>
<trkpt lat="53.103349" lon="06.073458"><ele>-3.1</ele><time>2021-05-12T10:13:08Z</time><name>PT490</name></trkpt>
<trkpt lat="53.103358" lon="06.073452"><ele>-3.2</ele><time>2021-05-12T10:13:09Z</time><name>PT491</name></trkpt>
<trkpt lat="53.103365" lon="06.073445"><ele>-3.1</ele><time>2021-05-12T10:13:10Z</time><name>PT492</name></trkpt>
<trkpt lat="53.103371" lon="06.073437"><ele>-3.1</ele><time>2021-05-12T10:13:11Z</time><name>PT493</name></trkpt>
<trkpt lat="53.103377" lon="06.073427"><ele>-3</ele><time>2021-05-12T10:13:12Z</time><name>PT494</name></trkpt>
<trkpt lat="53.103384" lon="06.073412"><ele>-3</ele><time>2021-05-12T10:13:13Z</time><name>PT495</name></trkpt>
<trkpt lat="53.103389" lon="06.073400"><ele>-3</ele><time>2021-05-12T10:13:14Z</time><name>PT496</name></trkpt>
<trkpt lat="53.103391" lon="06.073387"><ele>-3.1</ele><time>2021-05-12T10:13:15Z</time><name>PT497</name></trkpt>
<trkpt lat="53.103394" lon="06.073374"><ele>-3.2</ele><time>2021-05-12T10:13:16Z</time><name>PT498</name></trkpt>
<trkpt lat="53.103396" lon="06.073358"><ele>-3.5</ele><time>2021-05-12T10:13:17Z</time><name>PT499</name></trkpt>
<trkpt lat="53.103397" lon="06.073339"><ele>-3.7</ele><time>2021-05-12T10:13:18Z</time><name>PT500</name></trkpt>
<trkpt lat="53.103399" lon="06.073328"><ele>-3.8</ele><time>2021-05-12T10:13:19Z</time><name>PT501</name></trkpt>
<trkpt lat="53.103402" lon="06.073314"><ele>-4</ele><time>2021-05-12T10:13:20Z</time><name>PT502</name></trkpt>
<trkpt lat="53.103405" lon="06.073304"><ele>-4.1</ele><time>2021-05-12T10:13:21Z</time><name>PT503</name></trkpt>
<trkpt lat="53.103407" lon="06.073283"><ele>-4.1</ele><time>2021-05-12T10:13:22Z</time><name>PT504</name></trkpt>
<trkpt lat="53.103412" lon="06.073262"><ele>-4.1</ele><time>2021-05-12T10:13:23Z</time><name>PT505</name></trkpt>
<trkpt lat="53.103416" lon="06.073242"><ele>-4.4</ele><time>2021-05-12T10:13:25Z</time><name>PT506</name></trkpt>
<trkpt lat="53.103419" lon="06.073220"><ele>-4.3</ele><time>2021-05-12T10:13:25Z</time><name>PT507</name></trkpt>
<trkpt lat="53.103421" lon="06.073205"><ele>-4.3</ele><time>2021-05-12T10:13:26Z</time><name>PT508</name></trkpt>
<trkpt lat="53.103423" lon="06.073192"><ele>-4.6</ele><time>2021-05-12T10:13:27Z</time><name>PT509</name></trkpt>
<trkpt lat="53.103423" lon="06.073181"><ele>-4.6</ele><time>2021-05-12T10:13:28Z</time><name>PT510</name></trkpt>
<trkpt lat="53.103425" lon="06.073169"><ele>-4.6</ele><time>2021-05-12T10:13:29Z</time><name>PT511</name></trkpt>
<trkpt lat="53.103429" lon="06.073157"><ele>-4.7</ele><time>2021-05-12T10:13:30Z</time><name>PT512</name></trkpt>
<trkpt lat="53.103432" lon="06.073138"><ele>-4.8</ele><time>2021-05-12T10:13:31Z</time><name>PT513</name></trkpt>
<trkpt lat="53.103435" lon="06.073123"><ele>-4.8</ele><time>2021-05-12T10:13:32Z</time><name>PT514</name></trkpt>
<trkpt lat="53.103437" lon="06.073114"><ele>-4.8</ele><time>2021-05-12T10:13:33Z</time><name>PT515</name></trkpt>
<trkpt lat="53.103440" lon="06.073106"><ele>-4.8</ele><time>2021-05-12T10:13:34Z</time><name>PT516</name></trkpt>
<trkpt lat="53.103443" lon="06.073092"><ele>-5</ele><time>2021-05-12T10:13:35Z</time><name>PT517</name></trkpt>
<trkpt lat="53.103449" lon="06.073075"><ele>-5</ele><time>2021-05-12T10:13:36Z</time><name>PT518</name></trkpt>
<trkpt lat="53.103452" lon="06.073061"><ele>-5</ele><time>2021-05-12T10:13:37Z</time><name>PT519</name></trkpt>
<trkpt lat="53.103452" lon="06.073050"><ele>-5.1</ele><time>2021-05-12T10:13:38Z</time><name>PT520</name></trkpt>
<trkpt lat="53.103456" lon="06.073038"><ele>-5.1</ele><time>2021-05-12T10:13:39Z</time><name>PT521</name></trkpt>
<trkpt lat="53.103458" lon="06.073029"><ele>-5.1</ele><time>2021-05-12T10:13:40Z</time><name>PT522</name></trkpt>
<trkpt lat="53.103456" lon="06.073028"><ele>-4.8</ele><time>2021-05-12T10:13:41Z</time><name>PT523</name></trkpt>
<trkpt lat="53.103457" lon="06.073026"><ele>-4.7</ele><time>2021-05-12T10:13:42Z</time><name>PT524</name></trkpt>
<trkpt lat="53.103456" lon="06.073020"><ele>-4.6</ele><time>2021-05-12T10:13:43Z</time><name>PT525</name></trkpt>
<trkpt lat="53.103455" lon="06.073020"><ele>-4.6</ele><time>2021-05-12T10:13:44Z</time><name>PT526</name></trkpt>
<trkpt lat="53.103450" lon="06.073009"><ele>-4.3</ele><time>2021-05-12T10:13:52Z</time><name>PT527</name></trkpt>
<trkpt lat="53.103452" lon="06.072997"><ele>-4.2</ele><time>2021-05-12T10:13:53Z</time><name>PT528</name></trkpt>
<trkpt lat="53.103455" lon="06.072988"><ele>-4.1</ele><time>2021-05-12T10:13:54Z</time><name>PT529</name></trkpt>
<trkpt lat="53.103460" lon="06.073008"><ele>-4.2</ele><time>2021-05-12T10:14:33Z</time><name>PT530</name></trkpt>
<trkpt lat="53.103460" lon="06.073017"><ele>-4.2</ele><time>2021-05-12T10:14:34Z</time><name>PT531</name></trkpt>
<trkpt lat="53.103457" lon="06.073020"><ele>-4.1</ele><time>2021-05-12T10:14:35Z</time><name>PT532</name></trkpt>
<trkpt lat="53.103454" lon="06.073006"><ele>-4.2</ele><time>2021-05-12T10:14:46Z</time><name>PT533</name></trkpt>
<trkpt lat="53.103453" lon="06.073001"><ele>-4.2</ele><time>2021-05-12T10:14:46Z</time><name>PT534</name></trkpt>
<trkpt lat="53.103455" lon="06.072997"><ele>-4.1</ele><time>2021-05-12T10:14:47Z</time><name>PT535</name></trkpt>
<trkpt lat="53.103459" lon="06.073013"><ele>-4.4</ele><time>2021-05-12T10:14:55Z</time><name>PT536</name></trkpt>
<trkpt lat="53.103463" lon="06.073026"><ele>-4.3</ele><time>2021-05-12T10:14:56Z</time><name>PT537</name></trkpt>
<trkpt lat="53.103464" lon="06.073034"><ele>-4.5</ele><time>2021-05-12T10:14:57Z</time><name>PT538</name></trkpt>
<trkpt lat="53.103465" lon="06.073042"><ele>-4.6</ele><time>2021-05-12T10:14:58Z</time><name>PT539</name></trkpt>
<trkpt lat="53.103468" lon="06.073050"><ele>-4.6</ele><time>2021-05-12T10:14:59Z</time><name>PT540</name></trkpt>
<trkpt lat="53.103467" lon="06.073057"><ele>-4.7</ele><time>2021-05-12T10:15:00Z</time><name>PT541</name></trkpt>
<trkpt lat="53.103466" lon="06.073058"><ele>-4.6</ele><time>2021-05-12T10:15:01Z</time><name>PT542</name></trkpt>
<trkpt lat="53.103465" lon="06.073059"><ele>-4.6</ele><time>2021-05-12T10:15:02Z</time><name>PT543</name></trkpt>
<trkpt lat="53.103464" lon="06.073059"><ele>-4.6</ele><time>2021-05-12T10:15:03Z</time><name>PT544</name></trkpt>
<trkpt lat="53.103464" lon="06.073060"><ele>-4.6</ele><time>2021-05-12T10:15:04Z</time><name>PT545</name></trkpt>
<trkpt lat="53.103463" lon="06.073058"><ele>-4.6</ele><time>2021-05-12T10:15:05Z</time><name>PT546</name></trkpt>
<trkpt lat="53.103464" lon="06.073059"><ele>-4.7</ele><time>2021-05-12T10:15:06Z</time><name>PT547</name></trkpt>
<trkpt lat="53.103462" lon="06.073059"><ele>-4.6</ele><time>2021-05-12T10:15:07Z</time><name>PT548</name></trkpt>
<trkpt lat="53.103459" lon="06.073057"><ele>-4.7</ele><time>2021-05-12T10:15:08Z</time><name>PT549</name></trkpt>
<trkpt lat="53.103462" lon="06.073055"><ele>-4.8</ele><time>2021-05-12T10:15:10Z</time><name>PT550</name></trkpt>
<trkpt lat="53.103462" lon="06.073048"><ele>-4.8</ele><time>2021-05-12T10:15:11Z</time><name>PT551</name></trkpt>
<trkpt lat="53.103462" lon="06.073046"><ele>-4.8</ele><time>2021-05-12T10:15:12Z</time><name>PT552</name></trkpt>
<trkpt lat="53.103465" lon="06.073035"><ele>-4.6</ele><time>2021-05-12T10:15:19Z</time><name>PT553</name></trkpt>
<trkpt lat="53.103463" lon="06.073030"><ele>-4.6</ele><time>2021-05-12T10:15:20Z</time><name>PT554</name></trkpt>
<trkpt lat="53.103463" lon="06.073025"><ele>-4.9</ele><time>2021-05-12T10:15:21Z</time><name>PT555</name></trkpt>
<trkpt lat="53.103461" lon="06.073013"><ele>-5</ele><time>2021-05-12T10:15:31Z</time><name>PT556</name></trkpt>
<trkpt lat="53.103461" lon="06.073005"><ele>-4.9</ele><time>2021-05-12T10:15:31Z</time><name>PT557</name></trkpt>
<trkpt lat="53.103460" lon="06.073006"><ele>-4.8</ele><time>2021-05-12T10:15:32Z</time><name>PT558</name></trkpt>
<trkpt lat="53.103459" lon="06.073003"><ele>-4.8</ele><time>2021-05-12T10:15:33Z</time><name>PT559</name></trkpt>
<trkpt lat="53.103456" lon="06.072996"><ele>-4.8</ele><time>2021-05-12T10:15:35Z</time><name>PT560</name></trkpt>
<trkpt lat="53.103453" lon="06.072984"><ele>-4.6</ele><time>2021-05-12T10:15:36Z</time><name>PT561</name></trkpt>
<trkpt lat="53.103448" lon="06.072970"><ele>-4.6</ele><time>2021-05-12T10:15:37Z</time><name>PT562</name></trkpt>
<trkpt lat="53.103448" lon="06.072960"><ele>-4.6</ele><time>2021-05-12T10:15:38Z</time><name>PT563</name></trkpt>
<trkpt lat="53.103449" lon="06.072953"><ele>-4.4</ele><time>2021-05-12T10:15:39Z</time><name>PT564</name></trkpt>
<trkpt lat="53.103449" lon="06.072942"><ele>-4.3</ele><time>2021-05-12T10:15:41Z</time><name>PT565</name></trkpt>
<trkpt lat="53.103449" lon="06.072923"><ele>-4.3</ele><time>2021-05-12T10:15:42Z</time><name>PT566</name></trkpt>
<trkpt lat="53.103451" lon="06.072911"><ele>-4.3</ele><time>2021-05-12T10:15:43Z</time><name>PT567</name></trkpt>
<trkpt lat="53.103458" lon="06.072893"><ele>-4.2</ele><time>2021-05-12T10:15:44Z</time><name>PT568</name></trkpt>
<trkpt lat="53.103460" lon="06.072876"><ele>-4.1</ele><time>2021-05-12T10:15:46Z</time><name>PT569</name></trkpt>
<trkpt lat="53.103461" lon="06.072862"><ele>-4.1</ele><time>2021-05-12T10:15:46Z</time><name>PT570</name></trkpt>
<trkpt lat="53.103461" lon="06.072850"><ele>-4.1</ele><time>2021-05-12T10:15:47Z</time><name>PT571</name></trkpt>
<trkpt lat="53.103465" lon="06.072836"><ele>-4.1</ele><time>2021-05-12T10:15:48Z</time><name>PT572</name></trkpt>
<trkpt lat="53.103465" lon="06.072825"><ele>-4</ele><time>2021-05-12T10:15:49Z</time><name>PT573</name></trkpt>
<trkpt lat="53.103463" lon="06.072821"><ele>-4.1</ele><time>2021-05-12T10:15:50Z</time><name>PT574</name></trkpt>
<trkpt lat="53.103462" lon="06.072819"><ele>-4.2</ele><time>2021-05-12T10:15:51Z</time><name>PT575</name></trkpt>
<trkpt lat="53.103464" lon="06.072809"><ele>-4.2</ele><time>2021-05-12T10:15:52Z</time><name>PT576</name></trkpt>
<trkpt lat="53.103467" lon="06.072794"><ele>-4.3</ele><time>2021-05-12T10:15:53Z</time><name>PT577</name></trkpt>
<trkpt lat="53.103467" lon="06.072784"><ele>-4.3</ele><time>2021-05-12T10:15:54Z</time><name>PT578</name></trkpt>
<trkpt lat="53.103467" lon="06.072780"><ele>-4.3</ele><time>2021-05-12T10:15:55Z</time><name>PT579</name></trkpt>
<trkpt lat="53.103468" lon="06.072772"><ele>-4.2</ele><time>2021-05-12T10:15:56Z</time><name>PT580</name></trkpt>
<trkpt lat="53.103467" lon="06.072761"><ele>-4.1</ele><time>2021-05-12T10:15:57Z</time><name>PT581</name></trkpt>
<trkpt lat="53.103469" lon="06.072757"><ele>-4.2</ele><time>2021-05-12T10:15:58Z</time><name>PT582</name></trkpt>
<trkpt lat="53.103473" lon="06.072756"><ele>-4.3</ele><time>2021-05-12T10:15:59Z</time><name>PT583</name></trkpt>
<trkpt lat="53.103473" lon="06.072754"><ele>-4.1</ele><time>2021-05-12T10:16:01Z</time><name>PT584</name></trkpt>
<trkpt lat="53.103469" lon="06.072749"><ele>-4.1</ele><time>2021-05-12T10:16:01Z</time><name>PT585</name></trkpt>
<trkpt lat="53.103473" lon="06.072739"><ele>-4</ele><time>2021-05-12T10:16:02Z</time><name>PT586</name></trkpt>
<trkpt lat="53.103475" lon="06.072732"><ele>-3.9</ele><time>2021-05-12T10:16:03Z</time><name>PT587</name></trkpt>
<trkpt lat="53.103479" lon="06.072723"><ele>-3.9</ele><time>2021-05-12T10:16:04Z</time><name>PT588</name></trkpt>
<trkpt lat="53.103486" lon="06.072728"><ele>-4</ele><time>2021-05-12T10:16:05Z</time><name>PT589</name></trkpt>
<trkpt lat="53.103488" lon="06.072731"><ele>-3.9</ele><time>2021-05-12T10:16:06Z</time><name>PT590</name></trkpt>
<trkpt lat="53.103489" lon="06.072732"><ele>-3.9</ele><time>2021-05-12T10:16:07Z</time><name>PT591</name></trkpt>
<trkpt lat="53.103484" lon="06.072762"><ele>-4.1</ele><time>2021-05-12T10:16:16Z</time><name>PT592</name></trkpt>
<trkpt lat="53.103489" lon="06.072765"><ele>-4.1</ele><time>2021-05-12T10:16:16Z</time><name>PT593</name></trkpt>
<trkpt lat="53.103487" lon="06.072779"><ele>-4.1</ele><time>2021-05-12T10:16:17Z</time><name>PT594</name></trkpt>
<trkpt lat="53.103487" lon="06.072785"><ele>-4</ele><time>2021-05-12T10:16:27Z</time><name>PT595</name></trkpt>
<trkpt lat="53.103487" lon="06.072784"><ele>-4.1</ele><time>2021-05-12T10:16:28Z</time><name>PT596</name></trkpt>
<trkpt lat="53.103489" lon="06.072787"><ele>-4.1</ele><time>2021-05-12T10:16:29Z</time><name>PT597</name></trkpt>
<trkpt lat="53.103492" lon="06.072789"><ele>-4.2</ele><time>2021-05-12T10:16:31Z</time><name>PT598</name></trkpt>
<trkpt lat="53.103497" lon="06.072797"><ele>-4</ele><time>2021-05-12T10:16:38Z</time><name>PT599</name></trkpt>
<trkpt lat="53.103503" lon="06.072798"><ele>-4.1</ele><time>2021-05-12T10:16:39Z</time><name>PT600</name></trkpt>
<trkpt lat="53.103504" lon="06.072796"><ele>-4.1</ele><time>2021-05-12T10:16:40Z</time><name>PT601</name></trkpt>
<trkpt lat="53.103506" lon="06.072795"><ele>-4.2</ele><time>2021-05-12T10:16:46Z</time><name>PT602</name></trkpt>
<trkpt lat="53.103506" lon="06.072797"><ele>-4.1</ele><time>2021-05-12T10:16:46Z</time><name>PT603</name></trkpt>
<trkpt lat="53.103506" lon="06.072797"><ele>-4.1</ele><time>2021-05-12T10:16:47Z</time><name>PT604</name></trkpt>
<trkpt lat="53.103506" lon="06.072774"><ele>-3.9</ele><time>2021-05-12T10:16:50Z</time><name>PT605</name></trkpt>
<trkpt lat="53.103505" lon="06.072744"><ele>-3.8</ele><time>2021-05-12T10:16:51Z</time><name>PT606</name></trkpt>
<trkpt lat="53.103502" lon="06.072735"><ele>-3.7</ele><time>2021-05-12T10:16:52Z</time><name>PT607</name></trkpt>
<trkpt lat="53.103498" lon="06.072727"><ele>-3.8</ele><time>2021-05-12T10:16:53Z</time><name>PT608</name></trkpt>
<trkpt lat="53.103496" lon="06.072718"><ele>-3.8</ele><time>2021-05-12T10:16:54Z</time><name>PT609</name></trkpt>
<trkpt lat="53.103494" lon="06.072713"><ele>-3.9</ele><time>2021-05-12T10:16:55Z</time><name>PT610</name></trkpt>
<trkpt lat="53.103492" lon="06.072702"><ele>-3.8</ele><time>2021-05-12T10:16:56Z</time><name>PT611</name></trkpt>
<trkpt lat="53.103489" lon="06.072691"><ele>-4</ele><time>2021-05-12T10:16:58Z</time><name>PT612</name></trkpt>
<trkpt lat="53.103485" lon="06.072684"><ele>-3.9</ele><time>2021-05-12T10:16:58Z</time><name>PT613</name></trkpt>
<trkpt lat="53.103483" lon="06.072682"><ele>-3.8</ele><time>2021-05-12T10:16:59Z</time><name>PT614</name></trkpt>
<trkpt lat="53.103483" lon="06.072674"><ele>-3.6</ele><time>2021-05-12T10:17:01Z</time><name>PT615</name></trkpt>
<trkpt lat="53.103477" lon="06.072671"><ele>-3.7</ele><time>2021-05-12T10:17:01Z</time><name>PT616</name></trkpt>
<trkpt lat="53.103474" lon="06.072670"><ele>-4</ele><time>2021-05-12T10:17:02Z</time><name>PT617</name></trkpt>
<trkpt lat="53.103477" lon="06.072671"><ele>-4.1</ele><time>2021-05-12T10:17:03Z</time><name>PT618</name></trkpt>
<trkpt lat="53.103476" lon="06.072670"><ele>-4.2</ele><time>2021-05-12T10:17:04Z</time><name>PT619</name></trkpt>
<trkpt lat="53.103474" lon="06.072669"><ele>-4.4</ele><time>2021-05-12T10:17:05Z</time><name>PT620</name></trkpt>
<trkpt lat="53.103466" lon="06.072667"><ele>-4.4</ele><time>2021-05-12T10:17:06Z</time><name>PT621</name></trkpt>
<trkpt lat="53.103460" lon="06.072665"><ele>-4.3</ele><time>2021-05-12T10:17:07Z</time><name>PT622</name></trkpt>
<trkpt lat="53.103453" lon="06.072665"><ele>-4.2</ele><time>2021-05-12T10:17:08Z</time><name>PT623</name></trkpt>
<trkpt lat="53.103445" lon="06.072661"><ele>-4.1</ele><time>2021-05-12T10:17:09Z</time><name>PT624</name></trkpt>
<trkpt lat="53.103439" lon="06.072657"><ele>-4.1</ele><time>2021-05-12T10:17:10Z</time><name>PT625</name></trkpt>
<trkpt lat="53.103432" lon="06.072652"><ele>-4.1</ele><time>2021-05-12T10:17:11Z</time><name>PT626</name></trkpt>
<trkpt lat="53.103424" lon="06.072644"><ele>-4</ele><time>2021-05-12T10:17:13Z</time><name>PT627</name></trkpt>
<trkpt lat="53.103416" lon="06.072636"><ele>-4.1</ele><time>2021-05-12T10:17:13Z</time><name>PT628</name></trkpt>
<trkpt lat="53.103406" lon="06.072629"><ele>-4</ele><time>2021-05-12T10:17:14Z</time><name>PT629</name></trkpt>
<trkpt lat="53.103395" lon="06.072621"><ele>-4.1</ele><time>2021-05-12T10:17:15Z</time><name>PT630</name></trkpt>
<trkpt lat="53.103380" lon="06.072616"><ele>-4</ele><time>2021-05-12T10:17:16Z</time><name>PT631</name></trkpt>
<trkpt lat="53.103366" lon="06.072612"><ele>-4</ele><time>2021-05-12T10:17:17Z</time><name>PT632</name></trkpt>
<trkpt lat="53.103357" lon="06.072606"><ele>-4</ele><time>2021-05-12T10:17:18Z</time><name>PT633</name></trkpt>
<trkpt lat="53.103353" lon="06.072604"><ele>-3.9</ele><time>2021-05-12T10:17:19Z</time><name>PT634</name></trkpt>
<trkpt lat="53.103347" lon="06.072606"><ele>-3.9</ele><time>2021-05-12T10:17:20Z</time><name>PT635</name></trkpt>
<trkpt lat="53.103338" lon="06.072601"><ele>-4.1</ele><time>2021-05-12T10:17:21Z</time><name>PT636</name></trkpt>
<trkpt lat="53.103332" lon="06.072594"><ele>-4</ele><time>2021-05-12T10:17:22Z</time><name>PT637</name></trkpt>
<trkpt lat="53.103325" lon="06.072584"><ele>-4.1</ele><time>2021-05-12T10:17:23Z</time><name>PT638</name></trkpt>
<trkpt lat="53.103315" lon="06.072578"><ele>-4</ele><time>2021-05-12T10:17:24Z</time><name>PT639</name></trkpt>
<trkpt lat="53.103300" lon="06.072570"><ele>-4</ele><time>2021-05-12T10:17:25Z</time><name>PT640</name></trkpt>
<trkpt lat="53.103289" lon="06.072554"><ele>-3.9</ele><time>2021-05-12T10:17:26Z</time><name>PT641</name></trkpt>
<trkpt lat="53.103277" lon="06.072540"><ele>-4</ele><time>2021-05-12T10:17:28Z</time><name>PT642</name></trkpt>
<trkpt lat="53.103266" lon="06.072525"><ele>-3.9</ele><time>2021-05-12T10:17:28Z</time><name>PT643</name></trkpt>
<trkpt lat="53.103258" lon="06.072512"><ele>-4</ele><time>2021-05-12T10:17:29Z</time><name>PT644</name></trkpt>
<trkpt lat="53.103252" lon="06.072502"><ele>-4</ele><time>2021-05-12T10:17:31Z</time><name>PT645</name></trkpt>
<trkpt lat="53.103246" lon="06.072491"><ele>-4.1</ele><time>2021-05-12T10:17:31Z</time><name>PT646</name></trkpt>
<trkpt lat="53.103242" lon="06.072480"><ele>-4.1</ele><time>2021-05-12T10:17:32Z</time><name>PT647</name></trkpt>
<trkpt lat="53.103238" lon="06.072463"><ele>-4.1</ele><time>2021-05-12T10:17:33Z</time><name>PT648</name></trkpt>
<trkpt lat="53.103231" lon="06.072448"><ele>-4.1</ele><time>2021-05-12T10:17:34Z</time><name>PT649</name></trkpt>
<trkpt lat="53.103226" lon="06.072433"><ele>-4.2</ele><time>2021-05-12T10:17:35Z</time><name>PT650</name></trkpt>
<trkpt lat="53.103220" lon="06.072411"><ele>-4.3</ele><time>2021-05-12T10:17:36Z</time><name>PT651</name></trkpt>
<trkpt lat="53.103212" lon="06.072395"><ele>-4.3</ele><time>2021-05-12T10:17:37Z</time><name>PT652</name></trkpt>
<trkpt lat="53.103209" lon="06.072379"><ele>-4.4</ele><time>2021-05-12T10:17:38Z</time><name>PT653</name></trkpt>
<trkpt lat="53.103208" lon="06.072361"><ele>-4.2</ele><time>2021-05-12T10:17:39Z</time><name>PT654</name></trkpt>
<trkpt lat="53.103207" lon="06.072339"><ele>-4.2</ele><time>2021-05-12T10:17:40Z</time><name>PT655</name></trkpt>
<trkpt lat="53.103205" lon="06.072319"><ele>-4.1</ele><time>2021-05-12T10:17:41Z</time><name>PT656</name></trkpt>
<trkpt lat="53.103200" lon="06.072301"><ele>-4</ele><time>2021-05-12T10:17:43Z</time><name>PT657</name></trkpt>
<trkpt lat="53.103195" lon="06.072288"><ele>-4</ele><time>2021-05-12T10:17:43Z</time><name>PT658</name></trkpt>
<trkpt lat="53.103192" lon="06.072272"><ele>-4.1</ele><time>2021-05-12T10:17:44Z</time><name>PT659</name></trkpt>
<trkpt lat="53.103193" lon="06.072261"><ele>-4.1</ele><time>2021-05-12T10:17:45Z</time><name>PT660</name></trkpt>
<trkpt lat="53.103193" lon="06.072251"><ele>-4.1</ele><time>2021-05-12T10:17:46Z</time><name>PT661</name></trkpt>
<trkpt lat="53.103188" lon="06.072243"><ele>-4.1</ele><time>2021-05-12T10:17:47Z</time><name>PT662</name></trkpt>
<trkpt lat="53.103189" lon="06.072235"><ele>-4.1</ele><time>2021-05-12T10:17:48Z</time><name>PT663</name></trkpt>
<trkpt lat="53.103192" lon="06.072222"><ele>-4</ele><time>2021-05-12T10:17:49Z</time><name>PT664</name></trkpt>
<trkpt lat="53.103189" lon="06.072208"><ele>-4.1</ele><time>2021-05-12T10:17:50Z</time><name>PT665</name></trkpt>
<trkpt lat="53.103187" lon="06.072194"><ele>-4.1</ele><time>2021-05-12T10:17:51Z</time><name>PT666</name></trkpt>
<trkpt lat="53.103182" lon="06.072177"><ele>-4.1</ele><time>2021-05-12T10:17:52Z</time><name>PT667</name></trkpt>
<trkpt lat="53.103175" lon="06.072159"><ele>-4</ele><time>2021-05-12T10:17:53Z</time><name>PT668</name></trkpt>
<trkpt lat="53.103172" lon="06.072140"><ele>-4</ele><time>2021-05-12T10:17:54Z</time><name>PT669</name></trkpt>
<trkpt lat="53.103168" lon="06.072117"><ele>-4</ele><time>2021-05-12T10:17:55Z</time><name>PT670</name></trkpt>
<trkpt lat="53.103165" lon="06.072095"><ele>-3.9</ele><time>2021-05-12T10:17:56Z</time><name>PT671</name></trkpt>
<trkpt lat="53.103160" lon="06.072072"><ele>-3.9</ele><time>2021-05-12T10:17:57Z</time><name>PT672</name></trkpt>
<trkpt lat="53.103157" lon="06.072054"><ele>-4</ele><time>2021-05-12T10:17:58Z</time><name>PT673</name></trkpt>
<trkpt lat="53.103157" lon="06.072036"><ele>-3.9</ele><time>2021-05-12T10:17:59Z</time><name>PT674</name></trkpt>
<trkpt lat="53.103154" lon="06.072019"><ele>-4.1</ele><time>2021-05-12T10:18:00Z</time><name>PT675</name></trkpt>
<trkpt lat="53.103152" lon="06.072005"><ele>-4.1</ele><time>2021-05-12T10:18:01Z</time><name>PT676</name></trkpt>
<trkpt lat="53.103149" lon="06.071988"><ele>-4</ele><time>2021-05-12T10:18:02Z</time><name>PT677</name></trkpt>
<trkpt lat="53.103150" lon="06.071976"><ele>-4.1</ele><time>2021-05-12T10:18:03Z</time><name>PT678</name></trkpt>
<trkpt lat="53.103144" lon="06.071948"><ele>-4.1</ele><time>2021-05-12T10:18:04Z</time><name>PT679</name></trkpt>
<trkpt lat="53.103138" lon="06.071923"><ele>-4.1</ele><time>2021-05-12T10:18:05Z</time><name>PT680</name></trkpt>
<trkpt lat="53.103133" lon="06.071901"><ele>-4.1</ele><time>2021-05-12T10:18:06Z</time><name>PT681</name></trkpt>
<trkpt lat="53.103130" lon="06.071882"><ele>-4.1</ele><time>2021-05-12T10:18:07Z</time><name>PT682</name></trkpt>
<trkpt lat="53.103126" lon="06.071866"><ele>-3.9</ele><time>2021-05-12T10:18:08Z</time><name>PT683</name></trkpt>
<trkpt lat="53.103122" lon="06.071853"><ele>-3.8</ele><time>2021-05-12T10:18:09Z</time><name>PT684</name></trkpt>
<trkpt lat="53.103119" lon="06.071838"><ele>-3.6</ele><time>2021-05-12T10:18:10Z</time><name>PT685</name></trkpt>
<trkpt lat="53.103119" lon="06.071822"><ele>-3.4</ele><time>2021-05-12T10:18:11Z</time><name>PT686</name></trkpt>
<trkpt lat="53.103117" lon="06.071801"><ele>-3.2</ele><time>2021-05-12T10:18:12Z</time><name>PT687</name></trkpt>
<trkpt lat="53.103115" lon="06.071773"><ele>-3.3</ele><time>2021-05-12T10:18:13Z</time><name>PT688</name></trkpt>
<trkpt lat="53.103117" lon="06.071752"><ele>-3.2</ele><time>2021-05-12T10:18:14Z</time><name>PT689</name></trkpt>
<trkpt lat="53.103116" lon="06.071734"><ele>-3.4</ele><time>2021-05-12T10:18:15Z</time><name>PT690</name></trkpt>
<trkpt lat="53.103112" lon="06.071721"><ele>-3.4</ele><time>2021-05-12T10:18:16Z</time><name>PT691</name></trkpt>
<trkpt lat="53.103109" lon="06.071705"><ele>-3.5</ele><time>2021-05-12T10:18:17Z</time><name>PT692</name></trkpt>
<trkpt lat="53.103115" lon="06.071686"><ele>-3.5</ele><time>2021-05-12T10:18:18Z</time><name>PT693</name></trkpt>
<trkpt lat="53.103120" lon="06.071671"><ele>-3.5</ele><time>2021-05-12T10:18:19Z</time><name>PT694</name></trkpt>
<trkpt lat="53.103124" lon="06.071657"><ele>-3.5</ele><time>2021-05-12T10:18:20Z</time><name>PT695</name></trkpt>
<trkpt lat="53.103131" lon="06.071646"><ele>-3.7</ele><time>2021-05-12T10:18:21Z</time><name>PT696</name></trkpt>
<trkpt lat="53.103141" lon="06.071630"><ele>-3.8</ele><time>2021-05-12T10:18:22Z</time><name>PT697</name></trkpt>
<trkpt lat="53.103151" lon="06.071611"><ele>-3.9</ele><time>2021-05-12T10:18:23Z</time><name>PT698</name></trkpt>
<trkpt lat="53.103159" lon="06.071597"><ele>-3.9</ele><time>2021-05-12T10:18:24Z</time><name>PT699</name></trkpt>
<trkpt lat="53.103168" lon="06.071582"><ele>-4</ele><time>2021-05-12T10:18:25Z</time><name>PT700</name></trkpt>
<trkpt lat="53.103175" lon="06.071566"><ele>-3.9</ele><time>2021-05-12T10:18:26Z</time><name>PT701</name></trkpt>
<trkpt lat="53.103179" lon="06.071551"><ele>-4.2</ele><time>2021-05-12T10:18:27Z</time><name>PT702</name></trkpt>
<trkpt lat="53.103184" lon="06.071538"><ele>-4.3</ele><time>2021-05-12T10:18:28Z</time><name>PT703</name></trkpt>
<trkpt lat="53.103186" lon="06.071529"><ele>-4.2</ele><time>2021-05-12T10:18:29Z</time><name>PT704</name></trkpt>
<trkpt lat="53.103191" lon="06.071520"><ele>-4.2</ele><time>2021-05-12T10:18:30Z</time><name>PT705</name></trkpt>
<trkpt lat="53.103195" lon="06.071511"><ele>-4.3</ele><time>2021-05-12T10:18:31Z</time><name>PT706</name></trkpt>
<trkpt lat="53.103193" lon="06.071508"><ele>-4.1</ele><time>2021-05-12T10:18:32Z</time><name>PT707</name></trkpt>
<trkpt lat="53.103194" lon="06.071499"><ele>-4.1</ele><time>2021-05-12T10:18:34Z</time><name>PT708</name></trkpt>
<trkpt lat="53.103200" lon="06.071499"><ele>-4.1</ele><time>2021-05-12T10:18:34Z</time><name>PT709</name></trkpt>
<trkpt lat="53.103205" lon="06.071499"><ele>-4</ele><time>2021-05-12T10:18:35Z</time><name>PT710</name></trkpt>
<trkpt lat="53.103217" lon="06.071490"><ele>-3.8</ele><time>2021-05-12T10:18:36Z</time><name>PT711</name></trkpt>
<trkpt lat="53.103225" lon="06.071480"><ele>-3.7</ele><time>2021-05-12T10:18:37Z</time><name>PT712</name></trkpt>
<trkpt lat="53.103237" lon="06.071471"><ele>-3.6</ele><time>2021-05-12T10:18:38Z</time><name>PT713</name></trkpt>
<trkpt lat="53.103250" lon="06.071462"><ele>-3.4</ele><time>2021-05-12T10:18:39Z</time><name>PT714</name></trkpt>
<trkpt lat="53.103253" lon="06.071457"><ele>-3.6</ele><time>2021-05-12T10:18:40Z</time><name>PT715</name></trkpt>
<trkpt lat="53.103262" lon="06.071450"><ele>-3.6</ele><time>2021-05-12T10:18:41Z</time><name>PT716</name></trkpt>
<trkpt lat="53.103268" lon="06.071449"><ele>-3.7</ele><time>2021-05-12T10:18:42Z</time><name>PT717</name></trkpt>
<trkpt lat="53.103274" lon="06.071448"><ele>-3.6</ele><time>2021-05-12T10:18:43Z</time><name>PT718</name></trkpt>
<trkpt lat="53.103282" lon="06.071443"><ele>-3.7</ele><time>2021-05-12T10:18:44Z</time><name>PT719</name></trkpt>
<trkpt lat="53.103292" lon="06.071436"><ele>-3.5</ele><time>2021-05-12T10:18:45Z</time><name>PT720</name></trkpt>
<trkpt lat="53.103295" lon="06.071431"><ele>-3.6</ele><time>2021-05-12T10:18:46Z</time><name>PT721</name></trkpt>
<trkpt lat="53.103303" lon="06.071422"><ele>-3.7</ele><time>2021-05-12T10:18:47Z</time><name>PT722</name></trkpt>
<trkpt lat="53.103306" lon="06.071419"><ele>-3.7</ele><time>2021-05-12T10:18:48Z</time><name>PT723</name></trkpt>
<trkpt lat="53.103311" lon="06.071410"><ele>-3.7</ele><time>2021-05-12T10:18:49Z</time><name>PT724</name></trkpt>
<trkpt lat="53.103320" lon="06.071403"><ele>-3.8</ele><time>2021-05-12T10:18:50Z</time><name>PT725</name></trkpt>
<trkpt lat="53.103330" lon="06.071400"><ele>-3.8</ele><time>2021-05-12T10:18:51Z</time><name>PT726</name></trkpt>
<trkpt lat="53.103339" lon="06.071394"><ele>-3.9</ele><time>2021-05-12T10:18:52Z</time><name>PT727</name></trkpt>
<trkpt lat="53.103358" lon="06.071380"><ele>-3.8</ele><time>2021-05-12T10:18:53Z</time><name>PT728</name></trkpt>
<trkpt lat="53.103376" lon="06.071373"><ele>-3.8</ele><time>2021-05-12T10:18:54Z</time><name>PT729</name></trkpt>
<trkpt lat="53.103389" lon="06.071366"><ele>-3.7</ele><time>2021-05-12T10:18:55Z</time><name>PT730</name></trkpt>
<trkpt lat="53.103404" lon="06.071357"><ele>-3.8</ele><time>2021-05-12T10:18:56Z</time><name>PT731</name></trkpt>
<trkpt lat="53.103414" lon="06.071349"><ele>-4</ele><time>2021-05-12T10:18:58Z</time><name>PT732</name></trkpt>
<trkpt lat="53.103425" lon="06.071339"><ele>-4</ele><time>2021-05-12T10:18:58Z</time><name>PT733</name></trkpt>
<trkpt lat="53.103424" lon="06.071330"><ele>-4.1</ele><time>2021-05-12T10:18:59Z</time><name>PT734</name></trkpt>
<trkpt lat="53.103426" lon="06.071318"><ele>-4.2</ele><time>2021-05-12T10:19:00Z</time><name>PT735</name></trkpt>
<trkpt lat="53.103428" lon="06.071306"><ele>-4.1</ele><time>2021-05-12T10:19:01Z</time><name>PT736</name></trkpt>
<trkpt lat="53.103429" lon="06.071294"><ele>-4.2</ele><time>2021-05-12T10:19:02Z</time><name>PT737</name></trkpt>
<trkpt lat="53.103429" lon="06.071280"><ele>-4.4</ele><time>2021-05-12T10:19:03Z</time><name>PT738</name></trkpt>
<trkpt lat="53.103437" lon="06.071263"><ele>-4.5</ele><time>2021-05-12T10:19:04Z</time><name>PT739</name></trkpt>
<trkpt lat="53.103444" lon="06.071253"><ele>-4.5</ele><time>2021-05-12T10:19:05Z</time><name>PT740</name></trkpt>
<trkpt lat="53.103445" lon="06.071246"><ele>-4.6</ele><time>2021-05-12T10:19:06Z</time><name>PT741</name></trkpt>
<trkpt lat="53.103452" lon="06.071233"><ele>-4.6</ele><time>2021-05-12T10:19:07Z</time><name>PT742</name></trkpt>
<trkpt lat="53.103462" lon="06.071213"><ele>-4.5</ele><time>2021-05-12T10:19:08Z</time><name>PT743</name></trkpt>
<trkpt lat="53.103468" lon="06.071190"><ele>-4.4</ele><time>2021-05-12T10:19:09Z</time><name>PT744</name></trkpt>
<trkpt lat="53.103484" lon="06.071168"><ele>-4.4</ele><time>2021-05-12T10:19:10Z</time><name>PT745</name></trkpt>
<trkpt lat="53.103496" lon="06.071143"><ele>-4.3</ele><time>2021-05-12T10:19:11Z</time><name>PT746</name></trkpt>
<trkpt lat="53.103505" lon="06.071119"><ele>-4.4</ele><time>2021-05-12T10:19:12Z</time><name>PT747</name></trkpt>
<trkpt lat="53.103513" lon="06.071101"><ele>-4.4</ele><time>2021-05-12T10:19:13Z</time><name>PT748</name></trkpt>
<trkpt lat="53.103516" lon="06.071083"><ele>-4.4</ele><time>2021-05-12T10:19:14Z</time><name>PT749</name></trkpt>
<trkpt lat="53.103515" lon="06.071060"><ele>-4.3</ele><time>2021-05-12T10:19:15Z</time><name>PT750</name></trkpt>
<trkpt lat="53.103510" lon="06.071034"><ele>-4.3</ele><time>2021-05-12T10:19:16Z</time><name>PT751</name></trkpt>
<trkpt lat="53.103517" lon="06.071019"><ele>-4.2</ele><time>2021-05-12T10:19:17Z</time><name>PT752</name></trkpt>
<trkpt lat="53.103520" lon="06.071008"><ele>-4.2</ele><time>2021-05-12T10:19:18Z</time><name>PT753</name></trkpt>
<trkpt lat="53.103526" lon="06.070994"><ele>-4.2</ele><time>2021-05-12T10:19:19Z</time><name>PT754</name></trkpt>
<trkpt lat="53.103526" lon="06.070982"><ele>-4.4</ele><time>2021-05-12T10:19:20Z</time><name>PT755</name></trkpt>
<trkpt lat="53.103527" lon="06.070964"><ele>-4.3</ele><time>2021-05-12T10:19:21Z</time><name>PT756</name></trkpt>
<trkpt lat="53.103536" lon="06.070941"><ele>-4.3</ele><time>2021-05-12T10:19:22Z</time><name>PT757</name></trkpt>
<trkpt lat="53.103541" lon="06.070921"><ele>-4.2</ele><time>2021-05-12T10:19:23Z</time><name>PT758</name></trkpt>
<trkpt lat="53.103548" lon="06.070896"><ele>-4.2</ele><time>2021-05-12T10:19:25Z</time><name>PT759</name></trkpt>
<trkpt lat="53.103551" lon="06.070875"><ele>-4.2</ele><time>2021-05-12T10:19:25Z</time><name>PT760</name></trkpt>
<trkpt lat="53.103554" lon="06.070850"><ele>-4.1</ele><time>2021-05-12T10:19:26Z</time><name>PT761</name></trkpt>
<trkpt lat="53.103560" lon="06.070827"><ele>-4.1</ele><time>2021-05-12T10:19:27Z</time><name>PT762</name></trkpt>
<trkpt lat="53.103564" lon="06.070805"><ele>-4.1</ele><time>2021-05-12T10:19:28Z</time><name>PT763</name></trkpt>
<trkpt lat="53.103571" lon="06.070783"><ele>-4</ele><time>2021-05-12T10:19:29Z</time><name>PT764</name></trkpt>
<trkpt lat="53.103576" lon="06.070771"><ele>-4.1</ele><time>2021-05-12T10:19:30Z</time><name>PT765</name></trkpt>
<trkpt lat="53.103577" lon="06.070765"><ele>-4.1</ele><time>2021-05-12T10:19:31Z</time><name>PT766</name></trkpt>
<trkpt lat="53.103586" lon="06.070755"><ele>-4.1</ele><time>2021-05-12T10:19:32Z</time><name>PT767</name></trkpt>
<trkpt lat="53.103595" lon="06.070717"><ele>-4</ele><time>2021-05-12T10:19:44Z</time><name>PT768</name></trkpt>
<trkpt lat="53.103598" lon="06.070700"><ele>-4.1</ele><time>2021-05-12T10:19:45Z</time><name>PT769</name></trkpt>
<trkpt lat="53.103600" lon="06.070684"><ele>-4.1</ele><time>2021-05-12T10:19:46Z</time><name>PT770</name></trkpt>
<trkpt lat="53.103605" lon="06.070663"><ele>-4.1</ele><time>2021-05-12T10:19:47Z</time><name>PT771</name></trkpt>
<trkpt lat="53.103615" lon="06.070636"><ele>-4.1</ele><time>2021-05-12T10:19:48Z</time><name>PT772</name></trkpt>
<trkpt lat="53.103622" lon="06.070618"><ele>-4.1</ele><time>2021-05-12T10:19:49Z</time><name>PT773</name></trkpt>
<trkpt lat="53.103625" lon="06.070602"><ele>-4.2</ele><time>2021-05-12T10:19:50Z</time><name>PT774</name></trkpt>
<trkpt lat="53.103627" lon="06.070585"><ele>-4.1</ele><time>2021-05-12T10:19:51Z</time><name>PT775</name></trkpt>
<trkpt lat="53.103625" lon="06.070569"><ele>-4.1</ele><time>2021-05-12T10:19:52Z</time><name>PT776</name></trkpt>
<trkpt lat="53.103627" lon="06.070549"><ele>-4.1</ele><time>2021-05-12T10:19:53Z</time><name>PT777</name></trkpt>
<trkpt lat="53.103633" lon="06.070530"><ele>-4.1</ele><time>2021-05-12T10:19:54Z</time><name>PT778</name></trkpt>
<trkpt lat="53.103634" lon="06.070507"><ele>-4</ele><time>2021-05-12T10:19:55Z</time><name>PT779</name></trkpt>
<trkpt lat="53.103639" lon="06.070486"><ele>-4</ele><time>2021-05-12T10:19:56Z</time><name>PT780</name></trkpt>
<trkpt lat="53.103640" lon="06.070468"><ele>-3.9</ele><time>2021-05-12T10:19:57Z</time><name>PT781</name></trkpt>
<trkpt lat="53.103642" lon="06.070456"><ele>-3.9</ele><time>2021-05-12T10:19:58Z</time><name>PT782</name></trkpt>
<trkpt lat="53.103642" lon="06.070447"><ele>-3.7</ele><time>2021-05-12T10:19:59Z</time><name>PT783</name></trkpt>
<trkpt lat="53.103646" lon="06.070436"><ele>-3.7</ele><time>2021-05-12T10:20:00Z</time><name>PT784</name></trkpt>
<trkpt lat="53.103656" lon="06.070419"><ele>-3.6</ele><time>2021-05-12T10:20:01Z</time><name>PT785</name></trkpt>
<trkpt lat="53.103664" lon="06.070404"><ele>-3.5</ele><time>2021-05-12T10:20:02Z</time><name>PT786</name></trkpt>
<trkpt lat="53.103672" lon="06.070393"><ele>-3.4</ele><time>2021-05-12T10:20:03Z</time><name>PT787</name></trkpt>
<trkpt lat="53.103680" lon="06.070385"><ele>-3.5</ele><time>2021-05-12T10:20:04Z</time><name>PT788</name></trkpt>
<trkpt lat="53.103689" lon="06.070379"><ele>-3.5</ele><time>2021-05-12T10:20:05Z</time><name>PT789</name></trkpt>
<trkpt lat="53.103700" lon="06.070380"><ele>-3.6</ele><time>2021-05-12T10:20:06Z</time><name>PT790</name></trkpt>
<trkpt lat="53.103708" lon="06.070388"><ele>-3.7</ele><time>2021-05-12T10:20:07Z</time><name>PT791</name></trkpt>
<trkpt lat="53.103719" lon="06.070395"><ele>-4</ele><time>2021-05-12T10:20:08Z</time><name>PT792</name></trkpt>
<trkpt lat="53.103728" lon="06.070395"><ele>-3.9</ele><time>2021-05-12T10:20:09Z</time><name>PT793</name></trkpt>
<trkpt lat="53.103738" lon="06.070390"><ele>-3.9</ele><time>2021-05-12T10:20:10Z</time><name>PT794</name></trkpt>
<trkpt lat="53.103745" lon="06.070385"><ele>-3.8</ele><time>2021-05-12T10:20:11Z</time><name>PT795</name></trkpt>
<trkpt lat="53.103747" lon="06.070384"><ele>-3.8</ele><time>2021-05-12T10:20:12Z</time><name>PT796</name></trkpt>
<trkpt lat="53.103749" lon="06.070383"><ele>-3.6</ele><time>2021-05-12T10:20:13Z</time><name>PT797</name></trkpt>
<trkpt lat="53.103751" lon="06.070384"><ele>-3.6</ele><time>2021-05-12T10:20:14Z</time><name>PT798</name></trkpt>
<trkpt lat="53.103751" lon="06.070386"><ele>-3.6</ele><time>2021-05-12T10:20:15Z</time><name>PT799</name></trkpt>
<trkpt lat="53.103756" lon="06.070383"><ele>-3.4</ele><time>2021-05-12T10:20:20Z</time><name>PT800</name></trkpt>
<trkpt lat="53.103764" lon="06.070377"><ele>-3.4</ele><time>2021-05-12T10:20:21Z</time><name>PT801</name></trkpt>
<trkpt lat="53.103770" lon="06.070372"><ele>-3.5</ele><time>2021-05-12T10:20:22Z</time><name>PT802</name></trkpt>
<trkpt lat="53.103770" lon="06.070368"><ele>-3.5</ele><time>2021-05-12T10:20:23Z</time><name>PT803</name></trkpt>
<trkpt lat="53.103772" lon="06.070374"><ele>-3.6</ele><time>2021-05-12T10:20:24Z</time><name>PT804</name></trkpt>
<trkpt lat="53.103776" lon="06.070375"><ele>-3.5</ele><time>2021-05-12T10:20:25Z</time><name>PT805</name></trkpt>
<trkpt lat="53.103779" lon="06.070378"><ele>-3.4</ele><time>2021-05-12T10:20:26Z</time><name>PT806</name></trkpt>
<trkpt lat="53.103783" lon="06.070378"><ele>-3.2</ele><time>2021-05-12T10:20:27Z</time><name>PT807</name></trkpt>
<trkpt lat="53.103783" lon="06.070372"><ele>-3.3</ele><time>2021-05-12T10:20:33Z</time><name>PT808</name></trkpt>
<trkpt lat="53.103786" lon="06.070365"><ele>-3.3</ele><time>2021-05-12T10:20:34Z</time><name>PT809</name></trkpt>
<trkpt lat="53.103789" lon="06.070351"><ele>-3.6</ele><time>2021-05-12T10:20:52Z</time><name>PT810</name></trkpt>
<trkpt lat="53.103792" lon="06.070344"><ele>-3.6</ele><time>2021-05-12T10:20:52Z</time><name>PT811</name></trkpt>
<trkpt lat="53.103796" lon="06.070331"><ele>-3.5</ele><time>2021-05-12T10:20:53Z</time><name>PT812</name></trkpt>
<trkpt lat="53.103796" lon="06.070324"><ele>-3.5</ele><time>2021-05-12T10:20:54Z</time><name>PT813</name></trkpt>
<trkpt lat="53.103797" lon="06.070326"><ele>-3.5</ele><time>2021-05-12T10:20:55Z</time><name>PT814</name></trkpt>
<trkpt lat="53.103797" lon="06.070325"><ele>-3.3</ele><time>2021-05-12T10:20:56Z</time><name>PT815</name></trkpt>
<trkpt lat="53.103799" lon="06.070322"><ele>-3.1</ele><time>2021-05-12T10:20:57Z</time><name>PT816</name></trkpt>
<trkpt lat="53.103798" lon="06.070315"><ele>-3.2</ele><time>2021-05-12T10:20:58Z</time><name>PT817</name></trkpt>
<trkpt lat="53.103802" lon="06.070304"><ele>-3.1</ele><time>2021-05-12T10:20:59Z</time><name>PT818</name></trkpt>
<trkpt lat="53.103807" lon="06.070292"><ele>-3.3</ele><time>2021-05-12T10:21:00Z</time><name>PT819</name></trkpt>
<trkpt lat="53.103809" lon="06.070285"><ele>-3.3</ele><time>2021-05-12T10:21:01Z</time><name>PT820</name></trkpt>
<trkpt lat="53.103812" lon="06.070282"><ele>-3.2</ele><time>2021-05-12T10:21:02Z</time><name>PT821</name></trkpt>
<trkpt lat="53.103815" lon="06.070272"><ele>-3.3</ele><time>2021-05-12T10:21:04Z</time><name>PT822</name></trkpt>
<trkpt lat="53.103818" lon="06.070266"><ele>-3.3</ele><time>2021-05-12T10:21:04Z</time><name>PT823</name></trkpt>
<trkpt lat="53.103818" lon="06.070268"><ele>-3.3</ele><time>2021-05-12T10:21:05Z</time><name>PT824</name></trkpt>
<trkpt lat="53.103828" lon="06.070272"><ele>-3.1</ele><time>2021-05-12T10:21:06Z</time><name>PT825</name></trkpt>
<trkpt lat="53.103831" lon="06.070277"><ele>-3.1</ele><time>2021-05-12T10:21:07Z</time><name>PT826</name></trkpt>
<trkpt lat="53.103836" lon="06.070280"><ele>-2.9</ele><time>2021-05-12T10:21:08Z</time><name>PT827</name></trkpt>
<trkpt lat="53.103839" lon="06.070283"><ele>-2.8</ele><time>2021-05-12T10:21:09Z</time><name>PT828</name></trkpt>
<trkpt lat="53.103843" lon="06.070280"><ele>-2.9</ele><time>2021-05-12T10:21:10Z</time><name>PT829</name></trkpt>
<trkpt lat="53.103844" lon="06.070275"><ele>-3.6</ele><time>2021-05-12T10:21:29Z</time><name>PT830</name></trkpt>
<trkpt lat="53.103841" lon="06.070258"><ele>-3.5</ele><time>2021-05-12T10:21:30Z</time><name>PT831</name></trkpt>
<trkpt lat="53.103834" lon="06.070244"><ele>-3.4</ele><time>2021-05-12T10:21:31Z</time><name>PT832</name></trkpt>
<trkpt lat="53.103830" lon="06.070236"><ele>-3.3</ele><time>2021-05-12T10:21:32Z</time><name>PT833</name></trkpt>
<trkpt lat="53.103832" lon="06.070236"><ele>-3.1</ele><time>2021-05-12T10:21:33Z</time><name>PT834</name></trkpt>
<trkpt lat="53.103830" lon="06.070234"><ele>-3</ele><time>2021-05-12T10:21:34Z</time><name>PT835</name></trkpt>
<trkpt lat="53.103829" lon="06.070233"><ele>-3.1</ele><time>2021-05-12T10:21:35Z</time><name>PT836</name></trkpt>
<trkpt lat="53.103827" lon="06.070233"><ele>-3.2</ele><time>2021-05-12T10:21:37Z</time><name>PT837</name></trkpt>
<trkpt lat="53.103823" lon="06.070220"><ele>-3.6</ele><time>2021-05-12T10:21:42Z</time><name>PT838</name></trkpt>
<trkpt lat="53.103814" lon="06.070218"><ele>-3.6</ele><time>2021-05-12T10:21:43Z</time><name>PT839</name></trkpt>
<trkpt lat="53.103803" lon="06.070215"><ele>-3.6</ele><time>2021-05-12T10:21:44Z</time><name>PT840</name></trkpt>
<trkpt lat="53.103790" lon="06.070207"><ele>-3.6</ele><time>2021-05-12T10:21:45Z</time><name>PT841</name></trkpt>
<trkpt lat="53.103778" lon="06.070194"><ele>-3.4</ele><time>2021-05-12T10:21:46Z</time><name>PT842</name></trkpt>
<trkpt lat="53.103764" lon="06.070181"><ele>-3.5</ele><time>2021-05-12T10:21:47Z</time><name>PT843</name></trkpt>
<trkpt lat="53.103750" lon="06.070170"><ele>-3.6</ele><time>2021-05-12T10:21:48Z</time><name>PT844</name></trkpt>
<trkpt lat="53.103741" lon="06.070157"><ele>-3.7</ele><time>2021-05-12T10:21:49Z</time><name>PT845</name></trkpt>
<trkpt lat="53.103729" lon="06.070142"><ele>-3.6</ele><time>2021-05-12T10:21:50Z</time><name>PT846</name></trkpt>
<trkpt lat="53.103717" lon="06.070132"><ele>-3.7</ele><time>2021-05-12T10:21:52Z</time><name>PT847</name></trkpt>
<trkpt lat="53.103709" lon="06.070124"><ele>-3.8</ele><time>2021-05-12T10:21:52Z</time><name>PT848</name></trkpt>
<trkpt lat="53.103700" lon="06.070119"><ele>-3.8</ele><time>2021-05-12T10:21:53Z</time><name>PT849</name></trkpt>
<trkpt lat="53.103695" lon="06.070108"><ele>-4.1</ele><time>2021-05-12T10:21:54Z</time><name>PT850</name></trkpt>
<trkpt lat="53.103686" lon="06.070100"><ele>-4.1</ele><time>2021-05-12T10:21:55Z</time><name>PT851</name></trkpt>
<trkpt lat="53.103677" lon="06.070094"><ele>-4</ele><time>2021-05-12T10:21:56Z</time><name>PT852</name></trkpt>
<trkpt lat="53.103669" lon="06.070084"><ele>-3.9</ele><time>2021-05-12T10:21:57Z</time><name>PT853</name></trkpt>
<trkpt lat="53.103661" lon="06.070075"><ele>-3.9</ele><time>2021-05-12T10:21:58Z</time><name>PT854</name></trkpt>
<trkpt lat="53.103653" lon="06.070070"><ele>-3.7</ele><time>2021-05-12T10:21:59Z</time><name>PT855</name></trkpt>
<trkpt lat="53.103643" lon="06.070060"><ele>-3.9</ele><time>2021-05-12T10:22:00Z</time><name>PT856</name></trkpt>
<trkpt lat="53.103634" lon="06.070049"><ele>-4</ele><time>2021-05-12T10:22:01Z</time><name>PT857</name></trkpt>
<trkpt lat="53.103622" lon="06.070036"><ele>-4.1</ele><time>2021-05-12T10:22:02Z</time><name>PT858</name></trkpt>
<trkpt lat="53.103612" lon="06.070020"><ele>-4.1</ele><time>2021-05-12T10:22:03Z</time><name>PT859</name></trkpt>
<trkpt lat="53.103602" lon="06.070009"><ele>-4.1</ele><time>2021-05-12T10:22:04Z</time><name>PT860</name></trkpt>
<trkpt lat="53.103589" lon="06.069996"><ele>-4.1</ele><time>2021-05-12T10:22:05Z</time><name>PT861</name></trkpt>
<trkpt lat="53.103580" lon="06.069988"><ele>-4.1</ele><time>2021-05-12T10:22:07Z</time><name>PT862</name></trkpt>
<trkpt lat="53.103569" lon="06.069982"><ele>-4.1</ele><time>2021-05-12T10:22:07Z</time><name>PT863</name></trkpt>
<trkpt lat="53.103556" lon="06.069979"><ele>-4.1</ele><time>2021-05-12T10:22:08Z</time><name>PT864</name></trkpt>
<trkpt lat="53.103551" lon="06.069981"><ele>-4.1</ele><time>2021-05-12T10:22:09Z</time><name>PT865</name></trkpt>
<trkpt lat="53.103547" lon="06.069980"><ele>-3.9</ele><time>2021-05-12T10:22:10Z</time><name>PT866</name></trkpt>
<trkpt lat="53.103540" lon="06.069973"><ele>-3.9</ele><time>2021-05-12T10:22:11Z</time><name>PT867</name></trkpt>
<trkpt lat="53.103537" lon="06.069971"><ele>-3.8</ele><time>2021-05-12T10:22:12Z</time><name>PT868</name></trkpt>
<trkpt lat="53.103531" lon="06.069969"><ele>-3.7</ele><time>2021-05-12T10:22:13Z</time><name>PT869</name></trkpt>
<trkpt lat="53.103521" lon="06.069967"><ele>-3.8</ele><time>2021-05-12T10:22:14Z</time><name>PT870</name></trkpt>
<trkpt lat="53.103509" lon="06.069965"><ele>-3.8</ele><time>2021-05-12T10:22:16Z</time><name>PT871</name></trkpt>
<trkpt lat="53.103497" lon="06.069965"><ele>-3.8</ele><time>2021-05-12T10:22:16Z</time><name>PT872</name></trkpt>
<trkpt lat="53.103479" lon="06.069970"><ele>-3.9</ele><time>2021-05-12T10:22:17Z</time><name>PT873</name></trkpt>
<trkpt lat="53.103464" lon="06.069975"><ele>-4</ele><time>2021-05-12T10:22:19Z</time><name>PT874</name></trkpt>
<trkpt lat="53.103450" lon="06.069979"><ele>-3.8</ele><time>2021-05-12T10:22:19Z</time><name>PT875</name></trkpt>
<trkpt lat="53.103436" lon="06.069983"><ele>-3.7</ele><time>2021-05-12T10:22:20Z</time><name>PT876</name></trkpt>
<trkpt lat="53.103426" lon="06.069994"><ele>-3.8</ele><time>2021-05-12T10:22:21Z</time><name>PT877</name></trkpt>
<trkpt lat="53.103418" lon="06.070003"><ele>-3.8</ele><time>2021-05-12T10:22:22Z</time><name>PT878</name></trkpt>
<trkpt lat="53.103410" lon="06.070017"><ele>-3.7</ele><time>2021-05-12T10:22:23Z</time><name>PT879</name></trkpt>
<trkpt lat="53.103401" lon="06.070036"><ele>-4</ele><time>2021-05-12T10:22:24Z</time><name>PT880</name></trkpt>
<trkpt lat="53.103389" lon="06.070049"><ele>-3.9</ele><time>2021-05-12T10:22:25Z</time><name>PT881</name></trkpt>
<trkpt lat="53.103382" lon="06.070063"><ele>-4.1</ele><time>2021-05-12T10:22:26Z</time><name>PT882</name></trkpt>
<trkpt lat="53.103375" lon="06.070078"><ele>-4.1</ele><time>2021-05-12T10:22:28Z</time><name>PT883</name></trkpt>
<trkpt lat="53.103369" lon="06.070089"><ele>-4.1</ele><time>2021-05-12T10:22:28Z</time><name>PT884</name></trkpt>
<trkpt lat="53.103363" lon="06.070100"><ele>-4.1</ele><time>2021-05-12T10:22:29Z</time><name>PT885</name></trkpt>
<trkpt lat="53.103358" lon="06.070112"><ele>-4.4</ele><time>2021-05-12T10:22:30Z</time><name>PT886</name></trkpt>
<trkpt lat="53.103353" lon="06.070125"><ele>-4.3</ele><time>2021-05-12T10:22:31Z</time><name>PT887</name></trkpt>
<trkpt lat="53.103343" lon="06.070142"><ele>-4.3</ele><time>2021-05-12T10:22:32Z</time><name>PT888</name></trkpt>
<trkpt lat="53.103337" lon="06.070157"><ele>-4.3</ele><time>2021-05-12T10:22:33Z</time><name>PT889</name></trkpt>
<trkpt lat="53.103330" lon="06.070168"><ele>-4.3</ele><time>2021-05-12T10:22:34Z</time><name>PT890</name></trkpt>
<trkpt lat="53.103320" lon="06.070181"><ele>-4.5</ele><time>2021-05-12T10:22:35Z</time><name>PT891</name></trkpt>
<trkpt lat="53.103311" lon="06.070196"><ele>-4.4</ele><time>2021-05-12T10:22:36Z</time><name>PT892</name></trkpt>
<trkpt lat="53.103310" lon="06.070212"><ele>-4.4</ele><time>2021-05-12T10:22:37Z</time><name>PT893</name></trkpt>
<trkpt lat="53.103302" lon="06.070224"><ele>-4.4</ele><time>2021-05-12T10:22:38Z</time><name>PT894</name></trkpt>
<trkpt lat="53.103296" lon="06.070236"><ele>-4.1</ele><time>2021-05-12T10:22:39Z</time><name>PT895</name></trkpt>
<trkpt lat="53.103289" lon="06.070250"><ele>-4</ele><time>2021-05-12T10:22:40Z</time><name>PT896</name></trkpt>
<trkpt lat="53.103284" lon="06.070265"><ele>-3.8</ele><time>2021-05-12T10:22:41Z</time><name>PT897</name></trkpt>
<trkpt lat="53.103277" lon="06.070281"><ele>-3.8</ele><time>2021-05-12T10:22:42Z</time><name>PT898</name></trkpt>
<trkpt lat="53.103272" lon="06.070295"><ele>-3.8</ele><time>2021-05-12T10:22:43Z</time><name>PT899</name></trkpt>
<trkpt lat="53.103266" lon="06.070306"><ele>-3.9</ele><time>2021-05-12T10:22:44Z</time><name>PT900</name></trkpt>
<trkpt lat="53.103260" lon="06.070314"><ele>-3.9</ele><time>2021-05-12T10:22:45Z</time><name>PT901</name></trkpt>
<trkpt lat="53.103252" lon="06.070318"><ele>-3.9</ele><time>2021-05-12T10:22:46Z</time><name>PT902</name></trkpt>
<trkpt lat="53.103244" lon="06.070327"><ele>-3.9</ele><time>2021-05-12T10:22:47Z</time><name>PT903</name></trkpt>
<trkpt lat="53.103240" lon="06.070326"><ele>-3.8</ele><time>2021-05-12T10:22:48Z</time><name>PT904</name></trkpt>
<trkpt lat="53.103236" lon="06.070320"><ele>-3.7</ele><time>2021-05-12T10:22:49Z</time><name>PT905</name></trkpt>
<trkpt lat="53.103231" lon="06.070313"><ele>-3.6</ele><time>2021-05-12T10:22:50Z</time><name>PT906</name></trkpt>
<trkpt lat="53.103224" lon="06.070313"><ele>-3.6</ele><time>2021-05-12T10:22:51Z</time><name>PT907</name></trkpt>
<trkpt lat="53.103216" lon="06.070311"><ele>-3.6</ele><time>2021-05-12T10:22:52Z</time><name>PT908</name></trkpt>
<trkpt lat="53.103207" lon="06.070306"><ele>-3.8</ele><time>2021-05-12T10:22:53Z</time><name>PT909</name></trkpt>
<trkpt lat="53.103198" lon="06.070301"><ele>-4.1</ele><time>2021-05-12T10:22:54Z</time><name>PT910</name></trkpt>
<trkpt lat="53.103190" lon="06.070296"><ele>-4.1</ele><time>2021-05-12T10:22:55Z</time><name>PT911</name></trkpt>
<trkpt lat="53.103184" lon="06.070286"><ele>-4.1</ele><time>2021-05-12T10:22:56Z</time><name>PT912</name></trkpt>
<trkpt lat="53.103174" lon="06.070273"><ele>-4.2</ele><time>2021-05-12T10:22:57Z</time><name>PT913</name></trkpt>
<trkpt lat="53.103168" lon="06.070257"><ele>-4.4</ele><time>2021-05-12T10:22:58Z</time><name>PT914</name></trkpt>
<trkpt lat="53.103162" lon="06.070244"><ele>-4.6</ele><time>2021-05-12T10:22:59Z</time><name>PT915</name></trkpt>
<trkpt lat="53.103158" lon="06.070225"><ele>-4.6</ele><time>2021-05-12T10:23:00Z</time><name>PT916</name></trkpt>
<trkpt lat="53.103151" lon="06.070208"><ele>-4.7</ele><time>2021-05-12T10:23:01Z</time><name>PT917</name></trkpt>
<trkpt lat="53.103144" lon="06.070190"><ele>-4.6</ele><time>2021-05-12T10:23:02Z</time><name>PT918</name></trkpt>
<trkpt lat="53.103140" lon="06.070171"><ele>-4.6</ele><time>2021-05-12T10:23:03Z</time><name>PT919</name></trkpt>
<trkpt lat="53.103133" lon="06.070153"><ele>-4.6</ele><time>2021-05-12T10:23:04Z</time><name>PT920</name></trkpt>
<trkpt lat="53.103124" lon="06.070140"><ele>-4.5</ele><time>2021-05-12T10:23:05Z</time><name>PT921</name></trkpt>
<trkpt lat="53.103117" lon="06.070125"><ele>-4.4</ele><time>2021-05-12T10:23:06Z</time><name>PT922</name></trkpt>
<trkpt lat="53.103114" lon="06.070106"><ele>-4.6</ele><time>2021-05-12T10:23:07Z</time><name>PT923</name></trkpt>
<trkpt lat="53.103114" lon="06.070089"><ele>-4.5</ele><time>2021-05-12T10:23:08Z</time><name>PT924</name></trkpt>
<trkpt lat="53.103116" lon="06.070068"><ele>-4.4</ele><time>2021-05-12T10:23:09Z</time><name>PT925</name></trkpt>
<trkpt lat="53.103116" lon="06.070052"><ele>-4.4</ele><time>2021-05-12T10:23:10Z</time><name>PT926</name></trkpt>
<trkpt lat="53.103121" lon="06.070035"><ele>-4.1</ele><time>2021-05-12T10:23:11Z</time><name>PT927</name></trkpt>
<trkpt lat="53.103126" lon="06.070018"><ele>-4</ele><time>2021-05-12T10:23:12Z</time><name>PT928</name></trkpt>
<trkpt lat="53.103128" lon="06.069999"><ele>-3.9</ele><time>2021-05-12T10:23:13Z</time><name>PT929</name></trkpt>
<trkpt lat="53.103132" lon="06.069980"><ele>-3.8</ele><time>2021-05-12T10:23:14Z</time><name>PT930</name></trkpt>
<trkpt lat="53.103139" lon="06.069961"><ele>-3.9</ele><time>2021-05-12T10:23:16Z</time><name>PT931</name></trkpt>
<trkpt lat="53.103142" lon="06.069943"><ele>-3.9</ele><time>2021-05-12T10:23:16Z</time><name>PT932</name></trkpt>
<trkpt lat="53.103150" lon="06.069923"><ele>-4.1</ele><time>2021-05-12T10:23:17Z</time><name>PT933</name></trkpt>
<trkpt lat="53.103154" lon="06.069904"><ele>-4.1</ele><time>2021-05-12T10:23:19Z</time><name>PT934</name></trkpt>
<trkpt lat="53.103157" lon="06.069886"><ele>-4.1</ele><time>2021-05-12T10:23:19Z</time><name>PT935</name></trkpt>
<trkpt lat="53.103160" lon="06.069867"><ele>-4.3</ele><time>2021-05-12T10:23:20Z</time><name>PT936</name></trkpt>
<trkpt lat="53.103165" lon="06.069845"><ele>-4.2</ele><time>2021-05-12T10:23:21Z</time><name>PT937</name></trkpt>
<trkpt lat="53.103168" lon="06.069835"><ele>-4.1</ele><time>2021-05-12T10:23:22Z</time><name>PT938</name></trkpt>
<trkpt lat="53.103169" lon="06.069830"><ele>-4.1</ele><time>2021-05-12T10:23:23Z</time><name>PT939</name></trkpt>
<trkpt lat="53.103170" lon="06.069828"><ele>-4.1</ele><time>2021-05-12T10:23:24Z</time><name>PT940</name></trkpt>
<trkpt lat="53.103171" lon="06.069826"><ele>-4</ele><time>2021-05-12T10:23:25Z</time><name>PT941</name></trkpt>
<trkpt lat="53.103174" lon="06.069823"><ele>-4.2</ele><time>2021-05-12T10:23:26Z</time><name>PT942</name></trkpt>
<trkpt lat="53.103176" lon="06.069808"><ele>-3.7</ele><time>2021-05-12T10:23:31Z</time><name>PT943</name></trkpt>
<trkpt lat="53.103181" lon="06.069793"><ele>-3.8</ele><time>2021-05-12T10:23:32Z</time><name>PT944</name></trkpt>
<trkpt lat="53.103186" lon="06.069777"><ele>-3.8</ele><time>2021-05-12T10:23:33Z</time><name>PT945</name></trkpt>
<trkpt lat="53.103194" lon="06.069761"><ele>-3.7</ele><time>2021-05-12T10:23:34Z</time><name>PT946</name></trkpt>
<trkpt lat="53.103199" lon="06.069744"><ele>-3.7</ele><time>2021-05-12T10:23:35Z</time><name>PT947</name></trkpt>
<trkpt lat="53.103200" lon="06.069726"><ele>-3.7</ele><time>2021-05-12T10:23:36Z</time><name>PT948</name></trkpt>
<trkpt lat="53.103202" lon="06.069708"><ele>-3.7</ele><time>2021-05-12T10:23:37Z</time><name>PT949</name></trkpt>
<trkpt lat="53.103207" lon="06.069693"><ele>-3.6</ele><time>2021-05-12T10:23:38Z</time><name>PT950</name></trkpt>
<trkpt lat="53.103212" lon="06.069681"><ele>-3.8</ele><time>2021-05-12T10:23:39Z</time><name>PT951</name></trkpt>
<trkpt lat="53.103216" lon="06.069669"><ele>-3.9</ele><time>2021-05-12T10:23:40Z</time><name>PT952</name></trkpt>
<trkpt lat="53.103221" lon="06.069650"><ele>-4</ele><time>2021-05-12T10:23:41Z</time><name>PT953</name></trkpt>
<trkpt lat="53.103226" lon="06.069629"><ele>-4</ele><time>2021-05-12T10:23:42Z</time><name>PT954</name></trkpt>
<trkpt lat="53.103231" lon="06.069609"><ele>-4.1</ele><time>2021-05-12T10:23:43Z</time><name>PT955</name></trkpt>
<trkpt lat="53.103236" lon="06.069587"><ele>-4.1</ele><time>2021-05-12T10:23:44Z</time><name>PT956</name></trkpt>
<trkpt lat="53.103238" lon="06.069565"><ele>-4.2</ele><time>2021-05-12T10:23:45Z</time><name>PT957</name></trkpt>
<trkpt lat="53.103241" lon="06.069550"><ele>-4.1</ele><time>2021-05-12T10:23:46Z</time><name>PT958</name></trkpt>
<trkpt lat="53.103247" lon="06.069531"><ele>-4.2</ele><time>2021-05-12T10:23:47Z</time><name>PT959</name></trkpt>
<trkpt lat="53.103250" lon="06.069513"><ele>-4.2</ele><time>2021-05-12T10:23:48Z</time><name>PT960</name></trkpt>
<trkpt lat="53.103250" lon="06.069489"><ele>-4.1</ele><time>2021-05-12T10:23:49Z</time><name>PT961</name></trkpt>
<trkpt lat="53.103252" lon="06.069468"><ele>-4.1</ele><time>2021-05-12T10:23:50Z</time><name>PT962</name></trkpt>
<trkpt lat="53.103260" lon="06.069450"><ele>-4.1</ele><time>2021-05-12T10:23:51Z</time><name>PT963</name></trkpt>
<trkpt lat="53.103267" lon="06.069430"><ele>-4.1</ele><time>2021-05-12T10:23:52Z</time><name>PT964</name></trkpt>
<trkpt lat="53.103274" lon="06.069414"><ele>-3.9</ele><time>2021-05-12T10:23:53Z</time><name>PT965</name></trkpt>
<trkpt lat="53.103281" lon="06.069401"><ele>-3.8</ele><time>2021-05-12T10:23:54Z</time><name>PT966</name></trkpt>
<trkpt lat="53.103285" lon="06.069382"><ele>-3.8</ele><time>2021-05-12T10:23:55Z</time><name>PT967</name></trkpt>
<trkpt lat="53.103286" lon="06.069363"><ele>-4</ele><time>2021-05-12T10:23:56Z</time><name>PT968</name></trkpt>
<trkpt lat="53.103284" lon="06.069339"><ele>-4.1</ele><time>2021-05-12T10:23:57Z</time><name>PT969</name></trkpt>
<trkpt lat="53.103283" lon="06.069319"><ele>-4.2</ele><time>2021-05-12T10:23:58Z</time><name>PT970</name></trkpt>
<trkpt lat="53.103287" lon="06.069303"><ele>-4.2</ele><time>2021-05-12T10:23:59Z</time><name>PT971</name></trkpt>
<trkpt lat="53.103288" lon="06.069285"><ele>-4.3</ele><time>2021-05-12T10:24:00Z</time><name>PT972</name></trkpt>
<trkpt lat="53.103289" lon="06.069269"><ele>-4.2</ele><time>2021-05-12T10:24:01Z</time><name>PT973</name></trkpt>
<trkpt lat="53.103292" lon="06.069252"><ele>-4.2</ele><time>2021-05-12T10:24:02Z</time><name>PT974</name></trkpt>
<trkpt lat="53.103292" lon="06.069235"><ele>-4.1</ele><time>2021-05-12T10:24:03Z</time><name>PT975</name></trkpt>
<trkpt lat="53.103294" lon="06.069216"><ele>-4.1</ele><time>2021-05-12T10:24:04Z</time><name>PT976</name></trkpt>
<trkpt lat="53.103295" lon="06.069197"><ele>-4.1</ele><time>2021-05-12T10:24:05Z</time><name>PT977</name></trkpt>
<trkpt lat="53.103297" lon="06.069175"><ele>-4.1</ele><time>2021-05-12T10:24:06Z</time><name>PT978</name></trkpt>
<trkpt lat="53.103296" lon="06.069155"><ele>-4.3</ele><time>2021-05-12T10:24:07Z</time><name>PT979</name></trkpt>
<trkpt lat="53.103296" lon="06.069137"><ele>-4.3</ele><time>2021-05-12T10:24:08Z</time><name>PT980</name></trkpt>
<trkpt lat="53.103296" lon="06.069118"><ele>-4.1</ele><time>2021-05-12T10:24:09Z</time><name>PT981</name></trkpt>
<trkpt lat="53.103296" lon="06.069099"><ele>-4.1</ele><time>2021-05-12T10:24:10Z</time><name>PT982</name></trkpt>
<trkpt lat="53.103294" lon="06.069070"><ele>-4</ele><time>2021-05-12T10:24:11Z</time><name>PT983</name></trkpt>
<trkpt lat="53.103293" lon="06.069047"><ele>-3.9</ele><time>2021-05-12T10:24:12Z</time><name>PT984</name></trkpt>
<trkpt lat="53.103292" lon="06.069025"><ele>-4</ele><time>2021-05-12T10:24:13Z</time><name>PT985</name></trkpt>
<trkpt lat="53.103290" lon="06.069004"><ele>-4</ele><time>2021-05-12T10:24:14Z</time><name>PT986</name></trkpt>
<trkpt lat="53.103285" lon="06.068984"><ele>-4</ele><time>2021-05-12T10:24:15Z</time><name>PT987</name></trkpt>
<trkpt lat="53.103281" lon="06.068965"><ele>-4</ele><time>2021-05-12T10:24:16Z</time><name>PT988</name></trkpt>
<trkpt lat="53.103271" lon="06.068949"><ele>-3.9</ele><time>2021-05-12T10:24:17Z</time><name>PT989</name></trkpt>
<trkpt lat="53.103263" lon="06.068931"><ele>-3.7</ele><time>2021-05-12T10:24:18Z</time><name>PT990</name></trkpt>
<trkpt lat="53.103258" lon="06.068912"><ele>-3.6</ele><time>2021-05-12T10:24:19Z</time><name>PT991</name></trkpt>
<trkpt lat="53.103251" lon="06.068896"><ele>-3.6</ele><time>2021-05-12T10:24:20Z</time><name>PT992</name></trkpt>
<trkpt lat="53.103244" lon="06.068883"><ele>-3.7</ele><time>2021-05-12T10:24:21Z</time><name>PT993</name></trkpt>
<trkpt lat="53.103236" lon="06.068871"><ele>-3.6</ele><time>2021-05-12T10:24:22Z</time><name>PT994</name></trkpt>
<trkpt lat="53.103227" lon="06.068857"><ele>-3.6</ele><time>2021-05-12T10:24:23Z</time><name>PT995</name></trkpt>
<trkpt lat="53.103218" lon="06.068845"><ele>-3.6</ele><time>2021-05-12T10:24:24Z</time><name>PT996</name></trkpt>
<trkpt lat="53.103209" lon="06.068832"><ele>-3.5</ele><time>2021-05-12T10:24:25Z</time><name>PT997</name></trkpt>
<trkpt lat="53.103198" lon="06.068820"><ele>-3.3</ele><time>2021-05-12T10:24:26Z</time><name>PT998</name></trkpt>
<trkpt lat="53.103188" lon="06.068810"><ele>-3.4</ele><time>2021-05-12T10:24:27Z</time><name>PT999</name></trkpt>
<trkpt lat="53.103178" lon="06.068798"><ele>-3.4</ele><time>2021-05-12T10:24:28Z</time><name>PT1000</name></trkpt>
<trkpt lat="53.103168" lon="06.068789"><ele>-3.6</ele><time>2021-05-12T10:24:29Z</time><name>PT1001</name></trkpt>
<trkpt lat="53.103159" lon="06.068785"><ele>-3.8</ele><time>2021-05-12T10:24:30Z</time><name>PT1002</name></trkpt>
<trkpt lat="53.103148" lon="06.068783"><ele>-4</ele><time>2021-05-12T10:24:31Z</time><name>PT1003</name></trkpt>
<trkpt lat="53.103135" lon="06.068783"><ele>-4</ele><time>2021-05-12T10:24:32Z</time><name>PT1004</name></trkpt>
<trkpt lat="53.103124" lon="06.068781"><ele>-4.1</ele><time>2021-05-12T10:24:33Z</time><name>PT1005</name></trkpt>
<trkpt lat="53.103115" lon="06.068782"><ele>-4</ele><time>2021-05-12T10:24:34Z</time><name>PT1006</name></trkpt>
<trkpt lat="53.103104" lon="06.068783"><ele>-3.8</ele><time>2021-05-12T10:24:35Z</time><name>PT1007</name></trkpt>
<trkpt lat="53.103093" lon="06.068783"><ele>-3.7</ele><time>2021-05-12T10:24:36Z</time><name>PT1008</name></trkpt>
<trkpt lat="53.103083" lon="06.068784"><ele>-3.6</ele><time>2021-05-12T10:24:37Z</time><name>PT1009</name></trkpt>
<trkpt lat="53.103071" lon="06.068784"><ele>-3.5</ele><time>2021-05-12T10:24:38Z</time><name>PT1010</name></trkpt>
<trkpt lat="53.103060" lon="06.068783"><ele>-3.5</ele><time>2021-05-12T10:24:39Z</time><name>PT1011</name></trkpt>
<trkpt lat="53.103048" lon="06.068782"><ele>-3.6</ele><time>2021-05-12T10:24:40Z</time><name>PT1012</name></trkpt>
<trkpt lat="53.103036" lon="06.068780"><ele>-3.4</ele><time>2021-05-12T10:24:41Z</time><name>PT1013</name></trkpt>
<trkpt lat="53.103025" lon="06.068778"><ele>-3.5</ele><time>2021-05-12T10:24:42Z</time><name>PT1014</name></trkpt>
<trkpt lat="53.103014" lon="06.068777"><ele>-3.5</ele><time>2021-05-12T10:24:43Z</time><name>PT1015</name></trkpt>
<trkpt lat="53.103004" lon="06.068779"><ele>-3.3</ele><time>2021-05-12T10:24:44Z</time><name>PT1016</name></trkpt>
<trkpt lat="53.102996" lon="06.068781"><ele>-3.4</ele><time>2021-05-12T10:24:45Z</time><name>PT1017</name></trkpt>
<trkpt lat="53.102991" lon="06.068780"><ele>-3.5</ele><time>2021-05-12T10:24:46Z</time><name>PT1018</name></trkpt>
<trkpt lat="53.102987" lon="06.068781"><ele>-3.5</ele><time>2021-05-12T10:24:47Z</time><name>PT1019</name></trkpt>
<trkpt lat="53.102985" lon="06.068781"><ele>-3.6</ele><time>2021-05-12T10:24:48Z</time><name>PT1020</name></trkpt>
<trkpt lat="53.102981" lon="06.068782"><ele>-3.6</ele><time>2021-05-12T10:24:49Z</time><name>PT1021</name></trkpt>
<trkpt lat="53.102977" lon="06.068783"><ele>-3.4</ele><time>2021-05-12T10:24:50Z</time><name>PT1022</name></trkpt>
<trkpt lat="53.102972" lon="06.068785"><ele>-3.1</ele><time>2021-05-12T10:24:51Z</time><name>PT1023</name></trkpt>
<trkpt lat="53.102969" lon="06.068785"><ele>-3</ele><time>2021-05-12T10:24:52Z</time><name>PT1024</name></trkpt>
<trkpt lat="53.102965" lon="06.068784"><ele>-2.7</ele><time>2021-05-12T10:24:53Z</time><name>PT1025</name></trkpt>
<trkpt lat="53.102961" lon="06.068786"><ele>-3</ele><time>2021-05-12T10:24:54Z</time><name>PT1026</name></trkpt>
<trkpt lat="53.102958" lon="06.068788"><ele>-2.8</ele><time>2021-05-12T10:24:55Z</time><name>PT1027</name></trkpt>
<trkpt lat="53.102956" lon="06.068790"><ele>-3.1</ele><time>2021-05-12T10:24:56Z</time><name>PT1028</name></trkpt>
<trkpt lat="53.102952" lon="06.068788"><ele>-3.2</ele><time>2021-05-12T10:24:57Z</time><name>PT1029</name></trkpt>
<trkpt lat="53.102948" lon="06.068789"><ele>-3.4</ele><time>2021-05-12T10:24:58Z</time><name>PT1030</name></trkpt>
<trkpt lat="53.102944" lon="06.068789"><ele>-3.4</ele><time>2021-05-12T10:24:59Z</time><name>PT1031</name></trkpt>
<trkpt lat="53.102941" lon="06.068791"><ele>-3.6</ele><time>2021-05-12T10:25:00Z</time><name>PT1032</name></trkpt>
<trkpt lat="53.102936" lon="06.068794"><ele>-3.6</ele><time>2021-05-12T10:25:01Z</time><name>PT1033</name></trkpt>
<trkpt lat="53.102929" lon="06.068796"><ele>-3.6</ele><time>2021-05-12T10:25:02Z</time><name>PT1034</name></trkpt>
<trkpt lat="53.102920" lon="06.068799"><ele>-3.3</ele><time>2021-05-12T10:25:03Z</time><name>PT1035</name></trkpt>
<trkpt lat="53.102914" lon="06.068806"><ele>-3.4</ele><time>2021-05-12T10:25:04Z</time><name>PT1036</name></trkpt>
<trkpt lat="53.102906" lon="06.068810"><ele>-3.4</ele><time>2021-05-12T10:25:05Z</time><name>PT1037</name></trkpt>
<trkpt lat="53.102899" lon="06.068814"><ele>-3.4</ele><time>2021-05-12T10:25:06Z</time><name>PT1038</name></trkpt>
<trkpt lat="53.102890" lon="06.068816"><ele>-3.4</ele><time>2021-05-12T10:25:07Z</time><name>PT1039</name></trkpt>
<trkpt lat="53.102883" lon="06.068820"><ele>-3.6</ele><time>2021-05-12T10:25:08Z</time><name>PT1040</name></trkpt>
<trkpt lat="53.102875" lon="06.068820"><ele>-3.5</ele><time>2021-05-12T10:25:09Z</time><name>PT1041</name></trkpt>
<trkpt lat="53.102869" lon="06.068818"><ele>-3.5</ele><time>2021-05-12T10:25:10Z</time><name>PT1042</name></trkpt>
<trkpt lat="53.102866" lon="06.068809"><ele>-3.6</ele><time>2021-05-12T10:25:11Z</time><name>PT1043</name></trkpt>
<trkpt lat="53.102866" lon="06.068806"><ele>-3.6</ele><time>2021-05-12T10:25:12Z</time><name>PT1044</name></trkpt>
<trkpt lat="53.102866" lon="06.068807"><ele>-3.6</ele><time>2021-05-12T10:25:13Z</time><name>PT1045</name></trkpt>
<trkpt lat="53.102864" lon="06.068806"><ele>-3.6</ele><time>2021-05-12T10:25:14Z</time><name>PT1046</name></trkpt>
<trkpt lat="53.102863" lon="06.068806"><ele>-3.3</ele><time>2021-05-12T10:25:15Z</time><name>PT1047</name></trkpt>
<trkpt lat="53.102863" lon="06.068803"><ele>-3</ele><time>2021-05-12T10:25:29Z</time><name>PT1048</name></trkpt>
<trkpt lat="53.102860" lon="06.068794"><ele>-3</ele><time>2021-05-12T10:25:30Z</time><name>PT1049</name></trkpt>
<trkpt lat="53.102858" lon="06.068787"><ele>-3.1</ele><time>2021-05-12T10:25:31Z</time><name>PT1050</name></trkpt>
<trkpt lat="53.102857" lon="06.068784"><ele>-3.1</ele><time>2021-05-12T10:25:32Z</time><name>PT1051</name></trkpt>
<trkpt lat="53.102854" lon="06.068783"><ele>-3.2</ele><time>2021-05-12T10:25:33Z</time><name>PT1052</name></trkpt>
<trkpt lat="53.102853" lon="06.068782"><ele>-3.3</ele><time>2021-05-12T10:25:34Z</time><name>PT1053</name></trkpt>
<trkpt lat="53.102851" lon="06.068774"><ele>-3.2</ele><time>2021-05-12T10:25:44Z</time><name>PT1054</name></trkpt>
<trkpt lat="53.102852" lon="06.068755"><ele>-3.4</ele><time>2021-05-12T10:25:45Z</time><name>PT1055</name></trkpt>
<trkpt lat="53.102852" lon="06.068741"><ele>-3.6</ele><time>2021-05-12T10:25:46Z</time><name>PT1056</name></trkpt>
<trkpt lat="53.102851" lon="06.068727"><ele>-3.8</ele><time>2021-05-12T10:25:47Z</time><name>PT1057</name></trkpt>
<trkpt lat="53.102853" lon="06.068708"><ele>-3.9</ele><time>2021-05-12T10:25:48Z</time><name>PT1058</name></trkpt>
<trkpt lat="53.102853" lon="06.068687"><ele>-4.1</ele><time>2021-05-12T10:25:49Z</time><name>PT1059</name></trkpt>
<trkpt lat="53.102854" lon="06.068668"><ele>-4</ele><time>2021-05-12T10:25:50Z</time><name>PT1060</name></trkpt>
<trkpt lat="53.102852" lon="06.068649"><ele>-3.8</ele><time>2021-05-12T10:25:51Z</time><name>PT1061</name></trkpt>
<trkpt lat="53.102852" lon="06.068634"><ele>-3.6</ele><time>2021-05-12T10:25:52Z</time><name>PT1062</name></trkpt>
<trkpt lat="53.102854" lon="06.068618"><ele>-3.6</ele><time>2021-05-12T10:25:53Z</time><name>PT1063</name></trkpt>
<trkpt lat="53.102854" lon="06.068602"><ele>-3.5</ele><time>2021-05-12T10:25:55Z</time><name>PT1064</name></trkpt>
<trkpt lat="53.102856" lon="06.068586"><ele>-3.5</ele><time>2021-05-12T10:25:55Z</time><name>PT1065</name></trkpt>
<trkpt lat="53.102854" lon="06.068568"><ele>-3.4</ele><time>2021-05-12T10:25:56Z</time><name>PT1066</name></trkpt>
<trkpt lat="53.102850" lon="06.068553"><ele>-3.5</ele><time>2021-05-12T10:25:58Z</time><name>PT1067</name></trkpt>
<trkpt lat="53.102842" lon="06.068542"><ele>-3.4</ele><time>2021-05-12T10:25:58Z</time><name>PT1068</name></trkpt>
<trkpt lat="53.102835" lon="06.068534"><ele>-3.6</ele><time>2021-05-12T10:25:59Z</time><name>PT1069</name></trkpt>
<trkpt lat="53.102827" lon="06.068528"><ele>-3.6</ele><time>2021-05-12T10:26:00Z</time><name>PT1070</name></trkpt>
<trkpt lat="53.102819" lon="06.068517"><ele>-3.6</ele><time>2021-05-12T10:26:01Z</time><name>PT1071</name></trkpt>
<trkpt lat="53.102810" lon="06.068505"><ele>-3.6</ele><time>2021-05-12T10:26:02Z</time><name>PT1072</name></trkpt>
<trkpt lat="53.102802" lon="06.068495"><ele>-3.6</ele><time>2021-05-12T10:26:03Z</time><name>PT1073</name></trkpt>
<trkpt lat="53.102795" lon="06.068484"><ele>-3.5</ele><time>2021-05-12T10:26:04Z</time><name>PT1074</name></trkpt>
<trkpt lat="53.102792" lon="06.068477"><ele>-3.5</ele><time>2021-05-12T10:26:05Z</time><name>PT1075</name></trkpt>
<trkpt lat="53.102790" lon="06.068477"><ele>-3.5</ele><time>2021-05-12T10:26:06Z</time><name>PT1076</name></trkpt>
<trkpt lat="53.102785" lon="06.068467"><ele>-3.5</ele><time>2021-05-12T10:26:07Z</time><name>PT1077</name></trkpt>
<trkpt lat="53.102778" lon="06.068452"><ele>-3.6</ele><time>2021-05-12T10:26:08Z</time><name>PT1078</name></trkpt>
<trkpt lat="53.102771" lon="06.068437"><ele>-3.7</ele><time>2021-05-12T10:26:10Z</time><name>PT1079</name></trkpt>
<trkpt lat="53.102762" lon="06.068425"><ele>-3.6</ele><time>2021-05-12T10:26:10Z</time><name>PT1080</name></trkpt>
<trkpt lat="53.102753" lon="06.068414"><ele>-3.6</ele><time>2021-05-12T10:26:11Z</time><name>PT1081</name></trkpt>
<trkpt lat="53.102744" lon="06.068403"><ele>-3.6</ele><time>2021-05-12T10:26:13Z</time><name>PT1082</name></trkpt>
<trkpt lat="53.102738" lon="06.068393"><ele>-3.4</ele><time>2021-05-12T10:26:13Z</time><name>PT1083</name></trkpt>
<trkpt lat="53.102735" lon="06.068380"><ele>-3.2</ele><time>2021-05-12T10:26:14Z</time><name>PT1084</name></trkpt>
<trkpt lat="53.102735" lon="06.068364"><ele>-3.1</ele><time>2021-05-12T10:26:16Z</time><name>PT1085</name></trkpt>
<trkpt lat="53.102742" lon="06.068348"><ele>-3.3</ele><time>2021-05-12T10:26:16Z</time><name>PT1086</name></trkpt>
<trkpt lat="53.102749" lon="06.068333"><ele>-3.4</ele><time>2021-05-12T10:26:17Z</time><name>PT1087</name></trkpt>
<trkpt lat="53.102757" lon="06.068318"><ele>-3.6</ele><time>2021-05-12T10:26:18Z</time><name>PT1088</name></trkpt>
<trkpt lat="53.102766" lon="06.068305"><ele>-3.9</ele><time>2021-05-12T10:26:19Z</time><name>PT1089</name></trkpt>
<trkpt lat="53.102777" lon="06.068291"><ele>-3.8</ele><time>2021-05-12T10:26:20Z</time><name>PT1090</name></trkpt>
<trkpt lat="53.102788" lon="06.068278"><ele>-3.7</ele><time>2021-05-12T10:26:21Z</time><name>PT1091</name></trkpt>
<trkpt lat="53.102798" lon="06.068265"><ele>-3.6</ele><time>2021-05-12T10:26:22Z</time><name>PT1092</name></trkpt>
<trkpt lat="53.102807" lon="06.068251"><ele>-3.6</ele><time>2021-05-12T10:26:23Z</time><name>PT1093</name></trkpt>
<trkpt lat="53.102817" lon="06.068236"><ele>-3.4</ele><time>2021-05-12T10:26:24Z</time><name>PT1094</name></trkpt>
<trkpt lat="53.102825" lon="06.068219"><ele>-3.5</ele><time>2021-05-12T10:26:25Z</time><name>PT1095</name></trkpt>
<trkpt lat="53.102833" lon="06.068202"><ele>-3.4</ele><time>2021-05-12T10:26:26Z</time><name>PT1096</name></trkpt>
<trkpt lat="53.102840" lon="06.068188"><ele>-3.5</ele><time>2021-05-12T10:26:27Z</time><name>PT1097</name></trkpt>
<trkpt lat="53.102847" lon="06.068175"><ele>-3.4</ele><time>2021-05-12T10:26:28Z</time><name>PT1098</name></trkpt>
<trkpt lat="53.102853" lon="06.068162"><ele>-3.5</ele><time>2021-05-12T10:26:29Z</time><name>PT1099</name></trkpt>
<trkpt lat="53.102861" lon="06.068149"><ele>-3.5</ele><time>2021-05-12T10:26:31Z</time><name>PT1100</name></trkpt>
<trkpt lat="53.102870" lon="06.068139"><ele>-3.6</ele><time>2021-05-12T10:26:31Z</time><name>PT1101</name></trkpt>
<trkpt lat="53.102879" lon="06.068128"><ele>-3.6</ele><time>2021-05-12T10:26:32Z</time><name>PT1102</name></trkpt>
<trkpt lat="53.102887" lon="06.068116"><ele>-3.4</ele><time>2021-05-12T10:26:33Z</time><name>PT1103</name></trkpt>
<trkpt lat="53.102895" lon="06.068103"><ele>-3.4</ele><time>2021-05-12T10:26:34Z</time><name>PT1104</name></trkpt>
<trkpt lat="53.102902" lon="06.068088"><ele>-3.3</ele><time>2021-05-12T10:26:35Z</time><name>PT1105</name></trkpt>
<trkpt lat="53.102911" lon="06.068074"><ele>-3.3</ele><time>2021-05-12T10:26:37Z</time><name>PT1106</name></trkpt>
<trkpt lat="53.102919" lon="06.068059"><ele>-3.4</ele><time>2021-05-12T10:26:37Z</time><name>PT1107</name></trkpt>
<trkpt lat="53.102926" lon="06.068044"><ele>-3.7</ele><time>2021-05-12T10:26:38Z</time><name>PT1108</name></trkpt>
<trkpt lat="53.102936" lon="06.068029"><ele>-3.7</ele><time>2021-05-12T10:26:39Z</time><name>PT1109</name></trkpt>
<trkpt lat="53.102946" lon="06.068015"><ele>-3.9</ele><time>2021-05-12T10:26:40Z</time><name>PT1110</name></trkpt>
<trkpt lat="53.102956" lon="06.068000"><ele>-4</ele><time>2021-05-12T10:26:41Z</time><name>PT1111</name></trkpt>
<trkpt lat="53.102965" lon="06.067985"><ele>-3.9</ele><time>2021-05-12T10:26:42Z</time><name>PT1112</name></trkpt>
<trkpt lat="53.102972" lon="06.067969"><ele>-3.8</ele><time>2021-05-12T10:26:43Z</time><name>PT1113</name></trkpt>
<trkpt lat="53.102979" lon="06.067954"><ele>-3.7</ele><time>2021-05-12T10:26:44Z</time><name>PT1114</name></trkpt>
<trkpt lat="53.102983" lon="06.067942"><ele>-3.6</ele><time>2021-05-12T10:26:45Z</time><name>PT1115</name></trkpt>
<trkpt lat="53.102990" lon="06.067930"><ele>-3.8</ele><time>2021-05-12T10:26:46Z</time><name>PT1116</name></trkpt>
<trkpt lat="53.102998" lon="06.067921"><ele>-3.6</ele><time>2021-05-12T10:26:47Z</time><name>PT1117</name></trkpt>
<trkpt lat="53.103006" lon="06.067911"><ele>-3.5</ele><time>2021-05-12T10:26:48Z</time><name>PT1118</name></trkpt>
<trkpt lat="53.103012" lon="06.067899"><ele>-3.6</ele><time>2021-05-12T10:26:49Z</time><name>PT1119</name></trkpt>
<trkpt lat="53.103017" lon="06.067892"><ele>-3.6</ele><time>2021-05-12T10:26:50Z</time><name>PT1120</name></trkpt>
<trkpt lat="53.103022" lon="06.067887"><ele>-3.5</ele><time>2021-05-12T10:26:51Z</time><name>PT1121</name></trkpt>
<trkpt lat="53.103025" lon="06.067879"><ele>-3.6</ele><time>2021-05-12T10:26:52Z</time><name>PT1122</name></trkpt>
<trkpt lat="53.103029" lon="06.067869"><ele>-3.6</ele><time>2021-05-12T10:26:53Z</time><name>PT1123</name></trkpt>
<trkpt lat="53.103034" lon="06.067863"><ele>-3.5</ele><time>2021-05-12T10:26:54Z</time><name>PT1124</name></trkpt>
<trkpt lat="53.103037" lon="06.067858"><ele>-3.6</ele><time>2021-05-12T10:26:55Z</time><name>PT1125</name></trkpt>
<trkpt lat="53.103042" lon="06.067853"><ele>-3.6</ele><time>2021-05-12T10:26:56Z</time><name>PT1126</name></trkpt>
<trkpt lat="53.103048" lon="06.067852"><ele>-3.6</ele><time>2021-05-12T10:26:57Z</time><name>PT1127</name></trkpt>
<trkpt lat="53.103057" lon="06.067845"><ele>-3.6</ele><time>2021-05-12T10:26:58Z</time><name>PT1128</name></trkpt>
<trkpt lat="53.103066" lon="06.067840"><ele>-3.6</ele><time>2021-05-12T10:26:59Z</time><name>PT1129</name></trkpt>
<trkpt lat="53.103075" lon="06.067836"><ele>-3.8</ele><time>2021-05-12T10:27:00Z</time><name>PT1130</name></trkpt>
<trkpt lat="53.103087" lon="06.067831"><ele>-3.6</ele><time>2021-05-12T10:27:01Z</time><name>PT1131</name></trkpt>
<trkpt lat="53.103097" lon="06.067825"><ele>-3.6</ele><time>2021-05-12T10:27:02Z</time><name>PT1132</name></trkpt>
<trkpt lat="53.103109" lon="06.067819"><ele>-3.6</ele><time>2021-05-12T10:27:03Z</time><name>PT1133</name></trkpt>
<trkpt lat="53.103121" lon="06.067813"><ele>-3.6</ele><time>2021-05-12T10:27:04Z</time><name>PT1134</name></trkpt>
<trkpt lat="53.103133" lon="06.067803"><ele>-3.6</ele><time>2021-05-12T10:27:05Z</time><name>PT1135</name></trkpt>
<trkpt lat="53.103144" lon="06.067791"><ele>-3.4</ele><time>2021-05-12T10:27:06Z</time><name>PT1136</name></trkpt>
<trkpt lat="53.103154" lon="06.067777"><ele>-3.3</ele><time>2021-05-12T10:27:07Z</time><name>PT1137</name></trkpt>
<trkpt lat="53.103163" lon="06.067764"><ele>-3.1</ele><time>2021-05-12T10:27:08Z</time><name>PT1138</name></trkpt>
<trkpt lat="53.103172" lon="06.067750"><ele>-3.1</ele><time>2021-05-12T10:27:09Z</time><name>PT1139</name></trkpt>
<trkpt lat="53.103178" lon="06.067738"><ele>-3.1</ele><time>2021-05-12T10:27:10Z</time><name>PT1140</name></trkpt>
<trkpt lat="53.103186" lon="06.067726"><ele>-3.3</ele><time>2021-05-12T10:27:11Z</time><name>PT1141</name></trkpt>
<trkpt lat="53.103195" lon="06.067714"><ele>-3.3</ele><time>2021-05-12T10:27:12Z</time><name>PT1142</name></trkpt>
<trkpt lat="53.103205" lon="06.067702"><ele>-3.5</ele><time>2021-05-12T10:27:13Z</time><name>PT1143</name></trkpt>
<trkpt lat="53.103215" lon="06.067689"><ele>-3.3</ele><time>2021-05-12T10:27:14Z</time><name>PT1144</name></trkpt>
<trkpt lat="53.103224" lon="06.067675"><ele>-3.3</ele><time>2021-05-12T10:27:15Z</time><name>PT1145</name></trkpt>
<trkpt lat="53.103232" lon="06.067660"><ele>-3.3</ele><time>2021-05-12T10:27:16Z</time><name>PT1146</name></trkpt>
<trkpt lat="53.103239" lon="06.067645"><ele>-3.6</ele><time>2021-05-12T10:27:17Z</time><name>PT1147</name></trkpt>
<trkpt lat="53.103246" lon="06.067632"><ele>-3.6</ele><time>2021-05-12T10:27:19Z</time><name>PT1148</name></trkpt>
<trkpt lat="53.103252" lon="06.067620"><ele>-3.6</ele><time>2021-05-12T10:27:19Z</time><name>PT1149</name></trkpt>
<trkpt lat="53.103259" lon="06.067609"><ele>-3.7</ele><time>2021-05-12T10:27:20Z</time><name>PT1150</name></trkpt>
<trkpt lat="53.103265" lon="06.067598"><ele>-3.6</ele><time>2021-05-12T10:27:21Z</time><name>PT1151</name></trkpt>
<trkpt lat="53.103271" lon="06.067587"><ele>-3.5</ele><time>2021-05-12T10:27:22Z</time><name>PT1152</name></trkpt>
<trkpt lat="53.103276" lon="06.067579"><ele>-3.6</ele><time>2021-05-12T10:27:23Z</time><name>PT1153</name></trkpt>
<trkpt lat="53.103280" lon="06.067574"><ele>-3.7</ele><time>2021-05-12T10:27:24Z</time><name>PT1154</name></trkpt>
<trkpt lat="53.103284" lon="06.067563"><ele>-3.8</ele><time>2021-05-12T10:27:25Z</time><name>PT1155</name></trkpt>
<trkpt lat="53.103286" lon="06.067555"><ele>-3.8</ele><time>2021-05-12T10:27:26Z</time><name>PT1156</name></trkpt>
<trkpt lat="53.103285" lon="06.067550"><ele>-3.7</ele><time>2021-05-12T10:27:27Z</time><name>PT1157</name></trkpt>
<trkpt lat="53.103285" lon="06.067558"><ele>-3.6</ele><time>2021-05-12T10:27:28Z</time><name>PT1158</name></trkpt>
<trkpt lat="53.103281" lon="06.067560"><ele>-3.5</ele><time>2021-05-12T10:27:29Z</time><name>PT1159</name></trkpt>
<trkpt lat="53.103276" lon="06.067564"><ele>-3.3</ele><time>2021-05-12T10:27:30Z</time><name>PT1160</name></trkpt>
<trkpt lat="53.103272" lon="06.067566"><ele>-3.2</ele><time>2021-05-12T10:27:31Z</time><name>PT1161</name></trkpt>
<trkpt lat="53.103271" lon="06.067565"><ele>-3.1</ele><time>2021-05-12T10:27:32Z</time><name>PT1162</name></trkpt>
<trkpt lat="53.103276" lon="06.067568"><ele>-3.1</ele><time>2021-05-12T10:27:33Z</time><name>PT1163</name></trkpt>
<trkpt lat="53.103279" lon="06.067567"><ele>-3</ele><time>2021-05-12T10:27:34Z</time><name>PT1164</name></trkpt>
<trkpt lat="53.103277" lon="06.067566"><ele>-3.1</ele><time>2021-05-12T10:27:35Z</time><name>PT1165</name></trkpt>
<trkpt lat="53.103273" lon="06.067564"><ele>-3.1</ele><time>2021-05-12T10:27:36Z</time><name>PT1166</name></trkpt>
<trkpt lat="53.103272" lon="06.067558"><ele>-3.1</ele><time>2021-05-12T10:27:37Z</time><name>PT1167</name></trkpt>
<trkpt lat="53.103277" lon="06.067551"><ele>-3.1</ele><time>2021-05-12T10:27:38Z</time><name>PT1168</name></trkpt>
<trkpt lat="53.103279" lon="06.067546"><ele>-3.2</ele><time>2021-05-12T10:27:39Z</time><name>PT1169</name></trkpt>
<trkpt lat="53.103276" lon="06.067543"><ele>-3.4</ele><time>2021-05-12T10:27:40Z</time><name>PT1170</name></trkpt>
<trkpt lat="53.103276" lon="06.067542"><ele>-3.3</ele><time>2021-05-12T10:27:41Z</time><name>PT1171</name></trkpt>
<trkpt lat="53.103273" lon="06.067539"><ele>-3.6</ele><time>2021-05-12T10:27:42Z</time><name>PT1172</name></trkpt>
<trkpt lat="53.103270" lon="06.067530"><ele>-3.6</ele><time>2021-05-12T10:27:43Z</time><name>PT1173</name></trkpt>
<trkpt lat="53.103266" lon="06.067513"><ele>-3.8</ele><time>2021-05-12T10:27:44Z</time><name>PT1174</name></trkpt>
<trkpt lat="53.103260" lon="06.067495"><ele>-3.9</ele><time>2021-05-12T10:27:45Z</time><name>PT1175</name></trkpt>
<trkpt lat="53.103255" lon="06.067477"><ele>-3.9</ele><time>2021-05-12T10:27:46Z</time><name>PT1176</name></trkpt>
<trkpt lat="53.103251" lon="06.067459"><ele>-3.9</ele><time>2021-05-12T10:27:47Z</time><name>PT1177</name></trkpt>
<trkpt lat="53.103247" lon="06.067440"><ele>-3.8</ele><time>2021-05-12T10:27:48Z</time><name>PT1178</name></trkpt>
<trkpt lat="53.103240" lon="06.067420"><ele>-3.8</ele><time>2021-05-12T10:27:49Z</time><name>PT1179</name></trkpt>
<trkpt lat="53.103234" lon="06.067401"><ele>-3.6</ele><time>2021-05-12T10:27:50Z</time><name>PT1180</name></trkpt>
<trkpt lat="53.103232" lon="06.067386"><ele>-3.6</ele><time>2021-05-12T10:27:51Z</time><name>PT1181</name></trkpt>
<trkpt lat="53.103230" lon="06.067371"><ele>-3.5</ele><time>2021-05-12T10:27:52Z</time><name>PT1182</name></trkpt>
<trkpt lat="53.103230" lon="06.067354"><ele>-3.6</ele><time>2021-05-12T10:27:53Z</time><name>PT1183</name></trkpt>
<trkpt lat="53.103230" lon="06.067337"><ele>-3.5</ele><time>2021-05-12T10:27:54Z</time><name>PT1184</name></trkpt>
<trkpt lat="53.103231" lon="06.067320"><ele>-3.5</ele><time>2021-05-12T10:27:55Z</time><name>PT1185</name></trkpt>
<trkpt lat="53.103230" lon="06.067302"><ele>-3.6</ele><time>2021-05-12T10:27:56Z</time><name>PT1186</name></trkpt>
<trkpt lat="53.103228" lon="06.067283"><ele>-3.7</ele><time>2021-05-12T10:27:57Z</time><name>PT1187</name></trkpt>
<trkpt lat="53.103225" lon="06.067264"><ele>-3.6</ele><time>2021-05-12T10:27:58Z</time><name>PT1188</name></trkpt>
<trkpt lat="53.103223" lon="06.067247"><ele>-3.6</ele><time>2021-05-12T10:27:59Z</time><name>PT1189</name></trkpt>
<trkpt lat="53.103220" lon="06.067231"><ele>-3.7</ele><time>2021-05-12T10:28:00Z</time><name>PT1190</name></trkpt>
<trkpt lat="53.103218" lon="06.067214"><ele>-3.8</ele><time>2021-05-12T10:28:01Z</time><name>PT1191</name></trkpt>
<trkpt lat="53.103218" lon="06.067196"><ele>-3.8</ele><time>2021-05-12T10:28:02Z</time><name>PT1192</name></trkpt>
<trkpt lat="53.103217" lon="06.067178"><ele>-3.9</ele><time>2021-05-12T10:28:03Z</time><name>PT1193</name></trkpt>
<trkpt lat="53.103216" lon="06.067159"><ele>-4</ele><time>2021-05-12T10:28:04Z</time><name>PT1194</name></trkpt>
<trkpt lat="53.103215" lon="06.067140"><ele>-3.9</ele><time>2021-05-12T10:28:05Z</time><name>PT1195</name></trkpt>
<trkpt lat="53.103214" lon="06.067120"><ele>-3.9</ele><time>2021-05-12T10:28:06Z</time><name>PT1196</name></trkpt>
<trkpt lat="53.103213" lon="06.067100"><ele>-4</ele><time>2021-05-12T10:28:07Z</time><name>PT1197</name></trkpt>
<trkpt lat="53.103213" lon="06.067079"><ele>-4.1</ele><time>2021-05-12T10:28:08Z</time><name>PT1198</name></trkpt>
<trkpt lat="53.103210" lon="06.067059"><ele>-4</ele><time>2021-05-12T10:28:09Z</time><name>PT1199</name></trkpt>
<trkpt lat="53.103208" lon="06.067039"><ele>-3.9</ele><time>2021-05-12T10:28:10Z</time><name>PT1200</name></trkpt>
<trkpt lat="53.103205" lon="06.067021"><ele>-3.8</ele><time>2021-05-12T10:28:11Z</time><name>PT1201</name></trkpt>
<trkpt lat="53.103203" lon="06.067005"><ele>-3.7</ele><time>2021-05-12T10:28:12Z</time><name>PT1202</name></trkpt>
<trkpt lat="53.103201" lon="06.066989"><ele>-3.8</ele><time>2021-05-12T10:28:13Z</time><name>PT1203</name></trkpt>
<trkpt lat="53.103198" lon="06.066974"><ele>-3.9</ele><time>2021-05-12T10:28:14Z</time><name>PT1204</name></trkpt>
<trkpt lat="53.103196" lon="06.066958"><ele>-4</ele><time>2021-05-12T10:28:15Z</time><name>PT1205</name></trkpt>
<trkpt lat="53.103198" lon="06.066938"><ele>-3.9</ele><time>2021-05-12T10:28:16Z</time><name>PT1206</name></trkpt>
<trkpt lat="53.103199" lon="06.066916"><ele>-3.9</ele><time>2021-05-12T10:28:17Z</time><name>PT1207</name></trkpt>
<trkpt lat="53.103198" lon="06.066887"><ele>-4</ele><time>2021-05-12T10:28:18Z</time><name>PT1208</name></trkpt>
<trkpt lat="53.103199" lon="06.066858"><ele>-4.1</ele><time>2021-05-12T10:28:19Z</time><name>PT1209</name></trkpt>
<trkpt lat="53.103198" lon="06.066829"><ele>-4.1</ele><time>2021-05-12T10:28:20Z</time><name>PT1210</name></trkpt>
<trkpt lat="53.103198" lon="06.066805"><ele>-4.2</ele><time>2021-05-12T10:28:21Z</time><name>PT1211</name></trkpt>
<trkpt lat="53.103197" lon="06.066786"><ele>-4.2</ele><time>2021-05-12T10:28:22Z</time><name>PT1212</name></trkpt>
<trkpt lat="53.103195" lon="06.066770"><ele>-4.3</ele><time>2021-05-12T10:28:23Z</time><name>PT1213</name></trkpt>
<trkpt lat="53.103195" lon="06.066756"><ele>-4.3</ele><time>2021-05-12T10:28:24Z</time><name>PT1214</name></trkpt>
<trkpt lat="53.103194" lon="06.066742"><ele>-4.2</ele><time>2021-05-12T10:28:25Z</time><name>PT1215</name></trkpt>
<trkpt lat="53.103192" lon="06.066728"><ele>-4.2</ele><time>2021-05-12T10:28:26Z</time><name>PT1216</name></trkpt>
<trkpt lat="53.103192" lon="06.066711"><ele>-4.1</ele><time>2021-05-12T10:28:27Z</time><name>PT1217</name></trkpt>
<trkpt lat="53.103190" lon="06.066686"><ele>-4</ele><time>2021-05-12T10:28:28Z</time><name>PT1218</name></trkpt>
<trkpt lat="53.103191" lon="06.066659"><ele>-3.9</ele><time>2021-05-12T10:28:29Z</time><name>PT1219</name></trkpt>
<trkpt lat="53.103193" lon="06.066629"><ele>-3.9</ele><time>2021-05-12T10:28:30Z</time><name>PT1220</name></trkpt>
<trkpt lat="53.103194" lon="06.066600"><ele>-4.1</ele><time>2021-05-12T10:28:31Z</time><name>PT1221</name></trkpt>
<trkpt lat="53.103195" lon="06.066573"><ele>-4.1</ele><time>2021-05-12T10:28:32Z</time><name>PT1222</name></trkpt>
<trkpt lat="53.103197" lon="06.066549"><ele>-4.2</ele><time>2021-05-12T10:28:33Z</time><name>PT1223</name></trkpt>
<trkpt lat="53.103194" lon="06.066529"><ele>-4.2</ele><time>2021-05-12T10:28:34Z</time><name>PT1224</name></trkpt>
<trkpt lat="53.103191" lon="06.066512"><ele>-4.3</ele><time>2021-05-12T10:28:35Z</time><name>PT1225</name></trkpt>
<trkpt lat="53.103188" lon="06.066500"><ele>-4.4</ele><time>2021-05-12T10:28:36Z</time><name>PT1226</name></trkpt>
<trkpt lat="53.103185" lon="06.066488"><ele>-4.3</ele><time>2021-05-12T10:28:37Z</time><name>PT1227</name></trkpt>
<trkpt lat="53.103183" lon="06.066476"><ele>-4.1</ele><time>2021-05-12T10:28:38Z</time><name>PT1228</name></trkpt>
<trkpt lat="53.103183" lon="06.066465"><ele>-4.1</ele><time>2021-05-12T10:28:39Z</time><name>PT1229</name></trkpt>
<trkpt lat="53.103183" lon="06.066449"><ele>-4.1</ele><time>2021-05-12T10:28:40Z</time><name>PT1230</name></trkpt>
<trkpt lat="53.103187" lon="06.066431"><ele>-4</ele><time>2021-05-12T10:28:41Z</time><name>PT1231</name></trkpt>
<trkpt lat="53.103186" lon="06.066407"><ele>-4.1</ele><time>2021-05-12T10:28:43Z</time><name>PT1232</name></trkpt>
<trkpt lat="53.103187" lon="06.066376"><ele>-4.1</ele><time>2021-05-12T10:28:43Z</time><name>PT1233</name></trkpt>
<trkpt lat="53.103188" lon="06.066350"><ele>-4.1</ele><time>2021-05-12T10:28:44Z</time><name>PT1234</name></trkpt>
<trkpt lat="53.103188" lon="06.066326"><ele>-4</ele><time>2021-05-12T10:28:46Z</time><name>PT1235</name></trkpt>
<trkpt lat="53.103186" lon="06.066303"><ele>-4</ele><time>2021-05-12T10:28:46Z</time><name>PT1236</name></trkpt>
<trkpt lat="53.103185" lon="06.066285"><ele>-3.9</ele><time>2021-05-12T10:28:47Z</time><name>PT1237</name></trkpt>
<trkpt lat="53.103182" lon="06.066269"><ele>-4</ele><time>2021-05-12T10:28:48Z</time><name>PT1238</name></trkpt>
<trkpt lat="53.103182" lon="06.066254"><ele>-4.1</ele><time>2021-05-12T10:28:49Z</time><name>PT1239</name></trkpt>
<trkpt lat="53.103181" lon="06.066238"><ele>-4.1</ele><time>2021-05-12T10:28:50Z</time><name>PT1240</name></trkpt>
<trkpt lat="53.103180" lon="06.066221"><ele>-4.1</ele><time>2021-05-12T10:28:51Z</time><name>PT1241</name></trkpt>
<trkpt lat="53.103180" lon="06.066201"><ele>-4.1</ele><time>2021-05-12T10:28:52Z</time><name>PT1242</name></trkpt>
<trkpt lat="53.103180" lon="06.066178"><ele>-4.1</ele><time>2021-05-12T10:28:53Z</time><name>PT1243</name></trkpt>
<trkpt lat="53.103179" lon="06.066156"><ele>-4.1</ele><time>2021-05-12T10:28:54Z</time><name>PT1244</name></trkpt>
<trkpt lat="53.103182" lon="06.066130"><ele>-4.1</ele><time>2021-05-12T10:28:55Z</time><name>PT1245</name></trkpt>
<trkpt lat="53.103184" lon="06.066102"><ele>-4.2</ele><time>2021-05-12T10:28:56Z</time><name>PT1246</name></trkpt>
<trkpt lat="53.103184" lon="06.066076"><ele>-4.4</ele><time>2021-05-12T10:28:57Z</time><name>PT1247</name></trkpt>
<trkpt lat="53.103183" lon="06.066053"><ele>-4.4</ele><time>2021-05-12T10:28:58Z</time><name>PT1248</name></trkpt>
<trkpt lat="53.103183" lon="06.066034"><ele>-4.4</ele><time>2021-05-12T10:28:59Z</time><name>PT1249</name></trkpt>
<trkpt lat="53.103183" lon="06.066017"><ele>-4.1</ele><time>2021-05-12T10:29:01Z</time><name>PT1250</name></trkpt>
<trkpt lat="53.103183" lon="06.066002"><ele>-4.1</ele><time>2021-05-12T10:29:01Z</time><name>PT1251</name></trkpt>
<trkpt lat="53.103181" lon="06.065988"><ele>-3.9</ele><time>2021-05-12T10:29:02Z</time><name>PT1252</name></trkpt>
<trkpt lat="53.103177" lon="06.065972"><ele>-3.6</ele><time>2021-05-12T10:29:04Z</time><name>PT1253</name></trkpt>
<trkpt lat="53.103175" lon="06.065958"><ele>-3.6</ele><time>2021-05-12T10:29:04Z</time><name>PT1254</name></trkpt>
<trkpt lat="53.103174" lon="06.065943"><ele>-3.6</ele><time>2021-05-12T10:29:05Z</time><name>PT1255</name></trkpt>
<trkpt lat="53.103175" lon="06.065928"><ele>-3.6</ele><time>2021-05-12T10:29:06Z</time><name>PT1256</name></trkpt>
<trkpt lat="53.103175" lon="06.065909"><ele>-3.7</ele><time>2021-05-12T10:29:07Z</time><name>PT1257</name></trkpt>
<trkpt lat="53.103176" lon="06.065890"><ele>-3.7</ele><time>2021-05-12T10:29:08Z</time><name>PT1258</name></trkpt>
<trkpt lat="53.103177" lon="06.065872"><ele>-3.8</ele><time>2021-05-12T10:29:09Z</time><name>PT1259</name></trkpt>
<trkpt lat="53.103179" lon="06.065851"><ele>-3.7</ele><time>2021-05-12T10:29:10Z</time><name>PT1260</name></trkpt>
<trkpt lat="53.103178" lon="06.065830"><ele>-3.8</ele><time>2021-05-12T10:29:11Z</time><name>PT1261</name></trkpt>
<trkpt lat="53.103179" lon="06.065807"><ele>-3.6</ele><time>2021-05-12T10:29:12Z</time><name>PT1262</name></trkpt>
<trkpt lat="53.103180" lon="06.065785"><ele>-3.7</ele><time>2021-05-12T10:29:13Z</time><name>PT1263</name></trkpt>
<trkpt lat="53.103181" lon="06.065760"><ele>-3.6</ele><time>2021-05-12T10:29:14Z</time><name>PT1264</name></trkpt>
<trkpt lat="53.103174" lon="06.065742"><ele>-3.6</ele><time>2021-05-12T10:29:16Z</time><name>PT1265</name></trkpt>
<trkpt lat="53.103174" lon="06.065717"><ele>-3.5</ele><time>2021-05-12T10:29:16Z</time><name>PT1266</name></trkpt>
<trkpt lat="53.103174" lon="06.065689"><ele>-3.6</ele><time>2021-05-12T10:29:17Z</time><name>PT1267</name></trkpt>
<trkpt lat="53.103173" lon="06.065663"><ele>-3.6</ele><time>2021-05-12T10:29:19Z</time><name>PT1268</name></trkpt>
<trkpt lat="53.103173" lon="06.065636"><ele>-3.6</ele><time>2021-05-12T10:29:19Z</time><name>PT1269</name></trkpt>
<trkpt lat="53.103173" lon="06.065614"><ele>-3.7</ele><time>2021-05-12T10:29:20Z</time><name>PT1270</name></trkpt>
<trkpt lat="53.103175" lon="06.065593"><ele>-3.8</ele><time>2021-05-12T10:29:21Z</time><name>PT1271</name></trkpt>
<trkpt lat="53.103174" lon="06.065574"><ele>-3.8</ele><time>2021-05-12T10:29:22Z</time><name>PT1272</name></trkpt>
<trkpt lat="53.103173" lon="06.065559"><ele>-3.6</ele><time>2021-05-12T10:29:23Z</time><name>PT1273</name></trkpt>
<trkpt lat="53.103172" lon="06.065546"><ele>-3.6</ele><time>2021-05-12T10:29:24Z</time><name>PT1274</name></trkpt>
<trkpt lat="53.103171" lon="06.065533"><ele>-3.6</ele><time>2021-05-12T10:29:25Z</time><name>PT1275</name></trkpt>
<trkpt lat="53.103169" lon="06.065521"><ele>-3.5</ele><time>2021-05-12T10:29:26Z</time><name>PT1276</name></trkpt>
<trkpt lat="53.103167" lon="06.065507"><ele>-3.4</ele><time>2021-05-12T10:29:27Z</time><name>PT1277</name></trkpt>
<trkpt lat="53.103167" lon="06.065493"><ele>-3.4</ele><time>2021-05-12T10:29:28Z</time><name>PT1278</name></trkpt>
<trkpt lat="53.103167" lon="06.065475"><ele>-3.3</ele><time>2021-05-12T10:29:29Z</time><name>PT1279</name></trkpt>
<trkpt lat="53.103167" lon="06.065454"><ele>-3.3</ele><time>2021-05-12T10:29:31Z</time><name>PT1280</name></trkpt>
<trkpt lat="53.103168" lon="06.065433"><ele>-3.4</ele><time>2021-05-12T10:29:31Z</time><name>PT1281</name></trkpt>
<trkpt lat="53.103170" lon="06.065409"><ele>-3.5</ele><time>2021-05-12T10:29:32Z</time><name>PT1282</name></trkpt>
<trkpt lat="53.103169" lon="06.065384"><ele>-3.6</ele><time>2021-05-12T10:29:34Z</time><name>PT1283</name></trkpt>
<trkpt lat="53.103169" lon="06.065357"><ele>-3.6</ele><time>2021-05-12T10:29:34Z</time><name>PT1284</name></trkpt>
<trkpt lat="53.103167" lon="06.065331"><ele>-3.6</ele><time>2021-05-12T10:29:35Z</time><name>PT1285</name></trkpt>
<trkpt lat="53.103165" lon="06.065305"><ele>-3.6</ele><time>2021-05-12T10:29:36Z</time><name>PT1286</name></trkpt>
<trkpt lat="53.103166" lon="06.065280"><ele>-3.7</ele><time>2021-05-12T10:29:37Z</time><name>PT1287</name></trkpt>
<trkpt lat="53.103167" lon="06.065256"><ele>-3.7</ele><time>2021-05-12T10:29:38Z</time><name>PT1288</name></trkpt>
<trkpt lat="53.103168" lon="06.065233"><ele>-3.8</ele><time>2021-05-12T10:29:39Z</time><name>PT1289</name></trkpt>
<trkpt lat="53.103168" lon="06.065210"><ele>-3.8</ele><time>2021-05-12T10:29:40Z</time><name>PT1290</name></trkpt>
<trkpt lat="53.103162" lon="06.065192"><ele>-3.8</ele><time>2021-05-12T10:29:41Z</time><name>PT1291</name></trkpt>
<trkpt lat="53.103158" lon="06.065176"><ele>-3.8</ele><time>2021-05-12T10:29:42Z</time><name>PT1292</name></trkpt>
<trkpt lat="53.103157" lon="06.065163"><ele>-3.9</ele><time>2021-05-12T10:29:43Z</time><name>PT1293</name></trkpt>
<trkpt lat="53.103154" lon="06.065150"><ele>-4</ele><time>2021-05-12T10:29:44Z</time><name>PT1294</name></trkpt>
<trkpt lat="53.103154" lon="06.065138"><ele>-3.8</ele><time>2021-05-12T10:29:46Z</time><name>PT1295</name></trkpt>
<trkpt lat="53.103154" lon="06.065123"><ele>-3.8</ele><time>2021-05-12T10:29:46Z</time><name>PT1296</name></trkpt>
<trkpt lat="53.103153" lon="06.065105"><ele>-3.9</ele><time>2021-05-12T10:29:47Z</time><name>PT1297</name></trkpt>
<trkpt lat="53.103152" lon="06.065089"><ele>-3.9</ele><time>2021-05-12T10:29:48Z</time><name>PT1298</name></trkpt>
<trkpt lat="53.103152" lon="06.065069"><ele>-3.8</ele><time>2021-05-12T10:29:49Z</time><name>PT1299</name></trkpt>
<trkpt lat="53.103153" lon="06.065047"><ele>-3.8</ele><time>2021-05-12T10:29:50Z</time><name>PT1300</name></trkpt>
<trkpt lat="53.103153" lon="06.065026"><ele>-3.9</ele><time>2021-05-12T10:29:51Z</time><name>PT1301</name></trkpt>
<trkpt lat="53.103153" lon="06.065003"><ele>-3.9</ele><time>2021-05-12T10:29:52Z</time><name>PT1302</name></trkpt>
<trkpt lat="53.103155" lon="06.064977"><ele>-3.8</ele><time>2021-05-12T10:29:53Z</time><name>PT1303</name></trkpt>
<trkpt lat="53.103154" lon="06.064950"><ele>-3.9</ele><time>2021-05-12T10:29:54Z</time><name>PT1304</name></trkpt>
<trkpt lat="53.103153" lon="06.064926"><ele>-4</ele><time>2021-05-12T10:29:55Z</time><name>PT1305</name></trkpt>
<trkpt lat="53.103153" lon="06.064905"><ele>-3.8</ele><time>2021-05-12T10:29:56Z</time><name>PT1306</name></trkpt>
<trkpt lat="53.103151" lon="06.064886"><ele>-3.7</ele><time>2021-05-12T10:29:57Z</time><name>PT1307</name></trkpt>
<trkpt lat="53.103147" lon="06.064870"><ele>-3.7</ele><time>2021-05-12T10:29:58Z</time><name>PT1308</name></trkpt>
<trkpt lat="53.103142" lon="06.064854"><ele>-3.8</ele><time>2021-05-12T10:29:59Z</time><name>PT1309</name></trkpt>
<trkpt lat="53.103140" lon="06.064838"><ele>-3.8</ele><time>2021-05-12T10:30:00Z</time><name>PT1310</name></trkpt>
<trkpt lat="53.103141" lon="06.064822"><ele>-3.7</ele><time>2021-05-12T10:30:01Z</time><name>PT1311</name></trkpt>
<trkpt lat="53.103143" lon="06.064804"><ele>-3.9</ele><time>2021-05-12T10:30:02Z</time><name>PT1312</name></trkpt>
<trkpt lat="53.103145" lon="06.064785"><ele>-3.8</ele><time>2021-05-12T10:30:03Z</time><name>PT1313</name></trkpt>
<trkpt lat="53.103145" lon="06.064764"><ele>-3.8</ele><time>2021-05-12T10:30:04Z</time><name>PT1314</name></trkpt>
<trkpt lat="53.103146" lon="06.064742"><ele>-3.8</ele><time>2021-05-12T10:30:05Z</time><name>PT1315</name></trkpt>
<trkpt lat="53.103146" lon="06.064717"><ele>-3.7</ele><time>2021-05-12T10:30:06Z</time><name>PT1316</name></trkpt>
<trkpt lat="53.103146" lon="06.064691"><ele>-3.8</ele><time>2021-05-12T10:30:07Z</time><name>PT1317</name></trkpt>
<trkpt lat="53.103146" lon="06.064664"><ele>-3.7</ele><time>2021-05-12T10:30:08Z</time><name>PT1318</name></trkpt>
<trkpt lat="53.103146" lon="06.064640"><ele>-3.7</ele><time>2021-05-12T10:30:09Z</time><name>PT1319</name></trkpt>
<trkpt lat="53.103146" lon="06.064621"><ele>-3.7</ele><time>2021-05-12T10:30:10Z</time><name>PT1320</name></trkpt>
<trkpt lat="53.103144" lon="06.064602"><ele>-3.8</ele><time>2021-05-12T10:30:11Z</time><name>PT1321</name></trkpt>
<trkpt lat="53.103143" lon="06.064586"><ele>-3.7</ele><time>2021-05-12T10:30:12Z</time><name>PT1322</name></trkpt>
<trkpt lat="53.103142" lon="06.064572"><ele>-3.8</ele><time>2021-05-12T10:30:13Z</time><name>PT1323</name></trkpt>
<trkpt lat="53.103140" lon="06.064558"><ele>-3.6</ele><time>2021-05-12T10:30:14Z</time><name>PT1324</name></trkpt>
<trkpt lat="53.103139" lon="06.064541"><ele>-3.6</ele><time>2021-05-12T10:30:15Z</time><name>PT1325</name></trkpt>
<trkpt lat="53.103140" lon="06.064521"><ele>-3.3</ele><time>2021-05-12T10:30:16Z</time><name>PT1326</name></trkpt>
<trkpt lat="53.103138" lon="06.064496"><ele>-3.2</ele><time>2021-05-12T10:30:17Z</time><name>PT1327</name></trkpt>
<trkpt lat="53.103138" lon="06.064467"><ele>-3.3</ele><time>2021-05-12T10:30:18Z</time><name>PT1328</name></trkpt>
<trkpt lat="53.103138" lon="06.064441"><ele>-3.5</ele><time>2021-05-12T10:30:19Z</time><name>PT1329</name></trkpt>
<trkpt lat="53.103136" lon="06.064419"><ele>-3.6</ele><time>2021-05-12T10:30:20Z</time><name>PT1330</name></trkpt>
<trkpt lat="53.103135" lon="06.064398"><ele>-3.8</ele><time>2021-05-12T10:30:21Z</time><name>PT1331</name></trkpt>
<trkpt lat="53.103140" lon="06.064378"><ele>-3.8</ele><time>2021-05-12T10:30:22Z</time><name>PT1332</name></trkpt>
<trkpt lat="53.103141" lon="06.064360"><ele>-3.7</ele><time>2021-05-12T10:30:23Z</time><name>PT1333</name></trkpt>
<trkpt lat="53.103140" lon="06.064345"><ele>-3.6</ele><time>2021-05-12T10:30:24Z</time><name>PT1334</name></trkpt>
<trkpt lat="53.103137" lon="06.064332"><ele>-3.5</ele><time>2021-05-12T10:30:25Z</time><name>PT1335</name></trkpt>
<trkpt lat="53.103136" lon="06.064319"><ele>-3.6</ele><time>2021-05-12T10:30:26Z</time><name>PT1336</name></trkpt>
<trkpt lat="53.103136" lon="06.064302"><ele>-3.7</ele><time>2021-05-12T10:30:27Z</time><name>PT1337</name></trkpt>
<trkpt lat="53.103139" lon="06.064274"><ele>-3.7</ele><time>2021-05-12T10:30:28Z</time><name>PT1338</name></trkpt>
<trkpt lat="53.103140" lon="06.064248"><ele>-3.8</ele><time>2021-05-12T10:30:29Z</time><name>PT1339</name></trkpt>
<trkpt lat="53.103141" lon="06.064227"><ele>-3.6</ele><time>2021-05-12T10:30:30Z</time><name>PT1340</name></trkpt>
<trkpt lat="53.103140" lon="06.064204"><ele>-3.6</ele><time>2021-05-12T10:30:31Z</time><name>PT1341</name></trkpt>
<trkpt lat="53.103139" lon="06.064183"><ele>-3.6</ele><time>2021-05-12T10:30:32Z</time><name>PT1342</name></trkpt>
<trkpt lat="53.103138" lon="06.064162"><ele>-3.5</ele><time>2021-05-12T10:30:33Z</time><name>PT1343</name></trkpt>
<trkpt lat="53.103138" lon="06.064139"><ele>-3.6</ele><time>2021-05-12T10:30:34Z</time><name>PT1344</name></trkpt>
<trkpt lat="53.103137" lon="06.064121"><ele>-3.7</ele><time>2021-05-12T10:30:35Z</time><name>PT1345</name></trkpt>
<trkpt lat="53.103134" lon="06.064105"><ele>-3.9</ele><time>2021-05-12T10:30:36Z</time><name>PT1346</name></trkpt>
<trkpt lat="53.103132" lon="06.064088"><ele>-3.8</ele><time>2021-05-12T10:30:37Z</time><name>PT1347</name></trkpt>
<trkpt lat="53.103131" lon="06.064071"><ele>-3.9</ele><time>2021-05-12T10:30:38Z</time><name>PT1348</name></trkpt>
<trkpt lat="53.103131" lon="06.064053"><ele>-3.9</ele><time>2021-05-12T10:30:39Z</time><name>PT1349</name></trkpt>
<trkpt lat="53.103132" lon="06.064034"><ele>-3.8</ele><time>2021-05-12T10:30:40Z</time><name>PT1350</name></trkpt>
<trkpt lat="53.103131" lon="06.064015"><ele>-3.7</ele><time>2021-05-12T10:30:41Z</time><name>PT1351</name></trkpt>
<trkpt lat="53.103132" lon="06.063992"><ele>-3.9</ele><time>2021-05-12T10:30:42Z</time><name>PT1352</name></trkpt>
<trkpt lat="53.103132" lon="06.063968"><ele>-3.9</ele><time>2021-05-12T10:30:43Z</time><name>PT1353</name></trkpt>
<trkpt lat="53.103131" lon="06.063940"><ele>-3.7</ele><time>2021-05-12T10:30:44Z</time><name>PT1354</name></trkpt>
<trkpt lat="53.103131" lon="06.063915"><ele>-3.6</ele><time>2021-05-12T10:30:45Z</time><name>PT1355</name></trkpt>
<trkpt lat="53.103131" lon="06.063892"><ele>-3.7</ele><time>2021-05-12T10:30:46Z</time><name>PT1356</name></trkpt>
<trkpt lat="53.103131" lon="06.063869"><ele>-3.6</ele><time>2021-05-12T10:30:47Z</time><name>PT1357</name></trkpt>
<trkpt lat="53.103131" lon="06.063850"><ele>-3.6</ele><time>2021-05-12T10:30:48Z</time><name>PT1358</name></trkpt>
<trkpt lat="53.103130" lon="06.063833"><ele>-3.6</ele><time>2021-05-12T10:30:49Z</time><name>PT1359</name></trkpt>
<trkpt lat="53.103128" lon="06.063816"><ele>-3.7</ele><time>2021-05-12T10:30:50Z</time><name>PT1360</name></trkpt>
<trkpt lat="53.103129" lon="06.063800"><ele>-3.8</ele><time>2021-05-12T10:30:51Z</time><name>PT1361</name></trkpt>
<trkpt lat="53.103131" lon="06.063783"><ele>-3.7</ele><time>2021-05-12T10:30:52Z</time><name>PT1362</name></trkpt>
<trkpt lat="53.103131" lon="06.063767"><ele>-3.7</ele><time>2021-05-12T10:30:53Z</time><name>PT1363</name></trkpt>
<trkpt lat="53.103133" lon="06.063749"><ele>-3.6</ele><time>2021-05-12T10:30:54Z</time><name>PT1364</name></trkpt>
<trkpt lat="53.103135" lon="06.063733"><ele>-3.6</ele><time>2021-05-12T10:30:55Z</time><name>PT1365</name></trkpt>
<trkpt lat="53.103136" lon="06.063711"><ele>-3.4</ele><time>2021-05-12T10:30:56Z</time><name>PT1366</name></trkpt>
<trkpt lat="53.103139" lon="06.063686"><ele>-3.4</ele><time>2021-05-12T10:30:57Z</time><name>PT1367</name></trkpt>
<trkpt lat="53.103141" lon="06.063659"><ele>-3.6</ele><time>2021-05-12T10:30:58Z</time><name>PT1368</name></trkpt>
<trkpt lat="53.103141" lon="06.063632"><ele>-3.6</ele><time>2021-05-12T10:30:59Z</time><name>PT1369</name></trkpt>
<trkpt lat="53.103140" lon="06.063606"><ele>-3.6</ele><time>2021-05-12T10:31:00Z</time><name>PT1370</name></trkpt>
<trkpt lat="53.103139" lon="06.063587"><ele>-3.6</ele><time>2021-05-12T10:31:01Z</time><name>PT1371</name></trkpt>
<trkpt lat="53.103137" lon="06.063569"><ele>-3.9</ele><time>2021-05-12T10:31:02Z</time><name>PT1372</name></trkpt>
<trkpt lat="53.103136" lon="06.063553"><ele>-3.6</ele><time>2021-05-12T10:31:03Z</time><name>PT1373</name></trkpt>
<trkpt lat="53.103137" lon="06.063538"><ele>-3.7</ele><time>2021-05-12T10:31:04Z</time><name>PT1374</name></trkpt>
<trkpt lat="53.103138" lon="06.063523"><ele>-3.7</ele><time>2021-05-12T10:31:05Z</time><name>PT1375</name></trkpt>
<trkpt lat="53.103138" lon="06.063507"><ele>-3.6</ele><time>2021-05-12T10:31:07Z</time><name>PT1376</name></trkpt>
<trkpt lat="53.103140" lon="06.063488"><ele>-3.6</ele><time>2021-05-12T10:31:07Z</time><name>PT1377</name></trkpt>
<trkpt lat="53.103144" lon="06.063470"><ele>-3.9</ele><time>2021-05-12T10:31:08Z</time><name>PT1378</name></trkpt>
<trkpt lat="53.103145" lon="06.063450"><ele>-3.8</ele><time>2021-05-12T10:31:09Z</time><name>PT1379</name></trkpt>
<trkpt lat="53.103145" lon="06.063427"><ele>-3.8</ele><time>2021-05-12T10:31:10Z</time><name>PT1380</name></trkpt>
<trkpt lat="53.103145" lon="06.063412"><ele>-3.7</ele><time>2021-05-12T10:31:11Z</time><name>PT1381</name></trkpt>
<trkpt lat="53.103145" lon="06.063400"><ele>-3.6</ele><time>2021-05-12T10:31:12Z</time><name>PT1382</name></trkpt>
<trkpt lat="53.103144" lon="06.063386"><ele>-3.4</ele><time>2021-05-12T10:31:13Z</time><name>PT1383</name></trkpt>
<trkpt lat="53.103145" lon="06.063370"><ele>-3.4</ele><time>2021-05-12T10:31:14Z</time><name>PT1384</name></trkpt>
<trkpt lat="53.103145" lon="06.063354"><ele>-3.4</ele><time>2021-05-12T10:31:15Z</time><name>PT1385</name></trkpt>
<trkpt lat="53.103146" lon="06.063339"><ele>-3.4</ele><time>2021-05-12T10:31:16Z</time><name>PT1386</name></trkpt>
<trkpt lat="53.103148" lon="06.063321"><ele>-3.5</ele><time>2021-05-12T10:31:17Z</time><name>PT1387</name></trkpt>
<trkpt lat="53.103147" lon="06.063300"><ele>-3.8</ele><time>2021-05-12T10:31:18Z</time><name>PT1388</name></trkpt>
<trkpt lat="53.103145" lon="06.063281"><ele>-3.9</ele><time>2021-05-12T10:31:19Z</time><name>PT1389</name></trkpt>
<trkpt lat="53.103143" lon="06.063266"><ele>-4</ele><time>2021-05-12T10:31:20Z</time><name>PT1390</name></trkpt>
<trkpt lat="53.103141" lon="06.063253"><ele>-3.9</ele><time>2021-05-12T10:31:21Z</time><name>PT1391</name></trkpt>
<trkpt lat="53.103140" lon="06.063237"><ele>-3.8</ele><time>2021-05-12T10:31:22Z</time><name>PT1392</name></trkpt>
<trkpt lat="53.103140" lon="06.063222"><ele>-3.6</ele><time>2021-05-12T10:31:23Z</time><name>PT1393</name></trkpt>
<trkpt lat="53.103143" lon="06.063200"><ele>-3.6</ele><time>2021-05-12T10:31:24Z</time><name>PT1394</name></trkpt>
<trkpt lat="53.103145" lon="06.063181"><ele>-3.6</ele><time>2021-05-12T10:31:25Z</time><name>PT1395</name></trkpt>
<trkpt lat="53.103143" lon="06.063166"><ele>-3.6</ele><time>2021-05-12T10:31:26Z</time><name>PT1396</name></trkpt>
<trkpt lat="53.103142" lon="06.063151"><ele>-3.6</ele><time>2021-05-12T10:31:27Z</time><name>PT1397</name></trkpt>
<trkpt lat="53.103141" lon="06.063134"><ele>-3.8</ele><time>2021-05-12T10:31:28Z</time><name>PT1398</name></trkpt>
<trkpt lat="53.103142" lon="06.063116"><ele>-3.7</ele><time>2021-05-12T10:31:29Z</time><name>PT1399</name></trkpt>
<trkpt lat="53.103140" lon="06.063100"><ele>-3.6</ele><time>2021-05-12T10:31:30Z</time><name>PT1400</name></trkpt>
<trkpt lat="53.103140" lon="06.063081"><ele>-3.6</ele><time>2021-05-12T10:31:31Z</time><name>PT1401</name></trkpt>
<trkpt lat="53.103143" lon="06.063058"><ele>-3.6</ele><time>2021-05-12T10:31:32Z</time><name>PT1402</name></trkpt>
<trkpt lat="53.103144" lon="06.063032"><ele>-3.4</ele><time>2021-05-12T10:31:33Z</time><name>PT1403</name></trkpt>
<trkpt lat="53.103144" lon="06.063005"><ele>-3.3</ele><time>2021-05-12T10:31:34Z</time><name>PT1404</name></trkpt>
<trkpt lat="53.103143" lon="06.062982"><ele>-3.6</ele><time>2021-05-12T10:31:35Z</time><name>PT1405</name></trkpt>
<trkpt lat="53.103141" lon="06.062963"><ele>-3.7</ele><time>2021-05-12T10:31:36Z</time><name>PT1406</name></trkpt>
<trkpt lat="53.103139" lon="06.062948"><ele>-3.7</ele><time>2021-05-12T10:31:37Z</time><name>PT1407</name></trkpt>
<trkpt lat="53.103138" lon="06.062934"><ele>-3.7</ele><time>2021-05-12T10:31:38Z</time><name>PT1408</name></trkpt>
<trkpt lat="53.103139" lon="06.062920"><ele>-3.9</ele><time>2021-05-12T10:31:39Z</time><name>PT1409</name></trkpt>
<trkpt lat="53.103139" lon="06.062903"><ele>-3.9</ele><time>2021-05-12T10:31:40Z</time><name>PT1410</name></trkpt>
<trkpt lat="53.103135" lon="06.062889"><ele>-3.9</ele><time>2021-05-12T10:31:41Z</time><name>PT1411</name></trkpt>
<trkpt lat="53.103127" lon="06.062878"><ele>-4</ele><time>2021-05-12T10:31:42Z</time><name>PT1412</name></trkpt>
<trkpt lat="53.103116" lon="06.062870"><ele>-4</ele><time>2021-05-12T10:31:43Z</time><name>PT1413</name></trkpt>
<trkpt lat="53.103103" lon="06.062859"><ele>-3.9</ele><time>2021-05-12T10:31:44Z</time><name>PT1414</name></trkpt>
<trkpt lat="53.103089" lon="06.062850"><ele>-4</ele><time>2021-05-12T10:31:45Z</time><name>PT1415</name></trkpt>
<trkpt lat="53.103075" lon="06.062842"><ele>-4</ele><time>2021-05-12T10:31:46Z</time><name>PT1416</name></trkpt>
<trkpt lat="53.103062" lon="06.062837"><ele>-4.1</ele><time>2021-05-12T10:31:47Z</time><name>PT1417</name></trkpt>
<trkpt lat="53.103051" lon="06.062834"><ele>-4.1</ele><time>2021-05-12T10:31:48Z</time><name>PT1418</name></trkpt>
<trkpt lat="53.103041" lon="06.062832"><ele>-4.1</ele><time>2021-05-12T10:31:49Z</time><name>PT1419</name></trkpt>
<trkpt lat="53.103034" lon="06.062833"><ele>-4.1</ele><time>2021-05-12T10:31:50Z</time><name>PT1420</name></trkpt>
<trkpt lat="53.103027" lon="06.062834"><ele>-4.1</ele><time>2021-05-12T10:31:51Z</time><name>PT1421</name></trkpt>
<trkpt lat="53.103021" lon="06.062836"><ele>-4.1</ele><time>2021-05-12T10:31:52Z</time><name>PT1422</name></trkpt>
<trkpt lat="53.103018" lon="06.062834"><ele>-4.2</ele><time>2021-05-12T10:31:53Z</time><name>PT1423</name></trkpt>
<trkpt lat="53.103012" lon="06.062831"><ele>-4.3</ele><time>2021-05-12T10:31:54Z</time><name>PT1424</name></trkpt>
<trkpt lat="53.103004" lon="06.062825"><ele>-4.3</ele><time>2021-05-12T10:31:55Z</time><name>PT1425</name></trkpt>
<trkpt lat="53.102996" lon="06.062816"><ele>-4.3</ele><time>2021-05-12T10:31:56Z</time><name>PT1426</name></trkpt>
<trkpt lat="53.102987" lon="06.062803"><ele>-4.3</ele><time>2021-05-12T10:31:57Z</time><name>PT1427</name></trkpt>
<trkpt lat="53.102982" lon="06.062783"><ele>-4.4</ele><time>2021-05-12T10:31:58Z</time><name>PT1428</name></trkpt>
<trkpt lat="53.102974" lon="06.062766"><ele>-4.4</ele><time>2021-05-12T10:31:59Z</time><name>PT1429</name></trkpt>
<trkpt lat="53.102966" lon="06.062749"><ele>-4.6</ele><time>2021-05-12T10:32:00Z</time><name>PT1430</name></trkpt>
<trkpt lat="53.102960" lon="06.062735"><ele>-4.6</ele><time>2021-05-12T10:32:01Z</time><name>PT1431</name></trkpt>
<trkpt lat="53.102955" lon="06.062724"><ele>-4.7</ele><time>2021-05-12T10:32:02Z</time><name>PT1432</name></trkpt>
<trkpt lat="53.102953" lon="06.062716"><ele>-4.8</ele><time>2021-05-12T10:32:03Z</time><name>PT1433</name></trkpt>
<trkpt lat="53.102950" lon="06.062709"><ele>-4.8</ele><time>2021-05-12T10:32:04Z</time><name>PT1434</name></trkpt>
<trkpt lat="53.102951" lon="06.062693"><ele>-4.8</ele><time>2021-05-12T10:32:05Z</time><name>PT1435</name></trkpt>
<trkpt lat="53.102950" lon="06.062678"><ele>-4.6</ele><time>2021-05-12T10:32:06Z</time><name>PT1436</name></trkpt>
<trkpt lat="53.102950" lon="06.062663"><ele>-4.8</ele><time>2021-05-12T10:32:07Z</time><name>PT1437</name></trkpt>
<trkpt lat="53.102950" lon="06.062651"><ele>-4.6</ele><time>2021-05-12T10:32:08Z</time><name>PT1438</name></trkpt>
<trkpt lat="53.102948" lon="06.062639"><ele>-4.6</ele><time>2021-05-12T10:32:09Z</time><name>PT1439</name></trkpt>
<trkpt lat="53.102949" lon="06.062625"><ele>-4.6</ele><time>2021-05-12T10:32:10Z</time><name>PT1440</name></trkpt>
<trkpt lat="53.102950" lon="06.062617"><ele>-4.6</ele><time>2021-05-12T10:32:11Z</time><name>PT1441</name></trkpt>
<trkpt lat="53.102956" lon="06.062607"><ele>-4.6</ele><time>2021-05-12T10:32:12Z</time><name>PT1442</name></trkpt>
<trkpt lat="53.102958" lon="06.062603"><ele>-4.6</ele><time>2021-05-12T10:32:13Z</time><name>PT1443</name></trkpt>
<trkpt lat="53.102957" lon="06.062600"><ele>-4.6</ele><time>2021-05-12T10:32:14Z</time><name>PT1444</name></trkpt>
<trkpt lat="53.102953" lon="06.062588"><ele>-4.6</ele><time>2021-05-12T10:32:15Z</time><name>PT1445</name></trkpt>
<trkpt lat="53.102953" lon="06.062568"><ele>-4.6</ele><time>2021-05-12T10:32:16Z</time><name>PT1446</name></trkpt>
<trkpt lat="53.102948" lon="06.062539"><ele>-4.5</ele><time>2021-05-12T10:32:17Z</time><name>PT1447</name></trkpt>
<trkpt lat="53.102947" lon="06.062508"><ele>-4.6</ele><time>2021-05-12T10:32:18Z</time><name>PT1448</name></trkpt>
<trkpt lat="53.102947" lon="06.062478"><ele>-4.5</ele><time>2021-05-12T10:32:19Z</time><name>PT1449</name></trkpt>
<trkpt lat="53.102945" lon="06.062452"><ele>-4.5</ele><time>2021-05-12T10:32:20Z</time><name>PT1450</name></trkpt>
<trkpt lat="53.102941" lon="06.062434"><ele>-4.3</ele><time>2021-05-12T10:32:21Z</time><name>PT1451</name></trkpt>
<trkpt lat="53.102939" lon="06.062418"><ele>-4.4</ele><time>2021-05-12T10:32:22Z</time><name>PT1452</name></trkpt>
<trkpt lat="53.102940" lon="06.062397"><ele>-4.3</ele><time>2021-05-12T10:32:23Z</time><name>PT1453</name></trkpt>
<trkpt lat="53.102939" lon="06.062376"><ele>-4.4</ele><time>2021-05-12T10:32:24Z</time><name>PT1454</name></trkpt>
<trkpt lat="53.102932" lon="06.062355"><ele>-4.3</ele><time>2021-05-12T10:32:25Z</time><name>PT1455</name></trkpt>
<trkpt lat="53.102925" lon="06.062335"><ele>-4.4</ele><time>2021-05-12T10:32:26Z</time><name>PT1456</name></trkpt>
<trkpt lat="53.102916" lon="06.062322"><ele>-4.4</ele><time>2021-05-12T10:32:27Z</time><name>PT1457</name></trkpt>
<trkpt lat="53.102910" lon="06.062316"><ele>-4.4</ele><time>2021-05-12T10:32:28Z</time><name>PT1458</name></trkpt>
<trkpt lat="53.102903" lon="06.062308"><ele>-4.3</ele><time>2021-05-12T10:32:29Z</time><name>PT1459</name></trkpt>
<trkpt lat="53.102894" lon="06.062308"><ele>-4.6</ele><time>2021-05-12T10:32:30Z</time><name>PT1460</name></trkpt>
<trkpt lat="53.102886" lon="06.062302"><ele>-4.7</ele><time>2021-05-12T10:32:31Z</time><name>PT1461</name></trkpt>
<trkpt lat="53.102876" lon="06.062296"><ele>-4.6</ele><time>2021-05-12T10:32:32Z</time><name>PT1462</name></trkpt>
<trkpt lat="53.102867" lon="06.062292"><ele>-4.7</ele><time>2021-05-12T10:32:33Z</time><name>PT1463</name></trkpt>
<trkpt lat="53.102858" lon="06.062278"><ele>-4.7</ele><time>2021-05-12T10:32:34Z</time><name>PT1464</name></trkpt>
<trkpt lat="53.102853" lon="06.062264"><ele>-4.7</ele><time>2021-05-12T10:32:35Z</time><name>PT1465</name></trkpt>
<trkpt lat="53.102850" lon="06.062247"><ele>-4.7</ele><time>2021-05-12T10:32:36Z</time><name>PT1466</name></trkpt>
<trkpt lat="53.102843" lon="06.062233"><ele>-4.6</ele><time>2021-05-12T10:32:37Z</time><name>PT1467</name></trkpt>
<trkpt lat="53.102838" lon="06.062218"><ele>-4.5</ele><time>2021-05-12T10:32:38Z</time><name>PT1468</name></trkpt>
<trkpt lat="53.102836" lon="06.062200"><ele>-4.5</ele><time>2021-05-12T10:32:39Z</time><name>PT1469</name></trkpt>
<trkpt lat="53.102832" lon="06.062184"><ele>-4.6</ele><time>2021-05-12T10:32:40Z</time><name>PT1470</name></trkpt>
<trkpt lat="53.102831" lon="06.062164"><ele>-4.7</ele><time>2021-05-12T10:32:41Z</time><name>PT1471</name></trkpt>
<trkpt lat="53.102828" lon="06.062148"><ele>-4.7</ele><time>2021-05-12T10:32:42Z</time><name>PT1472</name></trkpt>
<trkpt lat="53.102822" lon="06.062130"><ele>-4.7</ele><time>2021-05-12T10:32:43Z</time><name>PT1473</name></trkpt>
<trkpt lat="53.102820" lon="06.062113"><ele>-4.8</ele><time>2021-05-12T10:32:44Z</time><name>PT1474</name></trkpt>
<trkpt lat="53.102816" lon="06.062097"><ele>-4.7</ele><time>2021-05-12T10:32:45Z</time><name>PT1475</name></trkpt>
<trkpt lat="53.102815" lon="06.062083"><ele>-4.7</ele><time>2021-05-12T10:32:46Z</time><name>PT1476</name></trkpt>
<trkpt lat="53.102814" lon="06.062071"><ele>-4.8</ele><time>2021-05-12T10:32:47Z</time><name>PT1477</name></trkpt>
<trkpt lat="53.102821" lon="06.062059"><ele>-4.8</ele><time>2021-05-12T10:32:48Z</time><name>PT1478</name></trkpt>
<trkpt lat="53.102821" lon="06.062045"><ele>-4.7</ele><time>2021-05-12T10:32:49Z</time><name>PT1479</name></trkpt>
<trkpt lat="53.102820" lon="06.062029"><ele>-4.8</ele><time>2021-05-12T10:32:50Z</time><name>PT1480</name></trkpt>
<trkpt lat="53.102817" lon="06.062015"><ele>-4.6</ele><time>2021-05-12T10:32:51Z</time><name>PT1481</name></trkpt>
<trkpt lat="53.102814" lon="06.061995"><ele>-4.6</ele><time>2021-05-12T10:32:52Z</time><name>PT1482</name></trkpt>
<trkpt lat="53.102817" lon="06.061977"><ele>-4.4</ele><time>2021-05-12T10:32:53Z</time><name>PT1483</name></trkpt>
<trkpt lat="53.102814" lon="06.061958"><ele>-4.3</ele><time>2021-05-12T10:32:54Z</time><name>PT1484</name></trkpt>
<trkpt lat="53.102805" lon="06.061942"><ele>-4.2</ele><time>2021-05-12T10:32:55Z</time><name>PT1485</name></trkpt>
<trkpt lat="53.102797" lon="06.061927"><ele>-4.1</ele><time>2021-05-12T10:32:56Z</time><name>PT1486</name></trkpt>
<trkpt lat="53.102790" lon="06.061909"><ele>-4.1</ele><time>2021-05-12T10:32:57Z</time><name>PT1487</name></trkpt>
<trkpt lat="53.102782" lon="06.061882"><ele>-4.1</ele><time>2021-05-12T10:32:58Z</time><name>PT1488</name></trkpt>
<trkpt lat="53.102767" lon="06.061867"><ele>-4.1</ele><time>2021-05-12T10:32:59Z</time><name>PT1489</name></trkpt>
<trkpt lat="53.102759" lon="06.061848"><ele>-4.1</ele><time>2021-05-12T10:33:00Z</time><name>PT1490</name></trkpt>
<trkpt lat="53.102748" lon="06.061830"><ele>-4.1</ele><time>2021-05-12T10:33:01Z</time><name>PT1491</name></trkpt>
<trkpt lat="53.102738" lon="06.061817"><ele>-4.3</ele><time>2021-05-12T10:33:02Z</time><name>PT1492</name></trkpt>
<trkpt lat="53.102730" lon="06.061807"><ele>-4.4</ele><time>2021-05-12T10:33:03Z</time><name>PT1493</name></trkpt>
<trkpt lat="53.102722" lon="06.061801"><ele>-4.5</ele><time>2021-05-12T10:33:04Z</time><name>PT1494</name></trkpt>
<trkpt lat="53.102714" lon="06.061796"><ele>-4.6</ele><time>2021-05-12T10:33:05Z</time><name>PT1495</name></trkpt>
<trkpt lat="53.102705" lon="06.061789"><ele>-4.4</ele><time>2021-05-12T10:33:06Z</time><name>PT1496</name></trkpt>
<trkpt lat="53.102694" lon="06.061784"><ele>-4.5</ele><time>2021-05-12T10:33:07Z</time><name>PT1497</name></trkpt>
<trkpt lat="53.102682" lon="06.061779"><ele>-4.5</ele><time>2021-05-12T10:33:08Z</time><name>PT1498</name></trkpt>
<trkpt lat="53.102670" lon="06.061772"><ele>-4.6</ele><time>2021-05-12T10:33:09Z</time><name>PT1499</name></trkpt>
<trkpt lat="53.102662" lon="06.061763"><ele>-4.5</ele><time>2021-05-12T10:33:10Z</time><name>PT1500</name></trkpt>
<trkpt lat="53.102651" lon="06.061750"><ele>-4.6</ele><time>2021-05-12T10:33:11Z</time><name>PT1501</name></trkpt>
<trkpt lat="53.102642" lon="06.061743"><ele>-4.6</ele><time>2021-05-12T10:33:12Z</time><name>PT1502</name></trkpt>
<trkpt lat="53.102633" lon="06.061731"><ele>-4.6</ele><time>2021-05-12T10:33:13Z</time><name>PT1503</name></trkpt>
<trkpt lat="53.102623" lon="06.061718"><ele>-4.6</ele><time>2021-05-12T10:33:14Z</time><name>PT1504</name></trkpt>
<trkpt lat="53.102613" lon="06.061709"><ele>-4.6</ele><time>2021-05-12T10:33:15Z</time><name>PT1505</name></trkpt>
<trkpt lat="53.102601" lon="06.061702"><ele>-4.6</ele><time>2021-05-12T10:33:16Z</time><name>PT1506</name></trkpt>
<trkpt lat="53.102587" lon="06.061692"><ele>-4.6</ele><time>2021-05-12T10:33:17Z</time><name>PT1507</name></trkpt>
<trkpt lat="53.102569" lon="06.061681"><ele>-4.4</ele><time>2021-05-12T10:33:18Z</time><name>PT1508</name></trkpt>
<trkpt lat="53.102553" lon="06.061675"><ele>-4.4</ele><time>2021-05-12T10:33:19Z</time><name>PT1509</name></trkpt>
<trkpt lat="53.102539" lon="06.061667"><ele>-4.4</ele><time>2021-05-12T10:33:20Z</time><name>PT1510</name></trkpt>
<trkpt lat="53.102529" lon="06.061661"><ele>-4.2</ele><time>2021-05-12T10:33:21Z</time><name>PT1511</name></trkpt>
<trkpt lat="53.102521" lon="06.061657"><ele>-4.4</ele><time>2021-05-12T10:33:22Z</time><name>PT1512</name></trkpt>
<trkpt lat="53.102514" lon="06.061655"><ele>-4.5</ele><time>2021-05-12T10:33:23Z</time><name>PT1513</name></trkpt>
<trkpt lat="53.102503" lon="06.061655"><ele>-4.2</ele><time>2021-05-12T10:33:24Z</time><name>PT1514</name></trkpt>
<trkpt lat="53.102497" lon="06.061651"><ele>-4.2</ele><time>2021-05-12T10:33:25Z</time><name>PT1515</name></trkpt>
<trkpt lat="53.102489" lon="06.061647"><ele>-4.5</ele><time>2021-05-12T10:33:26Z</time><name>PT1516</name></trkpt>
<trkpt lat="53.102482" lon="06.061644"><ele>-4.3</ele><time>2021-05-12T10:33:27Z</time><name>PT1517</name></trkpt>
<trkpt lat="53.102472" lon="06.061642"><ele>-4.5</ele><time>2021-05-12T10:33:28Z</time><name>PT1518</name></trkpt>
<trkpt lat="53.102466" lon="06.061641"><ele>-4.5</ele><time>2021-05-12T10:33:29Z</time><name>PT1519</name></trkpt>
<trkpt lat="53.102459" lon="06.061641"><ele>-4.4</ele><time>2021-05-12T10:33:30Z</time><name>PT1520</name></trkpt>
<trkpt lat="53.102450" lon="06.061639"><ele>-4.6</ele><time>2021-05-12T10:33:31Z</time><name>PT1521</name></trkpt>
<trkpt lat="53.102440" lon="06.061631"><ele>-4.6</ele><time>2021-05-12T10:33:32Z</time><name>PT1522</name></trkpt>
<trkpt lat="53.102434" lon="06.061626"><ele>-4.8</ele><time>2021-05-12T10:33:33Z</time><name>PT1523</name></trkpt>
<trkpt lat="53.102418" lon="06.061617"><ele>-4.8</ele><time>2021-05-12T10:33:34Z</time><name>PT1524</name></trkpt>
<trkpt lat="53.102411" lon="06.061610"><ele>-4.7</ele><time>2021-05-12T10:33:35Z</time><name>PT1525</name></trkpt>
<trkpt lat="53.102398" lon="06.061602"><ele>-4.8</ele><time>2021-05-12T10:33:36Z</time><name>PT1526</name></trkpt>
<trkpt lat="53.102384" lon="06.061595"><ele>-4.7</ele><time>2021-05-12T10:33:37Z</time><name>PT1527</name></trkpt>
<trkpt lat="53.102368" lon="06.061586"><ele>-4.6</ele><time>2021-05-12T10:33:38Z</time><name>PT1528</name></trkpt>
<trkpt lat="53.102353" lon="06.061575"><ele>-4.5</ele><time>2021-05-12T10:33:39Z</time><name>PT1529</name></trkpt>
<trkpt lat="53.102344" lon="06.061569"><ele>-4.5</ele><time>2021-05-12T10:33:40Z</time><name>PT1530</name></trkpt>
<trkpt lat="53.102335" lon="06.061558"><ele>-4.5</ele><time>2021-05-12T10:33:41Z</time><name>PT1531</name></trkpt>
<trkpt lat="53.102328" lon="06.061545"><ele>-4.5</ele><time>2021-05-12T10:33:42Z</time><name>PT1532</name></trkpt>
<trkpt lat="53.102325" lon="06.061531"><ele>-4.6</ele><time>2021-05-12T10:33:43Z</time><name>PT1533</name></trkpt>
<trkpt lat="53.102320" lon="06.061519"><ele>-4.5</ele><time>2021-05-12T10:33:44Z</time><name>PT1534</name></trkpt>
<trkpt lat="53.102318" lon="06.061507"><ele>-4.4</ele><time>2021-05-12T10:33:45Z</time><name>PT1535</name></trkpt>
<trkpt lat="53.102314" lon="06.061492"><ele>-4.4</ele><time>2021-05-12T10:33:46Z</time><name>PT1536</name></trkpt>
<trkpt lat="53.102309" lon="06.061478"><ele>-4.3</ele><time>2021-05-12T10:33:47Z</time><name>PT1537</name></trkpt>
<trkpt lat="53.102303" lon="06.061465"><ele>-4.3</ele><time>2021-05-12T10:33:48Z</time><name>PT1538</name></trkpt>
<trkpt lat="53.102300" lon="06.061450"><ele>-4.3</ele><time>2021-05-12T10:33:49Z</time><name>PT1539</name></trkpt>
<trkpt lat="53.102299" lon="06.061433"><ele>-4.2</ele><time>2021-05-12T10:33:50Z</time><name>PT1540</name></trkpt>
<trkpt lat="53.102295" lon="06.061419"><ele>-4.1</ele><time>2021-05-12T10:33:51Z</time><name>PT1541</name></trkpt>
<trkpt lat="53.102290" lon="06.061400"><ele>-4.1</ele><time>2021-05-12T10:33:52Z</time><name>PT1542</name></trkpt>
<trkpt lat="53.102283" lon="06.061381"><ele>-4</ele><time>2021-05-12T10:33:53Z</time><name>PT1543</name></trkpt>
<trkpt lat="53.102279" lon="06.061361"><ele>-4</ele><time>2021-05-12T10:33:54Z</time><name>PT1544</name></trkpt>
<trkpt lat="53.102271" lon="06.061347"><ele>-4.1</ele><time>2021-05-12T10:33:55Z</time><name>PT1545</name></trkpt>
<trkpt lat="53.102262" lon="06.061336"><ele>-4.1</ele><time>2021-05-12T10:33:56Z</time><name>PT1546</name></trkpt>
<trkpt lat="53.102250" lon="06.061317"><ele>-4.1</ele><time>2021-05-12T10:33:57Z</time><name>PT1547</name></trkpt>
<trkpt lat="53.102237" lon="06.061303"><ele>-4.1</ele><time>2021-05-12T10:33:58Z</time><name>PT1548</name></trkpt>
<trkpt lat="53.102226" lon="06.061290"><ele>-4.2</ele><time>2021-05-12T10:33:59Z</time><name>PT1549</name></trkpt>
<trkpt lat="53.102213" lon="06.061283"><ele>-4.2</ele><time>2021-05-12T10:34:00Z</time><name>PT1550</name></trkpt>
<trkpt lat="53.102199" lon="06.061274"><ele>-4.2</ele><time>2021-05-12T10:34:01Z</time><name>PT1551</name></trkpt>
<trkpt lat="53.102188" lon="06.061265"><ele>-4.3</ele><time>2021-05-12T10:34:02Z</time><name>PT1552</name></trkpt>
<trkpt lat="53.102178" lon="06.061253"><ele>-4.3</ele><time>2021-05-12T10:34:04Z</time><name>PT1553</name></trkpt>
<trkpt lat="53.102167" lon="06.061249"><ele>-4.3</ele><time>2021-05-12T10:34:04Z</time><name>PT1554</name></trkpt>
<trkpt lat="53.102158" lon="06.061244"><ele>-4.4</ele><time>2021-05-12T10:34:05Z</time><name>PT1555</name></trkpt>
<trkpt lat="53.102148" lon="06.061238"><ele>-4.7</ele><time>2021-05-12T10:34:06Z</time><name>PT1556</name></trkpt>
<trkpt lat="53.102139" lon="06.061229"><ele>-4.7</ele><time>2021-05-12T10:34:07Z</time><name>PT1557</name></trkpt>
<trkpt lat="53.102129" lon="06.061224"><ele>-4.7</ele><time>2021-05-12T10:34:08Z</time><name>PT1558</name></trkpt>
<trkpt lat="53.102120" lon="06.061219"><ele>-4.7</ele><time>2021-05-12T10:34:09Z</time><name>PT1559</name></trkpt>
<trkpt lat="53.102111" lon="06.061211"><ele>-4.7</ele><time>2021-05-12T10:34:10Z</time><name>PT1560</name></trkpt>
<trkpt lat="53.102101" lon="06.061196"><ele>-4.6</ele><time>2021-05-12T10:34:11Z</time><name>PT1561</name></trkpt>
<trkpt lat="53.102094" lon="06.061180"><ele>-4.6</ele><time>2021-05-12T10:34:12Z</time><name>PT1562</name></trkpt>
<trkpt lat="53.102084" lon="06.061166"><ele>-4.5</ele><time>2021-05-12T10:34:13Z</time><name>PT1563</name></trkpt>
<trkpt lat="53.102074" lon="06.061151"><ele>-4.3</ele><time>2021-05-12T10:34:14Z</time><name>PT1564</name></trkpt>
<trkpt lat="53.102064" lon="06.061140"><ele>-4.1</ele><time>2021-05-12T10:34:15Z</time><name>PT1565</name></trkpt>
<trkpt lat="53.102057" lon="06.061128"><ele>-4.1</ele><time>2021-05-12T10:34:16Z</time><name>PT1566</name></trkpt>
<trkpt lat="53.102050" lon="06.061111"><ele>-4</ele><time>2021-05-12T10:34:17Z</time><name>PT1567</name></trkpt>
<trkpt lat="53.102043" lon="06.061096"><ele>-4</ele><time>2021-05-12T10:34:18Z</time><name>PT1568</name></trkpt>
<trkpt lat="53.102036" lon="06.061079"><ele>-4</ele><time>2021-05-12T10:34:19Z</time><name>PT1569</name></trkpt>
<trkpt lat="53.102030" lon="06.061060"><ele>-4</ele><time>2021-05-12T10:34:20Z</time><name>PT1570</name></trkpt>
<trkpt lat="53.102024" lon="06.061044"><ele>-4.1</ele><time>2021-05-12T10:34:21Z</time><name>PT1571</name></trkpt>
<trkpt lat="53.102018" lon="06.061027"><ele>-4.1</ele><time>2021-05-12T10:34:22Z</time><name>PT1572</name></trkpt>
<trkpt lat="53.102011" lon="06.061010"><ele>-4</ele><time>2021-05-12T10:34:23Z</time><name>PT1573</name></trkpt>
<trkpt lat="53.102004" lon="06.060985"><ele>-4</ele><time>2021-05-12T10:34:24Z</time><name>PT1574</name></trkpt>
<trkpt lat="53.101998" lon="06.060961"><ele>-4.1</ele><time>2021-05-12T10:34:25Z</time><name>PT1575</name></trkpt>
<trkpt lat="53.101990" lon="06.060938"><ele>-4</ele><time>2021-05-12T10:34:26Z</time><name>PT1576</name></trkpt>
<trkpt lat="53.101986" lon="06.060918"><ele>-3.8</ele><time>2021-05-12T10:34:27Z</time><name>PT1577</name></trkpt>
<trkpt lat="53.101980" lon="06.060897"><ele>-3.7</ele><time>2021-05-12T10:34:28Z</time><name>PT1578</name></trkpt>
<trkpt lat="53.101975" lon="06.060878"><ele>-3.6</ele><time>2021-05-12T10:34:29Z</time><name>PT1579</name></trkpt>
<trkpt lat="53.101971" lon="06.060868"><ele>-3.6</ele><time>2021-05-12T10:34:30Z</time><name>PT1580</name></trkpt>
<trkpt lat="53.101970" lon="06.060849"><ele>-3.6</ele><time>2021-05-12T10:34:31Z</time><name>PT1581</name></trkpt>
<trkpt lat="53.101967" lon="06.060833"><ele>-3.8</ele><time>2021-05-12T10:34:32Z</time><name>PT1582</name></trkpt>
<trkpt lat="53.101964" lon="06.060816"><ele>-4</ele><time>2021-05-12T10:34:33Z</time><name>PT1583</name></trkpt>
<trkpt lat="53.101962" lon="06.060802"><ele>-4</ele><time>2021-05-12T10:34:34Z</time><name>PT1584</name></trkpt>
<trkpt lat="53.101961" lon="06.060780"><ele>-4.1</ele><time>2021-05-12T10:34:35Z</time><name>PT1585</name></trkpt>
<trkpt lat="53.101957" lon="06.060756"><ele>-4.1</ele><time>2021-05-12T10:34:36Z</time><name>PT1586</name></trkpt>
<trkpt lat="53.101948" lon="06.060732"><ele>-4</ele><time>2021-05-12T10:34:37Z</time><name>PT1587</name></trkpt>
<trkpt lat="53.101941" lon="06.060702"><ele>-3.7</ele><time>2021-05-12T10:34:38Z</time><name>PT1588</name></trkpt>
<trkpt lat="53.101934" lon="06.060678"><ele>-3.7</ele><time>2021-05-12T10:34:39Z</time><name>PT1589</name></trkpt>
<trkpt lat="53.101930" lon="06.060660"><ele>-3.6</ele><time>2021-05-12T10:34:40Z</time><name>PT1590</name></trkpt>
<trkpt lat="53.101922" lon="06.060648"><ele>-3.8</ele><time>2021-05-12T10:34:41Z</time><name>PT1591</name></trkpt>
<trkpt lat="53.101912" lon="06.060637"><ele>-4.1</ele><time>2021-05-12T10:34:42Z</time><name>PT1592</name></trkpt>
<trkpt lat="53.101903" lon="06.060630"><ele>-4.1</ele><time>2021-05-12T10:34:43Z</time><name>PT1593</name></trkpt>
<trkpt lat="53.101888" lon="06.060626"><ele>-4.1</ele><time>2021-05-12T10:34:44Z</time><name>PT1594</name></trkpt>
<trkpt lat="53.101881" lon="06.060620"><ele>-4.4</ele><time>2021-05-12T10:34:45Z</time><name>PT1595</name></trkpt>
<trkpt lat="53.101873" lon="06.060614"><ele>-4.4</ele><time>2021-05-12T10:34:46Z</time><name>PT1596</name></trkpt>
<trkpt lat="53.101861" lon="06.060610"><ele>-4.4</ele><time>2021-05-12T10:34:47Z</time><name>PT1597</name></trkpt>
<trkpt lat="53.101851" lon="06.060604"><ele>-4.6</ele><time>2021-05-12T10:34:48Z</time><name>PT1598</name></trkpt>
<trkpt lat="53.101841" lon="06.060603"><ele>-4.5</ele><time>2021-05-12T10:34:49Z</time><name>PT1599</name></trkpt>
<trkpt lat="53.101833" lon="06.060599"><ele>-4.4</ele><time>2021-05-12T10:34:50Z</time><name>PT1600</name></trkpt>
<trkpt lat="53.101826" lon="06.060597"><ele>-4.2</ele><time>2021-05-12T10:34:51Z</time><name>PT1601</name></trkpt>
<trkpt lat="53.101815" lon="06.060596"><ele>-4.1</ele><time>2021-05-12T10:34:52Z</time><name>PT1602</name></trkpt>
<trkpt lat="53.101805" lon="06.060593"><ele>-4.1</ele><time>2021-05-12T10:34:53Z</time><name>PT1603</name></trkpt>
<trkpt lat="53.101795" lon="06.060589"><ele>-4.2</ele><time>2021-05-12T10:34:54Z</time><name>PT1604</name></trkpt>
<trkpt lat="53.101780" lon="06.060590"><ele>-4.1</ele><time>2021-05-12T10:34:55Z</time><name>PT1605</name></trkpt>
<trkpt lat="53.101761" lon="06.060589"><ele>-4.1</ele><time>2021-05-12T10:34:56Z</time><name>PT1606</name></trkpt>
<trkpt lat="53.101745" lon="06.060586"><ele>-4.1</ele><time>2021-05-12T10:34:57Z</time><name>PT1607</name></trkpt>
<trkpt lat="53.101729" lon="06.060581"><ele>-4.1</ele><time>2021-05-12T10:34:58Z</time><name>PT1608</name></trkpt>
<trkpt lat="53.101715" lon="06.060579"><ele>-4.1</ele><time>2021-05-12T10:34:59Z</time><name>PT1609</name></trkpt>
<trkpt lat="53.101701" lon="06.060571"><ele>-4.2</ele><time>2021-05-12T10:35:00Z</time><name>PT1610</name></trkpt>
<trkpt lat="53.101689" lon="06.060564"><ele>-4.3</ele><time>2021-05-12T10:35:01Z</time><name>PT1611</name></trkpt>
<trkpt lat="53.101678" lon="06.060554"><ele>-4.3</ele><time>2021-05-12T10:35:02Z</time><name>PT1612</name></trkpt>
<trkpt lat="53.101670" lon="06.060545"><ele>-4.6</ele><time>2021-05-12T10:35:03Z</time><name>PT1613</name></trkpt>
<trkpt lat="53.101663" lon="06.060538"><ele>-4.6</ele><time>2021-05-12T10:35:04Z</time><name>PT1614</name></trkpt>
<trkpt lat="53.101657" lon="06.060529"><ele>-4.6</ele><time>2021-05-12T10:35:05Z</time><name>PT1615</name></trkpt>
<trkpt lat="53.101652" lon="06.060519"><ele>-4.7</ele><time>2021-05-12T10:35:06Z</time><name>PT1616</name></trkpt>
<trkpt lat="53.101648" lon="06.060510"><ele>-4.6</ele><time>2021-05-12T10:35:07Z</time><name>PT1617</name></trkpt>
<trkpt lat="53.101646" lon="06.060500"><ele>-4.6</ele><time>2021-05-12T10:35:08Z</time><name>PT1618</name></trkpt>
<trkpt lat="53.101644" lon="06.060486"><ele>-4.3</ele><time>2021-05-12T10:35:09Z</time><name>PT1619</name></trkpt>
<trkpt lat="53.101642" lon="06.060475"><ele>-4.3</ele><time>2021-05-12T10:35:10Z</time><name>PT1620</name></trkpt>
<trkpt lat="53.101641" lon="06.060459"><ele>-4.2</ele><time>2021-05-12T10:35:11Z</time><name>PT1621</name></trkpt>
<trkpt lat="53.101641" lon="06.060442"><ele>-4.2</ele><time>2021-05-12T10:35:12Z</time><name>PT1622</name></trkpt>
<trkpt lat="53.101637" lon="06.060421"><ele>-4.3</ele><time>2021-05-12T10:35:13Z</time><name>PT1623</name></trkpt>
<trkpt lat="53.101635" lon="06.060401"><ele>-4.4</ele><time>2021-05-12T10:35:14Z</time><name>PT1624</name></trkpt>
<trkpt lat="53.101632" lon="06.060383"><ele>-4.4</ele><time>2021-05-12T10:35:15Z</time><name>PT1625</name></trkpt>
<trkpt lat="53.101627" lon="06.060361"><ele>-4.4</ele><time>2021-05-12T10:35:16Z</time><name>PT1626</name></trkpt>
<trkpt lat="53.101621" lon="06.060342"><ele>-4.6</ele><time>2021-05-12T10:35:17Z</time><name>PT1627</name></trkpt>
<trkpt lat="53.101618" lon="06.060329"><ele>-4.4</ele><time>2021-05-12T10:35:18Z</time><name>PT1628</name></trkpt>
<trkpt lat="53.101612" lon="06.060322"><ele>-4.5</ele><time>2021-05-12T10:35:19Z</time><name>PT1629</name></trkpt>
<trkpt lat="53.101604" lon="06.060316"><ele>-4.6</ele><time>2021-05-12T10:35:20Z</time><name>PT1630</name></trkpt>
<trkpt lat="53.101595" lon="06.060316"><ele>-4.5</ele><time>2021-05-12T10:35:21Z</time><name>PT1631</name></trkpt>
<trkpt lat="53.101588" lon="06.060317"><ele>-4.5</ele><time>2021-05-12T10:35:22Z</time><name>PT1632</name></trkpt>
<trkpt lat="53.101580" lon="06.060314"><ele>-4.6</ele><time>2021-05-12T10:35:23Z</time><name>PT1633</name></trkpt>
<trkpt lat="53.101570" lon="06.060308"><ele>-4.5</ele><time>2021-05-12T10:35:24Z</time><name>PT1634</name></trkpt>
<trkpt lat="53.101563" lon="06.060306"><ele>-4.4</ele><time>2021-05-12T10:35:25Z</time><name>PT1635</name></trkpt>
<trkpt lat="53.101550" lon="06.060296"><ele>-4.4</ele><time>2021-05-12T10:35:26Z</time><name>PT1636</name></trkpt>
<trkpt lat="53.101543" lon="06.060281"><ele>-4.4</ele><time>2021-05-12T10:35:27Z</time><name>PT1637</name></trkpt>
<trkpt lat="53.101532" lon="06.060269"><ele>-4.4</ele><time>2021-05-12T10:35:28Z</time><name>PT1638</name></trkpt>
<trkpt lat="53.101517" lon="06.060261"><ele>-4.2</ele><time>2021-05-12T10:35:29Z</time><name>PT1639</name></trkpt>
<trkpt lat="53.101503" lon="06.060258"><ele>-4.1</ele><time>2021-05-12T10:35:30Z</time><name>PT1640</name></trkpt>
<trkpt lat="53.101493" lon="06.060256"><ele>-4.1</ele><time>2021-05-12T10:35:31Z</time><name>PT1641</name></trkpt>
<trkpt lat="53.101484" lon="06.060240"><ele>-4.1</ele><time>2021-05-12T10:35:32Z</time><name>PT1642</name></trkpt>
<trkpt lat="53.101471" lon="06.060230"><ele>-4.4</ele><time>2021-05-12T10:35:33Z</time><name>PT1643</name></trkpt>
<trkpt lat="53.101461" lon="06.060225"><ele>-4.3</ele><time>2021-05-12T10:35:34Z</time><name>PT1644</name></trkpt>
<trkpt lat="53.101451" lon="06.060221"><ele>-4.6</ele><time>2021-05-12T10:35:35Z</time><name>PT1645</name></trkpt>
<trkpt lat="53.101441" lon="06.060214"><ele>-4.5</ele><time>2021-05-12T10:35:36Z</time><name>PT1646</name></trkpt>
<trkpt lat="53.101432" lon="06.060214"><ele>-4.5</ele><time>2021-05-12T10:35:37Z</time><name>PT1647</name></trkpt>
<trkpt lat="53.101422" lon="06.060205"><ele>-4.4</ele><time>2021-05-12T10:35:38Z</time><name>PT1648</name></trkpt>
<trkpt lat="53.101413" lon="06.060200"><ele>-4.1</ele><time>2021-05-12T10:35:39Z</time><name>PT1649</name></trkpt>
<trkpt lat="53.101403" lon="06.060195"><ele>-4.2</ele><time>2021-05-12T10:35:40Z</time><name>PT1650</name></trkpt>
<trkpt lat="53.101395" lon="06.060193"><ele>-4.3</ele><time>2021-05-12T10:35:41Z</time><name>PT1651</name></trkpt>
<trkpt lat="53.101386" lon="06.060193"><ele>-4.3</ele><time>2021-05-12T10:35:42Z</time><name>PT1652</name></trkpt>
<trkpt lat="53.101377" lon="06.060190"><ele>-4.3</ele><time>2021-05-12T10:35:43Z</time><name>PT1653</name></trkpt>
<trkpt lat="53.101364" lon="06.060190"><ele>-4.3</ele><time>2021-05-12T10:35:44Z</time><name>PT1654</name></trkpt>
<trkpt lat="53.101348" lon="06.060187"><ele>-4.1</ele><time>2021-05-12T10:35:45Z</time><name>PT1655</name></trkpt>
<trkpt lat="53.101332" lon="06.060186"><ele>-4.3</ele><time>2021-05-12T10:35:46Z</time><name>PT1656</name></trkpt>
<trkpt lat="53.101318" lon="06.060192"><ele>-4.5</ele><time>2021-05-12T10:35:47Z</time><name>PT1657</name></trkpt>
<trkpt lat="53.101306" lon="06.060196"><ele>-4.8</ele><time>2021-05-12T10:35:48Z</time><name>PT1658</name></trkpt>
<trkpt lat="53.101295" lon="06.060211"><ele>-5</ele><time>2021-05-12T10:35:49Z</time><name>PT1659</name></trkpt>
<trkpt lat="53.101283" lon="06.060215"><ele>-5.7</ele><time>2021-05-12T10:35:50Z</time><name>PT1660</name></trkpt>
<trkpt lat="53.101274" lon="06.060218"><ele>-5.6</ele><time>2021-05-12T10:35:52Z</time><name>PT1661</name></trkpt>
<trkpt lat="53.101263" lon="06.060221"><ele>-5.6</ele><time>2021-05-12T10:35:52Z</time><name>PT1662</name></trkpt>
<trkpt lat="53.101246" lon="06.060229"><ele>-4.6</ele><time>2021-05-12T10:35:53Z</time><name>PT1663</name></trkpt>
<trkpt lat="53.101238" lon="06.060233"><ele>-3.6</ele><time>2021-05-12T10:35:55Z</time><name>PT1664</name></trkpt>
<trkpt lat="53.101233" lon="06.060233"><ele>-3.1</ele><time>2021-05-12T10:35:55Z</time><name>PT1665</name></trkpt>
<trkpt lat="53.101230" lon="06.060233"><ele>-3.5</ele><time>2021-05-12T10:35:56Z</time><name>PT1666</name></trkpt>
<trkpt lat="53.101226" lon="06.060234"><ele>-3.8</ele><time>2021-05-12T10:35:58Z</time><name>PT1667</name></trkpt>
<trkpt lat="53.101219" lon="06.060232"><ele>-4</ele><time>2021-05-12T10:35:58Z</time><name>PT1668</name></trkpt>
<trkpt lat="53.101211" lon="06.060226"><ele>-4.4</ele><time>2021-05-12T10:35:59Z</time><name>PT1669</name></trkpt>
<trkpt lat="53.101202" lon="06.060223"><ele>-4.6</ele><time>2021-05-12T10:36:00Z</time><name>PT1670</name></trkpt>
<trkpt lat="53.101187" lon="06.060220"><ele>-4.6</ele><time>2021-05-12T10:36:01Z</time><name>PT1671</name></trkpt>
<trkpt lat="53.101176" lon="06.060217"><ele>-4.6</ele><time>2021-05-12T10:36:02Z</time><name>PT1672</name></trkpt>
<trkpt lat="53.101162" lon="06.060217"><ele>-5</ele><time>2021-05-12T10:36:03Z</time><name>PT1673</name></trkpt>
<trkpt lat="53.101146" lon="06.060213"><ele>-5</ele><time>2021-05-12T10:36:04Z</time><name>PT1674</name></trkpt>
<trkpt lat="53.101130" lon="06.060208"><ele>-4.9</ele><time>2021-05-12T10:36:05Z</time><name>PT1675</name></trkpt>
<trkpt lat="53.101115" lon="06.060205"><ele>-5.1</ele><time>2021-05-12T10:36:06Z</time><name>PT1676</name></trkpt>
<trkpt lat="53.101096" lon="06.060202"><ele>-5.1</ele><time>2021-05-12T10:36:07Z</time><name>PT1677</name></trkpt>
<trkpt lat="53.101074" lon="06.060196"><ele>-5</ele><time>2021-05-12T10:36:08Z</time><name>PT1678</name></trkpt>
<trkpt lat="53.101057" lon="06.060192"><ele>-5</ele><time>2021-05-12T10:36:10Z</time><name>PT1679</name></trkpt>
<trkpt lat="53.101047" lon="06.060189"><ele>-5.1</ele><time>2021-05-12T10:36:10Z</time><name>PT1680</name></trkpt>
<trkpt lat="53.101038" lon="06.060188"><ele>-5.1</ele><time>2021-05-12T10:36:11Z</time><name>PT1681</name></trkpt>
<trkpt lat="53.101029" lon="06.060188"><ele>-5.1</ele><time>2021-05-12T10:36:12Z</time><name>PT1682</name></trkpt>
<trkpt lat="53.101019" lon="06.060188"><ele>-5.2</ele><time>2021-05-12T10:36:13Z</time><name>PT1683</name></trkpt>
<trkpt lat="53.101008" lon="06.060189"><ele>-5.1</ele><time>2021-05-12T10:36:14Z</time><name>PT1684</name></trkpt>
<trkpt lat="53.101004" lon="06.060190"><ele>-5.1</ele><time>2021-05-12T10:36:15Z</time><name>PT1685</name></trkpt>
<trkpt lat="53.100995" lon="06.060189"><ele>-4.9</ele><time>2021-05-12T10:36:16Z</time><name>PT1686</name></trkpt>
<trkpt lat="53.100988" lon="06.060192"><ele>-4.8</ele><time>2021-05-12T10:36:17Z</time><name>PT1687</name></trkpt>
<trkpt lat="53.100980" lon="06.060191"><ele>-4.9</ele><time>2021-05-12T10:36:18Z</time><name>PT1688</name></trkpt>
<trkpt lat="53.100967" lon="06.060187"><ele>-4.7</ele><time>2021-05-12T10:36:19Z</time><name>PT1689</name></trkpt>
<trkpt lat="53.100955" lon="06.060183"><ele>-4.9</ele><time>2021-05-12T10:36:20Z</time><name>PT1690</name></trkpt>
<trkpt lat="53.100948" lon="06.060180"><ele>-4.9</ele><time>2021-05-12T10:36:21Z</time><name>PT1691</name></trkpt>
<trkpt lat="53.100938" lon="06.060180"><ele>-5</ele><time>2021-05-12T10:36:22Z</time><name>PT1692</name></trkpt>
<trkpt lat="53.100928" lon="06.060185"><ele>-4.9</ele><time>2021-05-12T10:36:23Z</time><name>PT1693</name></trkpt>
<trkpt lat="53.100916" lon="06.060192"><ele>-5.1</ele><time>2021-05-12T10:36:25Z</time><name>PT1694</name></trkpt>
<trkpt lat="53.100902" lon="06.060205"><ele>-5.1</ele><time>2021-05-12T10:36:25Z</time><name>PT1695</name></trkpt>
<trkpt lat="53.100888" lon="06.060217"><ele>-5.2</ele><time>2021-05-12T10:36:26Z</time><name>PT1696</name></trkpt>
<trkpt lat="53.100876" lon="06.060233"><ele>-5.2</ele><time>2021-05-12T10:36:27Z</time><name>PT1697</name></trkpt>
<trkpt lat="53.100865" lon="06.060248"><ele>-5.3</ele><time>2021-05-12T10:36:28Z</time><name>PT1698</name></trkpt>
<trkpt lat="53.100857" lon="06.060259"><ele>-5.2</ele><time>2021-05-12T10:36:29Z</time><name>PT1699</name></trkpt>
<trkpt lat="53.100851" lon="06.060267"><ele>-5.2</ele><time>2021-05-12T10:36:30Z</time><name>PT1700</name></trkpt>
<trkpt lat="53.100841" lon="06.060269"><ele>-5.2</ele><time>2021-05-12T10:36:31Z</time><name>PT1701</name></trkpt>
<trkpt lat="53.100835" lon="06.060264"><ele>-5.1</ele><time>2021-05-12T10:36:32Z</time><name>PT1702</name></trkpt>
<trkpt lat="53.100828" lon="06.060260"><ele>-5.3</ele><time>2021-05-12T10:36:33Z</time><name>PT1703</name></trkpt>
<trkpt lat="53.100817" lon="06.060259"><ele>-5.2</ele><time>2021-05-12T10:36:34Z</time><name>PT1704</name></trkpt>
<trkpt lat="53.100811" lon="06.060259"><ele>-5.4</ele><time>2021-05-12T10:36:35Z</time><name>PT1705</name></trkpt>
<trkpt lat="53.100789" lon="06.060259"><ele>-5.4</ele><time>2021-05-12T10:36:36Z</time><name>PT1706</name></trkpt>
<trkpt lat="53.100774" lon="06.060256"><ele>-5.5</ele><time>2021-05-12T10:36:37Z</time><name>PT1707</name></trkpt>
<trkpt lat="53.100764" lon="06.060257"><ele>-5.6</ele><time>2021-05-12T10:36:38Z</time><name>PT1708</name></trkpt>
<trkpt lat="53.100745" lon="06.060257"><ele>-5.3</ele><time>2021-05-12T10:36:40Z</time><name>PT1709</name></trkpt>
<trkpt lat="53.100723" lon="06.060254"><ele>-5.3</ele><time>2021-05-12T10:36:40Z</time><name>PT1710</name></trkpt>
<trkpt lat="53.100711" lon="06.060255"><ele>-5.4</ele><time>2021-05-12T10:36:41Z</time><name>PT1711</name></trkpt>
<trkpt lat="53.100702" lon="06.060256"><ele>-5.1</ele><time>2021-05-12T10:36:42Z</time><name>PT1712</name></trkpt>
<trkpt lat="53.100688" lon="06.060255"><ele>-5.1</ele><time>2021-05-12T10:36:43Z</time><name>PT1713</name></trkpt>
<trkpt lat="53.100677" lon="06.060256"><ele>-5.1</ele><time>2021-05-12T10:36:44Z</time><name>PT1714</name></trkpt>
<trkpt lat="53.100662" lon="06.060251"><ele>-5</ele><time>2021-05-12T10:36:45Z</time><name>PT1715</name></trkpt>
<trkpt lat="53.100649" lon="06.060244"><ele>-5</ele><time>2021-05-12T10:36:46Z</time><name>PT1716</name></trkpt>
<trkpt lat="53.100633" lon="06.060240"><ele>-5</ele><time>2021-05-12T10:36:47Z</time><name>PT1717</name></trkpt>
<trkpt lat="53.100616" lon="06.060235"><ele>-5.1</ele><time>2021-05-12T10:36:48Z</time><name>PT1718</name></trkpt>
<trkpt lat="53.100603" lon="06.060232"><ele>-5.2</ele><time>2021-05-12T10:36:49Z</time><name>PT1719</name></trkpt>
<trkpt lat="53.100590" lon="06.060229"><ele>-5.4</ele><time>2021-05-12T10:36:50Z</time><name>PT1720</name></trkpt>
<trkpt lat="53.100573" lon="06.060228"><ele>-5.2</ele><time>2021-05-12T10:36:51Z</time><name>PT1721</name></trkpt>
<trkpt lat="53.100555" lon="06.060229"><ele>-5.2</ele><time>2021-05-12T10:36:52Z</time><name>PT1722</name></trkpt>
<trkpt lat="53.100540" lon="06.060232"><ele>-5.4</ele><time>2021-05-12T10:36:53Z</time><name>PT1723</name></trkpt>
<trkpt lat="53.100533" lon="06.060238"><ele>-5.3</ele><time>2021-05-12T10:36:55Z</time><name>PT1724</name></trkpt>
<trkpt lat="53.100526" lon="06.060244"><ele>-5.2</ele><time>2021-05-12T10:36:55Z</time><name>PT1725</name></trkpt>
<trkpt lat="53.100521" lon="06.060253"><ele>-5.1</ele><time>2021-05-12T10:36:56Z</time><name>PT1726</name></trkpt>
<trkpt lat="53.100512" lon="06.060265"><ele>-5.3</ele><time>2021-05-12T10:36:57Z</time><name>PT1727</name></trkpt>
<trkpt lat="53.100502" lon="06.060277"><ele>-5.1</ele><time>2021-05-12T10:36:58Z</time><name>PT1728</name></trkpt>
<trkpt lat="53.100489" lon="06.060292"><ele>-5.2</ele><time>2021-05-12T10:36:59Z</time><name>PT1729</name></trkpt>
<trkpt lat="53.100474" lon="06.060309"><ele>-5.5</ele><time>2021-05-12T10:37:00Z</time><name>PT1730</name></trkpt>
<trkpt lat="53.100462" lon="06.060318"><ele>-5.5</ele><time>2021-05-12T10:37:01Z</time><name>PT1731</name></trkpt>
<trkpt lat="53.100448" lon="06.060324"><ele>-5.6</ele><time>2021-05-12T10:37:02Z</time><name>PT1732</name></trkpt>
<trkpt lat="53.100440" lon="06.060333"><ele>-5.5</ele><time>2021-05-12T10:37:03Z</time><name>PT1733</name></trkpt>
<trkpt lat="53.100434" lon="06.060338"><ele>-5.3</ele><time>2021-05-12T10:37:04Z</time><name>PT1734</name></trkpt>
<trkpt lat="53.100433" lon="06.060339"><ele>-5.3</ele><time>2021-05-12T10:37:05Z</time><name>PT1735</name></trkpt>
<trkpt lat="53.100427" lon="06.060330"><ele>-5.1</ele><time>2021-05-12T10:37:06Z</time><name>PT1736</name></trkpt>
<trkpt lat="53.100418" lon="06.060327"><ele>-4.9</ele><time>2021-05-12T10:37:07Z</time><name>PT1737</name></trkpt>
<trkpt lat="53.100403" lon="06.060321"><ele>-5</ele><time>2021-05-12T10:37:08Z</time><name>PT1738</name></trkpt>
<trkpt lat="53.100396" lon="06.060323"><ele>-5.1</ele><time>2021-05-12T10:37:09Z</time><name>PT1739</name></trkpt>
<trkpt lat="53.100389" lon="06.060326"><ele>-5.1</ele><time>2021-05-12T10:37:10Z</time><name>PT1740</name></trkpt>
<trkpt lat="53.100385" lon="06.060329"><ele>-5.1</ele><time>2021-05-12T10:37:11Z</time><name>PT1741</name></trkpt>
<trkpt lat="53.100382" lon="06.060335"><ele>-5.1</ele><time>2021-05-12T10:37:12Z</time><name>PT1742</name></trkpt>
<trkpt lat="53.100374" lon="06.060339"><ele>-5</ele><time>2021-05-12T10:37:13Z</time><name>PT1743</name></trkpt>
<trkpt lat="53.100362" lon="06.060341"><ele>-5.1</ele><time>2021-05-12T10:37:14Z</time><name>PT1744</name></trkpt>
<trkpt lat="53.100350" lon="06.060342"><ele>-5.1</ele><time>2021-05-12T10:37:15Z</time><name>PT1745</name></trkpt>
<trkpt lat="53.100327" lon="06.060336"><ele>-5.2</ele><time>2021-05-12T10:37:16Z</time><name>PT1746</name></trkpt>
<trkpt lat="53.100318" lon="06.060334"><ele>-5.1</ele><time>2021-05-12T10:37:17Z</time><name>PT1747</name></trkpt>
<trkpt lat="53.100312" lon="06.060332"><ele>-5.1</ele><time>2021-05-12T10:37:18Z</time><name>PT1748</name></trkpt>
<trkpt lat="53.100309" lon="06.060334"><ele>-5</ele><time>2021-05-12T10:37:19Z</time><name>PT1749</name></trkpt>
<trkpt lat="53.100308" lon="06.060336"><ele>-4.9</ele><time>2021-05-12T10:37:20Z</time><name>PT1750</name></trkpt>
<trkpt lat="53.100308" lon="06.060337"><ele>-4.6</ele><time>2021-05-12T10:37:24Z</time><name>PT1751</name></trkpt>
<trkpt lat="53.100304" lon="06.060338"><ele>-4.5</ele><time>2021-05-12T10:37:25Z</time><name>PT1752</name></trkpt>
<trkpt lat="53.100291" lon="06.060338"><ele>-4.7</ele><time>2021-05-12T10:37:26Z</time><name>PT1753</name></trkpt>
<trkpt lat="53.100282" lon="06.060349"><ele>-5.1</ele><time>2021-05-12T10:37:28Z</time><name>PT1754</name></trkpt>
<trkpt lat="53.100271" lon="06.060349"><ele>-5.1</ele><time>2021-05-12T10:37:28Z</time><name>PT1755</name></trkpt>
<trkpt lat="53.100263" lon="06.060344"><ele>-5.1</ele><time>2021-05-12T10:37:29Z</time><name>PT1756</name></trkpt>
<trkpt lat="53.100254" lon="06.060349"><ele>-5.1</ele><time>2021-05-12T10:37:30Z</time><name>PT1757</name></trkpt>
<trkpt lat="53.100245" lon="06.060352"><ele>-5</ele><time>2021-05-12T10:37:31Z</time><name>PT1758</name></trkpt>
<trkpt lat="53.100228" lon="06.060366"><ele>-5</ele><time>2021-05-12T10:37:32Z</time><name>PT1759</name></trkpt>
<trkpt lat="53.100214" lon="06.060369"><ele>-5</ele><time>2021-05-12T10:37:33Z</time><name>PT1760</name></trkpt>
<trkpt lat="53.100205" lon="06.060367"><ele>-5</ele><time>2021-05-12T10:37:34Z</time><name>PT1761</name></trkpt>
<trkpt lat="53.100200" lon="06.060363"><ele>-5</ele><time>2021-05-12T10:37:35Z</time><name>PT1762</name></trkpt>
<trkpt lat="53.100198" lon="06.060365"><ele>-5.1</ele><time>2021-05-12T10:37:36Z</time><name>PT1763</name></trkpt>
<trkpt lat="53.100200" lon="06.060368"><ele>-5.1</ele><time>2021-05-12T10:37:37Z</time><name>PT1764</name></trkpt>
<trkpt lat="53.100195" lon="06.060372"><ele>-5.6</ele><time>2021-05-12T10:37:43Z</time><name>PT1765</name></trkpt>
<trkpt lat="53.100185" lon="06.060388"><ele>-5.6</ele><time>2021-05-12T10:37:44Z</time><name>PT1766</name></trkpt>
<trkpt lat="53.100168" lon="06.060411"><ele>-5.7</ele><time>2021-05-12T10:37:45Z</time><name>PT1767</name></trkpt>
<trkpt lat="53.100157" lon="06.060434"><ele>-5.6</ele><time>2021-05-12T10:37:46Z</time><name>PT1768</name></trkpt>
<trkpt lat="53.100146" lon="06.060451"><ele>-5.6</ele><time>2021-05-12T10:37:47Z</time><name>PT1769</name></trkpt>
<trkpt lat="53.100141" lon="06.060474"><ele>-5.6</ele><time>2021-05-12T10:37:48Z</time><name>PT1770</name></trkpt>
<trkpt lat="53.100136" lon="06.060495"><ele>-5.6</ele><time>2021-05-12T10:37:49Z</time><name>PT1771</name></trkpt>
<trkpt lat="53.100136" lon="06.060517"><ele>-5.6</ele><time>2021-05-12T10:37:50Z</time><name>PT1772</name></trkpt>
<trkpt lat="53.100134" lon="06.060537"><ele>-5.7</ele><time>2021-05-12T10:37:51Z</time><name>PT1773</name></trkpt>
<trkpt lat="53.100133" lon="06.060550"><ele>-5.7</ele><time>2021-05-12T10:37:52Z</time><name>PT1774</name></trkpt>
<trkpt lat="53.100133" lon="06.060562"><ele>-5.8</ele><time>2021-05-12T10:37:53Z</time><name>PT1775</name></trkpt>
<trkpt lat="53.100132" lon="06.060574"><ele>-5.7</ele><time>2021-05-12T10:37:54Z</time><name>PT1776</name></trkpt>
<trkpt lat="53.100129" lon="06.060588"><ele>-5.6</ele><time>2021-05-12T10:37:55Z</time><name>PT1777</name></trkpt>
<trkpt lat="53.100125" lon="06.060601"><ele>-5.6</ele><time>2021-05-12T10:37:56Z</time><name>PT1778</name></trkpt>
<trkpt lat="53.100123" lon="06.060620"><ele>-5.4</ele><time>2021-05-12T10:37:57Z</time><name>PT1779</name></trkpt>
<trkpt lat="53.100120" lon="06.060642"><ele>-5.3</ele><time>2021-05-12T10:37:58Z</time><name>PT1780</name></trkpt>
<trkpt lat="53.100118" lon="06.060666"><ele>-5.4</ele><time>2021-05-12T10:37:59Z</time><name>PT1781</name></trkpt>
<trkpt lat="53.100117" lon="06.060687"><ele>-5.5</ele><time>2021-05-12T10:38:00Z</time><name>PT1782</name></trkpt>
<trkpt lat="53.100112" lon="06.060710"><ele>-5.4</ele><time>2021-05-12T10:38:01Z</time><name>PT1783</name></trkpt>
<trkpt lat="53.100107" lon="06.060726"><ele>-5.5</ele><time>2021-05-12T10:38:02Z</time><name>PT1784</name></trkpt>
<trkpt lat="53.100104" lon="06.060742"><ele>-5.4</ele><time>2021-05-12T10:38:03Z</time><name>PT1785</name></trkpt>
<trkpt lat="53.100103" lon="06.060753"><ele>-5.3</ele><time>2021-05-12T10:38:04Z</time><name>PT1786</name></trkpt>
<trkpt lat="53.100100" lon="06.060761"><ele>-5.2</ele><time>2021-05-12T10:38:05Z</time><name>PT1787</name></trkpt>
<trkpt lat="53.100099" lon="06.060771"><ele>-5.1</ele><time>2021-05-12T10:38:06Z</time><name>PT1788</name></trkpt>
<trkpt lat="53.100094" lon="06.060784"><ele>-5.1</ele><time>2021-05-12T10:38:07Z</time><name>PT1789</name></trkpt>
<trkpt lat="53.100085" lon="06.060807"><ele>-5.1</ele><time>2021-05-12T10:38:08Z</time><name>PT1790</name></trkpt>
<trkpt lat="53.100075" lon="06.060827"><ele>-5.1</ele><time>2021-05-12T10:38:09Z</time><name>PT1791</name></trkpt>
<trkpt lat="53.100065" lon="06.060842"><ele>-5.2</ele><time>2021-05-12T10:38:10Z</time><name>PT1792</name></trkpt>
<trkpt lat="53.100061" lon="06.060856"><ele>-5.2</ele><time>2021-05-12T10:38:11Z</time><name>PT1793</name></trkpt>
<trkpt lat="53.100058" lon="06.060869"><ele>-5.2</ele><time>2021-05-12T10:38:13Z</time><name>PT1794</name></trkpt>
<trkpt lat="53.100054" lon="06.060879"><ele>-5.3</ele><time>2021-05-12T10:38:13Z</time><name>PT1795</name></trkpt>
<trkpt lat="53.100044" lon="06.060893"><ele>-5.3</ele><time>2021-05-12T10:38:14Z</time><name>PT1796</name></trkpt>
<trkpt lat="53.100036" lon="06.060906"><ele>-5.3</ele><time>2021-05-12T10:38:15Z</time><name>PT1797</name></trkpt>
<trkpt lat="53.100025" lon="06.060912"><ele>-5.2</ele><time>2021-05-12T10:38:16Z</time><name>PT1798</name></trkpt>
<trkpt lat="53.100019" lon="06.060921"><ele>-5.2</ele><time>2021-05-12T10:38:17Z</time><name>PT1799</name></trkpt>
<trkpt lat="53.100013" lon="06.060929"><ele>-5.2</ele><time>2021-05-12T10:38:18Z</time><name>PT1800</name></trkpt>
<trkpt lat="53.100002" lon="06.060937"><ele>-5.3</ele><time>2021-05-12T10:38:19Z</time><name>PT1801</name></trkpt>
<trkpt lat="53.099995" lon="06.060952"><ele>-5.3</ele><time>2021-05-12T10:38:20Z</time><name>PT1802</name></trkpt>
<trkpt lat="53.099986" lon="06.060969"><ele>-5.6</ele><time>2021-05-12T10:38:21Z</time><name>PT1803</name></trkpt>
<trkpt lat="53.099969" lon="06.060979"><ele>-5.7</ele><time>2021-05-12T10:38:22Z</time><name>PT1804</name></trkpt>
<trkpt lat="53.099954" lon="06.060984"><ele>-5.6</ele><time>2021-05-12T10:38:23Z</time><name>PT1805</name></trkpt>
<trkpt lat="53.099948" lon="06.060995"><ele>-5.6</ele><time>2021-05-12T10:38:24Z</time><name>PT1806</name></trkpt>
<trkpt lat="53.099950" lon="06.061014"><ele>-5.6</ele><time>2021-05-12T10:38:25Z</time><name>PT1807</name></trkpt>
<trkpt lat="53.099950" lon="06.061031"><ele>-5.3</ele><time>2021-05-12T10:38:26Z</time><name>PT1808</name></trkpt>
<trkpt lat="53.099953" lon="06.061050"><ele>-5.3</ele><time>2021-05-12T10:38:28Z</time><name>PT1809</name></trkpt>
<trkpt lat="53.099949" lon="06.061063"><ele>-5.3</ele><time>2021-05-12T10:38:28Z</time><name>PT1810</name></trkpt>
<trkpt lat="53.099945" lon="06.061074"><ele>-5.1</ele><time>2021-05-12T10:38:29Z</time><name>PT1811</name></trkpt>
<trkpt lat="53.099943" lon="06.061084"><ele>-5.1</ele><time>2021-05-12T10:38:30Z</time><name>PT1812</name></trkpt>
<trkpt lat="53.099935" lon="06.061093"><ele>-5.1</ele><time>2021-05-12T10:38:31Z</time><name>PT1813</name></trkpt>
<trkpt lat="53.099927" lon="06.061107"><ele>-4.8</ele><time>2021-05-12T10:38:32Z</time><name>PT1814</name></trkpt>
<trkpt lat="53.099915" lon="06.061121"><ele>-4.8</ele><time>2021-05-12T10:38:34Z</time><name>PT1815</name></trkpt>
<trkpt lat="53.099905" lon="06.061128"><ele>-4.8</ele><time>2021-05-12T10:38:34Z</time><name>PT1816</name></trkpt>
<trkpt lat="53.099900" lon="06.061136"><ele>-4.6</ele><time>2021-05-12T10:38:35Z</time><name>PT1817</name></trkpt>
<trkpt lat="53.099895" lon="06.061139"><ele>-4.5</ele><time>2021-05-12T10:38:36Z</time><name>PT1818</name></trkpt>
<trkpt lat="53.099888" lon="06.061141"><ele>-4.4</ele><time>2021-05-12T10:38:37Z</time><name>PT1819</name></trkpt>
<trkpt lat="53.099885" lon="06.061143"><ele>-4.3</ele><time>2021-05-12T10:38:38Z</time><name>PT1820</name></trkpt>
<trkpt lat="53.099880" lon="06.061143"><ele>-4.1</ele><time>2021-05-12T10:38:39Z</time><name>PT1821</name></trkpt>
<trkpt lat="53.099873" lon="06.061147"><ele>-4.2</ele><time>2021-05-12T10:38:40Z</time><name>PT1822</name></trkpt>
<trkpt lat="53.099866" lon="06.061150"><ele>-4</ele><time>2021-05-12T10:38:41Z</time><name>PT1823</name></trkpt>
<trkpt lat="53.099868" lon="06.061141"><ele>-4</ele><time>2021-05-12T10:38:43Z</time><name>PT1824</name></trkpt>
<trkpt lat="53.099860" lon="06.061133"><ele>-4</ele><time>2021-05-12T10:38:43Z</time><name>PT1825</name></trkpt>
<trkpt lat="53.099853" lon="06.061127"><ele>-4.1</ele><time>2021-05-12T10:38:44Z</time><name>PT1826</name></trkpt>
<trkpt lat="53.099848" lon="06.061122"><ele>-4.1</ele><time>2021-05-12T10:38:45Z</time><name>PT1827</name></trkpt>
<trkpt lat="53.099844" lon="06.061111"><ele>-4</ele><time>2021-05-12T10:38:46Z</time><name>PT1828</name></trkpt>
<trkpt lat="53.099835" lon="06.061112"><ele>-4</ele><time>2021-05-12T10:38:47Z</time><name>PT1829</name></trkpt>
<trkpt lat="53.099830" lon="06.061105"><ele>-4.1</ele><time>2021-05-12T10:38:48Z</time><name>PT1830</name></trkpt>
<trkpt lat="53.099828" lon="06.061103"><ele>-4</ele><time>2021-05-12T10:38:49Z</time><name>PT1831</name></trkpt>
<trkpt lat="53.099824" lon="06.061096"><ele>-4</ele><time>2021-05-12T10:38:50Z</time><name>PT1832</name></trkpt>
<trkpt lat="53.099817" lon="06.061090"><ele>-3.9</ele><time>2021-05-12T10:38:51Z</time><name>PT1833</name></trkpt>
<trkpt lat="53.099813" lon="06.061086"><ele>-3.8</ele><time>2021-05-12T10:38:52Z</time><name>PT1834</name></trkpt>
<trkpt lat="53.099807" lon="06.061079"><ele>-3.4</ele><time>2021-05-12T10:38:53Z</time><name>PT1835</name></trkpt>
<trkpt lat="53.099802" lon="06.061071"><ele>-3.4</ele><time>2021-05-12T10:38:54Z</time><name>PT1836</name></trkpt>
<trkpt lat="53.099799" lon="06.061067"><ele>-3.4</ele><time>2021-05-12T10:38:55Z</time><name>PT1837</name></trkpt>
<trkpt lat="53.099799" lon="06.061055"><ele>-3.4</ele><time>2021-05-12T10:38:56Z</time><name>PT1838</name></trkpt>
<trkpt lat="53.099797" lon="06.061040"><ele>-3.7</ele><time>2021-05-12T10:38:58Z</time><name>PT1839</name></trkpt>
<trkpt lat="53.099793" lon="06.061030"><ele>-3.8</ele><time>2021-05-12T10:38:58Z</time><name>PT1840</name></trkpt>
<trkpt lat="53.099789" lon="06.061015"><ele>-3.7</ele><time>2021-05-12T10:38:59Z</time><name>PT1841</name></trkpt>
<trkpt lat="53.099782" lon="06.061001"><ele>-3.7</ele><time>2021-05-12T10:39:00Z</time><name>PT1842</name></trkpt>
<trkpt lat="53.099775" lon="06.060980"><ele>-3.6</ele><time>2021-05-12T10:39:01Z</time><name>PT1843</name></trkpt>
<trkpt lat="53.099765" lon="06.060955"><ele>-3.6</ele><time>2021-05-12T10:39:02Z</time><name>PT1844</name></trkpt>
<trkpt lat="53.099757" lon="06.060939"><ele>-3.6</ele><time>2021-05-12T10:39:03Z</time><name>PT1845</name></trkpt>
<trkpt lat="53.099753" lon="06.060927"><ele>-3.5</ele><time>2021-05-12T10:39:04Z</time><name>PT1846</name></trkpt>
<trkpt lat="53.099751" lon="06.060920"><ele>-3.6</ele><time>2021-05-12T10:39:05Z</time><name>PT1847</name></trkpt>
<trkpt lat="53.099752" lon="06.060919"><ele>-3.6</ele><time>2021-05-12T10:39:06Z</time><name>PT1848</name></trkpt>
<trkpt lat="53.099756" lon="06.060918"><ele>-3.6</ele><time>2021-05-12T10:39:07Z</time><name>PT1849</name></trkpt>
<trkpt lat="53.099752" lon="06.060914"><ele>-3.6</ele><time>2021-05-12T10:39:08Z</time><name>PT1850</name></trkpt>
<trkpt lat="53.099740" lon="06.060914"><ele>-3.6</ele><time>2021-05-12T10:39:09Z</time><name>PT1851</name></trkpt>
<trkpt lat="53.099724" lon="06.060910"><ele>-3.6</ele><time>2021-05-12T10:39:10Z</time><name>PT1852</name></trkpt>
<trkpt lat="53.099708" lon="06.060913"><ele>-3.4</ele><time>2021-05-12T10:39:11Z</time><name>PT1853</name></trkpt>
<trkpt lat="53.099695" lon="06.060914"><ele>-3.4</ele><time>2021-05-12T10:39:13Z</time><name>PT1854</name></trkpt>
<trkpt lat="53.099687" lon="06.060915"><ele>-3.3</ele><time>2021-05-12T10:39:13Z</time><name>PT1855</name></trkpt>
<trkpt lat="53.099676" lon="06.060914"><ele>-3.3</ele><time>2021-05-12T10:39:14Z</time><name>PT1856</name></trkpt>
<trkpt lat="53.099668" lon="06.060910"><ele>-3.5</ele><time>2021-05-12T10:39:15Z</time><name>PT1857</name></trkpt>
<trkpt lat="53.099662" lon="06.060900"><ele>-3.7</ele><time>2021-05-12T10:39:16Z</time><name>PT1858</name></trkpt>
<trkpt lat="53.099656" lon="06.060895"><ele>-3.7</ele><time>2021-05-12T10:39:17Z</time><name>PT1859</name></trkpt>
<trkpt lat="53.099650" lon="06.060887"><ele>-3.9</ele><time>2021-05-12T10:39:19Z</time><name>PT1860</name></trkpt>
<trkpt lat="53.099645" lon="06.060879"><ele>-3.9</ele><time>2021-05-12T10:39:19Z</time><name>PT1861</name></trkpt>
<trkpt lat="53.099640" lon="06.060873"><ele>-4</ele><time>2021-05-12T10:39:20Z</time><name>PT1862</name></trkpt>
<trkpt lat="53.099637" lon="06.060870"><ele>-4.1</ele><time>2021-05-12T10:39:22Z</time><name>PT1863</name></trkpt>
<trkpt lat="53.099632" lon="06.060874"><ele>-4.1</ele><time>2021-05-12T10:39:22Z</time><name>PT1864</name></trkpt>
<trkpt lat="53.099630" lon="06.060873"><ele>-3.9</ele><time>2021-05-12T10:39:23Z</time><name>PT1865</name></trkpt>
<trkpt lat="53.099628" lon="06.060875"><ele>-3.9</ele><time>2021-05-12T10:39:24Z</time><name>PT1866</name></trkpt>
<trkpt lat="53.099627" lon="06.060879"><ele>-3.8</ele><time>2021-05-12T10:39:25Z</time><name>PT1867</name></trkpt>
<trkpt lat="53.099620" lon="06.060842"><ele>-4</ele><time>2021-05-12T10:39:47Z</time><name>PT1868</name></trkpt>
<trkpt lat="53.099605" lon="06.060808"><ele>-4.1</ele><time>2021-05-12T10:39:48Z</time><name>PT1869</name></trkpt>
<trkpt lat="53.099596" lon="06.060788"><ele>-4.1</ele><time>2021-05-12T10:39:49Z</time><name>PT1870</name></trkpt>
<trkpt lat="53.099581" lon="06.060779"><ele>-4.2</ele><time>2021-05-12T10:39:50Z</time><name>PT1871</name></trkpt>
<trkpt lat="53.099572" lon="06.060775"><ele>-4.2</ele><time>2021-05-12T10:39:51Z</time><name>PT1872</name></trkpt>
<trkpt lat="53.099558" lon="06.060773"><ele>-4.2</ele><time>2021-05-12T10:39:52Z</time><name>PT1873</name></trkpt>
<trkpt lat="53.099548" lon="06.060759"><ele>-4.1</ele><time>2021-05-12T10:39:53Z</time><name>PT1874</name></trkpt>
<trkpt lat="53.099538" lon="06.060740"><ele>-4.1</ele><time>2021-05-12T10:39:54Z</time><name>PT1875</name></trkpt>
<trkpt lat="53.099528" lon="06.060728"><ele>-4.1</ele><time>2021-05-12T10:39:55Z</time><name>PT1876</name></trkpt>
<trkpt lat="53.099523" lon="06.060724"><ele>-4.1</ele><time>2021-05-12T10:39:56Z</time><name>PT1877</name></trkpt>
<trkpt lat="53.099519" lon="06.060722"><ele>-4.1</ele><time>2021-05-12T10:39:57Z</time><name>PT1878</name></trkpt>
<trkpt lat="53.099517" lon="06.060722"><ele>-4.1</ele><time>2021-05-12T10:39:58Z</time><name>PT1879</name></trkpt>
<trkpt lat="53.099514" lon="06.060716"><ele>-4.1</ele><time>2021-05-12T10:40:05Z</time><name>PT1880</name></trkpt>
<trkpt lat="53.099503" lon="06.060704"><ele>-4.1</ele><time>2021-05-12T10:40:06Z</time><name>PT1881</name></trkpt>
<trkpt lat="53.099489" lon="06.060682"><ele>-4.1</ele><time>2021-05-12T10:40:07Z</time><name>PT1882</name></trkpt>
<trkpt lat="53.099476" lon="06.060661"><ele>-4.1</ele><time>2021-05-12T10:40:08Z</time><name>PT1883</name></trkpt>
<trkpt lat="53.099458" lon="06.060640"><ele>-4.2</ele><time>2021-05-12T10:40:09Z</time><name>PT1884</name></trkpt>
<trkpt lat="53.099445" lon="06.060618"><ele>-4.1</ele><time>2021-05-12T10:40:10Z</time><name>PT1885</name></trkpt>
<trkpt lat="53.099434" lon="06.060601"><ele>-4.3</ele><time>2021-05-12T10:40:11Z</time><name>PT1886</name></trkpt>
<trkpt lat="53.099424" lon="06.060589"><ele>-4.1</ele><time>2021-05-12T10:40:12Z</time><name>PT1887</name></trkpt>
<trkpt lat="53.099415" lon="06.060571"><ele>-4.1</ele><time>2021-05-12T10:40:13Z</time><name>PT1888</name></trkpt>
<trkpt lat="53.099408" lon="06.060550"><ele>-4.2</ele><time>2021-05-12T10:40:14Z</time><name>PT1889</name></trkpt>
<trkpt lat="53.099408" lon="06.060531"><ele>-4.3</ele><time>2021-05-12T10:40:15Z</time><name>PT1890</name></trkpt>
<trkpt lat="53.099407" lon="06.060508"><ele>-4.3</ele><time>2021-05-12T10:40:16Z</time><name>PT1891</name></trkpt>
<trkpt lat="53.099407" lon="06.060489"><ele>-4.3</ele><time>2021-05-12T10:40:17Z</time><name>PT1892</name></trkpt>
<trkpt lat="53.099403" lon="06.060469"><ele>-4.1</ele><time>2021-05-12T10:40:18Z</time><name>PT1893</name></trkpt>
<trkpt lat="53.099402" lon="06.060449"><ele>-4</ele><time>2021-05-12T10:40:19Z</time><name>PT1894</name></trkpt>
<trkpt lat="53.099399" lon="06.060433"><ele>-4.1</ele><time>2021-05-12T10:40:20Z</time><name>PT1895</name></trkpt>
<trkpt lat="53.099395" lon="06.060421"><ele>-4</ele><time>2021-05-12T10:40:21Z</time><name>PT1896</name></trkpt>
<trkpt lat="53.099388" lon="06.060406"><ele>-4</ele><time>2021-05-12T10:40:22Z</time><name>PT1897</name></trkpt>
<trkpt lat="53.099381" lon="06.060393"><ele>-4.1</ele><time>2021-05-12T10:40:23Z</time><name>PT1898</name></trkpt>
<trkpt lat="53.099374" lon="06.060380"><ele>-3.9</ele><time>2021-05-12T10:40:24Z</time><name>PT1899</name></trkpt>
<trkpt lat="53.099370" lon="06.060367"><ele>-3.9</ele><time>2021-05-12T10:40:25Z</time><name>PT1900</name></trkpt>
<trkpt lat="53.099364" lon="06.060354"><ele>-3.9</ele><time>2021-05-12T10:40:26Z</time><name>PT1901</name></trkpt>
<trkpt lat="53.099358" lon="06.060345"><ele>-3.6</ele><time>2021-05-12T10:40:27Z</time><name>PT1902</name></trkpt>
<trkpt lat="53.099350" lon="06.060338"><ele>-3.6</ele><time>2021-05-12T10:40:28Z</time><name>PT1903</name></trkpt>
<trkpt lat="53.099342" lon="06.060335"><ele>-3.7</ele><time>2021-05-12T10:40:29Z</time><name>PT1904</name></trkpt>
<trkpt lat="53.099333" lon="06.060333"><ele>-3.5</ele><time>2021-05-12T10:40:30Z</time><name>PT1905</name></trkpt>
<trkpt lat="53.099326" lon="06.060330"><ele>-3.5</ele><time>2021-05-12T10:40:31Z</time><name>PT1906</name></trkpt>
<trkpt lat="53.099320" lon="06.060329"><ele>-3.7</ele><time>2021-05-12T10:40:32Z</time><name>PT1907</name></trkpt>
<trkpt lat="53.099308" lon="06.060327"><ele>-3.7</ele><time>2021-05-12T10:40:33Z</time><name>PT1908</name></trkpt>
<trkpt lat="53.099300" lon="06.060327"><ele>-3.8</ele><time>2021-05-12T10:40:34Z</time><name>PT1909</name></trkpt>
<trkpt lat="53.099290" lon="06.060325"><ele>-4.1</ele><time>2021-05-12T10:40:35Z</time><name>PT1910</name></trkpt>
<trkpt lat="53.099278" lon="06.060321"><ele>-4.2</ele><time>2021-05-12T10:40:36Z</time><name>PT1911</name></trkpt>
<trkpt lat="53.099268" lon="06.060318"><ele>-4.1</ele><time>2021-05-12T10:40:37Z</time><name>PT1912</name></trkpt>
<trkpt lat="53.099255" lon="06.060315"><ele>-4.2</ele><time>2021-05-12T10:40:38Z</time><name>PT1913</name></trkpt>
<trkpt lat="53.099239" lon="06.060309"><ele>-4.2</ele><time>2021-05-12T10:40:39Z</time><name>PT1914</name></trkpt>
<trkpt lat="53.099224" lon="06.060303"><ele>-4.2</ele><time>2021-05-12T10:40:40Z</time><name>PT1915</name></trkpt>
<trkpt lat="53.099208" lon="06.060301"><ele>-4.4</ele><time>2021-05-12T10:40:41Z</time><name>PT1916</name></trkpt>
<trkpt lat="53.099192" lon="06.060295"><ele>-4.5</ele><time>2021-05-12T10:40:42Z</time><name>PT1917</name></trkpt>
<trkpt lat="53.099172" lon="06.060288"><ele>-4.5</ele><time>2021-05-12T10:40:43Z</time><name>PT1918</name></trkpt>
<trkpt lat="53.099151" lon="06.060287"><ele>-4.6</ele><time>2021-05-12T10:40:44Z</time><name>PT1919</name></trkpt>
<trkpt lat="53.099139" lon="06.060279"><ele>-4.4</ele><time>2021-05-12T10:40:45Z</time><name>PT1920</name></trkpt>
<trkpt lat="53.099125" lon="06.060272"><ele>-4.3</ele><time>2021-05-12T10:40:46Z</time><name>PT1921</name></trkpt>
<trkpt lat="53.099111" lon="06.060275"><ele>-4.4</ele><time>2021-05-12T10:40:47Z</time><name>PT1922</name></trkpt>
<trkpt lat="53.099102" lon="06.060278"><ele>-4.5</ele><time>2021-05-12T10:40:48Z</time><name>PT1923</name></trkpt>
<trkpt lat="53.099095" lon="06.060282"><ele>-4.4</ele><time>2021-05-12T10:40:49Z</time><name>PT1924</name></trkpt>
<trkpt lat="53.099088" lon="06.060286"><ele>-4.6</ele><time>2021-05-12T10:40:50Z</time><name>PT1925</name></trkpt>
<trkpt lat="53.099080" lon="06.060288"><ele>-4.6</ele><time>2021-05-12T10:40:51Z</time><name>PT1926</name></trkpt>
<trkpt lat="53.099070" lon="06.060288"><ele>-4.5</ele><time>2021-05-12T10:40:52Z</time><name>PT1927</name></trkpt>
<trkpt lat="53.099061" lon="06.060286"><ele>-4.5</ele><time>2021-05-12T10:40:53Z</time><name>PT1928</name></trkpt>
<trkpt lat="53.099050" lon="06.060284"><ele>-4.2</ele><time>2021-05-12T10:40:54Z</time><name>PT1929</name></trkpt>
<trkpt lat="53.099039" lon="06.060280"><ele>-4.2</ele><time>2021-05-12T10:40:55Z</time><name>PT1930</name></trkpt>
<trkpt lat="53.099026" lon="06.060276"><ele>-4.5</ele><time>2021-05-12T10:40:56Z</time><name>PT1931</name></trkpt>
<trkpt lat="53.099013" lon="06.060267"><ele>-4.5</ele><time>2021-05-12T10:40:57Z</time><name>PT1932</name></trkpt>
<trkpt lat="53.099000" lon="06.060256"><ele>-4.4</ele><time>2021-05-12T10:40:58Z</time><name>PT1933</name></trkpt>
<trkpt lat="53.098985" lon="06.060250"><ele>-4.6</ele><time>2021-05-12T10:40:59Z</time><name>PT1934</name></trkpt>
<trkpt lat="53.098965" lon="06.060238"><ele>-4.6</ele><time>2021-05-12T10:41:01Z</time><name>PT1935</name></trkpt>
<trkpt lat="53.098943" lon="06.060235"><ele>-4.5</ele><time>2021-05-12T10:41:01Z</time><name>PT1936</name></trkpt>
<trkpt lat="53.098924" lon="06.060239"><ele>-4.6</ele><time>2021-05-12T10:41:02Z</time><name>PT1937</name></trkpt>
<trkpt lat="53.098906" lon="06.060237"><ele>-4.4</ele><time>2021-05-12T10:41:03Z</time><name>PT1938</name></trkpt>
<trkpt lat="53.098890" lon="06.060237"><ele>-4.4</ele><time>2021-05-12T10:41:04Z</time><name>PT1939</name></trkpt>
<trkpt lat="53.098876" lon="06.060236"><ele>-4.4</ele><time>2021-05-12T10:41:05Z</time><name>PT1940</name></trkpt>
<trkpt lat="53.098865" lon="06.060233"><ele>-4.3</ele><time>2021-05-12T10:41:06Z</time><name>PT1941</name></trkpt>
<trkpt lat="53.098853" lon="06.060232"><ele>-4.3</ele><time>2021-05-12T10:41:07Z</time><name>PT1942</name></trkpt>
<trkpt lat="53.098843" lon="06.060232"><ele>-4.5</ele><time>2021-05-12T10:41:08Z</time><name>PT1943</name></trkpt>
<trkpt lat="53.098831" lon="06.060232"><ele>-4.5</ele><time>2021-05-12T10:41:09Z</time><name>PT1944</name></trkpt>
<trkpt lat="53.098819" lon="06.060229"><ele>-4.5</ele><time>2021-05-12T10:41:10Z</time><name>PT1945</name></trkpt>
<trkpt lat="53.098810" lon="06.060223"><ele>-4.5</ele><time>2021-05-12T10:41:11Z</time><name>PT1946</name></trkpt>
<trkpt lat="53.098802" lon="06.060219"><ele>-4.4</ele><time>2021-05-12T10:41:12Z</time><name>PT1947</name></trkpt>
<trkpt lat="53.098796" lon="06.060215"><ele>-4.4</ele><time>2021-05-12T10:41:13Z</time><name>PT1948</name></trkpt>
<trkpt lat="53.098789" lon="06.060213"><ele>-4.4</ele><time>2021-05-12T10:41:14Z</time><name>PT1949</name></trkpt>
<trkpt lat="53.098788" lon="06.060214"><ele>-4.4</ele><time>2021-05-12T10:41:15Z</time><name>PT1950</name></trkpt>
<trkpt lat="53.098784" lon="06.060213"><ele>-4.4</ele><time>2021-05-12T10:41:16Z</time><name>PT1951</name></trkpt>
<trkpt lat="53.098776" lon="06.060212"><ele>-4.6</ele><time>2021-05-12T10:41:17Z</time><name>PT1952</name></trkpt>
<trkpt lat="53.098764" lon="06.060212"><ele>-4.6</ele><time>2021-05-12T10:41:18Z</time><name>PT1953</name></trkpt>
<trkpt lat="53.098752" lon="06.060212"><ele>-4.6</ele><time>2021-05-12T10:41:19Z</time><name>PT1954</name></trkpt>
<trkpt lat="53.098741" lon="06.060212"><ele>-4.6</ele><time>2021-05-12T10:41:20Z</time><name>PT1955</name></trkpt>
<trkpt lat="53.098730" lon="06.060207"><ele>-4.6</ele><time>2021-05-12T10:41:21Z</time><name>PT1956</name></trkpt>
<trkpt lat="53.098719" lon="06.060207"><ele>-4.6</ele><time>2021-05-12T10:41:22Z</time><name>PT1957</name></trkpt>
<trkpt lat="53.098708" lon="06.060204"><ele>-4.7</ele><time>2021-05-12T10:41:23Z</time><name>PT1958</name></trkpt>
<trkpt lat="53.098699" lon="06.060201"><ele>-4.9</ele><time>2021-05-12T10:41:24Z</time><name>PT1959</name></trkpt>
<trkpt lat="53.098688" lon="06.060197"><ele>-4.8</ele><time>2021-05-12T10:41:25Z</time><name>PT1960</name></trkpt>
<trkpt lat="53.098675" lon="06.060194"><ele>-4.9</ele><time>2021-05-12T10:41:26Z</time><name>PT1961</name></trkpt>
<trkpt lat="53.098657" lon="06.060181"><ele>-4.6</ele><time>2021-05-12T10:41:27Z</time><name>PT1962</name></trkpt>
<trkpt lat="53.098638" lon="06.060168"><ele>-4.6</ele><time>2021-05-12T10:41:28Z</time><name>PT1963</name></trkpt>
<trkpt lat="53.098619" lon="06.060154"><ele>-4.5</ele><time>2021-05-12T10:41:29Z</time><name>PT1964</name></trkpt>
<trkpt lat="53.098602" lon="06.060142"><ele>-4.6</ele><time>2021-05-12T10:41:31Z</time><name>PT1965</name></trkpt>
<trkpt lat="53.098591" lon="06.060131"><ele>-4.6</ele><time>2021-05-12T10:41:31Z</time><name>PT1966</name></trkpt>
<trkpt lat="53.098582" lon="06.060123"><ele>-4.7</ele><time>2021-05-12T10:41:32Z</time><name>PT1967</name></trkpt>
<trkpt lat="53.098571" lon="06.060119"><ele>-4.8</ele><time>2021-05-12T10:41:33Z</time><name>PT1968</name></trkpt>
<trkpt lat="53.098560" lon="06.060116"><ele>-4.8</ele><time>2021-05-12T10:41:34Z</time><name>PT1969</name></trkpt>
<trkpt lat="53.098552" lon="06.060115"><ele>-4.8</ele><time>2021-05-12T10:41:35Z</time><name>PT1970</name></trkpt>
<trkpt lat="53.098541" lon="06.060115"><ele>-4.9</ele><time>2021-05-12T10:41:36Z</time><name>PT1971</name></trkpt>
<trkpt lat="53.098532" lon="06.060113"><ele>-4.9</ele><time>2021-05-12T10:41:37Z</time><name>PT1972</name></trkpt>
<trkpt lat="53.098524" lon="06.060113"><ele>-4.9</ele><time>2021-05-12T10:41:38Z</time><name>PT1973</name></trkpt>
<trkpt lat="53.098517" lon="06.060107"><ele>-4.8</ele><time>2021-05-12T10:41:39Z</time><name>PT1974</name></trkpt>
<trkpt lat="53.098509" lon="06.060103"><ele>-4.6</ele><time>2021-05-12T10:41:40Z</time><name>PT1975</name></trkpt>
<trkpt lat="53.098498" lon="06.060088"><ele>-4.6</ele><time>2021-05-12T10:41:41Z</time><name>PT1976</name></trkpt>
<trkpt lat="53.098484" lon="06.060074"><ele>-4.4</ele><time>2021-05-12T10:41:42Z</time><name>PT1977</name></trkpt>
<trkpt lat="53.098472" lon="06.060063"><ele>-4.4</ele><time>2021-05-12T10:41:43Z</time><name>PT1978</name></trkpt>
<trkpt lat="53.098459" lon="06.060057"><ele>-4.2</ele><time>2021-05-12T10:41:44Z</time><name>PT1979</name></trkpt>
<trkpt lat="53.098452" lon="06.060051"><ele>-4.2</ele><time>2021-05-12T10:41:45Z</time><name>PT1980</name></trkpt>
<trkpt lat="53.098450" lon="06.060047"><ele>-4.1</ele><time>2021-05-12T10:41:46Z</time><name>PT1981</name></trkpt>
<trkpt lat="53.098448" lon="06.060051"><ele>-4.2</ele><time>2021-05-12T10:41:47Z</time><name>PT1982</name></trkpt>
<trkpt lat="53.098445" lon="06.060054"><ele>-4.3</ele><time>2021-05-12T10:41:48Z</time><name>PT1983</name></trkpt>
<trkpt lat="53.098435" lon="06.060052"><ele>-4.5</ele><time>2021-05-12T10:41:49Z</time><name>PT1984</name></trkpt>
<trkpt lat="53.098423" lon="06.060049"><ele>-4.4</ele><time>2021-05-12T10:41:50Z</time><name>PT1985</name></trkpt>
<trkpt lat="53.098409" lon="06.060044"><ele>-4.6</ele><time>2021-05-12T10:41:51Z</time><name>PT1986</name></trkpt>
<trkpt lat="53.098393" lon="06.060037"><ele>-4.6</ele><time>2021-05-12T10:41:52Z</time><name>PT1987</name></trkpt>
<trkpt lat="53.098376" lon="06.060032"><ele>-4.6</ele><time>2021-05-12T10:41:53Z</time><name>PT1988</name></trkpt>
<trkpt lat="53.098363" lon="06.060029"><ele>-4.6</ele><time>2021-05-12T10:41:54Z</time><name>PT1989</name></trkpt>
<trkpt lat="53.098351" lon="06.060028"><ele>-4.3</ele><time>2021-05-12T10:41:55Z</time><name>PT1990</name></trkpt>
<trkpt lat="53.098341" lon="06.060029"><ele>-4.4</ele><time>2021-05-12T10:41:56Z</time><name>PT1991</name></trkpt>
<trkpt lat="53.098332" lon="06.060032"><ele>-4.4</ele><time>2021-05-12T10:41:57Z</time><name>PT1992</name></trkpt>
<trkpt lat="53.098323" lon="06.060034"><ele>-4.5</ele><time>2021-05-12T10:41:58Z</time><name>PT1993</name></trkpt>
<trkpt lat="53.098314" lon="06.060034"><ele>-4.5</ele><time>2021-05-12T10:41:59Z</time><name>PT1994</name></trkpt>
<trkpt lat="53.098301" lon="06.060032"><ele>-4.8</ele><time>2021-05-12T10:42:00Z</time><name>PT1995</name></trkpt>
<trkpt lat="53.098289" lon="06.060027"><ele>-4.9</ele><time>2021-05-12T10:42:01Z</time><name>PT1996</name></trkpt>
<trkpt lat="53.098275" lon="06.060024"><ele>-4.9</ele><time>2021-05-12T10:42:02Z</time><name>PT1997</name></trkpt>
<trkpt lat="53.098262" lon="06.060025"><ele>-4.9</ele><time>2021-05-12T10:42:03Z</time><name>PT1998</name></trkpt>
<trkpt lat="53.098250" lon="06.060023"><ele>-4.8</ele><time>2021-05-12T10:42:04Z</time><name>PT1999</name></trkpt>
<trkpt lat="53.098241" lon="06.060022"><ele>-4.7</ele><time>2021-05-12T10:42:05Z</time><name>PT2000</name></trkpt>
<trkpt lat="53.098232" lon="06.060022"><ele>-4.7</ele><time>2021-05-12T10:42:06Z</time><name>PT2001</name></trkpt>
<trkpt lat="53.098223" lon="06.060023"><ele>-4.7</ele><time>2021-05-12T10:42:07Z</time><name>PT2002</name></trkpt>
<trkpt lat="53.098215" lon="06.060021"><ele>-5</ele><time>2021-05-12T10:42:08Z</time><name>PT2003</name></trkpt>
<trkpt lat="53.098203" lon="06.060014"><ele>-5.1</ele><time>2021-05-12T10:42:09Z</time><name>PT2004</name></trkpt>
<trkpt lat="53.098191" lon="06.060009"><ele>-5</ele><time>2021-05-12T10:42:10Z</time><name>PT2005</name></trkpt>
<trkpt lat="53.098184" lon="06.060005"><ele>-4.8</ele><time>2021-05-12T10:42:11Z</time><name>PT2006</name></trkpt>
<trkpt lat="53.098176" lon="06.060005"><ele>-4.9</ele><time>2021-05-12T10:42:12Z</time><name>PT2007</name></trkpt>
<trkpt lat="53.098165" lon="06.060007"><ele>-4.7</ele><time>2021-05-12T10:42:13Z</time><name>PT2008</name></trkpt>
<trkpt lat="53.098154" lon="06.060006"><ele>-4.6</ele><time>2021-05-12T10:42:14Z</time><name>PT2009</name></trkpt>
<trkpt lat="53.098145" lon="06.060005"><ele>-4.7</ele><time>2021-05-12T10:42:16Z</time><name>PT2010</name></trkpt>
<trkpt lat="53.098135" lon="06.060006"><ele>-4.7</ele><time>2021-05-12T10:42:16Z</time><name>PT2011</name></trkpt>
<trkpt lat="53.098127" lon="06.060007"><ele>-4.7</ele><time>2021-05-12T10:42:17Z</time><name>PT2012</name></trkpt>
<trkpt lat="53.098121" lon="06.060008"><ele>-4.8</ele><time>2021-05-12T10:42:19Z</time><name>PT2013</name></trkpt>
<trkpt lat="53.098117" lon="06.060008"><ele>-4.9</ele><time>2021-05-12T10:42:19Z</time><name>PT2014</name></trkpt>
<trkpt lat="53.098112" lon="06.060007"><ele>-5</ele><time>2021-05-12T10:42:20Z</time><name>PT2015</name></trkpt>
<trkpt lat="53.098103" lon="06.060005"><ele>-5.1</ele><time>2021-05-12T10:42:21Z</time><name>PT2016</name></trkpt>
<trkpt lat="53.098094" lon="06.060005"><ele>-5.1</ele><time>2021-05-12T10:42:22Z</time><name>PT2017</name></trkpt>
<trkpt lat="53.098086" lon="06.060005"><ele>-5.1</ele><time>2021-05-12T10:42:23Z</time><name>PT2018</name></trkpt>
<trkpt lat="53.098079" lon="06.060003"><ele>-5</ele><time>2021-05-12T10:42:24Z</time><name>PT2019</name></trkpt>
<trkpt lat="53.098070" lon="06.059998"><ele>-5.1</ele><time>2021-05-12T10:42:25Z</time><name>PT2020</name></trkpt>
<trkpt lat="53.098062" lon="06.059989"><ele>-5</ele><time>2021-05-12T10:42:26Z</time><name>PT2021</name></trkpt>
<trkpt lat="53.098055" lon="06.059978"><ele>-5</ele><time>2021-05-12T10:42:27Z</time><name>PT2022</name></trkpt>
<trkpt lat="53.098052" lon="06.059975"><ele>-5.1</ele><time>2021-05-12T10:42:28Z</time><name>PT2023</name></trkpt>
<trkpt lat="53.098050" lon="06.059974"><ele>-5.1</ele><time>2021-05-12T10:42:29Z</time><name>PT2024</name></trkpt>
<trkpt lat="53.098043" lon="06.059971"><ele>-5.1</ele><time>2021-05-12T10:42:30Z</time><name>PT2025</name></trkpt>
<trkpt lat="53.098039" lon="06.059968"><ele>-5.1</ele><time>2021-05-12T10:42:31Z</time><name>PT2026</name></trkpt>
<trkpt lat="53.098041" lon="06.059967"><ele>-5.1</ele><time>2021-05-12T10:42:32Z</time><name>PT2027</name></trkpt>
<trkpt lat="53.098040" lon="06.059963"><ele>-5.2</ele><time>2021-05-12T10:42:33Z</time><name>PT2028</name></trkpt>
<trkpt lat="53.098039" lon="06.059957"><ele>-5.1</ele><time>2021-05-12T10:42:34Z</time><name>PT2029</name></trkpt>
<trkpt lat="53.098039" lon="06.059953"><ele>-4.8</ele><time>2021-05-12T10:42:35Z</time><name>PT2030</name></trkpt>
<trkpt lat="53.098040" lon="06.059952"><ele>-4.8</ele><time>2021-05-12T10:42:36Z</time><name>PT2031</name></trkpt>
<trkpt lat="53.098040" lon="06.059951"><ele>-4.7</ele><time>2021-05-12T10:42:37Z</time><name>PT2032</name></trkpt>
<trkpt lat="53.098040" lon="06.059951"><ele>-4.6</ele><time>2021-05-12T10:42:38Z</time><name>PT2033</name></trkpt>
<trkpt lat="53.098037" lon="06.059940"><ele>-4.9</ele><time>2021-05-12T10:42:43Z</time><name>PT2034</name></trkpt>
<trkpt lat="53.098029" lon="06.059924"><ele>-4.8</ele><time>2021-05-12T10:42:44Z</time><name>PT2035</name></trkpt>
<trkpt lat="53.098020" lon="06.059912"><ele>-4.7</ele><time>2021-05-12T10:42:45Z</time><name>PT2036</name></trkpt>
<trkpt lat="53.098014" lon="06.059895"><ele>-4.7</ele><time>2021-05-12T10:42:46Z</time><name>PT2037</name></trkpt>
<trkpt lat="53.098013" lon="06.059878"><ele>-4.7</ele><time>2021-05-12T10:42:47Z</time><name>PT2038</name></trkpt>
<trkpt lat="53.098015" lon="06.059853"><ele>-4.8</ele><time>2021-05-12T10:42:48Z</time><name>PT2039</name></trkpt>
<trkpt lat="53.098015" lon="06.059837"><ele>-4.9</ele><time>2021-05-12T10:42:49Z</time><name>PT2040</name></trkpt>
<trkpt lat="53.098017" lon="06.059821"><ele>-4.8</ele><time>2021-05-12T10:42:50Z</time><name>PT2041</name></trkpt>
<trkpt lat="53.098021" lon="06.059800"><ele>-4.9</ele><time>2021-05-12T10:42:51Z</time><name>PT2042</name></trkpt>
<trkpt lat="53.098024" lon="06.059777"><ele>-4.8</ele><time>2021-05-12T10:42:52Z</time><name>PT2043</name></trkpt>
<trkpt lat="53.098024" lon="06.059761"><ele>-4.7</ele><time>2021-05-12T10:42:53Z</time><name>PT2044</name></trkpt>
<trkpt lat="53.098025" lon="06.059743"><ele>-4.9</ele><time>2021-05-12T10:42:54Z</time><name>PT2045</name></trkpt>
<trkpt lat="53.098026" lon="06.059722"><ele>-5</ele><time>2021-05-12T10:42:55Z</time><name>PT2046</name></trkpt>
<trkpt lat="53.098027" lon="06.059703"><ele>-5.1</ele><time>2021-05-12T10:42:56Z</time><name>PT2047</name></trkpt>
<trkpt lat="53.098028" lon="06.059682"><ele>-5.2</ele><time>2021-05-12T10:42:57Z</time><name>PT2048</name></trkpt>
<trkpt lat="53.098028" lon="06.059659"><ele>-5.1</ele><time>2021-05-12T10:42:58Z</time><name>PT2049</name></trkpt>
<trkpt lat="53.098028" lon="06.059634"><ele>-4.9</ele><time>2021-05-12T10:42:59Z</time><name>PT2050</name></trkpt>
<trkpt lat="53.098027" lon="06.059608"><ele>-4.9</ele><time>2021-05-12T10:43:00Z</time><name>PT2051</name></trkpt>
<trkpt lat="53.098028" lon="06.059580"><ele>-5</ele><time>2021-05-12T10:43:01Z</time><name>PT2052</name></trkpt>
<trkpt lat="53.098028" lon="06.059555"><ele>-4.9</ele><time>2021-05-12T10:43:02Z</time><name>PT2053</name></trkpt>
<trkpt lat="53.098030" lon="06.059529"><ele>-5</ele><time>2021-05-12T10:43:03Z</time><name>PT2054</name></trkpt>
<trkpt lat="53.098032" lon="06.059503"><ele>-5.1</ele><time>2021-05-12T10:43:04Z</time><name>PT2055</name></trkpt>
<trkpt lat="53.098033" lon="06.059479"><ele>-5.1</ele><time>2021-05-12T10:43:05Z</time><name>PT2056</name></trkpt>
<trkpt lat="53.098033" lon="06.059455"><ele>-4.9</ele><time>2021-05-12T10:43:06Z</time><name>PT2057</name></trkpt>
<trkpt lat="53.098033" lon="06.059433"><ele>-4.9</ele><time>2021-05-12T10:43:07Z</time><name>PT2058</name></trkpt>
<trkpt lat="53.098032" lon="06.059411"><ele>-5.1</ele><time>2021-05-12T10:43:08Z</time><name>PT2059</name></trkpt>
<trkpt lat="53.098031" lon="06.059389"><ele>-5.2</ele><time>2021-05-12T10:43:09Z</time><name>PT2060</name></trkpt>
<trkpt lat="53.098032" lon="06.059369"><ele>-5.2</ele><time>2021-05-12T10:43:10Z</time><name>PT2061</name></trkpt>
<trkpt lat="53.098031" lon="06.059352"><ele>-5.3</ele><time>2021-05-12T10:43:11Z</time><name>PT2062</name></trkpt>
<trkpt lat="53.098031" lon="06.059332"><ele>-5.3</ele><time>2021-05-12T10:43:12Z</time><name>PT2063</name></trkpt>
<trkpt lat="53.098030" lon="06.059315"><ele>-5.2</ele><time>2021-05-12T10:43:13Z</time><name>PT2064</name></trkpt>
<trkpt lat="53.098030" lon="06.059298"><ele>-5.1</ele><time>2021-05-12T10:43:14Z</time><name>PT2065</name></trkpt>
<trkpt lat="53.098031" lon="06.059280"><ele>-4.9</ele><time>2021-05-12T10:43:15Z</time><name>PT2066</name></trkpt>
<trkpt lat="53.098033" lon="06.059261"><ele>-5</ele><time>2021-05-12T10:43:16Z</time><name>PT2067</name></trkpt>
<trkpt lat="53.098034" lon="06.059243"><ele>-5</ele><time>2021-05-12T10:43:17Z</time><name>PT2068</name></trkpt>
<trkpt lat="53.098036" lon="06.059223"><ele>-5.1</ele><time>2021-05-12T10:43:18Z</time><name>PT2069</name></trkpt>
<trkpt lat="53.098038" lon="06.059203"><ele>-5.2</ele><time>2021-05-12T10:43:19Z</time><name>PT2070</name></trkpt>
<trkpt lat="53.098039" lon="06.059177"><ele>-5.1</ele><time>2021-05-12T10:43:20Z</time><name>PT2071</name></trkpt>
<trkpt lat="53.098042" lon="06.059152"><ele>-5.3</ele><time>2021-05-12T10:43:21Z</time><name>PT2072</name></trkpt>
<trkpt lat="53.098044" lon="06.059127"><ele>-5.5</ele><time>2021-05-12T10:43:22Z</time><name>PT2073</name></trkpt>
<trkpt lat="53.098047" lon="06.059103"><ele>-5.4</ele><time>2021-05-12T10:43:23Z</time><name>PT2074</name></trkpt>
<trkpt lat="53.098047" lon="06.059077"><ele>-5.1</ele><time>2021-05-12T10:43:24Z</time><name>PT2075</name></trkpt>
<trkpt lat="53.098049" lon="06.059051"><ele>-5.1</ele><time>2021-05-12T10:43:25Z</time><name>PT2076</name></trkpt>
<trkpt lat="53.098049" lon="06.059024"><ele>-5</ele><time>2021-05-12T10:43:26Z</time><name>PT2077</name></trkpt>
<trkpt lat="53.098049" lon="06.058996"><ele>-5</ele><time>2021-05-12T10:43:27Z</time><name>PT2078</name></trkpt>
<trkpt lat="53.098050" lon="06.058968"><ele>-4.9</ele><time>2021-05-12T10:43:28Z</time><name>PT2079</name></trkpt>
<trkpt lat="53.098049" lon="06.058940"><ele>-5.1</ele><time>2021-05-12T10:43:29Z</time><name>PT2080</name></trkpt>
<trkpt lat="53.098051" lon="06.058914"><ele>-5.1</ele><time>2021-05-12T10:43:31Z</time><name>PT2081</name></trkpt>
<trkpt lat="53.098053" lon="06.058892"><ele>-5.1</ele><time>2021-05-12T10:43:31Z</time><name>PT2082</name></trkpt>
<trkpt lat="53.098052" lon="06.058871"><ele>-5</ele><time>2021-05-12T10:43:32Z</time><name>PT2083</name></trkpt>
<trkpt lat="53.098051" lon="06.058852"><ele>-5.1</ele><time>2021-05-12T10:43:33Z</time><name>PT2084</name></trkpt>
<trkpt lat="53.098049" lon="06.058834"><ele>-5.1</ele><time>2021-05-12T10:43:34Z</time><name>PT2085</name></trkpt>
<trkpt lat="53.098048" lon="06.058816"><ele>-5.1</ele><time>2021-05-12T10:43:35Z</time><name>PT2086</name></trkpt>
<trkpt lat="53.098048" lon="06.058800"><ele>-5.1</ele><time>2021-05-12T10:43:36Z</time><name>PT2087</name></trkpt>
<trkpt lat="53.098048" lon="06.058787"><ele>-5.2</ele><time>2021-05-12T10:43:37Z</time><name>PT2088</name></trkpt>
<trkpt lat="53.098047" lon="06.058771"><ele>-5.3</ele><time>2021-05-12T10:43:38Z</time><name>PT2089</name></trkpt>
<trkpt lat="53.098048" lon="06.058755"><ele>-5.2</ele><time>2021-05-12T10:43:39Z</time><name>PT2090</name></trkpt>
<trkpt lat="53.098048" lon="06.058739"><ele>-5.2</ele><time>2021-05-12T10:43:40Z</time><name>PT2091</name></trkpt>
<trkpt lat="53.098049" lon="06.058722"><ele>-5.2</ele><time>2021-05-12T10:43:41Z</time><name>PT2092</name></trkpt>
<trkpt lat="53.098051" lon="06.058704"><ele>-5.2</ele><time>2021-05-12T10:43:42Z</time><name>PT2093</name></trkpt>
<trkpt lat="53.098052" lon="06.058683"><ele>-5.1</ele><time>2021-05-12T10:43:43Z</time><name>PT2094</name></trkpt>
<trkpt lat="53.098054" lon="06.058667"><ele>-5.2</ele><time>2021-05-12T10:43:44Z</time><name>PT2095</name></trkpt>
<trkpt lat="53.098057" lon="06.058648"><ele>-5.1</ele><time>2021-05-12T10:43:45Z</time><name>PT2096</name></trkpt>
<trkpt lat="53.098057" lon="06.058624"><ele>-5.1</ele><time>2021-05-12T10:43:46Z</time><name>PT2097</name></trkpt>
<trkpt lat="53.098057" lon="06.058602"><ele>-5.1</ele><time>2021-05-12T10:43:47Z</time><name>PT2098</name></trkpt>
<trkpt lat="53.098058" lon="06.058576"><ele>-5.1</ele><time>2021-05-12T10:43:48Z</time><name>PT2099</name></trkpt>
<trkpt lat="53.098059" lon="06.058547"><ele>-5.2</ele><time>2021-05-12T10:43:49Z</time><name>PT2100</name></trkpt>
<trkpt lat="53.098060" lon="06.058518"><ele>-5.1</ele><time>2021-05-12T10:43:50Z</time><name>PT2101</name></trkpt>
<trkpt lat="53.098060" lon="06.058489"><ele>-5.1</ele><time>2021-05-12T10:43:52Z</time><name>PT2102</name></trkpt>
<trkpt lat="53.098061" lon="06.058462"><ele>-5.1</ele><time>2021-05-12T10:43:52Z</time><name>PT2103</name></trkpt>
<trkpt lat="53.098061" lon="06.058437"><ele>-5.3</ele><time>2021-05-12T10:43:53Z</time><name>PT2104</name></trkpt>
<trkpt lat="53.098061" lon="06.058414"><ele>-5.2</ele><time>2021-05-12T10:43:54Z</time><name>PT2105</name></trkpt>
<trkpt lat="53.098062" lon="06.058393"><ele>-5.1</ele><time>2021-05-12T10:43:55Z</time><name>PT2106</name></trkpt>
<trkpt lat="53.098061" lon="06.058377"><ele>-5.2</ele><time>2021-05-12T10:43:56Z</time><name>PT2107</name></trkpt>
<trkpt lat="53.098061" lon="06.058361"><ele>-5.1</ele><time>2021-05-12T10:43:57Z</time><name>PT2108</name></trkpt>
<trkpt lat="53.098060" lon="06.058347"><ele>-5.1</ele><time>2021-05-12T10:43:58Z</time><name>PT2109</name></trkpt>
<trkpt lat="53.098061" lon="06.058331"><ele>-5.1</ele><time>2021-05-12T10:43:59Z</time><name>PT2110</name></trkpt>
<trkpt lat="53.098065" lon="06.058317"><ele>-5.1</ele><time>2021-05-12T10:44:00Z</time><name>PT2111</name></trkpt>
<trkpt lat="53.098067" lon="06.058301"><ele>-5.2</ele><time>2021-05-12T10:44:01Z</time><name>PT2112</name></trkpt>
<trkpt lat="53.098069" lon="06.058281"><ele>-5.2</ele><time>2021-05-12T10:44:02Z</time><name>PT2113</name></trkpt>
<trkpt lat="53.098070" lon="06.058258"><ele>-5.2</ele><time>2021-05-12T10:44:04Z</time><name>PT2114</name></trkpt>
<trkpt lat="53.098071" lon="06.058234"><ele>-5.5</ele><time>2021-05-12T10:44:04Z</time><name>PT2115</name></trkpt>
<trkpt lat="53.098070" lon="06.058211"><ele>-5.5</ele><time>2021-05-12T10:44:05Z</time><name>PT2116</name></trkpt>
<trkpt lat="53.098069" lon="06.058190"><ele>-5.6</ele><time>2021-05-12T10:44:07Z</time><name>PT2117</name></trkpt>
<trkpt lat="53.098069" lon="06.058172"><ele>-5.6</ele><time>2021-05-12T10:44:07Z</time><name>PT2118</name></trkpt>
<trkpt lat="53.098069" lon="06.058154"><ele>-5.6</ele><time>2021-05-12T10:44:08Z</time><name>PT2119</name></trkpt>
<trkpt lat="53.098069" lon="06.058138"><ele>-5.5</ele><time>2021-05-12T10:44:09Z</time><name>PT2120</name></trkpt>
<trkpt lat="53.098070" lon="06.058122"><ele>-5.5</ele><time>2021-05-12T10:44:10Z</time><name>PT2121</name></trkpt>
<trkpt lat="53.098069" lon="06.058105"><ele>-5.6</ele><time>2021-05-12T10:44:11Z</time><name>PT2122</name></trkpt>
<trkpt lat="53.098070" lon="06.058090"><ele>-5.6</ele><time>2021-05-12T10:44:12Z</time><name>PT2123</name></trkpt>
<trkpt lat="53.098071" lon="06.058075"><ele>-5.6</ele><time>2021-05-12T10:44:13Z</time><name>PT2124</name></trkpt>
<trkpt lat="53.098072" lon="06.058058"><ele>-5.6</ele><time>2021-05-12T10:44:14Z</time><name>PT2125</name></trkpt>
<trkpt lat="53.098072" lon="06.058040"><ele>-5.5</ele><time>2021-05-12T10:44:15Z</time><name>PT2126</name></trkpt>
<trkpt lat="53.098072" lon="06.058016"><ele>-5.3</ele><time>2021-05-12T10:44:16Z</time><name>PT2127</name></trkpt>
<trkpt lat="53.098073" lon="06.058000"><ele>-5.4</ele><time>2021-05-12T10:44:17Z</time><name>PT2128</name></trkpt>
<trkpt lat="53.098072" lon="06.057994"><ele>-5.6</ele><time>2021-05-12T10:44:19Z</time><name>PT2129</name></trkpt>
<trkpt lat="53.098072" lon="06.057983"><ele>-5.5</ele><time>2021-05-12T10:44:19Z</time><name>PT2130</name></trkpt>
<trkpt lat="53.098070" lon="06.057976"><ele>-5.5</ele><time>2021-05-12T10:44:20Z</time><name>PT2131</name></trkpt>
<trkpt lat="53.098069" lon="06.057972"><ele>-5.4</ele><time>2021-05-12T10:44:22Z</time><name>PT2132</name></trkpt>
<trkpt lat="53.098069" lon="06.057970"><ele>-5.5</ele><time>2021-05-12T10:44:22Z</time><name>PT2133</name></trkpt>
<trkpt lat="53.098069" lon="06.057968"><ele>-5.4</ele><time>2021-05-12T10:44:23Z</time><name>PT2134</name></trkpt>
<trkpt lat="53.098067" lon="06.057961"><ele>-5.6</ele><time>2021-05-12T10:44:27Z</time><name>PT2135</name></trkpt>
<trkpt lat="53.098067" lon="06.057944"><ele>-5.7</ele><time>2021-05-12T10:44:28Z</time><name>PT2136</name></trkpt>
<trkpt lat="53.098069" lon="06.057923"><ele>-5.5</ele><time>2021-05-12T10:44:29Z</time><name>PT2137</name></trkpt>
<trkpt lat="53.098070" lon="06.057903"><ele>-5.6</ele><time>2021-05-12T10:44:30Z</time><name>PT2138</name></trkpt>
<trkpt lat="53.098068" lon="06.057888"><ele>-5.4</ele><time>2021-05-12T10:44:31Z</time><name>PT2139</name></trkpt>
<trkpt lat="53.098067" lon="06.057869"><ele>-5.5</ele><time>2021-05-12T10:44:32Z</time><name>PT2140</name></trkpt>
<trkpt lat="53.098066" lon="06.057846"><ele>-5.5</ele><time>2021-05-12T10:44:34Z</time><name>PT2141</name></trkpt>
<trkpt lat="53.098063" lon="06.057825"><ele>-5.6</ele><time>2021-05-12T10:44:34Z</time><name>PT2142</name></trkpt>
<trkpt lat="53.098058" lon="06.057801"><ele>-5.6</ele><time>2021-05-12T10:44:35Z</time><name>PT2143</name></trkpt>
<trkpt lat="53.098053" lon="06.057775"><ele>-5.7</ele><time>2021-05-12T10:44:36Z</time><name>PT2144</name></trkpt>
<trkpt lat="53.098048" lon="06.057749"><ele>-5.7</ele><time>2021-05-12T10:44:37Z</time><name>PT2145</name></trkpt>
<trkpt lat="53.098044" lon="06.057724"><ele>-5.6</ele><time>2021-05-12T10:44:38Z</time><name>PT2146</name></trkpt>
<trkpt lat="53.098037" lon="06.057702"><ele>-5.6</ele><time>2021-05-12T10:44:39Z</time><name>PT2147</name></trkpt>
<trkpt lat="53.098029" lon="06.057686"><ele>-5.7</ele><time>2021-05-12T10:44:40Z</time><name>PT2148</name></trkpt>
<trkpt lat="53.098021" lon="06.057672"><ele>-5.6</ele><time>2021-05-12T10:44:41Z</time><name>PT2149</name></trkpt>
<trkpt lat="53.098013" lon="06.057656"><ele>-5.6</ele><time>2021-05-12T10:44:42Z</time><name>PT2150</name></trkpt>
<trkpt lat="53.098005" lon="06.057645"><ele>-5.7</ele><time>2021-05-12T10:44:43Z</time><name>PT2151</name></trkpt>
<trkpt lat="53.097999" lon="06.057634"><ele>-5.6</ele><time>2021-05-12T10:44:44Z</time><name>PT2152</name></trkpt>
<trkpt lat="53.097993" lon="06.057621"><ele>-5.5</ele><time>2021-05-12T10:44:45Z</time><name>PT2153</name></trkpt>
<trkpt lat="53.097987" lon="06.057612"><ele>-5.3</ele><time>2021-05-12T10:44:46Z</time><name>PT2154</name></trkpt>
<trkpt lat="53.097982" lon="06.057605"><ele>-5.3</ele><time>2021-05-12T10:44:47Z</time><name>PT2155</name></trkpt>
<trkpt lat="53.097976" lon="06.057597"><ele>-5</ele><time>2021-05-12T10:44:48Z</time><name>PT2156</name></trkpt>
<trkpt lat="53.097973" lon="06.057583"><ele>-5</ele><time>2021-05-12T10:44:49Z</time><name>PT2157</name></trkpt>
<trkpt lat="53.097968" lon="06.057568"><ele>-4.8</ele><time>2021-05-12T10:44:50Z</time><name>PT2158</name></trkpt>
<trkpt lat="53.097965" lon="06.057555"><ele>-4.6</ele><time>2021-05-12T10:44:51Z</time><name>PT2159</name></trkpt>
<trkpt lat="53.097959" lon="06.057542"><ele>-4.5</ele><time>2021-05-12T10:44:52Z</time><name>PT2160</name></trkpt>
<trkpt lat="53.097951" lon="06.057530"><ele>-4.6</ele><time>2021-05-12T10:44:53Z</time><name>PT2161</name></trkpt>
<trkpt lat="53.097941" lon="06.057512"><ele>-4.3</ele><time>2021-05-12T10:44:54Z</time><name>PT2162</name></trkpt>
<trkpt lat="53.097933" lon="06.057492"><ele>-4.4</ele><time>2021-05-12T10:44:55Z</time><name>PT2163</name></trkpt>
<trkpt lat="53.097930" lon="06.057478"><ele>-4.3</ele><time>2021-05-12T10:44:56Z</time><name>PT2164</name></trkpt>
<trkpt lat="53.097929" lon="06.057467"><ele>-4.2</ele><time>2021-05-12T10:44:57Z</time><name>PT2165</name></trkpt>
<trkpt lat="53.097932" lon="06.057452"><ele>-4.1</ele><time>2021-05-12T10:44:58Z</time><name>PT2166</name></trkpt>
<trkpt lat="53.097939" lon="06.057431"><ele>-4</ele><time>2021-05-12T10:44:59Z</time><name>PT2167</name></trkpt>
<trkpt lat="53.097947" lon="06.057411"><ele>-3.8</ele><time>2021-05-12T10:45:00Z</time><name>PT2168</name></trkpt>
<trkpt lat="53.097954" lon="06.057395"><ele>-3.6</ele><time>2021-05-12T10:45:01Z</time><name>PT2169</name></trkpt>
<trkpt lat="53.097959" lon="06.057383"><ele>-3.7</ele><time>2021-05-12T10:45:02Z</time><name>PT2170</name></trkpt>
<trkpt lat="53.097962" lon="06.057375"><ele>-3.9</ele><time>2021-05-12T10:45:03Z</time><name>PT2171</name></trkpt>
<trkpt lat="53.097968" lon="06.057365"><ele>-3.9</ele><time>2021-05-12T10:45:04Z</time><name>PT2172</name></trkpt>
<trkpt lat="53.097978" lon="06.057351"><ele>-4</ele><time>2021-05-12T10:45:05Z</time><name>PT2173</name></trkpt>
<trkpt lat="53.097986" lon="06.057337"><ele>-3.9</ele><time>2021-05-12T10:45:06Z</time><name>PT2174</name></trkpt>
<trkpt lat="53.097992" lon="06.057325"><ele>-3.9</ele><time>2021-05-12T10:45:07Z</time><name>PT2175</name></trkpt>
<trkpt lat="53.097997" lon="06.057313"><ele>-3.8</ele><time>2021-05-12T10:45:08Z</time><name>PT2176</name></trkpt>
<trkpt lat="53.098004" lon="06.057302"><ele>-3.7</ele><time>2021-05-12T10:45:09Z</time><name>PT2177</name></trkpt>
<trkpt lat="53.098016" lon="06.057286"><ele>-3.8</ele><time>2021-05-12T10:45:10Z</time><name>PT2178</name></trkpt>
<trkpt lat="53.098024" lon="06.057272"><ele>-4</ele><time>2021-05-12T10:45:11Z</time><name>PT2179</name></trkpt>
<trkpt lat="53.098035" lon="06.057257"><ele>-4.1</ele><time>2021-05-12T10:45:12Z</time><name>PT2180</name></trkpt>
<trkpt lat="53.098045" lon="06.057248"><ele>-4.1</ele><time>2021-05-12T10:45:13Z</time><name>PT2181</name></trkpt>
<trkpt lat="53.098053" lon="06.057239"><ele>-4.2</ele><time>2021-05-12T10:45:14Z</time><name>PT2182</name></trkpt>
<trkpt lat="53.098061" lon="06.057227"><ele>-4.3</ele><time>2021-05-12T10:45:15Z</time><name>PT2183</name></trkpt>
<trkpt lat="53.098066" lon="06.057215"><ele>-4.4</ele><time>2021-05-12T10:45:16Z</time><name>PT2184</name></trkpt>
<trkpt lat="53.098071" lon="06.057202"><ele>-4.6</ele><time>2021-05-12T10:45:17Z</time><name>PT2185</name></trkpt>
<trkpt lat="53.098079" lon="06.057190"><ele>-4.4</ele><time>2021-05-12T10:45:18Z</time><name>PT2186</name></trkpt>
<trkpt lat="53.098086" lon="06.057179"><ele>-4.4</ele><time>2021-05-12T10:45:19Z</time><name>PT2187</name></trkpt>
<trkpt lat="53.098092" lon="06.057168"><ele>-4.3</ele><time>2021-05-12T10:45:20Z</time><name>PT2188</name></trkpt>
<trkpt lat="53.098100" lon="06.057155"><ele>-4.2</ele><time>2021-05-12T10:45:21Z</time><name>PT2189</name></trkpt>
<trkpt lat="53.098107" lon="06.057144"><ele>-4.1</ele><time>2021-05-12T10:45:22Z</time><name>PT2190</name></trkpt>
<trkpt lat="53.098115" lon="06.057131"><ele>-4.4</ele><time>2021-05-12T10:45:23Z</time><name>PT2191</name></trkpt>
<trkpt lat="53.098123" lon="06.057114"><ele>-4.3</ele><time>2021-05-12T10:45:24Z</time><name>PT2192</name></trkpt>
<trkpt lat="53.098130" lon="06.057099"><ele>-4.2</ele><time>2021-05-12T10:45:25Z</time><name>PT2193</name></trkpt>
<trkpt lat="53.098137" lon="06.057082"><ele>-4.4</ele><time>2021-05-12T10:45:26Z</time><name>PT2194</name></trkpt>
<trkpt lat="53.098143" lon="06.057065"><ele>-4.4</ele><time>2021-05-12T10:45:27Z</time><name>PT2195</name></trkpt>
<trkpt lat="53.098148" lon="06.057049"><ele>-4.4</ele><time>2021-05-12T10:45:28Z</time><name>PT2196</name></trkpt>
<trkpt lat="53.098154" lon="06.057034"><ele>-4.5</ele><time>2021-05-12T10:45:29Z</time><name>PT2197</name></trkpt>
<trkpt lat="53.098159" lon="06.057019"><ele>-4.4</ele><time>2021-05-12T10:45:30Z</time><name>PT2198</name></trkpt>
<trkpt lat="53.098166" lon="06.057003"><ele>-4.4</ele><time>2021-05-12T10:45:31Z</time><name>PT2199</name></trkpt>
<trkpt lat="53.098171" lon="06.056985"><ele>-4.4</ele><time>2021-05-12T10:45:32Z</time><name>PT2200</name></trkpt>
<trkpt lat="53.098178" lon="06.056968"><ele>-4.5</ele><time>2021-05-12T10:45:33Z</time><name>PT2201</name></trkpt>
<trkpt lat="53.098185" lon="06.056955"><ele>-4.4</ele><time>2021-05-12T10:45:34Z</time><name>PT2202</name></trkpt>
<trkpt lat="53.098193" lon="06.056941"><ele>-4.6</ele><time>2021-05-12T10:45:35Z</time><name>PT2203</name></trkpt>
<trkpt lat="53.098200" lon="06.056925"><ele>-4.6</ele><time>2021-05-12T10:45:36Z</time><name>PT2204</name></trkpt>
<trkpt lat="53.098206" lon="06.056908"><ele>-4.7</ele><time>2021-05-12T10:45:37Z</time><name>PT2205</name></trkpt>
<trkpt lat="53.098214" lon="06.056892"><ele>-4.7</ele><time>2021-05-12T10:45:38Z</time><name>PT2206</name></trkpt>
<trkpt lat="53.098221" lon="06.056875"><ele>-4.7</ele><time>2021-05-12T10:45:40Z</time><name>PT2207</name></trkpt>
<trkpt lat="53.098228" lon="06.056858"><ele>-4.7</ele><time>2021-05-12T10:45:40Z</time><name>PT2208</name></trkpt>
<trkpt lat="53.098233" lon="06.056840"><ele>-4.6</ele><time>2021-05-12T10:45:41Z</time><name>PT2209</name></trkpt>
<trkpt lat="53.098238" lon="06.056822"><ele>-4.4</ele><time>2021-05-12T10:45:42Z</time><name>PT2210</name></trkpt>
<trkpt lat="53.098245" lon="06.056803"><ele>-4.5</ele><time>2021-05-12T10:45:43Z</time><name>PT2211</name></trkpt>
<trkpt lat="53.098252" lon="06.056786"><ele>-4.4</ele><time>2021-05-12T10:45:44Z</time><name>PT2212</name></trkpt>
<trkpt lat="53.098260" lon="06.056768"><ele>-4.3</ele><time>2021-05-12T10:45:45Z</time><name>PT2213</name></trkpt>
<trkpt lat="53.098269" lon="06.056749"><ele>-4.5</ele><time>2021-05-12T10:45:46Z</time><name>PT2214</name></trkpt>
<trkpt lat="53.098275" lon="06.056732"><ele>-4.6</ele><time>2021-05-12T10:45:47Z</time><name>PT2215</name></trkpt>
<trkpt lat="53.098280" lon="06.056716"><ele>-4.8</ele><time>2021-05-12T10:45:48Z</time><name>PT2216</name></trkpt>
<trkpt lat="53.098286" lon="06.056699"><ele>-5</ele><time>2021-05-12T10:45:49Z</time><name>PT2217</name></trkpt>
<trkpt lat="53.098293" lon="06.056682"><ele>-5.1</ele><time>2021-05-12T10:45:50Z</time><name>PT2218</name></trkpt>
<trkpt lat="53.098300" lon="06.056665"><ele>-5.1</ele><time>2021-05-12T10:45:51Z</time><name>PT2219</name></trkpt>
<trkpt lat="53.098308" lon="06.056651"><ele>-5.1</ele><time>2021-05-12T10:45:52Z</time><name>PT2220</name></trkpt>
<trkpt lat="53.098314" lon="06.056635"><ele>-4.9</ele><time>2021-05-12T10:45:53Z</time><name>PT2221</name></trkpt>
<trkpt lat="53.098322" lon="06.056617"><ele>-5</ele><time>2021-05-12T10:45:54Z</time><name>PT2222</name></trkpt>
<trkpt lat="53.098327" lon="06.056599"><ele>-4.8</ele><time>2021-05-12T10:45:55Z</time><name>PT2223</name></trkpt>
<trkpt lat="53.098334" lon="06.056580"><ele>-4.8</ele><time>2021-05-12T10:45:56Z</time><name>PT2224</name></trkpt>
<trkpt lat="53.098341" lon="06.056562"><ele>-4.6</ele><time>2021-05-12T10:45:57Z</time><name>PT2225</name></trkpt>
<trkpt lat="53.098346" lon="06.056545"><ele>-4.6</ele><time>2021-05-12T10:45:58Z</time><name>PT2226</name></trkpt>
<trkpt lat="53.098350" lon="06.056528"><ele>-4.5</ele><time>2021-05-12T10:45:59Z</time><name>PT2227</name></trkpt>
<trkpt lat="53.098355" lon="06.056509"><ele>-4.6</ele><time>2021-05-12T10:46:00Z</time><name>PT2228</name></trkpt>
<trkpt lat="53.098359" lon="06.056489"><ele>-4.6</ele><time>2021-05-12T10:46:01Z</time><name>PT2229</name></trkpt>
<trkpt lat="53.098364" lon="06.056470"><ele>-4.6</ele><time>2021-05-12T10:46:02Z</time><name>PT2230</name></trkpt>
<trkpt lat="53.098370" lon="06.056449"><ele>-4.6</ele><time>2021-05-12T10:46:03Z</time><name>PT2231</name></trkpt>
<trkpt lat="53.098376" lon="06.056428"><ele>-4.6</ele><time>2021-05-12T10:46:04Z</time><name>PT2232</name></trkpt>
<trkpt lat="53.098383" lon="06.056409"><ele>-4.4</ele><time>2021-05-12T10:46:05Z</time><name>PT2233</name></trkpt>
<trkpt lat="53.098387" lon="06.056390"><ele>-4.3</ele><time>2021-05-12T10:46:07Z</time><name>PT2234</name></trkpt>
<trkpt lat="53.098393" lon="06.056369"><ele>-4.3</ele><time>2021-05-12T10:46:07Z</time><name>PT2235</name></trkpt>
<trkpt lat="53.098399" lon="06.056349"><ele>-4.1</ele><time>2021-05-12T10:46:08Z</time><name>PT2236</name></trkpt>
<trkpt lat="53.098404" lon="06.056331"><ele>-4.1</ele><time>2021-05-12T10:46:09Z</time><name>PT2237</name></trkpt>
<trkpt lat="53.098410" lon="06.056310"><ele>-4</ele><time>2021-05-12T10:46:10Z</time><name>PT2238</name></trkpt>
<trkpt lat="53.098415" lon="06.056292"><ele>-4.1</ele><time>2021-05-12T10:46:11Z</time><name>PT2239</name></trkpt>
<trkpt lat="53.098420" lon="06.056273"><ele>-3.9</ele><time>2021-05-12T10:46:12Z</time><name>PT2240</name></trkpt>
<trkpt lat="53.098425" lon="06.056253"><ele>-3.8</ele><time>2021-05-12T10:46:13Z</time><name>PT2241</name></trkpt>
<trkpt lat="53.098430" lon="06.056234"><ele>-3.9</ele><time>2021-05-12T10:46:14Z</time><name>PT2242</name></trkpt>
<trkpt lat="53.098437" lon="06.056217"><ele>-3.8</ele><time>2021-05-12T10:46:15Z</time><name>PT2243</name></trkpt>
<trkpt lat="53.098444" lon="06.056199"><ele>-3.9</ele><time>2021-05-12T10:46:16Z</time><name>PT2244</name></trkpt>
<trkpt lat="53.098450" lon="06.056181"><ele>-4</ele><time>2021-05-12T10:46:17Z</time><name>PT2245</name></trkpt>
<trkpt lat="53.098455" lon="06.056162"><ele>-4.1</ele><time>2021-05-12T10:46:18Z</time><name>PT2246</name></trkpt>
<trkpt lat="53.098461" lon="06.056142"><ele>-4.1</ele><time>2021-05-12T10:46:19Z</time><name>PT2247</name></trkpt>
<trkpt lat="53.098465" lon="06.056122"><ele>-4.1</ele><time>2021-05-12T10:46:20Z</time><name>PT2248</name></trkpt>
<trkpt lat="53.098470" lon="06.056104"><ele>-4.3</ele><time>2021-05-12T10:46:21Z</time><name>PT2249</name></trkpt>
<trkpt lat="53.098476" lon="06.056084"><ele>-4.2</ele><time>2021-05-12T10:46:22Z</time><name>PT2250</name></trkpt>
<trkpt lat="53.098482" lon="06.056065"><ele>-4.2</ele><time>2021-05-12T10:46:23Z</time><name>PT2251</name></trkpt>
<trkpt lat="53.098487" lon="06.056044"><ele>-4.3</ele><time>2021-05-12T10:46:24Z</time><name>PT2252</name></trkpt>
<trkpt lat="53.098492" lon="06.056023"><ele>-4.3</ele><time>2021-05-12T10:46:25Z</time><name>PT2253</name></trkpt>
<trkpt lat="53.098496" lon="06.056003"><ele>-4.1</ele><time>2021-05-12T10:46:26Z</time><name>PT2254</name></trkpt>
<trkpt lat="53.098502" lon="06.055981"><ele>-4.1</ele><time>2021-05-12T10:46:27Z</time><name>PT2255</name></trkpt>
<trkpt lat="53.098508" lon="06.055959"><ele>-4.1</ele><time>2021-05-12T10:46:28Z</time><name>PT2256</name></trkpt>
<trkpt lat="53.098514" lon="06.055940"><ele>-4.1</ele><time>2021-05-12T10:46:29Z</time><name>PT2257</name></trkpt>
<trkpt lat="53.098519" lon="06.055921"><ele>-4.4</ele><time>2021-05-12T10:46:30Z</time><name>PT2258</name></trkpt>
<trkpt lat="53.098525" lon="06.055901"><ele>-4.6</ele><time>2021-05-12T10:46:31Z</time><name>PT2259</name></trkpt>
<trkpt lat="53.098529" lon="06.055880"><ele>-4.8</ele><time>2021-05-12T10:46:32Z</time><name>PT2260</name></trkpt>
<trkpt lat="53.098534" lon="06.055861"><ele>-4.9</ele><time>2021-05-12T10:46:34Z</time><name>PT2261</name></trkpt>
<trkpt lat="53.098538" lon="06.055843"><ele>-5</ele><time>2021-05-12T10:46:34Z</time><name>PT2262</name></trkpt>
<trkpt lat="53.098543" lon="06.055826"><ele>-5.1</ele><time>2021-05-12T10:46:35Z</time><name>PT2263</name></trkpt>
<trkpt lat="53.098548" lon="06.055808"><ele>-5.3</ele><time>2021-05-12T10:46:37Z</time><name>PT2264</name></trkpt>
<trkpt lat="53.098551" lon="06.055791"><ele>-5.3</ele><time>2021-05-12T10:46:37Z</time><name>PT2265</name></trkpt>
<trkpt lat="53.098555" lon="06.055774"><ele>-5.5</ele><time>2021-05-12T10:46:38Z</time><name>PT2266</name></trkpt>
<trkpt lat="53.098560" lon="06.055757"><ele>-5.6</ele><time>2021-05-12T10:46:39Z</time><name>PT2267</name></trkpt>
<trkpt lat="53.098565" lon="06.055742"><ele>-5.6</ele><time>2021-05-12T10:46:40Z</time><name>PT2268</name></trkpt>
<trkpt lat="53.098570" lon="06.055724"><ele>-5.6</ele><time>2021-05-12T10:46:41Z</time><name>PT2269</name></trkpt>
<trkpt lat="53.098575" lon="06.055706"><ele>-5.9</ele><time>2021-05-12T10:46:42Z</time><name>PT2270</name></trkpt>
<trkpt lat="53.098581" lon="06.055688"><ele>-5.8</ele><time>2021-05-12T10:46:43Z</time><name>PT2271</name></trkpt>
<trkpt lat="53.098587" lon="06.055671"><ele>-6</ele><time>2021-05-12T10:46:44Z</time><name>PT2272</name></trkpt>
<trkpt lat="53.098592" lon="06.055653"><ele>-6.2</ele><time>2021-05-12T10:46:45Z</time><name>PT2273</name></trkpt>
<trkpt lat="53.098598" lon="06.055633"><ele>-6.1</ele><time>2021-05-12T10:46:46Z</time><name>PT2274</name></trkpt>
<trkpt lat="53.098604" lon="06.055612"><ele>-6.2</ele><time>2021-05-12T10:46:47Z</time><name>PT2275</name></trkpt>
<trkpt lat="53.098610" lon="06.055591"><ele>-6.2</ele><time>2021-05-12T10:46:48Z</time><name>PT2276</name></trkpt>
<trkpt lat="53.098616" lon="06.055570"><ele>-5.9</ele><time>2021-05-12T10:46:49Z</time><name>PT2277</name></trkpt>
<trkpt lat="53.098622" lon="06.055551"><ele>-5.6</ele><time>2021-05-12T10:46:50Z</time><name>PT2278</name></trkpt>
<trkpt lat="53.098626" lon="06.055533"><ele>-5.3</ele><time>2021-05-12T10:46:51Z</time><name>PT2279</name></trkpt>
<trkpt lat="53.098632" lon="06.055513"><ele>-5.1</ele><time>2021-05-12T10:46:52Z</time><name>PT2280</name></trkpt>
<trkpt lat="53.098638" lon="06.055493"><ele>-4.8</ele><time>2021-05-12T10:46:53Z</time><name>PT2281</name></trkpt>
<trkpt lat="53.098643" lon="06.055474"><ele>-4.7</ele><time>2021-05-12T10:46:54Z</time><name>PT2282</name></trkpt>
<trkpt lat="53.098647" lon="06.055456"><ele>-4.6</ele><time>2021-05-12T10:46:55Z</time><name>PT2283</name></trkpt>
<trkpt lat="53.098651" lon="06.055439"><ele>-4.1</ele><time>2021-05-12T10:46:56Z</time><name>PT2284</name></trkpt>
<trkpt lat="53.098657" lon="06.055422"><ele>-3.9</ele><time>2021-05-12T10:46:57Z</time><name>PT2285</name></trkpt>
<trkpt lat="53.098662" lon="06.055405"><ele>-4.1</ele><time>2021-05-12T10:46:58Z</time><name>PT2286</name></trkpt>
<trkpt lat="53.098666" lon="06.055388"><ele>-4.2</ele><time>2021-05-12T10:46:59Z</time><name>PT2287</name></trkpt>
<trkpt lat="53.098672" lon="06.055370"><ele>-4.8</ele><time>2021-05-12T10:47:00Z</time><name>PT2288</name></trkpt>
<trkpt lat="53.098677" lon="06.055352"><ele>-5</ele><time>2021-05-12T10:47:01Z</time><name>PT2289</name></trkpt>
<trkpt lat="53.098682" lon="06.055332"><ele>-5.1</ele><time>2021-05-12T10:47:02Z</time><name>PT2290</name></trkpt>
<trkpt lat="53.098686" lon="06.055316"><ele>-5.1</ele><time>2021-05-12T10:47:03Z</time><name>PT2291</name></trkpt>
<trkpt lat="53.098691" lon="06.055299"><ele>-5.1</ele><time>2021-05-12T10:47:04Z</time><name>PT2292</name></trkpt>
<trkpt lat="53.098698" lon="06.055280"><ele>-5.1</ele><time>2021-05-12T10:47:05Z</time><name>PT2293</name></trkpt>
<trkpt lat="53.098704" lon="06.055263"><ele>-4.9</ele><time>2021-05-12T10:47:06Z</time><name>PT2294</name></trkpt>
<trkpt lat="53.098710" lon="06.055246"><ele>-4.9</ele><time>2021-05-12T10:47:07Z</time><name>PT2295</name></trkpt>
<trkpt lat="53.098716" lon="06.055229"><ele>-4.7</ele><time>2021-05-12T10:47:08Z</time><name>PT2296</name></trkpt>
<trkpt lat="53.098722" lon="06.055211"><ele>-4.8</ele><time>2021-05-12T10:47:09Z</time><name>PT2297</name></trkpt>
<trkpt lat="53.098728" lon="06.055193"><ele>-4.7</ele><time>2021-05-12T10:47:10Z</time><name>PT2298</name></trkpt>
<trkpt lat="53.098734" lon="06.055176"><ele>-4.8</ele><time>2021-05-12T10:47:11Z</time><name>PT2299</name></trkpt>
<trkpt lat="53.098739" lon="06.055160"><ele>-4.9</ele><time>2021-05-12T10:47:12Z</time><name>PT2300</name></trkpt>
<trkpt lat="53.098745" lon="06.055145"><ele>-5</ele><time>2021-05-12T10:47:13Z</time><name>PT2301</name></trkpt>
<trkpt lat="53.098751" lon="06.055127"><ele>-4.9</ele><time>2021-05-12T10:47:14Z</time><name>PT2302</name></trkpt>
<trkpt lat="53.098757" lon="06.055109"><ele>-4.9</ele><time>2021-05-12T10:47:15Z</time><name>PT2303</name></trkpt>
<trkpt lat="53.098762" lon="06.055089"><ele>-4.9</ele><time>2021-05-12T10:47:16Z</time><name>PT2304</name></trkpt>
<trkpt lat="53.098767" lon="06.055071"><ele>-4.8</ele><time>2021-05-12T10:47:17Z</time><name>PT2305</name></trkpt>
<trkpt lat="53.098772" lon="06.055053"><ele>-4.7</ele><time>2021-05-12T10:47:18Z</time><name>PT2306</name></trkpt>
<trkpt lat="53.098779" lon="06.055031"><ele>-4.6</ele><time>2021-05-12T10:47:19Z</time><name>PT2307</name></trkpt>
<trkpt lat="53.098786" lon="06.055009"><ele>-4.5</ele><time>2021-05-12T10:47:20Z</time><name>PT2308</name></trkpt>
<trkpt lat="53.098792" lon="06.054988"><ele>-4.5</ele><time>2021-05-12T10:47:21Z</time><name>PT2309</name></trkpt>
<trkpt lat="53.098798" lon="06.054968"><ele>-4.4</ele><time>2021-05-12T10:47:22Z</time><name>PT2310</name></trkpt>
<trkpt lat="53.098803" lon="06.054952"><ele>-4.4</ele><time>2021-05-12T10:47:23Z</time><name>PT2311</name></trkpt>
<trkpt lat="53.098810" lon="06.054933"><ele>-4.6</ele><time>2021-05-12T10:47:24Z</time><name>PT2312</name></trkpt>
<trkpt lat="53.098816" lon="06.054914"><ele>-4.7</ele><time>2021-05-12T10:47:25Z</time><name>PT2313</name></trkpt>
<trkpt lat="53.098823" lon="06.054896"><ele>-4.6</ele><time>2021-05-12T10:47:26Z</time><name>PT2314</name></trkpt>
<trkpt lat="53.098830" lon="06.054877"><ele>-4.6</ele><time>2021-05-12T10:47:27Z</time><name>PT2315</name></trkpt>
<trkpt lat="53.098836" lon="06.054857"><ele>-4.6</ele><time>2021-05-12T10:47:28Z</time><name>PT2316</name></trkpt>
<trkpt lat="53.098842" lon="06.054840"><ele>-4.4</ele><time>2021-05-12T10:47:29Z</time><name>PT2317</name></trkpt>
<trkpt lat="53.098847" lon="06.054822"><ele>-4.4</ele><time>2021-05-12T10:47:30Z</time><name>PT2318</name></trkpt>
<trkpt lat="53.098853" lon="06.054804"><ele>-4.4</ele><time>2021-05-12T10:47:31Z</time><name>PT2319</name></trkpt>
<trkpt lat="53.098859" lon="06.054786"><ele>-4.6</ele><time>2021-05-12T10:47:32Z</time><name>PT2320</name></trkpt>
<trkpt lat="53.098864" lon="06.054769"><ele>-4.6</ele><time>2021-05-12T10:47:33Z</time><name>PT2321</name></trkpt>
<trkpt lat="53.098870" lon="06.054751"><ele>-4.6</ele><time>2021-05-12T10:47:34Z</time><name>PT2322</name></trkpt>
<trkpt lat="53.098876" lon="06.054735"><ele>-4.6</ele><time>2021-05-12T10:47:35Z</time><name>PT2323</name></trkpt>
<trkpt lat="53.098882" lon="06.054717"><ele>-4.6</ele><time>2021-05-12T10:47:36Z</time><name>PT2324</name></trkpt>
<trkpt lat="53.098887" lon="06.054701"><ele>-4.6</ele><time>2021-05-12T10:47:37Z</time><name>PT2325</name></trkpt>
<trkpt lat="53.098893" lon="06.054683"><ele>-4.6</ele><time>2021-05-12T10:47:38Z</time><name>PT2326</name></trkpt>
<trkpt lat="53.098898" lon="06.054666"><ele>-4.7</ele><time>2021-05-12T10:47:39Z</time><name>PT2327</name></trkpt>
<trkpt lat="53.098904" lon="06.054647"><ele>-4.6</ele><time>2021-05-12T10:47:40Z</time><name>PT2328</name></trkpt>
<trkpt lat="53.098909" lon="06.054627"><ele>-4.6</ele><time>2021-05-12T10:47:41Z</time><name>PT2329</name></trkpt>
<trkpt lat="53.098913" lon="06.054608"><ele>-4.6</ele><time>2021-05-12T10:47:42Z</time><name>PT2330</name></trkpt>
<trkpt lat="53.098917" lon="06.054589"><ele>-4.6</ele><time>2021-05-12T10:47:43Z</time><name>PT2331</name></trkpt>
<trkpt lat="53.098922" lon="06.054570"><ele>-4.6</ele><time>2021-05-12T10:47:44Z</time><name>PT2332</name></trkpt>
<trkpt lat="53.098925" lon="06.054551"><ele>-4.6</ele><time>2021-05-12T10:47:45Z</time><name>PT2333</name></trkpt>
<trkpt lat="53.098931" lon="06.054531"><ele>-4.6</ele><time>2021-05-12T10:47:46Z</time><name>PT2334</name></trkpt>
<trkpt lat="53.098937" lon="06.054512"><ele>-4.6</ele><time>2021-05-12T10:47:47Z</time><name>PT2335</name></trkpt>
<trkpt lat="53.098943" lon="06.054492"><ele>-4.6</ele><time>2021-05-12T10:47:49Z</time><name>PT2336</name></trkpt>
<trkpt lat="53.098948" lon="06.054472"><ele>-4.7</ele><time>2021-05-12T10:47:49Z</time><name>PT2337</name></trkpt>
<trkpt lat="53.098953" lon="06.054454"><ele>-4.6</ele><time>2021-05-12T10:47:50Z</time><name>PT2338</name></trkpt>
<trkpt lat="53.098958" lon="06.054437"><ele>-4.7</ele><time>2021-05-12T10:47:52Z</time><name>PT2339</name></trkpt>
<trkpt lat="53.098964" lon="06.054419"><ele>-4.7</ele><time>2021-05-12T10:47:52Z</time><name>PT2340</name></trkpt>
<trkpt lat="53.098969" lon="06.054401"><ele>-4.6</ele><time>2021-05-12T10:47:53Z</time><name>PT2341</name></trkpt>
<trkpt lat="53.098976" lon="06.054381"><ele>-4.6</ele><time>2021-05-12T10:47:54Z</time><name>PT2342</name></trkpt>
<trkpt lat="53.098982" lon="06.054362"><ele>-4.5</ele><time>2021-05-12T10:47:55Z</time><name>PT2343</name></trkpt>
<trkpt lat="53.098988" lon="06.054343"><ele>-4.3</ele><time>2021-05-12T10:47:56Z</time><name>PT2344</name></trkpt>
<trkpt lat="53.098991" lon="06.054326"><ele>-4.3</ele><time>2021-05-12T10:47:57Z</time><name>PT2345</name></trkpt>
<trkpt lat="53.098996" lon="06.054310"><ele>-4.1</ele><time>2021-05-12T10:47:58Z</time><name>PT2346</name></trkpt>
<trkpt lat="53.099002" lon="06.054293"><ele>-4.2</ele><time>2021-05-12T10:47:59Z</time><name>PT2347</name></trkpt>
<trkpt lat="53.099006" lon="06.054274"><ele>-4.2</ele><time>2021-05-12T10:48:00Z</time><name>PT2348</name></trkpt>
<trkpt lat="53.099010" lon="06.054255"><ele>-4.2</ele><time>2021-05-12T10:48:01Z</time><name>PT2349</name></trkpt>
<trkpt lat="53.099012" lon="06.054237"><ele>-4.2</ele><time>2021-05-12T10:48:02Z</time><name>PT2350</name></trkpt>
<trkpt lat="53.099017" lon="06.054219"><ele>-4.6</ele><time>2021-05-12T10:48:03Z</time><name>PT2351</name></trkpt>
<trkpt lat="53.099024" lon="06.054201"><ele>-4.6</ele><time>2021-05-12T10:48:04Z</time><name>PT2352</name></trkpt>
<trkpt lat="53.099029" lon="06.054186"><ele>-4.6</ele><time>2021-05-12T10:48:05Z</time><name>PT2353</name></trkpt>
<trkpt lat="53.099034" lon="06.054171"><ele>-4.7</ele><time>2021-05-12T10:48:06Z</time><name>PT2354</name></trkpt>
<trkpt lat="53.099039" lon="06.054153"><ele>-4.8</ele><time>2021-05-12T10:48:07Z</time><name>PT2355</name></trkpt>
<trkpt lat="53.099044" lon="06.054137"><ele>-4.7</ele><time>2021-05-12T10:48:08Z</time><name>PT2356</name></trkpt>
<trkpt lat="53.099049" lon="06.054120"><ele>-4.9</ele><time>2021-05-12T10:48:09Z</time><name>PT2357</name></trkpt>
<trkpt lat="53.099055" lon="06.054103"><ele>-4.9</ele><time>2021-05-12T10:48:10Z</time><name>PT2358</name></trkpt>
<trkpt lat="53.099062" lon="06.054084"><ele>-4.8</ele><time>2021-05-12T10:48:11Z</time><name>PT2359</name></trkpt>
<trkpt lat="53.099067" lon="06.054067"><ele>-4.7</ele><time>2021-05-12T10:48:12Z</time><name>PT2360</name></trkpt>
<trkpt lat="53.099073" lon="06.054049"><ele>-4.7</ele><time>2021-05-12T10:48:13Z</time><name>PT2361</name></trkpt>
<trkpt lat="53.099078" lon="06.054030"><ele>-4.6</ele><time>2021-05-12T10:48:14Z</time><name>PT2362</name></trkpt>
<trkpt lat="53.099083" lon="06.054012"><ele>-4.6</ele><time>2021-05-12T10:48:15Z</time><name>PT2363</name></trkpt>
<trkpt lat="53.099089" lon="06.053994"><ele>-4.6</ele><time>2021-05-12T10:48:16Z</time><name>PT2364</name></trkpt>
<trkpt lat="53.099094" lon="06.053976"><ele>-4.8</ele><time>2021-05-12T10:48:17Z</time><name>PT2365</name></trkpt>
<trkpt lat="53.099100" lon="06.053960"><ele>-5.1</ele><time>2021-05-12T10:48:18Z</time><name>PT2366</name></trkpt>
<trkpt lat="53.099106" lon="06.053943"><ele>-5</ele><time>2021-05-12T10:48:19Z</time><name>PT2367</name></trkpt>
<trkpt lat="53.099112" lon="06.053927"><ele>-5.1</ele><time>2021-05-12T10:48:20Z</time><name>PT2368</name></trkpt>
<trkpt lat="53.099119" lon="06.053910"><ele>-4.9</ele><time>2021-05-12T10:48:21Z</time><name>PT2369</name></trkpt>
<trkpt lat="53.099125" lon="06.053893"><ele>-5</ele><time>2021-05-12T10:48:22Z</time><name>PT2370</name></trkpt>
<trkpt lat="53.099131" lon="06.053878"><ele>-4.9</ele><time>2021-05-12T10:48:23Z</time><name>PT2371</name></trkpt>
<trkpt lat="53.099134" lon="06.053859"><ele>-4.9</ele><time>2021-05-12T10:48:24Z</time><name>PT2372</name></trkpt>
<trkpt lat="53.099138" lon="06.053840"><ele>-5</ele><time>2021-05-12T10:48:25Z</time><name>PT2373</name></trkpt>
<trkpt lat="53.099142" lon="06.053822"><ele>-5.1</ele><time>2021-05-12T10:48:26Z</time><name>PT2374</name></trkpt>
<trkpt lat="53.099147" lon="06.053804"><ele>-5.1</ele><time>2021-05-12T10:48:27Z</time><name>PT2375</name></trkpt>
<trkpt lat="53.099152" lon="06.053787"><ele>-5.1</ele><time>2021-05-12T10:48:28Z</time><name>PT2376</name></trkpt>
<trkpt lat="53.099157" lon="06.053771"><ele>-5.2</ele><time>2021-05-12T10:48:29Z</time><name>PT2377</name></trkpt>
<trkpt lat="53.099162" lon="06.053756"><ele>-5.3</ele><time>2021-05-12T10:48:30Z</time><name>PT2378</name></trkpt>
<trkpt lat="53.099168" lon="06.053739"><ele>-5.4</ele><time>2021-05-12T10:48:31Z</time><name>PT2379</name></trkpt>
<trkpt lat="53.099172" lon="06.053719"><ele>-5.2</ele><time>2021-05-12T10:48:32Z</time><name>PT2380</name></trkpt>
<trkpt lat="53.099177" lon="06.053702"><ele>-5.3</ele><time>2021-05-12T10:48:33Z</time><name>PT2381</name></trkpt>
<trkpt lat="53.099181" lon="06.053685"><ele>-5.2</ele><time>2021-05-12T10:48:34Z</time><name>PT2382</name></trkpt>
<trkpt lat="53.099186" lon="06.053669"><ele>-5.1</ele><time>2021-05-12T10:48:35Z</time><name>PT2383</name></trkpt>
<trkpt lat="53.099193" lon="06.053656"><ele>-5.2</ele><time>2021-05-12T10:48:36Z</time><name>PT2384</name></trkpt>
<trkpt lat="53.099202" lon="06.053648"><ele>-5.2</ele><time>2021-05-12T10:48:37Z</time><name>PT2385</name></trkpt>
<trkpt lat="53.099211" lon="06.053641"><ele>-5.1</ele><time>2021-05-12T10:48:38Z</time><name>PT2386</name></trkpt>
<trkpt lat="53.099221" lon="06.053638"><ele>-5.2</ele><time>2021-05-12T10:48:39Z</time><name>PT2387</name></trkpt>
<trkpt lat="53.099230" lon="06.053637"><ele>-5.2</ele><time>2021-05-12T10:48:40Z</time><name>PT2388</name></trkpt>
<trkpt lat="53.099239" lon="06.053638"><ele>-5.1</ele><time>2021-05-12T10:48:41Z</time><name>PT2389</name></trkpt>
<trkpt lat="53.099250" lon="06.053640"><ele>-5.1</ele><time>2021-05-12T10:48:42Z</time><name>PT2390</name></trkpt>
<trkpt lat="53.099261" lon="06.053642"><ele>-5.2</ele><time>2021-05-12T10:48:43Z</time><name>PT2391</name></trkpt>
<trkpt lat="53.099272" lon="06.053644"><ele>-5.4</ele><time>2021-05-12T10:48:44Z</time><name>PT2392</name></trkpt>
<trkpt lat="53.099284" lon="06.053648"><ele>-5.6</ele><time>2021-05-12T10:48:45Z</time><name>PT2393</name></trkpt>
<trkpt lat="53.099296" lon="06.053651"><ele>-5.8</ele><time>2021-05-12T10:48:46Z</time><name>PT2394</name></trkpt>
<trkpt lat="53.099307" lon="06.053658"><ele>-6</ele><time>2021-05-12T10:48:47Z</time><name>PT2395</name></trkpt>
<trkpt lat="53.099316" lon="06.053659"><ele>-6.2</ele><time>2021-05-12T10:48:48Z</time><name>PT2396</name></trkpt>
<trkpt lat="53.099324" lon="06.053661"><ele>-6.3</ele><time>2021-05-12T10:48:49Z</time><name>PT2397</name></trkpt>
<trkpt lat="53.099330" lon="06.053662"><ele>-6.4</ele><time>2021-05-12T10:48:50Z</time><name>PT2398</name></trkpt>
<trkpt lat="53.099341" lon="06.053664"><ele>-6.3</ele><time>2021-05-12T10:48:51Z</time><name>PT2399</name></trkpt>
<trkpt lat="53.099355" lon="06.053666"><ele>-6.3</ele><time>2021-05-12T10:48:52Z</time><name>PT2400</name></trkpt>
<trkpt lat="53.099369" lon="06.053666"><ele>-6.3</ele><time>2021-05-12T10:48:53Z</time><name>PT2401</name></trkpt>
<trkpt lat="53.099381" lon="06.053664"><ele>-6.3</ele><time>2021-05-12T10:48:54Z</time><name>PT2402</name></trkpt>
<trkpt lat="53.099393" lon="06.053664"><ele>-6.2</ele><time>2021-05-12T10:48:55Z</time><name>PT2403</name></trkpt>
<trkpt lat="53.099401" lon="06.053665"><ele>-6.1</ele><time>2021-05-12T10:48:56Z</time><name>PT2404</name></trkpt>
<trkpt lat="53.099412" lon="06.053662"><ele>-6</ele><time>2021-05-12T10:48:58Z</time><name>PT2405</name></trkpt>
<trkpt lat="53.099421" lon="06.053661"><ele>-6</ele><time>2021-05-12T10:48:58Z</time><name>PT2406</name></trkpt>
<trkpt lat="53.099431" lon="06.053661"><ele>-6</ele><time>2021-05-12T10:48:59Z</time><name>PT2407</name></trkpt>
<trkpt lat="53.099441" lon="06.053657"><ele>-6</ele><time>2021-05-12T10:49:00Z</time><name>PT2408</name></trkpt>
<trkpt lat="53.099452" lon="06.053655"><ele>-6</ele><time>2021-05-12T10:49:01Z</time><name>PT2409</name></trkpt>
<trkpt lat="53.099463" lon="06.053656"><ele>-6</ele><time>2021-05-12T10:49:02Z</time><name>PT2410</name></trkpt>
<trkpt lat="53.099473" lon="06.053656"><ele>-5.9</ele><time>2021-05-12T10:49:03Z</time><name>PT2411</name></trkpt>
<trkpt lat="53.099483" lon="06.053658"><ele>-6</ele><time>2021-05-12T10:49:04Z</time><name>PT2412</name></trkpt>
<trkpt lat="53.099497" lon="06.053658"><ele>-6</ele><time>2021-05-12T10:49:05Z</time><name>PT2413</name></trkpt>
<trkpt lat="53.099509" lon="06.053658"><ele>-6</ele><time>2021-05-12T10:49:06Z</time><name>PT2414</name></trkpt>
<trkpt lat="53.099521" lon="06.053657"><ele>-5.8</ele><time>2021-05-12T10:49:07Z</time><name>PT2415</name></trkpt>
<trkpt lat="53.099534" lon="06.053655"><ele>-5.8</ele><time>2021-05-12T10:49:08Z</time><name>PT2416</name></trkpt>
<trkpt lat="53.099546" lon="06.053654"><ele>-5.5</ele><time>2021-05-12T10:49:09Z</time><name>PT2417</name></trkpt>
<trkpt lat="53.099559" lon="06.053650"><ele>-5.4</ele><time>2021-05-12T10:49:10Z</time><name>PT2418</name></trkpt>
<trkpt lat="53.099569" lon="06.053648"><ele>-5.4</ele><time>2021-05-12T10:49:11Z</time><name>PT2419</name></trkpt>
<trkpt lat="53.099582" lon="06.053646"><ele>-5.4</ele><time>2021-05-12T10:49:13Z</time><name>PT2420</name></trkpt>
<trkpt lat="53.099596" lon="06.053648"><ele>-5.3</ele><time>2021-05-12T10:49:13Z</time><name>PT2421</name></trkpt>
<trkpt lat="53.099613" lon="06.053650"><ele>-5.4</ele><time>2021-05-12T10:49:14Z</time><name>PT2422</name></trkpt>
<trkpt lat="53.099626" lon="06.053652"><ele>-5.4</ele><time>2021-05-12T10:49:15Z</time><name>PT2423</name></trkpt>
<trkpt lat="53.099634" lon="06.053655"><ele>-5.6</ele><time>2021-05-12T10:49:16Z</time><name>PT2424</name></trkpt>
<trkpt lat="53.099641" lon="06.053655"><ele>-5.5</ele><time>2021-05-12T10:49:17Z</time><name>PT2425</name></trkpt>
<trkpt lat="53.099648" lon="06.053655"><ele>-5.7</ele><time>2021-05-12T10:49:18Z</time><name>PT2426</name></trkpt>
<trkpt lat="53.099657" lon="06.053655"><ele>-5.6</ele><time>2021-05-12T10:49:19Z</time><name>PT2427</name></trkpt>
<trkpt lat="53.099665" lon="06.053656"><ele>-5.5</ele><time>2021-05-12T10:49:20Z</time><name>PT2428</name></trkpt>
<trkpt lat="53.099673" lon="06.053657"><ele>-5.3</ele><time>2021-05-12T10:49:21Z</time><name>PT2429</name></trkpt>
<trkpt lat="53.099680" lon="06.053657"><ele>-5.3</ele><time>2021-05-12T10:49:22Z</time><name>PT2430</name></trkpt>
<trkpt lat="53.099689" lon="06.053656"><ele>-5.2</ele><time>2021-05-12T10:49:23Z</time><name>PT2431</name></trkpt>
<trkpt lat="53.099699" lon="06.053657"><ele>-5.3</ele><time>2021-05-12T10:49:24Z</time><name>PT2432</name></trkpt>
<trkpt lat="53.099706" lon="06.053660"><ele>-5.2</ele><time>2021-05-12T10:49:25Z</time><name>PT2433</name></trkpt>
<trkpt lat="53.099716" lon="06.053659"><ele>-5.4</ele><time>2021-05-12T10:49:26Z</time><name>PT2434</name></trkpt>
<trkpt lat="53.099728" lon="06.053657"><ele>-5.5</ele><time>2021-05-12T10:49:28Z</time><name>PT2435</name></trkpt>
<trkpt lat="53.099741" lon="06.053660"><ele>-5.4</ele><time>2021-05-12T10:49:28Z</time><name>PT2436</name></trkpt>
<trkpt lat="53.099750" lon="06.053663"><ele>-5.4</ele><time>2021-05-12T10:49:29Z</time><name>PT2437</name></trkpt>
<trkpt lat="53.099760" lon="06.053665"><ele>-5.3</ele><time>2021-05-12T10:49:31Z</time><name>PT2438</name></trkpt>
<trkpt lat="53.099769" lon="06.053666"><ele>-5.2</ele><time>2021-05-12T10:49:31Z</time><name>PT2439</name></trkpt>
<trkpt lat="53.099778" lon="06.053668"><ele>-5.3</ele><time>2021-05-12T10:49:32Z</time><name>PT2440</name></trkpt>
<trkpt lat="53.099789" lon="06.053669"><ele>-5.1</ele><time>2021-05-12T10:49:33Z</time><name>PT2441</name></trkpt>
<trkpt lat="53.099800" lon="06.053670"><ele>-5.1</ele><time>2021-05-12T10:49:34Z</time><name>PT2442</name></trkpt>
<trkpt lat="53.099806" lon="06.053669"><ele>-5.1</ele><time>2021-05-12T10:49:35Z</time><name>PT2443</name></trkpt>
<trkpt lat="53.099811" lon="06.053666"><ele>-4.8</ele><time>2021-05-12T10:49:36Z</time><name>PT2444</name></trkpt>
<trkpt lat="53.099810" lon="06.053666"><ele>-5</ele><time>2021-05-12T10:49:37Z</time><name>PT2445</name></trkpt>
<trkpt lat="53.099811" lon="06.053669"><ele>-5.6</ele><time>2021-05-12T10:49:44Z</time><name>PT2446</name></trkpt>
<trkpt lat="53.099820" lon="06.053672"><ele>-5.6</ele><time>2021-05-12T10:49:45Z</time><name>PT2447</name></trkpt>
<trkpt lat="53.099831" lon="06.053668"><ele>-5.7</ele><time>2021-05-12T10:49:46Z</time><name>PT2448</name></trkpt>
<trkpt lat="53.099841" lon="06.053667"><ele>-5.6</ele><time>2021-05-12T10:49:47Z</time><name>PT2449</name></trkpt>
<trkpt lat="53.099850" lon="06.053668"><ele>-5.6</ele><time>2021-05-12T10:49:48Z</time><name>PT2450</name></trkpt>
<trkpt lat="53.099859" lon="06.053670"><ele>-5.4</ele><time>2021-05-12T10:49:49Z</time><name>PT2451</name></trkpt>
<trkpt lat="53.099864" lon="06.053672"><ele>-5.2</ele><time>2021-05-12T10:49:50Z</time><name>PT2452</name></trkpt>
<trkpt lat="53.099870" lon="06.053673"><ele>-5.1</ele><time>2021-05-12T10:49:51Z</time><name>PT2453</name></trkpt>
<trkpt lat="53.099879" lon="06.053675"><ele>-5.1</ele><time>2021-05-12T10:49:52Z</time><name>PT2454</name></trkpt>
<trkpt lat="53.099889" lon="06.053677"><ele>-5</ele><time>2021-05-12T10:49:53Z</time><name>PT2455</name></trkpt>
<trkpt lat="53.099897" lon="06.053677"><ele>-5.1</ele><time>2021-05-12T10:49:54Z</time><name>PT2456</name></trkpt>
<trkpt lat="53.099907" lon="06.053677"><ele>-5.2</ele><time>2021-05-12T10:49:55Z</time><name>PT2457</name></trkpt>
<trkpt lat="53.099918" lon="06.053679"><ele>-5.1</ele><time>2021-05-12T10:49:56Z</time><name>PT2458</name></trkpt>
<trkpt lat="53.099926" lon="06.053680"><ele>-5.2</ele><time>2021-05-12T10:49:57Z</time><name>PT2459</name></trkpt>
<trkpt lat="53.099936" lon="06.053682"><ele>-5.3</ele><time>2021-05-12T10:49:58Z</time><name>PT2460</name></trkpt>
<trkpt lat="53.099946" lon="06.053686"><ele>-5.3</ele><time>2021-05-12T10:49:59Z</time><name>PT2461</name></trkpt>
<trkpt lat="53.099955" lon="06.053688"><ele>-5.2</ele><time>2021-05-12T10:50:00Z</time><name>PT2462</name></trkpt>
<trkpt lat="53.099965" lon="06.053691"><ele>-5.3</ele><time>2021-05-12T10:50:01Z</time><name>PT2463</name></trkpt>
<trkpt lat="53.099974" lon="06.053690"><ele>-5.3</ele><time>2021-05-12T10:50:02Z</time><name>PT2464</name></trkpt>
<trkpt lat="53.099986" lon="06.053688"><ele>-5.4</ele><time>2021-05-12T10:50:03Z</time><name>PT2465</name></trkpt>
<trkpt lat="53.099996" lon="06.053689"><ele>-5.6</ele><time>2021-05-12T10:50:04Z</time><name>PT2466</name></trkpt>
<trkpt lat="53.100005" lon="06.053695"><ele>-5.6</ele><time>2021-05-12T10:50:05Z</time><name>PT2467</name></trkpt>
<trkpt lat="53.100016" lon="06.053701"><ele>-5.4</ele><time>2021-05-12T10:50:06Z</time><name>PT2468</name></trkpt>
<trkpt lat="53.100025" lon="06.053703"><ele>-5.3</ele><time>2021-05-12T10:50:07Z</time><name>PT2469</name></trkpt>
<trkpt lat="53.100036" lon="06.053704"><ele>-5.4</ele><time>2021-05-12T10:50:08Z</time><name>PT2470</name></trkpt>
<trkpt lat="53.100045" lon="06.053706"><ele>-5.1</ele><time>2021-05-12T10:50:09Z</time><name>PT2471</name></trkpt>
<trkpt lat="53.100054" lon="06.053709"><ele>-5.1</ele><time>2021-05-12T10:50:10Z</time><name>PT2472</name></trkpt>
<trkpt lat="53.100065" lon="06.053713"><ele>-5.2</ele><time>2021-05-12T10:50:11Z</time><name>PT2473</name></trkpt>
<trkpt lat="53.100075" lon="06.053718"><ele>-5.1</ele><time>2021-05-12T10:50:12Z</time><name>PT2474</name></trkpt>
<trkpt lat="53.100083" lon="06.053724"><ele>-4.9</ele><time>2021-05-12T10:50:13Z</time><name>PT2475</name></trkpt>
<trkpt lat="53.100099" lon="06.053723"><ele>-5.1</ele><time>2021-05-12T10:50:14Z</time><name>PT2476</name></trkpt>
<trkpt lat="53.100110" lon="06.053725"><ele>-4.8</ele><time>2021-05-12T10:50:15Z</time><name>PT2477</name></trkpt>
<trkpt lat="53.100118" lon="06.053726"><ele>-4.8</ele><time>2021-05-12T10:50:16Z</time><name>PT2478</name></trkpt>
<trkpt lat="53.100125" lon="06.053729"><ele>-5</ele><time>2021-05-12T10:50:17Z</time><name>PT2479</name></trkpt>
<trkpt lat="53.100133" lon="06.053728"><ele>-4.9</ele><time>2021-05-12T10:50:18Z</time><name>PT2480</name></trkpt>
<trkpt lat="53.100141" lon="06.053723"><ele>-4.9</ele><time>2021-05-12T10:50:19Z</time><name>PT2481</name></trkpt>
<trkpt lat="53.100145" lon="06.053720"><ele>-5.1</ele><time>2021-05-12T10:50:20Z</time><name>PT2482</name></trkpt>
<trkpt lat="53.100154" lon="06.053715"><ele>-5.2</ele><time>2021-05-12T10:50:21Z</time><name>PT2483</name></trkpt>
<trkpt lat="53.100161" lon="06.053714"><ele>-5.2</ele><time>2021-05-12T10:50:22Z</time><name>PT2484</name></trkpt>
<trkpt lat="53.100166" lon="06.053709"><ele>-5.4</ele><time>2021-05-12T10:50:23Z</time><name>PT2485</name></trkpt>
<trkpt lat="53.100175" lon="06.053704"><ele>-5.4</ele><time>2021-05-12T10:50:24Z</time><name>PT2486</name></trkpt>
<trkpt lat="53.100181" lon="06.053697"><ele>-5.3</ele><time>2021-05-12T10:50:25Z</time><name>PT2487</name></trkpt>
<trkpt lat="53.100189" lon="06.053684"><ele>-5.4</ele><time>2021-05-12T10:50:26Z</time><name>PT2488</name></trkpt>
<trkpt lat="53.100200" lon="06.053668"><ele>-5.5</ele><time>2021-05-12T10:50:27Z</time><name>PT2489</name></trkpt>
<trkpt lat="53.100200" lon="06.053651"><ele>-5.5</ele><time>2021-05-12T10:50:28Z</time><name>PT2490</name></trkpt>
<trkpt lat="53.100203" lon="06.053638"><ele>-5.4</ele><time>2021-05-12T10:50:29Z</time><name>PT2491</name></trkpt>
<trkpt lat="53.100208" lon="06.053621"><ele>-5.6</ele><time>2021-05-12T10:50:30Z</time><name>PT2492</name></trkpt>
<trkpt lat="53.100211" lon="06.053605"><ele>-5.6</ele><time>2021-05-12T10:50:31Z</time><name>PT2493</name></trkpt>
<trkpt lat="53.100211" lon="06.053592"><ele>-5.3</ele><time>2021-05-12T10:50:32Z</time><name>PT2494</name></trkpt>
<trkpt lat="53.100212" lon="06.053578"><ele>-5.2</ele><time>2021-05-12T10:50:34Z</time><name>PT2495</name></trkpt>
<trkpt lat="53.100215" lon="06.053560"><ele>-5.2</ele><time>2021-05-12T10:50:34Z</time><name>PT2496</name></trkpt>
<trkpt lat="53.100219" lon="06.053540"><ele>-5</ele><time>2021-05-12T10:50:35Z</time><name>PT2497</name></trkpt>
<trkpt lat="53.100219" lon="06.053523"><ele>-5.1</ele><time>2021-05-12T10:50:37Z</time><name>PT2498</name></trkpt>
<trkpt lat="53.100222" lon="06.053503"><ele>-5</ele><time>2021-05-12T10:50:37Z</time><name>PT2499</name></trkpt>
<trkpt lat="53.100225" lon="06.053493"><ele>-5.1</ele><time>2021-05-12T10:50:38Z</time><name>PT2500</name></trkpt>
<trkpt lat="53.100228" lon="06.053481"><ele>-5.1</ele><time>2021-05-12T10:50:39Z</time><name>PT2501</name></trkpt>
<trkpt lat="53.100231" lon="06.053461"><ele>-5.1</ele><time>2021-05-12T10:50:40Z</time><name>PT2502</name></trkpt>
<trkpt lat="53.100235" lon="06.053445"><ele>-5.2</ele><time>2021-05-12T10:50:41Z</time><name>PT2503</name></trkpt>
<trkpt lat="53.100238" lon="06.053427"><ele>-5.2</ele><time>2021-05-12T10:50:42Z</time><name>PT2504</name></trkpt>
<trkpt lat="53.100241" lon="06.053407"><ele>-5.2</ele><time>2021-05-12T10:50:43Z</time><name>PT2505</name></trkpt>
<trkpt lat="53.100245" lon="06.053389"><ele>-5.2</ele><time>2021-05-12T10:50:44Z</time><name>PT2506</name></trkpt>
<trkpt lat="53.100246" lon="06.053371"><ele>-5.1</ele><time>2021-05-12T10:50:45Z</time><name>PT2507</name></trkpt>
<trkpt lat="53.100248" lon="06.053353"><ele>-5.1</ele><time>2021-05-12T10:50:46Z</time><name>PT2508</name></trkpt>
<trkpt lat="53.100249" lon="06.053331"><ele>-5.3</ele><time>2021-05-12T10:50:47Z</time><name>PT2509</name></trkpt>
<trkpt lat="53.100251" lon="06.053314"><ele>-5.2</ele><time>2021-05-12T10:50:48Z</time><name>PT2510</name></trkpt>
<trkpt lat="53.100251" lon="06.053291"><ele>-5.2</ele><time>2021-05-12T10:50:49Z</time><name>PT2511</name></trkpt>
<trkpt lat="53.100254" lon="06.053271"><ele>-5.2</ele><time>2021-05-12T10:50:50Z</time><name>PT2512</name></trkpt>
<trkpt lat="53.100256" lon="06.053250"><ele>-5.2</ele><time>2021-05-12T10:50:51Z</time><name>PT2513</name></trkpt>
<trkpt lat="53.100258" lon="06.053229"><ele>-5.3</ele><time>2021-05-12T10:50:52Z</time><name>PT2514</name></trkpt>
<trkpt lat="53.100261" lon="06.053213"><ele>-5.3</ele><time>2021-05-12T10:50:53Z</time><name>PT2515</name></trkpt>
<trkpt lat="53.100261" lon="06.053198"><ele>-5.4</ele><time>2021-05-12T10:50:54Z</time><name>PT2516</name></trkpt>
<trkpt lat="53.100260" lon="06.053178"><ele>-5.5</ele><time>2021-05-12T10:50:55Z</time><name>PT2517</name></trkpt>
<trkpt lat="53.100259" lon="06.053155"><ele>-5.4</ele><time>2021-05-12T10:50:56Z</time><name>PT2518</name></trkpt>
<trkpt lat="53.100260" lon="06.053135"><ele>-5.2</ele><time>2021-05-12T10:50:57Z</time><name>PT2519</name></trkpt>
<trkpt lat="53.100266" lon="06.053126"><ele>-5.2</ele><time>2021-05-12T10:50:58Z</time><name>PT2520</name></trkpt>
<trkpt lat="53.100268" lon="06.053113"><ele>-5.1</ele><time>2021-05-12T10:50:59Z</time><name>PT2521</name></trkpt>
<trkpt lat="53.100271" lon="06.053092"><ele>-5</ele><time>2021-05-12T10:51:00Z</time><name>PT2522</name></trkpt>
<trkpt lat="53.100272" lon="06.053068"><ele>-5</ele><time>2021-05-12T10:51:01Z</time><name>PT2523</name></trkpt>
<trkpt lat="53.100271" lon="06.053047"><ele>-5</ele><time>2021-05-12T10:51:02Z</time><name>PT2524</name></trkpt>
<trkpt lat="53.100266" lon="06.053025"><ele>-5</ele><time>2021-05-12T10:51:03Z</time><name>PT2525</name></trkpt>
<trkpt lat="53.100266" lon="06.053004"><ele>-5</ele><time>2021-05-12T10:51:04Z</time><name>PT2526</name></trkpt>
<trkpt lat="53.100268" lon="06.052982"><ele>-5.1</ele><time>2021-05-12T10:51:05Z</time><name>PT2527</name></trkpt>
<trkpt lat="53.100271" lon="06.052960"><ele>-5</ele><time>2021-05-12T10:51:06Z</time><name>PT2528</name></trkpt>
<trkpt lat="53.100271" lon="06.052941"><ele>-5</ele><time>2021-05-12T10:51:07Z</time><name>PT2529</name></trkpt>
<trkpt lat="53.100271" lon="06.052917"><ele>-5</ele><time>2021-05-12T10:51:08Z</time><name>PT2530</name></trkpt>
<trkpt lat="53.100271" lon="06.052900"><ele>-5</ele><time>2021-05-12T10:51:09Z</time><name>PT2531</name></trkpt>
<trkpt lat="53.100273" lon="06.052880"><ele>-5</ele><time>2021-05-12T10:51:10Z</time><name>PT2532</name></trkpt>
<trkpt lat="53.100277" lon="06.052860"><ele>-5.1</ele><time>2021-05-12T10:51:11Z</time><name>PT2533</name></trkpt>
<trkpt lat="53.100281" lon="06.052845"><ele>-5.4</ele><time>2021-05-12T10:51:12Z</time><name>PT2534</name></trkpt>
<trkpt lat="53.100283" lon="06.052830"><ele>-5.5</ele><time>2021-05-12T10:51:13Z</time><name>PT2535</name></trkpt>
<trkpt lat="53.100284" lon="06.052807"><ele>-5.5</ele><time>2021-05-12T10:51:14Z</time><name>PT2536</name></trkpt>
<trkpt lat="53.100288" lon="06.052793"><ele>-5.6</ele><time>2021-05-12T10:51:15Z</time><name>PT2537</name></trkpt>
<trkpt lat="53.100291" lon="06.052778"><ele>-5.5</ele><time>2021-05-12T10:51:16Z</time><name>PT2538</name></trkpt>
<trkpt lat="53.100291" lon="06.052763"><ele>-5.5</ele><time>2021-05-12T10:51:17Z</time><name>PT2539</name></trkpt>
<trkpt lat="53.100289" lon="06.052744"><ele>-5.2</ele><time>2021-05-12T10:51:18Z</time><name>PT2540</name></trkpt>
<trkpt lat="53.100289" lon="06.052727"><ele>-5.2</ele><time>2021-05-12T10:51:19Z</time><name>PT2541</name></trkpt>
<trkpt lat="53.100290" lon="06.052709"><ele>-5.3</ele><time>2021-05-12T10:51:20Z</time><name>PT2542</name></trkpt>
<trkpt lat="53.100294" lon="06.052695"><ele>-5.3</ele><time>2021-05-12T10:51:21Z</time><name>PT2543</name></trkpt>
<trkpt lat="53.100296" lon="06.052680"><ele>-5.4</ele><time>2021-05-12T10:51:22Z</time><name>PT2544</name></trkpt>
<trkpt lat="53.100304" lon="06.052650"><ele>-5.6</ele><time>2021-05-12T10:51:23Z</time><name>PT2545</name></trkpt>
<trkpt lat="53.100308" lon="06.052636"><ele>-5.5</ele><time>2021-05-12T10:51:24Z</time><name>PT2546</name></trkpt>
<trkpt lat="53.100312" lon="06.052618"><ele>-5.6</ele><time>2021-05-12T10:51:25Z</time><name>PT2547</name></trkpt>
<trkpt lat="53.100314" lon="06.052599"><ele>-5.6</ele><time>2021-05-12T10:51:26Z</time><name>PT2548</name></trkpt>
<trkpt lat="53.100317" lon="06.052580"><ele>-5.6</ele><time>2021-05-12T10:51:27Z</time><name>PT2549</name></trkpt>
<trkpt lat="53.100320" lon="06.052559"><ele>-5.6</ele><time>2021-05-12T10:51:28Z</time><name>PT2550</name></trkpt>
<trkpt lat="53.100323" lon="06.052534"><ele>-5.6</ele><time>2021-05-12T10:51:29Z</time><name>PT2551</name></trkpt>
<trkpt lat="53.100325" lon="06.052513"><ele>-5.2</ele><time>2021-05-12T10:51:30Z</time><name>PT2552</name></trkpt>
<trkpt lat="53.100328" lon="06.052494"><ele>-5.1</ele><time>2021-05-12T10:51:31Z</time><name>PT2553</name></trkpt>
<trkpt lat="53.100333" lon="06.052476"><ele>-5.2</ele><time>2021-05-12T10:51:32Z</time><name>PT2554</name></trkpt>
<trkpt lat="53.100334" lon="06.052457"><ele>-5.3</ele><time>2021-05-12T10:51:33Z</time><name>PT2555</name></trkpt>
<trkpt lat="53.100339" lon="06.052439"><ele>-5.4</ele><time>2021-05-12T10:51:34Z</time><name>PT2556</name></trkpt>
<trkpt lat="53.100343" lon="06.052422"><ele>-5.5</ele><time>2021-05-12T10:51:35Z</time><name>PT2557</name></trkpt>
<trkpt lat="53.100347" lon="06.052401"><ele>-5.3</ele><time>2021-05-12T10:51:36Z</time><name>PT2558</name></trkpt>
<trkpt lat="53.100352" lon="06.052381"><ele>-5.4</ele><time>2021-05-12T10:51:37Z</time><name>PT2559</name></trkpt>
<trkpt lat="53.100357" lon="06.052358"><ele>-5.2</ele><time>2021-05-12T10:51:38Z</time><name>PT2560</name></trkpt>
<trkpt lat="53.100359" lon="06.052332"><ele>-5.1</ele><time>2021-05-12T10:51:39Z</time><name>PT2561</name></trkpt>
<trkpt lat="53.100362" lon="06.052311"><ele>-5.1</ele><time>2021-05-12T10:51:40Z</time><name>PT2562</name></trkpt>
<trkpt lat="53.100363" lon="06.052286"><ele>-5.2</ele><time>2021-05-12T10:51:41Z</time><name>PT2563</name></trkpt>
<trkpt lat="53.100366" lon="06.052266"><ele>-5.3</ele><time>2021-05-12T10:51:43Z</time><name>PT2564</name></trkpt>
<trkpt lat="53.100367" lon="06.052246"><ele>-5.3</ele><time>2021-05-12T10:51:43Z</time><name>PT2565</name></trkpt>
<trkpt lat="53.100368" lon="06.052225"><ele>-5.6</ele><time>2021-05-12T10:51:44Z</time><name>PT2566</name></trkpt>
<trkpt lat="53.100369" lon="06.052199"><ele>-5.6</ele><time>2021-05-12T10:51:45Z</time><name>PT2567</name></trkpt>
<trkpt lat="53.100370" lon="06.052178"><ele>-5.6</ele><time>2021-05-12T10:51:46Z</time><name>PT2568</name></trkpt>
<trkpt lat="53.100372" lon="06.052158"><ele>-5.4</ele><time>2021-05-12T10:51:47Z</time><name>PT2569</name></trkpt>
<trkpt lat="53.100373" lon="06.052138"><ele>-5.3</ele><time>2021-05-12T10:51:48Z</time><name>PT2570</name></trkpt>
<trkpt lat="53.100374" lon="06.052115"><ele>-5.2</ele><time>2021-05-12T10:51:49Z</time><name>PT2571</name></trkpt>
<trkpt lat="53.100376" lon="06.052091"><ele>-5.1</ele><time>2021-05-12T10:51:50Z</time><name>PT2572</name></trkpt>
<trkpt lat="53.100376" lon="06.052069"><ele>-5.1</ele><time>2021-05-12T10:51:51Z</time><name>PT2573</name></trkpt>
<trkpt lat="53.100377" lon="06.052050"><ele>-5.2</ele><time>2021-05-12T10:51:52Z</time><name>PT2574</name></trkpt>
<trkpt lat="53.100378" lon="06.052033"><ele>-5.4</ele><time>2021-05-12T10:51:53Z</time><name>PT2575</name></trkpt>
<trkpt lat="53.100378" lon="06.052015"><ele>-5.4</ele><time>2021-05-12T10:51:54Z</time><name>PT2576</name></trkpt>
<trkpt lat="53.100379" lon="06.051997"><ele>-5.5</ele><time>2021-05-12T10:51:55Z</time><name>PT2577</name></trkpt>
<trkpt lat="53.100380" lon="06.051980"><ele>-5.4</ele><time>2021-05-12T10:51:56Z</time><name>PT2578</name></trkpt>
<trkpt lat="53.100379" lon="06.051963"><ele>-5.1</ele><time>2021-05-12T10:51:57Z</time><name>PT2579</name></trkpt>
<trkpt lat="53.100380" lon="06.051945"><ele>-5</ele><time>2021-05-12T10:51:58Z</time><name>PT2580</name></trkpt>
<trkpt lat="53.100383" lon="06.051925"><ele>-5</ele><time>2021-05-12T10:51:59Z</time><name>PT2581</name></trkpt>
<trkpt lat="53.100387" lon="06.051907"><ele>-4.8</ele><time>2021-05-12T10:52:00Z</time><name>PT2582</name></trkpt>
<trkpt lat="53.100391" lon="06.051887"><ele>-4.8</ele><time>2021-05-12T10:52:01Z</time><name>PT2583</name></trkpt>
<trkpt lat="53.100392" lon="06.051867"><ele>-5</ele><time>2021-05-12T10:52:02Z</time><name>PT2584</name></trkpt>
<trkpt lat="53.100393" lon="06.051849"><ele>-5</ele><time>2021-05-12T10:52:03Z</time><name>PT2585</name></trkpt>
<trkpt lat="53.100391" lon="06.051831"><ele>-4.8</ele><time>2021-05-12T10:52:04Z</time><name>PT2586</name></trkpt>
<trkpt lat="53.100390" lon="06.051814"><ele>-4.6</ele><time>2021-05-12T10:52:05Z</time><name>PT2587</name></trkpt>
<trkpt lat="53.100388" lon="06.051797"><ele>-4.6</ele><time>2021-05-12T10:52:06Z</time><name>PT2588</name></trkpt>
<trkpt lat="53.100382" lon="06.051777"><ele>-4.6</ele><time>2021-05-12T10:52:07Z</time><name>PT2589</name></trkpt>
<trkpt lat="53.100377" lon="06.051757"><ele>-4.6</ele><time>2021-05-12T10:52:08Z</time><name>PT2590</name></trkpt>
<trkpt lat="53.100376" lon="06.051741"><ele>-4.8</ele><time>2021-05-12T10:52:09Z</time><name>PT2591</name></trkpt>
<trkpt lat="53.100376" lon="06.051727"><ele>-4.8</ele><time>2021-05-12T10:52:10Z</time><name>PT2592</name></trkpt>
<trkpt lat="53.100378" lon="06.051707"><ele>-5</ele><time>2021-05-12T10:52:11Z</time><name>PT2593</name></trkpt>
<trkpt lat="53.100376" lon="06.051691"><ele>-5.1</ele><time>2021-05-12T10:52:12Z</time><name>PT2594</name></trkpt>
<trkpt lat="53.100372" lon="06.051672"><ele>-5.1</ele><time>2021-05-12T10:52:13Z</time><name>PT2595</name></trkpt>
<trkpt lat="53.100370" lon="06.051653"><ele>-5.1</ele><time>2021-05-12T10:52:14Z</time><name>PT2596</name></trkpt>
<trkpt lat="53.100370" lon="06.051633"><ele>-5</ele><time>2021-05-12T10:52:15Z</time><name>PT2597</name></trkpt>
<trkpt lat="53.100367" lon="06.051619"><ele>-5.1</ele><time>2021-05-12T10:52:16Z</time><name>PT2598</name></trkpt>
<trkpt lat="53.100364" lon="06.051598"><ele>-5.1</ele><time>2021-05-12T10:52:17Z</time><name>PT2599</name></trkpt>
<trkpt lat="53.100364" lon="06.051582"><ele>-5.1</ele><time>2021-05-12T10:52:18Z</time><name>PT2600</name></trkpt>
<trkpt lat="53.100364" lon="06.051565"><ele>-5.1</ele><time>2021-05-12T10:52:19Z</time><name>PT2601</name></trkpt>
<trkpt lat="53.100366" lon="06.051548"><ele>-5.1</ele><time>2021-05-12T10:52:20Z</time><name>PT2602</name></trkpt>
<trkpt lat="53.100368" lon="06.051528"><ele>-5</ele><time>2021-05-12T10:52:21Z</time><name>PT2603</name></trkpt>
<trkpt lat="53.100368" lon="06.051512"><ele>-4.9</ele><time>2021-05-12T10:52:22Z</time><name>PT2604</name></trkpt>
<trkpt lat="53.100368" lon="06.051493"><ele>-4.8</ele><time>2021-05-12T10:52:23Z</time><name>PT2605</name></trkpt>
<trkpt lat="53.100367" lon="06.051479"><ele>-4.8</ele><time>2021-05-12T10:52:25Z</time><name>PT2606</name></trkpt>
<trkpt lat="53.100366" lon="06.051460"><ele>-4.8</ele><time>2021-05-12T10:52:25Z</time><name>PT2607</name></trkpt>
<trkpt lat="53.100367" lon="06.051439"><ele>-4.8</ele><time>2021-05-12T10:52:26Z</time><name>PT2608</name></trkpt>
<trkpt lat="53.100366" lon="06.051420"><ele>-4.8</ele><time>2021-05-12T10:52:27Z</time><name>PT2609</name></trkpt>
<trkpt lat="53.100364" lon="06.051398"><ele>-4.9</ele><time>2021-05-12T10:52:28Z</time><name>PT2610</name></trkpt>
<trkpt lat="53.100364" lon="06.051379"><ele>-5</ele><time>2021-05-12T10:52:29Z</time><name>PT2611</name></trkpt>
<trkpt lat="53.100365" lon="06.051357"><ele>-4.9</ele><time>2021-05-12T10:52:30Z</time><name>PT2612</name></trkpt>
<trkpt lat="53.100367" lon="06.051337"><ele>-4.8</ele><time>2021-05-12T10:52:31Z</time><name>PT2613</name></trkpt>
<trkpt lat="53.100366" lon="06.051312"><ele>-5</ele><time>2021-05-12T10:52:32Z</time><name>PT2614</name></trkpt>
<trkpt lat="53.100369" lon="06.051291"><ele>-5.1</ele><time>2021-05-12T10:52:33Z</time><name>PT2615</name></trkpt>
<trkpt lat="53.100370" lon="06.051271"><ele>-5.2</ele><time>2021-05-12T10:52:34Z</time><name>PT2616</name></trkpt>
<trkpt lat="53.100374" lon="06.051251"><ele>-5.2</ele><time>2021-05-12T10:52:35Z</time><name>PT2617</name></trkpt>
<trkpt lat="53.100376" lon="06.051231"><ele>-5.1</ele><time>2021-05-12T10:52:36Z</time><name>PT2618</name></trkpt>
<trkpt lat="53.100376" lon="06.051209"><ele>-5.1</ele><time>2021-05-12T10:52:37Z</time><name>PT2619</name></trkpt>
<trkpt lat="53.100377" lon="06.051191"><ele>-5.1</ele><time>2021-05-12T10:52:38Z</time><name>PT2620</name></trkpt>
<trkpt lat="53.100379" lon="06.051172"><ele>-5.1</ele><time>2021-05-12T10:52:39Z</time><name>PT2621</name></trkpt>
<trkpt lat="53.100382" lon="06.051151"><ele>-5.1</ele><time>2021-05-12T10:52:40Z</time><name>PT2622</name></trkpt>
<trkpt lat="53.100384" lon="06.051130"><ele>-5.3</ele><time>2021-05-12T10:52:41Z</time><name>PT2623</name></trkpt>
<trkpt lat="53.100387" lon="06.051110"><ele>-5.4</ele><time>2021-05-12T10:52:42Z</time><name>PT2624</name></trkpt>
<trkpt lat="53.100389" lon="06.051088"><ele>-5.5</ele><time>2021-05-12T10:52:43Z</time><name>PT2625</name></trkpt>
<trkpt lat="53.100391" lon="06.051073"><ele>-5.6</ele><time>2021-05-12T10:52:44Z</time><name>PT2626</name></trkpt>
<trkpt lat="53.100390" lon="06.051058"><ele>-5.7</ele><time>2021-05-12T10:52:45Z</time><name>PT2627</name></trkpt>
<trkpt lat="53.100391" lon="06.051043"><ele>-5.6</ele><time>2021-05-12T10:52:46Z</time><name>PT2628</name></trkpt>
<trkpt lat="53.100392" lon="06.051025"><ele>-5.4</ele><time>2021-05-12T10:52:47Z</time><name>PT2629</name></trkpt>
<trkpt lat="53.100392" lon="06.051008"><ele>-5.4</ele><time>2021-05-12T10:52:48Z</time><name>PT2630</name></trkpt>
<trkpt lat="53.100393" lon="06.050989"><ele>-5.4</ele><time>2021-05-12T10:52:49Z</time><name>PT2631</name></trkpt>
<trkpt lat="53.100394" lon="06.050970"><ele>-5.2</ele><time>2021-05-12T10:52:50Z</time><name>PT2632</name></trkpt>
<trkpt lat="53.100396" lon="06.050953"><ele>-5.3</ele><time>2021-05-12T10:52:51Z</time><name>PT2633</name></trkpt>
<trkpt lat="53.100397" lon="06.050925"><ele>-5.3</ele><time>2021-05-12T10:52:52Z</time><name>PT2634</name></trkpt>
<trkpt lat="53.100398" lon="06.050910"><ele>-5.1</ele><time>2021-05-12T10:52:53Z</time><name>PT2635</name></trkpt>
<trkpt lat="53.100401" lon="06.050896"><ele>-4.9</ele><time>2021-05-12T10:52:54Z</time><name>PT2636</name></trkpt>
<trkpt lat="53.100406" lon="06.050879"><ele>-4.8</ele><time>2021-05-12T10:52:55Z</time><name>PT2637</name></trkpt>
<trkpt lat="53.100407" lon="06.050859"><ele>-4.6</ele><time>2021-05-12T10:52:56Z</time><name>PT2638</name></trkpt>
<trkpt lat="53.100404" lon="06.050839"><ele>-4.5</ele><time>2021-05-12T10:52:57Z</time><name>PT2639</name></trkpt>
<trkpt lat="53.100405" lon="06.050822"><ele>-4.6</ele><time>2021-05-12T10:52:58Z</time><name>PT2640</name></trkpt>
<trkpt lat="53.100407" lon="06.050805"><ele>-4.6</ele><time>2021-05-12T10:52:59Z</time><name>PT2641</name></trkpt>
<trkpt lat="53.100411" lon="06.050790"><ele>-4.6</ele><time>2021-05-12T10:53:00Z</time><name>PT2642</name></trkpt>
<trkpt lat="53.100414" lon="06.050773"><ele>-4.7</ele><time>2021-05-12T10:53:01Z</time><name>PT2643</name></trkpt>
<trkpt lat="53.100415" lon="06.050756"><ele>-4.6</ele><time>2021-05-12T10:53:02Z</time><name>PT2644</name></trkpt>
<trkpt lat="53.100420" lon="06.050738"><ele>-4.6</ele><time>2021-05-12T10:53:03Z</time><name>PT2645</name></trkpt>
<trkpt lat="53.100424" lon="06.050720"><ele>-4.7</ele><time>2021-05-12T10:53:04Z</time><name>PT2646</name></trkpt>
<trkpt lat="53.100426" lon="06.050702"><ele>-4.7</ele><time>2021-05-12T10:53:05Z</time><name>PT2647</name></trkpt>
<trkpt lat="53.100425" lon="06.050683"><ele>-4.6</ele><time>2021-05-12T10:53:06Z</time><name>PT2648</name></trkpt>
<trkpt lat="53.100425" lon="06.050664"><ele>-4.6</ele><time>2021-05-12T10:53:07Z</time><name>PT2649</name></trkpt>
<trkpt lat="53.100431" lon="06.050646"><ele>-4.6</ele><time>2021-05-12T10:53:08Z</time><name>PT2650</name></trkpt>
<trkpt lat="53.100432" lon="06.050631"><ele>-4.6</ele><time>2021-05-12T10:53:09Z</time><name>PT2651</name></trkpt>
<trkpt lat="53.100432" lon="06.050616"><ele>-4.6</ele><time>2021-05-12T10:53:10Z</time><name>PT2652</name></trkpt>
<trkpt lat="53.100434" lon="06.050599"><ele>-4.7</ele><time>2021-05-12T10:53:11Z</time><name>PT2653</name></trkpt>
<trkpt lat="53.100436" lon="06.050581"><ele>-5.1</ele><time>2021-05-12T10:53:12Z</time><name>PT2654</name></trkpt>
<trkpt lat="53.100439" lon="06.050562"><ele>-5.1</ele><time>2021-05-12T10:53:13Z</time><name>PT2655</name></trkpt>
<trkpt lat="53.100440" lon="06.050545"><ele>-5.1</ele><time>2021-05-12T10:53:14Z</time><name>PT2656</name></trkpt>
<trkpt lat="53.100442" lon="06.050530"><ele>-5.2</ele><time>2021-05-12T10:53:15Z</time><name>PT2657</name></trkpt>
<trkpt lat="53.100445" lon="06.050514"><ele>-5.2</ele><time>2021-05-12T10:53:16Z</time><name>PT2658</name></trkpt>
<trkpt lat="53.100452" lon="06.050496"><ele>-5.1</ele><time>2021-05-12T10:53:17Z</time><name>PT2659</name></trkpt>
<trkpt lat="53.100454" lon="06.050489"><ele>-5.2</ele><time>2021-05-12T10:53:18Z</time><name>PT2660</name></trkpt>
<trkpt lat="53.100455" lon="06.050484"><ele>-5.2</ele><time>2021-05-12T10:53:19Z</time><name>PT2661</name></trkpt>
<trkpt lat="53.100455" lon="06.050484"><ele>-5.1</ele><time>2021-05-12T10:53:20Z</time><name>PT2662</name></trkpt>
<trkpt lat="53.100458" lon="06.050470"><ele>-4.8</ele><time>2021-05-12T10:53:23Z</time><name>PT2663</name></trkpt>
<trkpt lat="53.100462" lon="06.050452"><ele>-4.7</ele><time>2021-05-12T10:53:24Z</time><name>PT2664</name></trkpt>
<trkpt lat="53.100465" lon="06.050433"><ele>-4.6</ele><time>2021-05-12T10:53:25Z</time><name>PT2665</name></trkpt>
<trkpt lat="53.100469" lon="06.050416"><ele>-4.8</ele><time>2021-05-12T10:53:26Z</time><name>PT2666</name></trkpt>
<trkpt lat="53.100470" lon="06.050409"><ele>-4.6</ele><time>2021-05-12T10:53:27Z</time><name>PT2667</name></trkpt>
<trkpt lat="53.100472" lon="06.050404"><ele>-4.5</ele><time>2021-05-12T10:53:28Z</time><name>PT2668</name></trkpt>
<trkpt lat="53.100475" lon="06.050400"><ele>-4.7</ele><time>2021-05-12T10:53:29Z</time><name>PT2669</name></trkpt>
<trkpt lat="53.100479" lon="06.050385"><ele>-4.7</ele><time>2021-05-12T10:53:32Z</time><name>PT2670</name></trkpt>
<trkpt lat="53.100483" lon="06.050364"><ele>-4.5</ele><time>2021-05-12T10:53:33Z</time><name>PT2671</name></trkpt>
<trkpt lat="53.100487" lon="06.050344"><ele>-4.4</ele><time>2021-05-12T10:53:34Z</time><name>PT2672</name></trkpt>
<trkpt lat="53.100490" lon="06.050321"><ele>-4.5</ele><time>2021-05-12T10:53:35Z</time><name>PT2673</name></trkpt>
<trkpt lat="53.100493" lon="06.050303"><ele>-4.6</ele><time>2021-05-12T10:53:36Z</time><name>PT2674</name></trkpt>
<trkpt lat="53.100497" lon="06.050285"><ele>-4.6</ele><time>2021-05-12T10:53:37Z</time><name>PT2675</name></trkpt>
<trkpt lat="53.100498" lon="06.050267"><ele>-4.8</ele><time>2021-05-12T10:53:38Z</time><name>PT2676</name></trkpt>
<trkpt lat="53.100498" lon="06.050247"><ele>-4.8</ele><time>2021-05-12T10:53:39Z</time><name>PT2677</name></trkpt>
<trkpt lat="53.100498" lon="06.050225"><ele>-4.8</ele><time>2021-05-12T10:53:40Z</time><name>PT2678</name></trkpt>
<trkpt lat="53.100499" lon="06.050204"><ele>-4.7</ele><time>2021-05-12T10:53:41Z</time><name>PT2679</name></trkpt>
<trkpt lat="53.100500" lon="06.050185"><ele>-4.6</ele><time>2021-05-12T10:53:42Z</time><name>PT2680</name></trkpt>
<trkpt lat="53.100502" lon="06.050165"><ele>-4.4</ele><time>2021-05-12T10:53:43Z</time><name>PT2681</name></trkpt>
<trkpt lat="53.100503" lon="06.050145"><ele>-4.5</ele><time>2021-05-12T10:53:44Z</time><name>PT2682</name></trkpt>
<trkpt lat="53.100506" lon="06.050126"><ele>-4.4</ele><time>2021-05-12T10:53:45Z</time><name>PT2683</name></trkpt>
<trkpt lat="53.100508" lon="06.050113"><ele>-4.4</ele><time>2021-05-12T10:53:46Z</time><name>PT2684</name></trkpt>
<trkpt lat="53.100511" lon="06.050096"><ele>-4.4</ele><time>2021-05-12T10:53:47Z</time><name>PT2685</name></trkpt>
<trkpt lat="53.100513" lon="06.050078"><ele>-4.5</ele><time>2021-05-12T10:53:48Z</time><name>PT2686</name></trkpt>
<trkpt lat="53.100515" lon="06.050056"><ele>-4.4</ele><time>2021-05-12T10:53:49Z</time><name>PT2687</name></trkpt>
<trkpt lat="53.100521" lon="06.050038"><ele>-4.5</ele><time>2021-05-12T10:53:50Z</time><name>PT2688</name></trkpt>
<trkpt lat="53.100526" lon="06.050019"><ele>-4.6</ele><time>2021-05-12T10:53:51Z</time><name>PT2689</name></trkpt>
<trkpt lat="53.100529" lon="06.049996"><ele>-4.6</ele><time>2021-05-12T10:53:52Z</time><name>PT2690</name></trkpt>
<trkpt lat="53.100533" lon="06.049975"><ele>-4.6</ele><time>2021-05-12T10:53:53Z</time><name>PT2691</name></trkpt>
<trkpt lat="53.100532" lon="06.049954"><ele>-4.7</ele><time>2021-05-12T10:53:54Z</time><name>PT2692</name></trkpt>
<trkpt lat="53.100535" lon="06.049936"><ele>-4.7</ele><time>2021-05-12T10:53:55Z</time><name>PT2693</name></trkpt>
<trkpt lat="53.100537" lon="06.049919"><ele>-4.6</ele><time>2021-05-12T10:53:56Z</time><name>PT2694</name></trkpt>
<trkpt lat="53.100539" lon="06.049901"><ele>-4.5</ele><time>2021-05-12T10:53:57Z</time><name>PT2695</name></trkpt>
<trkpt lat="53.100541" lon="06.049885"><ele>-4.6</ele><time>2021-05-12T10:53:58Z</time><name>PT2696</name></trkpt>
<trkpt lat="53.100548" lon="06.049869"><ele>-4.3</ele><time>2021-05-12T10:53:59Z</time><name>PT2697</name></trkpt>
<trkpt lat="53.100551" lon="06.049853"><ele>-4.6</ele><time>2021-05-12T10:54:00Z</time><name>PT2698</name></trkpt>
<trkpt lat="53.100558" lon="06.049839"><ele>-4.6</ele><time>2021-05-12T10:54:01Z</time><name>PT2699</name></trkpt>
<trkpt lat="53.100566" lon="06.049824"><ele>-4.5</ele><time>2021-05-12T10:54:02Z</time><name>PT2700</name></trkpt>
<trkpt lat="53.100570" lon="06.049813"><ele>-4.7</ele><time>2021-05-12T10:54:03Z</time><name>PT2701</name></trkpt>
<trkpt lat="53.100576" lon="06.049802"><ele>-4.7</ele><time>2021-05-12T10:54:04Z</time><name>PT2702</name></trkpt>
<trkpt lat="53.100583" lon="06.049783"><ele>-4.6</ele><time>2021-05-12T10:54:05Z</time><name>PT2703</name></trkpt>
<trkpt lat="53.100590" lon="06.049768"><ele>-4.6</ele><time>2021-05-12T10:54:06Z</time><name>PT2704</name></trkpt>
<trkpt lat="53.100598" lon="06.049752"><ele>-4.6</ele><time>2021-05-12T10:54:07Z</time><name>PT2705</name></trkpt>
<trkpt lat="53.100601" lon="06.049739"><ele>-4.6</ele><time>2021-05-12T10:54:08Z</time><name>PT2706</name></trkpt>
<trkpt lat="53.100605" lon="06.049729"><ele>-4.6</ele><time>2021-05-12T10:54:09Z</time><name>PT2707</name></trkpt>
<trkpt lat="53.100607" lon="06.049721"><ele>-4.6</ele><time>2021-05-12T10:54:10Z</time><name>PT2708</name></trkpt>
<trkpt lat="53.100606" lon="06.049718"><ele>-4.7</ele><time>2021-05-12T10:54:11Z</time><name>PT2709</name></trkpt>
<trkpt lat="53.100606" lon="06.049715"><ele>-4.7</ele><time>2021-05-12T10:54:12Z</time><name>PT2710</name></trkpt>
<trkpt lat="53.100611" lon="06.049692"><ele>-4.7</ele><time>2021-05-12T10:54:24Z</time><name>PT2711</name></trkpt>
<trkpt lat="53.100615" lon="06.049674"><ele>-4.8</ele><time>2021-05-12T10:54:25Z</time><name>PT2712</name></trkpt>
<trkpt lat="53.100622" lon="06.049656"><ele>-4.7</ele><time>2021-05-12T10:54:26Z</time><name>PT2713</name></trkpt>
<trkpt lat="53.100630" lon="06.049642"><ele>-4.7</ele><time>2021-05-12T10:54:27Z</time><name>PT2714</name></trkpt>
<trkpt lat="53.100637" lon="06.049623"><ele>-4.7</ele><time>2021-05-12T10:54:28Z</time><name>PT2715</name></trkpt>
<trkpt lat="53.100636" lon="06.049603"><ele>-4.6</ele><time>2021-05-12T10:54:29Z</time><name>PT2716</name></trkpt>
<trkpt lat="53.100639" lon="06.049583"><ele>-4.7</ele><time>2021-05-12T10:54:30Z</time><name>PT2717</name></trkpt>
<trkpt lat="53.100641" lon="06.049566"><ele>-4.7</ele><time>2021-05-12T10:54:31Z</time><name>PT2718</name></trkpt>
<trkpt lat="53.100643" lon="06.049546"><ele>-4.8</ele><time>2021-05-12T10:54:32Z</time><name>PT2719</name></trkpt>
<trkpt lat="53.100647" lon="06.049530"><ele>-4.9</ele><time>2021-05-12T10:54:33Z</time><name>PT2720</name></trkpt>
<trkpt lat="53.100653" lon="06.049511"><ele>-5</ele><time>2021-05-12T10:54:34Z</time><name>PT2721</name></trkpt>
<trkpt lat="53.100657" lon="06.049492"><ele>-5</ele><time>2021-05-12T10:54:35Z</time><name>PT2722</name></trkpt>
<trkpt lat="53.100661" lon="06.049472"><ele>-4.9</ele><time>2021-05-12T10:54:36Z</time><name>PT2723</name></trkpt>
<trkpt lat="53.100665" lon="06.049450"><ele>-4.8</ele><time>2021-05-12T10:54:37Z</time><name>PT2724</name></trkpt>
<trkpt lat="53.100670" lon="06.049433"><ele>-4.9</ele><time>2021-05-12T10:54:38Z</time><name>PT2725</name></trkpt>
<trkpt lat="53.100674" lon="06.049414"><ele>-4.9</ele><time>2021-05-12T10:54:39Z</time><name>PT2726</name></trkpt>
<trkpt lat="53.100678" lon="06.049395"><ele>-4.9</ele><time>2021-05-12T10:54:40Z</time><name>PT2727</name></trkpt>
<trkpt lat="53.100682" lon="06.049380"><ele>-4.9</ele><time>2021-05-12T10:54:41Z</time><name>PT2728</name></trkpt>
<trkpt lat="53.100687" lon="06.049364"><ele>-5.1</ele><time>2021-05-12T10:54:42Z</time><name>PT2729</name></trkpt>
<trkpt lat="53.100691" lon="06.049347"><ele>-5.1</ele><time>2021-05-12T10:54:43Z</time><name>PT2730</name></trkpt>
<trkpt lat="53.100695" lon="06.049328"><ele>-5.4</ele><time>2021-05-12T10:54:44Z</time><name>PT2731</name></trkpt>
<trkpt lat="53.100699" lon="06.049309"><ele>-5.4</ele><time>2021-05-12T10:54:45Z</time><name>PT2732</name></trkpt>
<trkpt lat="53.100700" lon="06.049290"><ele>-5.5</ele><time>2021-05-12T10:54:46Z</time><name>PT2733</name></trkpt>
<trkpt lat="53.100703" lon="06.049269"><ele>-5.4</ele><time>2021-05-12T10:54:47Z</time><name>PT2734</name></trkpt>
<trkpt lat="53.100707" lon="06.049249"><ele>-5.1</ele><time>2021-05-12T10:54:48Z</time><name>PT2735</name></trkpt>
<trkpt lat="53.100710" lon="06.049230"><ele>-5.1</ele><time>2021-05-12T10:54:49Z</time><name>PT2736</name></trkpt>
<trkpt lat="53.100712" lon="06.049211"><ele>-5.1</ele><time>2021-05-12T10:54:50Z</time><name>PT2737</name></trkpt>
<trkpt lat="53.100711" lon="06.049185"><ele>-5.1</ele><time>2021-05-12T10:54:51Z</time><name>PT2738</name></trkpt>
<trkpt lat="53.100711" lon="06.049162"><ele>-5.1</ele><time>2021-05-12T10:54:52Z</time><name>PT2739</name></trkpt>
<trkpt lat="53.100712" lon="06.049141"><ele>-5.3</ele><time>2021-05-12T10:54:53Z</time><name>PT2740</name></trkpt>
<trkpt lat="53.100712" lon="06.049117"><ele>-5.2</ele><time>2021-05-12T10:54:54Z</time><name>PT2741</name></trkpt>
<trkpt lat="53.100711" lon="06.049093"><ele>-5.1</ele><time>2021-05-12T10:54:55Z</time><name>PT2742</name></trkpt>
<trkpt lat="53.100712" lon="06.049072"><ele>-5.2</ele><time>2021-05-12T10:54:56Z</time><name>PT2743</name></trkpt>
<trkpt lat="53.100713" lon="06.049050"><ele>-5.1</ele><time>2021-05-12T10:54:57Z</time><name>PT2744</name></trkpt>
<trkpt lat="53.100714" lon="06.049030"><ele>-5.1</ele><time>2021-05-12T10:54:58Z</time><name>PT2745</name></trkpt>
<trkpt lat="53.100716" lon="06.049013"><ele>-5.2</ele><time>2021-05-12T10:54:59Z</time><name>PT2746</name></trkpt>
<trkpt lat="53.100718" lon="06.048995"><ele>-5.2</ele><time>2021-05-12T10:55:00Z</time><name>PT2747</name></trkpt>
<trkpt lat="53.100720" lon="06.048975"><ele>-5.1</ele><time>2021-05-12T10:55:01Z</time><name>PT2748</name></trkpt>
<trkpt lat="53.100721" lon="06.048956"><ele>-5.1</ele><time>2021-05-12T10:55:02Z</time><name>PT2749</name></trkpt>
<trkpt lat="53.100722" lon="06.048938"><ele>-4.9</ele><time>2021-05-12T10:55:03Z</time><name>PT2750</name></trkpt>
<trkpt lat="53.100722" lon="06.048919"><ele>-4.8</ele><time>2021-05-12T10:55:04Z</time><name>PT2751</name></trkpt>
<trkpt lat="53.100721" lon="06.048899"><ele>-4.8</ele><time>2021-05-12T10:55:05Z</time><name>PT2752</name></trkpt>
<trkpt lat="53.100721" lon="06.048878"><ele>-5</ele><time>2021-05-12T10:55:06Z</time><name>PT2753</name></trkpt>
<trkpt lat="53.100719" lon="06.048857"><ele>-5.1</ele><time>2021-05-12T10:55:07Z</time><name>PT2754</name></trkpt>
<trkpt lat="53.100718" lon="06.048836"><ele>-4.9</ele><time>2021-05-12T10:55:08Z</time><name>PT2755</name></trkpt>
<trkpt lat="53.100716" lon="06.048819"><ele>-5</ele><time>2021-05-12T10:55:09Z</time><name>PT2756</name></trkpt>
<trkpt lat="53.100715" lon="06.048798"><ele>-5.1</ele><time>2021-05-12T10:55:10Z</time><name>PT2757</name></trkpt>
<trkpt lat="53.100714" lon="06.048778"><ele>-4.9</ele><time>2021-05-12T10:55:11Z</time><name>PT2758</name></trkpt>
<trkpt lat="53.100714" lon="06.048760"><ele>-5.1</ele><time>2021-05-12T10:55:12Z</time><name>PT2759</name></trkpt>
<trkpt lat="53.100714" lon="06.048741"><ele>-5.1</ele><time>2021-05-12T10:55:13Z</time><name>PT2760</name></trkpt>
<trkpt lat="53.100713" lon="06.048720"><ele>-5.1</ele><time>2021-05-12T10:55:14Z</time><name>PT2761</name></trkpt>
<trkpt lat="53.100712" lon="06.048699"><ele>-5.3</ele><time>2021-05-12T10:55:15Z</time><name>PT2762</name></trkpt>
<trkpt lat="53.100711" lon="06.048681"><ele>-5.2</ele><time>2021-05-12T10:55:16Z</time><name>PT2763</name></trkpt>
<trkpt lat="53.100709" lon="06.048665"><ele>-5.1</ele><time>2021-05-12T10:55:17Z</time><name>PT2764</name></trkpt>
<trkpt lat="53.100708" lon="06.048646"><ele>-5</ele><time>2021-05-12T10:55:18Z</time><name>PT2765</name></trkpt>
<trkpt lat="53.100705" lon="06.048629"><ele>-4.7</ele><time>2021-05-12T10:55:19Z</time><name>PT2766</name></trkpt>
<trkpt lat="53.100702" lon="06.048611"><ele>-4.9</ele><time>2021-05-12T10:55:20Z</time><name>PT2767</name></trkpt>
<trkpt lat="53.100701" lon="06.048591"><ele>-5</ele><time>2021-05-12T10:55:21Z</time><name>PT2768</name></trkpt>
<trkpt lat="53.100700" lon="06.048573"><ele>-5.1</ele><time>2021-05-12T10:55:22Z</time><name>PT2769</name></trkpt>
<trkpt lat="53.100698" lon="06.048554"><ele>-5.1</ele><time>2021-05-12T10:55:23Z</time><name>PT2770</name></trkpt>
<trkpt lat="53.100696" lon="06.048533"><ele>-4.9</ele><time>2021-05-12T10:55:24Z</time><name>PT2771</name></trkpt>
<trkpt lat="53.100695" lon="06.048510"><ele>-4.8</ele><time>2021-05-12T10:55:25Z</time><name>PT2772</name></trkpt>
<trkpt lat="53.100696" lon="06.048488"><ele>-5</ele><time>2021-05-12T10:55:26Z</time><name>PT2773</name></trkpt>
<trkpt lat="53.100697" lon="06.048467"><ele>-5.1</ele><time>2021-05-12T10:55:27Z</time><name>PT2774</name></trkpt>
<trkpt lat="53.100697" lon="06.048449"><ele>-5.1</ele><time>2021-05-12T10:55:28Z</time><name>PT2775</name></trkpt>
<trkpt lat="53.100697" lon="06.048430"><ele>-5.1</ele><time>2021-05-12T10:55:29Z</time><name>PT2776</name></trkpt>
<trkpt lat="53.100695" lon="06.048412"><ele>-4.9</ele><time>2021-05-12T10:55:30Z</time><name>PT2777</name></trkpt>
<trkpt lat="53.100695" lon="06.048393"><ele>-5</ele><time>2021-05-12T10:55:31Z</time><name>PT2778</name></trkpt>
<trkpt lat="53.100694" lon="06.048375"><ele>-4.8</ele><time>2021-05-12T10:55:32Z</time><name>PT2779</name></trkpt>
<trkpt lat="53.100693" lon="06.048356"><ele>-4.7</ele><time>2021-05-12T10:55:33Z</time><name>PT2780</name></trkpt>
<trkpt lat="53.100692" lon="06.048337"><ele>-4.8</ele><time>2021-05-12T10:55:34Z</time><name>PT2781</name></trkpt>
<trkpt lat="53.100689" lon="06.048317"><ele>-4.7</ele><time>2021-05-12T10:55:35Z</time><name>PT2782</name></trkpt>
<trkpt lat="53.100687" lon="06.048297"><ele>-4.7</ele><time>2021-05-12T10:55:36Z</time><name>PT2783</name></trkpt>
<trkpt lat="53.100684" lon="06.048279"><ele>-4.7</ele><time>2021-05-12T10:55:37Z</time><name>PT2784</name></trkpt>
<trkpt lat="53.100680" lon="06.048259"><ele>-4.7</ele><time>2021-05-12T10:55:38Z</time><name>PT2785</name></trkpt>
<trkpt lat="53.100676" lon="06.048240"><ele>-4.6</ele><time>2021-05-12T10:55:39Z</time><name>PT2786</name></trkpt>
<trkpt lat="53.100674" lon="06.048222"><ele>-4.6</ele><time>2021-05-12T10:55:40Z</time><name>PT2787</name></trkpt>
<trkpt lat="53.100672" lon="06.048203"><ele>-4.8</ele><time>2021-05-12T10:55:41Z</time><name>PT2788</name></trkpt>
<trkpt lat="53.100670" lon="06.048183"><ele>-4.9</ele><time>2021-05-12T10:55:42Z</time><name>PT2789</name></trkpt>
<trkpt lat="53.100667" lon="06.048165"><ele>-4.8</ele><time>2021-05-12T10:55:43Z</time><name>PT2790</name></trkpt>
<trkpt lat="53.100666" lon="06.048148"><ele>-4.8</ele><time>2021-05-12T10:55:44Z</time><name>PT2791</name></trkpt>
<trkpt lat="53.100664" lon="06.048129"><ele>-4.6</ele><time>2021-05-12T10:55:45Z</time><name>PT2792</name></trkpt>
<trkpt lat="53.100661" lon="06.048111"><ele>-4.6</ele><time>2021-05-12T10:55:46Z</time><name>PT2793</name></trkpt>
<trkpt lat="53.100659" lon="06.048092"><ele>-4.6</ele><time>2021-05-12T10:55:47Z</time><name>PT2794</name></trkpt>
<trkpt lat="53.100657" lon="06.048073"><ele>-4.9</ele><time>2021-05-12T10:55:48Z</time><name>PT2795</name></trkpt>
<trkpt lat="53.100653" lon="06.048054"><ele>-4.8</ele><time>2021-05-12T10:55:49Z</time><name>PT2796</name></trkpt>
<trkpt lat="53.100649" lon="06.048034"><ele>-4.7</ele><time>2021-05-12T10:55:50Z</time><name>PT2797</name></trkpt>
<trkpt lat="53.100645" lon="06.048014"><ele>-4.7</ele><time>2021-05-12T10:55:51Z</time><name>PT2798</name></trkpt>
<trkpt lat="53.100641" lon="06.047994"><ele>-4.7</ele><time>2021-05-12T10:55:52Z</time><name>PT2799</name></trkpt>
<trkpt lat="53.100638" lon="06.047974"><ele>-4.6</ele><time>2021-05-12T10:55:53Z</time><name>PT2800</name></trkpt>
<trkpt lat="53.100632" lon="06.047957"><ele>-4.7</ele><time>2021-05-12T10:55:54Z</time><name>PT2801</name></trkpt>
<trkpt lat="53.100625" lon="06.047940"><ele>-4.7</ele><time>2021-05-12T10:55:55Z</time><name>PT2802</name></trkpt>
<trkpt lat="53.100618" lon="06.047924"><ele>-4.7</ele><time>2021-05-12T10:55:56Z</time><name>PT2803</name></trkpt>
<trkpt lat="53.100612" lon="06.047908"><ele>-4.6</ele><time>2021-05-12T10:55:57Z</time><name>PT2804</name></trkpt>
<trkpt lat="53.100605" lon="06.047892"><ele>-4.6</ele><time>2021-05-12T10:55:58Z</time><name>PT2805</name></trkpt>
<trkpt lat="53.100596" lon="06.047875"><ele>-4.4</ele><time>2021-05-12T10:55:59Z</time><name>PT2806</name></trkpt>
<trkpt lat="53.100588" lon="06.047860"><ele>-4.5</ele><time>2021-05-12T10:56:00Z</time><name>PT2807</name></trkpt>
<trkpt lat="53.100579" lon="06.047842"><ele>-4.4</ele><time>2021-05-12T10:56:01Z</time><name>PT2808</name></trkpt>
<trkpt lat="53.100571" lon="06.047824"><ele>-4.4</ele><time>2021-05-12T10:56:02Z</time><name>PT2809</name></trkpt>
<trkpt lat="53.100563" lon="06.047810"><ele>-4.3</ele><time>2021-05-12T10:56:03Z</time><name>PT2810</name></trkpt>
<trkpt lat="53.100556" lon="06.047796"><ele>-4.2</ele><time>2021-05-12T10:56:04Z</time><name>PT2811</name></trkpt>
<trkpt lat="53.100548" lon="06.047780"><ele>-3.9</ele><time>2021-05-12T10:56:05Z</time><name>PT2812</name></trkpt>
<trkpt lat="53.100541" lon="06.047763"><ele>-3.8</ele><time>2021-05-12T10:56:06Z</time><name>PT2813</name></trkpt>
<trkpt lat="53.100534" lon="06.047746"><ele>-3.7</ele><time>2021-05-12T10:56:07Z</time><name>PT2814</name></trkpt>
<trkpt lat="53.100527" lon="06.047729"><ele>-3.7</ele><time>2021-05-12T10:56:08Z</time><name>PT2815</name></trkpt>
<trkpt lat="53.100519" lon="06.047712"><ele>-3.7</ele><time>2021-05-12T10:56:09Z</time><name>PT2816</name></trkpt>
<trkpt lat="53.100511" lon="06.047696"><ele>-3.7</ele><time>2021-05-12T10:56:10Z</time><name>PT2817</name></trkpt>
<trkpt lat="53.100505" lon="06.047681"><ele>-3.7</ele><time>2021-05-12T10:56:11Z</time><name>PT2818</name></trkpt>
<trkpt lat="53.100498" lon="06.047663"><ele>-3.6</ele><time>2021-05-12T10:56:12Z</time><name>PT2819</name></trkpt>
<trkpt lat="53.100490" lon="06.047645"><ele>-3.6</ele><time>2021-05-12T10:56:13Z</time><name>PT2820</name></trkpt>
<trkpt lat="53.100482" lon="06.047628"><ele>-3.6</ele><time>2021-05-12T10:56:14Z</time><name>PT2821</name></trkpt>
<trkpt lat="53.100475" lon="06.047612"><ele>-3.8</ele><time>2021-05-12T10:56:15Z</time><name>PT2822</name></trkpt>
<trkpt lat="53.100467" lon="06.047597"><ele>-3.8</ele><time>2021-05-12T10:56:16Z</time><name>PT2823</name></trkpt>
<trkpt lat="53.100461" lon="06.047581"><ele>-4.1</ele><time>2021-05-12T10:56:17Z</time><name>PT2824</name></trkpt>
<trkpt lat="53.100454" lon="06.047562"><ele>-4.2</ele><time>2021-05-12T10:56:18Z</time><name>PT2825</name></trkpt>
<trkpt lat="53.100448" lon="06.047544"><ele>-4.3</ele><time>2021-05-12T10:56:19Z</time><name>PT2826</name></trkpt>
<trkpt lat="53.100441" lon="06.047527"><ele>-4.3</ele><time>2021-05-12T10:56:20Z</time><name>PT2827</name></trkpt>
<trkpt lat="53.100433" lon="06.047511"><ele>-4.2</ele><time>2021-05-12T10:56:21Z</time><name>PT2828</name></trkpt>
<trkpt lat="53.100425" lon="06.047494"><ele>-4.1</ele><time>2021-05-12T10:56:22Z</time><name>PT2829</name></trkpt>
<trkpt lat="53.100415" lon="06.047477"><ele>-3.7</ele><time>2021-05-12T10:56:23Z</time><name>PT2830</name></trkpt>
<trkpt lat="53.100409" lon="06.047466"><ele>-3.8</ele><time>2021-05-12T10:56:24Z</time><name>PT2831</name></trkpt>
<trkpt lat="53.100403" lon="06.047453"><ele>-3.9</ele><time>2021-05-12T10:56:25Z</time><name>PT2832</name></trkpt>
<trkpt lat="53.100395" lon="06.047439"><ele>-3.9</ele><time>2021-05-12T10:56:26Z</time><name>PT2833</name></trkpt>
<trkpt lat="53.100385" lon="06.047423"><ele>-4.1</ele><time>2021-05-12T10:56:27Z</time><name>PT2834</name></trkpt>
<trkpt lat="53.100377" lon="06.047411"><ele>-4</ele><time>2021-05-12T10:56:28Z</time><name>PT2835</name></trkpt>
<trkpt lat="53.100368" lon="06.047399"><ele>-3.8</ele><time>2021-05-12T10:56:29Z</time><name>PT2836</name></trkpt>
<trkpt lat="53.100358" lon="06.047388"><ele>-3.8</ele><time>2021-05-12T10:56:30Z</time><name>PT2837</name></trkpt>
<trkpt lat="53.100348" lon="06.047378"><ele>-3.8</ele><time>2021-05-12T10:56:31Z</time><name>PT2838</name></trkpt>
<trkpt lat="53.100338" lon="06.047369"><ele>-3.8</ele><time>2021-05-12T10:56:32Z</time><name>PT2839</name></trkpt>
<trkpt lat="53.100328" lon="06.047361"><ele>-3.9</ele><time>2021-05-12T10:56:33Z</time><name>PT2840</name></trkpt>
<trkpt lat="53.100318" lon="06.047350"><ele>-4</ele><time>2021-05-12T10:56:34Z</time><name>PT2841</name></trkpt>
<trkpt lat="53.100306" lon="06.047341"><ele>-4.1</ele><time>2021-05-12T10:56:35Z</time><name>PT2842</name></trkpt>
<trkpt lat="53.100296" lon="06.047331"><ele>-4.1</ele><time>2021-05-12T10:56:36Z</time><name>PT2843</name></trkpt>
<trkpt lat="53.100287" lon="06.047319"><ele>-4</ele><time>2021-05-12T10:56:37Z</time><name>PT2844</name></trkpt>
<trkpt lat="53.100276" lon="06.047306"><ele>-3.9</ele><time>2021-05-12T10:56:38Z</time><name>PT2845</name></trkpt>
<trkpt lat="53.100267" lon="06.047294"><ele>-3.8</ele><time>2021-05-12T10:56:39Z</time><name>PT2846</name></trkpt>
<trkpt lat="53.100258" lon="06.047283"><ele>-3.8</ele><time>2021-05-12T10:56:40Z</time><name>PT2847</name></trkpt>
<trkpt lat="53.100251" lon="06.047273"><ele>-3.8</ele><time>2021-05-12T10:56:41Z</time><name>PT2848</name></trkpt>
<trkpt lat="53.100247" lon="06.047268"><ele>-3.9</ele><time>2021-05-12T10:56:42Z</time><name>PT2849</name></trkpt>
<trkpt lat="53.100243" lon="06.047257"><ele>-3.9</ele><time>2021-05-12T10:56:43Z</time><name>PT2850</name></trkpt>
<trkpt lat="53.100238" lon="06.047244"><ele>-4.1</ele><time>2021-05-12T10:56:44Z</time><name>PT2851</name></trkpt>
<trkpt lat="53.100230" lon="06.047228"><ele>-4.1</ele><time>2021-05-12T10:56:45Z</time><name>PT2852</name></trkpt>
<trkpt lat="53.100223" lon="06.047214"><ele>-4.2</ele><time>2021-05-12T10:56:46Z</time><name>PT2853</name></trkpt>
<trkpt lat="53.100215" lon="06.047198"><ele>-4.2</ele><time>2021-05-12T10:56:47Z</time><name>PT2854</name></trkpt>
<trkpt lat="53.100206" lon="06.047181"><ele>-4.4</ele><time>2021-05-12T10:56:48Z</time><name>PT2855</name></trkpt>
<trkpt lat="53.100198" lon="06.047164"><ele>-4.4</ele><time>2021-05-12T10:56:49Z</time><name>PT2856</name></trkpt>
<trkpt lat="53.100189" lon="06.047149"><ele>-4.4</ele><time>2021-05-12T10:56:50Z</time><name>PT2857</name></trkpt>
<trkpt lat="53.100180" lon="06.047135"><ele>-4.4</ele><time>2021-05-12T10:56:51Z</time><name>PT2858</name></trkpt>
<trkpt lat="53.100171" lon="06.047122"><ele>-4.3</ele><time>2021-05-12T10:56:52Z</time><name>PT2859</name></trkpt>
<trkpt lat="53.100159" lon="06.047107"><ele>-4.2</ele><time>2021-05-12T10:56:53Z</time><name>PT2860</name></trkpt>
<trkpt lat="53.100150" lon="06.047093"><ele>-4.2</ele><time>2021-05-12T10:56:54Z</time><name>PT2861</name></trkpt>
<trkpt lat="53.100141" lon="06.047079"><ele>-4.1</ele><time>2021-05-12T10:56:55Z</time><name>PT2862</name></trkpt>
<trkpt lat="53.100134" lon="06.047066"><ele>-4.3</ele><time>2021-05-12T10:56:56Z</time><name>PT2863</name></trkpt>
<trkpt lat="53.100126" lon="06.047052"><ele>-4.2</ele><time>2021-05-12T10:56:57Z</time><name>PT2864</name></trkpt>
<trkpt lat="53.100118" lon="06.047041"><ele>-4.6</ele><time>2021-05-12T10:56:58Z</time><name>PT2865</name></trkpt>
<trkpt lat="53.100110" lon="06.047027"><ele>-4.6</ele><time>2021-05-12T10:56:59Z</time><name>PT2866</name></trkpt>
<trkpt lat="53.100102" lon="06.047015"><ele>-4.6</ele><time>2021-05-12T10:57:00Z</time><name>PT2867</name></trkpt>
<trkpt lat="53.100094" lon="06.047001"><ele>-4.6</ele><time>2021-05-12T10:57:01Z</time><name>PT2868</name></trkpt>
<trkpt lat="53.100084" lon="06.046986"><ele>-4.7</ele><time>2021-05-12T10:57:02Z</time><name>PT2869</name></trkpt>
<trkpt lat="53.100074" lon="06.046973"><ele>-4.3</ele><time>2021-05-12T10:57:03Z</time><name>PT2870</name></trkpt>
<trkpt lat="53.100067" lon="06.046961"><ele>-4.5</ele><time>2021-05-12T10:57:04Z</time><name>PT2871</name></trkpt>
<trkpt lat="53.100058" lon="06.046950"><ele>-4.3</ele><time>2021-05-12T10:57:05Z</time><name>PT2872</name></trkpt>
<trkpt lat="53.100052" lon="06.046938"><ele>-4.2</ele><time>2021-05-12T10:57:06Z</time><name>PT2873</name></trkpt>
<trkpt lat="53.100044" lon="06.046922"><ele>-4.3</ele><time>2021-05-12T10:57:07Z</time><name>PT2874</name></trkpt>
<trkpt lat="53.100036" lon="06.046908"><ele>-4.1</ele><time>2021-05-12T10:57:08Z</time><name>PT2875</name></trkpt>
<trkpt lat="53.100028" lon="06.046897"><ele>-4.3</ele><time>2021-05-12T10:57:09Z</time><name>PT2876</name></trkpt>
<trkpt lat="53.100021" lon="06.046884"><ele>-4.5</ele><time>2021-05-12T10:57:10Z</time><name>PT2877</name></trkpt>
<trkpt lat="53.100014" lon="06.046870"><ele>-4.6</ele><time>2021-05-12T10:57:11Z</time><name>PT2878</name></trkpt>
<trkpt lat="53.100005" lon="06.046854"><ele>-4.6</ele><time>2021-05-12T10:57:12Z</time><name>PT2879</name></trkpt>
<trkpt lat="53.099994" lon="06.046842"><ele>-4.6</ele><time>2021-05-12T10:57:13Z</time><name>PT2880</name></trkpt>
<trkpt lat="53.099981" lon="06.046831"><ele>-4.7</ele><time>2021-05-12T10:57:14Z</time><name>PT2881</name></trkpt>
<trkpt lat="53.099971" lon="06.046819"><ele>-4.6</ele><time>2021-05-12T10:57:15Z</time><name>PT2882</name></trkpt>
<trkpt lat="53.099961" lon="06.046807"><ele>-4.6</ele><time>2021-05-12T10:57:16Z</time><name>PT2883</name></trkpt>
<trkpt lat="53.099949" lon="06.046796"><ele>-4.6</ele><time>2021-05-12T10:57:17Z</time><name>PT2884</name></trkpt>
<trkpt lat="53.099940" lon="06.046784"><ele>-4.7</ele><time>2021-05-12T10:57:18Z</time><name>PT2885</name></trkpt>
<trkpt lat="53.099932" lon="06.046772"><ele>-4.7</ele><time>2021-05-12T10:57:19Z</time><name>PT2886</name></trkpt>
<trkpt lat="53.099923" lon="06.046756"><ele>-4.8</ele><time>2021-05-12T10:57:20Z</time><name>PT2887</name></trkpt>
<trkpt lat="53.099914" lon="06.046739"><ele>-4.9</ele><time>2021-05-12T10:57:21Z</time><name>PT2888</name></trkpt>
<trkpt lat="53.099907" lon="06.046722"><ele>-4.9</ele><time>2021-05-12T10:57:22Z</time><name>PT2889</name></trkpt>
<trkpt lat="53.099899" lon="06.046708"><ele>-4.9</ele><time>2021-05-12T10:57:23Z</time><name>PT2890</name></trkpt>
<trkpt lat="53.099891" lon="06.046694"><ele>-4.8</ele><time>2021-05-12T10:57:24Z</time><name>PT2891</name></trkpt>
<trkpt lat="53.099881" lon="06.046680"><ele>-4.8</ele><time>2021-05-12T10:57:25Z</time><name>PT2892</name></trkpt>
<trkpt lat="53.099871" lon="06.046664"><ele>-4.7</ele><time>2021-05-12T10:57:26Z</time><name>PT2893</name></trkpt>
<trkpt lat="53.099863" lon="06.046652"><ele>-5</ele><time>2021-05-12T10:57:27Z</time><name>PT2894</name></trkpt>
<trkpt lat="53.099856" lon="06.046642"><ele>-5.1</ele><time>2021-05-12T10:57:28Z</time><name>PT2895</name></trkpt>
<trkpt lat="53.099848" lon="06.046629"><ele>-5</ele><time>2021-05-12T10:57:29Z</time><name>PT2896</name></trkpt>
<trkpt lat="53.099839" lon="06.046616"><ele>-5</ele><time>2021-05-12T10:57:30Z</time><name>PT2897</name></trkpt>
<trkpt lat="53.099830" lon="06.046602"><ele>-4.9</ele><time>2021-05-12T10:57:31Z</time><name>PT2898</name></trkpt>
<trkpt lat="53.099821" lon="06.046588"><ele>-4.9</ele><time>2021-05-12T10:57:32Z</time><name>PT2899</name></trkpt>
<trkpt lat="53.099812" lon="06.046576"><ele>-4.9</ele><time>2021-05-12T10:57:33Z</time><name>PT2900</name></trkpt>
<trkpt lat="53.099803" lon="06.046561"><ele>-5</ele><time>2021-05-12T10:57:34Z</time><name>PT2901</name></trkpt>
<trkpt lat="53.099792" lon="06.046548"><ele>-4.7</ele><time>2021-05-12T10:57:35Z</time><name>PT2902</name></trkpt>
<trkpt lat="53.099782" lon="06.046533"><ele>-4.6</ele><time>2021-05-12T10:57:36Z</time><name>PT2903</name></trkpt>
<trkpt lat="53.099772" lon="06.046518"><ele>-4.6</ele><time>2021-05-12T10:57:37Z</time><name>PT2904</name></trkpt>
<trkpt lat="53.099763" lon="06.046504"><ele>-4.7</ele><time>2021-05-12T10:57:38Z</time><name>PT2905</name></trkpt>
<trkpt lat="53.099755" lon="06.046489"><ele>-4.8</ele><time>2021-05-12T10:57:39Z</time><name>PT2906</name></trkpt>
<trkpt lat="53.099746" lon="06.046475"><ele>-4.9</ele><time>2021-05-12T10:57:40Z</time><name>PT2907</name></trkpt>
<trkpt lat="53.099739" lon="06.046461"><ele>-5</ele><time>2021-05-12T10:57:41Z</time><name>PT2908</name></trkpt>
<trkpt lat="53.099731" lon="06.046448"><ele>-5.1</ele><time>2021-05-12T10:57:42Z</time><name>PT2909</name></trkpt>
<trkpt lat="53.099722" lon="06.046436"><ele>-5.1</ele><time>2021-05-12T10:57:43Z</time><name>PT2910</name></trkpt>
<trkpt lat="53.099714" lon="06.046425"><ele>-5.1</ele><time>2021-05-12T10:57:44Z</time><name>PT2911</name></trkpt>
<trkpt lat="53.099705" lon="06.046409"><ele>-5.1</ele><time>2021-05-12T10:57:45Z</time><name>PT2912</name></trkpt>
<trkpt lat="53.099698" lon="06.046394"><ele>-5.1</ele><time>2021-05-12T10:57:46Z</time><name>PT2913</name></trkpt>
<trkpt lat="53.099689" lon="06.046380"><ele>-4.9</ele><time>2021-05-12T10:57:47Z</time><name>PT2914</name></trkpt>
<trkpt lat="53.099678" lon="06.046367"><ele>-4.9</ele><time>2021-05-12T10:57:48Z</time><name>PT2915</name></trkpt>
<trkpt lat="53.099669" lon="06.046354"><ele>-4.9</ele><time>2021-05-12T10:57:49Z</time><name>PT2916</name></trkpt>
<trkpt lat="53.099661" lon="06.046340"><ele>-4.9</ele><time>2021-05-12T10:57:50Z</time><name>PT2917</name></trkpt>
<trkpt lat="53.099653" lon="06.046326"><ele>-4.9</ele><time>2021-05-12T10:57:51Z</time><name>PT2918</name></trkpt>
<trkpt lat="53.099647" lon="06.046312"><ele>-4.8</ele><time>2021-05-12T10:57:52Z</time><name>PT2919</name></trkpt>
<trkpt lat="53.099640" lon="06.046297"><ele>-4.8</ele><time>2021-05-12T10:57:53Z</time><name>PT2920</name></trkpt>
<trkpt lat="53.099633" lon="06.046284"><ele>-4.9</ele><time>2021-05-12T10:57:54Z</time><name>PT2921</name></trkpt>
<trkpt lat="53.099625" lon="06.046272"><ele>-4.8</ele><time>2021-05-12T10:57:55Z</time><name>PT2922</name></trkpt>
<trkpt lat="53.099615" lon="06.046258"><ele>-4.9</ele><time>2021-05-12T10:57:56Z</time><name>PT2923</name></trkpt>
<trkpt lat="53.099608" lon="06.046249"><ele>-4.9</ele><time>2021-05-12T10:57:57Z</time><name>PT2924</name></trkpt>
<trkpt lat="53.099602" lon="06.046240"><ele>-4.7</ele><time>2021-05-12T10:57:58Z</time><name>PT2925</name></trkpt>
<trkpt lat="53.099598" lon="06.046229"><ele>-4.7</ele><time>2021-05-12T10:57:59Z</time><name>PT2926</name></trkpt>
<trkpt lat="53.099592" lon="06.046215"><ele>-4.6</ele><time>2021-05-12T10:58:00Z</time><name>PT2927</name></trkpt>
<trkpt lat="53.099585" lon="06.046203"><ele>-4.6</ele><time>2021-05-12T10:58:01Z</time><name>PT2928</name></trkpt>
<trkpt lat="53.099581" lon="06.046191"><ele>-4.6</ele><time>2021-05-12T10:58:02Z</time><name>PT2929</name></trkpt>
<trkpt lat="53.099581" lon="06.046183"><ele>-4.7</ele><time>2021-05-12T10:58:03Z</time><name>PT2930</name></trkpt>
<trkpt lat="53.099581" lon="06.046178"><ele>-4.7</ele><time>2021-05-12T10:58:04Z</time><name>PT2931</name></trkpt>
<trkpt lat="53.099581" lon="06.046176"><ele>-4.6</ele><time>2021-05-12T10:58:05Z</time><name>PT2932</name></trkpt>
<trkpt lat="53.099581" lon="06.046174"><ele>-4.6</ele><time>2021-05-12T10:58:06Z</time><name>PT2933</name></trkpt>
<trkpt lat="53.099582" lon="06.046159"><ele>-4.7</ele><time>2021-05-12T10:58:08Z</time><name>PT2934</name></trkpt>
<trkpt lat="53.099586" lon="06.046139"><ele>-4.8</ele><time>2021-05-12T10:58:09Z</time><name>PT2935</name></trkpt>
<trkpt lat="53.099590" lon="06.046121"><ele>-4.7</ele><time>2021-05-12T10:58:10Z</time><name>PT2936</name></trkpt>
<trkpt lat="53.099593" lon="06.046104"><ele>-4.7</ele><time>2021-05-12T10:58:11Z</time><name>PT2937</name></trkpt>
<trkpt lat="53.099598" lon="06.046090"><ele>-4.7</ele><time>2021-05-12T10:58:12Z</time><name>PT2938</name></trkpt>
<trkpt lat="53.099604" lon="06.046078"><ele>-4.6</ele><time>2021-05-12T10:58:13Z</time><name>PT2939</name></trkpt>
<trkpt lat="53.099612" lon="06.046068"><ele>-4.8</ele><time>2021-05-12T10:58:14Z</time><name>PT2940</name></trkpt>
<trkpt lat="53.099622" lon="06.046055"><ele>-4.8</ele><time>2021-05-12T10:58:15Z</time><name>PT2941</name></trkpt>
<trkpt lat="53.099631" lon="06.046044"><ele>-4.9</ele><time>2021-05-12T10:58:16Z</time><name>PT2942</name></trkpt>
<trkpt lat="53.099641" lon="06.046030"><ele>-5</ele><time>2021-05-12T10:58:17Z</time><name>PT2943</name></trkpt>
<trkpt lat="53.099650" lon="06.046018"><ele>-5.1</ele><time>2021-05-12T10:58:18Z</time><name>PT2944</name></trkpt>
<trkpt lat="53.099659" lon="06.046011"><ele>-5.1</ele><time>2021-05-12T10:58:19Z</time><name>PT2945</name></trkpt>
<trkpt lat="53.099670" lon="06.046001"><ele>-5.1</ele><time>2021-05-12T10:58:20Z</time><name>PT2946</name></trkpt>
<trkpt lat="53.099683" lon="06.045990"><ele>-5.1</ele><time>2021-05-12T10:58:21Z</time><name>PT2947</name></trkpt>
<trkpt lat="53.099691" lon="06.045982"><ele>-5</ele><time>2021-05-12T10:58:22Z</time><name>PT2948</name></trkpt>
<trkpt lat="53.099703" lon="06.045972"><ele>-5.1</ele><time>2021-05-12T10:58:23Z</time><name>PT2949</name></trkpt>
<trkpt lat="53.099711" lon="06.045964"><ele>-5</ele><time>2021-05-12T10:58:24Z</time><name>PT2950</name></trkpt>
<trkpt lat="53.099719" lon="06.045955"><ele>-5</ele><time>2021-05-12T10:58:25Z</time><name>PT2951</name></trkpt>
<trkpt lat="53.099731" lon="06.045946"><ele>-5</ele><time>2021-05-12T10:58:26Z</time><name>PT2952</name></trkpt>
<trkpt lat="53.099741" lon="06.045940"><ele>-4.8</ele><time>2021-05-12T10:58:27Z</time><name>PT2953</name></trkpt>
<trkpt lat="53.099751" lon="06.045932"><ele>-4.8</ele><time>2021-05-12T10:58:28Z</time><name>PT2954</name></trkpt>
<trkpt lat="53.099762" lon="06.045926"><ele>-4.8</ele><time>2021-05-12T10:58:29Z</time><name>PT2955</name></trkpt>
<trkpt lat="53.099774" lon="06.045920"><ele>-4.9</ele><time>2021-05-12T10:58:30Z</time><name>PT2956</name></trkpt>
<trkpt lat="53.099784" lon="06.045912"><ele>-4.8</ele><time>2021-05-12T10:58:31Z</time><name>PT2957</name></trkpt>
<trkpt lat="53.099793" lon="06.045904"><ele>-4.9</ele><time>2021-05-12T10:58:32Z</time><name>PT2958</name></trkpt>
<trkpt lat="53.099802" lon="06.045898"><ele>-4.8</ele><time>2021-05-12T10:58:33Z</time><name>PT2959</name></trkpt>
<trkpt lat="53.099813" lon="06.045891"><ele>-4.6</ele><time>2021-05-12T10:58:34Z</time><name>PT2960</name></trkpt>
<trkpt lat="53.099819" lon="06.045885"><ele>-4.8</ele><time>2021-05-12T10:58:35Z</time><name>PT2961</name></trkpt>
<trkpt lat="53.099827" lon="06.045875"><ele>-4.8</ele><time>2021-05-12T10:58:36Z</time><name>PT2962</name></trkpt>
<trkpt lat="53.099837" lon="06.045867"><ele>-4.8</ele><time>2021-05-12T10:58:37Z</time><name>PT2963</name></trkpt>
<trkpt lat="53.099851" lon="06.045861"><ele>-4.9</ele><time>2021-05-12T10:58:38Z</time><name>PT2964</name></trkpt>
<trkpt lat="53.099862" lon="06.045856"><ele>-4.8</ele><time>2021-05-12T10:58:39Z</time><name>PT2965</name></trkpt>
<trkpt lat="53.099874" lon="06.045849"><ele>-4.8</ele><time>2021-05-12T10:58:40Z</time><name>PT2966</name></trkpt>
<trkpt lat="53.099883" lon="06.045843"><ele>-5.1</ele><time>2021-05-12T10:58:41Z</time><name>PT2967</name></trkpt>
<trkpt lat="53.099895" lon="06.045833"><ele>-5.2</ele><time>2021-05-12T10:58:42Z</time><name>PT2968</name></trkpt>
<trkpt lat="53.099904" lon="06.045825"><ele>-5.2</ele><time>2021-05-12T10:58:43Z</time><name>PT2969</name></trkpt>
<trkpt lat="53.099915" lon="06.045817"><ele>-5.6</ele><time>2021-05-12T10:58:44Z</time><name>PT2970</name></trkpt>
<trkpt lat="53.099927" lon="06.045806"><ele>-5.4</ele><time>2021-05-12T10:58:45Z</time><name>PT2971</name></trkpt>
<trkpt lat="53.099939" lon="06.045796"><ele>-5.2</ele><time>2021-05-12T10:58:46Z</time><name>PT2972</name></trkpt>
<trkpt lat="53.099947" lon="06.045791"><ele>-5.4</ele><time>2021-05-12T10:58:47Z</time><name>PT2973</name></trkpt>
<trkpt lat="53.099955" lon="06.045784"><ele>-5.1</ele><time>2021-05-12T10:58:48Z</time><name>PT2974</name></trkpt>
<trkpt lat="53.099968" lon="06.045775"><ele>-5.1</ele><time>2021-05-12T10:58:49Z</time><name>PT2975</name></trkpt>
<trkpt lat="53.099979" lon="06.045769"><ele>-5.1</ele><time>2021-05-12T10:58:50Z</time><name>PT2976</name></trkpt>
<trkpt lat="53.099989" lon="06.045762"><ele>-5.1</ele><time>2021-05-12T10:58:51Z</time><name>PT2977</name></trkpt>
<trkpt lat="53.099999" lon="06.045752"><ele>-5.1</ele><time>2021-05-12T10:58:52Z</time><name>PT2978</name></trkpt>
<trkpt lat="53.100006" lon="06.045740"><ele>-5.1</ele><time>2021-05-12T10:58:53Z</time><name>PT2979</name></trkpt>
<trkpt lat="53.100012" lon="06.045724"><ele>-5.1</ele><time>2021-05-12T10:58:54Z</time><name>PT2980</name></trkpt>
<trkpt lat="53.100018" lon="06.045708"><ele>-5.1</ele><time>2021-05-12T10:58:55Z</time><name>PT2981</name></trkpt>
<trkpt lat="53.100028" lon="06.045687"><ele>-5.1</ele><time>2021-05-12T10:58:56Z</time><name>PT2982</name></trkpt>
<trkpt lat="53.100030" lon="06.045670"><ele>-5.2</ele><time>2021-05-12T10:58:57Z</time><name>PT2983</name></trkpt>
<trkpt lat="53.100037" lon="06.045651"><ele>-5.2</ele><time>2021-05-12T10:58:58Z</time><name>PT2984</name></trkpt>
<trkpt lat="53.100041" lon="06.045633"><ele>-5.3</ele><time>2021-05-12T10:58:59Z</time><name>PT2985</name></trkpt>
<trkpt lat="53.100039" lon="06.045618"><ele>-5.1</ele><time>2021-05-12T10:59:00Z</time><name>PT2986</name></trkpt>
<trkpt lat="53.100036" lon="06.045603"><ele>-5.1</ele><time>2021-05-12T10:59:01Z</time><name>PT2987</name></trkpt>
<trkpt lat="53.100033" lon="06.045586"><ele>-5.1</ele><time>2021-05-12T10:59:02Z</time><name>PT2988</name></trkpt>
<trkpt lat="53.100032" lon="06.045570"><ele>-5</ele><time>2021-05-12T10:59:03Z</time><name>PT2989</name></trkpt>
<trkpt lat="53.100032" lon="06.045557"><ele>-5</ele><time>2021-05-12T10:59:04Z</time><name>PT2990</name></trkpt>
<trkpt lat="53.100030" lon="06.045544"><ele>-5</ele><time>2021-05-12T10:59:05Z</time><name>PT2991</name></trkpt>
<trkpt lat="53.100027" lon="06.045526"><ele>-5.1</ele><time>2021-05-12T10:59:06Z</time><name>PT2992</name></trkpt>
<trkpt lat="53.100022" lon="06.045510"><ele>-5.1</ele><time>2021-05-12T10:59:07Z</time><name>PT2993</name></trkpt>
<trkpt lat="53.100018" lon="06.045494"><ele>-5.2</ele><time>2021-05-12T10:59:08Z</time><name>PT2994</name></trkpt>
<trkpt lat="53.100016" lon="06.045477"><ele>-5.1</ele><time>2021-05-12T10:59:09Z</time><name>PT2995</name></trkpt>
<trkpt lat="53.100011" lon="06.045463"><ele>-5</ele><time>2021-05-12T10:59:10Z</time><name>PT2996</name></trkpt>
<trkpt lat="53.100005" lon="06.045447"><ele>-5</ele><time>2021-05-12T10:59:11Z</time><name>PT2997</name></trkpt>
<trkpt lat="53.100003" lon="06.045427"><ele>-4.9</ele><time>2021-05-12T10:59:12Z</time><name>PT2998</name></trkpt>
<trkpt lat="53.100001" lon="06.045411"><ele>-4.8</ele><time>2021-05-12T10:59:13Z</time><name>PT2999</name></trkpt>
<trkpt lat="53.099998" lon="06.045398"><ele>-5.1</ele><time>2021-05-12T10:59:14Z</time><name>PT3000</name></trkpt>
<trkpt lat="53.099995" lon="06.045384"><ele>-5.1</ele><time>2021-05-12T10:59:15Z</time><name>PT3001</name></trkpt>
<trkpt lat="53.099992" lon="06.045372"><ele>-5.3</ele><time>2021-05-12T10:59:16Z</time><name>PT3002</name></trkpt>
<trkpt lat="53.099991" lon="06.045360"><ele>-5.5</ele><time>2021-05-12T10:59:17Z</time><name>PT3003</name></trkpt>
<trkpt lat="53.099988" lon="06.045343"><ele>-5.3</ele><time>2021-05-12T10:59:18Z</time><name>PT3004</name></trkpt>
<trkpt lat="53.099985" lon="06.045331"><ele>-5.4</ele><time>2021-05-12T10:59:19Z</time><name>PT3005</name></trkpt>
<trkpt lat="53.099981" lon="06.045317"><ele>-5.2</ele><time>2021-05-12T10:59:20Z</time><name>PT3006</name></trkpt>
<trkpt lat="53.099975" lon="06.045302"><ele>-5.5</ele><time>2021-05-12T10:59:21Z</time><name>PT3007</name></trkpt>
<trkpt lat="53.099973" lon="06.045284"><ele>-5.3</ele><time>2021-05-12T10:59:22Z</time><name>PT3008</name></trkpt>
<trkpt lat="53.099970" lon="06.045266"><ele>-5.4</ele><time>2021-05-12T10:59:23Z</time><name>PT3009</name></trkpt>
<trkpt lat="53.099966" lon="06.045243"><ele>-5.7</ele><time>2021-05-12T10:59:24Z</time><name>PT3010</name></trkpt>
<trkpt lat="53.099962" lon="06.045223"><ele>-5.6</ele><time>2021-05-12T10:59:25Z</time><name>PT3011</name></trkpt>
<trkpt lat="53.099955" lon="06.045198"><ele>-5.6</ele><time>2021-05-12T10:59:26Z</time><name>PT3012</name></trkpt>
<trkpt lat="53.099952" lon="06.045177"><ele>-5.5</ele><time>2021-05-12T10:59:27Z</time><name>PT3013</name></trkpt>
<trkpt lat="53.099947" lon="06.045150"><ele>-5.5</ele><time>2021-05-12T10:59:28Z</time><name>PT3014</name></trkpt>
<trkpt lat="53.099946" lon="06.045124"><ele>-5.3</ele><time>2021-05-12T10:59:29Z</time><name>PT3015</name></trkpt>
<trkpt lat="53.099947" lon="06.045103"><ele>-5.3</ele><time>2021-05-12T10:59:30Z</time><name>PT3016</name></trkpt>
<trkpt lat="53.099949" lon="06.045081"><ele>-5.2</ele><time>2021-05-12T10:59:31Z</time><name>PT3017</name></trkpt>
<trkpt lat="53.099955" lon="06.045063"><ele>-5.4</ele><time>2021-05-12T10:59:32Z</time><name>PT3018</name></trkpt>
<trkpt lat="53.099961" lon="06.045050"><ele>-5.4</ele><time>2021-05-12T10:59:33Z</time><name>PT3019</name></trkpt>
<trkpt lat="53.099969" lon="06.045040"><ele>-5.2</ele><time>2021-05-12T10:59:34Z</time><name>PT3020</name></trkpt>
<trkpt lat="53.099978" lon="06.045032"><ele>-5.2</ele><time>2021-05-12T10:59:35Z</time><name>PT3021</name></trkpt>
<trkpt lat="53.099987" lon="06.045023"><ele>-5.1</ele><time>2021-05-12T10:59:36Z</time><name>PT3022</name></trkpt>
<trkpt lat="53.099997" lon="06.045014"><ele>-4.9</ele><time>2021-05-12T10:59:37Z</time><name>PT3023</name></trkpt>
<trkpt lat="53.100010" lon="06.045006"><ele>-5.1</ele><time>2021-05-12T10:59:38Z</time><name>PT3024</name></trkpt>
<trkpt lat="53.100022" lon="06.045001"><ele>-5</ele><time>2021-05-12T10:59:39Z</time><name>PT3025</name></trkpt>
<trkpt lat="53.100032" lon="06.044992"><ele>-5</ele><time>2021-05-12T10:59:40Z</time><name>PT3026</name></trkpt>
<trkpt lat="53.100045" lon="06.044986"><ele>-5</ele><time>2021-05-12T10:59:41Z</time><name>PT3027</name></trkpt>
<trkpt lat="53.100055" lon="06.044983"><ele>-5</ele><time>2021-05-12T10:59:42Z</time><name>PT3028</name></trkpt>
<trkpt lat="53.100063" lon="06.044980"><ele>-5.1</ele><time>2021-05-12T10:59:43Z</time><name>PT3029</name></trkpt>
<trkpt lat="53.100073" lon="06.044975"><ele>-5.3</ele><time>2021-05-12T10:59:44Z</time><name>PT3030</name></trkpt>
<trkpt lat="53.100085" lon="06.044966"><ele>-5.5</ele><time>2021-05-12T10:59:45Z</time><name>PT3031</name></trkpt>
<trkpt lat="53.100097" lon="06.044957"><ele>-5.6</ele><time>2021-05-12T10:59:46Z</time><name>PT3032</name></trkpt>
<trkpt lat="53.100108" lon="06.044949"><ele>-5.6</ele><time>2021-05-12T10:59:47Z</time><name>PT3033</name></trkpt>
<trkpt lat="53.100117" lon="06.044939"><ele>-5.4</ele><time>2021-05-12T10:59:48Z</time><name>PT3034</name></trkpt>
<trkpt lat="53.100127" lon="06.044930"><ele>-5.4</ele><time>2021-05-12T10:59:49Z</time><name>PT3035</name></trkpt>
<trkpt lat="53.100133" lon="06.044919"><ele>-5.6</ele><time>2021-05-12T10:59:50Z</time><name>PT3036</name></trkpt>
<trkpt lat="53.100148" lon="06.044909"><ele>-5.5</ele><time>2021-05-12T10:59:51Z</time><name>PT3037</name></trkpt>
<trkpt lat="53.100157" lon="06.044903"><ele>-5.5</ele><time>2021-05-12T10:59:52Z</time><name>PT3038</name></trkpt>
<trkpt lat="53.100170" lon="06.044895"><ele>-5.5</ele><time>2021-05-12T10:59:53Z</time><name>PT3039</name></trkpt>
<trkpt lat="53.100175" lon="06.044882"><ele>-5.4</ele><time>2021-05-12T10:59:54Z</time><name>PT3040</name></trkpt>
<trkpt lat="53.100185" lon="06.044878"><ele>-5.4</ele><time>2021-05-12T10:59:55Z</time><name>PT3041</name></trkpt>
<trkpt lat="53.100195" lon="06.044870"><ele>-5.3</ele><time>2021-05-12T10:59:56Z</time><name>PT3042</name></trkpt>
<trkpt lat="53.100206" lon="06.044864"><ele>-5.4</ele><time>2021-05-12T10:59:57Z</time><name>PT3043</name></trkpt>
<trkpt lat="53.100219" lon="06.044864"><ele>-5.5</ele><time>2021-05-12T10:59:58Z</time><name>PT3044</name></trkpt>
<trkpt lat="53.100231" lon="06.044857"><ele>-5.4</ele><time>2021-05-12T10:59:59Z</time><name>PT3045</name></trkpt>
<trkpt lat="53.100239" lon="06.044850"><ele>-5.3</ele><time>2021-05-12T11:00:00Z</time><name>PT3046</name></trkpt>
<trkpt lat="53.100248" lon="06.044843"><ele>-5.4</ele><time>2021-05-12T11:00:01Z</time><name>PT3047</name></trkpt>
<trkpt lat="53.100257" lon="06.044836"><ele>-5.3</ele><time>2021-05-12T11:00:02Z</time><name>PT3048</name></trkpt>
<trkpt lat="53.100271" lon="06.044827"><ele>-5.4</ele><time>2021-05-12T11:00:03Z</time><name>PT3049</name></trkpt>
<trkpt lat="53.100277" lon="06.044819"><ele>-5.6</ele><time>2021-05-12T11:00:04Z</time><name>PT3050</name></trkpt>
<trkpt lat="53.100285" lon="06.044809"><ele>-5.4</ele><time>2021-05-12T11:00:05Z</time><name>PT3051</name></trkpt>
<trkpt lat="53.100295" lon="06.044801"><ele>-5.3</ele><time>2021-05-12T11:00:06Z</time><name>PT3052</name></trkpt>
<trkpt lat="53.100307" lon="06.044794"><ele>-5.3</ele><time>2021-05-12T11:00:07Z</time><name>PT3053</name></trkpt>
<trkpt lat="53.100317" lon="06.044786"><ele>-5.4</ele><time>2021-05-12T11:00:08Z</time><name>PT3054</name></trkpt>
<trkpt lat="53.100326" lon="06.044777"><ele>-5.2</ele><time>2021-05-12T11:00:09Z</time><name>PT3055</name></trkpt>
<trkpt lat="53.100334" lon="06.044769"><ele>-5.3</ele><time>2021-05-12T11:00:10Z</time><name>PT3056</name></trkpt>
<trkpt lat="53.100345" lon="06.044764"><ele>-5.4</ele><time>2021-05-12T11:00:11Z</time><name>PT3057</name></trkpt>
<trkpt lat="53.100355" lon="06.044756"><ele>-5.2</ele><time>2021-05-12T11:00:12Z</time><name>PT3058</name></trkpt>
<trkpt lat="53.100368" lon="06.044749"><ele>-5.4</ele><time>2021-05-12T11:00:13Z</time><name>PT3059</name></trkpt>
<trkpt lat="53.100378" lon="06.044746"><ele>-5.4</ele><time>2021-05-12T11:00:14Z</time><name>PT3060</name></trkpt>
<trkpt lat="53.100389" lon="06.044741"><ele>-5.4</ele><time>2021-05-12T11:00:15Z</time><name>PT3061</name></trkpt>
<trkpt lat="53.100402" lon="06.044736"><ele>-5.2</ele><time>2021-05-12T11:00:16Z</time><name>PT3062</name></trkpt>
<trkpt lat="53.100416" lon="06.044730"><ele>-5.3</ele><time>2021-05-12T11:00:17Z</time><name>PT3063</name></trkpt>
<trkpt lat="53.100427" lon="06.044724"><ele>-5.1</ele><time>2021-05-12T11:00:18Z</time><name>PT3064</name></trkpt>
<trkpt lat="53.100439" lon="06.044720"><ele>-5.1</ele><time>2021-05-12T11:00:19Z</time><name>PT3065</name></trkpt>
<trkpt lat="53.100450" lon="06.044714"><ele>-5.1</ele><time>2021-05-12T11:00:20Z</time><name>PT3066</name></trkpt>
<trkpt lat="53.100462" lon="06.044708"><ele>-5.2</ele><time>2021-05-12T11:00:21Z</time><name>PT3067</name></trkpt>
<trkpt lat="53.100473" lon="06.044704"><ele>-5.2</ele><time>2021-05-12T11:00:22Z</time><name>PT3068</name></trkpt>
<trkpt lat="53.100485" lon="06.044698"><ele>-5.1</ele><time>2021-05-12T11:00:23Z</time><name>PT3069</name></trkpt>
<trkpt lat="53.100497" lon="06.044692"><ele>-5.2</ele><time>2021-05-12T11:00:24Z</time><name>PT3070</name></trkpt>
<trkpt lat="53.100510" lon="06.044686"><ele>-5.3</ele><time>2021-05-12T11:00:25Z</time><name>PT3071</name></trkpt>
<trkpt lat="53.100524" lon="06.044679"><ele>-5.4</ele><time>2021-05-12T11:00:26Z</time><name>PT3072</name></trkpt>
<trkpt lat="53.100536" lon="06.044671"><ele>-5.6</ele><time>2021-05-12T11:00:27Z</time><name>PT3073</name></trkpt>
<trkpt lat="53.100547" lon="06.044663"><ele>-5.6</ele><time>2021-05-12T11:00:28Z</time><name>PT3074</name></trkpt>
<trkpt lat="53.100558" lon="06.044656"><ele>-5.7</ele><time>2021-05-12T11:00:29Z</time><name>PT3075</name></trkpt>
<trkpt lat="53.100570" lon="06.044648"><ele>-5.6</ele><time>2021-05-12T11:00:30Z</time><name>PT3076</name></trkpt>
<trkpt lat="53.100583" lon="06.044641"><ele>-5.6</ele><time>2021-05-12T11:00:31Z</time><name>PT3077</name></trkpt>
<trkpt lat="53.100592" lon="06.044632"><ele>-5.7</ele><time>2021-05-12T11:00:32Z</time><name>PT3078</name></trkpt>
<trkpt lat="53.100598" lon="06.044625"><ele>-5.5</ele><time>2021-05-12T11:00:33Z</time><name>PT3079</name></trkpt>
<trkpt lat="53.100609" lon="06.044622"><ele>-5.5</ele><time>2021-05-12T11:00:34Z</time><name>PT3080</name></trkpt>
<trkpt lat="53.100617" lon="06.044620"><ele>-5.6</ele><time>2021-05-12T11:00:35Z</time><name>PT3081</name></trkpt>
<trkpt lat="53.100618" lon="06.044620"><ele>-5.4</ele><time>2021-05-12T11:00:36Z</time><name>PT3082</name></trkpt>
<trkpt lat="53.100619" lon="06.044620"><ele>-5.6</ele><time>2021-05-12T11:00:37Z</time><name>PT3083</name></trkpt>
<trkpt lat="53.100632" lon="06.044634"><ele>-4.8</ele><time>2021-05-12T11:00:50Z</time><name>PT3084</name></trkpt>
<trkpt lat="53.100630" lon="06.044621"><ele>-4.4</ele><time>2021-05-12T11:00:51Z</time><name>PT3085</name></trkpt>
<trkpt lat="53.100635" lon="06.044616"><ele>-4.3</ele><time>2021-05-12T11:00:52Z</time><name>PT3086</name></trkpt>
<trkpt lat="53.100641" lon="06.044609"><ele>-5.7</ele><time>2021-05-12T11:01:23Z</time><name>PT3087</name></trkpt>
<trkpt lat="53.100655" lon="06.044605"><ele>-5.4</ele><time>2021-05-12T11:01:24Z</time><name>PT3088</name></trkpt>
<trkpt lat="53.100669" lon="06.044599"><ele>-5.5</ele><time>2021-05-12T11:01:25Z</time><name>PT3089</name></trkpt>
<trkpt lat="53.100681" lon="06.044591"><ele>-5.9</ele><time>2021-05-12T11:01:26Z</time><name>PT3090</name></trkpt>
<trkpt lat="53.100694" lon="06.044584"><ele>-6.3</ele><time>2021-05-12T11:01:27Z</time><name>PT3091</name></trkpt>
<trkpt lat="53.100705" lon="06.044577"><ele>-6.4</ele><time>2021-05-12T11:01:28Z</time><name>PT3092</name></trkpt>
<trkpt lat="53.100716" lon="06.044573"><ele>-6.5</ele><time>2021-05-12T11:01:29Z</time><name>PT3093</name></trkpt>
<trkpt lat="53.100729" lon="06.044567"><ele>-6.6</ele><time>2021-05-12T11:01:30Z</time><name>PT3094</name></trkpt>
<trkpt lat="53.100743" lon="06.044561"><ele>-6.6</ele><time>2021-05-12T11:01:31Z</time><name>PT3095</name></trkpt>
<trkpt lat="53.100757" lon="06.044555"><ele>-6.5</ele><time>2021-05-12T11:01:32Z</time><name>PT3096</name></trkpt>
<trkpt lat="53.100770" lon="06.044550"><ele>-6.3</ele><time>2021-05-12T11:01:33Z</time><name>PT3097</name></trkpt>
<trkpt lat="53.100784" lon="06.044546"><ele>-6.2</ele><time>2021-05-12T11:01:34Z</time><name>PT3098</name></trkpt>
<trkpt lat="53.100794" lon="06.044542"><ele>-6</ele><time>2021-05-12T11:01:35Z</time><name>PT3099</name></trkpt>
<trkpt lat="53.100805" lon="06.044537"><ele>-6</ele><time>2021-05-12T11:01:36Z</time><name>PT3100</name></trkpt>
<trkpt lat="53.100813" lon="06.044531"><ele>-6</ele><time>2021-05-12T11:01:37Z</time><name>PT3101</name></trkpt>
<trkpt lat="53.100823" lon="06.044524"><ele>-6.1</ele><time>2021-05-12T11:01:38Z</time><name>PT3102</name></trkpt>
<trkpt lat="53.100834" lon="06.044516"><ele>-6.1</ele><time>2021-05-12T11:01:39Z</time><name>PT3103</name></trkpt>
<trkpt lat="53.100846" lon="06.044510"><ele>-6</ele><time>2021-05-12T11:01:40Z</time><name>PT3104</name></trkpt>
<trkpt lat="53.100859" lon="06.044503"><ele>-6.4</ele><time>2021-05-12T11:01:41Z</time><name>PT3105</name></trkpt>
<trkpt lat="53.100871" lon="06.044496"><ele>-6.5</ele><time>2021-05-12T11:01:42Z</time><name>PT3106</name></trkpt>
<trkpt lat="53.100883" lon="06.044488"><ele>-6.4</ele><time>2021-05-12T11:01:43Z</time><name>PT3107</name></trkpt>
<trkpt lat="53.100895" lon="06.044481"><ele>-6.5</ele><time>2021-05-12T11:01:44Z</time><name>PT3108</name></trkpt>
<trkpt lat="53.100907" lon="06.044474"><ele>-6.8</ele><time>2021-05-12T11:01:45Z</time><name>PT3109</name></trkpt>
<trkpt lat="53.100921" lon="06.044468"><ele>-6.1</ele><time>2021-05-12T11:01:46Z</time><name>PT3110</name></trkpt>
<trkpt lat="53.100934" lon="06.044462"><ele>-6.5</ele><time>2021-05-12T11:01:47Z</time><name>PT3111</name></trkpt>
<trkpt lat="53.100945" lon="06.044456"><ele>-6.5</ele><time>2021-05-12T11:01:49Z</time><name>PT3112</name></trkpt>
<trkpt lat="53.100956" lon="06.044448"><ele>-6</ele><time>2021-05-12T11:01:49Z</time><name>PT3113</name></trkpt>
<trkpt lat="53.100966" lon="06.044439"><ele>-5.1</ele><time>2021-05-12T11:01:50Z</time><name>PT3114</name></trkpt>
<trkpt lat="53.100976" lon="06.044432"><ele>-5.3</ele><time>2021-05-12T11:01:51Z</time><name>PT3115</name></trkpt>
<trkpt lat="53.100988" lon="06.044425"><ele>-4.8</ele><time>2021-05-12T11:01:52Z</time><name>PT3116</name></trkpt>
<trkpt lat="53.100998" lon="06.044420"><ele>-4.7</ele><time>2021-05-12T11:01:53Z</time><name>PT3117</name></trkpt>
<trkpt lat="53.101004" lon="06.044409"><ele>-5.2</ele><time>2021-05-12T11:01:54Z</time><name>PT3118</name></trkpt>
<trkpt lat="53.101013" lon="06.044400"><ele>-5.6</ele><time>2021-05-12T11:01:55Z</time><name>PT3119</name></trkpt>
<trkpt lat="53.101024" lon="06.044393"><ele>-5.9</ele><time>2021-05-12T11:01:56Z</time><name>PT3120</name></trkpt>
<trkpt lat="53.101034" lon="06.044387"><ele>-6</ele><time>2021-05-12T11:01:57Z</time><name>PT3121</name></trkpt>
<trkpt lat="53.101047" lon="06.044381"><ele>-6</ele><time>2021-05-12T11:01:58Z</time><name>PT3122</name></trkpt>
<trkpt lat="53.101062" lon="06.044375"><ele>-6</ele><time>2021-05-12T11:01:59Z</time><name>PT3123</name></trkpt>
<trkpt lat="53.101076" lon="06.044370"><ele>-5.8</ele><time>2021-05-12T11:02:00Z</time><name>PT3124</name></trkpt>
<trkpt lat="53.101088" lon="06.044360"><ele>-5.7</ele><time>2021-05-12T11:02:01Z</time><name>PT3125</name></trkpt>
<trkpt lat="53.101099" lon="06.044354"><ele>-5.7</ele><time>2021-05-12T11:02:02Z</time><name>PT3126</name></trkpt>
<trkpt lat="53.101109" lon="06.044342"><ele>-5.9</ele><time>2021-05-12T11:02:03Z</time><name>PT3127</name></trkpt>
<trkpt lat="53.101122" lon="06.044337"><ele>-5.9</ele><time>2021-05-12T11:02:04Z</time><name>PT3128</name></trkpt>
<trkpt lat="53.101133" lon="06.044331"><ele>-6</ele><time>2021-05-12T11:02:05Z</time><name>PT3129</name></trkpt>
<trkpt lat="53.101145" lon="06.044325"><ele>-5.9</ele><time>2021-05-12T11:02:06Z</time><name>PT3130</name></trkpt>
<trkpt lat="53.101152" lon="06.044316"><ele>-6</ele><time>2021-05-12T11:02:07Z</time><name>PT3131</name></trkpt>
<trkpt lat="53.101160" lon="06.044310"><ele>-6</ele><time>2021-05-12T11:02:08Z</time><name>PT3132</name></trkpt>
<trkpt lat="53.101173" lon="06.044305"><ele>-6</ele><time>2021-05-12T11:02:09Z</time><name>PT3133</name></trkpt>
<trkpt lat="53.101184" lon="06.044300"><ele>-6</ele><time>2021-05-12T11:02:10Z</time><name>PT3134</name></trkpt>
<trkpt lat="53.101195" lon="06.044294"><ele>-6.1</ele><time>2021-05-12T11:02:11Z</time><name>PT3135</name></trkpt>
<trkpt lat="53.101202" lon="06.044285"><ele>-6.2</ele><time>2021-05-12T11:02:12Z</time><name>PT3136</name></trkpt>
<trkpt lat="53.101211" lon="06.044273"><ele>-6.2</ele><time>2021-05-12T11:02:13Z</time><name>PT3137</name></trkpt>
<trkpt lat="53.101221" lon="06.044263"><ele>-6.2</ele><time>2021-05-12T11:02:14Z</time><name>PT3138</name></trkpt>
<trkpt lat="53.101232" lon="06.044253"><ele>-6.3</ele><time>2021-05-12T11:02:16Z</time><name>PT3139</name></trkpt>
<trkpt lat="53.101244" lon="06.044241"><ele>-6.2</ele><time>2021-05-12T11:02:16Z</time><name>PT3140</name></trkpt>
<trkpt lat="53.101254" lon="06.044231"><ele>-6.2</ele><time>2021-05-12T11:02:17Z</time><name>PT3141</name></trkpt>
<trkpt lat="53.101266" lon="06.044223"><ele>-6.2</ele><time>2021-05-12T11:02:18Z</time><name>PT3142</name></trkpt>
<trkpt lat="53.101277" lon="06.044215"><ele>-6.1</ele><time>2021-05-12T11:02:19Z</time><name>PT3143</name></trkpt>
<trkpt lat="53.101288" lon="06.044205"><ele>-6</ele><time>2021-05-12T11:02:20Z</time><name>PT3144</name></trkpt>
<trkpt lat="53.101298" lon="06.044198"><ele>-6</ele><time>2021-05-12T11:02:21Z</time><name>PT3145</name></trkpt>
<trkpt lat="53.101305" lon="06.044194"><ele>-6</ele><time>2021-05-12T11:02:22Z</time><name>PT3146</name></trkpt>
<trkpt lat="53.101317" lon="06.044188"><ele>-6</ele><time>2021-05-12T11:02:23Z</time><name>PT3147</name></trkpt>
<trkpt lat="53.101327" lon="06.044182"><ele>-6</ele><time>2021-05-12T11:02:24Z</time><name>PT3148</name></trkpt>
<trkpt lat="53.101338" lon="06.044175"><ele>-5.9</ele><time>2021-05-12T11:02:25Z</time><name>PT3149</name></trkpt>
<trkpt lat="53.101348" lon="06.044170"><ele>-5.8</ele><time>2021-05-12T11:02:26Z</time><name>PT3150</name></trkpt>
<trkpt lat="53.101359" lon="06.044162"><ele>-6</ele><time>2021-05-12T11:02:27Z</time><name>PT3151</name></trkpt>
<trkpt lat="53.101370" lon="06.044156"><ele>-5.9</ele><time>2021-05-12T11:02:28Z</time><name>PT3152</name></trkpt>
<trkpt lat="53.101386" lon="06.044150"><ele>-6</ele><time>2021-05-12T11:02:29Z</time><name>PT3153</name></trkpt>
<trkpt lat="53.101402" lon="06.044144"><ele>-6.1</ele><time>2021-05-12T11:02:31Z</time><name>PT3154</name></trkpt>
<trkpt lat="53.101417" lon="06.044139"><ele>-6.3</ele><time>2021-05-12T11:02:31Z</time><name>PT3155</name></trkpt>
<trkpt lat="53.101431" lon="06.044134"><ele>-6.1</ele><time>2021-05-12T11:02:32Z</time><name>PT3156</name></trkpt>
<trkpt lat="53.101443" lon="06.044128"><ele>-6</ele><time>2021-05-12T11:02:34Z</time><name>PT3157</name></trkpt>
<trkpt lat="53.101454" lon="06.044120"><ele>-6</ele><time>2021-05-12T11:02:34Z</time><name>PT3158</name></trkpt>
<trkpt lat="53.101466" lon="06.044114"><ele>-6</ele><time>2021-05-12T11:02:35Z</time><name>PT3159</name></trkpt>
<trkpt lat="53.101478" lon="06.044105"><ele>-6</ele><time>2021-05-12T11:02:36Z</time><name>PT3160</name></trkpt>
<trkpt lat="53.101489" lon="06.044098"><ele>-6.1</ele><time>2021-05-12T11:02:37Z</time><name>PT3161</name></trkpt>
<trkpt lat="53.101501" lon="06.044091"><ele>-6</ele><time>2021-05-12T11:02:38Z</time><name>PT3162</name></trkpt>
<trkpt lat="53.101513" lon="06.044085"><ele>-6.2</ele><time>2021-05-12T11:02:39Z</time><name>PT3163</name></trkpt>
<trkpt lat="53.101525" lon="06.044080"><ele>-6.2</ele><time>2021-05-12T11:02:40Z</time><name>PT3164</name></trkpt>
<trkpt lat="53.101537" lon="06.044075"><ele>-6</ele><time>2021-05-12T11:02:41Z</time><name>PT3165</name></trkpt>
<trkpt lat="53.101549" lon="06.044072"><ele>-5.9</ele><time>2021-05-12T11:02:42Z</time><name>PT3166</name></trkpt>
<trkpt lat="53.101562" lon="06.044069"><ele>-6</ele><time>2021-05-12T11:02:43Z</time><name>PT3167</name></trkpt>
<trkpt lat="53.101575" lon="06.044067"><ele>-5.9</ele><time>2021-05-12T11:02:44Z</time><name>PT3168</name></trkpt>
<trkpt lat="53.101586" lon="06.044066"><ele>-5.8</ele><time>2021-05-12T11:02:45Z</time><name>PT3169</name></trkpt>
<trkpt lat="53.101595" lon="06.044063"><ele>-5.8</ele><time>2021-05-12T11:02:46Z</time><name>PT3170</name></trkpt>
<trkpt lat="53.101606" lon="06.044060"><ele>-5.8</ele><time>2021-05-12T11:02:47Z</time><name>PT3171</name></trkpt>
<trkpt lat="53.101614" lon="06.044055"><ele>-5.8</ele><time>2021-05-12T11:02:49Z</time><name>PT3172</name></trkpt>
<trkpt lat="53.101624" lon="06.044049"><ele>-5.8</ele><time>2021-05-12T11:02:49Z</time><name>PT3173</name></trkpt>
<trkpt lat="53.101633" lon="06.044041"><ele>-5.8</ele><time>2021-05-12T11:02:50Z</time><name>PT3174</name></trkpt>
<trkpt lat="53.101645" lon="06.044032"><ele>-5.8</ele><time>2021-05-12T11:02:52Z</time><name>PT3175</name></trkpt>
<trkpt lat="53.101658" lon="06.044020"><ele>-5.7</ele><time>2021-05-12T11:02:52Z</time><name>PT3176</name></trkpt>
<trkpt lat="53.101668" lon="06.044007"><ele>-5.9</ele><time>2021-05-12T11:02:53Z</time><name>PT3177</name></trkpt>
<trkpt lat="53.101678" lon="06.043993"><ele>-5.9</ele><time>2021-05-12T11:02:54Z</time><name>PT3178</name></trkpt>
<trkpt lat="53.101684" lon="06.043978"><ele>-6</ele><time>2021-05-12T11:02:55Z</time><name>PT3179</name></trkpt>
<trkpt lat="53.101690" lon="06.043961"><ele>-5.9</ele><time>2021-05-12T11:02:56Z</time><name>PT3180</name></trkpt>
<trkpt lat="53.101697" lon="06.043943"><ele>-5.7</ele><time>2021-05-12T11:02:57Z</time><name>PT3181</name></trkpt>
<trkpt lat="53.101703" lon="06.043924"><ele>-5.6</ele><time>2021-05-12T11:02:58Z</time><name>PT3182</name></trkpt>
<trkpt lat="53.101710" lon="06.043909"><ele>-5.6</ele><time>2021-05-12T11:02:59Z</time><name>PT3183</name></trkpt>
<trkpt lat="53.101714" lon="06.043900"><ele>-5.6</ele><time>2021-05-12T11:03:00Z</time><name>PT3184</name></trkpt>
<trkpt lat="53.101717" lon="06.043893"><ele>-5.6</ele><time>2021-05-12T11:03:01Z</time><name>PT3185</name></trkpt>
<trkpt lat="53.101720" lon="06.043889"><ele>-5.5</ele><time>2021-05-12T11:03:02Z</time><name>PT3186</name></trkpt>
<trkpt lat="53.101719" lon="06.043887"><ele>-5.4</ele><time>2021-05-12T11:03:03Z</time><name>PT3187</name></trkpt>
<trkpt lat="53.101718" lon="06.043884"><ele>-5.3</ele><time>2021-05-12T11:03:04Z</time><name>PT3188</name></trkpt>
<trkpt lat="53.101718" lon="06.043879"><ele>-5.4</ele><time>2021-05-12T11:03:06Z</time><name>PT3189</name></trkpt>
<trkpt lat="53.101724" lon="06.043865"><ele>-5.5</ele><time>2021-05-12T11:03:07Z</time><name>PT3190</name></trkpt>
<trkpt lat="53.101725" lon="06.043854"><ele>-5.4</ele><time>2021-05-12T11:03:08Z</time><name>PT3191</name></trkpt>
<trkpt lat="53.101726" lon="06.043843"><ele>-5.6</ele><time>2021-05-12T11:03:09Z</time><name>PT3192</name></trkpt>
<trkpt lat="53.101730" lon="06.043827"><ele>-5.6</ele><time>2021-05-12T11:03:10Z</time><name>PT3193</name></trkpt>
<trkpt lat="53.101735" lon="06.043817"><ele>-5.2</ele><time>2021-05-12T11:03:11Z</time><name>PT3194</name></trkpt>
<trkpt lat="53.101737" lon="06.043812"><ele>-5.2</ele><time>2021-05-12T11:03:13Z</time><name>PT3195</name></trkpt>
<trkpt lat="53.101739" lon="06.043809"><ele>-5.2</ele><time>2021-05-12T11:03:13Z</time><name>PT3196</name></trkpt>
<trkpt lat="53.101741" lon="06.043804"><ele>-5.1</ele><time>2021-05-12T11:03:14Z</time><name>PT3197</name></trkpt>
<trkpt lat="53.101740" lon="06.043793"><ele>-5.1</ele><time>2021-05-12T11:03:15Z</time><name>PT3198</name></trkpt>
<trkpt lat="53.101744" lon="06.043780"><ele>-5.2</ele><time>2021-05-12T11:03:16Z</time><name>PT3199</name></trkpt>
<trkpt lat="53.101747" lon="06.043774"><ele>-5.2</ele><time>2021-05-12T11:03:17Z</time><name>PT3200</name></trkpt>
<trkpt lat="53.101749" lon="06.043779"><ele>-5.5</ele><time>2021-05-12T11:03:18Z</time><name>PT3201</name></trkpt>
<trkpt lat="53.101750" lon="06.043770"><ele>-5.5</ele><time>2021-05-12T11:03:19Z</time><name>PT3202</name></trkpt>
<trkpt lat="53.101755" lon="06.043755"><ele>-5.5</ele><time>2021-05-12T11:03:20Z</time><name>PT3203</name></trkpt>
<trkpt lat="53.101762" lon="06.043739"><ele>-5.5</ele><time>2021-05-12T11:03:21Z</time><name>PT3204</name></trkpt>
<trkpt lat="53.101767" lon="06.043722"><ele>-5.5</ele><time>2021-05-12T11:03:22Z</time><name>PT3205</name></trkpt>
<trkpt lat="53.101771" lon="06.043705"><ele>-5.4</ele><time>2021-05-12T11:03:23Z</time><name>PT3206</name></trkpt>
<trkpt lat="53.101774" lon="06.043685"><ele>-5.3</ele><time>2021-05-12T11:03:24Z</time><name>PT3207</name></trkpt>
<trkpt lat="53.101778" lon="06.043668"><ele>-5.3</ele><time>2021-05-12T11:03:25Z</time><name>PT3208</name></trkpt>
<trkpt lat="53.101784" lon="06.043648"><ele>-5.2</ele><time>2021-05-12T11:03:26Z</time><name>PT3209</name></trkpt>
<trkpt lat="53.101790" lon="06.043629"><ele>-5.4</ele><time>2021-05-12T11:03:27Z</time><name>PT3210</name></trkpt>
<trkpt lat="53.101795" lon="06.043610"><ele>-5.5</ele><time>2021-05-12T11:03:28Z</time><name>PT3211</name></trkpt>
<trkpt lat="53.101801" lon="06.043591"><ele>-5.8</ele><time>2021-05-12T11:03:29Z</time><name>PT3212</name></trkpt>
<trkpt lat="53.101806" lon="06.043571"><ele>-5.9</ele><time>2021-05-12T11:03:30Z</time><name>PT3213</name></trkpt>
<trkpt lat="53.101810" lon="06.043553"><ele>-6</ele><time>2021-05-12T11:03:31Z</time><name>PT3214</name></trkpt>
<trkpt lat="53.101815" lon="06.043536"><ele>-5.9</ele><time>2021-05-12T11:03:32Z</time><name>PT3215</name></trkpt>
<trkpt lat="53.101819" lon="06.043527"><ele>-5.9</ele><time>2021-05-12T11:03:33Z</time><name>PT3216</name></trkpt>
<trkpt lat="53.101820" lon="06.043522"><ele>-5.9</ele><time>2021-05-12T11:03:34Z</time><name>PT3217</name></trkpt>
<trkpt lat="53.101822" lon="06.043514"><ele>-5.6</ele><time>2021-05-12T11:03:35Z</time><name>PT3218</name></trkpt>
<trkpt lat="53.101824" lon="06.043499"><ele>-5.6</ele><time>2021-05-12T11:03:36Z</time><name>PT3219</name></trkpt>
<trkpt lat="53.101825" lon="06.043483"><ele>-5.6</ele><time>2021-05-12T11:03:37Z</time><name>PT3220</name></trkpt>
<trkpt lat="53.101829" lon="06.043467"><ele>-5.5</ele><time>2021-05-12T11:03:38Z</time><name>PT3221</name></trkpt>
<trkpt lat="53.101832" lon="06.043452"><ele>-5.6</ele><time>2021-05-12T11:03:39Z</time><name>PT3222</name></trkpt>
<trkpt lat="53.101836" lon="06.043434"><ele>-5.6</ele><time>2021-05-12T11:03:40Z</time><name>PT3223</name></trkpt>
<trkpt lat="53.101840" lon="06.043416"><ele>-5.5</ele><time>2021-05-12T11:03:41Z</time><name>PT3224</name></trkpt>
<trkpt lat="53.101843" lon="06.043398"><ele>-5.5</ele><time>2021-05-12T11:03:42Z</time><name>PT3225</name></trkpt>
<trkpt lat="53.101845" lon="06.043382"><ele>-5.6</ele><time>2021-05-12T11:03:43Z</time><name>PT3226</name></trkpt>
<trkpt lat="53.101848" lon="06.043366"><ele>-5.5</ele><time>2021-05-12T11:03:44Z</time><name>PT3227</name></trkpt>
<trkpt lat="53.101850" lon="06.043349"><ele>-5.3</ele><time>2021-05-12T11:03:45Z</time><name>PT3228</name></trkpt>
<trkpt lat="53.101853" lon="06.043335"><ele>-5.4</ele><time>2021-05-12T11:03:46Z</time><name>PT3229</name></trkpt>
<trkpt lat="53.101860" lon="06.043319"><ele>-5.6</ele><time>2021-05-12T11:03:47Z</time><name>PT3230</name></trkpt>
<trkpt lat="53.101866" lon="06.043305"><ele>-5.4</ele><time>2021-05-12T11:03:48Z</time><name>PT3231</name></trkpt>
<trkpt lat="53.101872" lon="06.043288"><ele>-5.6</ele><time>2021-05-12T11:03:49Z</time><name>PT3232</name></trkpt>
<trkpt lat="53.101875" lon="06.043273"><ele>-5.7</ele><time>2021-05-12T11:03:50Z</time><name>PT3233</name></trkpt>
<trkpt lat="53.101880" lon="06.043259"><ele>-5.6</ele><time>2021-05-12T11:03:51Z</time><name>PT3234</name></trkpt>
<trkpt lat="53.101884" lon="06.043244"><ele>-5.6</ele><time>2021-05-12T11:03:52Z</time><name>PT3235</name></trkpt>
<trkpt lat="53.101889" lon="06.043235"><ele>-5.9</ele><time>2021-05-12T11:03:53Z</time><name>PT3236</name></trkpt>
<trkpt lat="53.101893" lon="06.043227"><ele>-5.8</ele><time>2021-05-12T11:03:54Z</time><name>PT3237</name></trkpt>
<trkpt lat="53.101897" lon="06.043220"><ele>-5.9</ele><time>2021-05-12T11:03:55Z</time><name>PT3238</name></trkpt>
<trkpt lat="53.101902" lon="06.043211"><ele>-5.9</ele><time>2021-05-12T11:03:56Z</time><name>PT3239</name></trkpt>
<trkpt lat="53.101908" lon="06.043204"><ele>-5.9</ele><time>2021-05-12T11:03:57Z</time><name>PT3240</name></trkpt>
<trkpt lat="53.101911" lon="06.043193"><ele>-5.6</ele><time>2021-05-12T11:03:58Z</time><name>PT3241</name></trkpt>
<trkpt lat="53.101916" lon="06.043181"><ele>-5.7</ele><time>2021-05-12T11:03:59Z</time><name>PT3242</name></trkpt>
<trkpt lat="53.101918" lon="06.043168"><ele>-5.9</ele><time>2021-05-12T11:04:00Z</time><name>PT3243</name></trkpt>
<trkpt lat="53.101922" lon="06.043157"><ele>-5.9</ele><time>2021-05-12T11:04:01Z</time><name>PT3244</name></trkpt>
<trkpt lat="53.101930" lon="06.043149"><ele>-5.6</ele><time>2021-05-12T11:04:02Z</time><name>PT3245</name></trkpt>
<trkpt lat="53.101932" lon="06.043141"><ele>-5.4</ele><time>2021-05-12T11:04:04Z</time><name>PT3246</name></trkpt>
<trkpt lat="53.101936" lon="06.043132"><ele>-5.2</ele><time>2021-05-12T11:04:04Z</time><name>PT3247</name></trkpt>
<trkpt lat="53.101941" lon="06.043123"><ele>-5.1</ele><time>2021-05-12T11:04:05Z</time><name>PT3248</name></trkpt>
<trkpt lat="53.101947" lon="06.043108"><ele>-5.3</ele><time>2021-05-12T11:04:06Z</time><name>PT3249</name></trkpt>
<trkpt lat="53.101950" lon="06.043091"><ele>-5.3</ele><time>2021-05-12T11:04:07Z</time><name>PT3250</name></trkpt>
<trkpt lat="53.101953" lon="06.043071"><ele>-5.5</ele><time>2021-05-12T11:04:08Z</time><name>PT3251</name></trkpt>
<trkpt lat="53.101960" lon="06.043056"><ele>-5.6</ele><time>2021-05-12T11:04:09Z</time><name>PT3252</name></trkpt>
<trkpt lat="53.101963" lon="06.043042"><ele>-5.6</ele><time>2021-05-12T11:04:10Z</time><name>PT3253</name></trkpt>
<trkpt lat="53.101968" lon="06.043030"><ele>-5.6</ele><time>2021-05-12T11:04:11Z</time><name>PT3254</name></trkpt>
<trkpt lat="53.101972" lon="06.043011"><ele>-5.8</ele><time>2021-05-12T11:04:12Z</time><name>PT3255</name></trkpt>
<trkpt lat="53.101974" lon="06.042997"><ele>-5.8</ele><time>2021-05-12T11:04:13Z</time><name>PT3256</name></trkpt>
<trkpt lat="53.101974" lon="06.042980"><ele>-6</ele><time>2021-05-12T11:04:14Z</time><name>PT3257</name></trkpt>
<trkpt lat="53.101975" lon="06.042965"><ele>-6.1</ele><time>2021-05-12T11:04:15Z</time><name>PT3258</name></trkpt>
<trkpt lat="53.101975" lon="06.042947"><ele>-6</ele><time>2021-05-12T11:04:16Z</time><name>PT3259</name></trkpt>
<trkpt lat="53.101980" lon="06.042934"><ele>-6</ele><time>2021-05-12T11:04:17Z</time><name>PT3260</name></trkpt>
<trkpt lat="53.101983" lon="06.042922"><ele>-5.9</ele><time>2021-05-12T11:04:18Z</time><name>PT3261</name></trkpt>
<trkpt lat="53.101989" lon="06.042902"><ele>-5.8</ele><time>2021-05-12T11:04:19Z</time><name>PT3262</name></trkpt>
<trkpt lat="53.101987" lon="06.042884"><ele>-5.6</ele><time>2021-05-12T11:04:20Z</time><name>PT3263</name></trkpt>
<trkpt lat="53.101985" lon="06.042870"><ele>-5.5</ele><time>2021-05-12T11:04:21Z</time><name>PT3264</name></trkpt>
<trkpt lat="53.101982" lon="06.042856"><ele>-5.4</ele><time>2021-05-12T11:04:22Z</time><name>PT3265</name></trkpt>
<trkpt lat="53.101980" lon="06.042837"><ele>-5.2</ele><time>2021-05-12T11:04:23Z</time><name>PT3266</name></trkpt>
<trkpt lat="53.101977" lon="06.042819"><ele>-5.2</ele><time>2021-05-12T11:04:24Z</time><name>PT3267</name></trkpt>
<trkpt lat="53.101973" lon="06.042797"><ele>-5.1</ele><time>2021-05-12T11:04:25Z</time><name>PT3268</name></trkpt>
<trkpt lat="53.101965" lon="06.042779"><ele>-5.1</ele><time>2021-05-12T11:04:26Z</time><name>PT3269</name></trkpt>
<trkpt lat="53.101959" lon="06.042765"><ele>-5.1</ele><time>2021-05-12T11:04:27Z</time><name>PT3270</name></trkpt>
<trkpt lat="53.101954" lon="06.042749"><ele>-5.1</ele><time>2021-05-12T11:04:28Z</time><name>PT3271</name></trkpt>
<trkpt lat="53.101950" lon="06.042735"><ele>-5.1</ele><time>2021-05-12T11:04:29Z</time><name>PT3272</name></trkpt>
<trkpt lat="53.101948" lon="06.042724"><ele>-5.1</ele><time>2021-05-12T11:04:30Z</time><name>PT3273</name></trkpt>
<trkpt lat="53.101947" lon="06.042722"><ele>-5.1</ele><time>2021-05-12T11:04:31Z</time><name>PT3274</name></trkpt>
<trkpt lat="53.101948" lon="06.042721"><ele>-5.2</ele><time>2021-05-12T11:04:32Z</time><name>PT3275</name></trkpt>
<trkpt lat="53.101943" lon="06.042714"><ele>-5.4</ele><time>2021-05-12T11:04:33Z</time><name>PT3276</name></trkpt>
<trkpt lat="53.101935" lon="06.042701"><ele>-5.5</ele><time>2021-05-12T11:04:34Z</time><name>PT3277</name></trkpt>
<trkpt lat="53.101927" lon="06.042685"><ele>-5.6</ele><time>2021-05-12T11:04:35Z</time><name>PT3278</name></trkpt>
<trkpt lat="53.101919" lon="06.042671"><ele>-5.6</ele><time>2021-05-12T11:04:36Z</time><name>PT3279</name></trkpt>
<trkpt lat="53.101911" lon="06.042658"><ele>-5.6</ele><time>2021-05-12T11:04:37Z</time><name>PT3280</name></trkpt>
<trkpt lat="53.101905" lon="06.042649"><ele>-5.5</ele><time>2021-05-12T11:04:38Z</time><name>PT3281</name></trkpt>
<trkpt lat="53.101899" lon="06.042639"><ele>-5.4</ele><time>2021-05-12T11:04:39Z</time><name>PT3282</name></trkpt>
<trkpt lat="53.101892" lon="06.042630"><ele>-5.4</ele><time>2021-05-12T11:04:40Z</time><name>PT3283</name></trkpt>
<trkpt lat="53.101885" lon="06.042620"><ele>-5.3</ele><time>2021-05-12T11:04:41Z</time><name>PT3284</name></trkpt>
<trkpt lat="53.101880" lon="06.042612"><ele>-5.4</ele><time>2021-05-12T11:04:42Z</time><name>PT3285</name></trkpt>
<trkpt lat="53.101877" lon="06.042604"><ele>-5.4</ele><time>2021-05-12T11:04:43Z</time><name>PT3286</name></trkpt>
<trkpt lat="53.101875" lon="06.042603"><ele>-5.6</ele><time>2021-05-12T11:04:44Z</time><name>PT3287</name></trkpt>
<trkpt lat="53.101874" lon="06.042603"><ele>-5.6</ele><time>2021-05-12T11:04:45Z</time><name>PT3288</name></trkpt>
<trkpt lat="53.101873" lon="06.042602"><ele>-5.6</ele><time>2021-05-12T11:04:46Z</time><name>PT3289</name></trkpt>
<trkpt lat="53.101875" lon="06.042593"><ele>-6.2</ele><time>2021-05-12T11:06:01Z</time><name>PT3290</name></trkpt>
<trkpt lat="53.101866" lon="06.042585"><ele>-6.1</ele><time>2021-05-12T11:06:02Z</time><name>PT3291</name></trkpt>
<trkpt lat="53.101858" lon="06.042577"><ele>-6.2</ele><time>2021-05-12T11:06:03Z</time><name>PT3292</name></trkpt>
<trkpt lat="53.101854" lon="06.042564"><ele>-6</ele><time>2021-05-12T11:06:04Z</time><name>PT3293</name></trkpt>
<trkpt lat="53.101849" lon="06.042561"><ele>-5.7</ele><time>2021-05-12T11:06:05Z</time><name>PT3294</name></trkpt>
<trkpt lat="53.101847" lon="06.042560"><ele>-5.8</ele><time>2021-05-12T11:06:06Z</time><name>PT3295</name></trkpt>
<trkpt lat="53.101839" lon="06.042565"><ele>-6</ele><time>2021-05-12T11:06:07Z</time><name>PT3296</name></trkpt>
<trkpt lat="53.101836" lon="06.042551"><ele>-6.5</ele><time>2021-05-12T11:06:50Z</time><name>PT3297</name></trkpt>
<trkpt lat="53.101828" lon="06.042544"><ele>-6.5</ele><time>2021-05-12T11:06:52Z</time><name>PT3298</name></trkpt>
<trkpt lat="53.101818" lon="06.042533"><ele>-6.5</ele><time>2021-05-12T11:06:52Z</time><name>PT3299</name></trkpt>
<trkpt lat="53.101807" lon="06.042521"><ele>-6.4</ele><time>2021-05-12T11:06:53Z</time><name>PT3300</name></trkpt>
<trkpt lat="53.101796" lon="06.042511"><ele>-6.5</ele><time>2021-05-12T11:06:54Z</time><name>PT3301</name></trkpt>
<trkpt lat="53.101785" lon="06.042501"><ele>-6.5</ele><time>2021-05-12T11:06:55Z</time><name>PT3302</name></trkpt>
<trkpt lat="53.101774" lon="06.042493"><ele>-6.4</ele><time>2021-05-12T11:06:56Z</time><name>PT3303</name></trkpt>
<trkpt lat="53.101762" lon="06.042486"><ele>-6.3</ele><time>2021-05-12T11:06:57Z</time><name>PT3304</name></trkpt>
<trkpt lat="53.101749" lon="06.042482"><ele>-6.3</ele><time>2021-05-12T11:06:58Z</time><name>PT3305</name></trkpt>
<trkpt lat="53.101736" lon="06.042477"><ele>-6.3</ele><time>2021-05-12T11:06:59Z</time><name>PT3306</name></trkpt>
<trkpt lat="53.101723" lon="06.042476"><ele>-6.2</ele><time>2021-05-12T11:07:00Z</time><name>PT3307</name></trkpt>
<trkpt lat="53.101712" lon="06.042476"><ele>-6.2</ele><time>2021-05-12T11:07:01Z</time><name>PT3308</name></trkpt>
<trkpt lat="53.101701" lon="06.042475"><ele>-6.2</ele><time>2021-05-12T11:07:02Z</time><name>PT3309</name></trkpt>
<trkpt lat="53.101692" lon="06.042476"><ele>-6</ele><time>2021-05-12T11:07:03Z</time><name>PT3310</name></trkpt>
<trkpt lat="53.101679" lon="06.042479"><ele>-5.8</ele><time>2021-05-12T11:07:04Z</time><name>PT3311</name></trkpt>
<trkpt lat="53.101665" lon="06.042481"><ele>-5.8</ele><time>2021-05-12T11:07:05Z</time><name>PT3312</name></trkpt>
<trkpt lat="53.101651" lon="06.042485"><ele>-5.6</ele><time>2021-05-12T11:07:06Z</time><name>PT3313</name></trkpt>
<trkpt lat="53.101638" lon="06.042491"><ele>-5.5</ele><time>2021-05-12T11:07:07Z</time><name>PT3314</name></trkpt>
<trkpt lat="53.101626" lon="06.042494"><ele>-5.6</ele><time>2021-05-12T11:07:08Z</time><name>PT3315</name></trkpt>
<trkpt lat="53.101614" lon="06.042496"><ele>-5.6</ele><time>2021-05-12T11:07:09Z</time><name>PT3316</name></trkpt>
<trkpt lat="53.101602" lon="06.042500"><ele>-5.7</ele><time>2021-05-12T11:07:10Z</time><name>PT3317</name></trkpt>
<trkpt lat="53.101593" lon="06.042502"><ele>-5.9</ele><time>2021-05-12T11:07:11Z</time><name>PT3318</name></trkpt>
<trkpt lat="53.101584" lon="06.042504"><ele>-6</ele><time>2021-05-12T11:07:12Z</time><name>PT3319</name></trkpt>
<trkpt lat="53.101577" lon="06.042503"><ele>-6</ele><time>2021-05-12T11:07:13Z</time><name>PT3320</name></trkpt>
<trkpt lat="53.101570" lon="06.042504"><ele>-6</ele><time>2021-05-12T11:07:14Z</time><name>PT3321</name></trkpt>
<trkpt lat="53.101565" lon="06.042504"><ele>-6.1</ele><time>2021-05-12T11:07:15Z</time><name>PT3322</name></trkpt>
<trkpt lat="53.101562" lon="06.042507"><ele>-6</ele><time>2021-05-12T11:07:16Z</time><name>PT3323</name></trkpt>
<trkpt lat="53.101556" lon="06.042511"><ele>-6</ele><time>2021-05-12T11:07:17Z</time><name>PT3324</name></trkpt>
<trkpt lat="53.101552" lon="06.042516"><ele>-5.9</ele><time>2021-05-12T11:07:18Z</time><name>PT3325</name></trkpt>
<trkpt lat="53.101549" lon="06.042521"><ele>-6</ele><time>2021-05-12T11:07:21Z</time><name>PT3326</name></trkpt>
<trkpt lat="53.101547" lon="06.042520"><ele>-6.1</ele><time>2021-05-12T11:07:22Z</time><name>PT3327</name></trkpt>
<trkpt lat="53.101546" lon="06.042520"><ele>-6.4</ele><time>2021-05-12T11:07:23Z</time><name>PT3328</name></trkpt>
<trkpt lat="53.101546" lon="06.042521"><ele>-6.5</ele><time>2021-05-12T11:07:24Z</time><name>PT3329</name></trkpt>
<trkpt lat="53.101547" lon="06.042521"><ele>-6.1</ele><time>2021-05-12T11:07:31Z</time><name>PT3330</name></trkpt>
<trkpt lat="53.101540" lon="06.042524"><ele>-6.3</ele><time>2021-05-12T11:07:32Z</time><name>PT3331</name></trkpt>
<trkpt lat="53.101531" lon="06.042519"><ele>-6.3</ele><time>2021-05-12T11:07:34Z</time><name>PT3332</name></trkpt>
<trkpt lat="53.101521" lon="06.042518"><ele>-6.3</ele><time>2021-05-12T11:07:34Z</time><name>PT3333</name></trkpt>
<trkpt lat="53.101513" lon="06.042515"><ele>-6.2</ele><time>2021-05-12T11:07:35Z</time><name>PT3334</name></trkpt>
<trkpt lat="53.101501" lon="06.042502"><ele>-6.1</ele><time>2021-05-12T11:07:36Z</time><name>PT3335</name></trkpt>
<trkpt lat="53.101493" lon="06.042495"><ele>-6</ele><time>2021-05-12T11:07:37Z</time><name>PT3336</name></trkpt>
<trkpt lat="53.101484" lon="06.042491"><ele>-6.1</ele><time>2021-05-12T11:07:38Z</time><name>PT3337</name></trkpt>
<trkpt lat="53.101476" lon="06.042490"><ele>-6.1</ele><time>2021-05-12T11:07:39Z</time><name>PT3338</name></trkpt>
<trkpt lat="53.101468" lon="06.042487"><ele>-6.1</ele><time>2021-05-12T11:07:40Z</time><name>PT3339</name></trkpt>
<trkpt lat="53.101460" lon="06.042483"><ele>-6.2</ele><time>2021-05-12T11:07:41Z</time><name>PT3340</name></trkpt>
<trkpt lat="53.101451" lon="06.042479"><ele>-6.3</ele><time>2021-05-12T11:07:42Z</time><name>PT3341</name></trkpt>
<trkpt lat="53.101444" lon="06.042475"><ele>-6.3</ele><time>2021-05-12T11:07:43Z</time><name>PT3342</name></trkpt>
<trkpt lat="53.101437" lon="06.042471"><ele>-6.3</ele><time>2021-05-12T11:07:44Z</time><name>PT3343</name></trkpt>
<trkpt lat="53.101432" lon="06.042466"><ele>-6.3</ele><time>2021-05-12T11:07:45Z</time><name>PT3344</name></trkpt>
<trkpt lat="53.101424" lon="06.042462"><ele>-6.3</ele><time>2021-05-12T11:07:46Z</time><name>PT3345</name></trkpt>
<trkpt lat="53.101420" lon="06.042458"><ele>-6.3</ele><time>2021-05-12T11:07:47Z</time><name>PT3346</name></trkpt>
<trkpt lat="53.101421" lon="06.042456"><ele>-6.5</ele><time>2021-05-12T11:07:48Z</time><name>PT3347</name></trkpt>
<trkpt lat="53.101422" lon="06.042455"><ele>-6.5</ele><time>2021-05-12T11:07:49Z</time><name>PT3348</name></trkpt>
<trkpt lat="53.101421" lon="06.042455"><ele>-6.6</ele><time>2021-05-12T11:07:50Z</time><name>PT3349</name></trkpt>
<trkpt lat="53.101417" lon="06.042452"><ele>-6.8</ele><time>2021-05-12T11:08:25Z</time><name>PT3350</name></trkpt>
<trkpt lat="53.101404" lon="06.042440"><ele>-6.7</ele><time>2021-05-12T11:08:26Z</time><name>PT3351</name></trkpt>
<trkpt lat="53.101393" lon="06.042428"><ele>-6.5</ele><time>2021-05-12T11:08:27Z</time><name>PT3352</name></trkpt>
<trkpt lat="53.101382" lon="06.042418"><ele>-6.4</ele><time>2021-05-12T11:08:28Z</time><name>PT3353</name></trkpt>
<trkpt lat="53.101372" lon="06.042407"><ele>-6.1</ele><time>2021-05-12T11:08:29Z</time><name>PT3354</name></trkpt>
<trkpt lat="53.101362" lon="06.042400"><ele>-6</ele><time>2021-05-12T11:08:31Z</time><name>PT3355</name></trkpt>
<trkpt lat="53.101354" lon="06.042390"><ele>-5.9</ele><time>2021-05-12T11:08:31Z</time><name>PT3356</name></trkpt>
<trkpt lat="53.101343" lon="06.042380"><ele>-6</ele><time>2021-05-12T11:08:32Z</time><name>PT3357</name></trkpt>
<trkpt lat="53.101335" lon="06.042368"><ele>-6</ele><time>2021-05-12T11:08:33Z</time><name>PT3358</name></trkpt>
<trkpt lat="53.101327" lon="06.042356"><ele>-6.1</ele><time>2021-05-12T11:08:34Z</time><name>PT3359</name></trkpt>
<trkpt lat="53.101318" lon="06.042348"><ele>-6.2</ele><time>2021-05-12T11:08:35Z</time><name>PT3360</name></trkpt>
<trkpt lat="53.101308" lon="06.042343"><ele>-6.4</ele><time>2021-05-12T11:08:36Z</time><name>PT3361</name></trkpt>
<trkpt lat="53.101298" lon="06.042336"><ele>-6.3</ele><time>2021-05-12T11:08:37Z</time><name>PT3362</name></trkpt>
<trkpt lat="53.101288" lon="06.042330"><ele>-6.5</ele><time>2021-05-12T11:08:38Z</time><name>PT3363</name></trkpt>
<trkpt lat="53.101281" lon="06.042323"><ele>-6.5</ele><time>2021-05-12T11:08:39Z</time><name>PT3364</name></trkpt>
<trkpt lat="53.101273" lon="06.042315"><ele>-6.5</ele><time>2021-05-12T11:08:40Z</time><name>PT3365</name></trkpt>
<trkpt lat="53.101263" lon="06.042310"><ele>-6.5</ele><time>2021-05-12T11:08:41Z</time><name>PT3366</name></trkpt>
<trkpt lat="53.101257" lon="06.042306"><ele>-6.4</ele><time>2021-05-12T11:08:42Z</time><name>PT3367</name></trkpt>
<trkpt lat="53.101247" lon="06.042302"><ele>-6.5</ele><time>2021-05-12T11:08:43Z</time><name>PT3368</name></trkpt>
<trkpt lat="53.101236" lon="06.042298"><ele>-6.4</ele><time>2021-05-12T11:08:44Z</time><name>PT3369</name></trkpt>
<trkpt lat="53.101225" lon="06.042294"><ele>-6.5</ele><time>2021-05-12T11:08:45Z</time><name>PT3370</name></trkpt>
<trkpt lat="53.101216" lon="06.042295"><ele>-6.6</ele><time>2021-05-12T11:08:46Z</time><name>PT3371</name></trkpt>
<trkpt lat="53.101203" lon="06.042293"><ele>-6.5</ele><time>2021-05-12T11:08:47Z</time><name>PT3372</name></trkpt>
<trkpt lat="53.101194" lon="06.042289"><ele>-6.5</ele><time>2021-05-12T11:08:48Z</time><name>PT3373</name></trkpt>
<trkpt lat="53.101185" lon="06.042287"><ele>-6.5</ele><time>2021-05-12T11:08:49Z</time><name>PT3374</name></trkpt>
<trkpt lat="53.101178" lon="06.042285"><ele>-6.4</ele><time>2021-05-12T11:08:50Z</time><name>PT3375</name></trkpt>
<trkpt lat="53.101174" lon="06.042282"><ele>-6.6</ele><time>2021-05-12T11:08:51Z</time><name>PT3376</name></trkpt>
<trkpt lat="53.101163" lon="06.042284"><ele>-6.5</ele><time>2021-05-12T11:08:52Z</time><name>PT3377</name></trkpt>
<trkpt lat="53.101153" lon="06.042286"><ele>-6.5</ele><time>2021-05-12T11:08:53Z</time><name>PT3378</name></trkpt>
<trkpt lat="53.101143" lon="06.042286"><ele>-6.5</ele><time>2021-05-12T11:08:54Z</time><name>PT3379</name></trkpt>
<trkpt lat="53.101132" lon="06.042291"><ele>-6.4</ele><time>2021-05-12T11:08:55Z</time><name>PT3380</name></trkpt>
<trkpt lat="53.101123" lon="06.042291"><ele>-6.2</ele><time>2021-05-12T11:08:56Z</time><name>PT3381</name></trkpt>
<trkpt lat="53.101112" lon="06.042293"><ele>-6.5</ele><time>2021-05-12T11:08:57Z</time><name>PT3382</name></trkpt>
<trkpt lat="53.101104" lon="06.042292"><ele>-6.5</ele><time>2021-05-12T11:08:58Z</time><name>PT3383</name></trkpt>
<trkpt lat="53.101092" lon="06.042296"><ele>-6.4</ele><time>2021-05-12T11:08:59Z</time><name>PT3384</name></trkpt>
<trkpt lat="53.101085" lon="06.042298"><ele>-6.5</ele><time>2021-05-12T11:09:00Z</time><name>PT3385</name></trkpt>
<trkpt lat="53.101076" lon="06.042300"><ele>-6.5</ele><time>2021-05-12T11:09:01Z</time><name>PT3386</name></trkpt>
<trkpt lat="53.101064" lon="06.042307"><ele>-6.5</ele><time>2021-05-12T11:09:02Z</time><name>PT3387</name></trkpt>
<trkpt lat="53.101055" lon="06.042311"><ele>-6.6</ele><time>2021-05-12T11:09:03Z</time><name>PT3388</name></trkpt>
<trkpt lat="53.101044" lon="06.042317"><ele>-6.6</ele><time>2021-05-12T11:09:04Z</time><name>PT3389</name></trkpt>
<trkpt lat="53.101031" lon="06.042325"><ele>-6.7</ele><time>2021-05-12T11:09:05Z</time><name>PT3390</name></trkpt>
<trkpt lat="53.101016" lon="06.042335"><ele>-6.8</ele><time>2021-05-12T11:09:06Z</time><name>PT3391</name></trkpt>
<trkpt lat="53.101003" lon="06.042345"><ele>-6.8</ele><time>2021-05-12T11:09:07Z</time><name>PT3392</name></trkpt>
<trkpt lat="53.100992" lon="06.042351"><ele>-6.8</ele><time>2021-05-12T11:09:08Z</time><name>PT3393</name></trkpt>
<trkpt lat="53.100979" lon="06.042360"><ele>-6.8</ele><time>2021-05-12T11:09:09Z</time><name>PT3394</name></trkpt>
<trkpt lat="53.100966" lon="06.042367"><ele>-6.8</ele><time>2021-05-12T11:09:10Z</time><name>PT3395</name></trkpt>
<trkpt lat="53.100950" lon="06.042377"><ele>-6.6</ele><time>2021-05-12T11:09:11Z</time><name>PT3396</name></trkpt>
<trkpt lat="53.100939" lon="06.042385"><ele>-6.6</ele><time>2021-05-12T11:09:12Z</time><name>PT3397</name></trkpt>
<trkpt lat="53.100927" lon="06.042396"><ele>-6.5</ele><time>2021-05-12T11:09:13Z</time><name>PT3398</name></trkpt>
<trkpt lat="53.100914" lon="06.042408"><ele>-6.5</ele><time>2021-05-12T11:09:14Z</time><name>PT3399</name></trkpt>
<trkpt lat="53.100902" lon="06.042421"><ele>-6.5</ele><time>2021-05-12T11:09:15Z</time><name>PT3400</name></trkpt>
<trkpt lat="53.100892" lon="06.042429"><ele>-6.5</ele><time>2021-05-12T11:09:16Z</time><name>PT3401</name></trkpt>
<trkpt lat="53.100886" lon="06.042439"><ele>-6.5</ele><time>2021-05-12T11:09:17Z</time><name>PT3402</name></trkpt>
<trkpt lat="53.100881" lon="06.042448"><ele>-6.4</ele><time>2021-05-12T11:09:18Z</time><name>PT3403</name></trkpt>
<trkpt lat="53.100874" lon="06.042456"><ele>-6.4</ele><time>2021-05-12T11:09:19Z</time><name>PT3404</name></trkpt>
<trkpt lat="53.100866" lon="06.042464"><ele>-6.3</ele><time>2021-05-12T11:09:20Z</time><name>PT3405</name></trkpt>
<trkpt lat="53.100861" lon="06.042466"><ele>-6.2</ele><time>2021-05-12T11:09:21Z</time><name>PT3406</name></trkpt>
<trkpt lat="53.100857" lon="06.042468"><ele>-6</ele><time>2021-05-12T11:09:22Z</time><name>PT3407</name></trkpt>
<trkpt lat="53.100851" lon="06.042474"><ele>-5.9</ele><time>2021-05-12T11:09:23Z</time><name>PT3408</name></trkpt>
<trkpt lat="53.100843" lon="06.042487"><ele>-6</ele><time>2021-05-12T11:09:24Z</time><name>PT3409</name></trkpt>
<trkpt lat="53.100834" lon="06.042501"><ele>-6</ele><time>2021-05-12T11:09:25Z</time><name>PT3410</name></trkpt>
<trkpt lat="53.100823" lon="06.042516"><ele>-6.3</ele><time>2021-05-12T11:09:26Z</time><name>PT3411</name></trkpt>
<trkpt lat="53.100814" lon="06.042532"><ele>-6.4</ele><time>2021-05-12T11:09:27Z</time><name>PT3412</name></trkpt>
<trkpt lat="53.100805" lon="06.042546"><ele>-6.5</ele><time>2021-05-12T11:09:28Z</time><name>PT3413</name></trkpt>
<trkpt lat="53.100798" lon="06.042561"><ele>-6.6</ele><time>2021-05-12T11:09:29Z</time><name>PT3414</name></trkpt>
<trkpt lat="53.100791" lon="06.042574"><ele>-6.6</ele><time>2021-05-12T11:09:30Z</time><name>PT3415</name></trkpt>
<trkpt lat="53.100783" lon="06.042588"><ele>-6.5</ele><time>2021-05-12T11:09:31Z</time><name>PT3416</name></trkpt>
<trkpt lat="53.100774" lon="06.042601"><ele>-6.5</ele><time>2021-05-12T11:09:32Z</time><name>PT3417</name></trkpt>
<trkpt lat="53.100766" lon="06.042615"><ele>-6.4</ele><time>2021-05-12T11:09:33Z</time><name>PT3418</name></trkpt>
<trkpt lat="53.100759" lon="06.042627"><ele>-6.2</ele><time>2021-05-12T11:09:34Z</time><name>PT3419</name></trkpt>
<trkpt lat="53.100752" lon="06.042641"><ele>-6.1</ele><time>2021-05-12T11:09:35Z</time><name>PT3420</name></trkpt>
<trkpt lat="53.100745" lon="06.042656"><ele>-6.3</ele><time>2021-05-12T11:09:36Z</time><name>PT3421</name></trkpt>
<trkpt lat="53.100736" lon="06.042669"><ele>-6.3</ele><time>2021-05-12T11:09:37Z</time><name>PT3422</name></trkpt>
<trkpt lat="53.100728" lon="06.042683"><ele>-6.5</ele><time>2021-05-12T11:09:38Z</time><name>PT3423</name></trkpt>
<trkpt lat="53.100720" lon="06.042694"><ele>-6.3</ele><time>2021-05-12T11:09:39Z</time><name>PT3424</name></trkpt>
<trkpt lat="53.100711" lon="06.042708"><ele>-6.3</ele><time>2021-05-12T11:09:40Z</time><name>PT3425</name></trkpt>
<trkpt lat="53.100702" lon="06.042723"><ele>-6.1</ele><time>2021-05-12T11:09:41Z</time><name>PT3426</name></trkpt>
<trkpt lat="53.100697" lon="06.042738"><ele>-6.1</ele><time>2021-05-12T11:09:42Z</time><name>PT3427</name></trkpt>
<trkpt lat="53.100691" lon="06.042756"><ele>-6</ele><time>2021-05-12T11:09:43Z</time><name>PT3428</name></trkpt>
<trkpt lat="53.100683" lon="06.042773"><ele>-6.1</ele><time>2021-05-12T11:09:44Z</time><name>PT3429</name></trkpt>
<trkpt lat="53.100677" lon="06.042787"><ele>-6.2</ele><time>2021-05-12T11:09:45Z</time><name>PT3430</name></trkpt>
<trkpt lat="53.100670" lon="06.042799"><ele>-6.2</ele><time>2021-05-12T11:09:46Z</time><name>PT3431</name></trkpt>
<trkpt lat="53.100663" lon="06.042812"><ele>-6.3</ele><time>2021-05-12T11:09:47Z</time><name>PT3432</name></trkpt>
<trkpt lat="53.100655" lon="06.042826"><ele>-6.4</ele><time>2021-05-12T11:09:48Z</time><name>PT3433</name></trkpt>
<trkpt lat="53.100648" lon="06.042841"><ele>-6.4</ele><time>2021-05-12T11:09:49Z</time><name>PT3434</name></trkpt>
<trkpt lat="53.100641" lon="06.042856"><ele>-6.5</ele><time>2021-05-12T11:09:50Z</time><name>PT3435</name></trkpt>
<trkpt lat="53.100633" lon="06.042874"><ele>-6.5</ele><time>2021-05-12T11:09:51Z</time><name>PT3436</name></trkpt>
<trkpt lat="53.100626" lon="06.042890"><ele>-6.5</ele><time>2021-05-12T11:09:52Z</time><name>PT3437</name></trkpt>
<trkpt lat="53.100619" lon="06.042907"><ele>-6.7</ele><time>2021-05-12T11:09:53Z</time><name>PT3438</name></trkpt>
<trkpt lat="53.100612" lon="06.042922"><ele>-6.6</ele><time>2021-05-12T11:09:54Z</time><name>PT3439</name></trkpt>
<trkpt lat="53.100605" lon="06.042940"><ele>-6.6</ele><time>2021-05-12T11:09:55Z</time><name>PT3440</name></trkpt>
<trkpt lat="53.100598" lon="06.042955"><ele>-6.7</ele><time>2021-05-12T11:09:56Z</time><name>PT3441</name></trkpt>
<trkpt lat="53.100591" lon="06.042971"><ele>-6.5</ele><time>2021-05-12T11:09:57Z</time><name>PT3442</name></trkpt>
<trkpt lat="53.100583" lon="06.042986"><ele>-6.5</ele><time>2021-05-12T11:09:58Z</time><name>PT3443</name></trkpt>
<trkpt lat="53.100575" lon="06.043000"><ele>-6.4</ele><time>2021-05-12T11:09:59Z</time><name>PT3444</name></trkpt>
<trkpt lat="53.100568" lon="06.043014"><ele>-6.3</ele><time>2021-05-12T11:10:00Z</time><name>PT3445</name></trkpt>
<trkpt lat="53.100561" lon="06.043030"><ele>-6.2</ele><time>2021-05-12T11:10:01Z</time><name>PT3446</name></trkpt>
<trkpt lat="53.100555" lon="06.043045"><ele>-6.4</ele><time>2021-05-12T11:10:02Z</time><name>PT3447</name></trkpt>
<trkpt lat="53.100548" lon="06.043060"><ele>-6.2</ele><time>2021-05-12T11:10:03Z</time><name>PT3448</name></trkpt>
<trkpt lat="53.100541" lon="06.043074"><ele>-6.3</ele><time>2021-05-12T11:10:04Z</time><name>PT3449</name></trkpt>
<trkpt lat="53.100535" lon="06.043089"><ele>-6.2</ele><time>2021-05-12T11:10:05Z</time><name>PT3450</name></trkpt>
<trkpt lat="53.100528" lon="06.043102"><ele>-6.5</ele><time>2021-05-12T11:10:06Z</time><name>PT3451</name></trkpt>
<trkpt lat="53.100522" lon="06.043115"><ele>-6.3</ele><time>2021-05-12T11:10:07Z</time><name>PT3452</name></trkpt>
<trkpt lat="53.100514" lon="06.043128"><ele>-6.2</ele><time>2021-05-12T11:10:08Z</time><name>PT3453</name></trkpt>
<trkpt lat="53.100508" lon="06.043137"><ele>-6.3</ele><time>2021-05-12T11:10:09Z</time><name>PT3454</name></trkpt>
<trkpt lat="53.100505" lon="06.043142"><ele>-6.3</ele><time>2021-05-12T11:10:10Z</time><name>PT3455</name></trkpt>
<trkpt lat="53.100502" lon="06.043152"><ele>-6.4</ele><time>2021-05-12T11:10:11Z</time><name>PT3456</name></trkpt>
<trkpt lat="53.100498" lon="06.043166"><ele>-6.5</ele><time>2021-05-12T11:10:12Z</time><name>PT3457</name></trkpt>
<trkpt lat="53.100492" lon="06.043182"><ele>-6.5</ele><time>2021-05-12T11:10:13Z</time><name>PT3458</name></trkpt>
<trkpt lat="53.100485" lon="06.043196"><ele>-6.5</ele><time>2021-05-12T11:10:14Z</time><name>PT3459</name></trkpt>
<trkpt lat="53.100477" lon="06.043210"><ele>-6.4</ele><time>2021-05-12T11:10:15Z</time><name>PT3460</name></trkpt>
<trkpt lat="53.100470" lon="06.043219"><ele>-6.4</ele><time>2021-05-12T11:10:16Z</time><name>PT3461</name></trkpt>
<trkpt lat="53.100462" lon="06.043231"><ele>-6.5</ele><time>2021-05-12T11:10:17Z</time><name>PT3462</name></trkpt>
<trkpt lat="53.100456" lon="06.043247"><ele>-6.5</ele><time>2021-05-12T11:10:18Z</time><name>PT3463</name></trkpt>
<trkpt lat="53.100449" lon="06.043265"><ele>-6.6</ele><time>2021-05-12T11:10:19Z</time><name>PT3464</name></trkpt>
<trkpt lat="53.100443" lon="06.043282"><ele>-6.9</ele><time>2021-05-12T11:10:20Z</time><name>PT3465</name></trkpt>
<trkpt lat="53.100435" lon="06.043294"><ele>-6.6</ele><time>2021-05-12T11:10:21Z</time><name>PT3466</name></trkpt>
<trkpt lat="53.100428" lon="06.043307"><ele>-6.8</ele><time>2021-05-12T11:10:22Z</time><name>PT3467</name></trkpt>
<trkpt lat="53.100422" lon="06.043317"><ele>-6.7</ele><time>2021-05-12T11:10:23Z</time><name>PT3468</name></trkpt>
<trkpt lat="53.100415" lon="06.043323"><ele>-6.7</ele><time>2021-05-12T11:10:24Z</time><name>PT3469</name></trkpt>
<trkpt lat="53.100410" lon="06.043331"><ele>-6.7</ele><time>2021-05-12T11:10:25Z</time><name>PT3470</name></trkpt>
<trkpt lat="53.100407" lon="06.043333"><ele>-6.8</ele><time>2021-05-12T11:10:26Z</time><name>PT3471</name></trkpt>
<trkpt lat="53.100405" lon="06.043337"><ele>-6.7</ele><time>2021-05-12T11:10:27Z</time><name>PT3472</name></trkpt>
<trkpt lat="53.100402" lon="06.043340"><ele>-6.8</ele><time>2021-05-12T11:10:28Z</time><name>PT3473</name></trkpt>
<trkpt lat="53.100400" lon="06.043344"><ele>-6.8</ele><time>2021-05-12T11:10:29Z</time><name>PT3474</name></trkpt>
<trkpt lat="53.100396" lon="06.043351"><ele>-6.3</ele><time>2021-05-12T11:10:35Z</time><name>PT3475</name></trkpt>
<trkpt lat="53.100387" lon="06.043358"><ele>-6.4</ele><time>2021-05-12T11:10:36Z</time><name>PT3476</name></trkpt>
<trkpt lat="53.100383" lon="06.043360"><ele>-6.3</ele><time>2021-05-12T11:10:37Z</time><name>PT3477</name></trkpt>
<trkpt lat="53.100381" lon="06.043361"><ele>-6.4</ele><time>2021-05-12T11:10:38Z</time><name>PT3478</name></trkpt>
<trkpt lat="53.100377" lon="06.043361"><ele>-6.4</ele><time>2021-05-12T11:10:39Z</time><name>PT3479</name></trkpt>
<trkpt lat="53.100369" lon="06.043355"><ele>-6.4</ele><time>2021-05-12T11:10:40Z</time><name>PT3480</name></trkpt>
<trkpt lat="53.100357" lon="06.043347"><ele>-6.3</ele><time>2021-05-12T11:10:41Z</time><name>PT3481</name></trkpt>
<trkpt lat="53.100347" lon="06.043332"><ele>-6.3</ele><time>2021-05-12T11:10:42Z</time><name>PT3482</name></trkpt>
<trkpt lat="53.100339" lon="06.043313"><ele>-6.3</ele><time>2021-05-12T11:10:43Z</time><name>PT3483</name></trkpt>
<trkpt lat="53.100329" lon="06.043298"><ele>-6.3</ele><time>2021-05-12T11:10:44Z</time><name>PT3484</name></trkpt>
<trkpt lat="53.100320" lon="06.043281"><ele>-6.1</ele><time>2021-05-12T11:10:45Z</time><name>PT3485</name></trkpt>
<trkpt lat="53.100311" lon="06.043263"><ele>-6.2</ele><time>2021-05-12T11:10:46Z</time><name>PT3486</name></trkpt>
<trkpt lat="53.100305" lon="06.043244"><ele>-6.1</ele><time>2021-05-12T11:10:47Z</time><name>PT3487</name></trkpt>
<trkpt lat="53.100298" lon="06.043227"><ele>-6.1</ele><time>2021-05-12T11:10:48Z</time><name>PT3488</name></trkpt>
<trkpt lat="53.100290" lon="06.043211"><ele>-6.1</ele><time>2021-05-12T11:10:49Z</time><name>PT3489</name></trkpt>
<trkpt lat="53.100284" lon="06.043195"><ele>-6.4</ele><time>2021-05-12T11:10:50Z</time><name>PT3490</name></trkpt>
<trkpt lat="53.100278" lon="06.043179"><ele>-6.5</ele><time>2021-05-12T11:10:51Z</time><name>PT3491</name></trkpt>
<trkpt lat="53.100272" lon="06.043164"><ele>-6.5</ele><time>2021-05-12T11:10:52Z</time><name>PT3492</name></trkpt>
<trkpt lat="53.100267" lon="06.043147"><ele>-6.7</ele><time>2021-05-12T11:10:53Z</time><name>PT3493</name></trkpt>
<trkpt lat="53.100262" lon="06.043132"><ele>-6.7</ele><time>2021-05-12T11:10:54Z</time><name>PT3494</name></trkpt>
<trkpt lat="53.100258" lon="06.043114"><ele>-6.6</ele><time>2021-05-12T11:10:55Z</time><name>PT3495</name></trkpt>
<trkpt lat="53.100253" lon="06.043095"><ele>-6.7</ele><time>2021-05-12T11:10:56Z</time><name>PT3496</name></trkpt>
<trkpt lat="53.100249" lon="06.043083"><ele>-6.6</ele><time>2021-05-12T11:10:57Z</time><name>PT3497</name></trkpt>
<trkpt lat="53.100245" lon="06.043067"><ele>-6.7</ele><time>2021-05-12T11:10:58Z</time><name>PT3498</name></trkpt>
<trkpt lat="53.100240" lon="06.043051"><ele>-6.7</ele><time>2021-05-12T11:10:59Z</time><name>PT3499</name></trkpt>
<trkpt lat="53.100233" lon="06.043032"><ele>-6.7</ele><time>2021-05-12T11:11:00Z</time><name>PT3500</name></trkpt>
<trkpt lat="53.100227" lon="06.043019"><ele>-6.8</ele><time>2021-05-12T11:11:01Z</time><name>PT3501</name></trkpt>
<trkpt lat="53.100221" lon="06.043001"><ele>-6.9</ele><time>2021-05-12T11:11:02Z</time><name>PT3502</name></trkpt>
<trkpt lat="53.100217" lon="06.042983"><ele>-6.9</ele><time>2021-05-12T11:11:03Z</time><name>PT3503</name></trkpt>
<trkpt lat="53.100211" lon="06.042968"><ele>-6.9</ele><time>2021-05-12T11:11:04Z</time><name>PT3504</name></trkpt>
<trkpt lat="53.100206" lon="06.042951"><ele>-6.7</ele><time>2021-05-12T11:11:05Z</time><name>PT3505</name></trkpt>
<trkpt lat="53.100200" lon="06.042935"><ele>-6.5</ele><time>2021-05-12T11:11:06Z</time><name>PT3506</name></trkpt>
<trkpt lat="53.100193" lon="06.042922"><ele>-6.4</ele><time>2021-05-12T11:11:07Z</time><name>PT3507</name></trkpt>
<trkpt lat="53.100184" lon="06.042911"><ele>-6.1</ele><time>2021-05-12T11:11:08Z</time><name>PT3508</name></trkpt>
<trkpt lat="53.100175" lon="06.042894"><ele>-6</ele><time>2021-05-12T11:11:09Z</time><name>PT3509</name></trkpt>
<trkpt lat="53.100169" lon="06.042877"><ele>-6.2</ele><time>2021-05-12T11:11:10Z</time><name>PT3510</name></trkpt>
<trkpt lat="53.100161" lon="06.042856"><ele>-6.2</ele><time>2021-05-12T11:11:11Z</time><name>PT3511</name></trkpt>
<trkpt lat="53.100155" lon="06.042840"><ele>-6.4</ele><time>2021-05-12T11:11:12Z</time><name>PT3512</name></trkpt>
<trkpt lat="53.100146" lon="06.042818"><ele>-6.3</ele><time>2021-05-12T11:11:13Z</time><name>PT3513</name></trkpt>
<trkpt lat="53.100138" lon="06.042800"><ele>-6.3</ele><time>2021-05-12T11:11:14Z</time><name>PT3514</name></trkpt>
<trkpt lat="53.100130" lon="06.042783"><ele>-6.3</ele><time>2021-05-12T11:11:15Z</time><name>PT3515</name></trkpt>
<trkpt lat="53.100122" lon="06.042765"><ele>-6.4</ele><time>2021-05-12T11:11:16Z</time><name>PT3516</name></trkpt>
<trkpt lat="53.100113" lon="06.042746"><ele>-6.2</ele><time>2021-05-12T11:11:17Z</time><name>PT3517</name></trkpt>
<trkpt lat="53.100104" lon="06.042728"><ele>-6.5</ele><time>2021-05-12T11:11:18Z</time><name>PT3518</name></trkpt>
<trkpt lat="53.100094" lon="06.042710"><ele>-6.5</ele><time>2021-05-12T11:11:19Z</time><name>PT3519</name></trkpt>
<trkpt lat="53.100084" lon="06.042695"><ele>-6.5</ele><time>2021-05-12T11:11:20Z</time><name>PT3520</name></trkpt>
<trkpt lat="53.100075" lon="06.042680"><ele>-6.3</ele><time>2021-05-12T11:11:21Z</time><name>PT3521</name></trkpt>
<trkpt lat="53.100065" lon="06.042663"><ele>-6.3</ele><time>2021-05-12T11:11:22Z</time><name>PT3522</name></trkpt>
<trkpt lat="53.100057" lon="06.042647"><ele>-6</ele><time>2021-05-12T11:11:23Z</time><name>PT3523</name></trkpt>
<trkpt lat="53.100049" lon="06.042635"><ele>-6.1</ele><time>2021-05-12T11:11:25Z</time><name>PT3524</name></trkpt>
<trkpt lat="53.100041" lon="06.042624"><ele>-6.1</ele><time>2021-05-12T11:11:25Z</time><name>PT3525</name></trkpt>
<trkpt lat="53.100033" lon="06.042613"><ele>-6.1</ele><time>2021-05-12T11:11:26Z</time><name>PT3526</name></trkpt>
<trkpt lat="53.100024" lon="06.042603"><ele>-6.2</ele><time>2021-05-12T11:11:27Z</time><name>PT3527</name></trkpt>
<trkpt lat="53.100016" lon="06.042593"><ele>-6.2</ele><time>2021-05-12T11:11:28Z</time><name>PT3528</name></trkpt>
<trkpt lat="53.100009" lon="06.042586"><ele>-6.3</ele><time>2021-05-12T11:11:29Z</time><name>PT3529</name></trkpt>
<trkpt lat="53.100001" lon="06.042579"><ele>-6.6</ele><time>2021-05-12T11:11:30Z</time><name>PT3530</name></trkpt>
<trkpt lat="53.099993" lon="06.042567"><ele>-6.7</ele><time>2021-05-12T11:11:31Z</time><name>PT3531</name></trkpt>
<trkpt lat="53.099984" lon="06.042554"><ele>-6.7</ele><time>2021-05-12T11:11:32Z</time><name>PT3532</name></trkpt>
<trkpt lat="53.099975" lon="06.042540"><ele>-6.6</ele><time>2021-05-12T11:11:33Z</time><name>PT3533</name></trkpt>
<trkpt lat="53.099966" lon="06.042530"><ele>-6.5</ele><time>2021-05-12T11:11:34Z</time><name>PT3534</name></trkpt>
<trkpt lat="53.099956" lon="06.042521"><ele>-6.3</ele><time>2021-05-12T11:11:35Z</time><name>PT3535</name></trkpt>
<trkpt lat="53.099947" lon="06.042510"><ele>-6.3</ele><time>2021-05-12T11:11:36Z</time><name>PT3536</name></trkpt>
<trkpt lat="53.099939" lon="06.042498"><ele>-6.5</ele><time>2021-05-12T11:11:37Z</time><name>PT3537</name></trkpt>
<trkpt lat="53.099929" lon="06.042486"><ele>-6.5</ele><time>2021-05-12T11:11:38Z</time><name>PT3538</name></trkpt>
<trkpt lat="53.099919" lon="06.042477"><ele>-6.5</ele><time>2021-05-12T11:11:40Z</time><name>PT3539</name></trkpt>
<trkpt lat="53.099911" lon="06.042464"><ele>-6.5</ele><time>2021-05-12T11:11:40Z</time><name>PT3540</name></trkpt>
<trkpt lat="53.099902" lon="06.042450"><ele>-6.4</ele><time>2021-05-12T11:11:41Z</time><name>PT3541</name></trkpt>
<trkpt lat="53.099894" lon="06.042436"><ele>-6.1</ele><time>2021-05-12T11:11:42Z</time><name>PT3542</name></trkpt>
<trkpt lat="53.099884" lon="06.042422"><ele>-6</ele><time>2021-05-12T11:11:43Z</time><name>PT3543</name></trkpt>
<trkpt lat="53.099873" lon="06.042406"><ele>-6.2</ele><time>2021-05-12T11:11:44Z</time><name>PT3544</name></trkpt>
<trkpt lat="53.099863" lon="06.042393"><ele>-6.2</ele><time>2021-05-12T11:11:45Z</time><name>PT3545</name></trkpt>
<trkpt lat="53.099856" lon="06.042376"><ele>-6.3</ele><time>2021-05-12T11:11:46Z</time><name>PT3546</name></trkpt>
<trkpt lat="53.099849" lon="06.042361"><ele>-6.3</ele><time>2021-05-12T11:11:47Z</time><name>PT3547</name></trkpt>
<trkpt lat="53.099842" lon="06.042346"><ele>-6.3</ele><time>2021-05-12T11:11:48Z</time><name>PT3548</name></trkpt>
<trkpt lat="53.099835" lon="06.042332"><ele>-6.2</ele><time>2021-05-12T11:11:49Z</time><name>PT3549</name></trkpt>
<trkpt lat="53.099829" lon="06.042318"><ele>-6</ele><time>2021-05-12T11:11:50Z</time><name>PT3550</name></trkpt>
<trkpt lat="53.099823" lon="06.042302"><ele>-6</ele><time>2021-05-12T11:11:51Z</time><name>PT3551</name></trkpt>
<trkpt lat="53.099816" lon="06.042285"><ele>-5.6</ele><time>2021-05-12T11:11:52Z</time><name>PT3552</name></trkpt>
<trkpt lat="53.099807" lon="06.042271"><ele>-5.6</ele><time>2021-05-12T11:11:53Z</time><name>PT3553</name></trkpt>
<trkpt lat="53.099796" lon="06.042245"><ele>-5.5</ele><time>2021-05-12T11:11:54Z</time><name>PT3554</name></trkpt>
<trkpt lat="53.099785" lon="06.042224"><ele>-5.3</ele><time>2021-05-12T11:11:55Z</time><name>PT3555</name></trkpt>
<trkpt lat="53.099777" lon="06.042204"><ele>-5.3</ele><time>2021-05-12T11:11:56Z</time><name>PT3556</name></trkpt>
<trkpt lat="53.099768" lon="06.042190"><ele>-5.4</ele><time>2021-05-12T11:11:57Z</time><name>PT3557</name></trkpt>
<trkpt lat="53.099760" lon="06.042172"><ele>-5.4</ele><time>2021-05-12T11:11:58Z</time><name>PT3558</name></trkpt>
<trkpt lat="53.099752" lon="06.042155"><ele>-5.5</ele><time>2021-05-12T11:11:59Z</time><name>PT3559</name></trkpt>
<trkpt lat="53.099743" lon="06.042141"><ele>-5.3</ele><time>2021-05-12T11:12:00Z</time><name>PT3560</name></trkpt>
<trkpt lat="53.099733" lon="06.042130"><ele>-5.3</ele><time>2021-05-12T11:12:01Z</time><name>PT3561</name></trkpt>
<trkpt lat="53.099721" lon="06.042116"><ele>-5.3</ele><time>2021-05-12T11:12:02Z</time><name>PT3562</name></trkpt>
<trkpt lat="53.099710" lon="06.042104"><ele>-5.3</ele><time>2021-05-12T11:12:03Z</time><name>PT3563</name></trkpt>
<trkpt lat="53.099700" lon="06.042091"><ele>-5.1</ele><time>2021-05-12T11:12:04Z</time><name>PT3564</name></trkpt>
<trkpt lat="53.099691" lon="06.042077"><ele>-5.2</ele><time>2021-05-12T11:12:05Z</time><name>PT3565</name></trkpt>
<trkpt lat="53.099682" lon="06.042064"><ele>-5.2</ele><time>2021-05-12T11:12:06Z</time><name>PT3566</name></trkpt>
<trkpt lat="53.099674" lon="06.042050"><ele>-5.1</ele><time>2021-05-12T11:12:07Z</time><name>PT3567</name></trkpt>
<trkpt lat="53.099666" lon="06.042035"><ele>-5.1</ele><time>2021-05-12T11:12:08Z</time><name>PT3568</name></trkpt>
<trkpt lat="53.099657" lon="06.042019"><ele>-5</ele><time>2021-05-12T11:12:09Z</time><name>PT3569</name></trkpt>
<trkpt lat="53.099649" lon="06.042002"><ele>-5.1</ele><time>2021-05-12T11:12:10Z</time><name>PT3570</name></trkpt>
<trkpt lat="53.099641" lon="06.041984"><ele>-5.2</ele><time>2021-05-12T11:12:11Z</time><name>PT3571</name></trkpt>
<trkpt lat="53.099632" lon="06.041969"><ele>-5.6</ele><time>2021-05-12T11:12:12Z</time><name>PT3572</name></trkpt>
<trkpt lat="53.099622" lon="06.041957"><ele>-5.6</ele><time>2021-05-12T11:12:13Z</time><name>PT3573</name></trkpt>
<trkpt lat="53.099612" lon="06.041941"><ele>-5.4</ele><time>2021-05-12T11:12:14Z</time><name>PT3574</name></trkpt>
<trkpt lat="53.099602" lon="06.041927"><ele>-5.2</ele><time>2021-05-12T11:12:15Z</time><name>PT3575</name></trkpt>
<trkpt lat="53.099593" lon="06.041912"><ele>-5.3</ele><time>2021-05-12T11:12:16Z</time><name>PT3576</name></trkpt>
<trkpt lat="53.099583" lon="06.041896"><ele>-5.1</ele><time>2021-05-12T11:12:17Z</time><name>PT3577</name></trkpt>
<trkpt lat="53.099575" lon="06.041880"><ele>-5.1</ele><time>2021-05-12T11:12:18Z</time><name>PT3578</name></trkpt>
<trkpt lat="53.099568" lon="06.041865"><ele>-5.2</ele><time>2021-05-12T11:12:19Z</time><name>PT3579</name></trkpt>
<trkpt lat="53.099559" lon="06.041851"><ele>-5.1</ele><time>2021-05-12T11:12:20Z</time><name>PT3580</name></trkpt>
<trkpt lat="53.099549" lon="06.041836"><ele>-5.1</ele><time>2021-05-12T11:12:21Z</time><name>PT3581</name></trkpt>
<trkpt lat="53.099539" lon="06.041822"><ele>-5.2</ele><time>2021-05-12T11:12:22Z</time><name>PT3582</name></trkpt>
<trkpt lat="53.099533" lon="06.041808"><ele>-5.3</ele><time>2021-05-12T11:12:23Z</time><name>PT3583</name></trkpt>
<trkpt lat="53.099525" lon="06.041793"><ele>-5.5</ele><time>2021-05-12T11:12:24Z</time><name>PT3584</name></trkpt>
<trkpt lat="53.099516" lon="06.041778"><ele>-5.4</ele><time>2021-05-12T11:12:25Z</time><name>PT3585</name></trkpt>
<trkpt lat="53.099505" lon="06.041762"><ele>-5.5</ele><time>2021-05-12T11:12:26Z</time><name>PT3586</name></trkpt>
<trkpt lat="53.099497" lon="06.041747"><ele>-5.6</ele><time>2021-05-12T11:12:27Z</time><name>PT3587</name></trkpt>
<trkpt lat="53.099489" lon="06.041732"><ele>-5.5</ele><time>2021-05-12T11:12:28Z</time><name>PT3588</name></trkpt>
<trkpt lat="53.099480" lon="06.041721"><ele>-5.6</ele><time>2021-05-12T11:12:29Z</time><name>PT3589</name></trkpt>
<trkpt lat="53.099473" lon="06.041707"><ele>-5.7</ele><time>2021-05-12T11:12:30Z</time><name>PT3590</name></trkpt>
<trkpt lat="53.099466" lon="06.041694"><ele>-5.6</ele><time>2021-05-12T11:12:31Z</time><name>PT3591</name></trkpt>
<trkpt lat="53.099459" lon="06.041679"><ele>-5.6</ele><time>2021-05-12T11:12:32Z</time><name>PT3592</name></trkpt>
<trkpt lat="53.099451" lon="06.041664"><ele>-5.7</ele><time>2021-05-12T11:12:33Z</time><name>PT3593</name></trkpt>
<trkpt lat="53.099444" lon="06.041650"><ele>-5.6</ele><time>2021-05-12T11:12:34Z</time><name>PT3594</name></trkpt>
<trkpt lat="53.099437" lon="06.041637"><ele>-5.5</ele><time>2021-05-12T11:12:35Z</time><name>PT3595</name></trkpt>
<trkpt lat="53.099430" lon="06.041624"><ele>-5.4</ele><time>2021-05-12T11:12:36Z</time><name>PT3596</name></trkpt>
<trkpt lat="53.099427" lon="06.041616"><ele>-5.3</ele><time>2021-05-12T11:12:37Z</time><name>PT3597</name></trkpt>
<trkpt lat="53.099421" lon="06.041603"><ele>-5.2</ele><time>2021-05-12T11:12:38Z</time><name>PT3598</name></trkpt>
<trkpt lat="53.099415" lon="06.041588"><ele>-5.1</ele><time>2021-05-12T11:12:39Z</time><name>PT3599</name></trkpt>
<trkpt lat="53.099410" lon="06.041574"><ele>-5.1</ele><time>2021-05-12T11:12:40Z</time><name>PT3600</name></trkpt>
<trkpt lat="53.099406" lon="06.041561"><ele>-5.2</ele><time>2021-05-12T11:12:41Z</time><name>PT3601</name></trkpt>
<trkpt lat="53.099402" lon="06.041544"><ele>-5.2</ele><time>2021-05-12T11:12:42Z</time><name>PT3602</name></trkpt>
<trkpt lat="53.099398" lon="06.041527"><ele>-5.3</ele><time>2021-05-12T11:12:43Z</time><name>PT3603</name></trkpt>
<trkpt lat="53.099395" lon="06.041513"><ele>-5.4</ele><time>2021-05-12T11:12:44Z</time><name>PT3604</name></trkpt>
<trkpt lat="53.099390" lon="06.041499"><ele>-5.5</ele><time>2021-05-12T11:12:45Z</time><name>PT3605</name></trkpt>
<trkpt lat="53.099383" lon="06.041479"><ele>-5.6</ele><time>2021-05-12T11:12:46Z</time><name>PT3606</name></trkpt>
<trkpt lat="53.099374" lon="06.041465"><ele>-5.7</ele><time>2021-05-12T11:12:47Z</time><name>PT3607</name></trkpt>
<trkpt lat="53.099369" lon="06.041452"><ele>-5.7</ele><time>2021-05-12T11:12:48Z</time><name>PT3608</name></trkpt>
<trkpt lat="53.099363" lon="06.041435"><ele>-5.8</ele><time>2021-05-12T11:12:49Z</time><name>PT3609</name></trkpt>
<trkpt lat="53.099357" lon="06.041418"><ele>-5.8</ele><time>2021-05-12T11:12:50Z</time><name>PT3610</name></trkpt>
<trkpt lat="53.099350" lon="06.041400"><ele>-5.9</ele><time>2021-05-12T11:12:51Z</time><name>PT3611</name></trkpt>
<trkpt lat="53.099343" lon="06.041385"><ele>-5.9</ele><time>2021-05-12T11:12:52Z</time><name>PT3612</name></trkpt>
<trkpt lat="53.099337" lon="06.041372"><ele>-5.9</ele><time>2021-05-12T11:12:53Z</time><name>PT3613</name></trkpt>
<trkpt lat="53.099328" lon="06.041352"><ele>-5.6</ele><time>2021-05-12T11:12:54Z</time><name>PT3614</name></trkpt>
<trkpt lat="53.099321" lon="06.041335"><ele>-5.6</ele><time>2021-05-12T11:12:55Z</time><name>PT3615</name></trkpt>
<trkpt lat="53.099314" lon="06.041318"><ele>-5.7</ele><time>2021-05-12T11:12:56Z</time><name>PT3616</name></trkpt>
<trkpt lat="53.099307" lon="06.041300"><ele>-5.8</ele><time>2021-05-12T11:12:57Z</time><name>PT3617</name></trkpt>
<trkpt lat="53.099300" lon="06.041283"><ele>-5.8</ele><time>2021-05-12T11:12:58Z</time><name>PT3618</name></trkpt>
<trkpt lat="53.099294" lon="06.041265"><ele>-5.7</ele><time>2021-05-12T11:12:59Z</time><name>PT3619</name></trkpt>
<trkpt lat="53.099288" lon="06.041245"><ele>-5.8</ele><time>2021-05-12T11:13:00Z</time><name>PT3620</name></trkpt>
<trkpt lat="53.099282" lon="06.041230"><ele>-5.7</ele><time>2021-05-12T11:13:01Z</time><name>PT3621</name></trkpt>
<trkpt lat="53.099278" lon="06.041215"><ele>-5.6</ele><time>2021-05-12T11:13:02Z</time><name>PT3622</name></trkpt>
<trkpt lat="53.099274" lon="06.041204"><ele>-5.4</ele><time>2021-05-12T11:13:03Z</time><name>PT3623</name></trkpt>
<trkpt lat="53.099271" lon="06.041197"><ele>-5.3</ele><time>2021-05-12T11:13:04Z</time><name>PT3624</name></trkpt>
<trkpt lat="53.099269" lon="06.041193"><ele>-5.3</ele><time>2021-05-12T11:13:05Z</time><name>PT3625</name></trkpt>
<trkpt lat="53.099267" lon="06.041190"><ele>-5.3</ele><time>2021-05-12T11:13:06Z</time><name>PT3626</name></trkpt>
<trkpt lat="53.099267" lon="06.041183"><ele>-5.6</ele><time>2021-05-12T11:13:07Z</time><name>PT3627</name></trkpt>
<trkpt lat="53.099266" lon="06.041177"><ele>-5.6</ele><time>2021-05-12T11:13:08Z</time><name>PT3628</name></trkpt>
<trkpt lat="53.099265" lon="06.041170"><ele>-5.5</ele><time>2021-05-12T11:13:12Z</time><name>PT3629</name></trkpt>
<trkpt lat="53.099258" lon="06.041147"><ele>-5.5</ele><time>2021-05-12T11:13:13Z</time><name>PT3630</name></trkpt>
<trkpt lat="53.099250" lon="06.041134"><ele>-5.4</ele><time>2021-05-12T11:13:14Z</time><name>PT3631</name></trkpt>
<trkpt lat="53.099244" lon="06.041120"><ele>-5.6</ele><time>2021-05-12T11:13:15Z</time><name>PT3632</name></trkpt>
<trkpt lat="53.099235" lon="06.041108"><ele>-5.6</ele><time>2021-05-12T11:13:16Z</time><name>PT3633</name></trkpt>
<trkpt lat="53.099228" lon="06.041098"><ele>-5.4</ele><time>2021-05-12T11:13:17Z</time><name>PT3634</name></trkpt>
<trkpt lat="53.099219" lon="06.041088"><ele>-5.3</ele><time>2021-05-12T11:13:18Z</time><name>PT3635</name></trkpt>
<trkpt lat="53.099210" lon="06.041076"><ele>-5.5</ele><time>2021-05-12T11:13:19Z</time><name>PT3636</name></trkpt>
<trkpt lat="53.099199" lon="06.041063"><ele>-5.3</ele><time>2021-05-12T11:13:20Z</time><name>PT3637</name></trkpt>
<trkpt lat="53.099192" lon="06.041061"><ele>-5.6</ele><time>2021-05-12T11:13:21Z</time><name>PT3638</name></trkpt>
<trkpt lat="53.099186" lon="06.041058"><ele>-5.6</ele><time>2021-05-12T11:13:22Z</time><name>PT3639</name></trkpt>
<trkpt lat="53.099181" lon="06.041054"><ele>-5.4</ele><time>2021-05-12T11:13:23Z</time><name>PT3640</name></trkpt>
<trkpt lat="53.099172" lon="06.041046"><ele>-5.5</ele><time>2021-05-12T11:13:24Z</time><name>PT3641</name></trkpt>
<trkpt lat="53.099162" lon="06.041043"><ele>-5.5</ele><time>2021-05-12T11:13:25Z</time><name>PT3642</name></trkpt>
<trkpt lat="53.099152" lon="06.041044"><ele>-5.4</ele><time>2021-05-12T11:13:26Z</time><name>PT3643</name></trkpt>
<trkpt lat="53.099142" lon="06.041048"><ele>-5.6</ele><time>2021-05-12T11:13:27Z</time><name>PT3644</name></trkpt>
<trkpt lat="53.099132" lon="06.041051"><ele>-5.5</ele><time>2021-05-12T11:13:28Z</time><name>PT3645</name></trkpt>
<trkpt lat="53.099122" lon="06.041051"><ele>-5.7</ele><time>2021-05-12T11:13:29Z</time><name>PT3646</name></trkpt>
<trkpt lat="53.099114" lon="06.041052"><ele>-5.8</ele><time>2021-05-12T11:13:30Z</time><name>PT3647</name></trkpt>
<trkpt lat="53.099107" lon="06.041052"><ele>-5.9</ele><time>2021-05-12T11:13:31Z</time><name>PT3648</name></trkpt>
<trkpt lat="53.099096" lon="06.041055"><ele>-5.8</ele><time>2021-05-12T11:13:32Z</time><name>PT3649</name></trkpt>
<trkpt lat="53.099086" lon="06.041060"><ele>-5.8</ele><time>2021-05-12T11:13:33Z</time><name>PT3650</name></trkpt>
<trkpt lat="53.099075" lon="06.041064"><ele>-6</ele><time>2021-05-12T11:13:34Z</time><name>PT3651</name></trkpt>
<trkpt lat="53.099065" lon="06.041071"><ele>-5.6</ele><time>2021-05-12T11:13:35Z</time><name>PT3652</name></trkpt>
<trkpt lat="53.099055" lon="06.041076"><ele>-5.6</ele><time>2021-05-12T11:13:36Z</time><name>PT3653</name></trkpt>
<trkpt lat="53.099045" lon="06.041082"><ele>-5.7</ele><time>2021-05-12T11:13:37Z</time><name>PT3654</name></trkpt>
<trkpt lat="53.099034" lon="06.041086"><ele>-5.6</ele><time>2021-05-12T11:13:38Z</time><name>PT3655</name></trkpt>
<trkpt lat="53.099021" lon="06.041090"><ele>-5.8</ele><time>2021-05-12T11:13:39Z</time><name>PT3656</name></trkpt>
<trkpt lat="53.099008" lon="06.041093"><ele>-5.9</ele><time>2021-05-12T11:13:40Z</time><name>PT3657</name></trkpt>
<trkpt lat="53.098997" lon="06.041098"><ele>-5.8</ele><time>2021-05-12T11:13:41Z</time><name>PT3658</name></trkpt>
<trkpt lat="53.098986" lon="06.041105"><ele>-6</ele><time>2021-05-12T11:13:42Z</time><name>PT3659</name></trkpt>
<trkpt lat="53.098974" lon="06.041112"><ele>-6</ele><time>2021-05-12T11:13:43Z</time><name>PT3660</name></trkpt>
<trkpt lat="53.098965" lon="06.041116"><ele>-6.2</ele><time>2021-05-12T11:13:44Z</time><name>PT3661</name></trkpt>
<trkpt lat="53.098955" lon="06.041122"><ele>-6</ele><time>2021-05-12T11:13:45Z</time><name>PT3662</name></trkpt>
<trkpt lat="53.098944" lon="06.041128"><ele>-5.8</ele><time>2021-05-12T11:13:46Z</time><name>PT3663</name></trkpt>
<trkpt lat="53.098934" lon="06.041133"><ele>-5.8</ele><time>2021-05-12T11:13:47Z</time><name>PT3664</name></trkpt>
<trkpt lat="53.098922" lon="06.041139"><ele>-5.7</ele><time>2021-05-12T11:13:48Z</time><name>PT3665</name></trkpt>
<trkpt lat="53.098909" lon="06.041144"><ele>-5.8</ele><time>2021-05-12T11:13:49Z</time><name>PT3666</name></trkpt>
<trkpt lat="53.098896" lon="06.041148"><ele>-6.2</ele><time>2021-05-12T11:13:50Z</time><name>PT3667</name></trkpt>
<trkpt lat="53.098882" lon="06.041153"><ele>-6.3</ele><time>2021-05-12T11:13:51Z</time><name>PT3668</name></trkpt>
<trkpt lat="53.098867" lon="06.041162"><ele>-6.3</ele><time>2021-05-12T11:13:52Z</time><name>PT3669</name></trkpt>
<trkpt lat="53.098856" lon="06.041171"><ele>-6.3</ele><time>2021-05-12T11:13:53Z</time><name>PT3670</name></trkpt>
<trkpt lat="53.098847" lon="06.041174"><ele>-6.2</ele><time>2021-05-12T11:13:54Z</time><name>PT3671</name></trkpt>
<trkpt lat="53.098837" lon="06.041178"><ele>-6.4</ele><time>2021-05-12T11:13:55Z</time><name>PT3672</name></trkpt>
<trkpt lat="53.098825" lon="06.041187"><ele>-6.5</ele><time>2021-05-12T11:13:56Z</time><name>PT3673</name></trkpt>
<trkpt lat="53.098813" lon="06.041193"><ele>-6.5</ele><time>2021-05-12T11:13:57Z</time><name>PT3674</name></trkpt>
<trkpt lat="53.098799" lon="06.041203"><ele>-6.5</ele><time>2021-05-12T11:13:58Z</time><name>PT3675</name></trkpt>
<trkpt lat="53.098785" lon="06.041214"><ele>-6.5</ele><time>2021-05-12T11:13:59Z</time><name>PT3676</name></trkpt>
<trkpt lat="53.098774" lon="06.041222"><ele>-6.4</ele><time>2021-05-12T11:14:00Z</time><name>PT3677</name></trkpt>
<trkpt lat="53.098762" lon="06.041228"><ele>-6.5</ele><time>2021-05-12T11:14:01Z</time><name>PT3678</name></trkpt>
<trkpt lat="53.098752" lon="06.041232"><ele>-6.5</ele><time>2021-05-12T11:14:02Z</time><name>PT3679</name></trkpt>
<trkpt lat="53.098740" lon="06.041239"><ele>-6.5</ele><time>2021-05-12T11:14:03Z</time><name>PT3680</name></trkpt>
<trkpt lat="53.098725" lon="06.041245"><ele>-6.5</ele><time>2021-05-12T11:14:04Z</time><name>PT3681</name></trkpt>
<trkpt lat="53.098712" lon="06.041250"><ele>-6.5</ele><time>2021-05-12T11:14:05Z</time><name>PT3682</name></trkpt>
<trkpt lat="53.098701" lon="06.041256"><ele>-6.3</ele><time>2021-05-12T11:14:06Z</time><name>PT3683</name></trkpt>
<trkpt lat="53.098690" lon="06.041264"><ele>-6.3</ele><time>2021-05-12T11:14:07Z</time><name>PT3684</name></trkpt>
<trkpt lat="53.098680" lon="06.041270"><ele>-6.1</ele><time>2021-05-12T11:14:08Z</time><name>PT3685</name></trkpt>
<trkpt lat="53.098672" lon="06.041277"><ele>-6.1</ele><time>2021-05-12T11:14:09Z</time><name>PT3686</name></trkpt>
<trkpt lat="53.098664" lon="06.041282"><ele>-6</ele><time>2021-05-12T11:14:10Z</time><name>PT3687</name></trkpt>
<trkpt lat="53.098653" lon="06.041290"><ele>-6</ele><time>2021-05-12T11:14:11Z</time><name>PT3688</name></trkpt>
<trkpt lat="53.098647" lon="06.041293"><ele>-6.1</ele><time>2021-05-12T11:14:12Z</time><name>PT3689</name></trkpt>
<trkpt lat="53.098640" lon="06.041298"><ele>-6.1</ele><time>2021-05-12T11:14:13Z</time><name>PT3690</name></trkpt>
<trkpt lat="53.098633" lon="06.041302"><ele>-6.3</ele><time>2021-05-12T11:14:14Z</time><name>PT3691</name></trkpt>
<trkpt lat="53.098631" lon="06.041304"><ele>-6.2</ele><time>2021-05-12T11:14:15Z</time><name>PT3692</name></trkpt>
<trkpt lat="53.098631" lon="06.041304"><ele>-6.2</ele><time>2021-05-12T11:14:16Z</time><name>PT3693</name></trkpt>
<trkpt lat="53.098631" lon="06.041303"><ele>-6.2</ele><time>2021-05-12T11:14:17Z</time><name>PT3694</name></trkpt>
<trkpt lat="53.098630" lon="06.041303"><ele>-6</ele><time>2021-05-12T11:14:18Z</time><name>PT3695</name></trkpt>
<trkpt lat="53.098629" lon="06.041298"><ele>-6</ele><time>2021-05-12T11:14:21Z</time><name>PT3696</name></trkpt>
<trkpt lat="53.098626" lon="06.041299"><ele>-6.1</ele><time>2021-05-12T11:14:22Z</time><name>PT3697</name></trkpt>
<trkpt lat="53.098626" lon="06.041297"><ele>-6</ele><time>2021-05-12T11:14:23Z</time><name>PT3698</name></trkpt>
<trkpt lat="53.098623" lon="06.041301"><ele>-5.9</ele><time>2021-05-12T11:14:24Z</time><name>PT3699</name></trkpt>
<trkpt lat="53.098622" lon="06.041302"><ele>-5.9</ele><time>2021-05-12T11:14:25Z</time><name>PT3700</name></trkpt>
<trkpt lat="53.098620" lon="06.041304"><ele>-6</ele><time>2021-05-12T11:14:26Z</time><name>PT3701</name></trkpt>
<trkpt lat="53.098615" lon="06.041306"><ele>-6</ele><time>2021-05-12T11:14:27Z</time><name>PT3702</name></trkpt>
<trkpt lat="53.098610" lon="06.041308"><ele>-6</ele><time>2021-05-12T11:14:28Z</time><name>PT3703</name></trkpt>
<trkpt lat="53.098604" lon="06.041313"><ele>-6</ele><time>2021-05-12T11:14:29Z</time><name>PT3704</name></trkpt>
<trkpt lat="53.098598" lon="06.041316"><ele>-6.1</ele><time>2021-05-12T11:14:30Z</time><name>PT3705</name></trkpt>
<trkpt lat="53.098589" lon="06.041319"><ele>-6</ele><time>2021-05-12T11:14:31Z</time><name>PT3706</name></trkpt>
<trkpt lat="53.098582" lon="06.041321"><ele>-5.7</ele><time>2021-05-12T11:14:32Z</time><name>PT3707</name></trkpt>
<trkpt lat="53.098576" lon="06.041323"><ele>-5.6</ele><time>2021-05-12T11:14:33Z</time><name>PT3708</name></trkpt>
<trkpt lat="53.098569" lon="06.041326"><ele>-5.6</ele><time>2021-05-12T11:14:34Z</time><name>PT3709</name></trkpt>
<trkpt lat="53.098561" lon="06.041328"><ele>-5.6</ele><time>2021-05-12T11:14:35Z</time><name>PT3710</name></trkpt>
<trkpt lat="53.098552" lon="06.041331"><ele>-6</ele><time>2021-05-12T11:14:36Z</time><name>PT3711</name></trkpt>
<trkpt lat="53.098541" lon="06.041337"><ele>-6</ele><time>2021-05-12T11:14:37Z</time><name>PT3712</name></trkpt>
<trkpt lat="53.098531" lon="06.041338"><ele>-6.2</ele><time>2021-05-12T11:14:38Z</time><name>PT3713</name></trkpt>
<trkpt lat="53.098523" lon="06.041342"><ele>-6.2</ele><time>2021-05-12T11:14:39Z</time><name>PT3714</name></trkpt>
<trkpt lat="53.098515" lon="06.041348"><ele>-6.1</ele><time>2021-05-12T11:14:40Z</time><name>PT3715</name></trkpt>
<trkpt lat="53.098506" lon="06.041353"><ele>-6</ele><time>2021-05-12T11:14:41Z</time><name>PT3716</name></trkpt>
<trkpt lat="53.098498" lon="06.041357"><ele>-6</ele><time>2021-05-12T11:14:42Z</time><name>PT3717</name></trkpt>
<trkpt lat="53.098491" lon="06.041360"><ele>-5.8</ele><time>2021-05-12T11:14:43Z</time><name>PT3718</name></trkpt>
<trkpt lat="53.098485" lon="06.041362"><ele>-6</ele><time>2021-05-12T11:14:44Z</time><name>PT3719</name></trkpt>
<trkpt lat="53.098477" lon="06.041363"><ele>-6</ele><time>2021-05-12T11:14:45Z</time><name>PT3720</name></trkpt>
<trkpt lat="53.098468" lon="06.041364"><ele>-6</ele><time>2021-05-12T11:14:46Z</time><name>PT3721</name></trkpt>
<trkpt lat="53.098461" lon="06.041365"><ele>-6</ele><time>2021-05-12T11:14:47Z</time><name>PT3722</name></trkpt>
<trkpt lat="53.098452" lon="06.041365"><ele>-6.3</ele><time>2021-05-12T11:14:48Z</time><name>PT3723</name></trkpt>
<trkpt lat="53.098442" lon="06.041366"><ele>-6.3</ele><time>2021-05-12T11:14:49Z</time><name>PT3724</name></trkpt>
<trkpt lat="53.098441" lon="06.041353"><ele>-6.4</ele><time>2021-05-12T11:14:50Z</time><name>PT3725</name></trkpt>
<trkpt lat="53.098435" lon="06.041347"><ele>-6.4</ele><time>2021-05-12T11:14:51Z</time><name>PT3726</name></trkpt>
<trkpt lat="53.098426" lon="06.041340"><ele>-6.3</ele><time>2021-05-12T11:14:52Z</time><name>PT3727</name></trkpt>
<trkpt lat="53.098417" lon="06.041334"><ele>-6.3</ele><time>2021-05-12T11:14:53Z</time><name>PT3728</name></trkpt>
<trkpt lat="53.098414" lon="06.041324"><ele>-6.2</ele><time>2021-05-12T11:14:54Z</time><name>PT3729</name></trkpt>
<trkpt lat="53.098409" lon="06.041312"><ele>-6.1</ele><time>2021-05-12T11:14:55Z</time><name>PT3730</name></trkpt>
<trkpt lat="53.098405" lon="06.041299"><ele>-6.3</ele><time>2021-05-12T11:14:56Z</time><name>PT3731</name></trkpt>
<trkpt lat="53.098399" lon="06.041287"><ele>-6.3</ele><time>2021-05-12T11:14:57Z</time><name>PT3732</name></trkpt>
<trkpt lat="53.098392" lon="06.041278"><ele>-6.4</ele><time>2021-05-12T11:14:58Z</time><name>PT3733</name></trkpt>
<trkpt lat="53.098387" lon="06.041270"><ele>-6.4</ele><time>2021-05-12T11:14:59Z</time><name>PT3734</name></trkpt>
<trkpt lat="53.098382" lon="06.041263"><ele>-6.3</ele><time>2021-05-12T11:15:00Z</time><name>PT3735</name></trkpt>
<trkpt lat="53.098379" lon="06.041258"><ele>-6.3</ele><time>2021-05-12T11:15:01Z</time><name>PT3736</name></trkpt>
<trkpt lat="53.098372" lon="06.041249"><ele>-6.4</ele><time>2021-05-12T11:15:02Z</time><name>PT3737</name></trkpt>
<trkpt lat="53.098363" lon="06.041237"><ele>-6.5</ele><time>2021-05-12T11:15:03Z</time><name>PT3738</name></trkpt>
<trkpt lat="53.098352" lon="06.041226"><ele>-6.5</ele><time>2021-05-12T11:15:04Z</time><name>PT3739</name></trkpt>
<trkpt lat="53.098344" lon="06.041213"><ele>-6.7</ele><time>2021-05-12T11:15:05Z</time><name>PT3740</name></trkpt>
<trkpt lat="53.098337" lon="06.041201"><ele>-6.8</ele><time>2021-05-12T11:15:06Z</time><name>PT3741</name></trkpt>
<trkpt lat="53.098330" lon="06.041188"><ele>-6.7</ele><time>2021-05-12T11:15:07Z</time><name>PT3742</name></trkpt>
<trkpt lat="53.098326" lon="06.041174"><ele>-6.6</ele><time>2021-05-12T11:15:08Z</time><name>PT3743</name></trkpt>
<trkpt lat="53.098323" lon="06.041165"><ele>-6.8</ele><time>2021-05-12T11:15:09Z</time><name>PT3744</name></trkpt>
<trkpt lat="53.098319" lon="06.041150"><ele>-6.9</ele><time>2021-05-12T11:15:10Z</time><name>PT3745</name></trkpt>
<trkpt lat="53.098314" lon="06.041135"><ele>-6.9</ele><time>2021-05-12T11:15:11Z</time><name>PT3746</name></trkpt>
<trkpt lat="53.098310" lon="06.041122"><ele>-7</ele><time>2021-05-12T11:15:12Z</time><name>PT3747</name></trkpt>
<trkpt lat="53.098306" lon="06.041109"><ele>-7</ele><time>2021-05-12T11:15:13Z</time><name>PT3748</name></trkpt>
<trkpt lat="53.098304" lon="06.041092"><ele>-6.8</ele><time>2021-05-12T11:15:14Z</time><name>PT3749</name></trkpt>
<trkpt lat="53.098306" lon="06.041075"><ele>-6.7</ele><time>2021-05-12T11:15:15Z</time><name>PT3750</name></trkpt>
<trkpt lat="53.098304" lon="06.041056"><ele>-6.7</ele><time>2021-05-12T11:15:16Z</time><name>PT3751</name></trkpt>
<trkpt lat="53.098303" lon="06.041040"><ele>-6.6</ele><time>2021-05-12T11:15:17Z</time><name>PT3752</name></trkpt>
<trkpt lat="53.098296" lon="06.041017"><ele>-6.7</ele><time>2021-05-12T11:15:18Z</time><name>PT3753</name></trkpt>
<trkpt lat="53.098294" lon="06.040998"><ele>-6.8</ele><time>2021-05-12T11:15:19Z</time><name>PT3754</name></trkpt>
<trkpt lat="53.098289" lon="06.040972"><ele>-6.7</ele><time>2021-05-12T11:15:20Z</time><name>PT3755</name></trkpt>
<trkpt lat="53.098288" lon="06.040954"><ele>-6.8</ele><time>2021-05-12T11:15:21Z</time><name>PT3756</name></trkpt>
<trkpt lat="53.098285" lon="06.040937"><ele>-6.8</ele><time>2021-05-12T11:15:22Z</time><name>PT3757</name></trkpt>
<trkpt lat="53.098285" lon="06.040925"><ele>-6.9</ele><time>2021-05-12T11:15:23Z</time><name>PT3758</name></trkpt>
<trkpt lat="53.098285" lon="06.040908"><ele>-6.9</ele><time>2021-05-12T11:15:24Z</time><name>PT3759</name></trkpt>
<trkpt lat="53.098281" lon="06.040893"><ele>-6.9</ele><time>2021-05-12T11:15:25Z</time><name>PT3760</name></trkpt>
<trkpt lat="53.098278" lon="06.040876"><ele>-7</ele><time>2021-05-12T11:15:26Z</time><name>PT3761</name></trkpt>
<trkpt lat="53.098275" lon="06.040867"><ele>-7</ele><time>2021-05-12T11:15:27Z</time><name>PT3762</name></trkpt>
<trkpt lat="53.098274" lon="06.040851"><ele>-7</ele><time>2021-05-12T11:15:28Z</time><name>PT3763</name></trkpt>
<trkpt lat="53.098273" lon="06.040839"><ele>-7</ele><time>2021-05-12T11:15:29Z</time><name>PT3764</name></trkpt>
<trkpt lat="53.098272" lon="06.040828"><ele>-6.9</ele><time>2021-05-12T11:15:30Z</time><name>PT3765</name></trkpt>
<trkpt lat="53.098269" lon="06.040812"><ele>-6.7</ele><time>2021-05-12T11:15:31Z</time><name>PT3766</name></trkpt>
<trkpt lat="53.098266" lon="06.040803"><ele>-6.7</ele><time>2021-05-12T11:15:32Z</time><name>PT3767</name></trkpt>
<trkpt lat="53.098262" lon="06.040789"><ele>-6.8</ele><time>2021-05-12T11:15:33Z</time><name>PT3768</name></trkpt>
<trkpt lat="53.098258" lon="06.040768"><ele>-6.9</ele><time>2021-05-12T11:15:34Z</time><name>PT3769</name></trkpt>
<trkpt lat="53.098256" lon="06.040750"><ele>-6.9</ele><time>2021-05-12T11:15:35Z</time><name>PT3770</name></trkpt>
<trkpt lat="53.098254" lon="06.040727"><ele>-6.8</ele><time>2021-05-12T11:15:36Z</time><name>PT3771</name></trkpt>
<trkpt lat="53.098256" lon="06.040710"><ele>-6.7</ele><time>2021-05-12T11:15:37Z</time><name>PT3772</name></trkpt>
<trkpt lat="53.098256" lon="06.040692"><ele>-6.5</ele><time>2021-05-12T11:15:38Z</time><name>PT3773</name></trkpt>
<trkpt lat="53.098256" lon="06.040673"><ele>-6.3</ele><time>2021-05-12T11:15:39Z</time><name>PT3774</name></trkpt>
<trkpt lat="53.098258" lon="06.040653"><ele>-6.2</ele><time>2021-05-12T11:15:40Z</time><name>PT3775</name></trkpt>
<trkpt lat="53.098262" lon="06.040633"><ele>-6.2</ele><time>2021-05-12T11:15:41Z</time><name>PT3776</name></trkpt>
<trkpt lat="53.098264" lon="06.040608"><ele>-6.4</ele><time>2021-05-12T11:15:42Z</time><name>PT3777</name></trkpt>
<trkpt lat="53.098268" lon="06.040590"><ele>-6.5</ele><time>2021-05-12T11:15:43Z</time><name>PT3778</name></trkpt>
<trkpt lat="53.098273" lon="06.040572"><ele>-6.3</ele><time>2021-05-12T11:15:44Z</time><name>PT3779</name></trkpt>
<trkpt lat="53.098277" lon="06.040554"><ele>-6.4</ele><time>2021-05-12T11:15:45Z</time><name>PT3780</name></trkpt>
<trkpt lat="53.098282" lon="06.040533"><ele>-6.5</ele><time>2021-05-12T11:15:46Z</time><name>PT3781</name></trkpt>
<trkpt lat="53.098287" lon="06.040514"><ele>-6.3</ele><time>2021-05-12T11:15:47Z</time><name>PT3782</name></trkpt>
<trkpt lat="53.098293" lon="06.040496"><ele>-6.2</ele><time>2021-05-12T11:15:48Z</time><name>PT3783</name></trkpt>
<trkpt lat="53.098299" lon="06.040475"><ele>-6.1</ele><time>2021-05-12T11:15:49Z</time><name>PT3784</name></trkpt>
<trkpt lat="53.098304" lon="06.040459"><ele>-6</ele><time>2021-05-12T11:15:50Z</time><name>PT3785</name></trkpt>
<trkpt lat="53.098309" lon="06.040447"><ele>-6</ele><time>2021-05-12T11:15:51Z</time><name>PT3786</name></trkpt>
<trkpt lat="53.098317" lon="06.040435"><ele>-6</ele><time>2021-05-12T11:15:52Z</time><name>PT3787</name></trkpt>
<trkpt lat="53.098325" lon="06.040424"><ele>-6</ele><time>2021-05-12T11:15:53Z</time><name>PT3788</name></trkpt>
<trkpt lat="53.098331" lon="06.040403"><ele>-6.1</ele><time>2021-05-12T11:15:54Z</time><name>PT3789</name></trkpt>
<trkpt lat="53.098339" lon="06.040382"><ele>-6</ele><time>2021-05-12T11:15:55Z</time><name>PT3790</name></trkpt>
<trkpt lat="53.098346" lon="06.040363"><ele>-6</ele><time>2021-05-12T11:15:56Z</time><name>PT3791</name></trkpt>
<trkpt lat="53.098352" lon="06.040339"><ele>-5.8</ele><time>2021-05-12T11:15:57Z</time><name>PT3792</name></trkpt>
<trkpt lat="53.098362" lon="06.040327"><ele>-5.7</ele><time>2021-05-12T11:15:58Z</time><name>PT3793</name></trkpt>
<trkpt lat="53.098366" lon="06.040317"><ele>-5.5</ele><time>2021-05-12T11:15:59Z</time><name>PT3794</name></trkpt>
<trkpt lat="53.098373" lon="06.040306"><ele>-5.4</ele><time>2021-05-12T11:16:00Z</time><name>PT3795</name></trkpt>
<trkpt lat="53.098381" lon="06.040294"><ele>-5.4</ele><time>2021-05-12T11:16:01Z</time><name>PT3796</name></trkpt>
<trkpt lat="53.098388" lon="06.040283"><ele>-5.4</ele><time>2021-05-12T11:16:02Z</time><name>PT3797</name></trkpt>
<trkpt lat="53.098400" lon="06.040276"><ele>-5.5</ele><time>2021-05-12T11:16:03Z</time><name>PT3798</name></trkpt>
<trkpt lat="53.098408" lon="06.040272"><ele>-5.5</ele><time>2021-05-12T11:16:04Z</time><name>PT3799</name></trkpt>
<trkpt lat="53.098414" lon="06.040264"><ele>-5.3</ele><time>2021-05-12T11:16:05Z</time><name>PT3800</name></trkpt>
<trkpt lat="53.098424" lon="06.040254"><ele>-5.2</ele><time>2021-05-12T11:16:06Z</time><name>PT3801</name></trkpt>
<trkpt lat="53.098431" lon="06.040244"><ele>-5.1</ele><time>2021-05-12T11:16:07Z</time><name>PT3802</name></trkpt>
<trkpt lat="53.098437" lon="06.040236"><ele>-5</ele><time>2021-05-12T11:16:08Z</time><name>PT3803</name></trkpt>
<trkpt lat="53.098448" lon="06.040231"><ele>-5.1</ele><time>2021-05-12T11:16:09Z</time><name>PT3804</name></trkpt>
<trkpt lat="53.098456" lon="06.040220"><ele>-5.1</ele><time>2021-05-12T11:16:10Z</time><name>PT3805</name></trkpt>
<trkpt lat="53.098466" lon="06.040215"><ele>-4.9</ele><time>2021-05-12T11:16:11Z</time><name>PT3806</name></trkpt>
<trkpt lat="53.098477" lon="06.040210"><ele>-5</ele><time>2021-05-12T11:16:12Z</time><name>PT3807</name></trkpt>
<trkpt lat="53.098492" lon="06.040197"><ele>-5</ele><time>2021-05-12T11:16:13Z</time><name>PT3808</name></trkpt>
<trkpt lat="53.098502" lon="06.040193"><ele>-4.9</ele><time>2021-05-12T11:16:14Z</time><name>PT3809</name></trkpt>
<trkpt lat="53.098514" lon="06.040188"><ele>-4.9</ele><time>2021-05-12T11:16:15Z</time><name>PT3810</name></trkpt>
<trkpt lat="53.098524" lon="06.040181"><ele>-5</ele><time>2021-05-12T11:16:16Z</time><name>PT3811</name></trkpt>
<trkpt lat="53.098534" lon="06.040174"><ele>-5</ele><time>2021-05-12T11:16:17Z</time><name>PT3812</name></trkpt>
<trkpt lat="53.098543" lon="06.040165"><ele>-5.1</ele><time>2021-05-12T11:16:18Z</time><name>PT3813</name></trkpt>
<trkpt lat="53.098552" lon="06.040158"><ele>-5.1</ele><time>2021-05-12T11:16:19Z</time><name>PT3814</name></trkpt>
<trkpt lat="53.098563" lon="06.040152"><ele>-5.1</ele><time>2021-05-12T11:16:20Z</time><name>PT3815</name></trkpt>
<trkpt lat="53.098575" lon="06.040144"><ele>-5.2</ele><time>2021-05-12T11:16:21Z</time><name>PT3816</name></trkpt>
<trkpt lat="53.098588" lon="06.040133"><ele>-5.2</ele><time>2021-05-12T11:16:22Z</time><name>PT3817</name></trkpt>
<trkpt lat="53.098599" lon="06.040124"><ele>-5.3</ele><time>2021-05-12T11:16:23Z</time><name>PT3818</name></trkpt>
<trkpt lat="53.098606" lon="06.040118"><ele>-5.5</ele><time>2021-05-12T11:16:24Z</time><name>PT3819</name></trkpt>
<trkpt lat="53.098614" lon="06.040111"><ele>-5.5</ele><time>2021-05-12T11:16:25Z</time><name>PT3820</name></trkpt>
<trkpt lat="53.098626" lon="06.040105"><ele>-5.4</ele><time>2021-05-12T11:16:26Z</time><name>PT3821</name></trkpt>
<trkpt lat="53.098635" lon="06.040100"><ele>-5.2</ele><time>2021-05-12T11:16:27Z</time><name>PT3822</name></trkpt>
<trkpt lat="53.098654" lon="06.040105"><ele>-5.1</ele><time>2021-05-12T11:16:28Z</time><name>PT3823</name></trkpt>
<trkpt lat="53.098665" lon="06.040100"><ele>-5</ele><time>2021-05-12T11:16:29Z</time><name>PT3824</name></trkpt>
<trkpt lat="53.098674" lon="06.040097"><ele>-5</ele><time>2021-05-12T11:16:30Z</time><name>PT3825</name></trkpt>
<trkpt lat="53.098683" lon="06.040095"><ele>-5</ele><time>2021-05-12T11:16:31Z</time><name>PT3826</name></trkpt>
<trkpt lat="53.098692" lon="06.040087"><ele>-5.1</ele><time>2021-05-12T11:16:32Z</time><name>PT3827</name></trkpt>
<trkpt lat="53.098701" lon="06.040081"><ele>-5</ele><time>2021-05-12T11:16:33Z</time><name>PT3828</name></trkpt>
<trkpt lat="53.098710" lon="06.040073"><ele>-5</ele><time>2021-05-12T11:16:34Z</time><name>PT3829</name></trkpt>
<trkpt lat="53.098719" lon="06.040066"><ele>-5</ele><time>2021-05-12T11:16:35Z</time><name>PT3830</name></trkpt>
<trkpt lat="53.098728" lon="06.040062"><ele>-5</ele><time>2021-05-12T11:16:36Z</time><name>PT3831</name></trkpt>
<trkpt lat="53.098737" lon="06.040054"><ele>-4.8</ele><time>2021-05-12T11:16:37Z</time><name>PT3832</name></trkpt>
<trkpt lat="53.098747" lon="06.040049"><ele>-4.6</ele><time>2021-05-12T11:16:38Z</time><name>PT3833</name></trkpt>
<trkpt lat="53.098752" lon="06.040047"><ele>-4.6</ele><time>2021-05-12T11:16:39Z</time><name>PT3834</name></trkpt>
<trkpt lat="53.098764" lon="06.040047"><ele>-4.6</ele><time>2021-05-12T11:16:40Z</time><name>PT3835</name></trkpt>
<trkpt lat="53.098776" lon="06.040046"><ele>-4.6</ele><time>2021-05-12T11:16:41Z</time><name>PT3836</name></trkpt>
<trkpt lat="53.098786" lon="06.040045"><ele>-4.9</ele><time>2021-05-12T11:16:42Z</time><name>PT3837</name></trkpt>
<trkpt lat="53.098792" lon="06.040044"><ele>-5</ele><time>2021-05-12T11:16:43Z</time><name>PT3838</name></trkpt>
<trkpt lat="53.098800" lon="06.040041"><ele>-5.1</ele><time>2021-05-12T11:16:44Z</time><name>PT3839</name></trkpt>
<trkpt lat="53.098810" lon="06.040038"><ele>-5.1</ele><time>2021-05-12T11:16:45Z</time><name>PT3840</name></trkpt>
<trkpt lat="53.098816" lon="06.040036"><ele>-5.2</ele><time>2021-05-12T11:16:46Z</time><name>PT3841</name></trkpt>
<trkpt lat="53.098830" lon="06.040031"><ele>-5.4</ele><time>2021-05-12T11:16:47Z</time><name>PT3842</name></trkpt>
<trkpt lat="53.098841" lon="06.040027"><ele>-5.6</ele><time>2021-05-12T11:16:48Z</time><name>PT3843</name></trkpt>
<trkpt lat="53.098853" lon="06.040021"><ele>-5.6</ele><time>2021-05-12T11:16:49Z</time><name>PT3844</name></trkpt>
<trkpt lat="53.098869" lon="06.040014"><ele>-5.8</ele><time>2021-05-12T11:16:50Z</time><name>PT3845</name></trkpt>
<trkpt lat="53.098880" lon="06.040005"><ele>-6.2</ele><time>2021-05-12T11:16:51Z</time><name>PT3846</name></trkpt>
<trkpt lat="53.098900" lon="06.039996"><ele>-6.2</ele><time>2021-05-12T11:16:52Z</time><name>PT3847</name></trkpt>
<trkpt lat="53.098924" lon="06.039988"><ele>-6.5</ele><time>2021-05-12T11:16:53Z</time><name>PT3848</name></trkpt>
<trkpt lat="53.098931" lon="06.039979"><ele>-6.5</ele><time>2021-05-12T11:16:54Z</time><name>PT3849</name></trkpt>
<trkpt lat="53.098944" lon="06.039972"><ele>-6.5</ele><time>2021-05-12T11:16:55Z</time><name>PT3850</name></trkpt>
<trkpt lat="53.098956" lon="06.039961"><ele>-6.4</ele><time>2021-05-12T11:16:56Z</time><name>PT3851</name></trkpt>
<trkpt lat="53.098970" lon="06.039949"><ele>-6.5</ele><time>2021-05-12T11:16:57Z</time><name>PT3852</name></trkpt>
<trkpt lat="53.098980" lon="06.039938"><ele>-6.5</ele><time>2021-05-12T11:16:58Z</time><name>PT3853</name></trkpt>
<trkpt lat="53.098988" lon="06.039927"><ele>-6.5</ele><time>2021-05-12T11:16:59Z</time><name>PT3854</name></trkpt>
<trkpt lat="53.098999" lon="06.039918"><ele>-6.5</ele><time>2021-05-12T11:17:00Z</time><name>PT3855</name></trkpt>
<trkpt lat="53.099006" lon="06.039914"><ele>-6.5</ele><time>2021-05-12T11:17:01Z</time><name>PT3856</name></trkpt>
<trkpt lat="53.099032" lon="06.039901"><ele>-6.4</ele><time>2021-05-12T11:17:02Z</time><name>PT3857</name></trkpt>
<trkpt lat="53.099045" lon="06.039892"><ele>-6.5</ele><time>2021-05-12T11:17:03Z</time><name>PT3858</name></trkpt>
<trkpt lat="53.099055" lon="06.039885"><ele>-6.3</ele><time>2021-05-12T11:17:04Z</time><name>PT3859</name></trkpt>
<trkpt lat="53.099071" lon="06.039876"><ele>-6.1</ele><time>2021-05-12T11:17:05Z</time><name>PT3860</name></trkpt>
<trkpt lat="53.099081" lon="06.039865"><ele>-6</ele><time>2021-05-12T11:17:06Z</time><name>PT3861</name></trkpt>
<trkpt lat="53.099092" lon="06.039854"><ele>-6</ele><time>2021-05-12T11:17:07Z</time><name>PT3862</name></trkpt>
<trkpt lat="53.099104" lon="06.039846"><ele>-5.9</ele><time>2021-05-12T11:17:08Z</time><name>PT3863</name></trkpt>
<trkpt lat="53.099112" lon="06.039836"><ele>-6</ele><time>2021-05-12T11:17:09Z</time><name>PT3864</name></trkpt>
<trkpt lat="53.099123" lon="06.039827"><ele>-6</ele><time>2021-05-12T11:17:10Z</time><name>PT3865</name></trkpt>
<trkpt lat="53.099132" lon="06.039822"><ele>-6</ele><time>2021-05-12T11:17:11Z</time><name>PT3866</name></trkpt>
<trkpt lat="53.099143" lon="06.039819"><ele>-6.1</ele><time>2021-05-12T11:17:12Z</time><name>PT3867</name></trkpt>
<trkpt lat="53.099150" lon="06.039810"><ele>-6</ele><time>2021-05-12T11:17:13Z</time><name>PT3868</name></trkpt>
<trkpt lat="53.099158" lon="06.039808"><ele>-5.8</ele><time>2021-05-12T11:17:14Z</time><name>PT3869</name></trkpt>
<trkpt lat="53.099161" lon="06.039800"><ele>-5.7</ele><time>2021-05-12T11:17:15Z</time><name>PT3870</name></trkpt>
<trkpt lat="53.099167" lon="06.039795"><ele>-5.6</ele><time>2021-05-12T11:17:16Z</time><name>PT3871</name></trkpt>
<trkpt lat="53.099179" lon="06.039784"><ele>-5.6</ele><time>2021-05-12T11:17:17Z</time><name>PT3872</name></trkpt>
<trkpt lat="53.099189" lon="06.039778"><ele>-5.4</ele><time>2021-05-12T11:17:18Z</time><name>PT3873</name></trkpt>
<trkpt lat="53.099192" lon="06.039772"><ele>-5.2</ele><time>2021-05-12T11:17:19Z</time><name>PT3874</name></trkpt>
<trkpt lat="53.099198" lon="06.039770"><ele>-5.1</ele><time>2021-05-12T11:17:20Z</time><name>PT3875</name></trkpt>
<trkpt lat="53.099196" lon="06.039768"><ele>-4.9</ele><time>2021-05-12T11:17:21Z</time><name>PT3876</name></trkpt>
<trkpt lat="53.099197" lon="06.039765"><ele>-4.8</ele><time>2021-05-12T11:17:22Z</time><name>PT3877</name></trkpt>
<trkpt lat="53.099199" lon="06.039760"><ele>-4.7</ele><time>2021-05-12T11:17:23Z</time><name>PT3878</name></trkpt>
<trkpt lat="53.099201" lon="06.039756"><ele>-4.6</ele><time>2021-05-12T11:17:24Z</time><name>PT3879</name></trkpt>
<trkpt lat="53.099202" lon="06.039751"><ele>-4.6</ele><time>2021-05-12T11:17:25Z</time><name>PT3880</name></trkpt>
<trkpt lat="53.099208" lon="06.039743"><ele>-4.2</ele><time>2021-05-12T11:17:26Z</time><name>PT3881</name></trkpt>
<trkpt lat="53.099211" lon="06.039736"><ele>-4.1</ele><time>2021-05-12T11:17:27Z</time><name>PT3882</name></trkpt>
<trkpt lat="53.099214" lon="06.039723"><ele>-4</ele><time>2021-05-12T11:17:28Z</time><name>PT3883</name></trkpt>
<trkpt lat="53.099219" lon="06.039713"><ele>-4</ele><time>2021-05-12T11:17:29Z</time><name>PT3884</name></trkpt>
<trkpt lat="53.099221" lon="06.039707"><ele>-4.1</ele><time>2021-05-12T11:17:30Z</time><name>PT3885</name></trkpt>
<trkpt lat="53.099226" lon="06.039700"><ele>-4.3</ele><time>2021-05-12T11:17:31Z</time><name>PT3886</name></trkpt>
<trkpt lat="53.099229" lon="06.039696"><ele>-4.4</ele><time>2021-05-12T11:17:32Z</time><name>PT3887</name></trkpt>
<trkpt lat="53.099229" lon="06.039687"><ele>-4.3</ele><time>2021-05-12T11:17:40Z</time><name>PT3888</name></trkpt>
<trkpt lat="53.099226" lon="06.039682"><ele>-4.3</ele><time>2021-05-12T11:17:41Z</time><name>PT3889</name></trkpt>
<trkpt lat="53.099226" lon="06.039677"><ele>-4.3</ele><time>2021-05-12T11:17:42Z</time><name>PT3890</name></trkpt>
<trkpt lat="53.099231" lon="06.039671"><ele>-4.5</ele><time>2021-05-12T11:17:43Z</time><name>PT3891</name></trkpt>
<trkpt lat="53.099233" lon="06.039663"><ele>-4.8</ele><time>2021-05-12T11:17:44Z</time><name>PT3892</name></trkpt>
<trkpt lat="53.099239" lon="06.039657"><ele>-5</ele><time>2021-05-12T11:17:49Z</time><name>PT3893</name></trkpt>
<trkpt lat="53.099248" lon="06.039650"><ele>-5.1</ele><time>2021-05-12T11:17:50Z</time><name>PT3894</name></trkpt>
<trkpt lat="53.099261" lon="06.039642"><ele>-5.2</ele><time>2021-05-12T11:17:51Z</time><name>PT3895</name></trkpt>
<trkpt lat="53.099272" lon="06.039634"><ele>-5.4</ele><time>2021-05-12T11:17:52Z</time><name>PT3896</name></trkpt>
<trkpt lat="53.099283" lon="06.039627"><ele>-5.5</ele><time>2021-05-12T11:17:53Z</time><name>PT3897</name></trkpt>
<trkpt lat="53.099291" lon="06.039622"><ele>-5.7</ele><time>2021-05-12T11:17:54Z</time><name>PT3898</name></trkpt>
<trkpt lat="53.099301" lon="06.039612"><ele>-5.7</ele><time>2021-05-12T11:17:55Z</time><name>PT3899</name></trkpt>
<trkpt lat="53.099307" lon="06.039606"><ele>-5.9</ele><time>2021-05-12T11:17:56Z</time><name>PT3900</name></trkpt>
<trkpt lat="53.099312" lon="06.039601"><ele>-6</ele><time>2021-05-12T11:17:57Z</time><name>PT3901</name></trkpt>
<trkpt lat="53.099315" lon="06.039592"><ele>-6</ele><time>2021-05-12T11:17:58Z</time><name>PT3902</name></trkpt>
<trkpt lat="53.099323" lon="06.039584"><ele>-6.1</ele><time>2021-05-12T11:17:59Z</time><name>PT3903</name></trkpt>
<trkpt lat="53.099329" lon="06.039580"><ele>-5.9</ele><time>2021-05-12T11:18:00Z</time><name>PT3904</name></trkpt>
<trkpt lat="53.099341" lon="06.039577"><ele>-5.9</ele><time>2021-05-12T11:18:01Z</time><name>PT3905</name></trkpt>
<trkpt lat="53.099351" lon="06.039575"><ele>-5.8</ele><time>2021-05-12T11:18:02Z</time><name>PT3906</name></trkpt>
<trkpt lat="53.099359" lon="06.039569"><ele>-5.7</ele><time>2021-05-12T11:18:03Z</time><name>PT3907</name></trkpt>
<trkpt lat="53.099370" lon="06.039563"><ele>-5.7</ele><time>2021-05-12T11:18:04Z</time><name>PT3908</name></trkpt>
<trkpt lat="53.099382" lon="06.039559"><ele>-5.8</ele><time>2021-05-12T11:18:05Z</time><name>PT3909</name></trkpt>
<trkpt lat="53.099393" lon="06.039557"><ele>-5.7</ele><time>2021-05-12T11:18:06Z</time><name>PT3910</name></trkpt>
<trkpt lat="53.099403" lon="06.039556"><ele>-5.6</ele><time>2021-05-12T11:18:07Z</time><name>PT3911</name></trkpt>
<trkpt lat="53.099411" lon="06.039554"><ele>-5.9</ele><time>2021-05-12T11:18:08Z</time><name>PT3912</name></trkpt>
<trkpt lat="53.099419" lon="06.039551"><ele>-6</ele><time>2021-05-12T11:18:09Z</time><name>PT3913</name></trkpt>
<trkpt lat="53.099433" lon="06.039549"><ele>-6</ele><time>2021-05-12T11:18:10Z</time><name>PT3914</name></trkpt>
<trkpt lat="53.099443" lon="06.039544"><ele>-6</ele><time>2021-05-12T11:18:11Z</time><name>PT3915</name></trkpt>
<trkpt lat="53.099456" lon="06.039539"><ele>-5.7</ele><time>2021-05-12T11:18:12Z</time><name>PT3916</name></trkpt>
<trkpt lat="53.099469" lon="06.039538"><ele>-5.6</ele><time>2021-05-12T11:18:13Z</time><name>PT3917</name></trkpt>
<trkpt lat="53.099482" lon="06.039536"><ele>-5.6</ele><time>2021-05-12T11:18:14Z</time><name>PT3918</name></trkpt>
<trkpt lat="53.099493" lon="06.039535"><ele>-5.8</ele><time>2021-05-12T11:18:15Z</time><name>PT3919</name></trkpt>
<trkpt lat="53.099502" lon="06.039527"><ele>-5.6</ele><time>2021-05-12T11:18:16Z</time><name>PT3920</name></trkpt>
<trkpt lat="53.099514" lon="06.039518"><ele>-5.6</ele><time>2021-05-12T11:18:17Z</time><name>PT3921</name></trkpt>
<trkpt lat="53.099523" lon="06.039512"><ele>-5.7</ele><time>2021-05-12T11:18:18Z</time><name>PT3922</name></trkpt>
<trkpt lat="53.099535" lon="06.039504"><ele>-5.6</ele><time>2021-05-12T11:18:19Z</time><name>PT3923</name></trkpt>
<trkpt lat="53.099547" lon="06.039496"><ele>-5.9</ele><time>2021-05-12T11:18:20Z</time><name>PT3924</name></trkpt>
<trkpt lat="53.099560" lon="06.039489"><ele>-6</ele><time>2021-05-12T11:18:21Z</time><name>PT3925</name></trkpt>
<trkpt lat="53.099571" lon="06.039483"><ele>-6.1</ele><time>2021-05-12T11:18:22Z</time><name>PT3926</name></trkpt>
<trkpt lat="53.099581" lon="06.039478"><ele>-6.3</ele><time>2021-05-12T11:18:23Z</time><name>PT3927</name></trkpt>
<trkpt lat="53.099589" lon="06.039474"><ele>-6.2</ele><time>2021-05-12T11:18:24Z</time><name>PT3928</name></trkpt>
<trkpt lat="53.099600" lon="06.039469"><ele>-6.2</ele><time>2021-05-12T11:18:25Z</time><name>PT3929</name></trkpt>
<trkpt lat="53.099612" lon="06.039466"><ele>-6.4</ele><time>2021-05-12T11:18:26Z</time><name>PT3930</name></trkpt>
<trkpt lat="53.099624" lon="06.039463"><ele>-6.3</ele><time>2021-05-12T11:18:27Z</time><name>PT3931</name></trkpt>
<trkpt lat="53.099635" lon="06.039459"><ele>-6.3</ele><time>2021-05-12T11:18:28Z</time><name>PT3932</name></trkpt>
<trkpt lat="53.099646" lon="06.039454"><ele>-6.2</ele><time>2021-05-12T11:18:29Z</time><name>PT3933</name></trkpt>
<trkpt lat="53.099653" lon="06.039451"><ele>-6.2</ele><time>2021-05-12T11:18:30Z</time><name>PT3934</name></trkpt>
<trkpt lat="53.099673" lon="06.039444"><ele>-6.2</ele><time>2021-05-12T11:18:31Z</time><name>PT3935</name></trkpt>
<trkpt lat="53.099683" lon="06.039435"><ele>-6.3</ele><time>2021-05-12T11:18:32Z</time><name>PT3936</name></trkpt>
<trkpt lat="53.099701" lon="06.039427"><ele>-6.2</ele><time>2021-05-12T11:18:33Z</time><name>PT3937</name></trkpt>
<trkpt lat="53.099710" lon="06.039421"><ele>-6.2</ele><time>2021-05-12T11:18:34Z</time><name>PT3938</name></trkpt>
<trkpt lat="53.099721" lon="06.039422"><ele>-6.1</ele><time>2021-05-12T11:18:35Z</time><name>PT3939</name></trkpt>
<trkpt lat="53.099727" lon="06.039421"><ele>-6</ele><time>2021-05-12T11:18:36Z</time><name>PT3940</name></trkpt>
<trkpt lat="53.099732" lon="06.039412"><ele>-6</ele><time>2021-05-12T11:18:37Z</time><name>PT3941</name></trkpt>
<trkpt lat="53.099741" lon="06.039410"><ele>-6.1</ele><time>2021-05-12T11:18:38Z</time><name>PT3942</name></trkpt>
<trkpt lat="53.099749" lon="06.039406"><ele>-6</ele><time>2021-05-12T11:18:39Z</time><name>PT3943</name></trkpt>
<trkpt lat="53.099759" lon="06.039402"><ele>-6.1</ele><time>2021-05-12T11:18:40Z</time><name>PT3944</name></trkpt>
<trkpt lat="53.099770" lon="06.039398"><ele>-6.2</ele><time>2021-05-12T11:18:41Z</time><name>PT3945</name></trkpt>
<trkpt lat="53.099792" lon="06.039389"><ele>-6.2</ele><time>2021-05-12T11:18:42Z</time><name>PT3946</name></trkpt>
<trkpt lat="53.099802" lon="06.039376"><ele>-6.4</ele><time>2021-05-12T11:18:43Z</time><name>PT3947</name></trkpt>
<trkpt lat="53.099813" lon="06.039365"><ele>-6.5</ele><time>2021-05-12T11:18:44Z</time><name>PT3948</name></trkpt>
<trkpt lat="53.099827" lon="06.039354"><ele>-6.4</ele><time>2021-05-12T11:18:45Z</time><name>PT3949</name></trkpt>
<trkpt lat="53.099839" lon="06.039346"><ele>-6.4</ele><time>2021-05-12T11:18:46Z</time><name>PT3950</name></trkpt>
<trkpt lat="53.099851" lon="06.039338"><ele>-6.4</ele><time>2021-05-12T11:18:47Z</time><name>PT3951</name></trkpt>
<trkpt lat="53.099863" lon="06.039332"><ele>-6.4</ele><time>2021-05-12T11:18:48Z</time><name>PT3952</name></trkpt>
<trkpt lat="53.099877" lon="06.039327"><ele>-6.4</ele><time>2021-05-12T11:18:49Z</time><name>PT3953</name></trkpt>
<trkpt lat="53.099886" lon="06.039321"><ele>-6.5</ele><time>2021-05-12T11:18:50Z</time><name>PT3954</name></trkpt>
<trkpt lat="53.099901" lon="06.039314"><ele>-6.5</ele><time>2021-05-12T11:18:51Z</time><name>PT3955</name></trkpt>
<trkpt lat="53.099910" lon="06.039307"><ele>-6.5</ele><time>2021-05-12T11:18:52Z</time><name>PT3956</name></trkpt>
<trkpt lat="53.099919" lon="06.039300"><ele>-6.5</ele><time>2021-05-12T11:18:53Z</time><name>PT3957</name></trkpt>
<trkpt lat="53.099931" lon="06.039292"><ele>-6.5</ele><time>2021-05-12T11:18:54Z</time><name>PT3958</name></trkpt>
<trkpt lat="53.099940" lon="06.039285"><ele>-6.4</ele><time>2021-05-12T11:18:55Z</time><name>PT3959</name></trkpt>
<trkpt lat="53.099952" lon="06.039279"><ele>-6.2</ele><time>2021-05-12T11:18:56Z</time><name>PT3960</name></trkpt>
<trkpt lat="53.099967" lon="06.039267"><ele>-6.2</ele><time>2021-05-12T11:18:57Z</time><name>PT3961</name></trkpt>
<trkpt lat="53.099987" lon="06.039255"><ele>-6.3</ele><time>2021-05-12T11:18:58Z</time><name>PT3962</name></trkpt>
<trkpt lat="53.099998" lon="06.039240"><ele>-6.2</ele><time>2021-05-12T11:18:59Z</time><name>PT3963</name></trkpt>
<trkpt lat="53.100010" lon="06.039228"><ele>-6.3</ele><time>2021-05-12T11:19:00Z</time><name>PT3964</name></trkpt>
<trkpt lat="53.100024" lon="06.039215"><ele>-6.2</ele><time>2021-05-12T11:19:01Z</time><name>PT3965</name></trkpt>
<trkpt lat="53.100032" lon="06.039203"><ele>-6</ele><time>2021-05-12T11:19:02Z</time><name>PT3966</name></trkpt>
<trkpt lat="53.100039" lon="06.039194"><ele>-6.1</ele><time>2021-05-12T11:19:03Z</time><name>PT3967</name></trkpt>
<trkpt lat="53.100051" lon="06.039182"><ele>-6</ele><time>2021-05-12T11:19:04Z</time><name>PT3968</name></trkpt>
<trkpt lat="53.100061" lon="06.039168"><ele>-6</ele><time>2021-05-12T11:19:05Z</time><name>PT3969</name></trkpt>
<trkpt lat="53.100068" lon="06.039152"><ele>-6.1</ele><time>2021-05-12T11:19:06Z</time><name>PT3970</name></trkpt>
<trkpt lat="53.100077" lon="06.039136"><ele>-6.3</ele><time>2021-05-12T11:19:07Z</time><name>PT3971</name></trkpt>
<trkpt lat="53.100082" lon="06.039121"><ele>-6.2</ele><time>2021-05-12T11:19:08Z</time><name>PT3972</name></trkpt>
<trkpt lat="53.100089" lon="06.039104"><ele>-6.2</ele><time>2021-05-12T11:19:09Z</time><name>PT3973</name></trkpt>
<trkpt lat="53.100095" lon="06.039086"><ele>-6.4</ele><time>2021-05-12T11:19:10Z</time><name>PT3974</name></trkpt>
<trkpt lat="53.100102" lon="06.039072"><ele>-6.4</ele><time>2021-05-12T11:19:11Z</time><name>PT3975</name></trkpt>
<trkpt lat="53.100107" lon="06.039060"><ele>-6.5</ele><time>2021-05-12T11:19:12Z</time><name>PT3976</name></trkpt>
<trkpt lat="53.100112" lon="06.039046"><ele>-6.4</ele><time>2021-05-12T11:19:13Z</time><name>PT3977</name></trkpt>
<trkpt lat="53.100116" lon="06.039028"><ele>-6.5</ele><time>2021-05-12T11:19:14Z</time><name>PT3978</name></trkpt>
<trkpt lat="53.100118" lon="06.039012"><ele>-6.5</ele><time>2021-05-12T11:19:15Z</time><name>PT3979</name></trkpt>
<trkpt lat="53.100117" lon="06.038994"><ele>-6.2</ele><time>2021-05-12T11:19:16Z</time><name>PT3980</name></trkpt>
<trkpt lat="53.100117" lon="06.038974"><ele>-6.4</ele><time>2021-05-12T11:19:17Z</time><name>PT3981</name></trkpt>
<trkpt lat="53.100119" lon="06.038958"><ele>-6.3</ele><time>2021-05-12T11:19:18Z</time><name>PT3982</name></trkpt>
<trkpt lat="53.100119" lon="06.038941"><ele>-6.5</ele><time>2021-05-12T11:19:19Z</time><name>PT3983</name></trkpt>
<trkpt lat="53.100120" lon="06.038923"><ele>-6.5</ele><time>2021-05-12T11:19:20Z</time><name>PT3984</name></trkpt>
<trkpt lat="53.100121" lon="06.038904"><ele>-6.5</ele><time>2021-05-12T11:19:21Z</time><name>PT3985</name></trkpt>
<trkpt lat="53.100121" lon="06.038887"><ele>-6.5</ele><time>2021-05-12T11:19:22Z</time><name>PT3986</name></trkpt>
<trkpt lat="53.100121" lon="06.038870"><ele>-6.5</ele><time>2021-05-12T11:19:23Z</time><name>PT3987</name></trkpt>
<trkpt lat="53.100121" lon="06.038855"><ele>-6.5</ele><time>2021-05-12T11:19:24Z</time><name>PT3988</name></trkpt>
<trkpt lat="53.100121" lon="06.038840"><ele>-6.5</ele><time>2021-05-12T11:19:25Z</time><name>PT3989</name></trkpt>
<trkpt lat="53.100121" lon="06.038824"><ele>-6.5</ele><time>2021-05-12T11:19:26Z</time><name>PT3990</name></trkpt>
<trkpt lat="53.100123" lon="06.038809"><ele>-6.5</ele><time>2021-05-12T11:19:27Z</time><name>PT3991</name></trkpt>
<trkpt lat="53.100122" lon="06.038791"><ele>-6.5</ele><time>2021-05-12T11:19:28Z</time><name>PT3992</name></trkpt>
<trkpt lat="53.100122" lon="06.038767"><ele>-6.5</ele><time>2021-05-12T11:19:29Z</time><name>PT3993</name></trkpt>
<trkpt lat="53.100120" lon="06.038747"><ele>-6.6</ele><time>2021-05-12T11:19:30Z</time><name>PT3994</name></trkpt>
<trkpt lat="53.100119" lon="06.038730"><ele>-6.7</ele><time>2021-05-12T11:19:31Z</time><name>PT3995</name></trkpt>
<trkpt lat="53.100118" lon="06.038712"><ele>-6.7</ele><time>2021-05-12T11:19:32Z</time><name>PT3996</name></trkpt>
<trkpt lat="53.100118" lon="06.038695"><ele>-6.6</ele><time>2021-05-12T11:19:33Z</time><name>PT3997</name></trkpt>
<trkpt lat="53.100119" lon="06.038675"><ele>-6.5</ele><time>2021-05-12T11:19:34Z</time><name>PT3998</name></trkpt>
<trkpt lat="53.100118" lon="06.038656"><ele>-6.6</ele><time>2021-05-12T11:19:35Z</time><name>PT3999</name></trkpt>
<trkpt lat="53.100120" lon="06.038642"><ele>-6.5</ele><time>2021-05-12T11:19:36Z</time><name>PT4000</name></trkpt>
<trkpt lat="53.100123" lon="06.038628"><ele>-6.5</ele><time>2021-05-12T11:19:37Z</time><name>PT4001</name></trkpt>
<trkpt lat="53.100124" lon="06.038615"><ele>-6.6</ele><time>2021-05-12T11:19:38Z</time><name>PT4002</name></trkpt>
<trkpt lat="53.100123" lon="06.038603"><ele>-6.4</ele><time>2021-05-12T11:19:39Z</time><name>PT4003</name></trkpt>
<trkpt lat="53.100120" lon="06.038590"><ele>-6.4</ele><time>2021-05-12T11:19:40Z</time><name>PT4004</name></trkpt>
<trkpt lat="53.100117" lon="06.038573"><ele>-6.5</ele><time>2021-05-12T11:19:41Z</time><name>PT4005</name></trkpt>
<trkpt lat="53.100116" lon="06.038558"><ele>-6.5</ele><time>2021-05-12T11:19:42Z</time><name>PT4006</name></trkpt>
<trkpt lat="53.100117" lon="06.038544"><ele>-6.3</ele><time>2021-05-12T11:19:43Z</time><name>PT4007</name></trkpt>
<trkpt lat="53.100117" lon="06.038525"><ele>-6.2</ele><time>2021-05-12T11:19:44Z</time><name>PT4008</name></trkpt>
<trkpt lat="53.100116" lon="06.038505"><ele>-6.1</ele><time>2021-05-12T11:19:45Z</time><name>PT4009</name></trkpt>
<trkpt lat="53.100116" lon="06.038487"><ele>-6.1</ele><time>2021-05-12T11:19:46Z</time><name>PT4010</name></trkpt>
<trkpt lat="53.100115" lon="06.038466"><ele>-6.4</ele><time>2021-05-12T11:19:47Z</time><name>PT4011</name></trkpt>
<trkpt lat="53.100112" lon="06.038443"><ele>-6.5</ele><time>2021-05-12T11:19:48Z</time><name>PT4012</name></trkpt>
<trkpt lat="53.100109" lon="06.038422"><ele>-6.4</ele><time>2021-05-12T11:19:49Z</time><name>PT4013</name></trkpt>
<trkpt lat="53.100104" lon="06.038400"><ele>-6.2</ele><time>2021-05-12T11:19:50Z</time><name>PT4014</name></trkpt>
<trkpt lat="53.100101" lon="06.038384"><ele>-6.4</ele><time>2021-05-12T11:19:51Z</time><name>PT4015</name></trkpt>
<trkpt lat="53.100098" lon="06.038357"><ele>-6.3</ele><time>2021-05-12T11:19:52Z</time><name>PT4016</name></trkpt>
<trkpt lat="53.100096" lon="06.038341"><ele>-6.5</ele><time>2021-05-12T11:19:53Z</time><name>PT4017</name></trkpt>
<trkpt lat="53.100094" lon="06.038324"><ele>-6.6</ele><time>2021-05-12T11:19:54Z</time><name>PT4018</name></trkpt>
<trkpt lat="53.100090" lon="06.038301"><ele>-6.5</ele><time>2021-05-12T11:19:55Z</time><name>PT4019</name></trkpt>
<trkpt lat="53.100088" lon="06.038284"><ele>-6.3</ele><time>2021-05-12T11:19:56Z</time><name>PT4020</name></trkpt>
<trkpt lat="53.100089" lon="06.038261"><ele>-6.2</ele><time>2021-05-12T11:19:57Z</time><name>PT4021</name></trkpt>
<trkpt lat="53.100087" lon="06.038235"><ele>-6.2</ele><time>2021-05-12T11:19:58Z</time><name>PT4022</name></trkpt>
<trkpt lat="53.100087" lon="06.038219"><ele>-6.3</ele><time>2021-05-12T11:19:59Z</time><name>PT4023</name></trkpt>
<trkpt lat="53.100087" lon="06.038201"><ele>-6.5</ele><time>2021-05-12T11:20:00Z</time><name>PT4024</name></trkpt>
<trkpt lat="53.100086" lon="06.038179"><ele>-6.4</ele><time>2021-05-12T11:20:01Z</time><name>PT4025</name></trkpt>
<trkpt lat="53.100083" lon="06.038159"><ele>-6.4</ele><time>2021-05-12T11:20:02Z</time><name>PT4026</name></trkpt>
<trkpt lat="53.100079" lon="06.038139"><ele>-6.5</ele><time>2021-05-12T11:20:03Z</time><name>PT4027</name></trkpt>
<trkpt lat="53.100077" lon="06.038118"><ele>-6.4</ele><time>2021-05-12T11:20:04Z</time><name>PT4028</name></trkpt>
<trkpt lat="53.100074" lon="06.038097"><ele>-6.4</ele><time>2021-05-12T11:20:05Z</time><name>PT4029</name></trkpt>
<trkpt lat="53.100072" lon="06.038076"><ele>-6.3</ele><time>2021-05-12T11:20:06Z</time><name>PT4030</name></trkpt>
<trkpt lat="53.100069" lon="06.038053"><ele>-6.3</ele><time>2021-05-12T11:20:07Z</time><name>PT4031</name></trkpt>
<trkpt lat="53.100065" lon="06.038036"><ele>-6.4</ele><time>2021-05-12T11:20:08Z</time><name>PT4032</name></trkpt>
<trkpt lat="53.100062" lon="06.038021"><ele>-6.4</ele><time>2021-05-12T11:20:09Z</time><name>PT4033</name></trkpt>
<trkpt lat="53.100061" lon="06.038004"><ele>-6.5</ele><time>2021-05-12T11:20:10Z</time><name>PT4034</name></trkpt>
<trkpt lat="53.100061" lon="06.037986"><ele>-6.4</ele><time>2021-05-12T11:20:11Z</time><name>PT4035</name></trkpt>
<trkpt lat="53.100061" lon="06.037968"><ele>-6.4</ele><time>2021-05-12T11:20:12Z</time><name>PT4036</name></trkpt>
<trkpt lat="53.100060" lon="06.037954"><ele>-6.3</ele><time>2021-05-12T11:20:13Z</time><name>PT4037</name></trkpt>
<trkpt lat="53.100057" lon="06.037936"><ele>-6.3</ele><time>2021-05-12T11:20:14Z</time><name>PT4038</name></trkpt>
<trkpt lat="53.100054" lon="06.037916"><ele>-6.2</ele><time>2021-05-12T11:20:15Z</time><name>PT4039</name></trkpt>
<trkpt lat="53.100053" lon="06.037887"><ele>-6.1</ele><time>2021-05-12T11:20:16Z</time><name>PT4040</name></trkpt>
<trkpt lat="53.100052" lon="06.037863"><ele>-5.9</ele><time>2021-05-12T11:20:17Z</time><name>PT4041</name></trkpt>
<trkpt lat="53.100047" lon="06.037840"><ele>-6</ele><time>2021-05-12T11:20:18Z</time><name>PT4042</name></trkpt>
<trkpt lat="53.100044" lon="06.037817"><ele>-6.1</ele><time>2021-05-12T11:20:19Z</time><name>PT4043</name></trkpt>
<trkpt lat="53.100043" lon="06.037796"><ele>-6.1</ele><time>2021-05-12T11:20:20Z</time><name>PT4044</name></trkpt>
<trkpt lat="53.100043" lon="06.037775"><ele>-6.4</ele><time>2021-05-12T11:20:21Z</time><name>PT4045</name></trkpt>
<trkpt lat="53.100044" lon="06.037750"><ele>-6.5</ele><time>2021-05-12T11:20:22Z</time><name>PT4046</name></trkpt>
<trkpt lat="53.100042" lon="06.037729"><ele>-6.5</ele><time>2021-05-12T11:20:23Z</time><name>PT4047</name></trkpt>
<trkpt lat="53.100038" lon="06.037710"><ele>-6.5</ele><time>2021-05-12T11:20:24Z</time><name>PT4048</name></trkpt>
<trkpt lat="53.100034" lon="06.037689"><ele>-6.4</ele><time>2021-05-12T11:20:25Z</time><name>PT4049</name></trkpt>
<trkpt lat="53.100032" lon="06.037662"><ele>-6.3</ele><time>2021-05-12T11:20:26Z</time><name>PT4050</name></trkpt>
<trkpt lat="53.100033" lon="06.037644"><ele>-6.4</ele><time>2021-05-12T11:20:27Z</time><name>PT4051</name></trkpt>
<trkpt lat="53.100032" lon="06.037621"><ele>-6.3</ele><time>2021-05-12T11:20:28Z</time><name>PT4052</name></trkpt>
<trkpt lat="53.100030" lon="06.037597"><ele>-6.2</ele><time>2021-05-12T11:20:29Z</time><name>PT4053</name></trkpt>
<trkpt lat="53.100029" lon="06.037571"><ele>-6.2</ele><time>2021-05-12T11:20:30Z</time><name>PT4054</name></trkpt>
<trkpt lat="53.100027" lon="06.037557"><ele>-6.1</ele><time>2021-05-12T11:20:31Z</time><name>PT4055</name></trkpt>
<trkpt lat="53.100024" lon="06.037540"><ele>-6</ele><time>2021-05-12T11:20:32Z</time><name>PT4056</name></trkpt>
<trkpt lat="53.100021" lon="06.037524"><ele>-6</ele><time>2021-05-12T11:20:33Z</time><name>PT4057</name></trkpt>
<trkpt lat="53.100021" lon="06.037512"><ele>-6</ele><time>2021-05-12T11:20:34Z</time><name>PT4058</name></trkpt>
<trkpt lat="53.100020" lon="06.037500"><ele>-5.9</ele><time>2021-05-12T11:20:35Z</time><name>PT4059</name></trkpt>
<trkpt lat="53.100020" lon="06.037484"><ele>-5.7</ele><time>2021-05-12T11:20:36Z</time><name>PT4060</name></trkpt>
<trkpt lat="53.100017" lon="06.037463"><ele>-5.7</ele><time>2021-05-12T11:20:37Z</time><name>PT4061</name></trkpt>
<trkpt lat="53.100016" lon="06.037442"><ele>-5.9</ele><time>2021-05-12T11:20:38Z</time><name>PT4062</name></trkpt>
<trkpt lat="53.100013" lon="06.037418"><ele>-6.1</ele><time>2021-05-12T11:20:39Z</time><name>PT4063</name></trkpt>
<trkpt lat="53.100010" lon="06.037392"><ele>-6.2</ele><time>2021-05-12T11:20:40Z</time><name>PT4064</name></trkpt>
<trkpt lat="53.100010" lon="06.037374"><ele>-6.4</ele><time>2021-05-12T11:20:41Z</time><name>PT4065</name></trkpt>
<trkpt lat="53.100008" lon="06.037345"><ele>-6.2</ele><time>2021-05-12T11:20:42Z</time><name>PT4066</name></trkpt>
<trkpt lat="53.100006" lon="06.037322"><ele>-6.3</ele><time>2021-05-12T11:20:43Z</time><name>PT4067</name></trkpt>
<trkpt lat="53.100008" lon="06.037301"><ele>-6.2</ele><time>2021-05-12T11:20:44Z</time><name>PT4068</name></trkpt>
<trkpt lat="53.100006" lon="06.037280"><ele>-6.1</ele><time>2021-05-12T11:20:45Z</time><name>PT4069</name></trkpt>
<trkpt lat="53.100005" lon="06.037263"><ele>-6.2</ele><time>2021-05-12T11:20:46Z</time><name>PT4070</name></trkpt>
<trkpt lat="53.100003" lon="06.037245"><ele>-6.4</ele><time>2021-05-12T11:20:47Z</time><name>PT4071</name></trkpt>
<trkpt lat="53.100000" lon="06.037223"><ele>-6.3</ele><time>2021-05-12T11:20:48Z</time><name>PT4072</name></trkpt>
<trkpt lat="53.100001" lon="06.037209"><ele>-6.3</ele><time>2021-05-12T11:20:49Z</time><name>PT4073</name></trkpt>
<trkpt lat="53.100001" lon="06.037194"><ele>-6.3</ele><time>2021-05-12T11:20:50Z</time><name>PT4074</name></trkpt>
<trkpt lat="53.099999" lon="06.037174"><ele>-6.2</ele><time>2021-05-12T11:20:51Z</time><name>PT4075</name></trkpt>
<trkpt lat="53.099997" lon="06.037143"><ele>-6.2</ele><time>2021-05-12T11:20:52Z</time><name>PT4076</name></trkpt>
<trkpt lat="53.099995" lon="06.037117"><ele>-6.3</ele><time>2021-05-12T11:20:53Z</time><name>PT4077</name></trkpt>
<trkpt lat="53.099992" lon="06.037099"><ele>-6.4</ele><time>2021-05-12T11:20:54Z</time><name>PT4078</name></trkpt>
<trkpt lat="53.099988" lon="06.037081"><ele>-6.5</ele><time>2021-05-12T11:20:55Z</time><name>PT4079</name></trkpt>
<trkpt lat="53.099982" lon="06.037058"><ele>-6.7</ele><time>2021-05-12T11:20:56Z</time><name>PT4080</name></trkpt>
<trkpt lat="53.099982" lon="06.037044"><ele>-6.7</ele><time>2021-05-12T11:20:57Z</time><name>PT4081</name></trkpt>
<trkpt lat="53.099978" lon="06.037021"><ele>-6.7</ele><time>2021-05-12T11:20:58Z</time><name>PT4082</name></trkpt>
<trkpt lat="53.099975" lon="06.037005"><ele>-6.6</ele><time>2021-05-12T11:20:59Z</time><name>PT4083</name></trkpt>
<trkpt lat="53.099968" lon="06.036981"><ele>-6.3</ele><time>2021-05-12T11:21:00Z</time><name>PT4084</name></trkpt>
<trkpt lat="53.099961" lon="06.036962"><ele>-6.3</ele><time>2021-05-12T11:21:01Z</time><name>PT4085</name></trkpt>
<trkpt lat="53.099953" lon="06.036941"><ele>-6.3</ele><time>2021-05-12T11:21:02Z</time><name>PT4086</name></trkpt>
<trkpt lat="53.099945" lon="06.036925"><ele>-6.2</ele><time>2021-05-12T11:21:03Z</time><name>PT4087</name></trkpt>
<trkpt lat="53.099936" lon="06.036908"><ele>-6.3</ele><time>2021-05-12T11:21:04Z</time><name>PT4088</name></trkpt>
<trkpt lat="53.099927" lon="06.036892"><ele>-6.4</ele><time>2021-05-12T11:21:05Z</time><name>PT4089</name></trkpt>
<trkpt lat="53.099916" lon="06.036873"><ele>-6.4</ele><time>2021-05-12T11:21:06Z</time><name>PT4090</name></trkpt>
<trkpt lat="53.099906" lon="06.036857"><ele>-6.3</ele><time>2021-05-12T11:21:07Z</time><name>PT4091</name></trkpt>
<trkpt lat="53.099896" lon="06.036845"><ele>-6.2</ele><time>2021-05-12T11:21:08Z</time><name>PT4092</name></trkpt>
<trkpt lat="53.099883" lon="06.036828"><ele>-6.1</ele><time>2021-05-12T11:21:09Z</time><name>PT4093</name></trkpt>
<trkpt lat="53.099873" lon="06.036817"><ele>-6.1</ele><time>2021-05-12T11:21:10Z</time><name>PT4094</name></trkpt>
<trkpt lat="53.099863" lon="06.036804"><ele>-6.3</ele><time>2021-05-12T11:21:11Z</time><name>PT4095</name></trkpt>
<trkpt lat="53.099854" lon="06.036791"><ele>-6.2</ele><time>2021-05-12T11:21:12Z</time><name>PT4096</name></trkpt>
<trkpt lat="53.099844" lon="06.036775"><ele>-6.3</ele><time>2021-05-12T11:21:13Z</time><name>PT4097</name></trkpt>
<trkpt lat="53.099833" lon="06.036762"><ele>-6</ele><time>2021-05-12T11:21:14Z</time><name>PT4098</name></trkpt>
<trkpt lat="53.099824" lon="06.036747"><ele>-6</ele><time>2021-05-12T11:21:15Z</time><name>PT4099</name></trkpt>
<trkpt lat="53.099816" lon="06.036737"><ele>-6</ele><time>2021-05-12T11:21:16Z</time><name>PT4100</name></trkpt>
<trkpt lat="53.099812" lon="06.036738"><ele>-6</ele><time>2021-05-12T11:21:17Z</time><name>PT4101</name></trkpt>
<trkpt lat="53.099809" lon="06.036738"><ele>-6.2</ele><time>2021-05-12T11:21:18Z</time><name>PT4102</name></trkpt>
<trkpt lat="53.099809" lon="06.036735"><ele>-6.2</ele><time>2021-05-12T11:21:19Z</time><name>PT4103</name></trkpt>
<trkpt lat="53.099807" lon="06.036729"><ele>-6.3</ele><time>2021-05-12T11:21:20Z</time><name>PT4104</name></trkpt>
<trkpt lat="53.099806" lon="06.036719"><ele>-6.4</ele><time>2021-05-12T11:21:21Z</time><name>PT4105</name></trkpt>
<trkpt lat="53.099807" lon="06.036705"><ele>-6.5</ele><time>2021-05-12T11:21:22Z</time><name>PT4106</name></trkpt>
<trkpt lat="53.099809" lon="06.036692"><ele>-6.4</ele><time>2021-05-12T11:21:23Z</time><name>PT4107</name></trkpt>
<trkpt lat="53.099809" lon="06.036676"><ele>-6.4</ele><time>2021-05-12T11:21:24Z</time><name>PT4108</name></trkpt>
<trkpt lat="53.099807" lon="06.036662"><ele>-6.4</ele><time>2021-05-12T11:21:25Z</time><name>PT4109</name></trkpt>
<trkpt lat="53.099811" lon="06.036648"><ele>-6.4</ele><time>2021-05-12T11:21:26Z</time><name>PT4110</name></trkpt>
<trkpt lat="53.099819" lon="06.036636"><ele>-6.3</ele><time>2021-05-12T11:21:27Z</time><name>PT4111</name></trkpt>
<trkpt lat="53.099826" lon="06.036625"><ele>-6.4</ele><time>2021-05-12T11:21:28Z</time><name>PT4112</name></trkpt>
<trkpt lat="53.099831" lon="06.036609"><ele>-6.4</ele><time>2021-05-12T11:21:29Z</time><name>PT4113</name></trkpt>
<trkpt lat="53.099835" lon="06.036598"><ele>-6.4</ele><time>2021-05-12T11:21:30Z</time><name>PT4114</name></trkpt>
<trkpt lat="53.099841" lon="06.036585"><ele>-6.4</ele><time>2021-05-12T11:21:31Z</time><name>PT4115</name></trkpt>
<trkpt lat="53.099846" lon="06.036572"><ele>-6.1</ele><time>2021-05-12T11:21:32Z</time><name>PT4116</name></trkpt>
<trkpt lat="53.099849" lon="06.036557"><ele>-5.8</ele><time>2021-05-12T11:21:33Z</time><name>PT4117</name></trkpt>
<trkpt lat="53.099854" lon="06.036542"><ele>-5.7</ele><time>2021-05-12T11:21:34Z</time><name>PT4118</name></trkpt>
<trkpt lat="53.099859" lon="06.036525"><ele>-5.6</ele><time>2021-05-12T11:21:35Z</time><name>PT4119</name></trkpt>
<trkpt lat="53.099864" lon="06.036508"><ele>-5.8</ele><time>2021-05-12T11:21:36Z</time><name>PT4120</name></trkpt>
<trkpt lat="53.099871" lon="06.036491"><ele>-5.9</ele><time>2021-05-12T11:21:37Z</time><name>PT4121</name></trkpt>
<trkpt lat="53.099876" lon="06.036474"><ele>-6.1</ele><time>2021-05-12T11:21:38Z</time><name>PT4122</name></trkpt>
<trkpt lat="53.099882" lon="06.036457"><ele>-6.2</ele><time>2021-05-12T11:21:39Z</time><name>PT4123</name></trkpt>
<trkpt lat="53.099889" lon="06.036439"><ele>-6.1</ele><time>2021-05-12T11:21:40Z</time><name>PT4124</name></trkpt>
<trkpt lat="53.099896" lon="06.036420"><ele>-6.1</ele><time>2021-05-12T11:21:41Z</time><name>PT4125</name></trkpt>
<trkpt lat="53.099903" lon="06.036400"><ele>-6</ele><time>2021-05-12T11:21:42Z</time><name>PT4126</name></trkpt>
<trkpt lat="53.099909" lon="06.036380"><ele>-6</ele><time>2021-05-12T11:21:43Z</time><name>PT4127</name></trkpt>
<trkpt lat="53.099914" lon="06.036364"><ele>-6.1</ele><time>2021-05-12T11:21:44Z</time><name>PT4128</name></trkpt>
<trkpt lat="53.099921" lon="06.036348"><ele>-6.2</ele><time>2021-05-12T11:21:45Z</time><name>PT4129</name></trkpt>
<trkpt lat="53.099930" lon="06.036335"><ele>-6.2</ele><time>2021-05-12T11:21:46Z</time><name>PT4130</name></trkpt>
<trkpt lat="53.099938" lon="06.036320"><ele>-6.3</ele><time>2021-05-12T11:21:47Z</time><name>PT4131</name></trkpt>
<trkpt lat="53.099945" lon="06.036304"><ele>-6.4</ele><time>2021-05-12T11:21:48Z</time><name>PT4132</name></trkpt>
<trkpt lat="53.099953" lon="06.036287"><ele>-6.5</ele><time>2021-05-12T11:21:49Z</time><name>PT4133</name></trkpt>
<trkpt lat="53.099962" lon="06.036271"><ele>-6.3</ele><time>2021-05-12T11:21:50Z</time><name>PT4134</name></trkpt>
<trkpt lat="53.099972" lon="06.036255"><ele>-6.4</ele><time>2021-05-12T11:21:51Z</time><name>PT4135</name></trkpt>
<trkpt lat="53.099981" lon="06.036241"><ele>-6.5</ele><time>2021-05-12T11:21:52Z</time><name>PT4136</name></trkpt>
<trkpt lat="53.099990" lon="06.036230"><ele>-6.7</ele><time>2021-05-12T11:21:53Z</time><name>PT4137</name></trkpt>
<trkpt lat="53.099997" lon="06.036219"><ele>-6.8</ele><time>2021-05-12T11:21:54Z</time><name>PT4138</name></trkpt>
<trkpt lat="53.100006" lon="06.036209"><ele>-6.8</ele><time>2021-05-12T11:21:55Z</time><name>PT4139</name></trkpt>
<trkpt lat="53.100016" lon="06.036196"><ele>-6.8</ele><time>2021-05-12T11:21:56Z</time><name>PT4140</name></trkpt>
<trkpt lat="53.100024" lon="06.036183"><ele>-6.7</ele><time>2021-05-12T11:21:57Z</time><name>PT4141</name></trkpt>
<trkpt lat="53.100033" lon="06.036171"><ele>-6.7</ele><time>2021-05-12T11:21:58Z</time><name>PT4142</name></trkpt>
<trkpt lat="53.100045" lon="06.036157"><ele>-6.9</ele><time>2021-05-12T11:21:59Z</time><name>PT4143</name></trkpt>
<trkpt lat="53.100054" lon="06.036144"><ele>-6.8</ele><time>2021-05-12T11:22:00Z</time><name>PT4144</name></trkpt>
<trkpt lat="53.100065" lon="06.036132"><ele>-6.9</ele><time>2021-05-12T11:22:01Z</time><name>PT4145</name></trkpt>
<trkpt lat="53.100076" lon="06.036119"><ele>-6.9</ele><time>2021-05-12T11:22:02Z</time><name>PT4146</name></trkpt>
<trkpt lat="53.100085" lon="06.036108"><ele>-6.6</ele><time>2021-05-12T11:22:03Z</time><name>PT4147</name></trkpt>
<trkpt lat="53.100093" lon="06.036102"><ele>-6.5</ele><time>2021-05-12T11:22:04Z</time><name>PT4148</name></trkpt>
<trkpt lat="53.100103" lon="06.036091"><ele>-6.4</ele><time>2021-05-12T11:22:05Z</time><name>PT4149</name></trkpt>
<trkpt lat="53.100113" lon="06.036083"><ele>-6.1</ele><time>2021-05-12T11:22:06Z</time><name>PT4150</name></trkpt>
<trkpt lat="53.100123" lon="06.036071"><ele>-6.1</ele><time>2021-05-12T11:22:07Z</time><name>PT4151</name></trkpt>
<trkpt lat="53.100133" lon="06.036060"><ele>-6</ele><time>2021-05-12T11:22:08Z</time><name>PT4152</name></trkpt>
<trkpt lat="53.100143" lon="06.036048"><ele>-6.2</ele><time>2021-05-12T11:22:09Z</time><name>PT4153</name></trkpt>
<trkpt lat="53.100153" lon="06.036036"><ele>-6.1</ele><time>2021-05-12T11:22:10Z</time><name>PT4154</name></trkpt>
<trkpt lat="53.100163" lon="06.036024"><ele>-6</ele><time>2021-05-12T11:22:11Z</time><name>PT4155</name></trkpt>
<trkpt lat="53.100174" lon="06.036010"><ele>-6</ele><time>2021-05-12T11:22:12Z</time><name>PT4156</name></trkpt>
<trkpt lat="53.100182" lon="06.036001"><ele>-5.9</ele><time>2021-05-12T11:22:13Z</time><name>PT4157</name></trkpt>
<trkpt lat="53.100192" lon="06.035989"><ele>-5.8</ele><time>2021-05-12T11:22:14Z</time><name>PT4158</name></trkpt>
<trkpt lat="53.100201" lon="06.035979"><ele>-6</ele><time>2021-05-12T11:22:15Z</time><name>PT4159</name></trkpt>
<trkpt lat="53.100211" lon="06.035968"><ele>-5.9</ele><time>2021-05-12T11:22:16Z</time><name>PT4160</name></trkpt>
<trkpt lat="53.100221" lon="06.035955"><ele>-6</ele><time>2021-05-12T11:22:17Z</time><name>PT4161</name></trkpt>
<trkpt lat="53.100232" lon="06.035943"><ele>-6</ele><time>2021-05-12T11:22:18Z</time><name>PT4162</name></trkpt>
<trkpt lat="53.100242" lon="06.035933"><ele>-5.9</ele><time>2021-05-12T11:22:19Z</time><name>PT4163</name></trkpt>
<trkpt lat="53.100252" lon="06.035919"><ele>-6</ele><time>2021-05-12T11:22:20Z</time><name>PT4164</name></trkpt>
<trkpt lat="53.100259" lon="06.035905"><ele>-6</ele><time>2021-05-12T11:22:21Z</time><name>PT4165</name></trkpt>
<trkpt lat="53.100267" lon="06.035892"><ele>-6.1</ele><time>2021-05-12T11:22:22Z</time><name>PT4166</name></trkpt>
<trkpt lat="53.100274" lon="06.035881"><ele>-6.2</ele><time>2021-05-12T11:22:23Z</time><name>PT4167</name></trkpt>
<trkpt lat="53.100281" lon="06.035868"><ele>-6.5</ele><time>2021-05-12T11:22:24Z</time><name>PT4168</name></trkpt>
<trkpt lat="53.100290" lon="06.035856"><ele>-6.5</ele><time>2021-05-12T11:22:25Z</time><name>PT4169</name></trkpt>
<trkpt lat="53.100298" lon="06.035842"><ele>-6.5</ele><time>2021-05-12T11:22:26Z</time><name>PT4170</name></trkpt>
<trkpt lat="53.100305" lon="06.035829"><ele>-6.5</ele><time>2021-05-12T11:22:27Z</time><name>PT4171</name></trkpt>
<trkpt lat="53.100311" lon="06.035812"><ele>-6.4</ele><time>2021-05-12T11:22:28Z</time><name>PT4172</name></trkpt>
<trkpt lat="53.100317" lon="06.035795"><ele>-6.4</ele><time>2021-05-12T11:22:29Z</time><name>PT4173</name></trkpt>
<trkpt lat="53.100325" lon="06.035780"><ele>-6.3</ele><time>2021-05-12T11:22:30Z</time><name>PT4174</name></trkpt>
<trkpt lat="53.100334" lon="06.035767"><ele>-6.3</ele><time>2021-05-12T11:22:31Z</time><name>PT4175</name></trkpt>
<trkpt lat="53.100341" lon="06.035752"><ele>-6.3</ele><time>2021-05-12T11:22:32Z</time><name>PT4176</name></trkpt>
<trkpt lat="53.100347" lon="06.035738"><ele>-6.2</ele><time>2021-05-12T11:22:33Z</time><name>PT4177</name></trkpt>
<trkpt lat="53.100356" lon="06.035723"><ele>-6.3</ele><time>2021-05-12T11:22:34Z</time><name>PT4178</name></trkpt>
<trkpt lat="53.100364" lon="06.035708"><ele>-6.4</ele><time>2021-05-12T11:22:35Z</time><name>PT4179</name></trkpt>
<trkpt lat="53.100371" lon="06.035691"><ele>-6.3</ele><time>2021-05-12T11:22:36Z</time><name>PT4180</name></trkpt>
<trkpt lat="53.100379" lon="06.035674"><ele>-6.1</ele><time>2021-05-12T11:22:37Z</time><name>PT4181</name></trkpt>
<trkpt lat="53.100387" lon="06.035658"><ele>-6</ele><time>2021-05-12T11:22:38Z</time><name>PT4182</name></trkpt>
<trkpt lat="53.100393" lon="06.035643"><ele>-5.9</ele><time>2021-05-12T11:22:39Z</time><name>PT4183</name></trkpt>
<trkpt lat="53.100399" lon="06.035628"><ele>-5.9</ele><time>2021-05-12T11:22:40Z</time><name>PT4184</name></trkpt>
<trkpt lat="53.100406" lon="06.035613"><ele>-6</ele><time>2021-05-12T11:22:41Z</time><name>PT4185</name></trkpt>
<trkpt lat="53.100413" lon="06.035598"><ele>-6</ele><time>2021-05-12T11:22:42Z</time><name>PT4186</name></trkpt>
<trkpt lat="53.100419" lon="06.035585"><ele>-6</ele><time>2021-05-12T11:22:43Z</time><name>PT4187</name></trkpt>
<trkpt lat="53.100425" lon="06.035570"><ele>-6.1</ele><time>2021-05-12T11:22:44Z</time><name>PT4188</name></trkpt>
<trkpt lat="53.100432" lon="06.035553"><ele>-6.4</ele><time>2021-05-12T11:22:45Z</time><name>PT4189</name></trkpt>
<trkpt lat="53.100438" lon="06.035536"><ele>-6.4</ele><time>2021-05-12T11:22:46Z</time><name>PT4190</name></trkpt>
<trkpt lat="53.100443" lon="06.035520"><ele>-6.7</ele><time>2021-05-12T11:22:47Z</time><name>PT4191</name></trkpt>
<trkpt lat="53.100450" lon="06.035505"><ele>-6.8</ele><time>2021-05-12T11:22:48Z</time><name>PT4192</name></trkpt>
<trkpt lat="53.100454" lon="06.035490"><ele>-6.8</ele><time>2021-05-12T11:22:49Z</time><name>PT4193</name></trkpt>
<trkpt lat="53.100460" lon="06.035473"><ele>-6.9</ele><time>2021-05-12T11:22:50Z</time><name>PT4194</name></trkpt>
<trkpt lat="53.100465" lon="06.035455"><ele>-6.8</ele><time>2021-05-12T11:22:51Z</time><name>PT4195</name></trkpt>
<trkpt lat="53.100470" lon="06.035440"><ele>-6.9</ele><time>2021-05-12T11:22:52Z</time><name>PT4196</name></trkpt>
<trkpt lat="53.100475" lon="06.035423"><ele>-6.9</ele><time>2021-05-12T11:22:53Z</time><name>PT4197</name></trkpt>
<trkpt lat="53.100479" lon="06.035405"><ele>-7</ele><time>2021-05-12T11:22:54Z</time><name>PT4198</name></trkpt>
<trkpt lat="53.100481" lon="06.035387"><ele>-6.9</ele><time>2021-05-12T11:22:55Z</time><name>PT4199</name></trkpt>
<trkpt lat="53.100483" lon="06.035369"><ele>-6.9</ele><time>2021-05-12T11:22:56Z</time><name>PT4200</name></trkpt>
<trkpt lat="53.100485" lon="06.035353"><ele>-6.9</ele><time>2021-05-12T11:22:57Z</time><name>PT4201</name></trkpt>
<trkpt lat="53.100487" lon="06.035337"><ele>-6.8</ele><time>2021-05-12T11:22:58Z</time><name>PT4202</name></trkpt>
<trkpt lat="53.100489" lon="06.035322"><ele>-6.5</ele><time>2021-05-12T11:22:59Z</time><name>PT4203</name></trkpt>
<trkpt lat="53.100491" lon="06.035307"><ele>-6.5</ele><time>2021-05-12T11:23:00Z</time><name>PT4204</name></trkpt>
<trkpt lat="53.100494" lon="06.035293"><ele>-6.6</ele><time>2021-05-12T11:23:01Z</time><name>PT4205</name></trkpt>
<trkpt lat="53.100498" lon="06.035279"><ele>-6.7</ele><time>2021-05-12T11:23:02Z</time><name>PT4206</name></trkpt>
<trkpt lat="53.100499" lon="06.035264"><ele>-6.9</ele><time>2021-05-12T11:23:03Z</time><name>PT4207</name></trkpt>
<trkpt lat="53.100499" lon="06.035249"><ele>-6.9</ele><time>2021-05-12T11:23:04Z</time><name>PT4208</name></trkpt>
<trkpt lat="53.100501" lon="06.035232"><ele>-7</ele><time>2021-05-12T11:23:05Z</time><name>PT4209</name></trkpt>
<trkpt lat="53.100504" lon="06.035217"><ele>-6.7</ele><time>2021-05-12T11:23:06Z</time><name>PT4210</name></trkpt>
<trkpt lat="53.100505" lon="06.035198"><ele>-6.6</ele><time>2021-05-12T11:23:07Z</time><name>PT4211</name></trkpt>
<trkpt lat="53.100507" lon="06.035182"><ele>-6.5</ele><time>2021-05-12T11:23:08Z</time><name>PT4212</name></trkpt>
<trkpt lat="53.100510" lon="06.035169"><ele>-6.5</ele><time>2021-05-12T11:23:09Z</time><name>PT4213</name></trkpt>
<trkpt lat="53.100511" lon="06.035153"><ele>-6.6</ele><time>2021-05-12T11:23:10Z</time><name>PT4214</name></trkpt>
<trkpt lat="53.100513" lon="06.035140"><ele>-6.6</ele><time>2021-05-12T11:23:11Z</time><name>PT4215</name></trkpt>
<trkpt lat="53.100513" lon="06.035124"><ele>-6.8</ele><time>2021-05-12T11:23:12Z</time><name>PT4216</name></trkpt>
<trkpt lat="53.100516" lon="06.035107"><ele>-6.6</ele><time>2021-05-12T11:23:13Z</time><name>PT4217</name></trkpt>
<trkpt lat="53.100518" lon="06.035089"><ele>-6.4</ele><time>2021-05-12T11:23:14Z</time><name>PT4218</name></trkpt>
<trkpt lat="53.100520" lon="06.035068"><ele>-6.5</ele><time>2021-05-12T11:23:15Z</time><name>PT4219</name></trkpt>
<trkpt lat="53.100523" lon="06.035049"><ele>-6.4</ele><time>2021-05-12T11:23:16Z</time><name>PT4220</name></trkpt>
<trkpt lat="53.100527" lon="06.035029"><ele>-6.2</ele><time>2021-05-12T11:23:17Z</time><name>PT4221</name></trkpt>
<trkpt lat="53.100529" lon="06.035011"><ele>-6.2</ele><time>2021-05-12T11:23:18Z</time><name>PT4222</name></trkpt>
<trkpt lat="53.100535" lon="06.034994"><ele>-6.1</ele><time>2021-05-12T11:23:19Z</time><name>PT4223</name></trkpt>
<trkpt lat="53.100541" lon="06.034975"><ele>-6.2</ele><time>2021-05-12T11:23:20Z</time><name>PT4224</name></trkpt>
<trkpt lat="53.100548" lon="06.034958"><ele>-6.2</ele><time>2021-05-12T11:23:21Z</time><name>PT4225</name></trkpt>
<trkpt lat="53.100554" lon="06.034940"><ele>-6.2</ele><time>2021-05-12T11:23:22Z</time><name>PT4226</name></trkpt>
<trkpt lat="53.100558" lon="06.034923"><ele>-6.1</ele><time>2021-05-12T11:23:23Z</time><name>PT4227</name></trkpt>
<trkpt lat="53.100562" lon="06.034905"><ele>-6.2</ele><time>2021-05-12T11:23:24Z</time><name>PT4228</name></trkpt>
<trkpt lat="53.100565" lon="06.034884"><ele>-6.2</ele><time>2021-05-12T11:23:25Z</time><name>PT4229</name></trkpt>
<trkpt lat="53.100568" lon="06.034865"><ele>-6.1</ele><time>2021-05-12T11:23:26Z</time><name>PT4230</name></trkpt>
<trkpt lat="53.100572" lon="06.034845"><ele>-6.1</ele><time>2021-05-12T11:23:27Z</time><name>PT4231</name></trkpt>
<trkpt lat="53.100576" lon="06.034828"><ele>-6.1</ele><time>2021-05-12T11:23:28Z</time><name>PT4232</name></trkpt>
<trkpt lat="53.100578" lon="06.034805"><ele>-6</ele><time>2021-05-12T11:23:29Z</time><name>PT4233</name></trkpt>
<trkpt lat="53.100584" lon="06.034784"><ele>-6.2</ele><time>2021-05-12T11:23:30Z</time><name>PT4234</name></trkpt>
<trkpt lat="53.100588" lon="06.034761"><ele>-6.2</ele><time>2021-05-12T11:23:31Z</time><name>PT4235</name></trkpt>
<trkpt lat="53.100592" lon="06.034739"><ele>-6.2</ele><time>2021-05-12T11:23:32Z</time><name>PT4236</name></trkpt>
<trkpt lat="53.100595" lon="06.034719"><ele>-6.3</ele><time>2021-05-12T11:23:33Z</time><name>PT4237</name></trkpt>
<trkpt lat="53.100598" lon="06.034699"><ele>-6.2</ele><time>2021-05-12T11:23:34Z</time><name>PT4238</name></trkpt>
<trkpt lat="53.100600" lon="06.034678"><ele>-6.3</ele><time>2021-05-12T11:23:35Z</time><name>PT4239</name></trkpt>
<trkpt lat="53.100603" lon="06.034657"><ele>-6.1</ele><time>2021-05-12T11:23:36Z</time><name>PT4240</name></trkpt>
<trkpt lat="53.100607" lon="06.034638"><ele>-6</ele><time>2021-05-12T11:23:37Z</time><name>PT4241</name></trkpt>
<trkpt lat="53.100611" lon="06.034618"><ele>-6</ele><time>2021-05-12T11:23:38Z</time><name>PT4242</name></trkpt>
<trkpt lat="53.100615" lon="06.034600"><ele>-6</ele><time>2021-05-12T11:23:39Z</time><name>PT4243</name></trkpt>
<trkpt lat="53.100620" lon="06.034585"><ele>-6</ele><time>2021-05-12T11:23:40Z</time><name>PT4244</name></trkpt>
<trkpt lat="53.100625" lon="06.034568"><ele>-6</ele><time>2021-05-12T11:23:41Z</time><name>PT4245</name></trkpt>
<trkpt lat="53.100629" lon="06.034551"><ele>-6</ele><time>2021-05-12T11:23:42Z</time><name>PT4246</name></trkpt>
<trkpt lat="53.100634" lon="06.034535"><ele>-6.1</ele><time>2021-05-12T11:23:43Z</time><name>PT4247</name></trkpt>
<trkpt lat="53.100637" lon="06.034516"><ele>-6.1</ele><time>2021-05-12T11:23:44Z</time><name>PT4248</name></trkpt>
<trkpt lat="53.100641" lon="06.034497"><ele>-6</ele><time>2021-05-12T11:23:45Z</time><name>PT4249</name></trkpt>
<trkpt lat="53.100645" lon="06.034479"><ele>-5.8</ele><time>2021-05-12T11:23:46Z</time><name>PT4250</name></trkpt>
<trkpt lat="53.100650" lon="06.034461"><ele>-5.6</ele><time>2021-05-12T11:23:47Z</time><name>PT4251</name></trkpt>
<trkpt lat="53.100654" lon="06.034445"><ele>-5.7</ele><time>2021-05-12T11:23:48Z</time><name>PT4252</name></trkpt>
<trkpt lat="53.100659" lon="06.034430"><ele>-5.8</ele><time>2021-05-12T11:23:49Z</time><name>PT4253</name></trkpt>
<trkpt lat="53.100664" lon="06.034415"><ele>-6</ele><time>2021-05-12T11:23:50Z</time><name>PT4254</name></trkpt>
<trkpt lat="53.100669" lon="06.034397"><ele>-6</ele><time>2021-05-12T11:23:51Z</time><name>PT4255</name></trkpt>
<trkpt lat="53.100675" lon="06.034382"><ele>-6</ele><time>2021-05-12T11:23:52Z</time><name>PT4256</name></trkpt>
<trkpt lat="53.100681" lon="06.034362"><ele>-6</ele><time>2021-05-12T11:23:53Z</time><name>PT4257</name></trkpt>
<trkpt lat="53.100687" lon="06.034342"><ele>-5.9</ele><time>2021-05-12T11:23:54Z</time><name>PT4258</name></trkpt>
<trkpt lat="53.100692" lon="06.034324"><ele>-6</ele><time>2021-05-12T11:23:55Z</time><name>PT4259</name></trkpt>
<trkpt lat="53.100697" lon="06.034307"><ele>-6.1</ele><time>2021-05-12T11:23:56Z</time><name>PT4260</name></trkpt>
<trkpt lat="53.100701" lon="06.034293"><ele>-6.1</ele><time>2021-05-12T11:23:57Z</time><name>PT4261</name></trkpt>
<trkpt lat="53.100704" lon="06.034276"><ele>-6.2</ele><time>2021-05-12T11:23:58Z</time><name>PT4262</name></trkpt>
<trkpt lat="53.100708" lon="06.034259"><ele>-6.3</ele><time>2021-05-12T11:23:59Z</time><name>PT4263</name></trkpt>
<trkpt lat="53.100713" lon="06.034240"><ele>-6.2</ele><time>2021-05-12T11:24:00Z</time><name>PT4264</name></trkpt>
<trkpt lat="53.100717" lon="06.034221"><ele>-6.2</ele><time>2021-05-12T11:24:01Z</time><name>PT4265</name></trkpt>
<trkpt lat="53.100723" lon="06.034207"><ele>-6.1</ele><time>2021-05-12T11:24:02Z</time><name>PT4266</name></trkpt>
<trkpt lat="53.100727" lon="06.034192"><ele>-6.1</ele><time>2021-05-12T11:24:03Z</time><name>PT4267</name></trkpt>
<trkpt lat="53.100732" lon="06.034178"><ele>-6.2</ele><time>2021-05-12T11:24:04Z</time><name>PT4268</name></trkpt>
<trkpt lat="53.100737" lon="06.034164"><ele>-6</ele><time>2021-05-12T11:24:05Z</time><name>PT4269</name></trkpt>
<trkpt lat="53.100742" lon="06.034148"><ele>-6</ele><time>2021-05-12T11:24:06Z</time><name>PT4270</name></trkpt>
<trkpt lat="53.100746" lon="06.034129"><ele>-6</ele><time>2021-05-12T11:24:07Z</time><name>PT4271</name></trkpt>
<trkpt lat="53.100750" lon="06.034109"><ele>-6.1</ele><time>2021-05-12T11:24:08Z</time><name>PT4272</name></trkpt>
<trkpt lat="53.100755" lon="06.034091"><ele>-6.4</ele><time>2021-05-12T11:24:09Z</time><name>PT4273</name></trkpt>
<trkpt lat="53.100760" lon="06.034072"><ele>-6.4</ele><time>2021-05-12T11:24:10Z</time><name>PT4274</name></trkpt>
<trkpt lat="53.100766" lon="06.034054"><ele>-6.4</ele><time>2021-05-12T11:24:11Z</time><name>PT4275</name></trkpt>
<trkpt lat="53.100772" lon="06.034036"><ele>-6.5</ele><time>2021-05-12T11:24:12Z</time><name>PT4276</name></trkpt>
<trkpt lat="53.100777" lon="06.034020"><ele>-6.3</ele><time>2021-05-12T11:24:13Z</time><name>PT4277</name></trkpt>
<trkpt lat="53.100781" lon="06.034000"><ele>-6.5</ele><time>2021-05-12T11:24:14Z</time><name>PT4278</name></trkpt>
<trkpt lat="53.100785" lon="06.033978"><ele>-6.4</ele><time>2021-05-12T11:24:15Z</time><name>PT4279</name></trkpt>
<trkpt lat="53.100788" lon="06.033958"><ele>-6.4</ele><time>2021-05-12T11:24:16Z</time><name>PT4280</name></trkpt>
<trkpt lat="53.100792" lon="06.033940"><ele>-6.4</ele><time>2021-05-12T11:24:17Z</time><name>PT4281</name></trkpt>
<trkpt lat="53.100796" lon="06.033922"><ele>-6.3</ele><time>2021-05-12T11:24:18Z</time><name>PT4282</name></trkpt>
<trkpt lat="53.100798" lon="06.033906"><ele>-6.2</ele><time>2021-05-12T11:24:19Z</time><name>PT4283</name></trkpt>
<trkpt lat="53.100799" lon="06.033890"><ele>-6.2</ele><time>2021-05-12T11:24:20Z</time><name>PT4284</name></trkpt>
<trkpt lat="53.100802" lon="06.033874"><ele>-6.1</ele><time>2021-05-12T11:24:21Z</time><name>PT4285</name></trkpt>
<trkpt lat="53.100805" lon="06.033856"><ele>-6.1</ele><time>2021-05-12T11:24:22Z</time><name>PT4286</name></trkpt>
<trkpt lat="53.100809" lon="06.033839"><ele>-6.1</ele><time>2021-05-12T11:24:23Z</time><name>PT4287</name></trkpt>
<trkpt lat="53.100811" lon="06.033821"><ele>-6</ele><time>2021-05-12T11:24:24Z</time><name>PT4288</name></trkpt>
<trkpt lat="53.100813" lon="06.033805"><ele>-6.1</ele><time>2021-05-12T11:24:25Z</time><name>PT4289</name></trkpt>
<trkpt lat="53.100814" lon="06.033789"><ele>-6</ele><time>2021-05-12T11:24:26Z</time><name>PT4290</name></trkpt>
<trkpt lat="53.100814" lon="06.033770"><ele>-6</ele><time>2021-05-12T11:24:27Z</time><name>PT4291</name></trkpt>
<trkpt lat="53.100812" lon="06.033751"><ele>-6</ele><time>2021-05-12T11:24:28Z</time><name>PT4292</name></trkpt>
<trkpt lat="53.100812" lon="06.033732"><ele>-6</ele><time>2021-05-12T11:24:29Z</time><name>PT4293</name></trkpt>
<trkpt lat="53.100811" lon="06.033720"><ele>-6</ele><time>2021-05-12T11:24:30Z</time><name>PT4294</name></trkpt>
<trkpt lat="53.100810" lon="06.033705"><ele>-6</ele><time>2021-05-12T11:24:31Z</time><name>PT4295</name></trkpt>
<trkpt lat="53.100809" lon="06.033688"><ele>-5.6</ele><time>2021-05-12T11:24:32Z</time><name>PT4296</name></trkpt>
<trkpt lat="53.100808" lon="06.033669"><ele>-5.6</ele><time>2021-05-12T11:24:33Z</time><name>PT4297</name></trkpt>
<trkpt lat="53.100807" lon="06.033648"><ele>-5.5</ele><time>2021-05-12T11:24:34Z</time><name>PT4298</name></trkpt>
<trkpt lat="53.100806" lon="06.033629"><ele>-5.3</ele><time>2021-05-12T11:24:35Z</time><name>PT4299</name></trkpt>
<trkpt lat="53.100804" lon="06.033607"><ele>-5.2</ele><time>2021-05-12T11:24:36Z</time><name>PT4300</name></trkpt>
<trkpt lat="53.100801" lon="06.033591"><ele>-5.2</ele><time>2021-05-12T11:24:37Z</time><name>PT4301</name></trkpt>
<trkpt lat="53.100800" lon="06.033576"><ele>-5.1</ele><time>2021-05-12T11:24:38Z</time><name>PT4302</name></trkpt>
<trkpt lat="53.100798" lon="06.033559"><ele>-5.4</ele><time>2021-05-12T11:24:39Z</time><name>PT4303</name></trkpt>
<trkpt lat="53.100796" lon="06.033541"><ele>-5.5</ele><time>2021-05-12T11:24:40Z</time><name>PT4304</name></trkpt>
<trkpt lat="53.100794" lon="06.033524"><ele>-5.4</ele><time>2021-05-12T11:24:41Z</time><name>PT4305</name></trkpt>
<trkpt lat="53.100791" lon="06.033505"><ele>-5.4</ele><time>2021-05-12T11:24:42Z</time><name>PT4306</name></trkpt>
<trkpt lat="53.100789" lon="06.033488"><ele>-5.6</ele><time>2021-05-12T11:24:43Z</time><name>PT4307</name></trkpt>
<trkpt lat="53.100786" lon="06.033473"><ele>-5.4</ele><time>2021-05-12T11:24:44Z</time><name>PT4308</name></trkpt>
<trkpt lat="53.100785" lon="06.033455"><ele>-5.4</ele><time>2021-05-12T11:24:45Z</time><name>PT4309</name></trkpt>
<trkpt lat="53.100783" lon="06.033438"><ele>-5.3</ele><time>2021-05-12T11:24:46Z</time><name>PT4310</name></trkpt>
<trkpt lat="53.100782" lon="06.033419"><ele>-5.3</ele><time>2021-05-12T11:24:47Z</time><name>PT4311</name></trkpt>
<trkpt lat="53.100781" lon="06.033401"><ele>-5.3</ele><time>2021-05-12T11:24:48Z</time><name>PT4312</name></trkpt>
<trkpt lat="53.100780" lon="06.033385"><ele>-5.5</ele><time>2021-05-12T11:24:49Z</time><name>PT4313</name></trkpt>
<trkpt lat="53.100777" lon="06.033369"><ele>-5.7</ele><time>2021-05-12T11:24:50Z</time><name>PT4314</name></trkpt>
<trkpt lat="53.100773" lon="06.033352"><ele>-5.7</ele><time>2021-05-12T11:24:51Z</time><name>PT4315</name></trkpt>
<trkpt lat="53.100769" lon="06.033335"><ele>-5.6</ele><time>2021-05-12T11:24:52Z</time><name>PT4316</name></trkpt>
<trkpt lat="53.100766" lon="06.033319"><ele>-5.6</ele><time>2021-05-12T11:24:53Z</time><name>PT4317</name></trkpt>
<trkpt lat="53.100764" lon="06.033298"><ele>-5.6</ele><time>2021-05-12T11:24:54Z</time><name>PT4318</name></trkpt>
<trkpt lat="53.100761" lon="06.033279"><ele>-5.5</ele><time>2021-05-12T11:24:55Z</time><name>PT4319</name></trkpt>
<trkpt lat="53.100758" lon="06.033262"><ele>-5.8</ele><time>2021-05-12T11:24:56Z</time><name>PT4320</name></trkpt>
<trkpt lat="53.100755" lon="06.033243"><ele>-5.7</ele><time>2021-05-12T11:24:57Z</time><name>PT4321</name></trkpt>
<trkpt lat="53.100753" lon="06.033227"><ele>-5.8</ele><time>2021-05-12T11:24:58Z</time><name>PT4322</name></trkpt>
<trkpt lat="53.100751" lon="06.033208"><ele>-6</ele><time>2021-05-12T11:24:59Z</time><name>PT4323</name></trkpt>
<trkpt lat="53.100749" lon="06.033188"><ele>-5.7</ele><time>2021-05-12T11:25:00Z</time><name>PT4324</name></trkpt>
<trkpt lat="53.100746" lon="06.033164"><ele>-5.9</ele><time>2021-05-12T11:25:01Z</time><name>PT4325</name></trkpt>
<trkpt lat="53.100742" lon="06.033144"><ele>-5.7</ele><time>2021-05-12T11:25:02Z</time><name>PT4326</name></trkpt>
<trkpt lat="53.100738" lon="06.033123"><ele>-5.6</ele><time>2021-05-12T11:25:03Z</time><name>PT4327</name></trkpt>
<trkpt lat="53.100732" lon="06.033102"><ele>-5.5</ele><time>2021-05-12T11:25:04Z</time><name>PT4328</name></trkpt>
<trkpt lat="53.100726" lon="06.033082"><ele>-5.4</ele><time>2021-05-12T11:25:05Z</time><name>PT4329</name></trkpt>
<trkpt lat="53.100721" lon="06.033060"><ele>-5.5</ele><time>2021-05-12T11:25:06Z</time><name>PT4330</name></trkpt>
<trkpt lat="53.100716" lon="06.033041"><ele>-5.5</ele><time>2021-05-12T11:25:07Z</time><name>PT4331</name></trkpt>
<trkpt lat="53.100713" lon="06.033022"><ele>-5.5</ele><time>2021-05-12T11:25:08Z</time><name>PT4332</name></trkpt>
<trkpt lat="53.100709" lon="06.033005"><ele>-5.5</ele><time>2021-05-12T11:25:09Z</time><name>PT4333</name></trkpt>
<trkpt lat="53.100707" lon="06.032986"><ele>-5.4</ele><time>2021-05-12T11:25:10Z</time><name>PT4334</name></trkpt>
<trkpt lat="53.100702" lon="06.032967"><ele>-5.2</ele><time>2021-05-12T11:25:11Z</time><name>PT4335</name></trkpt>
<trkpt lat="53.100697" lon="06.032946"><ele>-5.1</ele><time>2021-05-12T11:25:12Z</time><name>PT4336</name></trkpt>
<trkpt lat="53.100692" lon="06.032923"><ele>-5.1</ele><time>2021-05-12T11:25:13Z</time><name>PT4337</name></trkpt>
<trkpt lat="53.100686" lon="06.032902"><ele>-5.1</ele><time>2021-05-12T11:25:14Z</time><name>PT4338</name></trkpt>
<trkpt lat="53.100681" lon="06.032882"><ele>-5.2</ele><time>2021-05-12T11:25:15Z</time><name>PT4339</name></trkpt>
<trkpt lat="53.100675" lon="06.032861"><ele>-5.4</ele><time>2021-05-12T11:25:16Z</time><name>PT4340</name></trkpt>
<trkpt lat="53.100670" lon="06.032841"><ele>-5.5</ele><time>2021-05-12T11:25:17Z</time><name>PT4341</name></trkpt>
<trkpt lat="53.100662" lon="06.032817"><ele>-5.6</ele><time>2021-05-12T11:25:18Z</time><name>PT4342</name></trkpt>
<trkpt lat="53.100655" lon="06.032793"><ele>-5.6</ele><time>2021-05-12T11:25:19Z</time><name>PT4343</name></trkpt>
<trkpt lat="53.100648" lon="06.032771"><ele>-5.7</ele><time>2021-05-12T11:25:20Z</time><name>PT4344</name></trkpt>
<trkpt lat="53.100643" lon="06.032754"><ele>-5.8</ele><time>2021-05-12T11:25:21Z</time><name>PT4345</name></trkpt>
<trkpt lat="53.100637" lon="06.032739"><ele>-5.8</ele><time>2021-05-12T11:25:22Z</time><name>PT4346</name></trkpt>
<trkpt lat="53.100631" lon="06.032723"><ele>-5.7</ele><time>2021-05-12T11:25:23Z</time><name>PT4347</name></trkpt>
<trkpt lat="53.100626" lon="06.032707"><ele>-5.6</ele><time>2021-05-12T11:25:24Z</time><name>PT4348</name></trkpt>
<trkpt lat="53.100621" lon="06.032688"><ele>-5.6</ele><time>2021-05-12T11:25:25Z</time><name>PT4349</name></trkpt>
<trkpt lat="53.100614" lon="06.032670"><ele>-5.6</ele><time>2021-05-12T11:25:26Z</time><name>PT4350</name></trkpt>
<trkpt lat="53.100610" lon="06.032652"><ele>-5.8</ele><time>2021-05-12T11:25:27Z</time><name>PT4351</name></trkpt>
<trkpt lat="53.100605" lon="06.032635"><ele>-5.9</ele><time>2021-05-12T11:25:28Z</time><name>PT4352</name></trkpt>
<trkpt lat="53.100600" lon="06.032619"><ele>-5.8</ele><time>2021-05-12T11:25:29Z</time><name>PT4353</name></trkpt>
<trkpt lat="53.100592" lon="06.032603"><ele>-5.8</ele><time>2021-05-12T11:25:30Z</time><name>PT4354</name></trkpt>
<trkpt lat="53.100584" lon="06.032585"><ele>-5.8</ele><time>2021-05-12T11:25:31Z</time><name>PT4355</name></trkpt>
<trkpt lat="53.100577" lon="06.032564"><ele>-5.7</ele><time>2021-05-12T11:25:32Z</time><name>PT4356</name></trkpt>
<trkpt lat="53.100570" lon="06.032540"><ele>-5.6</ele><time>2021-05-12T11:25:33Z</time><name>PT4357</name></trkpt>
<trkpt lat="53.100564" lon="06.032523"><ele>-5.6</ele><time>2021-05-12T11:25:34Z</time><name>PT4358</name></trkpt>
<trkpt lat="53.100556" lon="06.032499"><ele>-5.7</ele><time>2021-05-12T11:25:35Z</time><name>PT4359</name></trkpt>
<trkpt lat="53.100551" lon="06.032479"><ele>-5.5</ele><time>2021-05-12T11:25:36Z</time><name>PT4360</name></trkpt>
<trkpt lat="53.100548" lon="06.032462"><ele>-5.6</ele><time>2021-05-12T11:25:37Z</time><name>PT4361</name></trkpt>
<trkpt lat="53.100544" lon="06.032444"><ele>-5.6</ele><time>2021-05-12T11:25:38Z</time><name>PT4362</name></trkpt>
<trkpt lat="53.100539" lon="06.032429"><ele>-5.6</ele><time>2021-05-12T11:25:39Z</time><name>PT4363</name></trkpt>
<trkpt lat="53.100535" lon="06.032414"><ele>-5.6</ele><time>2021-05-12T11:25:40Z</time><name>PT4364</name></trkpt>
<trkpt lat="53.100530" lon="06.032395"><ele>-5.5</ele><time>2021-05-12T11:25:41Z</time><name>PT4365</name></trkpt>
<trkpt lat="53.100522" lon="06.032376"><ele>-5.6</ele><time>2021-05-12T11:25:42Z</time><name>PT4366</name></trkpt>
<trkpt lat="53.100514" lon="06.032357"><ele>-5.6</ele><time>2021-05-12T11:25:43Z</time><name>PT4367</name></trkpt>
<trkpt lat="53.100509" lon="06.032338"><ele>-5.6</ele><time>2021-05-12T11:25:44Z</time><name>PT4368</name></trkpt>
<trkpt lat="53.100506" lon="06.032321"><ele>-5.6</ele><time>2021-05-12T11:25:45Z</time><name>PT4369</name></trkpt>
<trkpt lat="53.100503" lon="06.032303"><ele>-5.6</ele><time>2021-05-12T11:25:46Z</time><name>PT4370</name></trkpt>
<trkpt lat="53.100499" lon="06.032286"><ele>-5.6</ele><time>2021-05-12T11:25:47Z</time><name>PT4371</name></trkpt>
<trkpt lat="53.100494" lon="06.032271"><ele>-5.6</ele><time>2021-05-12T11:25:48Z</time><name>PT4372</name></trkpt>
<trkpt lat="53.100492" lon="06.032254"><ele>-5.6</ele><time>2021-05-12T11:25:49Z</time><name>PT4373</name></trkpt>
<trkpt lat="53.100490" lon="06.032235"><ele>-5.6</ele><time>2021-05-12T11:25:50Z</time><name>PT4374</name></trkpt>
<trkpt lat="53.100489" lon="06.032218"><ele>-5.5</ele><time>2021-05-12T11:25:51Z</time><name>PT4375</name></trkpt>
<trkpt lat="53.100487" lon="06.032199"><ele>-5.5</ele><time>2021-05-12T11:25:52Z</time><name>PT4376</name></trkpt>
<trkpt lat="53.100487" lon="06.032179"><ele>-5.6</ele><time>2021-05-12T11:25:53Z</time><name>PT4377</name></trkpt>
<trkpt lat="53.100487" lon="06.032161"><ele>-5.5</ele><time>2021-05-12T11:25:54Z</time><name>PT4378</name></trkpt>
<trkpt lat="53.100487" lon="06.032141"><ele>-5.6</ele><time>2021-05-12T11:25:55Z</time><name>PT4379</name></trkpt>
<trkpt lat="53.100487" lon="06.032124"><ele>-5.6</ele><time>2021-05-12T11:25:56Z</time><name>PT4380</name></trkpt>
<trkpt lat="53.100488" lon="06.032106"><ele>-5.5</ele><time>2021-05-12T11:25:57Z</time><name>PT4381</name></trkpt>
<trkpt lat="53.100489" lon="06.032087"><ele>-5.6</ele><time>2021-05-12T11:25:58Z</time><name>PT4382</name></trkpt>
<trkpt lat="53.100493" lon="06.032070"><ele>-5.4</ele><time>2021-05-12T11:25:59Z</time><name>PT4383</name></trkpt>
<trkpt lat="53.100495" lon="06.032052"><ele>-5.6</ele><time>2021-05-12T11:26:00Z</time><name>PT4384</name></trkpt>
<trkpt lat="53.100498" lon="06.032033"><ele>-5.6</ele><time>2021-05-12T11:26:01Z</time><name>PT4385</name></trkpt>
<trkpt lat="53.100500" lon="06.032014"><ele>-5.5</ele><time>2021-05-12T11:26:02Z</time><name>PT4386</name></trkpt>
<trkpt lat="53.100504" lon="06.031995"><ele>-5.7</ele><time>2021-05-12T11:26:03Z</time><name>PT4387</name></trkpt>
<trkpt lat="53.100506" lon="06.031975"><ele>-5.8</ele><time>2021-05-12T11:26:04Z</time><name>PT4388</name></trkpt>
<trkpt lat="53.100509" lon="06.031956"><ele>-5.7</ele><time>2021-05-12T11:26:05Z</time><name>PT4389</name></trkpt>
<trkpt lat="53.100512" lon="06.031938"><ele>-5.6</ele><time>2021-05-12T11:26:06Z</time><name>PT4390</name></trkpt>
<trkpt lat="53.100515" lon="06.031917"><ele>-5.6</ele><time>2021-05-12T11:26:07Z</time><name>PT4391</name></trkpt>
<trkpt lat="53.100519" lon="06.031899"><ele>-5.6</ele><time>2021-05-12T11:26:08Z</time><name>PT4392</name></trkpt>
<trkpt lat="53.100523" lon="06.031884"><ele>-5.5</ele><time>2021-05-12T11:26:09Z</time><name>PT4393</name></trkpt>
<trkpt lat="53.100527" lon="06.031867"><ele>-5.4</ele><time>2021-05-12T11:26:10Z</time><name>PT4394</name></trkpt>
<trkpt lat="53.100531" lon="06.031848"><ele>-5.6</ele><time>2021-05-12T11:26:11Z</time><name>PT4395</name></trkpt>
<trkpt lat="53.100536" lon="06.031832"><ele>-5.4</ele><time>2021-05-12T11:26:12Z</time><name>PT4396</name></trkpt>
<trkpt lat="53.100542" lon="06.031816"><ele>-5.4</ele><time>2021-05-12T11:26:13Z</time><name>PT4397</name></trkpt>
<trkpt lat="53.100546" lon="06.031797"><ele>-5.4</ele><time>2021-05-12T11:26:14Z</time><name>PT4398</name></trkpt>
<trkpt lat="53.100549" lon="06.031778"><ele>-5.4</ele><time>2021-05-12T11:26:15Z</time><name>PT4399</name></trkpt>
<trkpt lat="53.100553" lon="06.031756"><ele>-5.4</ele><time>2021-05-12T11:26:16Z</time><name>PT4400</name></trkpt>
<trkpt lat="53.100556" lon="06.031733"><ele>-5.3</ele><time>2021-05-12T11:26:17Z</time><name>PT4401</name></trkpt>
<trkpt lat="53.100559" lon="06.031714"><ele>-5.4</ele><time>2021-05-12T11:26:18Z</time><name>PT4402</name></trkpt>
<trkpt lat="53.100563" lon="06.031692"><ele>-5.4</ele><time>2021-05-12T11:26:19Z</time><name>PT4403</name></trkpt>
<trkpt lat="53.100565" lon="06.031676"><ele>-5.2</ele><time>2021-05-12T11:26:20Z</time><name>PT4404</name></trkpt>
<trkpt lat="53.100569" lon="06.031660"><ele>-5.4</ele><time>2021-05-12T11:26:21Z</time><name>PT4405</name></trkpt>
<trkpt lat="53.100573" lon="06.031644"><ele>-5.3</ele><time>2021-05-12T11:26:22Z</time><name>PT4406</name></trkpt>
<trkpt lat="53.100579" lon="06.031628"><ele>-5.6</ele><time>2021-05-12T11:26:23Z</time><name>PT4407</name></trkpt>
<trkpt lat="53.100585" lon="06.031609"><ele>-5.7</ele><time>2021-05-12T11:26:24Z</time><name>PT4408</name></trkpt>
<trkpt lat="53.100591" lon="06.031590"><ele>-5.8</ele><time>2021-05-12T11:26:25Z</time><name>PT4409</name></trkpt>
<trkpt lat="53.100597" lon="06.031572"><ele>-6</ele><time>2021-05-12T11:26:26Z</time><name>PT4410</name></trkpt>
<trkpt lat="53.100601" lon="06.031557"><ele>-6</ele><time>2021-05-12T11:26:27Z</time><name>PT4411</name></trkpt>
<trkpt lat="53.100606" lon="06.031539"><ele>-6</ele><time>2021-05-12T11:26:28Z</time><name>PT4412</name></trkpt>
<trkpt lat="53.100609" lon="06.031522"><ele>-5.8</ele><time>2021-05-12T11:26:29Z</time><name>PT4413</name></trkpt>
<trkpt lat="53.100613" lon="06.031504"><ele>-5.6</ele><time>2021-05-12T11:26:30Z</time><name>PT4414</name></trkpt>
<trkpt lat="53.100616" lon="06.031487"><ele>-5.6</ele><time>2021-05-12T11:26:31Z</time><name>PT4415</name></trkpt>
<trkpt lat="53.100619" lon="06.031468"><ele>-5.3</ele><time>2021-05-12T11:26:32Z</time><name>PT4416</name></trkpt>
<trkpt lat="53.100622" lon="06.031453"><ele>-5.1</ele><time>2021-05-12T11:26:33Z</time><name>PT4417</name></trkpt>
<trkpt lat="53.100627" lon="06.031437"><ele>-5.1</ele><time>2021-05-12T11:26:34Z</time><name>PT4418</name></trkpt>
<trkpt lat="53.100632" lon="06.031418"><ele>-5</ele><time>2021-05-12T11:26:35Z</time><name>PT4419</name></trkpt>
<trkpt lat="53.100637" lon="06.031402"><ele>-5.1</ele><time>2021-05-12T11:26:36Z</time><name>PT4420</name></trkpt>
<trkpt lat="53.100640" lon="06.031385"><ele>-5.2</ele><time>2021-05-12T11:26:37Z</time><name>PT4421</name></trkpt>
<trkpt lat="53.100644" lon="06.031369"><ele>-5.4</ele><time>2021-05-12T11:26:38Z</time><name>PT4422</name></trkpt>
<trkpt lat="53.100649" lon="06.031352"><ele>-5.5</ele><time>2021-05-12T11:26:39Z</time><name>PT4423</name></trkpt>
<trkpt lat="53.100655" lon="06.031335"><ele>-5.4</ele><time>2021-05-12T11:26:40Z</time><name>PT4424</name></trkpt>
<trkpt lat="53.100659" lon="06.031317"><ele>-5.4</ele><time>2021-05-12T11:26:41Z</time><name>PT4425</name></trkpt>
<trkpt lat="53.100663" lon="06.031299"><ele>-5.5</ele><time>2021-05-12T11:26:42Z</time><name>PT4426</name></trkpt>
<trkpt lat="53.100666" lon="06.031284"><ele>-5.6</ele><time>2021-05-12T11:26:43Z</time><name>PT4427</name></trkpt>
<trkpt lat="53.100669" lon="06.031267"><ele>-5.5</ele><time>2021-05-12T11:26:44Z</time><name>PT4428</name></trkpt>
<trkpt lat="53.100675" lon="06.031251"><ele>-5.6</ele><time>2021-05-12T11:26:45Z</time><name>PT4429</name></trkpt>
<trkpt lat="53.100682" lon="06.031234"><ele>-5.6</ele><time>2021-05-12T11:26:46Z</time><name>PT4430</name></trkpt>
<trkpt lat="53.100689" lon="06.031220"><ele>-5.5</ele><time>2021-05-12T11:26:47Z</time><name>PT4431</name></trkpt>
<trkpt lat="53.100696" lon="06.031206"><ele>-5.5</ele><time>2021-05-12T11:26:48Z</time><name>PT4432</name></trkpt>
<trkpt lat="53.100701" lon="06.031190"><ele>-5.5</ele><time>2021-05-12T11:26:49Z</time><name>PT4433</name></trkpt>
<trkpt lat="53.100706" lon="06.031175"><ele>-5.5</ele><time>2021-05-12T11:26:50Z</time><name>PT4434</name></trkpt>
<trkpt lat="53.100711" lon="06.031159"><ele>-5.6</ele><time>2021-05-12T11:26:51Z</time><name>PT4435</name></trkpt>
<trkpt lat="53.100714" lon="06.031143"><ele>-5.7</ele><time>2021-05-12T11:26:52Z</time><name>PT4436</name></trkpt>
<trkpt lat="53.100719" lon="06.031127"><ele>-5.7</ele><time>2021-05-12T11:26:53Z</time><name>PT4437</name></trkpt>
<trkpt lat="53.100723" lon="06.031113"><ele>-5.6</ele><time>2021-05-12T11:26:54Z</time><name>PT4438</name></trkpt>
<trkpt lat="53.100725" lon="06.031100"><ele>-5.6</ele><time>2021-05-12T11:26:55Z</time><name>PT4439</name></trkpt>
<trkpt lat="53.100729" lon="06.031081"><ele>-5.3</ele><time>2021-05-12T11:26:56Z</time><name>PT4440</name></trkpt>
<trkpt lat="53.100734" lon="06.031060"><ele>-5.5</ele><time>2021-05-12T11:26:57Z</time><name>PT4441</name></trkpt>
<trkpt lat="53.100739" lon="06.031043"><ele>-5.4</ele><time>2021-05-12T11:26:58Z</time><name>PT4442</name></trkpt>
<trkpt lat="53.100745" lon="06.031026"><ele>-5.4</ele><time>2021-05-12T11:26:59Z</time><name>PT4443</name></trkpt>
<trkpt lat="53.100751" lon="06.031010"><ele>-5.6</ele><time>2021-05-12T11:27:00Z</time><name>PT4444</name></trkpt>
<trkpt lat="53.100757" lon="06.030996"><ele>-5.6</ele><time>2021-05-12T11:27:01Z</time><name>PT4445</name></trkpt>
<trkpt lat="53.100762" lon="06.030981"><ele>-5.6</ele><time>2021-05-12T11:27:02Z</time><name>PT4446</name></trkpt>
<trkpt lat="53.100769" lon="06.030966"><ele>-5.6</ele><time>2021-05-12T11:27:03Z</time><name>PT4447</name></trkpt>
<trkpt lat="53.100777" lon="06.030949"><ele>-5.5</ele><time>2021-05-12T11:27:04Z</time><name>PT4448</name></trkpt>
<trkpt lat="53.100784" lon="06.030932"><ele>-5.4</ele><time>2021-05-12T11:27:05Z</time><name>PT4449</name></trkpt>
<trkpt lat="53.100789" lon="06.030916"><ele>-5.3</ele><time>2021-05-12T11:27:06Z</time><name>PT4450</name></trkpt>
<trkpt lat="53.100794" lon="06.030900"><ele>-5.3</ele><time>2021-05-12T11:27:07Z</time><name>PT4451</name></trkpt>
<trkpt lat="53.100801" lon="06.030881"><ele>-5.3</ele><time>2021-05-12T11:27:08Z</time><name>PT4452</name></trkpt>
<trkpt lat="53.100806" lon="06.030864"><ele>-5.1</ele><time>2021-05-12T11:27:09Z</time><name>PT4453</name></trkpt>
<trkpt lat="53.100811" lon="06.030849"><ele>-5.3</ele><time>2021-05-12T11:27:10Z</time><name>PT4454</name></trkpt>
<trkpt lat="53.100819" lon="06.030831"><ele>-5.1</ele><time>2021-05-12T11:27:11Z</time><name>PT4455</name></trkpt>
<trkpt lat="53.100824" lon="06.030818"><ele>-5.1</ele><time>2021-05-12T11:27:12Z</time><name>PT4456</name></trkpt>
<trkpt lat="53.100827" lon="06.030806"><ele>-5.1</ele><time>2021-05-12T11:27:13Z</time><name>PT4457</name></trkpt>
<trkpt lat="53.100829" lon="06.030797"><ele>-5.1</ele><time>2021-05-12T11:27:14Z</time><name>PT4458</name></trkpt>
<trkpt lat="53.100829" lon="06.030794"><ele>-5.2</ele><time>2021-05-12T11:27:15Z</time><name>PT4459</name></trkpt>
<trkpt lat="53.100829" lon="06.030791"><ele>-5.2</ele><time>2021-05-12T11:27:16Z</time><name>PT4460</name></trkpt>
<trkpt lat="53.100829" lon="06.030788"><ele>-5.2</ele><time>2021-05-12T11:27:17Z</time><name>PT4461</name></trkpt>
<trkpt lat="53.100832" lon="06.030778"><ele>-5.5</ele><time>2021-05-12T11:27:25Z</time><name>PT4462</name></trkpt>
<trkpt lat="53.100839" lon="06.030767"><ele>-5.4</ele><time>2021-05-12T11:27:26Z</time><name>PT4463</name></trkpt>
<trkpt lat="53.100845" lon="06.030753"><ele>-5.5</ele><time>2021-05-12T11:27:27Z</time><name>PT4464</name></trkpt>
<trkpt lat="53.100850" lon="06.030735"><ele>-5.4</ele><time>2021-05-12T11:27:28Z</time><name>PT4465</name></trkpt>
<trkpt lat="53.100855" lon="06.030721"><ele>-5.5</ele><time>2021-05-12T11:27:29Z</time><name>PT4466</name></trkpt>
<trkpt lat="53.100858" lon="06.030718"><ele>-5.5</ele><time>2021-05-12T11:27:30Z</time><name>PT4467</name></trkpt>
<trkpt lat="53.100860" lon="06.030706"><ele>-5.6</ele><time>2021-05-12T11:27:31Z</time><name>PT4468</name></trkpt>
<trkpt lat="53.100861" lon="06.030703"><ele>-5.6</ele><time>2021-05-12T11:27:32Z</time><name>PT4469</name></trkpt>
<trkpt lat="53.100861" lon="06.030702"><ele>-5.3</ele><time>2021-05-12T11:27:33Z</time><name>PT4470</name></trkpt>
<trkpt lat="53.100862" lon="06.030702"><ele>-5.2</ele><time>2021-05-12T11:27:34Z</time><name>PT4471</name></trkpt>
<trkpt lat="53.100863" lon="06.030701"><ele>-5.2</ele><time>2021-05-12T11:27:35Z</time><name>PT4472</name></trkpt>
<trkpt lat="53.100868" lon="06.030693"><ele>-5.5</ele><time>2021-05-12T11:27:55Z</time><name>PT4473</name></trkpt>
<trkpt lat="53.100875" lon="06.030678"><ele>-5.6</ele><time>2021-05-12T11:27:56Z</time><name>PT4474</name></trkpt>
<trkpt lat="53.100881" lon="06.030658"><ele>-5.5</ele><time>2021-05-12T11:27:57Z</time><name>PT4475</name></trkpt>
<trkpt lat="53.100885" lon="06.030644"><ele>-5.4</ele><time>2021-05-12T11:27:58Z</time><name>PT4476</name></trkpt>
<trkpt lat="53.100887" lon="06.030627"><ele>-5.4</ele><time>2021-05-12T11:27:59Z</time><name>PT4477</name></trkpt>
<trkpt lat="53.100890" lon="06.030613"><ele>-5.5</ele><time>2021-05-12T11:28:00Z</time><name>PT4478</name></trkpt>
<trkpt lat="53.100895" lon="06.030597"><ele>-5.4</ele><time>2021-05-12T11:28:01Z</time><name>PT4479</name></trkpt>
<trkpt lat="53.100901" lon="06.030581"><ele>-5.6</ele><time>2021-05-12T11:28:02Z</time><name>PT4480</name></trkpt>
<trkpt lat="53.100908" lon="06.030565"><ele>-5.3</ele><time>2021-05-12T11:28:03Z</time><name>PT4481</name></trkpt>
<trkpt lat="53.100914" lon="06.030549"><ele>-5.2</ele><time>2021-05-12T11:28:04Z</time><name>PT4482</name></trkpt>
<trkpt lat="53.100922" lon="06.030537"><ele>-5.3</ele><time>2021-05-12T11:28:05Z</time><name>PT4483</name></trkpt>
<trkpt lat="53.100930" lon="06.030523"><ele>-5.1</ele><time>2021-05-12T11:28:06Z</time><name>PT4484</name></trkpt>
<trkpt lat="53.100937" lon="06.030509"><ele>-5.2</ele><time>2021-05-12T11:28:07Z</time><name>PT4485</name></trkpt>
<trkpt lat="53.100944" lon="06.030495"><ele>-5.5</ele><time>2021-05-12T11:28:08Z</time><name>PT4486</name></trkpt>
<trkpt lat="53.100951" lon="06.030479"><ele>-5.6</ele><time>2021-05-12T11:28:09Z</time><name>PT4487</name></trkpt>
<trkpt lat="53.100958" lon="06.030463"><ele>-5.6</ele><time>2021-05-12T11:28:10Z</time><name>PT4488</name></trkpt>
<trkpt lat="53.100964" lon="06.030448"><ele>-5.8</ele><time>2021-05-12T11:28:11Z</time><name>PT4489</name></trkpt>
<trkpt lat="53.100971" lon="06.030435"><ele>-5.6</ele><time>2021-05-12T11:28:12Z</time><name>PT4490</name></trkpt>
<trkpt lat="53.100979" lon="06.030422"><ele>-5.6</ele><time>2021-05-12T11:28:13Z</time><name>PT4491</name></trkpt>
<trkpt lat="53.100987" lon="06.030405"><ele>-5.4</ele><time>2021-05-12T11:28:14Z</time><name>PT4492</name></trkpt>
<trkpt lat="53.100994" lon="06.030389"><ele>-5.2</ele><time>2021-05-12T11:28:15Z</time><name>PT4493</name></trkpt>
<trkpt lat="53.101002" lon="06.030373"><ele>-5.1</ele><time>2021-05-12T11:28:16Z</time><name>PT4494</name></trkpt>
<trkpt lat="53.101009" lon="06.030359"><ele>-5.3</ele><time>2021-05-12T11:28:17Z</time><name>PT4495</name></trkpt>
<trkpt lat="53.101017" lon="06.030346"><ele>-5.5</ele><time>2021-05-12T11:28:18Z</time><name>PT4496</name></trkpt>
<trkpt lat="53.101025" lon="06.030333"><ele>-5.6</ele><time>2021-05-12T11:28:19Z</time><name>PT4497</name></trkpt>
<trkpt lat="53.101035" lon="06.030319"><ele>-5.6</ele><time>2021-05-12T11:28:20Z</time><name>PT4498</name></trkpt>
<trkpt lat="53.101043" lon="06.030306"><ele>-5.6</ele><time>2021-05-12T11:28:21Z</time><name>PT4499</name></trkpt>
<trkpt lat="53.101051" lon="06.030294"><ele>-5.7</ele><time>2021-05-12T11:28:22Z</time><name>PT4500</name></trkpt>
<trkpt lat="53.101060" lon="06.030284"><ele>-5.6</ele><time>2021-05-12T11:28:23Z</time><name>PT4501</name></trkpt>
<trkpt lat="53.101068" lon="06.030271"><ele>-5.6</ele><time>2021-05-12T11:28:24Z</time><name>PT4502</name></trkpt>
<trkpt lat="53.101076" lon="06.030259"><ele>-5.6</ele><time>2021-05-12T11:28:25Z</time><name>PT4503</name></trkpt>
<trkpt lat="53.101088" lon="06.030250"><ele>-5.6</ele><time>2021-05-12T11:28:26Z</time><name>PT4504</name></trkpt>
<trkpt lat="53.101098" lon="06.030246"><ele>-5.7</ele><time>2021-05-12T11:28:27Z</time><name>PT4505</name></trkpt>
<trkpt lat="53.101110" lon="06.030242"><ele>-5.6</ele><time>2021-05-12T11:28:28Z</time><name>PT4506</name></trkpt>
<trkpt lat="53.101122" lon="06.030233"><ele>-5.6</ele><time>2021-05-12T11:28:29Z</time><name>PT4507</name></trkpt>
<trkpt lat="53.101134" lon="06.030225"><ele>-5.6</ele><time>2021-05-12T11:28:30Z</time><name>PT4508</name></trkpt>
<trkpt lat="53.101143" lon="06.030217"><ele>-5.5</ele><time>2021-05-12T11:28:31Z</time><name>PT4509</name></trkpt>
<trkpt lat="53.101151" lon="06.030209"><ele>-5.3</ele><time>2021-05-12T11:28:32Z</time><name>PT4510</name></trkpt>
<trkpt lat="53.101161" lon="06.030202"><ele>-5.1</ele><time>2021-05-12T11:28:33Z</time><name>PT4511</name></trkpt>
<trkpt lat="53.101171" lon="06.030199"><ele>-5.2</ele><time>2021-05-12T11:28:34Z</time><name>PT4512</name></trkpt>
<trkpt lat="53.101181" lon="06.030187"><ele>-5.2</ele><time>2021-05-12T11:28:35Z</time><name>PT4513</name></trkpt>
<trkpt lat="53.101193" lon="06.030191"><ele>-5.4</ele><time>2021-05-12T11:28:36Z</time><name>PT4514</name></trkpt>
<trkpt lat="53.101204" lon="06.030190"><ele>-5.4</ele><time>2021-05-12T11:28:37Z</time><name>PT4515</name></trkpt>
<trkpt lat="53.101214" lon="06.030191"><ele>-5.4</ele><time>2021-05-12T11:28:38Z</time><name>PT4516</name></trkpt>
<trkpt lat="53.101225" lon="06.030192"><ele>-5.6</ele><time>2021-05-12T11:28:39Z</time><name>PT4517</name></trkpt>
<trkpt lat="53.101234" lon="06.030192"><ele>-5.6</ele><time>2021-05-12T11:28:40Z</time><name>PT4518</name></trkpt>
<trkpt lat="53.101244" lon="06.030192"><ele>-5.6</ele><time>2021-05-12T11:28:41Z</time><name>PT4519</name></trkpt>
<trkpt lat="53.101255" lon="06.030193"><ele>-5.6</ele><time>2021-05-12T11:28:42Z</time><name>PT4520</name></trkpt>
<trkpt lat="53.101266" lon="06.030196"><ele>-5.6</ele><time>2021-05-12T11:28:43Z</time><name>PT4521</name></trkpt>
<trkpt lat="53.101276" lon="06.030202"><ele>-5.5</ele><time>2021-05-12T11:28:44Z</time><name>PT4522</name></trkpt>
<trkpt lat="53.101285" lon="06.030207"><ele>-5.6</ele><time>2021-05-12T11:28:45Z</time><name>PT4523</name></trkpt>
<trkpt lat="53.101294" lon="06.030215"><ele>-5.7</ele><time>2021-05-12T11:28:46Z</time><name>PT4524</name></trkpt>
<trkpt lat="53.101302" lon="06.030215"><ele>-5.6</ele><time>2021-05-12T11:28:47Z</time><name>PT4525</name></trkpt>
<trkpt lat="53.101311" lon="06.030233"><ele>-5.6</ele><time>2021-05-12T11:28:48Z</time><name>PT4526</name></trkpt>
<trkpt lat="53.101320" lon="06.030236"><ele>-5.4</ele><time>2021-05-12T11:28:49Z</time><name>PT4527</name></trkpt>
<trkpt lat="53.101328" lon="06.030239"><ele>-5.5</ele><time>2021-05-12T11:28:50Z</time><name>PT4528</name></trkpt>
<trkpt lat="53.101337" lon="06.030238"><ele>-5.6</ele><time>2021-05-12T11:28:51Z</time><name>PT4529</name></trkpt>
<trkpt lat="53.101344" lon="06.030239"><ele>-6.5</ele><time>2021-05-12T11:28:52Z</time><name>PT4530</name></trkpt>
<trkpt lat="53.101350" lon="06.030242"><ele>-6.7</ele><time>2021-05-12T11:28:53Z</time><name>PT4531</name></trkpt>
<trkpt lat="53.101355" lon="06.030247"><ele>-5.6</ele><time>2021-05-12T11:28:54Z</time><name>PT4532</name></trkpt>
<trkpt lat="53.101361" lon="06.030250"><ele>-5.6</ele><time>2021-05-12T11:28:55Z</time><name>PT4533</name></trkpt>
<trkpt lat="53.101367" lon="06.030253"><ele>-5.1</ele><time>2021-05-12T11:28:56Z</time><name>PT4534</name></trkpt>
<trkpt lat="53.101374" lon="06.030255"><ele>-5</ele><time>2021-05-12T11:28:57Z</time><name>PT4535</name></trkpt>
<trkpt lat="53.101381" lon="06.030257"><ele>-5.4</ele><time>2021-05-12T11:28:58Z</time><name>PT4536</name></trkpt>
<trkpt lat="53.101386" lon="06.030259"><ele>-5.7</ele><time>2021-05-12T11:28:59Z</time><name>PT4537</name></trkpt>
<trkpt lat="53.101393" lon="06.030267"><ele>-1.9</ele><time>2021-05-12T11:49:24Z</time><name>PT4538</name></trkpt>
<trkpt lat="53.101396" lon="06.030269"><ele>-2.1</ele><time>2021-05-12T11:49:29Z</time><name>PT4539</name></trkpt>
<trkpt lat="53.101404" lon="06.030276"><ele>-2.5</ele><time>2021-05-12T11:49:30Z</time><name>PT4540</name></trkpt>
<trkpt lat="53.101414" lon="06.030281"><ele>-2.5</ele><time>2021-05-12T11:49:31Z</time><name>PT4541</name></trkpt>
<trkpt lat="53.101424" lon="06.030288"><ele>-2.6</ele><time>2021-05-12T11:49:32Z</time><name>PT4542</name></trkpt>
<trkpt lat="53.101434" lon="06.030298"><ele>-2.4</ele><time>2021-05-12T11:49:33Z</time><name>PT4543</name></trkpt>
<trkpt lat="53.101444" lon="06.030302"><ele>-2.1</ele><time>2021-05-12T11:49:34Z</time><name>PT4544</name></trkpt>
<trkpt lat="53.101444" lon="06.030300"><ele>-1.6</ele><time>2021-05-12T11:49:35Z</time><name>PT4545</name></trkpt>
<trkpt lat="53.101443" lon="06.030298"><ele>-1.6</ele><time>2021-05-12T11:49:36Z</time><name>PT4546</name></trkpt>
<trkpt lat="53.101445" lon="06.030296"><ele>-1.9</ele><time>2021-05-12T11:49:37Z</time><name>PT4547</name></trkpt>
<trkpt lat="53.101452" lon="06.030305"><ele>-1.9</ele><time>2021-05-12T11:49:38Z</time><name>PT4548</name></trkpt>
<trkpt lat="53.101462" lon="06.030313"><ele>-2</ele><time>2021-05-12T11:49:39Z</time><name>PT4549</name></trkpt>
<trkpt lat="53.101470" lon="06.030323"><ele>-2.1</ele><time>2021-05-12T11:49:40Z</time><name>PT4550</name></trkpt>
<trkpt lat="53.101477" lon="06.030332"><ele>-2.2</ele><time>2021-05-12T11:49:41Z</time><name>PT4551</name></trkpt>
<trkpt lat="53.101484" lon="06.030345"><ele>-2.6</ele><time>2021-05-12T11:49:42Z</time><name>PT4552</name></trkpt>
<trkpt lat="53.101492" lon="06.030360"><ele>-2.6</ele><time>2021-05-12T11:49:43Z</time><name>PT4553</name></trkpt>
<trkpt lat="53.101502" lon="06.030378"><ele>-2.8</ele><time>2021-05-12T11:49:44Z</time><name>PT4554</name></trkpt>
<trkpt lat="53.101508" lon="06.030393"><ele>-2.9</ele><time>2021-05-12T11:49:45Z</time><name>PT4555</name></trkpt>
<trkpt lat="53.101515" lon="06.030407"><ele>-2.7</ele><time>2021-05-12T11:49:46Z</time><name>PT4556</name></trkpt>
<trkpt lat="53.101521" lon="06.030420"><ele>-2.6</ele><time>2021-05-12T11:49:47Z</time><name>PT4557</name></trkpt>
<trkpt lat="53.101530" lon="06.030433"><ele>-2.1</ele><time>2021-05-12T11:49:48Z</time><name>PT4558</name></trkpt>
<trkpt lat="53.101538" lon="06.030444"><ele>-2.2</ele><time>2021-05-12T11:49:49Z</time><name>PT4559</name></trkpt>
<trkpt lat="53.101546" lon="06.030454"><ele>-1.9</ele><time>2021-05-12T11:49:50Z</time><name>PT4560</name></trkpt>
<trkpt lat="53.101552" lon="06.030468"><ele>-2</ele><time>2021-05-12T11:49:51Z</time><name>PT4561</name></trkpt>
<trkpt lat="53.101557" lon="06.030481"><ele>-2.1</ele><time>2021-05-12T11:49:52Z</time><name>PT4562</name></trkpt>
<trkpt lat="53.101563" lon="06.030495"><ele>-1.9</ele><time>2021-05-12T11:49:53Z</time><name>PT4563</name></trkpt>
<trkpt lat="53.101570" lon="06.030506"><ele>-2</ele><time>2021-05-12T11:49:54Z</time><name>PT4564</name></trkpt>
<trkpt lat="53.101578" lon="06.030519"><ele>-2</ele><time>2021-05-12T11:49:55Z</time><name>PT4565</name></trkpt>
<trkpt lat="53.101586" lon="06.030532"><ele>-2</ele><time>2021-05-12T11:49:56Z</time><name>PT4566</name></trkpt>
<trkpt lat="53.101592" lon="06.030548"><ele>-1.9</ele><time>2021-05-12T11:49:57Z</time><name>PT4567</name></trkpt>
<trkpt lat="53.101597" lon="06.030564"><ele>-1.9</ele><time>2021-05-12T11:49:58Z</time><name>PT4568</name></trkpt>
<trkpt lat="53.101603" lon="06.030581"><ele>-2</ele><time>2021-05-12T11:49:59Z</time><name>PT4569</name></trkpt>
<trkpt lat="53.101608" lon="06.030595"><ele>-2</ele><time>2021-05-12T11:50:00Z</time><name>PT4570</name></trkpt>
<trkpt lat="53.101615" lon="06.030611"><ele>-1.9</ele><time>2021-05-12T11:50:01Z</time><name>PT4571</name></trkpt>
<trkpt lat="53.101619" lon="06.030624"><ele>-2.1</ele><time>2021-05-12T11:50:02Z</time><name>PT4572</name></trkpt>
<trkpt lat="53.101625" lon="06.030639"><ele>-2.1</ele><time>2021-05-12T11:50:03Z</time><name>PT4573</name></trkpt>
<trkpt lat="53.101632" lon="06.030654"><ele>-2.1</ele><time>2021-05-12T11:50:04Z</time><name>PT4574</name></trkpt>
<trkpt lat="53.101639" lon="06.030669"><ele>-2.3</ele><time>2021-05-12T11:50:05Z</time><name>PT4575</name></trkpt>
<trkpt lat="53.101646" lon="06.030684"><ele>-2.2</ele><time>2021-05-12T11:50:06Z</time><name>PT4576</name></trkpt>
<trkpt lat="53.101652" lon="06.030699"><ele>-2.2</ele><time>2021-05-12T11:50:07Z</time><name>PT4577</name></trkpt>
<trkpt lat="53.101659" lon="06.030714"><ele>-2.3</ele><time>2021-05-12T11:50:08Z</time><name>PT4578</name></trkpt>
<trkpt lat="53.101664" lon="06.030733"><ele>-2.2</ele><time>2021-05-12T11:50:09Z</time><name>PT4579</name></trkpt>
<trkpt lat="53.101668" lon="06.030745"><ele>-2.1</ele><time>2021-05-12T11:50:10Z</time><name>PT4580</name></trkpt>
<trkpt lat="53.101676" lon="06.030758"><ele>-2.1</ele><time>2021-05-12T11:50:11Z</time><name>PT4581</name></trkpt>
<trkpt lat="53.101685" lon="06.030774"><ele>-1.9</ele><time>2021-05-12T11:50:12Z</time><name>PT4582</name></trkpt>
<trkpt lat="53.101693" lon="06.030791"><ele>-1.9</ele><time>2021-05-12T11:50:13Z</time><name>PT4583</name></trkpt>
<trkpt lat="53.101702" lon="06.030808"><ele>-2</ele><time>2021-05-12T11:50:14Z</time><name>PT4584</name></trkpt>
<trkpt lat="53.101708" lon="06.030824"><ele>-2.1</ele><time>2021-05-12T11:50:15Z</time><name>PT4585</name></trkpt>
<trkpt lat="53.101714" lon="06.030840"><ele>-2.1</ele><time>2021-05-12T11:50:16Z</time><name>PT4586</name></trkpt>
<trkpt lat="53.101720" lon="06.030853"><ele>-2.1</ele><time>2021-05-12T11:50:17Z</time><name>PT4587</name></trkpt>
<trkpt lat="53.101727" lon="06.030867"><ele>-2</ele><time>2021-05-12T11:50:18Z</time><name>PT4588</name></trkpt>
<trkpt lat="53.101735" lon="06.030879"><ele>-2</ele><time>2021-05-12T11:50:19Z</time><name>PT4589</name></trkpt>
<trkpt lat="53.101742" lon="06.030893"><ele>-2.2</ele><time>2021-05-12T11:50:20Z</time><name>PT4590</name></trkpt>
<trkpt lat="53.101750" lon="06.030905"><ele>-2.2</ele><time>2021-05-12T11:50:21Z</time><name>PT4591</name></trkpt>
<trkpt lat="53.101758" lon="06.030919"><ele>-2.4</ele><time>2021-05-12T11:50:22Z</time><name>PT4592</name></trkpt>
<trkpt lat="53.101766" lon="06.030932"><ele>-2.4</ele><time>2021-05-12T11:50:23Z</time><name>PT4593</name></trkpt>
<trkpt lat="53.101774" lon="06.030944"><ele>-2.3</ele><time>2021-05-12T11:50:24Z</time><name>PT4594</name></trkpt>
<trkpt lat="53.101781" lon="06.030957"><ele>-2.4</ele><time>2021-05-12T11:50:25Z</time><name>PT4595</name></trkpt>
<trkpt lat="53.101785" lon="06.030966"><ele>-2.3</ele><time>2021-05-12T11:50:26Z</time><name>PT4596</name></trkpt>
<trkpt lat="53.101793" lon="06.030975"><ele>-2.3</ele><time>2021-05-12T11:50:27Z</time><name>PT4597</name></trkpt>
<trkpt lat="53.101800" lon="06.030980"><ele>-2.2</ele><time>2021-05-12T11:50:28Z</time><name>PT4598</name></trkpt>
<trkpt lat="53.101803" lon="06.030982"><ele>-2.1</ele><time>2021-05-12T11:50:29Z</time><name>PT4599</name></trkpt>
<trkpt lat="53.101803" lon="06.030981"><ele>-2.2</ele><time>2021-05-12T11:50:30Z</time><name>PT4600</name></trkpt>
<trkpt lat="53.101805" lon="06.030981"><ele>-2.3</ele><time>2021-05-12T11:50:31Z</time><name>PT4601</name></trkpt>
<trkpt lat="53.101809" lon="06.030986"><ele>-2.3</ele><time>2021-05-12T11:50:32Z</time><name>PT4602</name></trkpt>
<trkpt lat="53.101816" lon="06.030997"><ele>-2.5</ele><time>2021-05-12T11:50:33Z</time><name>PT4603</name></trkpt>
<trkpt lat="53.101822" lon="06.031007"><ele>-2.4</ele><time>2021-05-12T11:50:34Z</time><name>PT4604</name></trkpt>
<trkpt lat="53.101828" lon="06.031012"><ele>-2.3</ele><time>2021-05-12T11:50:35Z</time><name>PT4605</name></trkpt>
<trkpt lat="53.101829" lon="06.031016"><ele>-2.2</ele><time>2021-05-12T11:50:36Z</time><name>PT4606</name></trkpt>
<trkpt lat="53.101829" lon="06.031021"><ele>-2.2</ele><time>2021-05-12T11:50:37Z</time><name>PT4607</name></trkpt>
<trkpt lat="53.101827" lon="06.031026"><ele>-2.2</ele><time>2021-05-12T11:50:38Z</time><name>PT4608</name></trkpt>
<trkpt lat="53.101826" lon="06.031031"><ele>-2.3</ele><time>2021-05-12T11:50:39Z</time><name>PT4609</name></trkpt>
<trkpt lat="53.101833" lon="06.031038"><ele>-2.2</ele><time>2021-05-12T11:50:41Z</time><name>PT4610</name></trkpt>
<trkpt lat="53.101841" lon="06.031045"><ele>-2.1</ele><time>2021-05-12T11:50:42Z</time><name>PT4611</name></trkpt>
<trkpt lat="53.101851" lon="06.031053"><ele>-1.9</ele><time>2021-05-12T11:50:43Z</time><name>PT4612</name></trkpt>
<trkpt lat="53.101864" lon="06.031065"><ele>-1.8</ele><time>2021-05-12T11:50:44Z</time><name>PT4613</name></trkpt>
<trkpt lat="53.101873" lon="06.031076"><ele>-1.8</ele><time>2021-05-12T11:50:45Z</time><name>PT4614</name></trkpt>
<trkpt lat="53.101882" lon="06.031087"><ele>-1.7</ele><time>2021-05-12T11:50:46Z</time><name>PT4615</name></trkpt>
<trkpt lat="53.101892" lon="06.031097"><ele>-1.6</ele><time>2021-05-12T11:50:47Z</time><name>PT4616</name></trkpt>
<trkpt lat="53.101901" lon="06.031104"><ele>-1.7</ele><time>2021-05-12T11:50:48Z</time><name>PT4617</name></trkpt>
<trkpt lat="53.101913" lon="06.031105"><ele>-1.8</ele><time>2021-05-12T11:50:49Z</time><name>PT4618</name></trkpt>
<trkpt lat="53.101925" lon="06.031111"><ele>-2</ele><time>2021-05-12T11:50:50Z</time><name>PT4619</name></trkpt>
<trkpt lat="53.101935" lon="06.031117"><ele>-2</ele><time>2021-05-12T11:50:51Z</time><name>PT4620</name></trkpt>
<trkpt lat="53.101944" lon="06.031121"><ele>-2</ele><time>2021-05-12T11:50:52Z</time><name>PT4621</name></trkpt>
<trkpt lat="53.101951" lon="06.031130"><ele>-1.9</ele><time>2021-05-12T11:50:53Z</time><name>PT4622</name></trkpt>
<trkpt lat="53.101964" lon="06.031139"><ele>-1.8</ele><time>2021-05-12T11:50:54Z</time><name>PT4623</name></trkpt>
<trkpt lat="53.101972" lon="06.031148"><ele>-1.8</ele><time>2021-05-12T11:50:55Z</time><name>PT4624</name></trkpt>
<trkpt lat="53.101979" lon="06.031153"><ele>-1.8</ele><time>2021-05-12T11:50:56Z</time><name>PT4625</name></trkpt>
<trkpt lat="53.101987" lon="06.031158"><ele>-2.1</ele><time>2021-05-12T11:50:57Z</time><name>PT4626</name></trkpt>
<trkpt lat="53.101997" lon="06.031161"><ele>-2.1</ele><time>2021-05-12T11:50:58Z</time><name>PT4627</name></trkpt>
<trkpt lat="53.102012" lon="06.031170"><ele>-2.1</ele><time>2021-05-12T11:50:59Z</time><name>PT4628</name></trkpt>
<trkpt lat="53.102018" lon="06.031181"><ele>-1.9</ele><time>2021-05-12T11:51:00Z</time><name>PT4629</name></trkpt>
<trkpt lat="53.102029" lon="06.031187"><ele>-1.6</ele><time>2021-05-12T11:51:01Z</time><name>PT4630</name></trkpt>
<trkpt lat="53.102048" lon="06.031188"><ele>-1.1</ele><time>2021-05-12T11:51:02Z</time><name>PT4631</name></trkpt>
<trkpt lat="53.102066" lon="06.031187"><ele>-1.3</ele><time>2021-05-12T11:51:03Z</time><name>PT4632</name></trkpt>
<trkpt lat="53.102075" lon="06.031194"><ele>-1.4</ele><time>2021-05-12T11:51:04Z</time><name>PT4633</name></trkpt>
<trkpt lat="53.102085" lon="06.031198"><ele>-1.5</ele><time>2021-05-12T11:51:05Z</time><name>PT4634</name></trkpt>
<trkpt lat="53.102095" lon="06.031203"><ele>-2.1</ele><time>2021-05-12T11:51:06Z</time><name>PT4635</name></trkpt>
<trkpt lat="53.102108" lon="06.031202"><ele>-2.2</ele><time>2021-05-12T11:51:07Z</time><name>PT4636</name></trkpt>
<trkpt lat="53.102120" lon="06.031204"><ele>-2.4</ele><time>2021-05-12T11:51:08Z</time><name>PT4637</name></trkpt>
<trkpt lat="53.102131" lon="06.031205"><ele>-2.4</ele><time>2021-05-12T11:51:09Z</time><name>PT4638</name></trkpt>
<trkpt lat="53.102143" lon="06.031204"><ele>-2.4</ele><time>2021-05-12T11:51:10Z</time><name>PT4639</name></trkpt>
<trkpt lat="53.102152" lon="06.031201"><ele>-2.1</ele><time>2021-05-12T11:51:11Z</time><name>PT4640</name></trkpt>
<trkpt lat="53.102163" lon="06.031199"><ele>-1.9</ele><time>2021-05-12T11:51:12Z</time><name>PT4641</name></trkpt>
<trkpt lat="53.102170" lon="06.031196"><ele>-1.8</ele><time>2021-05-12T11:51:13Z</time><name>PT4642</name></trkpt>
<trkpt lat="53.102178" lon="06.031190"><ele>-1.7</ele><time>2021-05-12T11:51:14Z</time><name>PT4643</name></trkpt>
<trkpt lat="53.102191" lon="06.031187"><ele>-1.7</ele><time>2021-05-12T11:51:15Z</time><name>PT4644</name></trkpt>
<trkpt lat="53.102200" lon="06.031184"><ele>-1.6</ele><time>2021-05-12T11:51:16Z</time><name>PT4645</name></trkpt>
<trkpt lat="53.102217" lon="06.031175"><ele>-1.4</ele><time>2021-05-12T11:51:17Z</time><name>PT4646</name></trkpt>
<trkpt lat="53.102229" lon="06.031166"><ele>-1.6</ele><time>2021-05-12T11:51:18Z</time><name>PT4647</name></trkpt>
<trkpt lat="53.102240" lon="06.031159"><ele>-1.5</ele><time>2021-05-12T11:51:19Z</time><name>PT4648</name></trkpt>
<trkpt lat="53.102251" lon="06.031155"><ele>-1.3</ele><time>2021-05-12T11:51:20Z</time><name>PT4649</name></trkpt>
<trkpt lat="53.102263" lon="06.031148"><ele>-1.2</ele><time>2021-05-12T11:51:21Z</time><name>PT4650</name></trkpt>
<trkpt lat="53.102277" lon="06.031144"><ele>-1.2</ele><time>2021-05-12T11:51:22Z</time><name>PT4651</name></trkpt>
<trkpt lat="53.102291" lon="06.031141"><ele>-1.2</ele><time>2021-05-12T11:51:23Z</time><name>PT4652</name></trkpt>
<trkpt lat="53.102304" lon="06.031137"><ele>-1.2</ele><time>2021-05-12T11:51:24Z</time><name>PT4653</name></trkpt>
<trkpt lat="53.102310" lon="06.031134"><ele>-1.1</ele><time>2021-05-12T11:51:25Z</time><name>PT4654</name></trkpt>
<trkpt lat="53.102322" lon="06.031129"><ele>-1.2</ele><time>2021-05-12T11:51:26Z</time><name>PT4655</name></trkpt>
<trkpt lat="53.102331" lon="06.031123"><ele>-1.3</ele><time>2021-05-12T11:51:27Z</time><name>PT4656</name></trkpt>
<trkpt lat="53.102334" lon="06.031116"><ele>-1.2</ele><time>2021-05-12T11:51:28Z</time><name>PT4657</name></trkpt>
<trkpt lat="53.102343" lon="06.031107"><ele>-1.4</ele><time>2021-05-12T11:51:29Z</time><name>PT4658</name></trkpt>
<trkpt lat="53.102352" lon="06.031099"><ele>-1.4</ele><time>2021-05-12T11:51:30Z</time><name>PT4659</name></trkpt>
<trkpt lat="53.102364" lon="06.031092"><ele>-1.3</ele><time>2021-05-12T11:51:31Z</time><name>PT4660</name></trkpt>
<trkpt lat="53.102376" lon="06.031085"><ele>-1.5</ele><time>2021-05-12T11:51:32Z</time><name>PT4661</name></trkpt>
<trkpt lat="53.102385" lon="06.031080"><ele>-1.3</ele><time>2021-05-12T11:51:33Z</time><name>PT4662</name></trkpt>
<trkpt lat="53.102395" lon="06.031076"><ele>-1.4</ele><time>2021-05-12T11:51:34Z</time><name>PT4663</name></trkpt>
<trkpt lat="53.102404" lon="06.031072"><ele>-1.4</ele><time>2021-05-12T11:51:35Z</time><name>PT4664</name></trkpt>
<trkpt lat="53.102411" lon="06.031066"><ele>-1.4</ele><time>2021-05-12T11:51:36Z</time><name>PT4665</name></trkpt>
<trkpt lat="53.102420" lon="06.031058"><ele>-1.3</ele><time>2021-05-12T11:51:37Z</time><name>PT4666</name></trkpt>
<trkpt lat="53.102428" lon="06.031049"><ele>-1.3</ele><time>2021-05-12T11:51:38Z</time><name>PT4667</name></trkpt>
<trkpt lat="53.102428" lon="06.031038"><ele>-1.4</ele><time>2021-05-12T11:51:39Z</time><name>PT4668</name></trkpt>
<trkpt lat="53.102435" lon="06.031030"><ele>-1.5</ele><time>2021-05-12T11:51:40Z</time><name>PT4669</name></trkpt>
<trkpt lat="53.102444" lon="06.031021"><ele>-1.6</ele><time>2021-05-12T11:51:41Z</time><name>PT4670</name></trkpt>
<trkpt lat="53.102457" lon="06.031015"><ele>-1.6</ele><time>2021-05-12T11:51:42Z</time><name>PT4671</name></trkpt>
<trkpt lat="53.102460" lon="06.031009"><ele>-1.7</ele><time>2021-05-12T11:51:43Z</time><name>PT4672</name></trkpt>
<trkpt lat="53.102467" lon="06.031005"><ele>-1.6</ele><time>2021-05-12T11:51:44Z</time><name>PT4673</name></trkpt>
<trkpt lat="53.102476" lon="06.031000"><ele>-1.6</ele><time>2021-05-12T11:51:45Z</time><name>PT4674</name></trkpt>
<trkpt lat="53.102488" lon="06.030991"><ele>-1.6</ele><time>2021-05-12T11:51:46Z</time><name>PT4675</name></trkpt>
<trkpt lat="53.102496" lon="06.030986"><ele>-1.6</ele><time>2021-05-12T11:51:47Z</time><name>PT4676</name></trkpt>
<trkpt lat="53.102504" lon="06.030983"><ele>-1.4</ele><time>2021-05-12T11:51:48Z</time><name>PT4677</name></trkpt>
<trkpt lat="53.102510" lon="06.030975"><ele>-1.3</ele><time>2021-05-12T11:51:49Z</time><name>PT4678</name></trkpt>
<trkpt lat="53.102512" lon="06.030962"><ele>-1.3</ele><time>2021-05-12T11:51:50Z</time><name>PT4679</name></trkpt>
<trkpt lat="53.102516" lon="06.030959"><ele>-1.3</ele><time>2021-05-12T11:51:51Z</time><name>PT4680</name></trkpt>
<trkpt lat="53.102519" lon="06.030959"><ele>-1.3</ele><time>2021-05-12T11:51:52Z</time><name>PT4681</name></trkpt>
<trkpt lat="53.102524" lon="06.030957"><ele>-1.2</ele><time>2021-05-12T11:51:53Z</time><name>PT4682</name></trkpt>
<trkpt lat="53.102527" lon="06.030955"><ele>-1.1</ele><time>2021-05-12T11:51:54Z</time><name>PT4683</name></trkpt>
<trkpt lat="53.102533" lon="06.030953"><ele>-1.3</ele><time>2021-05-12T11:51:55Z</time><name>PT4684</name></trkpt>
<trkpt lat="53.102539" lon="06.030946"><ele>-1.4</ele><time>2021-05-12T11:51:56Z</time><name>PT4685</name></trkpt>
<trkpt lat="53.102549" lon="06.030940"><ele>-1.5</ele><time>2021-05-12T11:51:57Z</time><name>PT4686</name></trkpt>
<trkpt lat="53.102562" lon="06.030936"><ele>-1.5</ele><time>2021-05-12T11:51:58Z</time><name>PT4687</name></trkpt>
<trkpt lat="53.102570" lon="06.030929"><ele>-1.6</ele><time>2021-05-12T11:51:59Z</time><name>PT4688</name></trkpt>
<trkpt lat="53.102584" lon="06.030924"><ele>-1.6</ele><time>2021-05-12T11:52:00Z</time><name>PT4689</name></trkpt>
<trkpt lat="53.102611" lon="06.030913"><ele>-1.6</ele><time>2021-05-12T11:52:01Z</time><name>PT4690</name></trkpt>
<trkpt lat="53.102625" lon="06.030901"><ele>-1.8</ele><time>2021-05-12T11:52:02Z</time><name>PT4691</name></trkpt>
<trkpt lat="53.102635" lon="06.030889"><ele>-1.6</ele><time>2021-05-12T11:52:03Z</time><name>PT4692</name></trkpt>
<trkpt lat="53.102645" lon="06.030873"><ele>-1.6</ele><time>2021-05-12T11:52:04Z</time><name>PT4693</name></trkpt>
<trkpt lat="53.102655" lon="06.030858"><ele>-1.6</ele><time>2021-05-12T11:52:05Z</time><name>PT4694</name></trkpt>
<trkpt lat="53.102665" lon="06.030845"><ele>-1.5</ele><time>2021-05-12T11:52:06Z</time><name>PT4695</name></trkpt>
<trkpt lat="53.102677" lon="06.030832"><ele>-1.5</ele><time>2021-05-12T11:52:07Z</time><name>PT4696</name></trkpt>
<trkpt lat="53.102688" lon="06.030817"><ele>-1.3</ele><time>2021-05-12T11:52:08Z</time><name>PT4697</name></trkpt>
<trkpt lat="53.102703" lon="06.030805"><ele>-1.2</ele><time>2021-05-12T11:52:09Z</time><name>PT4698</name></trkpt>
<trkpt lat="53.102714" lon="06.030794"><ele>-1.2</ele><time>2021-05-12T11:52:10Z</time><name>PT4699</name></trkpt>
<trkpt lat="53.102725" lon="06.030785"><ele>-1.3</ele><time>2021-05-12T11:52:11Z</time><name>PT4700</name></trkpt>
<trkpt lat="53.102737" lon="06.030778"><ele>-1.1</ele><time>2021-05-12T11:52:12Z</time><name>PT4701</name></trkpt>
<trkpt lat="53.102751" lon="06.030770"><ele>-1.1</ele><time>2021-05-12T11:52:13Z</time><name>PT4702</name></trkpt>
<trkpt lat="53.102761" lon="06.030762"><ele>-1.1</ele><time>2021-05-12T11:52:14Z</time><name>PT4703</name></trkpt>
<trkpt lat="53.102770" lon="06.030754"><ele>-1.1</ele><time>2021-05-12T11:52:15Z</time><name>PT4704</name></trkpt>
<trkpt lat="53.102785" lon="06.030745"><ele>-1.1</ele><time>2021-05-12T11:52:16Z</time><name>PT4705</name></trkpt>
<trkpt lat="53.102797" lon="06.030735"><ele>-1.1</ele><time>2021-05-12T11:52:17Z</time><name>PT4706</name></trkpt>
<trkpt lat="53.102807" lon="06.030726"><ele>-1</ele><time>2021-05-12T11:52:18Z</time><name>PT4707</name></trkpt>
<trkpt lat="53.102819" lon="06.030718"><ele>-1.1</ele><time>2021-05-12T11:52:19Z</time><name>PT4708</name></trkpt>
<trkpt lat="53.102828" lon="06.030708"><ele>-1.1</ele><time>2021-05-12T11:52:20Z</time><name>PT4709</name></trkpt>
<trkpt lat="53.102831" lon="06.030698"><ele>-1.1</ele><time>2021-05-12T11:52:21Z</time><name>PT4710</name></trkpt>
<trkpt lat="53.102836" lon="06.030688"><ele>-1.3</ele><time>2021-05-12T11:52:22Z</time><name>PT4711</name></trkpt>
<trkpt lat="53.102844" lon="06.030679"><ele>-1.3</ele><time>2021-05-12T11:52:23Z</time><name>PT4712</name></trkpt>
<trkpt lat="53.102854" lon="06.030672"><ele>-1.4</ele><time>2021-05-12T11:52:24Z</time><name>PT4713</name></trkpt>
<trkpt lat="53.102869" lon="06.030666"><ele>-1.3</ele><time>2021-05-12T11:52:25Z</time><name>PT4714</name></trkpt>
<trkpt lat="53.102879" lon="06.030659"><ele>-1.5</ele><time>2021-05-12T11:52:26Z</time><name>PT4715</name></trkpt>
<trkpt lat="53.102890" lon="06.030654"><ele>-1.5</ele><time>2021-05-12T11:52:27Z</time><name>PT4716</name></trkpt>
<trkpt lat="53.102899" lon="06.030647"><ele>-1.6</ele><time>2021-05-12T11:52:28Z</time><name>PT4717</name></trkpt>
<trkpt lat="53.102906" lon="06.030639"><ele>-1.5</ele><time>2021-05-12T11:52:29Z</time><name>PT4718</name></trkpt>
<trkpt lat="53.102920" lon="06.030631"><ele>-1.5</ele><time>2021-05-12T11:52:30Z</time><name>PT4719</name></trkpt>
<trkpt lat="53.102937" lon="06.030625"><ele>-1.6</ele><time>2021-05-12T11:52:31Z</time><name>PT4720</name></trkpt>
<trkpt lat="53.102950" lon="06.030614"><ele>-1.6</ele><time>2021-05-12T11:52:32Z</time><name>PT4721</name></trkpt>
<trkpt lat="53.102963" lon="06.030605"><ele>-1.6</ele><time>2021-05-12T11:52:33Z</time><name>PT4722</name></trkpt>
<trkpt lat="53.102979" lon="06.030596"><ele>-1.6</ele><time>2021-05-12T11:52:34Z</time><name>PT4723</name></trkpt>
<trkpt lat="53.102993" lon="06.030585"><ele>-1.6</ele><time>2021-05-12T11:52:35Z</time><name>PT4724</name></trkpt>
<trkpt lat="53.103004" lon="06.030574"><ele>-1.5</ele><time>2021-05-12T11:52:36Z</time><name>PT4725</name></trkpt>
<trkpt lat="53.103017" lon="06.030566"><ele>-1.5</ele><time>2021-05-12T11:52:37Z</time><name>PT4726</name></trkpt>
<trkpt lat="53.103030" lon="06.030554"><ele>-1.5</ele><time>2021-05-12T11:52:38Z</time><name>PT4727</name></trkpt>
<trkpt lat="53.103044" lon="06.030544"><ele>-1.6</ele><time>2021-05-12T11:52:39Z</time><name>PT4728</name></trkpt>
<trkpt lat="53.103055" lon="06.030532"><ele>-1.5</ele><time>2021-05-12T11:52:40Z</time><name>PT4729</name></trkpt>
<trkpt lat="53.103071" lon="06.030523"><ele>-1.3</ele><time>2021-05-12T11:52:41Z</time><name>PT4730</name></trkpt>
<trkpt lat="53.103084" lon="06.030513"><ele>-1.2</ele><time>2021-05-12T11:52:42Z</time><name>PT4731</name></trkpt>
<trkpt lat="53.103096" lon="06.030504"><ele>-1.1</ele><time>2021-05-12T11:52:43Z</time><name>PT4732</name></trkpt>
<trkpt lat="53.103109" lon="06.030496"><ele>-1.1</ele><time>2021-05-12T11:52:44Z</time><name>PT4733</name></trkpt>
<trkpt lat="53.103121" lon="06.030490"><ele>-1.1</ele><time>2021-05-12T11:52:45Z</time><name>PT4734</name></trkpt>
<trkpt lat="53.103133" lon="06.030484"><ele>-1.1</ele><time>2021-05-12T11:52:46Z</time><name>PT4735</name></trkpt>
<trkpt lat="53.103145" lon="06.030480"><ele>-1.1</ele><time>2021-05-12T11:52:47Z</time><name>PT4736</name></trkpt>
<trkpt lat="53.103159" lon="06.030477"><ele>-1</ele><time>2021-05-12T11:52:48Z</time><name>PT4737</name></trkpt>
<trkpt lat="53.103170" lon="06.030475"><ele>-1</ele><time>2021-05-12T11:52:49Z</time><name>PT4738</name></trkpt>
<trkpt lat="53.103183" lon="06.030472"><ele>-1</ele><time>2021-05-12T11:52:50Z</time><name>PT4739</name></trkpt>
<trkpt lat="53.103195" lon="06.030466"><ele>0.9</ele><time>2021-05-12T11:52:51Z</time><name>PT4740</name></trkpt>
<trkpt lat="53.103206" lon="06.030459"><ele>0.8</ele><time>2021-05-12T11:52:52Z</time><name>PT4741</name></trkpt>
<trkpt lat="53.103221" lon="06.030453"><ele>0.7</ele><time>2021-05-12T11:52:53Z</time><name>PT4742</name></trkpt>
<trkpt lat="53.103232" lon="06.030447"><ele>0.7</ele><time>2021-05-12T11:52:54Z</time><name>PT4743</name></trkpt>
<trkpt lat="53.103242" lon="06.030441"><ele>0.9</ele><time>2021-05-12T11:52:55Z</time><name>PT4744</name></trkpt>
<trkpt lat="53.103254" lon="06.030436"><ele>0.8</ele><time>2021-05-12T11:52:56Z</time><name>PT4745</name></trkpt>
<trkpt lat="53.103263" lon="06.030429"><ele>0.9</ele><time>2021-05-12T11:52:57Z</time><name>PT4746</name></trkpt>
<trkpt lat="53.103273" lon="06.030421"><ele>0.8</ele><time>2021-05-12T11:52:58Z</time><name>PT4747</name></trkpt>
<trkpt lat="53.103283" lon="06.030412"><ele>0.7</ele><time>2021-05-12T11:52:59Z</time><name>PT4748</name></trkpt>
<trkpt lat="53.103294" lon="06.030404"><ele>0.7</ele><time>2021-05-12T11:53:00Z</time><name>PT4749</name></trkpt>
<trkpt lat="53.103306" lon="06.030396"><ele>0.9</ele><time>2021-05-12T11:53:01Z</time><name>PT4750</name></trkpt>
<trkpt lat="53.103317" lon="06.030388"><ele>0.9</ele><time>2021-05-12T11:53:02Z</time><name>PT4751</name></trkpt>
<trkpt lat="53.103329" lon="06.030380"><ele>-1.2</ele><time>2021-05-12T11:53:03Z</time><name>PT4752</name></trkpt>
<trkpt lat="53.103339" lon="06.030372"><ele>-1.3</ele><time>2021-05-12T11:53:04Z</time><name>PT4753</name></trkpt>
<trkpt lat="53.103349" lon="06.030362"><ele>-1.3</ele><time>2021-05-12T11:53:05Z</time><name>PT4754</name></trkpt>
<trkpt lat="53.103361" lon="06.030355"><ele>-1.3</ele><time>2021-05-12T11:53:06Z</time><name>PT4755</name></trkpt>
<trkpt lat="53.103374" lon="06.030349"><ele>-1.1</ele><time>2021-05-12T11:53:07Z</time><name>PT4756</name></trkpt>
<trkpt lat="53.103388" lon="06.030342"><ele>-1</ele><time>2021-05-12T11:53:08Z</time><name>PT4757</name></trkpt>
<trkpt lat="53.103402" lon="06.030334"><ele>0.9</ele><time>2021-05-12T11:53:09Z</time><name>PT4758</name></trkpt>
<trkpt lat="53.103413" lon="06.030327"><ele>0.8</ele><time>2021-05-12T11:53:10Z</time><name>PT4759</name></trkpt>
<trkpt lat="53.103425" lon="06.030320"><ele>0.6</ele><time>2021-05-12T11:53:11Z</time><name>PT4760</name></trkpt>
<trkpt lat="53.103435" lon="06.030313"><ele>0.6</ele><time>2021-05-12T11:53:12Z</time><name>PT4761</name></trkpt>
<trkpt lat="53.103446" lon="06.030307"><ele>0.6</ele><time>2021-05-12T11:53:13Z</time><name>PT4762</name></trkpt>
<trkpt lat="53.103458" lon="06.030304"><ele>0.4</ele><time>2021-05-12T11:53:14Z</time><name>PT4763</name></trkpt>
<trkpt lat="53.103471" lon="06.030298"><ele>0.5</ele><time>2021-05-12T11:53:15Z</time><name>PT4764</name></trkpt>
<trkpt lat="53.103481" lon="06.030295"><ele>0.4</ele><time>2021-05-12T11:53:16Z</time><name>PT4765</name></trkpt>
<trkpt lat="53.103492" lon="06.030291"><ele>0.4</ele><time>2021-05-12T11:53:17Z</time><name>PT4766</name></trkpt>
<trkpt lat="53.103506" lon="06.030284"><ele>0.5</ele><time>2021-05-12T11:53:18Z</time><name>PT4767</name></trkpt>
<trkpt lat="53.103515" lon="06.030276"><ele>0.5</ele><time>2021-05-12T11:53:19Z</time><name>PT4768</name></trkpt>
<trkpt lat="53.103526" lon="06.030267"><ele>0.6</ele><time>2021-05-12T11:53:20Z</time><name>PT4769</name></trkpt>
<trkpt lat="53.103538" lon="06.030258"><ele>0.6</ele><time>2021-05-12T11:53:21Z</time><name>PT4770</name></trkpt>
<trkpt lat="53.103549" lon="06.030251"><ele>0.6</ele><time>2021-05-12T11:53:22Z</time><name>PT4771</name></trkpt>
<trkpt lat="53.103559" lon="06.030245"><ele>0.7</ele><time>2021-05-12T11:53:23Z</time><name>PT4772</name></trkpt>
<trkpt lat="53.103568" lon="06.030242"><ele>0.6</ele><time>2021-05-12T11:53:24Z</time><name>PT4773</name></trkpt>
<trkpt lat="53.103577" lon="06.030236"><ele>0.6</ele><time>2021-05-12T11:53:25Z</time><name>PT4774</name></trkpt>
<trkpt lat="53.103589" lon="06.030231"><ele>0.5</ele><time>2021-05-12T11:53:26Z</time><name>PT4775</name></trkpt>
<trkpt lat="53.103597" lon="06.030227"><ele>0.3</ele><time>2021-05-12T11:53:27Z</time><name>PT4776</name></trkpt>
<trkpt lat="53.103609" lon="06.030221"><ele>0.3</ele><time>2021-05-12T11:53:28Z</time><name>PT4777</name></trkpt>
<trkpt lat="53.103620" lon="06.030216"><ele>0.2</ele><time>2021-05-12T11:53:29Z</time><name>PT4778</name></trkpt>
<trkpt lat="53.103630" lon="06.030209"><ele>0.2</ele><time>2021-05-12T11:53:30Z</time><name>PT4779</name></trkpt>
<trkpt lat="53.103641" lon="06.030201"><ele>0.2</ele><time>2021-05-12T11:53:31Z</time><name>PT4780</name></trkpt>
<trkpt lat="53.103652" lon="06.030192"><ele>0.4</ele><time>2021-05-12T11:53:32Z</time><name>PT4781</name></trkpt>
<trkpt lat="53.103663" lon="06.030179"><ele>0.3</ele><time>2021-05-12T11:53:33Z</time><name>PT4782</name></trkpt>
<trkpt lat="53.103672" lon="06.030171"><ele>0.4</ele><time>2021-05-12T11:53:34Z</time><name>PT4783</name></trkpt>
<trkpt lat="53.103683" lon="06.030164"><ele>0.5</ele><time>2021-05-12T11:53:35Z</time><name>PT4784</name></trkpt>
<trkpt lat="53.103695" lon="06.030159"><ele>0.5</ele><time>2021-05-12T11:53:36Z</time><name>PT4785</name></trkpt>
<trkpt lat="53.103706" lon="06.030152"><ele>0.5</ele><time>2021-05-12T11:53:37Z</time><name>PT4786</name></trkpt>
<trkpt lat="53.103718" lon="06.030148"><ele>0.5</ele><time>2021-05-12T11:53:38Z</time><name>PT4787</name></trkpt>
<trkpt lat="53.103736" lon="06.030144"><ele>0.5</ele><time>2021-05-12T11:53:39Z</time><name>PT4788</name></trkpt>
<trkpt lat="53.103747" lon="06.030137"><ele>0.5</ele><time>2021-05-12T11:53:40Z</time><name>PT4789</name></trkpt>
<trkpt lat="53.103759" lon="06.030132"><ele>0.5</ele><time>2021-05-12T11:53:41Z</time><name>PT4790</name></trkpt>
<trkpt lat="53.103770" lon="06.030124"><ele>0.6</ele><time>2021-05-12T11:53:42Z</time><name>PT4791</name></trkpt>
<trkpt lat="53.103781" lon="06.030117"><ele>0.5</ele><time>2021-05-12T11:53:43Z</time><name>PT4792</name></trkpt>
<trkpt lat="53.103797" lon="06.030109"><ele>0.3</ele><time>2021-05-12T11:53:44Z</time><name>PT4793</name></trkpt>
<trkpt lat="53.103810" lon="06.030101"><ele>0.3</ele><time>2021-05-12T11:53:45Z</time><name>PT4794</name></trkpt>
<trkpt lat="53.103824" lon="06.030091"><ele>0.2</ele><time>2021-05-12T11:53:46Z</time><name>PT4795</name></trkpt>
<trkpt lat="53.103834" lon="06.030083"><ele>0.3</ele><time>2021-05-12T11:53:47Z</time><name>PT4796</name></trkpt>
<trkpt lat="53.103848" lon="06.030078"><ele>0.3</ele><time>2021-05-12T11:53:48Z</time><name>PT4797</name></trkpt>
<trkpt lat="53.103860" lon="06.030075"><ele>0.4</ele><time>2021-05-12T11:53:49Z</time><name>PT4798</name></trkpt>
<trkpt lat="53.103873" lon="06.030069"><ele>0.4</ele><time>2021-05-12T11:53:50Z</time><name>PT4799</name></trkpt>
<trkpt lat="53.103886" lon="06.030064"><ele>0.5</ele><time>2021-05-12T11:53:51Z</time><name>PT4800</name></trkpt>
<trkpt lat="53.103898" lon="06.030061"><ele>0.4</ele><time>2021-05-12T11:53:52Z</time><name>PT4801</name></trkpt>
<trkpt lat="53.103908" lon="06.030056"><ele>0.5</ele><time>2021-05-12T11:53:53Z</time><name>PT4802</name></trkpt>
<trkpt lat="53.103919" lon="06.030050"><ele>0.5</ele><time>2021-05-12T11:53:54Z</time><name>PT4803</name></trkpt>
<trkpt lat="53.103932" lon="06.030045"><ele>0.5</ele><time>2021-05-12T11:53:55Z</time><name>PT4804</name></trkpt>
<trkpt lat="53.103945" lon="06.030041"><ele>0.4</ele><time>2021-05-12T11:53:56Z</time><name>PT4805</name></trkpt>
<trkpt lat="53.103955" lon="06.030034"><ele>0.3</ele><time>2021-05-12T11:53:57Z</time><name>PT4806</name></trkpt>
<trkpt lat="53.103970" lon="06.030030"><ele>0.5</ele><time>2021-05-12T11:53:58Z</time><name>PT4807</name></trkpt>
<trkpt lat="53.103980" lon="06.030024"><ele>0.6</ele><time>2021-05-12T11:53:59Z</time><name>PT4808</name></trkpt>
<trkpt lat="53.103991" lon="06.030020"><ele>0.6</ele><time>2021-05-12T11:54:00Z</time><name>PT4809</name></trkpt>
<trkpt lat="53.104000" lon="06.030019"><ele>0.6</ele><time>2021-05-12T11:54:01Z</time><name>PT4810</name></trkpt>
<trkpt lat="53.104012" lon="06.030018"><ele>0.5</ele><time>2021-05-12T11:54:02Z</time><name>PT4811</name></trkpt>
<trkpt lat="53.104023" lon="06.030013"><ele>0.3</ele><time>2021-05-12T11:54:03Z</time><name>PT4812</name></trkpt>
<trkpt lat="53.104031" lon="06.030010"><ele>0.1</ele><time>2021-05-12T11:54:04Z</time><name>PT4813</name></trkpt>
<trkpt lat="53.104043" lon="06.030007"><ele>0.1</ele><time>2021-05-12T11:54:05Z</time><name>PT4814</name></trkpt>
<trkpt lat="53.104055" lon="06.030002"><ele>0.1</ele><time>2021-05-12T11:54:06Z</time><name>PT4815</name></trkpt>
<trkpt lat="53.104064" lon="06.029998"><ele>0.1</ele><time>2021-05-12T11:54:07Z</time><name>PT4816</name></trkpt>
<trkpt lat="53.104072" lon="06.029995"><ele>0</ele><time>2021-05-12T11:54:08Z</time><name>PT4817</name></trkpt>
<trkpt lat="53.104085" lon="06.029995"><ele>0</ele><time>2021-05-12T11:54:09Z</time><name>PT4818</name></trkpt>
<trkpt lat="53.104096" lon="06.029995"><ele>0</ele><time>2021-05-12T11:54:10Z</time><name>PT4819</name></trkpt>
<trkpt lat="53.104108" lon="06.029993"><ele>0</ele><time>2021-05-12T11:54:11Z</time><name>PT4820</name></trkpt>
<trkpt lat="53.104116" lon="06.029994"><ele>0</ele><time>2021-05-12T11:54:12Z</time><name>PT4821</name></trkpt>
<trkpt lat="53.104127" lon="06.029994"><ele>0.1</ele><time>2021-05-12T11:54:13Z</time><name>PT4822</name></trkpt>
<trkpt lat="53.104137" lon="06.029992"><ele>0.1</ele><time>2021-05-12T11:54:14Z</time><name>PT4823</name></trkpt>
<trkpt lat="53.104148" lon="06.029988"><ele>0.2</ele><time>2021-05-12T11:54:15Z</time><name>PT4824</name></trkpt>
<trkpt lat="53.104160" lon="06.029987"><ele>0.1</ele><time>2021-05-12T11:54:16Z</time><name>PT4825</name></trkpt>
<trkpt lat="53.104170" lon="06.029985"><ele>0.3</ele><time>2021-05-12T11:54:17Z</time><name>PT4826</name></trkpt>
<trkpt lat="53.104182" lon="06.029986"><ele>0.5</ele><time>2021-05-12T11:54:18Z</time><name>PT4827</name></trkpt>
<trkpt lat="53.104195" lon="06.029987"><ele>0.5</ele><time>2021-05-12T11:54:19Z</time><name>PT4828</name></trkpt>
<trkpt lat="53.104209" lon="06.029987"><ele>0.6</ele><time>2021-05-12T11:54:20Z</time><name>PT4829</name></trkpt>
<trkpt lat="53.104219" lon="06.029988"><ele>0.6</ele><time>2021-05-12T11:54:21Z</time><name>PT4830</name></trkpt>
<trkpt lat="53.104232" lon="06.029986"><ele>0.6</ele><time>2021-05-12T11:54:22Z</time><name>PT4831</name></trkpt>
<trkpt lat="53.104246" lon="06.029983"><ele>0.6</ele><time>2021-05-12T11:54:23Z</time><name>PT4832</name></trkpt>
<trkpt lat="53.104258" lon="06.029979"><ele>0.7</ele><time>2021-05-12T11:54:24Z</time><name>PT4833</name></trkpt>
<trkpt lat="53.104268" lon="06.029974"><ele>0.6</ele><time>2021-05-12T11:54:25Z</time><name>PT4834</name></trkpt>
<trkpt lat="53.104280" lon="06.029967"><ele>0.6</ele><time>2021-05-12T11:54:26Z</time><name>PT4835</name></trkpt>
<trkpt lat="53.104287" lon="06.029960"><ele>0.4</ele><time>2021-05-12T11:54:27Z</time><name>PT4836</name></trkpt>
<trkpt lat="53.104299" lon="06.029953"><ele>0.5</ele><time>2021-05-12T11:54:28Z</time><name>PT4837</name></trkpt>
<trkpt lat="53.104311" lon="06.029948"><ele>0.5</ele><time>2021-05-12T11:54:29Z</time><name>PT4838</name></trkpt>
<trkpt lat="53.104321" lon="06.029944"><ele>0.5</ele><time>2021-05-12T11:54:30Z</time><name>PT4839</name></trkpt>
<trkpt lat="53.104330" lon="06.029940"><ele>0.5</ele><time>2021-05-12T11:54:31Z</time><name>PT4840</name></trkpt>
<trkpt lat="53.104341" lon="06.029936"><ele>0.6</ele><time>2021-05-12T11:54:32Z</time><name>PT4841</name></trkpt>
<trkpt lat="53.104359" lon="06.029932"><ele>0.6</ele><time>2021-05-12T11:54:33Z</time><name>PT4842</name></trkpt>
<trkpt lat="53.104367" lon="06.029924"><ele>0.6</ele><time>2021-05-12T11:54:34Z</time><name>PT4843</name></trkpt>
<trkpt lat="53.104376" lon="06.029920"><ele>0.6</ele><time>2021-05-12T11:54:35Z</time><name>PT4844</name></trkpt>
<trkpt lat="53.104387" lon="06.029914"><ele>0.6</ele><time>2021-05-12T11:54:36Z</time><name>PT4845</name></trkpt>
<trkpt lat="53.104400" lon="06.029910"><ele>0.7</ele><time>2021-05-12T11:54:37Z</time><name>PT4846</name></trkpt>
<trkpt lat="53.104413" lon="06.029908"><ele>0.6</ele><time>2021-05-12T11:54:38Z</time><name>PT4847</name></trkpt>
<trkpt lat="53.104422" lon="06.029906"><ele>0.9</ele><time>2021-05-12T11:54:39Z</time><name>PT4848</name></trkpt>
<trkpt lat="53.104428" lon="06.029903"><ele>0.8</ele><time>2021-05-12T11:54:40Z</time><name>PT4849</name></trkpt>
<trkpt lat="53.104436" lon="06.029901"><ele>0.7</ele><time>2021-05-12T11:54:41Z</time><name>PT4850</name></trkpt>
<trkpt lat="53.104443" lon="06.029897"><ele>0.7</ele><time>2021-05-12T11:54:42Z</time><name>PT4851</name></trkpt>
<trkpt lat="53.104450" lon="06.029890"><ele>0.6</ele><time>2021-05-12T11:54:43Z</time><name>PT4852</name></trkpt>
<trkpt lat="53.104459" lon="06.029884"><ele>0.6</ele><time>2021-05-12T11:54:44Z</time><name>PT4853</name></trkpt>
<trkpt lat="53.104469" lon="06.029879"><ele>0.6</ele><time>2021-05-12T11:54:45Z</time><name>PT4854</name></trkpt>
<trkpt lat="53.104482" lon="06.029875"><ele>0.4</ele><time>2021-05-12T11:54:46Z</time><name>PT4855</name></trkpt>
<trkpt lat="53.104490" lon="06.029868"><ele>0.5</ele><time>2021-05-12T11:54:47Z</time><name>PT4856</name></trkpt>
<trkpt lat="53.104500" lon="06.029859"><ele>0.5</ele><time>2021-05-12T11:54:48Z</time><name>PT4857</name></trkpt>
<trkpt lat="53.104514" lon="06.029852"><ele>0.5</ele><time>2021-05-12T11:54:49Z</time><name>PT4858</name></trkpt>
<trkpt lat="53.104526" lon="06.029847"><ele>0.6</ele><time>2021-05-12T11:54:50Z</time><name>PT4859</name></trkpt>
<trkpt lat="53.104535" lon="06.029839"><ele>0.6</ele><time>2021-05-12T11:54:51Z</time><name>PT4860</name></trkpt>
<trkpt lat="53.104545" lon="06.029833"><ele>0.6</ele><time>2021-05-12T11:54:52Z</time><name>PT4861</name></trkpt>
<trkpt lat="53.104558" lon="06.029831"><ele>0.7</ele><time>2021-05-12T11:54:53Z</time><name>PT4862</name></trkpt>
<trkpt lat="53.104567" lon="06.029827"><ele>0.6</ele><time>2021-05-12T11:54:54Z</time><name>PT4863</name></trkpt>
<trkpt lat="53.104575" lon="06.029822"><ele>0.6</ele><time>2021-05-12T11:54:55Z</time><name>PT4864</name></trkpt>
<trkpt lat="53.104584" lon="06.029819"><ele>0.6</ele><time>2021-05-12T11:54:56Z</time><name>PT4865</name></trkpt>
<trkpt lat="53.104593" lon="06.029816"><ele>0.6</ele><time>2021-05-12T11:54:57Z</time><name>PT4866</name></trkpt>
<trkpt lat="53.104603" lon="06.029812"><ele>0.6</ele><time>2021-05-12T11:54:58Z</time><name>PT4867</name></trkpt>
<trkpt lat="53.104612" lon="06.029807"><ele>0.5</ele><time>2021-05-12T11:54:59Z</time><name>PT4868</name></trkpt>
<trkpt lat="53.104622" lon="06.029802"><ele>0.6</ele><time>2021-05-12T11:55:00Z</time><name>PT4869</name></trkpt>
<trkpt lat="53.104634" lon="06.029798"><ele>0.5</ele><time>2021-05-12T11:55:01Z</time><name>PT4870</name></trkpt>
<trkpt lat="53.104647" lon="06.029795"><ele>0.6</ele><time>2021-05-12T11:55:02Z</time><name>PT4871</name></trkpt>
<trkpt lat="53.104660" lon="06.029790"><ele>0.6</ele><time>2021-05-12T11:55:03Z</time><name>PT4872</name></trkpt>
<trkpt lat="53.104670" lon="06.029781"><ele>0.6</ele><time>2021-05-12T11:55:04Z</time><name>PT4873</name></trkpt>
<trkpt lat="53.104675" lon="06.029771"><ele>0.7</ele><time>2021-05-12T11:55:05Z</time><name>PT4874</name></trkpt>
<trkpt lat="53.104684" lon="06.029761"><ele>0.7</ele><time>2021-05-12T11:55:06Z</time><name>PT4875</name></trkpt>
<trkpt lat="53.104696" lon="06.029749"><ele>0.7</ele><time>2021-05-12T11:55:07Z</time><name>PT4876</name></trkpt>
<trkpt lat="53.104712" lon="06.029741"><ele>0.7</ele><time>2021-05-12T11:55:08Z</time><name>PT4877</name></trkpt>
<trkpt lat="53.104726" lon="06.029730"><ele>0.9</ele><time>2021-05-12T11:55:09Z</time><name>PT4878</name></trkpt>
<trkpt lat="53.104736" lon="06.029721"><ele>0.8</ele><time>2021-05-12T11:55:10Z</time><name>PT4879</name></trkpt>
<trkpt lat="53.104745" lon="06.029711"><ele>0.8</ele><time>2021-05-12T11:55:11Z</time><name>PT4880</name></trkpt>
<trkpt lat="53.104757" lon="06.029702"><ele>0.9</ele><time>2021-05-12T11:55:12Z</time><name>PT4881</name></trkpt>
<trkpt lat="53.104765" lon="06.029693"><ele>0.7</ele><time>2021-05-12T11:55:13Z</time><name>PT4882</name></trkpt>
<trkpt lat="53.104776" lon="06.029686"><ele>0.6</ele><time>2021-05-12T11:55:14Z</time><name>PT4883</name></trkpt>
<trkpt lat="53.104792" lon="06.029681"><ele>0.6</ele><time>2021-05-12T11:55:15Z</time><name>PT4884</name></trkpt>
<trkpt lat="53.104804" lon="06.029673"><ele>0.7</ele><time>2021-05-12T11:55:16Z</time><name>PT4885</name></trkpt>
<trkpt lat="53.104814" lon="06.029663"><ele>-1</ele><time>2021-05-12T11:55:17Z</time><name>PT4886</name></trkpt>
<trkpt lat="53.104827" lon="06.029654"><ele>-1.1</ele><time>2021-05-12T11:55:18Z</time><name>PT4887</name></trkpt>
<trkpt lat="53.104838" lon="06.029644"><ele>-1.2</ele><time>2021-05-12T11:55:19Z</time><name>PT4888</name></trkpt>
<trkpt lat="53.104849" lon="06.029632"><ele>-1.4</ele><time>2021-05-12T11:55:20Z</time><name>PT4889</name></trkpt>
<trkpt lat="53.104859" lon="06.029619"><ele>-1.3</ele><time>2021-05-12T11:55:21Z</time><name>PT4890</name></trkpt>
<trkpt lat="53.104868" lon="06.029606"><ele>-1.4</ele><time>2021-05-12T11:55:22Z</time><name>PT4891</name></trkpt>
<trkpt lat="53.104876" lon="06.029593"><ele>-1.5</ele><time>2021-05-12T11:55:23Z</time><name>PT4892</name></trkpt>
<trkpt lat="53.104888" lon="06.029582"><ele>-1.5</ele><time>2021-05-12T11:55:24Z</time><name>PT4893</name></trkpt>
<trkpt lat="53.104898" lon="06.029574"><ele>-1.5</ele><time>2021-05-12T11:55:25Z</time><name>PT4894</name></trkpt>
<trkpt lat="53.104912" lon="06.029567"><ele>-1.6</ele><time>2021-05-12T11:55:26Z</time><name>PT4895</name></trkpt>
<trkpt lat="53.104926" lon="06.029557"><ele>-1.7</ele><time>2021-05-12T11:55:27Z</time><name>PT4896</name></trkpt>
<trkpt lat="53.104939" lon="06.029547"><ele>-1.7</ele><time>2021-05-12T11:55:28Z</time><name>PT4897</name></trkpt>
<trkpt lat="53.104949" lon="06.029537"><ele>-1.8</ele><time>2021-05-12T11:55:29Z</time><name>PT4898</name></trkpt>
<trkpt lat="53.104960" lon="06.029527"><ele>-1.7</ele><time>2021-05-12T11:55:30Z</time><name>PT4899</name></trkpt>
<trkpt lat="53.104971" lon="06.029517"><ele>-1.6</ele><time>2021-05-12T11:55:31Z</time><name>PT4900</name></trkpt>
<trkpt lat="53.104981" lon="06.029507"><ele>-1.5</ele><time>2021-05-12T11:55:32Z</time><name>PT4901</name></trkpt>
<trkpt lat="53.104991" lon="06.029496"><ele>-1.5</ele><time>2021-05-12T11:55:33Z</time><name>PT4902</name></trkpt>
<trkpt lat="53.105001" lon="06.029486"><ele>-1.6</ele><time>2021-05-12T11:55:34Z</time><name>PT4903</name></trkpt>
<trkpt lat="53.105013" lon="06.029476"><ele>-1.6</ele><time>2021-05-12T11:55:35Z</time><name>PT4904</name></trkpt>
<trkpt lat="53.105025" lon="06.029467"><ele>-1.8</ele><time>2021-05-12T11:55:36Z</time><name>PT4905</name></trkpt>
<trkpt lat="53.105036" lon="06.029458"><ele>-1.8</ele><time>2021-05-12T11:55:37Z</time><name>PT4906</name></trkpt>
<trkpt lat="53.105048" lon="06.029450"><ele>-1.7</ele><time>2021-05-12T11:55:38Z</time><name>PT4907</name></trkpt>
<trkpt lat="53.105059" lon="06.029442"><ele>-1.8</ele><time>2021-05-12T11:55:39Z</time><name>PT4908</name></trkpt>
<trkpt lat="53.105069" lon="06.029432"><ele>-1.9</ele><time>2021-05-12T11:55:40Z</time><name>PT4909</name></trkpt>
<trkpt lat="53.105079" lon="06.029422"><ele>-1.9</ele><time>2021-05-12T11:55:41Z</time><name>PT4910</name></trkpt>
<trkpt lat="53.105089" lon="06.029411"><ele>-1.7</ele><time>2021-05-12T11:55:42Z</time><name>PT4911</name></trkpt>
<trkpt lat="53.105099" lon="06.029399"><ele>-1.8</ele><time>2021-05-12T11:55:43Z</time><name>PT4912</name></trkpt>
<trkpt lat="53.105109" lon="06.029389"><ele>-1.7</ele><time>2021-05-12T11:55:44Z</time><name>PT4913</name></trkpt>
<trkpt lat="53.105121" lon="06.029380"><ele>-1.6</ele><time>2021-05-12T11:55:45Z</time><name>PT4914</name></trkpt>
<trkpt lat="53.105132" lon="06.029373"><ele>-1.6</ele><time>2021-05-12T11:55:46Z</time><name>PT4915</name></trkpt>
<trkpt lat="53.105144" lon="06.029368"><ele>-1.4</ele><time>2021-05-12T11:55:47Z</time><name>PT4916</name></trkpt>
<trkpt lat="53.105156" lon="06.029361"><ele>-1.2</ele><time>2021-05-12T11:55:48Z</time><name>PT4917</name></trkpt>
<trkpt lat="53.105170" lon="06.029354"><ele>-1.1</ele><time>2021-05-12T11:55:49Z</time><name>PT4918</name></trkpt>
<trkpt lat="53.105181" lon="06.029347"><ele>-1.2</ele><time>2021-05-12T11:55:50Z</time><name>PT4919</name></trkpt>
<trkpt lat="53.105190" lon="06.029339"><ele>-1.5</ele><time>2021-05-12T11:55:51Z</time><name>PT4920</name></trkpt>
<trkpt lat="53.105201" lon="06.029331"><ele>-1.6</ele><time>2021-05-12T11:55:52Z</time><name>PT4921</name></trkpt>
<trkpt lat="53.105210" lon="06.029321"><ele>-1.7</ele><time>2021-05-12T11:55:53Z</time><name>PT4922</name></trkpt>
<trkpt lat="53.105222" lon="06.029313"><ele>-1.8</ele><time>2021-05-12T11:55:54Z</time><name>PT4923</name></trkpt>
<trkpt lat="53.105232" lon="06.029306"><ele>-1.8</ele><time>2021-05-12T11:55:55Z</time><name>PT4924</name></trkpt>
<trkpt lat="53.105243" lon="06.029297"><ele>-1.6</ele><time>2021-05-12T11:55:56Z</time><name>PT4925</name></trkpt>
<trkpt lat="53.105253" lon="06.029290"><ele>-1.6</ele><time>2021-05-12T11:55:57Z</time><name>PT4926</name></trkpt>
<trkpt lat="53.105263" lon="06.029286"><ele>-1.6</ele><time>2021-05-12T11:55:58Z</time><name>PT4927</name></trkpt>
<trkpt lat="53.105273" lon="06.029282"><ele>-1.5</ele><time>2021-05-12T11:55:59Z</time><name>PT4928</name></trkpt>
<trkpt lat="53.105283" lon="06.029276"><ele>-1.5</ele><time>2021-05-12T11:56:00Z</time><name>PT4929</name></trkpt>
<trkpt lat="53.105294" lon="06.029270"><ele>-1.6</ele><time>2021-05-12T11:56:01Z</time><name>PT4930</name></trkpt>
<trkpt lat="53.105304" lon="06.029263"><ele>-1.3</ele><time>2021-05-12T11:56:02Z</time><name>PT4931</name></trkpt>
<trkpt lat="53.105313" lon="06.029259"><ele>-1.4</ele><time>2021-05-12T11:56:03Z</time><name>PT4932</name></trkpt>
<trkpt lat="53.105322" lon="06.029252"><ele>-1.3</ele><time>2021-05-12T11:56:04Z</time><name>PT4933</name></trkpt>
<trkpt lat="53.105333" lon="06.029242"><ele>-1.2</ele><time>2021-05-12T11:56:05Z</time><name>PT4934</name></trkpt>
<trkpt lat="53.105343" lon="06.029235"><ele>-1.1</ele><time>2021-05-12T11:56:06Z</time><name>PT4935</name></trkpt>
<trkpt lat="53.105353" lon="06.029230"><ele>-1</ele><time>2021-05-12T11:56:07Z</time><name>PT4936</name></trkpt>
<trkpt lat="53.105363" lon="06.029226"><ele>-1.1</ele><time>2021-05-12T11:56:08Z</time><name>PT4937</name></trkpt>
<trkpt lat="53.105373" lon="06.029221"><ele>-1.1</ele><time>2021-05-12T11:56:09Z</time><name>PT4938</name></trkpt>
<trkpt lat="53.105385" lon="06.029216"><ele>-1.1</ele><time>2021-05-12T11:56:10Z</time><name>PT4939</name></trkpt>
<trkpt lat="53.105395" lon="06.029211"><ele>-1.4</ele><time>2021-05-12T11:56:11Z</time><name>PT4940</name></trkpt>
<trkpt lat="53.105403" lon="06.029203"><ele>-1.2</ele><time>2021-05-12T11:56:12Z</time><name>PT4941</name></trkpt>
<trkpt lat="53.105415" lon="06.029195"><ele>-1.2</ele><time>2021-05-12T11:56:13Z</time><name>PT4942</name></trkpt>
<trkpt lat="53.105426" lon="06.029186"><ele>-1.2</ele><time>2021-05-12T11:56:14Z</time><name>PT4943</name></trkpt>
<trkpt lat="53.105437" lon="06.029177"><ele>-1.1</ele><time>2021-05-12T11:56:15Z</time><name>PT4944</name></trkpt>
<trkpt lat="53.105449" lon="06.029170"><ele>-1.1</ele><time>2021-05-12T11:56:16Z</time><name>PT4945</name></trkpt>
<trkpt lat="53.105461" lon="06.029164"><ele>-1.1</ele><time>2021-05-12T11:56:17Z</time><name>PT4946</name></trkpt>
<trkpt lat="53.105471" lon="06.029158"><ele>-1.1</ele><time>2021-05-12T11:56:18Z</time><name>PT4947</name></trkpt>
<trkpt lat="53.105482" lon="06.029151"><ele>-1.2</ele><time>2021-05-12T11:56:19Z</time><name>PT4948</name></trkpt>
<trkpt lat="53.105492" lon="06.029144"><ele>-1.2</ele><time>2021-05-12T11:56:20Z</time><name>PT4949</name></trkpt>
<trkpt lat="53.105504" lon="06.029139"><ele>-1.3</ele><time>2021-05-12T11:56:21Z</time><name>PT4950</name></trkpt>
<trkpt lat="53.105516" lon="06.029132"><ele>-1.4</ele><time>2021-05-12T11:56:22Z</time><name>PT4951</name></trkpt>
<trkpt lat="53.105529" lon="06.029126"><ele>-1.4</ele><time>2021-05-12T11:56:23Z</time><name>PT4952</name></trkpt>
<trkpt lat="53.105540" lon="06.029119"><ele>-1.4</ele><time>2021-05-12T11:56:24Z</time><name>PT4953</name></trkpt>
<trkpt lat="53.105552" lon="06.029112"><ele>-1.4</ele><time>2021-05-12T11:56:25Z</time><name>PT4954</name></trkpt>
<trkpt lat="53.105562" lon="06.029102"><ele>-1.2</ele><time>2021-05-12T11:56:26Z</time><name>PT4955</name></trkpt>
<trkpt lat="53.105573" lon="06.029096"><ele>-1.1</ele><time>2021-05-12T11:56:27Z</time><name>PT4956</name></trkpt>
<trkpt lat="53.105584" lon="06.029091"><ele>-1.1</ele><time>2021-05-12T11:56:28Z</time><name>PT4957</name></trkpt>
<trkpt lat="53.105593" lon="06.029086"><ele>-1.2</ele><time>2021-05-12T11:56:29Z</time><name>PT4958</name></trkpt>
<trkpt lat="53.105605" lon="06.029081"><ele>-1.4</ele><time>2021-05-12T11:56:30Z</time><name>PT4959</name></trkpt>
<trkpt lat="53.105618" lon="06.029076"><ele>-1.3</ele><time>2021-05-12T11:56:31Z</time><name>PT4960</name></trkpt>
<trkpt lat="53.105632" lon="06.029071"><ele>-1.3</ele><time>2021-05-12T11:56:32Z</time><name>PT4961</name></trkpt>
<trkpt lat="53.105643" lon="06.029065"><ele>-1.3</ele><time>2021-05-12T11:56:33Z</time><name>PT4962</name></trkpt>
<trkpt lat="53.105653" lon="06.029058"><ele>-1.2</ele><time>2021-05-12T11:56:34Z</time><name>PT4963</name></trkpt>
<trkpt lat="53.105665" lon="06.029051"><ele>-1.3</ele><time>2021-05-12T11:56:35Z</time><name>PT4964</name></trkpt>
<trkpt lat="53.105675" lon="06.029042"><ele>-1.3</ele><time>2021-05-12T11:56:36Z</time><name>PT4965</name></trkpt>
<trkpt lat="53.105687" lon="06.029035"><ele>-1.3</ele><time>2021-05-12T11:56:37Z</time><name>PT4966</name></trkpt>
<trkpt lat="53.105699" lon="06.029030"><ele>-1.1</ele><time>2021-05-12T11:56:38Z</time><name>PT4967</name></trkpt>
<trkpt lat="53.105711" lon="06.029025"><ele>-1.1</ele><time>2021-05-12T11:56:39Z</time><name>PT4968</name></trkpt>
<trkpt lat="53.105723" lon="06.029021"><ele>-1.1</ele><time>2021-05-12T11:56:40Z</time><name>PT4969</name></trkpt>
<trkpt lat="53.105735" lon="06.029016"><ele>-1.1</ele><time>2021-05-12T11:56:41Z</time><name>PT4970</name></trkpt>
<trkpt lat="53.105745" lon="06.029010"><ele>-1.1</ele><time>2021-05-12T11:56:42Z</time><name>PT4971</name></trkpt>
<trkpt lat="53.105753" lon="06.029004"><ele>-1.1</ele><time>2021-05-12T11:56:43Z</time><name>PT4972</name></trkpt>
<trkpt lat="53.105763" lon="06.028999"><ele>-1.2</ele><time>2021-05-12T11:56:44Z</time><name>PT4973</name></trkpt>
<trkpt lat="53.105775" lon="06.028995"><ele>-1.3</ele><time>2021-05-12T11:56:45Z</time><name>PT4974</name></trkpt>
<trkpt lat="53.105785" lon="06.028992"><ele>-1.4</ele><time>2021-05-12T11:56:46Z</time><name>PT4975</name></trkpt>
<trkpt lat="53.105795" lon="06.028990"><ele>-1.4</ele><time>2021-05-12T11:56:47Z</time><name>PT4976</name></trkpt>
<trkpt lat="53.105806" lon="06.028991"><ele>-1.3</ele><time>2021-05-12T11:56:48Z</time><name>PT4977</name></trkpt>
<trkpt lat="53.105815" lon="06.028993"><ele>-1.3</ele><time>2021-05-12T11:56:49Z</time><name>PT4978</name></trkpt>
<trkpt lat="53.105826" lon="06.028991"><ele>-1.1</ele><time>2021-05-12T11:56:50Z</time><name>PT4979</name></trkpt>
<trkpt lat="53.105835" lon="06.028988"><ele>-1.1</ele><time>2021-05-12T11:56:51Z</time><name>PT4980</name></trkpt>
<trkpt lat="53.105846" lon="06.028985"><ele>-1.1</ele><time>2021-05-12T11:56:52Z</time><name>PT4981</name></trkpt>
<trkpt lat="53.105855" lon="06.028981"><ele>-1.1</ele><time>2021-05-12T11:56:53Z</time><name>PT4982</name></trkpt>
<trkpt lat="53.105866" lon="06.028977"><ele>-1.2</ele><time>2021-05-12T11:56:54Z</time><name>PT4983</name></trkpt>
<trkpt lat="53.105878" lon="06.028976"><ele>-1.2</ele><time>2021-05-12T11:56:55Z</time><name>PT4984</name></trkpt>
<trkpt lat="53.105889" lon="06.028977"><ele>-1.1</ele><time>2021-05-12T11:56:56Z</time><name>PT4985</name></trkpt>
<trkpt lat="53.105898" lon="06.028979"><ele>-1.1</ele><time>2021-05-12T11:56:57Z</time><name>PT4986</name></trkpt>
<trkpt lat="53.105908" lon="06.028980"><ele>-1.1</ele><time>2021-05-12T11:56:58Z</time><name>PT4987</name></trkpt>
<trkpt lat="53.105917" lon="06.028976"><ele>-1.1</ele><time>2021-05-12T11:56:59Z</time><name>PT4988</name></trkpt>
<trkpt lat="53.105924" lon="06.028967"><ele>-1.2</ele><time>2021-05-12T11:57:00Z</time><name>PT4989</name></trkpt>
<trkpt lat="53.105931" lon="06.028960"><ele>-1.3</ele><time>2021-05-12T11:57:01Z</time><name>PT4990</name></trkpt>
<trkpt lat="53.105939" lon="06.028956"><ele>-1.2</ele><time>2021-05-12T11:57:02Z</time><name>PT4991</name></trkpt>
<trkpt lat="53.105948" lon="06.028954"><ele>-1.4</ele><time>2021-05-12T11:57:03Z</time><name>PT4992</name></trkpt>
<trkpt lat="53.105958" lon="06.028953"><ele>-1.2</ele><time>2021-05-12T11:57:04Z</time><name>PT4993</name></trkpt>
<trkpt lat="53.105966" lon="06.028953"><ele>-1.1</ele><time>2021-05-12T11:57:05Z</time><name>PT4994</name></trkpt>
<trkpt lat="53.105973" lon="06.028951"><ele>-1.3</ele><time>2021-05-12T11:57:06Z</time><name>PT4995</name></trkpt>
<trkpt lat="53.105982" lon="06.028949"><ele>-1.3</ele><time>2021-05-12T11:57:07Z</time><name>PT4996</name></trkpt>
<trkpt lat="53.105989" lon="06.028944"><ele>-1.3</ele><time>2021-05-12T11:57:08Z</time><name>PT4997</name></trkpt>
<trkpt lat="53.106000" lon="06.028936"><ele>-1.3</ele><time>2021-05-12T11:57:09Z</time><name>PT4998</name></trkpt>
<trkpt lat="53.106007" lon="06.028934"><ele>-1.2</ele><time>2021-05-12T11:57:10Z</time><name>PT4999</name></trkpt>
<trkpt lat="53.106009" lon="06.028935"><ele>-1.1</ele><time>2021-05-12T11:57:11Z</time><name>PT5000</name></trkpt>
<trkpt lat="53.106011" lon="06.028938"><ele>-1</ele><time>2021-05-12T11:57:12Z</time><name>PT5001</name></trkpt>
<trkpt lat="53.106013" lon="06.028937"><ele>-1</ele><time>2021-05-12T11:57:13Z</time><name>PT5002</name></trkpt>
<trkpt lat="53.106022" lon="06.028933"><ele>0.9</ele><time>2021-05-12T11:57:14Z</time><name>PT5003</name></trkpt>
<trkpt lat="53.106031" lon="06.028928"><ele>0.9</ele><time>2021-05-12T11:57:15Z</time><name>PT5004</name></trkpt>
<trkpt lat="53.106040" lon="06.028928"><ele>0.8</ele><time>2021-05-12T11:57:16Z</time><name>PT5005</name></trkpt>
<trkpt lat="53.106044" lon="06.028929"><ele>0.6</ele><time>2021-05-12T11:57:17Z</time><name>PT5006</name></trkpt>
<trkpt lat="53.106045" lon="06.028929"><ele>0.6</ele><time>2021-05-12T11:57:18Z</time><name>PT5007</name></trkpt>
<trkpt lat="53.106047" lon="06.028930"><ele>0.7</ele><time>2021-05-12T11:57:19Z</time><name>PT5008</name></trkpt>
<trkpt lat="53.106051" lon="06.028926"><ele>0.9</ele><time>2021-05-12T11:57:21Z</time><name>PT5009</name></trkpt>
<trkpt lat="53.106060" lon="06.028917"><ele>0.9</ele><time>2021-05-12T11:57:22Z</time><name>PT5010</name></trkpt>
<trkpt lat="53.106066" lon="06.028908"><ele>-1</ele><time>2021-05-12T11:57:23Z</time><name>PT5011</name></trkpt>
<trkpt lat="53.106068" lon="06.028907"><ele>-1.1</ele><time>2021-05-12T11:57:24Z</time><name>PT5012</name></trkpt>
<trkpt lat="53.106069" lon="06.028908"><ele>-1</ele><time>2021-05-12T11:57:25Z</time><name>PT5013</name></trkpt>
<trkpt lat="53.106071" lon="06.028910"><ele>-1.1</ele><time>2021-05-12T11:57:26Z</time><name>PT5014</name></trkpt>
<trkpt lat="53.106075" lon="06.028906"><ele>0.9</ele><time>2021-05-12T11:57:32Z</time><name>PT5015</name></trkpt>
<trkpt lat="53.106074" lon="06.028903"><ele>-1</ele><time>2021-05-12T11:57:33Z</time><name>PT5016</name></trkpt>
<trkpt lat="53.106073" lon="06.028903"><ele>0.9</ele><time>2021-05-12T11:57:34Z</time><name>PT5017</name></trkpt>
<trkpt lat="53.106070" lon="06.028905"><ele>0.9</ele><time>2021-05-12T11:57:35Z</time><name>PT5018</name></trkpt>
<trkpt lat="53.106078" lon="06.028901"><ele>0.9</ele><time>2021-05-12T11:57:54Z</time><name>PT5019</name></trkpt>
<trkpt lat="53.106091" lon="06.028887"><ele>0.7</ele><time>2021-05-12T11:57:55Z</time><name>PT5020</name></trkpt>
<trkpt lat="53.106105" lon="06.028881"><ele>0.6</ele><time>2021-05-12T11:57:56Z</time><name>PT5021</name></trkpt>
<trkpt lat="53.106117" lon="06.028876"><ele>0.6</ele><time>2021-05-12T11:57:57Z</time><name>PT5022</name></trkpt>
<trkpt lat="53.106126" lon="06.028866"><ele>0.6</ele><time>2021-05-12T11:57:58Z</time><name>PT5023</name></trkpt>
<trkpt lat="53.106136" lon="06.028859"><ele>0.8</ele><time>2021-05-12T11:57:59Z</time><name>PT5024</name></trkpt>
<trkpt lat="53.106145" lon="06.028852"><ele>0.9</ele><time>2021-05-12T11:58:00Z</time><name>PT5025</name></trkpt>
<trkpt lat="53.106156" lon="06.028845"><ele>0.9</ele><time>2021-05-12T11:58:01Z</time><name>PT5026</name></trkpt>
<trkpt lat="53.106165" lon="06.028835"><ele>-1.3</ele><time>2021-05-12T11:58:02Z</time><name>PT5027</name></trkpt>
<trkpt lat="53.106176" lon="06.028826"><ele>-1.4</ele><time>2021-05-12T11:58:03Z</time><name>PT5028</name></trkpt>
<trkpt lat="53.106187" lon="06.028817"><ele>-1.5</ele><time>2021-05-12T11:58:04Z</time><name>PT5029</name></trkpt>
<trkpt lat="53.106199" lon="06.028811"><ele>-1.6</ele><time>2021-05-12T11:58:05Z</time><name>PT5030</name></trkpt>
<trkpt lat="53.106210" lon="06.028806"><ele>-1.2</ele><time>2021-05-12T11:58:06Z</time><name>PT5031</name></trkpt>
<trkpt lat="53.106220" lon="06.028801"><ele>-1.1</ele><time>2021-05-12T11:58:07Z</time><name>PT5032</name></trkpt>
<trkpt lat="53.106229" lon="06.028795"><ele>-1</ele><time>2021-05-12T11:58:08Z</time><name>PT5033</name></trkpt>
<trkpt lat="53.106239" lon="06.028788"><ele>0.9</ele><time>2021-05-12T11:58:09Z</time><name>PT5034</name></trkpt>
<trkpt lat="53.106251" lon="06.028780"><ele>0.9</ele><time>2021-05-12T11:58:10Z</time><name>PT5035</name></trkpt>
<trkpt lat="53.106263" lon="06.028772"><ele>0.9</ele><time>2021-05-12T11:58:11Z</time><name>PT5036</name></trkpt>
<trkpt lat="53.106276" lon="06.028766"><ele>-1</ele><time>2021-05-12T11:58:12Z</time><name>PT5037</name></trkpt>
<trkpt lat="53.106289" lon="06.028761"><ele>-1.1</ele><time>2021-05-12T11:58:13Z</time><name>PT5038</name></trkpt>
<trkpt lat="53.106300" lon="06.028760"><ele>-1.1</ele><time>2021-05-12T11:58:14Z</time><name>PT5039</name></trkpt>
<trkpt lat="53.106308" lon="06.028763"><ele>0.9</ele><time>2021-05-12T11:58:15Z</time><name>PT5040</name></trkpt>
<trkpt lat="53.106318" lon="06.028764"><ele>-1</ele><time>2021-05-12T11:58:16Z</time><name>PT5041</name></trkpt>
<trkpt lat="53.106330" lon="06.028761"><ele>0.8</ele><time>2021-05-12T11:58:17Z</time><name>PT5042</name></trkpt>
<trkpt lat="53.106344" lon="06.028755"><ele>0.9</ele><time>2021-05-12T11:58:18Z</time><name>PT5043</name></trkpt>
<trkpt lat="53.106356" lon="06.028750"><ele>0.9</ele><time>2021-05-12T11:58:19Z</time><name>PT5044</name></trkpt>
<trkpt lat="53.106367" lon="06.028745"><ele>0.8</ele><time>2021-05-12T11:58:20Z</time><name>PT5045</name></trkpt>
<trkpt lat="53.106378" lon="06.028739"><ele>0.7</ele><time>2021-05-12T11:58:21Z</time><name>PT5046</name></trkpt>
<trkpt lat="53.106390" lon="06.028732"><ele>0.8</ele><time>2021-05-12T11:58:22Z</time><name>PT5047</name></trkpt>
<trkpt lat="53.106402" lon="06.028725"><ele>0.8</ele><time>2021-05-12T11:58:23Z</time><name>PT5048</name></trkpt>
<trkpt lat="53.106412" lon="06.028720"><ele>0.9</ele><time>2021-05-12T11:58:24Z</time><name>PT5049</name></trkpt>
<trkpt lat="53.106425" lon="06.028715"><ele>-1</ele><time>2021-05-12T11:58:25Z</time><name>PT5050</name></trkpt>
<trkpt lat="53.106436" lon="06.028711"><ele>-1.1</ele><time>2021-05-12T11:58:26Z</time><name>PT5051</name></trkpt>
<trkpt lat="53.106446" lon="06.028708"><ele>-1.1</ele><time>2021-05-12T11:58:27Z</time><name>PT5052</name></trkpt>
<trkpt lat="53.106456" lon="06.028704"><ele>-1.1</ele><time>2021-05-12T11:58:28Z</time><name>PT5053</name></trkpt>
<trkpt lat="53.106467" lon="06.028699"><ele>-1.1</ele><time>2021-05-12T11:58:29Z</time><name>PT5054</name></trkpt>
<trkpt lat="53.106477" lon="06.028694"><ele>-1.1</ele><time>2021-05-12T11:58:30Z</time><name>PT5055</name></trkpt>
<trkpt lat="53.106487" lon="06.028686"><ele>-1.1</ele><time>2021-05-12T11:58:31Z</time><name>PT5056</name></trkpt>
<trkpt lat="53.106497" lon="06.028679"><ele>0.8</ele><time>2021-05-12T11:58:32Z</time><name>PT5057</name></trkpt>
<trkpt lat="53.106507" lon="06.028671"><ele>0.8</ele><time>2021-05-12T11:58:33Z</time><name>PT5058</name></trkpt>
<trkpt lat="53.106518" lon="06.028663"><ele>0.8</ele><time>2021-05-12T11:58:34Z</time><name>PT5059</name></trkpt>
<trkpt lat="53.106529" lon="06.028655"><ele>-1.1</ele><time>2021-05-12T11:58:35Z</time><name>PT5060</name></trkpt>
<trkpt lat="53.106539" lon="06.028649"><ele>-1.3</ele><time>2021-05-12T11:58:36Z</time><name>PT5061</name></trkpt>
<trkpt lat="53.106551" lon="06.028641"><ele>-1.4</ele><time>2021-05-12T11:58:37Z</time><name>PT5062</name></trkpt>
<trkpt lat="53.106562" lon="06.028633"><ele>-1.4</ele><time>2021-05-12T11:58:38Z</time><name>PT5063</name></trkpt>
<trkpt lat="53.106575" lon="06.028626"><ele>-1.2</ele><time>2021-05-12T11:58:39Z</time><name>PT5064</name></trkpt>
<trkpt lat="53.106586" lon="06.028619"><ele>-1.2</ele><time>2021-05-12T11:58:40Z</time><name>PT5065</name></trkpt>
<trkpt lat="53.106597" lon="06.028613"><ele>-1.2</ele><time>2021-05-12T11:58:41Z</time><name>PT5066</name></trkpt>
<trkpt lat="53.106608" lon="06.028608"><ele>-1.6</ele><time>2021-05-12T11:58:42Z</time><name>PT5067</name></trkpt>
<trkpt lat="53.106619" lon="06.028603"><ele>-1.7</ele><time>2021-05-12T11:58:43Z</time><name>PT5068</name></trkpt>
<trkpt lat="53.106631" lon="06.028601"><ele>-1.7</ele><time>2021-05-12T11:58:44Z</time><name>PT5069</name></trkpt>
<trkpt lat="53.106642" lon="06.028600"><ele>-1.6</ele><time>2021-05-12T11:58:45Z</time><name>PT5070</name></trkpt>
<trkpt lat="53.106653" lon="06.028595"><ele>-1.6</ele><time>2021-05-12T11:58:46Z</time><name>PT5071</name></trkpt>
<trkpt lat="53.106664" lon="06.028589"><ele>-1.6</ele><time>2021-05-12T11:58:47Z</time><name>PT5072</name></trkpt>
<trkpt lat="53.106676" lon="06.028584"><ele>-1.6</ele><time>2021-05-12T11:58:48Z</time><name>PT5073</name></trkpt>
<trkpt lat="53.106688" lon="06.028580"><ele>-1.6</ele><time>2021-05-12T11:58:49Z</time><name>PT5074</name></trkpt>
<trkpt lat="53.106698" lon="06.028573"><ele>-1.5</ele><time>2021-05-12T11:58:50Z</time><name>PT5075</name></trkpt>
<trkpt lat="53.106708" lon="06.028564"><ele>-1.5</ele><time>2021-05-12T11:58:51Z</time><name>PT5076</name></trkpt>
<trkpt lat="53.106718" lon="06.028555"><ele>-1.5</ele><time>2021-05-12T11:58:52Z</time><name>PT5077</name></trkpt>
<trkpt lat="53.106727" lon="06.028546"><ele>-1.6</ele><time>2021-05-12T11:58:53Z</time><name>PT5078</name></trkpt>
<trkpt lat="53.106736" lon="06.028536"><ele>-1.5</ele><time>2021-05-12T11:58:54Z</time><name>PT5079</name></trkpt>
<trkpt lat="53.106746" lon="06.028529"><ele>-1.4</ele><time>2021-05-12T11:58:55Z</time><name>PT5080</name></trkpt>
<trkpt lat="53.106756" lon="06.028527"><ele>-1.4</ele><time>2021-05-12T11:58:56Z</time><name>PT5081</name></trkpt>
<trkpt lat="53.106767" lon="06.028524"><ele>0.9</ele><time>2021-05-12T11:58:57Z</time><name>PT5082</name></trkpt>
<trkpt lat="53.106778" lon="06.028519"><ele>0.7</ele><time>2021-05-12T11:58:58Z</time><name>PT5083</name></trkpt>
<trkpt lat="53.106790" lon="06.028513"><ele>0.6</ele><time>2021-05-12T11:58:59Z</time><name>PT5084</name></trkpt>
<trkpt lat="53.106802" lon="06.028508"><ele>0.6</ele><time>2021-05-12T11:59:00Z</time><name>PT5085</name></trkpt>
<trkpt lat="53.106815" lon="06.028504"><ele>0.6</ele><time>2021-05-12T11:59:01Z</time><name>PT5086</name></trkpt>
<trkpt lat="53.106827" lon="06.028499"><ele>0.6</ele><time>2021-05-12T11:59:02Z</time><name>PT5087</name></trkpt>
<trkpt lat="53.106837" lon="06.028495"><ele>-1</ele><time>2021-05-12T11:59:03Z</time><name>PT5088</name></trkpt>
<trkpt lat="53.106848" lon="06.028489"><ele>-1.1</ele><time>2021-05-12T11:59:04Z</time><name>PT5089</name></trkpt>
<trkpt lat="53.106858" lon="06.028482"><ele>-1.1</ele><time>2021-05-12T11:59:05Z</time><name>PT5090</name></trkpt>
<trkpt lat="53.106869" lon="06.028473"><ele>-1.2</ele><time>2021-05-12T11:59:06Z</time><name>PT5091</name></trkpt>
<trkpt lat="53.106878" lon="06.028465"><ele>-1.1</ele><time>2021-05-12T11:59:07Z</time><name>PT5092</name></trkpt>
<trkpt lat="53.106889" lon="06.028460"><ele>-1</ele><time>2021-05-12T11:59:08Z</time><name>PT5093</name></trkpt>
<trkpt lat="53.106900" lon="06.028458"><ele>-1</ele><time>2021-05-12T11:59:09Z</time><name>PT5094</name></trkpt>
<trkpt lat="53.106910" lon="06.028455"><ele>-1</ele><time>2021-05-12T11:59:10Z</time><name>PT5095</name></trkpt>
<trkpt lat="53.106923" lon="06.028452"><ele>0.8</ele><time>2021-05-12T11:59:11Z</time><name>PT5096</name></trkpt>
<trkpt lat="53.106935" lon="06.028447"><ele>0.8</ele><time>2021-05-12T11:59:12Z</time><name>PT5097</name></trkpt>
<trkpt lat="53.106946" lon="06.028442"><ele>0.9</ele><time>2021-05-12T11:59:13Z</time><name>PT5098</name></trkpt>
<trkpt lat="53.106957" lon="06.028437"><ele>0.8</ele><time>2021-05-12T11:59:14Z</time><name>PT5099</name></trkpt>
<trkpt lat="53.106967" lon="06.028431"><ele>-1.1</ele><time>2021-05-12T11:59:15Z</time><name>PT5100</name></trkpt>
<trkpt lat="53.106978" lon="06.028423"><ele>0.9</ele><time>2021-05-12T11:59:16Z</time><name>PT5101</name></trkpt>
<trkpt lat="53.106985" lon="06.028412"><ele>0.8</ele><time>2021-05-12T11:59:17Z</time><name>PT5102</name></trkpt>
<trkpt lat="53.106994" lon="06.028402"><ele>0.9</ele><time>2021-05-12T11:59:18Z</time><name>PT5103</name></trkpt>
<trkpt lat="53.107003" lon="06.028396"><ele>0.9</ele><time>2021-05-12T11:59:19Z</time><name>PT5104</name></trkpt>
<trkpt lat="53.107015" lon="06.028392"><ele>-1</ele><time>2021-05-12T11:59:20Z</time><name>PT5105</name></trkpt>
<trkpt lat="53.107025" lon="06.028389"><ele>-1</ele><time>2021-05-12T11:59:21Z</time><name>PT5106</name></trkpt>
<trkpt lat="53.107035" lon="06.028386"><ele>-1.1</ele><time>2021-05-12T11:59:22Z</time><name>PT5107</name></trkpt>
<trkpt lat="53.107048" lon="06.028379"><ele>-1.1</ele><time>2021-05-12T11:59:23Z</time><name>PT5108</name></trkpt>
<trkpt lat="53.107060" lon="06.028373"><ele>-1.1</ele><time>2021-05-12T11:59:24Z</time><name>PT5109</name></trkpt>
<trkpt lat="53.107071" lon="06.028367"><ele>-1.2</ele><time>2021-05-12T11:59:25Z</time><name>PT5110</name></trkpt>
<trkpt lat="53.107082" lon="06.028361"><ele>-1.1</ele><time>2021-05-12T11:59:26Z</time><name>PT5111</name></trkpt>
<trkpt lat="53.107092" lon="06.028354"><ele>-1.2</ele><time>2021-05-12T11:59:27Z</time><name>PT5112</name></trkpt>
<trkpt lat="53.107097" lon="06.028352"><ele>-1.1</ele><time>2021-05-12T11:59:28Z</time><name>PT5113</name></trkpt>
<trkpt lat="53.107097" lon="06.028351"><ele>-1.2</ele><time>2021-05-12T11:59:29Z</time><name>PT5114</name></trkpt>
<trkpt lat="53.107097" lon="06.028350"><ele>-1.1</ele><time>2021-05-12T11:59:30Z</time><name>PT5115</name></trkpt>
<trkpt lat="53.107096" lon="06.028349"><ele>-1</ele><time>2021-05-12T11:59:31Z</time><name>PT5116</name></trkpt>
<trkpt lat="53.107097" lon="06.028347"><ele>0.9</ele><time>2021-05-12T11:59:36Z</time><name>PT5117</name></trkpt>
<trkpt lat="53.107103" lon="06.028347"><ele>0.9</ele><time>2021-05-12T11:59:37Z</time><name>PT5118</name></trkpt>
<trkpt lat="53.107107" lon="06.028344"><ele>0.8</ele><time>2021-05-12T11:59:38Z</time><name>PT5119</name></trkpt>
<trkpt lat="53.107104" lon="06.028352"><ele>0.7</ele><time>2021-05-12T11:59:44Z</time><name>PT5120</name></trkpt>
<trkpt lat="53.107103" lon="06.028354"><ele>0.8</ele><time>2021-05-12T11:59:45Z</time><name>PT5121</name></trkpt>
<trkpt lat="53.107102" lon="06.028355"><ele>0.8</ele><time>2021-05-12T11:59:46Z</time><name>PT5122</name></trkpt>
<trkpt lat="53.107104" lon="06.028351"><ele>0.7</ele><time>2021-05-12T11:59:47Z</time><name>PT5123</name></trkpt>
<trkpt lat="53.107107" lon="06.028347"><ele>0.7</ele><time>2021-05-12T11:59:48Z</time><name>PT5124</name></trkpt>
<trkpt lat="53.107112" lon="06.028346"><ele>0.7</ele><time>2021-05-12T11:59:49Z</time><name>PT5125</name></trkpt>
<trkpt lat="53.107117" lon="06.028344"><ele>0.7</ele><time>2021-05-12T11:59:50Z</time><name>PT5126</name></trkpt>
<trkpt lat="53.107124" lon="06.028336"><ele>0.6</ele><time>2021-05-12T11:59:51Z</time><name>PT5127</name></trkpt>
<trkpt lat="53.107132" lon="06.028331"><ele>0.7</ele><time>2021-05-12T11:59:52Z</time><name>PT5128</name></trkpt>
<trkpt lat="53.107140" lon="06.028326"><ele>0.7</ele><time>2021-05-12T11:59:53Z</time><name>PT5129</name></trkpt>
<trkpt lat="53.107148" lon="06.028321"><ele>0.8</ele><time>2021-05-12T11:59:54Z</time><name>PT5130</name></trkpt>
<trkpt lat="53.107157" lon="06.028311"><ele>0.9</ele><time>2021-05-12T11:59:55Z</time><name>PT5131</name></trkpt>
<trkpt lat="53.107167" lon="06.028303"><ele>0.6</ele><time>2021-05-12T11:59:56Z</time><name>PT5132</name></trkpt>
<trkpt lat="53.107178" lon="06.028297"><ele>0.6</ele><time>2021-05-12T11:59:57Z</time><name>PT5133</name></trkpt>
<trkpt lat="53.107186" lon="06.028290"><ele>0.6</ele><time>2021-05-12T11:59:58Z</time><name>PT5134</name></trkpt>
<trkpt lat="53.107194" lon="06.028283"><ele>0.6</ele><time>2021-05-12T11:59:59Z</time><name>PT5135</name></trkpt>
<trkpt lat="53.107204" lon="06.028278"><ele>0.6</ele><time>2021-05-12T12:00:00Z</time><name>PT5136</name></trkpt>
<trkpt lat="53.107213" lon="06.028274"><ele>0.6</ele><time>2021-05-12T12:00:01Z</time><name>PT5137</name></trkpt>
<trkpt lat="53.107221" lon="06.028269"><ele>0.4</ele><time>2021-05-12T12:00:02Z</time><name>PT5138</name></trkpt>
<trkpt lat="53.107227" lon="06.028263"><ele>0.5</ele><time>2021-05-12T12:00:03Z</time><name>PT5139</name></trkpt>
<trkpt lat="53.107236" lon="06.028259"><ele>0.5</ele><time>2021-05-12T12:00:04Z</time><name>PT5140</name></trkpt>
<trkpt lat="53.107245" lon="06.028254"><ele>0.3</ele><time>2021-05-12T12:00:05Z</time><name>PT5141</name></trkpt>
<trkpt lat="53.107254" lon="06.028247"><ele>0.5</ele><time>2021-05-12T12:00:06Z</time><name>PT5142</name></trkpt>
<trkpt lat="53.107263" lon="06.028240"><ele>0.3</ele><time>2021-05-12T12:00:07Z</time><name>PT5143</name></trkpt>
<trkpt lat="53.107274" lon="06.028237"><ele>0.4</ele><time>2021-05-12T12:00:08Z</time><name>PT5144</name></trkpt>
<trkpt lat="53.107283" lon="06.028234"><ele>0.4</ele><time>2021-05-12T12:00:09Z</time><name>PT5145</name></trkpt>
<trkpt lat="53.107291" lon="06.028228"><ele>0.4</ele><time>2021-05-12T12:00:10Z</time><name>PT5146</name></trkpt>
<trkpt lat="53.107298" lon="06.028219"><ele>0.6</ele><time>2021-05-12T12:00:11Z</time><name>PT5147</name></trkpt>
<trkpt lat="53.107305" lon="06.028210"><ele>0.6</ele><time>2021-05-12T12:00:12Z</time><name>PT5148</name></trkpt>
<trkpt lat="53.107314" lon="06.028204"><ele>0.5</ele><time>2021-05-12T12:00:13Z</time><name>PT5149</name></trkpt>
<trkpt lat="53.107323" lon="06.028199"><ele>0.5</ele><time>2021-05-12T12:00:14Z</time><name>PT5150</name></trkpt>
<trkpt lat="53.107330" lon="06.028193"><ele>0.5</ele><time>2021-05-12T12:00:15Z</time><name>PT5151</name></trkpt>
<trkpt lat="53.107339" lon="06.028185"><ele>0.5</ele><time>2021-05-12T12:00:16Z</time><name>PT5152</name></trkpt>
<trkpt lat="53.107351" lon="06.028177"><ele>0.6</ele><time>2021-05-12T12:00:17Z</time><name>PT5153</name></trkpt>
<trkpt lat="53.107361" lon="06.028171"><ele>0.6</ele><time>2021-05-12T12:00:18Z</time><name>PT5154</name></trkpt>
<trkpt lat="53.107371" lon="06.028167"><ele>0.8</ele><time>2021-05-12T12:00:19Z</time><name>PT5155</name></trkpt>
<trkpt lat="53.107378" lon="06.028163"><ele>0.7</ele><time>2021-05-12T12:00:20Z</time><name>PT5156</name></trkpt>
<trkpt lat="53.107388" lon="06.028155"><ele>0.6</ele><time>2021-05-12T12:00:21Z</time><name>PT5157</name></trkpt>
<trkpt lat="53.107398" lon="06.028147"><ele>0.6</ele><time>2021-05-12T12:00:22Z</time><name>PT5158</name></trkpt>
<trkpt lat="53.107408" lon="06.028139"><ele>0.6</ele><time>2021-05-12T12:00:23Z</time><name>PT5159</name></trkpt>
<trkpt lat="53.107416" lon="06.028132"><ele>0.8</ele><time>2021-05-12T12:00:24Z</time><name>PT5160</name></trkpt>
<trkpt lat="53.107428" lon="06.028124"><ele>0.9</ele><time>2021-05-12T12:00:25Z</time><name>PT5161</name></trkpt>
<trkpt lat="53.107438" lon="06.028116"><ele>-1.1</ele><time>2021-05-12T12:00:26Z</time><name>PT5162</name></trkpt>
<trkpt lat="53.107446" lon="06.028107"><ele>-1.2</ele><time>2021-05-12T12:00:27Z</time><name>PT5163</name></trkpt>
<trkpt lat="53.107455" lon="06.028099"><ele>-1.2</ele><time>2021-05-12T12:00:28Z</time><name>PT5164</name></trkpt>
<trkpt lat="53.107461" lon="06.028093"><ele>-1.2</ele><time>2021-05-12T12:00:29Z</time><name>PT5165</name></trkpt>
<trkpt lat="53.107467" lon="06.028085"><ele>-1</ele><time>2021-05-12T12:00:30Z</time><name>PT5166</name></trkpt>
<trkpt lat="53.107473" lon="06.028076"><ele>0.9</ele><time>2021-05-12T12:00:31Z</time><name>PT5167</name></trkpt>
<trkpt lat="53.107480" lon="06.028062"><ele>0.9</ele><time>2021-05-12T12:00:32Z</time><name>PT5168</name></trkpt>
<trkpt lat="53.107483" lon="06.028050"><ele>0.7</ele><time>2021-05-12T12:00:33Z</time><name>PT5169</name></trkpt>
<trkpt lat="53.107489" lon="06.028043"><ele>0.8</ele><time>2021-05-12T12:00:34Z</time><name>PT5170</name></trkpt>
<trkpt lat="53.107494" lon="06.028037"><ele>0.7</ele><time>2021-05-12T12:00:35Z</time><name>PT5171</name></trkpt>
<trkpt lat="53.107498" lon="06.028028"><ele>0.5</ele><time>2021-05-12T12:00:36Z</time><name>PT5172</name></trkpt>
<trkpt lat="53.107500" lon="06.028016"><ele>0.6</ele><time>2021-05-12T12:00:37Z</time><name>PT5173</name></trkpt>
<trkpt lat="53.107498" lon="06.028000"><ele>0.6</ele><time>2021-05-12T12:00:38Z</time><name>PT5174</name></trkpt>
<trkpt lat="53.107495" lon="06.027984"><ele>0.7</ele><time>2021-05-12T12:00:39Z</time><name>PT5175</name></trkpt>
<trkpt lat="53.107494" lon="06.027968"><ele>0.9</ele><time>2021-05-12T12:00:40Z</time><name>PT5176</name></trkpt>
<trkpt lat="53.107494" lon="06.027953"><ele>-1</ele><time>2021-05-12T12:00:41Z</time><name>PT5177</name></trkpt>
<trkpt lat="53.107494" lon="06.027939"><ele>-1.2</ele><time>2021-05-12T12:00:42Z</time><name>PT5178</name></trkpt>
<trkpt lat="53.107492" lon="06.027923"><ele>-1.5</ele><time>2021-05-12T12:00:43Z</time><name>PT5179</name></trkpt>
<trkpt lat="53.107488" lon="06.027908"><ele>-1.6</ele><time>2021-05-12T12:00:44Z</time><name>PT5180</name></trkpt>
<trkpt lat="53.107487" lon="06.027891"><ele>-1.6</ele><time>2021-05-12T12:00:45Z</time><name>PT5181</name></trkpt>
<trkpt lat="53.107486" lon="06.027871"><ele>-1.6</ele><time>2021-05-12T12:00:46Z</time><name>PT5182</name></trkpt>
<trkpt lat="53.107482" lon="06.027853"><ele>-1.4</ele><time>2021-05-12T12:00:47Z</time><name>PT5183</name></trkpt>
<trkpt lat="53.107479" lon="06.027837"><ele>-1.3</ele><time>2021-05-12T12:00:48Z</time><name>PT5184</name></trkpt>
<trkpt lat="53.107477" lon="06.027819"><ele>-1.1</ele><time>2021-05-12T12:00:49Z</time><name>PT5185</name></trkpt>
<trkpt lat="53.107477" lon="06.027803"><ele>-1.2</ele><time>2021-05-12T12:00:50Z</time><name>PT5186</name></trkpt>
<trkpt lat="53.107475" lon="06.027787"><ele>-1.3</ele><time>2021-05-12T12:00:51Z</time><name>PT5187</name></trkpt>
<trkpt lat="53.107473" lon="06.027772"><ele>-1.2</ele><time>2021-05-12T12:00:52Z</time><name>PT5188</name></trkpt>
<trkpt lat="53.107469" lon="06.027756"><ele>-1.2</ele><time>2021-05-12T12:00:53Z</time><name>PT5189</name></trkpt>
<trkpt lat="53.107463" lon="06.027738"><ele>-1.1</ele><time>2021-05-12T12:00:54Z</time><name>PT5190</name></trkpt>
<trkpt lat="53.107461" lon="06.027724"><ele>-1</ele><time>2021-05-12T12:00:55Z</time><name>PT5191</name></trkpt>
<trkpt lat="53.107458" lon="06.027707"><ele>-1</ele><time>2021-05-12T12:00:56Z</time><name>PT5192</name></trkpt>
<trkpt lat="53.107454" lon="06.027690"><ele>0.9</ele><time>2021-05-12T12:00:57Z</time><name>PT5193</name></trkpt>
<trkpt lat="53.107451" lon="06.027674"><ele>0.8</ele><time>2021-05-12T12:00:58Z</time><name>PT5194</name></trkpt>
<trkpt lat="53.107445" lon="06.027656"><ele>0.9</ele><time>2021-05-12T12:00:59Z</time><name>PT5195</name></trkpt>
<trkpt lat="53.107440" lon="06.027638"><ele>0.6</ele><time>2021-05-12T12:01:00Z</time><name>PT5196</name></trkpt>
<trkpt lat="53.107435" lon="06.027620"><ele>0.7</ele><time>2021-05-12T12:01:01Z</time><name>PT5197</name></trkpt>
<trkpt lat="53.107433" lon="06.027603"><ele>0.9</ele><time>2021-05-12T12:01:02Z</time><name>PT5198</name></trkpt>
<trkpt lat="53.107431" lon="06.027586"><ele>-1.1</ele><time>2021-05-12T12:01:03Z</time><name>PT5199</name></trkpt>
<trkpt lat="53.107431" lon="06.027567"><ele>-1.2</ele><time>2021-05-12T12:01:04Z</time><name>PT5200</name></trkpt>
<trkpt lat="53.107429" lon="06.027548"><ele>-1.3</ele><time>2021-05-12T12:01:05Z</time><name>PT5201</name></trkpt>
<trkpt lat="53.107426" lon="06.027530"><ele>-1.1</ele><time>2021-05-12T12:01:06Z</time><name>PT5202</name></trkpt>
<trkpt lat="53.107422" lon="06.027512"><ele>-1.3</ele><time>2021-05-12T12:01:07Z</time><name>PT5203</name></trkpt>
<trkpt lat="53.107418" lon="06.027492"><ele>-1.4</ele><time>2021-05-12T12:01:08Z</time><name>PT5204</name></trkpt>
<trkpt lat="53.107413" lon="06.027473"><ele>-1.8</ele><time>2021-05-12T12:01:09Z</time><name>PT5205</name></trkpt>
<trkpt lat="53.107409" lon="06.027456"><ele>-1.8</ele><time>2021-05-12T12:01:10Z</time><name>PT5206</name></trkpt>
<trkpt lat="53.107406" lon="06.027437"><ele>-1.9</ele><time>2021-05-12T12:01:11Z</time><name>PT5207</name></trkpt>
<trkpt lat="53.107402" lon="06.027418"><ele>-2</ele><time>2021-05-12T12:01:12Z</time><name>PT5208</name></trkpt>
<trkpt lat="53.107399" lon="06.027401"><ele>-2</ele><time>2021-05-12T12:01:13Z</time><name>PT5209</name></trkpt>
<trkpt lat="53.107395" lon="06.027383"><ele>-2</ele><time>2021-05-12T12:01:14Z</time><name>PT5210</name></trkpt>
<trkpt lat="53.107391" lon="06.027364"><ele>-1.9</ele><time>2021-05-12T12:01:15Z</time><name>PT5211</name></trkpt>
<trkpt lat="53.107387" lon="06.027345"><ele>-2</ele><time>2021-05-12T12:01:16Z</time><name>PT5212</name></trkpt>
<trkpt lat="53.107384" lon="06.027327"><ele>-1.9</ele><time>2021-05-12T12:01:17Z</time><name>PT5213</name></trkpt>
<trkpt lat="53.107381" lon="06.027307"><ele>-1.9</ele><time>2021-05-12T12:01:18Z</time><name>PT5214</name></trkpt>
<trkpt lat="53.107379" lon="06.027286"><ele>-1.8</ele><time>2021-05-12T12:01:19Z</time><name>PT5215</name></trkpt>
<trkpt lat="53.107376" lon="06.027266"><ele>-1.7</ele><time>2021-05-12T12:01:20Z</time><name>PT5216</name></trkpt>
<trkpt lat="53.107374" lon="06.027247"><ele>-1.6</ele><time>2021-05-12T12:01:21Z</time><name>PT5217</name></trkpt>
<trkpt lat="53.107372" lon="06.027228"><ele>-1.5</ele><time>2021-05-12T12:01:22Z</time><name>PT5218</name></trkpt>
<trkpt lat="53.107367" lon="06.027211"><ele>-1.6</ele><time>2021-05-12T12:01:23Z</time><name>PT5219</name></trkpt>
<trkpt lat="53.107360" lon="06.027193"><ele>-1.3</ele><time>2021-05-12T12:01:24Z</time><name>PT5220</name></trkpt>
<trkpt lat="53.107357" lon="06.027174"><ele>-1.2</ele><time>2021-05-12T12:01:25Z</time><name>PT5221</name></trkpt>
<trkpt lat="53.107354" lon="06.027156"><ele>-1.1</ele><time>2021-05-12T12:01:26Z</time><name>PT5222</name></trkpt>
<trkpt lat="53.107352" lon="06.027137"><ele>-1.1</ele><time>2021-05-12T12:01:27Z</time><name>PT5223</name></trkpt>
<trkpt lat="53.107350" lon="06.027119"><ele>-1.1</ele><time>2021-05-12T12:01:28Z</time><name>PT5224</name></trkpt>
<trkpt lat="53.107346" lon="06.027104"><ele>-1.1</ele><time>2021-05-12T12:01:29Z</time><name>PT5225</name></trkpt>
<trkpt lat="53.107343" lon="06.027085"><ele>-1.2</ele><time>2021-05-12T12:01:30Z</time><name>PT5226</name></trkpt>
<trkpt lat="53.107339" lon="06.027066"><ele>-1.3</ele><time>2021-05-12T12:01:31Z</time><name>PT5227</name></trkpt>
<trkpt lat="53.107335" lon="06.027046"><ele>-1.2</ele><time>2021-05-12T12:01:32Z</time><name>PT5228</name></trkpt>
<trkpt lat="53.107332" lon="06.027029"><ele>-1.2</ele><time>2021-05-12T12:01:33Z</time><name>PT5229</name></trkpt>
<trkpt lat="53.107330" lon="06.027010"><ele>-1.1</ele><time>2021-05-12T12:01:34Z</time><name>PT5230</name></trkpt>
<trkpt lat="53.107328" lon="06.026990"><ele>-1.1</ele><time>2021-05-12T12:01:35Z</time><name>PT5231</name></trkpt>
<trkpt lat="53.107325" lon="06.026972"><ele>-1.1</ele><time>2021-05-12T12:01:36Z</time><name>PT5232</name></trkpt>
<trkpt lat="53.107322" lon="06.026952"><ele>-1.1</ele><time>2021-05-12T12:01:37Z</time><name>PT5233</name></trkpt>
<trkpt lat="53.107319" lon="06.026933"><ele>-1.1</ele><time>2021-05-12T12:01:38Z</time><name>PT5234</name></trkpt>
<trkpt lat="53.107315" lon="06.026913"><ele>-1.1</ele><time>2021-05-12T12:01:39Z</time><name>PT5235</name></trkpt>
<trkpt lat="53.107310" lon="06.026894"><ele>-1.1</ele><time>2021-05-12T12:01:40Z</time><name>PT5236</name></trkpt>
<trkpt lat="53.107306" lon="06.026876"><ele>-1.1</ele><time>2021-05-12T12:01:41Z</time><name>PT5237</name></trkpt>
<trkpt lat="53.107304" lon="06.026858"><ele>-1.1</ele><time>2021-05-12T12:01:42Z</time><name>PT5238</name></trkpt>
<trkpt lat="53.107302" lon="06.026840"><ele>-1</ele><time>2021-05-12T12:01:43Z</time><name>PT5239</name></trkpt>
<trkpt lat="53.107300" lon="06.026822"><ele>-1</ele><time>2021-05-12T12:01:44Z</time><name>PT5240</name></trkpt>
<trkpt lat="53.107296" lon="06.026805"><ele>0.9</ele><time>2021-05-12T12:01:45Z</time><name>PT5241</name></trkpt>
<trkpt lat="53.107291" lon="06.026789"><ele>-1</ele><time>2021-05-12T12:01:46Z</time><name>PT5242</name></trkpt>
<trkpt lat="53.107288" lon="06.026770"><ele>-1.1</ele><time>2021-05-12T12:01:47Z</time><name>PT5243</name></trkpt>
<trkpt lat="53.107286" lon="06.026751"><ele>-1.1</ele><time>2021-05-12T12:01:48Z</time><name>PT5244</name></trkpt>
<trkpt lat="53.107284" lon="06.026732"><ele>-1.1</ele><time>2021-05-12T12:01:49Z</time><name>PT5245</name></trkpt>
<trkpt lat="53.107281" lon="06.026713"><ele>-1.1</ele><time>2021-05-12T12:01:50Z</time><name>PT5246</name></trkpt>
<trkpt lat="53.107276" lon="06.026698"><ele>-1.1</ele><time>2021-05-12T12:01:51Z</time><name>PT5247</name></trkpt>
<trkpt lat="53.107271" lon="06.026684"><ele>-1</ele><time>2021-05-12T12:01:52Z</time><name>PT5248</name></trkpt>
<trkpt lat="53.107267" lon="06.026665"><ele>0.9</ele><time>2021-05-12T12:01:53Z</time><name>PT5249</name></trkpt>
<trkpt lat="53.107263" lon="06.026646"><ele>-1</ele><time>2021-05-12T12:01:54Z</time><name>PT5250</name></trkpt>
<trkpt lat="53.107260" lon="06.026628"><ele>-1</ele><time>2021-05-12T12:01:55Z</time><name>PT5251</name></trkpt>
<trkpt lat="53.107257" lon="06.026610"><ele>0.8</ele><time>2021-05-12T12:01:56Z</time><name>PT5252</name></trkpt>
<trkpt lat="53.107256" lon="06.026593"><ele>0.9</ele><time>2021-05-12T12:01:57Z</time><name>PT5253</name></trkpt>
<trkpt lat="53.107253" lon="06.026576"><ele>-1</ele><time>2021-05-12T12:01:58Z</time><name>PT5254</name></trkpt>
<trkpt lat="53.107249" lon="06.026557"><ele>-1.1</ele><time>2021-05-12T12:01:59Z</time><name>PT5255</name></trkpt>
<trkpt lat="53.107244" lon="06.026538"><ele>-1.3</ele><time>2021-05-12T12:02:00Z</time><name>PT5256</name></trkpt>
<trkpt lat="53.107239" lon="06.026518"><ele>-1.4</ele><time>2021-05-12T12:02:01Z</time><name>PT5257</name></trkpt>
<trkpt lat="53.107237" lon="06.026499"><ele>-1.3</ele><time>2021-05-12T12:02:02Z</time><name>PT5258</name></trkpt>
<trkpt lat="53.107236" lon="06.026480"><ele>-1.2</ele><time>2021-05-12T12:02:03Z</time><name>PT5259</name></trkpt>
<trkpt lat="53.107235" lon="06.026461"><ele>-1.1</ele><time>2021-05-12T12:02:04Z</time><name>PT5260</name></trkpt>
<trkpt lat="53.107232" lon="06.026440"><ele>-1.1</ele><time>2021-05-12T12:02:05Z</time><name>PT5261</name></trkpt>
<trkpt lat="53.107229" lon="06.026419"><ele>0.9</ele><time>2021-05-12T12:02:06Z</time><name>PT5262</name></trkpt>
<trkpt lat="53.107226" lon="06.026402"><ele>0.9</ele><time>2021-05-12T12:02:07Z</time><name>PT5263</name></trkpt>
<trkpt lat="53.107221" lon="06.026383"><ele>0.9</ele><time>2021-05-12T12:02:08Z</time><name>PT5264</name></trkpt>
<trkpt lat="53.107216" lon="06.026366"><ele>0.9</ele><time>2021-05-12T12:02:09Z</time><name>PT5265</name></trkpt>
<trkpt lat="53.107213" lon="06.026345"><ele>0.8</ele><time>2021-05-12T12:02:10Z</time><name>PT5266</name></trkpt>
<trkpt lat="53.107209" lon="06.026325"><ele>0.8</ele><time>2021-05-12T12:02:11Z</time><name>PT5267</name></trkpt>
<trkpt lat="53.107208" lon="06.026305"><ele>0.7</ele><time>2021-05-12T12:02:12Z</time><name>PT5268</name></trkpt>
<trkpt lat="53.107205" lon="06.026287"><ele>0.8</ele><time>2021-05-12T12:02:13Z</time><name>PT5269</name></trkpt>
<trkpt lat="53.107203" lon="06.026270"><ele>0.6</ele><time>2021-05-12T12:02:14Z</time><name>PT5270</name></trkpt>
<trkpt lat="53.107199" lon="06.026252"><ele>0.7</ele><time>2021-05-12T12:02:15Z</time><name>PT5271</name></trkpt>
<trkpt lat="53.107196" lon="06.026233"><ele>0.6</ele><time>2021-05-12T12:02:16Z</time><name>PT5272</name></trkpt>
<trkpt lat="53.107191" lon="06.026212"><ele>0.6</ele><time>2021-05-12T12:02:17Z</time><name>PT5273</name></trkpt>
<trkpt lat="53.107186" lon="06.026191"><ele>0.9</ele><time>2021-05-12T12:02:18Z</time><name>PT5274</name></trkpt>
<trkpt lat="53.107182" lon="06.026173"><ele>-1.1</ele><time>2021-05-12T12:02:19Z</time><name>PT5275</name></trkpt>
<trkpt lat="53.107179" lon="06.026156"><ele>0.9</ele><time>2021-05-12T12:02:20Z</time><name>PT5276</name></trkpt>
<trkpt lat="53.107177" lon="06.026138"><ele>-1</ele><time>2021-05-12T12:02:21Z</time><name>PT5277</name></trkpt>
<trkpt lat="53.107175" lon="06.026118"><ele>0.8</ele><time>2021-05-12T12:02:22Z</time><name>PT5278</name></trkpt>
<trkpt lat="53.107172" lon="06.026099"><ele>0.6</ele><time>2021-05-12T12:02:23Z</time><name>PT5279</name></trkpt>
<trkpt lat="53.107169" lon="06.026081"><ele>0.7</ele><time>2021-05-12T12:02:24Z</time><name>PT5280</name></trkpt>
<trkpt lat="53.107165" lon="06.026062"><ele>0.6</ele><time>2021-05-12T12:02:25Z</time><name>PT5281</name></trkpt>
<trkpt lat="53.107161" lon="06.026044"><ele>0.6</ele><time>2021-05-12T12:02:26Z</time><name>PT5282</name></trkpt>
<trkpt lat="53.107158" lon="06.026027"><ele>0.5</ele><time>2021-05-12T12:02:27Z</time><name>PT5283</name></trkpt>
<trkpt lat="53.107155" lon="06.026010"><ele>0.6</ele><time>2021-05-12T12:02:28Z</time><name>PT5284</name></trkpt>
<trkpt lat="53.107154" lon="06.025992"><ele>0.5</ele><time>2021-05-12T12:02:29Z</time><name>PT5285</name></trkpt>
<trkpt lat="53.107152" lon="06.025974"><ele>0.6</ele><time>2021-05-12T12:02:30Z</time><name>PT5286</name></trkpt>
<trkpt lat="53.107149" lon="06.025955"><ele>0.7</ele><time>2021-05-12T12:02:31Z</time><name>PT5287</name></trkpt>
<trkpt lat="53.107145" lon="06.025938"><ele>0.8</ele><time>2021-05-12T12:02:32Z</time><name>PT5288</name></trkpt>
<trkpt lat="53.107140" lon="06.025918"><ele>0.7</ele><time>2021-05-12T12:02:33Z</time><name>PT5289</name></trkpt>
<trkpt lat="53.107136" lon="06.025898"><ele>0.7</ele><time>2021-05-12T12:02:34Z</time><name>PT5290</name></trkpt>
<trkpt lat="53.107131" lon="06.025879"><ele>0.8</ele><time>2021-05-12T12:02:35Z</time><name>PT5291</name></trkpt>
<trkpt lat="53.107128" lon="06.025861"><ele>0.8</ele><time>2021-05-12T12:02:36Z</time><name>PT5292</name></trkpt>
<trkpt lat="53.107123" lon="06.025841"><ele>0.8</ele><time>2021-05-12T12:02:37Z</time><name>PT5293</name></trkpt>
<trkpt lat="53.107120" lon="06.025821"><ele>-1</ele><time>2021-05-12T12:02:38Z</time><name>PT5294</name></trkpt>
<trkpt lat="53.107118" lon="06.025801"><ele>0.7</ele><time>2021-05-12T12:02:39Z</time><name>PT5295</name></trkpt>
<trkpt lat="53.107117" lon="06.025780"><ele>0.7</ele><time>2021-05-12T12:02:40Z</time><name>PT5296</name></trkpt>
<trkpt lat="53.107114" lon="06.025761"><ele>0.8</ele><time>2021-05-12T12:02:41Z</time><name>PT5297</name></trkpt>
<trkpt lat="53.107110" lon="06.025740"><ele>0.9</ele><time>2021-05-12T12:02:42Z</time><name>PT5298</name></trkpt>
<trkpt lat="53.107105" lon="06.025721"><ele>-1</ele><time>2021-05-12T12:02:43Z</time><name>PT5299</name></trkpt>
<trkpt lat="53.107101" lon="06.025702"><ele>-1</ele><time>2021-05-12T12:02:44Z</time><name>PT5300</name></trkpt>
<trkpt lat="53.107099" lon="06.025684"><ele>-1.1</ele><time>2021-05-12T12:02:45Z</time><name>PT5301</name></trkpt>
<trkpt lat="53.107096" lon="06.025664"><ele>-1.1</ele><time>2021-05-12T12:02:46Z</time><name>PT5302</name></trkpt>
<trkpt lat="53.107095" lon="06.025642"><ele>-1.1</ele><time>2021-05-12T12:02:47Z</time><name>PT5303</name></trkpt>
<trkpt lat="53.107094" lon="06.025621"><ele>-1.1</ele><time>2021-05-12T12:02:48Z</time><name>PT5304</name></trkpt>
<trkpt lat="53.107093" lon="06.025602"><ele>0.9</ele><time>2021-05-12T12:02:49Z</time><name>PT5305</name></trkpt>
<trkpt lat="53.107091" lon="06.025581"><ele>0.7</ele><time>2021-05-12T12:02:50Z</time><name>PT5306</name></trkpt>
<trkpt lat="53.107089" lon="06.025562"><ele>0.7</ele><time>2021-05-12T12:02:51Z</time><name>PT5307</name></trkpt>
<trkpt lat="53.107087" lon="06.025544"><ele>0.6</ele><time>2021-05-12T12:02:52Z</time><name>PT5308</name></trkpt>
<trkpt lat="53.107087" lon="06.025528"><ele>0.8</ele><time>2021-05-12T12:02:53Z</time><name>PT5309</name></trkpt>
<trkpt lat="53.107086" lon="06.025508"><ele>0.9</ele><time>2021-05-12T12:02:54Z</time><name>PT5310</name></trkpt>
<trkpt lat="53.107087" lon="06.025489"><ele>0.9</ele><time>2021-05-12T12:02:55Z</time><name>PT5311</name></trkpt>
<trkpt lat="53.107086" lon="06.025469"><ele>-1.1</ele><time>2021-05-12T12:02:56Z</time><name>PT5312</name></trkpt>
<trkpt lat="53.107085" lon="06.025450"><ele>-1.1</ele><time>2021-05-12T12:02:57Z</time><name>PT5313</name></trkpt>
<trkpt lat="53.107081" lon="06.025431"><ele>0.9</ele><time>2021-05-12T12:02:58Z</time><name>PT5314</name></trkpt>
<trkpt lat="53.107078" lon="06.025414"><ele>-1.1</ele><time>2021-05-12T12:02:59Z</time><name>PT5315</name></trkpt>
<trkpt lat="53.107083" lon="06.025392"><ele>-1</ele><time>2021-05-12T12:03:00Z</time><name>PT5316</name></trkpt>
<trkpt lat="53.107084" lon="06.025375"><ele>-1</ele><time>2021-05-12T12:03:01Z</time><name>PT5317</name></trkpt>
<trkpt lat="53.107086" lon="06.025357"><ele>-1.1</ele><time>2021-05-12T12:03:02Z</time><name>PT5318</name></trkpt>
<trkpt lat="53.107086" lon="06.025336"><ele>0.9</ele><time>2021-05-12T12:03:03Z</time><name>PT5319</name></trkpt>
<trkpt lat="53.107086" lon="06.025317"><ele>-1</ele><time>2021-05-12T12:03:04Z</time><name>PT5320</name></trkpt>
<trkpt lat="53.107085" lon="06.025297"><ele>-1.1</ele><time>2021-05-12T12:03:05Z</time><name>PT5321</name></trkpt>
<trkpt lat="53.107083" lon="06.025277"><ele>0.9</ele><time>2021-05-12T12:03:06Z</time><name>PT5322</name></trkpt>
<trkpt lat="53.107080" lon="06.025258"><ele>-1</ele><time>2021-05-12T12:03:07Z</time><name>PT5323</name></trkpt>
<trkpt lat="53.107078" lon="06.025238"><ele>0.8</ele><time>2021-05-12T12:03:08Z</time><name>PT5324</name></trkpt>
<trkpt lat="53.107077" lon="06.025218"><ele>0.6</ele><time>2021-05-12T12:03:09Z</time><name>PT5325</name></trkpt>
<trkpt lat="53.107075" lon="06.025201"><ele>0.6</ele><time>2021-05-12T12:03:10Z</time><name>PT5326</name></trkpt>
<trkpt lat="53.107073" lon="06.025183"><ele>0.4</ele><time>2021-05-12T12:03:11Z</time><name>PT5327</name></trkpt>
<trkpt lat="53.107074" lon="06.025164"><ele>0.4</ele><time>2021-05-12T12:03:12Z</time><name>PT5328</name></trkpt>
<trkpt lat="53.107073" lon="06.025147"><ele>0.3</ele><time>2021-05-12T12:03:13Z</time><name>PT5329</name></trkpt>
<trkpt lat="53.107072" lon="06.025127"><ele>0.4</ele><time>2021-05-12T12:03:14Z</time><name>PT5330</name></trkpt>
<trkpt lat="53.107071" lon="06.025107"><ele>0.2</ele><time>2021-05-12T12:03:15Z</time><name>PT5331</name></trkpt>
<trkpt lat="53.107070" lon="06.025085"><ele>0.3</ele><time>2021-05-12T12:03:16Z</time><name>PT5332</name></trkpt>
<trkpt lat="53.107069" lon="06.025066"><ele>0.3</ele><time>2021-05-12T12:03:17Z</time><name>PT5333</name></trkpt>
<trkpt lat="53.107070" lon="06.025047"><ele>0.1</ele><time>2021-05-12T12:03:18Z</time><name>PT5334</name></trkpt>
<trkpt lat="53.107071" lon="06.025028"><ele>0.1</ele><time>2021-05-12T12:03:19Z</time><name>PT5335</name></trkpt>
<trkpt lat="53.107071" lon="06.025008"><ele>0.1</ele><time>2021-05-12T12:03:20Z</time><name>PT5336</name></trkpt>
<trkpt lat="53.107069" lon="06.024988"><ele>0.1</ele><time>2021-05-12T12:03:21Z</time><name>PT5337</name></trkpt>
<trkpt lat="53.107068" lon="06.024967"><ele>0.3</ele><time>2021-05-12T12:03:22Z</time><name>PT5338</name></trkpt>
<trkpt lat="53.107065" lon="06.024948"><ele>0.4</ele><time>2021-05-12T12:03:23Z</time><name>PT5339</name></trkpt>
<trkpt lat="53.107063" lon="06.024930"><ele>0.3</ele><time>2021-05-12T12:03:24Z</time><name>PT5340</name></trkpt>
<trkpt lat="53.107062" lon="06.024913"><ele>0.4</ele><time>2021-05-12T12:03:25Z</time><name>PT5341</name></trkpt>
<trkpt lat="53.107064" lon="06.024895"><ele>0.4</ele><time>2021-05-12T12:03:26Z</time><name>PT5342</name></trkpt>
<trkpt lat="53.107065" lon="06.024874"><ele>0.6</ele><time>2021-05-12T12:03:27Z</time><name>PT5343</name></trkpt>
<trkpt lat="53.107065" lon="06.024852"><ele>0.6</ele><time>2021-05-12T12:03:28Z</time><name>PT5344</name></trkpt>
<trkpt lat="53.107065" lon="06.024833"><ele>0.7</ele><time>2021-05-12T12:03:29Z</time><name>PT5345</name></trkpt>
<trkpt lat="53.107065" lon="06.024813"><ele>0.6</ele><time>2021-05-12T12:03:30Z</time><name>PT5346</name></trkpt>
<trkpt lat="53.107063" lon="06.024794"><ele>0.4</ele><time>2021-05-12T12:03:31Z</time><name>PT5347</name></trkpt>
<trkpt lat="53.107061" lon="06.024775"><ele>0.2</ele><time>2021-05-12T12:03:32Z</time><name>PT5348</name></trkpt>
<trkpt lat="53.107059" lon="06.024758"><ele>0.1</ele><time>2021-05-12T12:03:33Z</time><name>PT5349</name></trkpt>
<trkpt lat="53.107059" lon="06.024738"><ele>0.2</ele><time>2021-05-12T12:03:34Z</time><name>PT5350</name></trkpt>
<trkpt lat="53.107059" lon="06.024715"><ele>0.4</ele><time>2021-05-12T12:03:35Z</time><name>PT5351</name></trkpt>
<trkpt lat="53.107058" lon="06.024694"><ele>0.5</ele><time>2021-05-12T12:03:36Z</time><name>PT5352</name></trkpt>
<trkpt lat="53.107056" lon="06.024673"><ele>0.6</ele><time>2021-05-12T12:03:37Z</time><name>PT5353</name></trkpt>
<trkpt lat="53.107054" lon="06.024654"><ele>0.5</ele><time>2021-05-12T12:03:38Z</time><name>PT5354</name></trkpt>
<trkpt lat="53.107051" lon="06.024636"><ele>0.4</ele><time>2021-05-12T12:03:39Z</time><name>PT5355</name></trkpt>
<trkpt lat="53.107050" lon="06.024616"><ele>0.3</ele><time>2021-05-12T12:03:40Z</time><name>PT5356</name></trkpt>
<trkpt lat="53.107046" lon="06.024597"><ele>0.4</ele><time>2021-05-12T12:03:41Z</time><name>PT5357</name></trkpt>
<trkpt lat="53.107044" lon="06.024581"><ele>0.3</ele><time>2021-05-12T12:03:42Z</time><name>PT5358</name></trkpt>
<trkpt lat="53.107043" lon="06.024563"><ele>0.1</ele><time>2021-05-12T12:03:43Z</time><name>PT5359</name></trkpt>
<trkpt lat="53.107043" lon="06.024543"><ele>0.3</ele><time>2021-05-12T12:03:44Z</time><name>PT5360</name></trkpt>
<trkpt lat="53.107042" lon="06.024524"><ele>0.3</ele><time>2021-05-12T12:03:45Z</time><name>PT5361</name></trkpt>
<trkpt lat="53.107041" lon="06.024506"><ele>0.3</ele><time>2021-05-12T12:03:46Z</time><name>PT5362</name></trkpt>
<trkpt lat="53.107038" lon="06.024489"><ele>0.3</ele><time>2021-05-12T12:03:47Z</time><name>PT5363</name></trkpt>
<trkpt lat="53.107035" lon="06.024470"><ele>0.4</ele><time>2021-05-12T12:03:48Z</time><name>PT5364</name></trkpt>
<trkpt lat="53.107029" lon="06.024452"><ele>0.5</ele><time>2021-05-12T12:03:49Z</time><name>PT5365</name></trkpt>
<trkpt lat="53.107026" lon="06.024433"><ele>0.3</ele><time>2021-05-12T12:03:50Z</time><name>PT5366</name></trkpt>
<trkpt lat="53.107024" lon="06.024417"><ele>0.4</ele><time>2021-05-12T12:03:51Z</time><name>PT5367</name></trkpt>
<trkpt lat="53.107024" lon="06.024400"><ele>0.3</ele><time>2021-05-12T12:03:52Z</time><name>PT5368</name></trkpt>
<trkpt lat="53.107022" lon="06.024384"><ele>0.1</ele><time>2021-05-12T12:03:53Z</time><name>PT5369</name></trkpt>
<trkpt lat="53.107021" lon="06.024367"><ele>0.2</ele><time>2021-05-12T12:03:54Z</time><name>PT5370</name></trkpt>
<trkpt lat="53.107018" lon="06.024347"><ele>0.1</ele><time>2021-05-12T12:03:55Z</time><name>PT5371</name></trkpt>
<trkpt lat="53.107015" lon="06.024326"><ele>0.1</ele><time>2021-05-12T12:03:56Z</time><name>PT5372</name></trkpt>
<trkpt lat="53.107011" lon="06.024307"><ele>0.1</ele><time>2021-05-12T12:03:57Z</time><name>PT5373</name></trkpt>
<trkpt lat="53.107007" lon="06.024289"><ele>0.2</ele><time>2021-05-12T12:03:58Z</time><name>PT5374</name></trkpt>
<trkpt lat="53.107005" lon="06.024272"><ele>0.3</ele><time>2021-05-12T12:03:59Z</time><name>PT5375</name></trkpt>
<trkpt lat="53.107003" lon="06.024255"><ele>0.3</ele><time>2021-05-12T12:04:00Z</time><name>PT5376</name></trkpt>
<trkpt lat="53.107001" lon="06.024238"><ele>0.1</ele><time>2021-05-12T12:04:01Z</time><name>PT5377</name></trkpt>
<trkpt lat="53.106999" lon="06.024219"><ele>0.1</ele><time>2021-05-12T12:04:02Z</time><name>PT5378</name></trkpt>
<trkpt lat="53.106994" lon="06.024201"><ele>0.2</ele><time>2021-05-12T12:04:03Z</time><name>PT5379</name></trkpt>
<trkpt lat="53.106991" lon="06.024183"><ele>0.2</ele><time>2021-05-12T12:04:04Z</time><name>PT5380</name></trkpt>
<trkpt lat="53.106985" lon="06.024165"><ele>0.4</ele><time>2021-05-12T12:04:05Z</time><name>PT5381</name></trkpt>
<trkpt lat="53.106980" lon="06.024150"><ele>0.4</ele><time>2021-05-12T12:04:06Z</time><name>PT5382</name></trkpt>
<trkpt lat="53.106976" lon="06.024133"><ele>0.4</ele><time>2021-05-12T12:04:07Z</time><name>PT5383</name></trkpt>
<trkpt lat="53.106972" lon="06.024115"><ele>0.3</ele><time>2021-05-12T12:04:08Z</time><name>PT5384</name></trkpt>
<trkpt lat="53.106969" lon="06.024098"><ele>0.3</ele><time>2021-05-12T12:04:09Z</time><name>PT5385</name></trkpt>
<trkpt lat="53.106964" lon="06.024080"><ele>0.4</ele><time>2021-05-12T12:04:10Z</time><name>PT5386</name></trkpt>
<trkpt lat="53.106958" lon="06.024062"><ele>0.5</ele><time>2021-05-12T12:04:11Z</time><name>PT5387</name></trkpt>
<trkpt lat="53.106950" lon="06.024044"><ele>0.3</ele><time>2021-05-12T12:04:12Z</time><name>PT5388</name></trkpt>
<trkpt lat="53.106941" lon="06.024028"><ele>0.2</ele><time>2021-05-12T12:04:13Z</time><name>PT5389</name></trkpt>
<trkpt lat="53.106934" lon="06.024014"><ele>0.3</ele><time>2021-05-12T12:04:14Z</time><name>PT5390</name></trkpt>
<trkpt lat="53.106927" lon="06.024000"><ele>0.4</ele><time>2021-05-12T12:04:15Z</time><name>PT5391</name></trkpt>
<trkpt lat="53.106920" lon="06.023985"><ele>0.3</ele><time>2021-05-12T12:04:16Z</time><name>PT5392</name></trkpt>
<trkpt lat="53.106913" lon="06.023967"><ele>0.4</ele><time>2021-05-12T12:04:17Z</time><name>PT5393</name></trkpt>
<trkpt lat="53.106907" lon="06.023953"><ele>0.5</ele><time>2021-05-12T12:04:18Z</time><name>PT5394</name></trkpt>
<trkpt lat="53.106901" lon="06.023939"><ele>0.4</ele><time>2021-05-12T12:04:19Z</time><name>PT5395</name></trkpt>
<trkpt lat="53.106893" lon="06.023921"><ele>0.4</ele><time>2021-05-12T12:04:20Z</time><name>PT5396</name></trkpt>
<trkpt lat="53.106884" lon="06.023906"><ele>0.5</ele><time>2021-05-12T12:04:21Z</time><name>PT5397</name></trkpt>
<trkpt lat="53.106875" lon="06.023893"><ele>0.4</ele><time>2021-05-12T12:04:22Z</time><name>PT5398</name></trkpt>
<trkpt lat="53.106867" lon="06.023881"><ele>0.3</ele><time>2021-05-12T12:04:23Z</time><name>PT5399</name></trkpt>
<trkpt lat="53.106859" lon="06.023867"><ele>0.6</ele><time>2021-05-12T12:04:24Z</time><name>PT5400</name></trkpt>
<trkpt lat="53.106850" lon="06.023853"><ele>0.4</ele><time>2021-05-12T12:04:25Z</time><name>PT5401</name></trkpt>
<trkpt lat="53.106841" lon="06.023838"><ele>0.3</ele><time>2021-05-12T12:04:26Z</time><name>PT5402</name></trkpt>
<trkpt lat="53.106831" lon="06.023824"><ele>0.6</ele><time>2021-05-12T12:04:27Z</time><name>PT5403</name></trkpt>
<trkpt lat="53.106820" lon="06.023810"><ele>0.6</ele><time>2021-05-12T12:04:28Z</time><name>PT5404</name></trkpt>
<trkpt lat="53.106809" lon="06.023800"><ele>0.4</ele><time>2021-05-12T12:04:29Z</time><name>PT5405</name></trkpt>
<trkpt lat="53.106800" lon="06.023790"><ele>0.5</ele><time>2021-05-12T12:04:30Z</time><name>PT5406</name></trkpt>
<trkpt lat="53.106792" lon="06.023783"><ele>0.4</ele><time>2021-05-12T12:04:31Z</time><name>PT5407</name></trkpt>
<trkpt lat="53.106783" lon="06.023775"><ele>0.4</ele><time>2021-05-12T12:04:32Z</time><name>PT5408</name></trkpt>
<trkpt lat="53.106772" lon="06.023765"><ele>0.6</ele><time>2021-05-12T12:04:33Z</time><name>PT5409</name></trkpt>
<trkpt lat="53.106763" lon="06.023756"><ele>0.7</ele><time>2021-05-12T12:04:34Z</time><name>PT5410</name></trkpt>
<trkpt lat="53.106753" lon="06.023747"><ele>0.8</ele><time>2021-05-12T12:04:35Z</time><name>PT5411</name></trkpt>
<trkpt lat="53.106742" lon="06.023737"><ele>0.9</ele><time>2021-05-12T12:04:36Z</time><name>PT5412</name></trkpt>
<trkpt lat="53.106729" lon="06.023730"><ele>0.7</ele><time>2021-05-12T12:04:37Z</time><name>PT5413</name></trkpt>
<trkpt lat="53.106716" lon="06.023723"><ele>0.6</ele><time>2021-05-12T12:04:38Z</time><name>PT5414</name></trkpt>
<trkpt lat="53.106703" lon="06.023713"><ele>0.6</ele><time>2021-05-12T12:04:39Z</time><name>PT5415</name></trkpt>
<trkpt lat="53.106691" lon="06.023707"><ele>0.5</ele><time>2021-05-12T12:04:40Z</time><name>PT5416</name></trkpt>
<trkpt lat="53.106680" lon="06.023701"><ele>0.6</ele><time>2021-05-12T12:04:41Z</time><name>PT5417</name></trkpt>
<trkpt lat="53.106670" lon="06.023693"><ele>0.5</ele><time>2021-05-12T12:04:42Z</time><name>PT5418</name></trkpt>
<trkpt lat="53.106657" lon="06.023685"><ele>0.3</ele><time>2021-05-12T12:04:43Z</time><name>PT5419</name></trkpt>
<trkpt lat="53.106645" lon="06.023677"><ele>0.2</ele><time>2021-05-12T12:04:44Z</time><name>PT5420</name></trkpt>
<trkpt lat="53.106634" lon="06.023672"><ele>0.2</ele><time>2021-05-12T12:04:45Z</time><name>PT5421</name></trkpt>
<trkpt lat="53.106623" lon="06.023666"><ele>0.2</ele><time>2021-05-12T12:04:46Z</time><name>PT5422</name></trkpt>
<trkpt lat="53.106611" lon="06.023660"><ele>0.4</ele><time>2021-05-12T12:04:47Z</time><name>PT5423</name></trkpt>
<trkpt lat="53.106603" lon="06.023654"><ele>0.4</ele><time>2021-05-12T12:04:48Z</time><name>PT5424</name></trkpt>
<trkpt lat="53.106594" lon="06.023647"><ele>0.4</ele><time>2021-05-12T12:04:49Z</time><name>PT5425</name></trkpt>
<trkpt lat="53.106584" lon="06.023635"><ele>0.4</ele><time>2021-05-12T12:04:50Z</time><name>PT5426</name></trkpt>
<trkpt lat="53.106578" lon="06.023620"><ele>0.4</ele><time>2021-05-12T12:04:51Z</time><name>PT5427</name></trkpt>
<trkpt lat="53.106573" lon="06.023609"><ele>0.3</ele><time>2021-05-12T12:04:52Z</time><name>PT5428</name></trkpt>
<trkpt lat="53.106568" lon="06.023596"><ele>0.5</ele><time>2021-05-12T12:04:53Z</time><name>PT5429</name></trkpt>
<trkpt lat="53.106562" lon="06.023582"><ele>0.4</ele><time>2021-05-12T12:04:54Z</time><name>PT5430</name></trkpt>
<trkpt lat="53.106558" lon="06.023564"><ele>0.4</ele><time>2021-05-12T12:04:55Z</time><name>PT5431</name></trkpt>
<trkpt lat="53.106555" lon="06.023547"><ele>0.6</ele><time>2021-05-12T12:04:56Z</time><name>PT5432</name></trkpt>
<trkpt lat="53.106560" lon="06.023534"><ele>0.8</ele><time>2021-05-12T12:04:57Z</time><name>PT5433</name></trkpt>
<trkpt lat="53.106559" lon="06.023517"><ele>0.9</ele><time>2021-05-12T12:04:58Z</time><name>PT5434</name></trkpt>
<trkpt lat="53.106559" lon="06.023501"><ele>-1.1</ele><time>2021-05-12T12:04:59Z</time><name>PT5435</name></trkpt>
<trkpt lat="53.106559" lon="06.023481"><ele>-1</ele><time>2021-05-12T12:05:00Z</time><name>PT5436</name></trkpt>
<trkpt lat="53.106559" lon="06.023463"><ele>0.9</ele><time>2021-05-12T12:05:01Z</time><name>PT5437</name></trkpt>
<trkpt lat="53.106560" lon="06.023447"><ele>0.9</ele><time>2021-05-12T12:05:02Z</time><name>PT5438</name></trkpt>
<trkpt lat="53.106559" lon="06.023428"><ele>0.8</ele><time>2021-05-12T12:05:03Z</time><name>PT5439</name></trkpt>
<trkpt lat="53.106559" lon="06.023411"><ele>0.9</ele><time>2021-05-12T12:05:04Z</time><name>PT5440</name></trkpt>
<trkpt lat="53.106557" lon="06.023395"><ele>0.9</ele><time>2021-05-12T12:05:05Z</time><name>PT5441</name></trkpt>
<trkpt lat="53.106553" lon="06.023379"><ele>0.9</ele><time>2021-05-12T12:05:06Z</time><name>PT5442</name></trkpt>
<trkpt lat="53.106553" lon="06.023364"><ele>-1.1</ele><time>2021-05-12T12:05:07Z</time><name>PT5443</name></trkpt>
<trkpt lat="53.106553" lon="06.023351"><ele>-1.4</ele><time>2021-05-12T12:05:08Z</time><name>PT5444</name></trkpt>
<trkpt lat="53.106553" lon="06.023335"><ele>-1.5</ele><time>2021-05-12T12:05:09Z</time><name>PT5445</name></trkpt>
<trkpt lat="53.106553" lon="06.023318"><ele>-1.6</ele><time>2021-05-12T12:05:10Z</time><name>PT5446</name></trkpt>
<trkpt lat="53.106551" lon="06.023301"><ele>-1.6</ele><time>2021-05-12T12:05:11Z</time><name>PT5447</name></trkpt>
<trkpt lat="53.106551" lon="06.023287"><ele>-1.5</ele><time>2021-05-12T12:05:12Z</time><name>PT5448</name></trkpt>
<trkpt lat="53.106548" lon="06.023267"><ele>-1.6</ele><time>2021-05-12T12:05:13Z</time><name>PT5449</name></trkpt>
<trkpt lat="53.106546" lon="06.023249"><ele>-1.4</ele><time>2021-05-12T12:05:14Z</time><name>PT5450</name></trkpt>
<trkpt lat="53.106546" lon="06.023237"><ele>-1.2</ele><time>2021-05-12T12:05:15Z</time><name>PT5451</name></trkpt>
<trkpt lat="53.106546" lon="06.023224"><ele>-1.2</ele><time>2021-05-12T12:05:16Z</time><name>PT5452</name></trkpt>
<trkpt lat="53.106546" lon="06.023210"><ele>-1.1</ele><time>2021-05-12T12:05:17Z</time><name>PT5453</name></trkpt>
<trkpt lat="53.106548" lon="06.023189"><ele>-1.1</ele><time>2021-05-12T12:05:18Z</time><name>PT5454</name></trkpt>
<trkpt lat="53.106546" lon="06.023174"><ele>-1.1</ele><time>2021-05-12T12:05:19Z</time><name>PT5455</name></trkpt>
<trkpt lat="53.106542" lon="06.023155"><ele>-1</ele><time>2021-05-12T12:05:20Z</time><name>PT5456</name></trkpt>
<trkpt lat="53.106542" lon="06.023139"><ele>-1.1</ele><time>2021-05-12T12:05:21Z</time><name>PT5457</name></trkpt>
<trkpt lat="53.106541" lon="06.023124"><ele>-1.1</ele><time>2021-05-12T12:05:22Z</time><name>PT5458</name></trkpt>
<trkpt lat="53.106538" lon="06.023108"><ele>-1.1</ele><time>2021-05-12T12:05:23Z</time><name>PT5459</name></trkpt>
<trkpt lat="53.106538" lon="06.023089"><ele>-1.1</ele><time>2021-05-12T12:05:24Z</time><name>PT5460</name></trkpt>
<trkpt lat="53.106536" lon="06.023073"><ele>0.8</ele><time>2021-05-12T12:05:25Z</time><name>PT5461</name></trkpt>
<trkpt lat="53.106535" lon="06.023058"><ele>0.9</ele><time>2021-05-12T12:05:26Z</time><name>PT5462</name></trkpt>
<trkpt lat="53.106535" lon="06.023041"><ele>0.8</ele><time>2021-05-12T12:05:27Z</time><name>PT5463</name></trkpt>
<trkpt lat="53.106533" lon="06.023025"><ele>0.8</ele><time>2021-05-12T12:05:28Z</time><name>PT5464</name></trkpt>
<trkpt lat="53.106530" lon="06.023008"><ele>0.9</ele><time>2021-05-12T12:05:29Z</time><name>PT5465</name></trkpt>
<trkpt lat="53.106528" lon="06.022993"><ele>0.8</ele><time>2021-05-12T12:05:30Z</time><name>PT5466</name></trkpt>
<trkpt lat="53.106526" lon="06.022976"><ele>0.8</ele><time>2021-05-12T12:05:31Z</time><name>PT5467</name></trkpt>
<trkpt lat="53.106525" lon="06.022956"><ele>0.9</ele><time>2021-05-12T12:05:32Z</time><name>PT5468</name></trkpt>
<trkpt lat="53.106524" lon="06.022938"><ele>0.8</ele><time>2021-05-12T12:05:33Z</time><name>PT5469</name></trkpt>
<trkpt lat="53.106521" lon="06.022921"><ele>0.8</ele><time>2021-05-12T12:05:34Z</time><name>PT5470</name></trkpt>
<trkpt lat="53.106519" lon="06.022903"><ele>0.7</ele><time>2021-05-12T12:05:35Z</time><name>PT5471</name></trkpt>
<trkpt lat="53.106517" lon="06.022883"><ele>0.8</ele><time>2021-05-12T12:05:36Z</time><name>PT5472</name></trkpt>
<trkpt lat="53.106513" lon="06.022868"><ele>0.9</ele><time>2021-05-12T12:05:37Z</time><name>PT5473</name></trkpt>
<trkpt lat="53.106510" lon="06.022850"><ele>-1</ele><time>2021-05-12T12:05:38Z</time><name>PT5474</name></trkpt>
<trkpt lat="53.106511" lon="06.022831"><ele>-1.1</ele><time>2021-05-12T12:05:39Z</time><name>PT5475</name></trkpt>
<trkpt lat="53.106511" lon="06.022811"><ele>-1.1</ele><time>2021-05-12T12:05:40Z</time><name>PT5476</name></trkpt>
<trkpt lat="53.106512" lon="06.022795"><ele>-1.1</ele><time>2021-05-12T12:05:41Z</time><name>PT5477</name></trkpt>
<trkpt lat="53.106511" lon="06.022779"><ele>-1.3</ele><time>2021-05-12T12:05:42Z</time><name>PT5478</name></trkpt>
<trkpt lat="53.106509" lon="06.022765"><ele>-1.2</ele><time>2021-05-12T12:05:43Z</time><name>PT5479</name></trkpt>
<trkpt lat="53.106508" lon="06.022752"><ele>-1.1</ele><time>2021-05-12T12:05:44Z</time><name>PT5480</name></trkpt>
<trkpt lat="53.106505" lon="06.022731"><ele>-1</ele><time>2021-05-12T12:05:45Z</time><name>PT5481</name></trkpt>
<trkpt lat="53.106502" lon="06.022712"><ele>0.8</ele><time>2021-05-12T12:05:46Z</time><name>PT5482</name></trkpt>
<trkpt lat="53.106501" lon="06.022693"><ele>0.7</ele><time>2021-05-12T12:05:47Z</time><name>PT5483</name></trkpt>
<trkpt lat="53.106499" lon="06.022674"><ele>0.8</ele><time>2021-05-12T12:05:48Z</time><name>PT5484</name></trkpt>
<trkpt lat="53.106496" lon="06.022655"><ele>0.8</ele><time>2021-05-12T12:05:49Z</time><name>PT5485</name></trkpt>
<trkpt lat="53.106491" lon="06.022638"><ele>0.8</ele><time>2021-05-12T12:05:50Z</time><name>PT5486</name></trkpt>
<trkpt lat="53.106489" lon="06.022620"><ele>0.6</ele><time>2021-05-12T12:05:51Z</time><name>PT5487</name></trkpt>
<trkpt lat="53.106488" lon="06.022604"><ele>0.6</ele><time>2021-05-12T12:05:52Z</time><name>PT5488</name></trkpt>
<trkpt lat="53.106488" lon="06.022582"><ele>0.8</ele><time>2021-05-12T12:05:53Z</time><name>PT5489</name></trkpt>
<trkpt lat="53.106487" lon="06.022562"><ele>-1.1</ele><time>2021-05-12T12:05:54Z</time><name>PT5490</name></trkpt>
<trkpt lat="53.106486" lon="06.022548"><ele>-1.1</ele><time>2021-05-12T12:05:55Z</time><name>PT5491</name></trkpt>
<trkpt lat="53.106482" lon="06.022533"><ele>-1.1</ele><time>2021-05-12T12:05:56Z</time><name>PT5492</name></trkpt>
<trkpt lat="53.106480" lon="06.022517"><ele>-1.1</ele><time>2021-05-12T12:05:57Z</time><name>PT5493</name></trkpt>
<trkpt lat="53.106478" lon="06.022503"><ele>-1.1</ele><time>2021-05-12T12:05:58Z</time><name>PT5494</name></trkpt>
<trkpt lat="53.106476" lon="06.022487"><ele>-1.1</ele><time>2021-05-12T12:05:59Z</time><name>PT5495</name></trkpt>
<trkpt lat="53.106476" lon="06.022474"><ele>-1.1</ele><time>2021-05-12T12:06:00Z</time><name>PT5496</name></trkpt>
<trkpt lat="53.106474" lon="06.022459"><ele>-1.3</ele><time>2021-05-12T12:06:01Z</time><name>PT5497</name></trkpt>
<trkpt lat="53.106475" lon="06.022442"><ele>-1</ele><time>2021-05-12T12:06:02Z</time><name>PT5498</name></trkpt>
<trkpt lat="53.106474" lon="06.022421"><ele>-1</ele><time>2021-05-12T12:06:03Z</time><name>PT5499</name></trkpt>
<trkpt lat="53.106471" lon="06.022403"><ele>0.9</ele><time>2021-05-12T12:06:04Z</time><name>PT5500</name></trkpt>
<trkpt lat="53.106472" lon="06.022380"><ele>0.9</ele><time>2021-05-12T12:06:05Z</time><name>PT5501</name></trkpt>
<trkpt lat="53.106470" lon="06.022360"><ele>-1</ele><time>2021-05-12T12:06:06Z</time><name>PT5502</name></trkpt>
<trkpt lat="53.106468" lon="06.022335"><ele>-1.1</ele><time>2021-05-12T12:06:07Z</time><name>PT5503</name></trkpt>
<trkpt lat="53.106464" lon="06.022316"><ele>-1</ele><time>2021-05-12T12:06:08Z</time><name>PT5504</name></trkpt>
<trkpt lat="53.106460" lon="06.022296"><ele>0.9</ele><time>2021-05-12T12:06:09Z</time><name>PT5505</name></trkpt>
<trkpt lat="53.106458" lon="06.022276"><ele>0.9</ele><time>2021-05-12T12:06:10Z</time><name>PT5506</name></trkpt>
<trkpt lat="53.106454" lon="06.022255"><ele>-1</ele><time>2021-05-12T12:06:11Z</time><name>PT5507</name></trkpt>
<trkpt lat="53.106453" lon="06.022233"><ele>0.9</ele><time>2021-05-12T12:06:12Z</time><name>PT5508</name></trkpt>
<trkpt lat="53.106455" lon="06.022209"><ele>0.9</ele><time>2021-05-12T12:06:13Z</time><name>PT5509</name></trkpt>
<trkpt lat="53.106452" lon="06.022191"><ele>-1.1</ele><time>2021-05-12T12:06:14Z</time><name>PT5510</name></trkpt>
<trkpt lat="53.106451" lon="06.022173"><ele>-1.1</ele><time>2021-05-12T12:06:15Z</time><name>PT5511</name></trkpt>
<trkpt lat="53.106448" lon="06.022157"><ele>-1.1</ele><time>2021-05-12T12:06:16Z</time><name>PT5512</name></trkpt>
<trkpt lat="53.106447" lon="06.022137"><ele>-1.2</ele><time>2021-05-12T12:06:17Z</time><name>PT5513</name></trkpt>
<trkpt lat="53.106447" lon="06.022115"><ele>-1.2</ele><time>2021-05-12T12:06:18Z</time><name>PT5514</name></trkpt>
<trkpt lat="53.106446" lon="06.022094"><ele>-1.2</ele><time>2021-05-12T12:06:19Z</time><name>PT5515</name></trkpt>
<trkpt lat="53.106447" lon="06.022075"><ele>-1.1</ele><time>2021-05-12T12:06:20Z</time><name>PT5516</name></trkpt>
<trkpt lat="53.106444" lon="06.022053"><ele>-1.1</ele><time>2021-05-12T12:06:21Z</time><name>PT5517</name></trkpt>
<trkpt lat="53.106440" lon="06.022039"><ele>-1.1</ele><time>2021-05-12T12:06:22Z</time><name>PT5518</name></trkpt>
<trkpt lat="53.106441" lon="06.022027"><ele>-1</ele><time>2021-05-12T12:06:23Z</time><name>PT5519</name></trkpt>
<trkpt lat="53.106443" lon="06.022010"><ele>0.9</ele><time>2021-05-12T12:06:24Z</time><name>PT5520</name></trkpt>
<trkpt lat="53.106444" lon="06.021990"><ele>0.7</ele><time>2021-05-12T12:06:25Z</time><name>PT5521</name></trkpt>
<trkpt lat="53.106441" lon="06.021971"><ele>0.9</ele><time>2021-05-12T12:06:26Z</time><name>PT5522</name></trkpt>
<trkpt lat="53.106439" lon="06.021950"><ele>0.9</ele><time>2021-05-12T12:06:27Z</time><name>PT5523</name></trkpt>
<trkpt lat="53.106436" lon="06.021930"><ele>-1</ele><time>2021-05-12T12:06:28Z</time><name>PT5524</name></trkpt>
<trkpt lat="53.106432" lon="06.021912"><ele>-1.1</ele><time>2021-05-12T12:06:29Z</time><name>PT5525</name></trkpt>
<trkpt lat="53.106433" lon="06.021894"><ele>-1</ele><time>2021-05-12T12:06:30Z</time><name>PT5526</name></trkpt>
<trkpt lat="53.106434" lon="06.021876"><ele>-1</ele><time>2021-05-12T12:06:31Z</time><name>PT5527</name></trkpt>
<trkpt lat="53.106436" lon="06.021857"><ele>0.8</ele><time>2021-05-12T12:06:32Z</time><name>PT5528</name></trkpt>
<trkpt lat="53.106434" lon="06.021842"><ele>0.8</ele><time>2021-05-12T12:06:33Z</time><name>PT5529</name></trkpt>
<trkpt lat="53.106431" lon="06.021826"><ele>0.9</ele><time>2021-05-12T12:06:34Z</time><name>PT5530</name></trkpt>
<trkpt lat="53.106430" lon="06.021808"><ele>-1</ele><time>2021-05-12T12:06:35Z</time><name>PT5531</name></trkpt>
<trkpt lat="53.106427" lon="06.021787"><ele>-1</ele><time>2021-05-12T12:06:36Z</time><name>PT5532</name></trkpt>
<trkpt lat="53.106426" lon="06.021768"><ele>0.9</ele><time>2021-05-12T12:06:37Z</time><name>PT5533</name></trkpt>
<trkpt lat="53.106424" lon="06.021747"><ele>0.8</ele><time>2021-05-12T12:06:38Z</time><name>PT5534</name></trkpt>
<trkpt lat="53.106421" lon="06.021729"><ele>0.9</ele><time>2021-05-12T12:06:39Z</time><name>PT5535</name></trkpt>
<trkpt lat="53.106419" lon="06.021712"><ele>0.9</ele><time>2021-05-12T12:06:40Z</time><name>PT5536</name></trkpt>
<trkpt lat="53.106417" lon="06.021694"><ele>-1.1</ele><time>2021-05-12T12:06:41Z</time><name>PT5537</name></trkpt>
<trkpt lat="53.106413" lon="06.021678"><ele>-1.1</ele><time>2021-05-12T12:06:42Z</time><name>PT5538</name></trkpt>
<trkpt lat="53.106411" lon="06.021663"><ele>-1.1</ele><time>2021-05-12T12:06:43Z</time><name>PT5539</name></trkpt>
<trkpt lat="53.106412" lon="06.021645"><ele>-1.2</ele><time>2021-05-12T12:06:44Z</time><name>PT5540</name></trkpt>
<trkpt lat="53.106414" lon="06.021626"><ele>-1.2</ele><time>2021-05-12T12:06:45Z</time><name>PT5541</name></trkpt>
<trkpt lat="53.106413" lon="06.021604"><ele>-1.1</ele><time>2021-05-12T12:06:46Z</time><name>PT5542</name></trkpt>
<trkpt lat="53.106412" lon="06.021582"><ele>-1.1</ele><time>2021-05-12T12:06:47Z</time><name>PT5543</name></trkpt>
<trkpt lat="53.106411" lon="06.021565"><ele>-1.1</ele><time>2021-05-12T12:06:48Z</time><name>PT5544</name></trkpt>
<trkpt lat="53.106412" lon="06.021556"><ele>-1.1</ele><time>2021-05-12T12:06:49Z</time><name>PT5545</name></trkpt>
<trkpt lat="53.106411" lon="06.021552"><ele>-1.2</ele><time>2021-05-12T12:06:50Z</time><name>PT5546</name></trkpt>
<trkpt lat="53.106411" lon="06.021550"><ele>-1.3</ele><time>2021-05-12T12:06:51Z</time><name>PT5547</name></trkpt>
<trkpt lat="53.106415" lon="06.021543"><ele>-1</ele><time>2021-05-12T12:07:00Z</time><name>PT5548</name></trkpt>
<trkpt lat="53.106412" lon="06.021528"><ele>0.8</ele><time>2021-05-12T12:07:01Z</time><name>PT5549</name></trkpt>
<trkpt lat="53.106405" lon="06.021516"><ele>-1</ele><time>2021-05-12T12:07:02Z</time><name>PT5550</name></trkpt>
<trkpt lat="53.106397" lon="06.021504"><ele>-1</ele><time>2021-05-12T12:07:03Z</time><name>PT5551</name></trkpt>
<trkpt lat="53.106389" lon="06.021489"><ele>-1.1</ele><time>2021-05-12T12:07:04Z</time><name>PT5552</name></trkpt>
<trkpt lat="53.106378" lon="06.021476"><ele>-1.1</ele><time>2021-05-12T12:07:05Z</time><name>PT5553</name></trkpt>
<trkpt lat="53.106371" lon="06.021467"><ele>-1.2</ele><time>2021-05-12T12:07:06Z</time><name>PT5554</name></trkpt>
<trkpt lat="53.106372" lon="06.021460"><ele>-1.3</ele><time>2021-05-12T12:07:07Z</time><name>PT5555</name></trkpt>
<trkpt lat="53.106368" lon="06.021431"><ele>-1.4</ele><time>2021-05-12T12:07:08Z</time><name>PT5556</name></trkpt>
<trkpt lat="53.106365" lon="06.021409"><ele>-1.3</ele><time>2021-05-12T12:07:09Z</time><name>PT5557</name></trkpt>
<trkpt lat="53.106362" lon="06.021390"><ele>-1.4</ele><time>2021-05-12T12:07:10Z</time><name>PT5558</name></trkpt>
<trkpt lat="53.106361" lon="06.021377"><ele>-1.1</ele><time>2021-05-12T12:07:11Z</time><name>PT5559</name></trkpt>
<trkpt lat="53.106361" lon="06.021372"><ele>-1</ele><time>2021-05-12T12:07:12Z</time><name>PT5560</name></trkpt>
<trkpt lat="53.106362" lon="06.021370"><ele>0.8</ele><time>2021-05-12T12:07:14Z</time><name>PT5561</name></trkpt>
<trkpt lat="53.106362" lon="06.021367"><ele>0.6</ele><time>2021-05-12T12:07:15Z</time><name>PT5562</name></trkpt>
<trkpt lat="53.106359" lon="06.021366"><ele>0.7</ele><time>2021-05-12T12:07:20Z</time><name>PT5563</name></trkpt>
<trkpt lat="53.106346" lon="06.021366"><ele>0.7</ele><time>2021-05-12T12:07:21Z</time><name>PT5564</name></trkpt>
<trkpt lat="53.106334" lon="06.021365"><ele>0.9</ele><time>2021-05-12T12:07:22Z</time><name>PT5565</name></trkpt>
<trkpt lat="53.106322" lon="06.021372"><ele>0.9</ele><time>2021-05-12T12:07:23Z</time><name>PT5566</name></trkpt>
<trkpt lat="53.106312" lon="06.021379"><ele>0.7</ele><time>2021-05-12T12:07:24Z</time><name>PT5567</name></trkpt>
<trkpt lat="53.106301" lon="06.021385"><ele>0.8</ele><time>2021-05-12T12:07:25Z</time><name>PT5568</name></trkpt>
<trkpt lat="53.106288" lon="06.021391"><ele>-1</ele><time>2021-05-12T12:07:26Z</time><name>PT5569</name></trkpt>
<trkpt lat="53.106276" lon="06.021397"><ele>-1</ele><time>2021-05-12T12:07:27Z</time><name>PT5570</name></trkpt>
<trkpt lat="53.106265" lon="06.021404"><ele>-1.1</ele><time>2021-05-12T12:07:28Z</time><name>PT5571</name></trkpt>
<trkpt lat="53.106254" lon="06.021411"><ele>-1.1</ele><time>2021-05-12T12:07:29Z</time><name>PT5572</name></trkpt>
<trkpt lat="53.106244" lon="06.021415"><ele>-1</ele><time>2021-05-12T12:07:30Z</time><name>PT5573</name></trkpt>
<trkpt lat="53.106232" lon="06.021419"><ele>0.9</ele><time>2021-05-12T12:07:31Z</time><name>PT5574</name></trkpt>
<trkpt lat="53.106223" lon="06.021425"><ele>0.9</ele><time>2021-05-12T12:07:32Z</time><name>PT5575</name></trkpt>
<trkpt lat="53.106212" lon="06.021431"><ele>0.6</ele><time>2021-05-12T12:07:33Z</time><name>PT5576</name></trkpt>
<trkpt lat="53.106200" lon="06.021439"><ele>0.7</ele><time>2021-05-12T12:07:34Z</time><name>PT5577</name></trkpt>
<trkpt lat="53.106189" lon="06.021449"><ele>0.6</ele><time>2021-05-12T12:07:35Z</time><name>PT5578</name></trkpt>
<trkpt lat="53.106179" lon="06.021456"><ele>0.4</ele><time>2021-05-12T12:07:36Z</time><name>PT5579</name></trkpt>
<trkpt lat="53.106168" lon="06.021460"><ele>0.4</ele><time>2021-05-12T12:07:37Z</time><name>PT5580</name></trkpt>
<trkpt lat="53.106156" lon="06.021463"><ele>0.5</ele><time>2021-05-12T12:07:38Z</time><name>PT5581</name></trkpt>
<trkpt lat="53.106143" lon="06.021467"><ele>0.6</ele><time>2021-05-12T12:07:39Z</time><name>PT5582</name></trkpt>
<trkpt lat="53.106131" lon="06.021472"><ele>0.8</ele><time>2021-05-12T12:07:40Z</time><name>PT5583</name></trkpt>
<trkpt lat="53.106118" lon="06.021476"><ele>0.9</ele><time>2021-05-12T12:07:41Z</time><name>PT5584</name></trkpt>
<trkpt lat="53.106107" lon="06.021483"><ele>-1</ele><time>2021-05-12T12:07:42Z</time><name>PT5585</name></trkpt>
<trkpt lat="53.106093" lon="06.021491"><ele>-1.1</ele><time>2021-05-12T12:07:43Z</time><name>PT5586</name></trkpt>
<trkpt lat="53.106081" lon="06.021498"><ele>0.9</ele><time>2021-05-12T12:07:44Z</time><name>PT5587</name></trkpt>
<trkpt lat="53.106070" lon="06.021501"><ele>0.8</ele><time>2021-05-12T12:07:45Z</time><name>PT5588</name></trkpt>
<trkpt lat="53.106058" lon="06.021504"><ele>-1</ele><time>2021-05-12T12:07:46Z</time><name>PT5589</name></trkpt>
<trkpt lat="53.106048" lon="06.021509"><ele>0.8</ele><time>2021-05-12T12:07:47Z</time><name>PT5590</name></trkpt>
<trkpt lat="53.106037" lon="06.021515"><ele>0.8</ele><time>2021-05-12T12:07:48Z</time><name>PT5591</name></trkpt>
<trkpt lat="53.106026" lon="06.021523"><ele>0.8</ele><time>2021-05-12T12:07:49Z</time><name>PT5592</name></trkpt>
<trkpt lat="53.106016" lon="06.021530"><ele>0.9</ele><time>2021-05-12T12:07:50Z</time><name>PT5593</name></trkpt>
<trkpt lat="53.106006" lon="06.021534"><ele>0.9</ele><time>2021-05-12T12:07:51Z</time><name>PT5594</name></trkpt>
<trkpt lat="53.105994" lon="06.021537"><ele>0.9</ele><time>2021-05-12T12:07:52Z</time><name>PT5595</name></trkpt>
<trkpt lat="53.105983" lon="06.021543"><ele>0.9</ele><time>2021-05-12T12:07:53Z</time><name>PT5596</name></trkpt>
<trkpt lat="53.105972" lon="06.021548"><ele>0.6</ele><time>2021-05-12T12:07:54Z</time><name>PT5597</name></trkpt>
<trkpt lat="53.105961" lon="06.021553"><ele>0.6</ele><time>2021-05-12T12:07:55Z</time><name>PT5598</name></trkpt>
<trkpt lat="53.105950" lon="06.021558"><ele>0.6</ele><time>2021-05-12T12:07:56Z</time><name>PT5599</name></trkpt>
<trkpt lat="53.105939" lon="06.021564"><ele>0.7</ele><time>2021-05-12T12:07:57Z</time><name>PT5600</name></trkpt>
<trkpt lat="53.105929" lon="06.021568"><ele>0.7</ele><time>2021-05-12T12:07:58Z</time><name>PT5601</name></trkpt>
<trkpt lat="53.105918" lon="06.021573"><ele>0.9</ele><time>2021-05-12T12:07:59Z</time><name>PT5602</name></trkpt>
<trkpt lat="53.105906" lon="06.021577"><ele>0.9</ele><time>2021-05-12T12:08:00Z</time><name>PT5603</name></trkpt>
<trkpt lat="53.105896" lon="06.021583"><ele>0.8</ele><time>2021-05-12T12:08:01Z</time><name>PT5604</name></trkpt>
<trkpt lat="53.105885" lon="06.021589"><ele>0.8</ele><time>2021-05-12T12:08:02Z</time><name>PT5605</name></trkpt>
<trkpt lat="53.105874" lon="06.021595"><ele>0.8</ele><time>2021-05-12T12:08:03Z</time><name>PT5606</name></trkpt>
<trkpt lat="53.105862" lon="06.021601"><ele>-1</ele><time>2021-05-12T12:08:04Z</time><name>PT5607</name></trkpt>
<trkpt lat="53.105851" lon="06.021605"><ele>-1</ele><time>2021-05-12T12:08:05Z</time><name>PT5608</name></trkpt>
<trkpt lat="53.105840" lon="06.021609"><ele>0.9</ele><time>2021-05-12T12:08:06Z</time><name>PT5609</name></trkpt>
<trkpt lat="53.105829" lon="06.021614"><ele>-1</ele><time>2021-05-12T12:08:07Z</time><name>PT5610</name></trkpt>
<trkpt lat="53.105818" lon="06.021618"><ele>0.8</ele><time>2021-05-12T12:08:08Z</time><name>PT5611</name></trkpt>
<trkpt lat="53.105807" lon="06.021623"><ele>0.9</ele><time>2021-05-12T12:08:09Z</time><name>PT5612</name></trkpt>
<trkpt lat="53.105796" lon="06.021630"><ele>0.9</ele><time>2021-05-12T12:08:10Z</time><name>PT5613</name></trkpt>
<trkpt lat="53.105785" lon="06.021639"><ele>0.8</ele><time>2021-05-12T12:08:11Z</time><name>PT5614</name></trkpt>
<trkpt lat="53.105775" lon="06.021645"><ele>0.9</ele><time>2021-05-12T12:08:12Z</time><name>PT5615</name></trkpt>
<trkpt lat="53.105764" lon="06.021649"><ele>0.7</ele><time>2021-05-12T12:08:13Z</time><name>PT5616</name></trkpt>
<trkpt lat="53.105751" lon="06.021652"><ele>0.8</ele><time>2021-05-12T12:08:14Z</time><name>PT5617</name></trkpt>
<trkpt lat="53.105740" lon="06.021655"><ele>0.7</ele><time>2021-05-12T12:08:15Z</time><name>PT5618</name></trkpt>
<trkpt lat="53.105729" lon="06.021661"><ele>0.9</ele><time>2021-05-12T12:08:16Z</time><name>PT5619</name></trkpt>
<trkpt lat="53.105718" lon="06.021668"><ele>0.6</ele><time>2021-05-12T12:08:17Z</time><name>PT5620</name></trkpt>
<trkpt lat="53.105707" lon="06.021676"><ele>0.6</ele><time>2021-05-12T12:08:18Z</time><name>PT5621</name></trkpt>
<trkpt lat="53.105697" lon="06.021681"><ele>0.6</ele><time>2021-05-12T12:08:19Z</time><name>PT5622</name></trkpt>
<trkpt lat="53.105685" lon="06.021685"><ele>0.7</ele><time>2021-05-12T12:08:20Z</time><name>PT5623</name></trkpt>
<trkpt lat="53.105673" lon="06.021688"><ele>0.6</ele><time>2021-05-12T12:08:21Z</time><name>PT5624</name></trkpt>
<trkpt lat="53.105663" lon="06.021694"><ele>0.6</ele><time>2021-05-12T12:08:22Z</time><name>PT5625</name></trkpt>
<trkpt lat="53.105653" lon="06.021699"><ele>0.8</ele><time>2021-05-12T12:08:23Z</time><name>PT5626</name></trkpt>
<trkpt lat="53.105643" lon="06.021705"><ele>0.7</ele><time>2021-05-12T12:08:24Z</time><name>PT5627</name></trkpt>
<trkpt lat="53.105634" lon="06.021711"><ele>0.7</ele><time>2021-05-12T12:08:25Z</time><name>PT5628</name></trkpt>
<trkpt lat="53.105624" lon="06.021716"><ele>0.8</ele><time>2021-05-12T12:08:26Z</time><name>PT5629</name></trkpt>
<trkpt lat="53.105612" lon="06.021721"><ele>0.9</ele><time>2021-05-12T12:08:27Z</time><name>PT5630</name></trkpt>
<trkpt lat="53.105602" lon="06.021725"><ele>0.7</ele><time>2021-05-12T12:08:28Z</time><name>PT5631</name></trkpt>
<trkpt lat="53.105592" lon="06.021730"><ele>0.7</ele><time>2021-05-12T12:08:29Z</time><name>PT5632</name></trkpt>
<trkpt lat="53.105583" lon="06.021737"><ele>0.6</ele><time>2021-05-12T12:08:30Z</time><name>PT5633</name></trkpt>
<trkpt lat="53.105572" lon="06.021743"><ele>0.5</ele><time>2021-05-12T12:08:31Z</time><name>PT5634</name></trkpt>
<trkpt lat="53.105562" lon="06.021748"><ele>0.6</ele><time>2021-05-12T12:08:32Z</time><name>PT5635</name></trkpt>
<trkpt lat="53.105553" lon="06.021751"><ele>0.7</ele><time>2021-05-12T12:08:33Z</time><name>PT5636</name></trkpt>
<trkpt lat="53.105542" lon="06.021758"><ele>0.8</ele><time>2021-05-12T12:08:34Z</time><name>PT5637</name></trkpt>
<trkpt lat="53.105535" lon="06.021764"><ele>0.9</ele><time>2021-05-12T12:08:35Z</time><name>PT5638</name></trkpt>
<trkpt lat="53.105525" lon="06.021769"><ele>-1</ele><time>2021-05-12T12:08:36Z</time><name>PT5639</name></trkpt>
<trkpt lat="53.105515" lon="06.021775"><ele>-1</ele><time>2021-05-12T12:08:37Z</time><name>PT5640</name></trkpt>
<trkpt lat="53.105504" lon="06.021780"><ele>0.8</ele><time>2021-05-12T12:08:38Z</time><name>PT5641</name></trkpt>
<trkpt lat="53.105495" lon="06.021783"><ele>0.6</ele><time>2021-05-12T12:08:39Z</time><name>PT5642</name></trkpt>
<trkpt lat="53.105485" lon="06.021786"><ele>0.5</ele><time>2021-05-12T12:08:40Z</time><name>PT5643</name></trkpt>
<trkpt lat="53.105473" lon="06.021791"><ele>0.6</ele><time>2021-05-12T12:08:41Z</time><name>PT5644</name></trkpt>
<trkpt lat="53.105465" lon="06.021796"><ele>0.6</ele><time>2021-05-12T12:08:42Z</time><name>PT5645</name></trkpt>
<trkpt lat="53.105457" lon="06.021798"><ele>0.6</ele><time>2021-05-12T12:08:43Z</time><name>PT5646</name></trkpt>
<trkpt lat="53.105448" lon="06.021803"><ele>0.6</ele><time>2021-05-12T12:08:44Z</time><name>PT5647</name></trkpt>
<trkpt lat="53.105439" lon="06.021808"><ele>0.6</ele><time>2021-05-12T12:08:45Z</time><name>PT5648</name></trkpt>
<trkpt lat="53.105429" lon="06.021810"><ele>0.7</ele><time>2021-05-12T12:08:46Z</time><name>PT5649</name></trkpt>
<trkpt lat="53.105418" lon="06.021814"><ele>0.7</ele><time>2021-05-12T12:08:47Z</time><name>PT5650</name></trkpt>
<trkpt lat="53.105408" lon="06.021818"><ele>0.7</ele><time>2021-05-12T12:08:48Z</time><name>PT5651</name></trkpt>
<trkpt lat="53.105400" lon="06.021823"><ele>0.8</ele><time>2021-05-12T12:08:49Z</time><name>PT5652</name></trkpt>
<trkpt lat="53.105390" lon="06.021827"><ele>0.6</ele><time>2021-05-12T12:08:50Z</time><name>PT5653</name></trkpt>
<trkpt lat="53.105380" lon="06.021826"><ele>0.6</ele><time>2021-05-12T12:08:51Z</time><name>PT5654</name></trkpt>
<trkpt lat="53.105371" lon="06.021824"><ele>0.6</ele><time>2021-05-12T12:08:52Z</time><name>PT5655</name></trkpt>
<trkpt lat="53.105360" lon="06.021822"><ele>0.6</ele><time>2021-05-12T12:08:53Z</time><name>PT5656</name></trkpt>
<trkpt lat="53.105352" lon="06.021817"><ele>0.5</ele><time>2021-05-12T12:08:54Z</time><name>PT5657</name></trkpt>
<trkpt lat="53.105343" lon="06.021814"><ele>0.5</ele><time>2021-05-12T12:08:55Z</time><name>PT5658</name></trkpt>
<trkpt lat="53.105334" lon="06.021815"><ele>0.6</ele><time>2021-05-12T12:08:56Z</time><name>PT5659</name></trkpt>
<trkpt lat="53.105324" lon="06.021819"><ele>0.5</ele><time>2021-05-12T12:08:57Z</time><name>PT5660</name></trkpt>
<trkpt lat="53.105310" lon="06.021821"><ele>0.5</ele><time>2021-05-12T12:08:58Z</time><name>PT5661</name></trkpt>
<trkpt lat="53.105299" lon="06.021825"><ele>0.6</ele><time>2021-05-12T12:08:59Z</time><name>PT5662</name></trkpt>
<trkpt lat="53.105288" lon="06.021828"><ele>0.5</ele><time>2021-05-12T12:09:00Z</time><name>PT5663</name></trkpt>
<trkpt lat="53.105279" lon="06.021836"><ele>0.6</ele><time>2021-05-12T12:09:01Z</time><name>PT5664</name></trkpt>
<trkpt lat="53.105273" lon="06.021844"><ele>0.6</ele><time>2021-05-12T12:09:02Z</time><name>PT5665</name></trkpt>
<trkpt lat="53.105264" lon="06.021850"><ele>0.8</ele><time>2021-05-12T12:09:03Z</time><name>PT5666</name></trkpt>
<trkpt lat="53.105250" lon="06.021853"><ele>0.7</ele><time>2021-05-12T12:09:04Z</time><name>PT5667</name></trkpt>
<trkpt lat="53.105239" lon="06.021857"><ele>0.6</ele><time>2021-05-12T12:09:05Z</time><name>PT5668</name></trkpt>
<trkpt lat="53.105231" lon="06.021864"><ele>0.7</ele><time>2021-05-12T12:09:06Z</time><name>PT5669</name></trkpt>
<trkpt lat="53.105226" lon="06.021870"><ele>0.6</ele><time>2021-05-12T12:09:07Z</time><name>PT5670</name></trkpt>
<trkpt lat="53.105219" lon="06.021876"><ele>0.4</ele><time>2021-05-12T12:09:08Z</time><name>PT5671</name></trkpt>
<trkpt lat="53.105210" lon="06.021882"><ele>0.6</ele><time>2021-05-12T12:09:09Z</time><name>PT5672</name></trkpt>
<trkpt lat="53.105199" lon="06.021893"><ele>0.5</ele><time>2021-05-12T12:09:10Z</time><name>PT5673</name></trkpt>
<trkpt lat="53.105191" lon="06.021897"><ele>0.6</ele><time>2021-05-12T12:09:11Z</time><name>PT5674</name></trkpt>
<trkpt lat="53.105182" lon="06.021900"><ele>0.6</ele><time>2021-05-12T12:09:12Z</time><name>PT5675</name></trkpt>
<trkpt lat="53.105170" lon="06.021899"><ele>0.6</ele><time>2021-05-12T12:09:13Z</time><name>PT5676</name></trkpt>
<trkpt lat="53.105160" lon="06.021898"><ele>0.6</ele><time>2021-05-12T12:09:14Z</time><name>PT5677</name></trkpt>
<trkpt lat="53.105150" lon="06.021897"><ele>0.6</ele><time>2021-05-12T12:09:15Z</time><name>PT5678</name></trkpt>
<trkpt lat="53.105140" lon="06.021902"><ele>0.6</ele><time>2021-05-12T12:09:16Z</time><name>PT5679</name></trkpt>
<trkpt lat="53.105130" lon="06.021909"><ele>0.7</ele><time>2021-05-12T12:09:17Z</time><name>PT5680</name></trkpt>
<trkpt lat="53.105120" lon="06.021914"><ele>0.6</ele><time>2021-05-12T12:09:18Z</time><name>PT5681</name></trkpt>
<trkpt lat="53.105111" lon="06.021913"><ele>0.6</ele><time>2021-05-12T12:09:19Z</time><name>PT5682</name></trkpt>
<trkpt lat="53.105099" lon="06.021915"><ele>0.6</ele><time>2021-05-12T12:09:20Z</time><name>PT5683</name></trkpt>
<trkpt lat="53.105088" lon="06.021917"><ele>0.5</ele><time>2021-05-12T12:09:21Z</time><name>PT5684</name></trkpt>
<trkpt lat="53.105078" lon="06.021917"><ele>0.5</ele><time>2021-05-12T12:09:22Z</time><name>PT5685</name></trkpt>
<trkpt lat="53.105066" lon="06.021918"><ele>0.6</ele><time>2021-05-12T12:09:23Z</time><name>PT5686</name></trkpt>
<trkpt lat="53.105052" lon="06.021916"><ele>0.6</ele><time>2021-05-12T12:09:24Z</time><name>PT5687</name></trkpt>
<trkpt lat="53.105041" lon="06.021920"><ele>0.7</ele><time>2021-05-12T12:09:25Z</time><name>PT5688</name></trkpt>
<trkpt lat="53.105030" lon="06.021925"><ele>0.9</ele><time>2021-05-12T12:09:26Z</time><name>PT5689</name></trkpt>
<trkpt lat="53.105020" lon="06.021926"><ele>0.8</ele><time>2021-05-12T12:09:27Z</time><name>PT5690</name></trkpt>
<trkpt lat="53.105009" lon="06.021928"><ele>0.8</ele><time>2021-05-12T12:09:28Z</time><name>PT5691</name></trkpt>
<trkpt lat="53.104999" lon="06.021930"><ele>0.6</ele><time>2021-05-12T12:09:29Z</time><name>PT5692</name></trkpt>
<trkpt lat="53.104989" lon="06.021936"><ele>0.4</ele><time>2021-05-12T12:09:30Z</time><name>PT5693</name></trkpt>
<trkpt lat="53.104977" lon="06.021939"><ele>0.6</ele><time>2021-05-12T12:09:31Z</time><name>PT5694</name></trkpt>
<trkpt lat="53.104964" lon="06.021941"><ele>0.5</ele><time>2021-05-12T12:09:32Z</time><name>PT5695</name></trkpt>
<trkpt lat="53.104953" lon="06.021941"><ele>0.4</ele><time>2021-05-12T12:09:33Z</time><name>PT5696</name></trkpt>
<trkpt lat="53.104941" lon="06.021943"><ele>0.3</ele><time>2021-05-12T12:09:34Z</time><name>PT5697</name></trkpt>
<trkpt lat="53.104928" lon="06.021944"><ele>0.6</ele><time>2021-05-12T12:09:35Z</time><name>PT5698</name></trkpt>
<trkpt lat="53.104915" lon="06.021945"><ele>0.6</ele><time>2021-05-12T12:09:36Z</time><name>PT5699</name></trkpt>
<trkpt lat="53.104903" lon="06.021948"><ele>0.6</ele><time>2021-05-12T12:09:37Z</time><name>PT5700</name></trkpt>
<trkpt lat="53.104890" lon="06.021953"><ele>0.6</ele><time>2021-05-12T12:09:38Z</time><name>PT5701</name></trkpt>
<trkpt lat="53.104875" lon="06.021956"><ele>0.3</ele><time>2021-05-12T12:09:39Z</time><name>PT5702</name></trkpt>
<trkpt lat="53.104861" lon="06.021953"><ele>0.2</ele><time>2021-05-12T12:09:40Z</time><name>PT5703</name></trkpt>
<trkpt lat="53.104848" lon="06.021951"><ele>0.1</ele><time>2021-05-12T12:09:41Z</time><name>PT5704</name></trkpt>
<trkpt lat="53.104834" lon="06.021949"><ele>0</ele><time>2021-05-12T12:09:42Z</time><name>PT5705</name></trkpt>
<trkpt lat="53.104821" lon="06.021950"><ele>0.1</ele><time>2021-05-12T12:09:43Z</time><name>PT5706</name></trkpt>
<trkpt lat="53.104807" lon="06.021950"><ele>0.1</ele><time>2021-05-12T12:09:44Z</time><name>PT5707</name></trkpt>
<trkpt lat="53.104796" lon="06.021952"><ele>0.2</ele><time>2021-05-12T12:09:45Z</time><name>PT5708</name></trkpt>
<trkpt lat="53.104785" lon="06.021953"><ele>0.3</ele><time>2021-05-12T12:09:46Z</time><name>PT5709</name></trkpt>
<trkpt lat="53.104770" lon="06.021955"><ele>0.4</ele><time>2021-05-12T12:09:47Z</time><name>PT5710</name></trkpt>
<trkpt lat="53.104758" lon="06.021957"><ele>0.4</ele><time>2021-05-12T12:09:48Z</time><name>PT5711</name></trkpt>
<trkpt lat="53.104748" lon="06.021962"><ele>0.4</ele><time>2021-05-12T12:09:49Z</time><name>PT5712</name></trkpt>
<trkpt lat="53.104736" lon="06.021964"><ele>0.6</ele><time>2021-05-12T12:09:50Z</time><name>PT5713</name></trkpt>
<trkpt lat="53.104725" lon="06.021965"><ele>0.7</ele><time>2021-05-12T12:09:51Z</time><name>PT5714</name></trkpt>
<trkpt lat="53.104713" lon="06.021967"><ele>0.7</ele><time>2021-05-12T12:09:52Z</time><name>PT5715</name></trkpt>
<trkpt lat="53.104700" lon="06.021968"><ele>0.6</ele><time>2021-05-12T12:09:53Z</time><name>PT5716</name></trkpt>
<trkpt lat="53.104687" lon="06.021970"><ele>0.3</ele><time>2021-05-12T12:09:54Z</time><name>PT5717</name></trkpt>
<trkpt lat="53.104677" lon="06.021970"><ele>0.4</ele><time>2021-05-12T12:09:55Z</time><name>PT5718</name></trkpt>
<trkpt lat="53.104665" lon="06.021968"><ele>0.5</ele><time>2021-05-12T12:09:56Z</time><name>PT5719</name></trkpt>
<trkpt lat="53.104653" lon="06.021967"><ele>0.8</ele><time>2021-05-12T12:09:57Z</time><name>PT5720</name></trkpt>
<trkpt lat="53.104641" lon="06.021968"><ele>0.9</ele><time>2021-05-12T12:09:58Z</time><name>PT5721</name></trkpt>
<trkpt lat="53.104630" lon="06.021969"><ele>0.9</ele><time>2021-05-12T12:09:59Z</time><name>PT5722</name></trkpt>
<trkpt lat="53.104617" lon="06.021970"><ele>0.8</ele><time>2021-05-12T12:10:00Z</time><name>PT5723</name></trkpt>
<trkpt lat="53.104605" lon="06.021973"><ele>0.8</ele><time>2021-05-12T12:10:01Z</time><name>PT5724</name></trkpt>
<trkpt lat="53.104593" lon="06.021975"><ele>0.6</ele><time>2021-05-12T12:10:02Z</time><name>PT5725</name></trkpt>
<trkpt lat="53.104582" lon="06.021976"><ele>0.6</ele><time>2021-05-12T12:10:03Z</time><name>PT5726</name></trkpt>
<trkpt lat="53.104571" lon="06.021976"><ele>0.6</ele><time>2021-05-12T12:10:04Z</time><name>PT5727</name></trkpt>
<trkpt lat="53.104559" lon="06.021974"><ele>0.6</ele><time>2021-05-12T12:10:05Z</time><name>PT5728</name></trkpt>
<trkpt lat="53.104548" lon="06.021975"><ele>0.5</ele><time>2021-05-12T12:10:06Z</time><name>PT5729</name></trkpt>
<trkpt lat="53.104537" lon="06.021977"><ele>0.6</ele><time>2021-05-12T12:10:07Z</time><name>PT5730</name></trkpt>
<trkpt lat="53.104525" lon="06.021978"><ele>0.6</ele><time>2021-05-12T12:10:08Z</time><name>PT5731</name></trkpt>
<trkpt lat="53.104513" lon="06.021981"><ele>0.3</ele><time>2021-05-12T12:10:09Z</time><name>PT5732</name></trkpt>
<trkpt lat="53.104503" lon="06.021982"><ele>0.1</ele><time>2021-05-12T12:10:10Z</time><name>PT5733</name></trkpt>
<trkpt lat="53.104493" lon="06.021982"><ele>0.1</ele><time>2021-05-12T12:10:11Z</time><name>PT5734</name></trkpt>
<trkpt lat="53.104482" lon="06.021981"><ele>0.1</ele><time>2021-05-12T12:10:12Z</time><name>PT5735</name></trkpt>
<trkpt lat="53.104469" lon="06.021981"><ele>0.1</ele><time>2021-05-12T12:10:13Z</time><name>PT5736</name></trkpt>
<trkpt lat="53.104460" lon="06.021983"><ele>0.1</ele><time>2021-05-12T12:10:14Z</time><name>PT5737</name></trkpt>
<trkpt lat="53.104449" lon="06.021984"><ele>0.1</ele><time>2021-05-12T12:10:15Z</time><name>PT5738</name></trkpt>
<trkpt lat="53.104439" lon="06.021988"><ele>0.2</ele><time>2021-05-12T12:10:16Z</time><name>PT5739</name></trkpt>
<trkpt lat="53.104428" lon="06.021992"><ele>0.3</ele><time>2021-05-12T12:10:17Z</time><name>PT5740</name></trkpt>
<trkpt lat="53.104416" lon="06.021990"><ele>0.2</ele><time>2021-05-12T12:10:18Z</time><name>PT5741</name></trkpt>
<trkpt lat="53.104406" lon="06.021990"><ele>0.3</ele><time>2021-05-12T12:10:19Z</time><name>PT5742</name></trkpt>
<trkpt lat="53.104396" lon="06.021988"><ele>0.3</ele><time>2021-05-12T12:10:20Z</time><name>PT5743</name></trkpt>
<trkpt lat="53.104386" lon="06.021988"><ele>0.4</ele><time>2021-05-12T12:10:21Z</time><name>PT5744</name></trkpt>
<trkpt lat="53.104374" lon="06.021990"><ele>0.4</ele><time>2021-05-12T12:10:22Z</time><name>PT5745</name></trkpt>
<trkpt lat="53.104363" lon="06.021992"><ele>0.4</ele><time>2021-05-12T12:10:23Z</time><name>PT5746</name></trkpt>
<trkpt lat="53.104351" lon="06.021994"><ele>0.6</ele><time>2021-05-12T12:10:24Z</time><name>PT5747</name></trkpt>
<trkpt lat="53.104339" lon="06.021996"><ele>0.7</ele><time>2021-05-12T12:10:25Z</time><name>PT5748</name></trkpt>
<trkpt lat="53.104328" lon="06.021997"><ele>0.8</ele><time>2021-05-12T12:10:26Z</time><name>PT5749</name></trkpt>
<trkpt lat="53.104318" lon="06.021998"><ele>0.7</ele><time>2021-05-12T12:10:27Z</time><name>PT5750</name></trkpt>
<trkpt lat="53.104307" lon="06.021998"><ele>0.6</ele><time>2021-05-12T12:10:28Z</time><name>PT5751</name></trkpt>
<trkpt lat="53.104297" lon="06.021999"><ele>0.6</ele><time>2021-05-12T12:10:29Z</time><name>PT5752</name></trkpt>
<trkpt lat="53.104287" lon="06.022000"><ele>0.4</ele><time>2021-05-12T12:10:30Z</time><name>PT5753</name></trkpt>
<trkpt lat="53.104278" lon="06.022004"><ele>0.5</ele><time>2021-05-12T12:10:31Z</time><name>PT5754</name></trkpt>
<trkpt lat="53.104268" lon="06.022008"><ele>0.6</ele><time>2021-05-12T12:10:32Z</time><name>PT5755</name></trkpt>
<trkpt lat="53.104258" lon="06.022008"><ele>0.6</ele><time>2021-05-12T12:10:33Z</time><name>PT5756</name></trkpt>
<trkpt lat="53.104247" lon="06.022008"><ele>0.6</ele><time>2021-05-12T12:10:34Z</time><name>PT5757</name></trkpt>
<trkpt lat="53.104236" lon="06.022009"><ele>0.6</ele><time>2021-05-12T12:10:35Z</time><name>PT5758</name></trkpt>
<trkpt lat="53.104224" lon="06.022009"><ele>0.6</ele><time>2021-05-12T12:10:36Z</time><name>PT5759</name></trkpt>
<trkpt lat="53.104214" lon="06.022010"><ele>0.6</ele><time>2021-05-12T12:10:37Z</time><name>PT5760</name></trkpt>
<trkpt lat="53.104203" lon="06.022015"><ele>0.6</ele><time>2021-05-12T12:10:38Z</time><name>PT5761</name></trkpt>
<trkpt lat="53.104193" lon="06.022017"><ele>0.7</ele><time>2021-05-12T12:10:39Z</time><name>PT5762</name></trkpt>
<trkpt lat="53.104182" lon="06.022018"><ele>0.7</ele><time>2021-05-12T12:10:40Z</time><name>PT5763</name></trkpt>
<trkpt lat="53.104169" lon="06.022017"><ele>0.6</ele><time>2021-05-12T12:10:41Z</time><name>PT5764</name></trkpt>
<trkpt lat="53.104158" lon="06.022021"><ele>0.6</ele><time>2021-05-12T12:10:42Z</time><name>PT5765</name></trkpt>
<trkpt lat="53.104148" lon="06.022022"><ele>0.6</ele><time>2021-05-12T12:10:43Z</time><name>PT5766</name></trkpt>
<trkpt lat="53.104137" lon="06.022022"><ele>0.5</ele><time>2021-05-12T12:10:44Z</time><name>PT5767</name></trkpt>
<trkpt lat="53.104129" lon="06.022022"><ele>0.6</ele><time>2021-05-12T12:10:45Z</time><name>PT5768</name></trkpt>
<trkpt lat="53.104122" lon="06.022024"><ele>0.6</ele><time>2021-05-12T12:10:46Z</time><name>PT5769</name></trkpt>
<trkpt lat="53.104110" lon="06.022023"><ele>0.6</ele><time>2021-05-12T12:10:47Z</time><name>PT5770</name></trkpt>
<trkpt lat="53.104101" lon="06.022024"><ele>0.6</ele><time>2021-05-12T12:10:48Z</time><name>PT5771</name></trkpt>
<trkpt lat="53.104092" lon="06.022025"><ele>0.6</ele><time>2021-05-12T12:10:49Z</time><name>PT5772</name></trkpt>
<trkpt lat="53.104081" lon="06.022027"><ele>0.5</ele><time>2021-05-12T12:10:50Z</time><name>PT5773</name></trkpt>
<trkpt lat="53.104070" lon="06.022031"><ele>0.3</ele><time>2021-05-12T12:10:51Z</time><name>PT5774</name></trkpt>
<trkpt lat="53.104060" lon="06.022035"><ele>0.3</ele><time>2021-05-12T12:10:52Z</time><name>PT5775</name></trkpt>
<trkpt lat="53.104049" lon="06.022036"><ele>0.1</ele><time>2021-05-12T12:10:53Z</time><name>PT5776</name></trkpt>
<trkpt lat="53.104037" lon="06.022036"><ele>0</ele><time>2021-05-12T12:10:54Z</time><name>PT5777</name></trkpt>
<trkpt lat="53.104023" lon="06.022038"><ele>0.1</ele><time>2021-05-12T12:10:55Z</time><name>PT5778</name></trkpt>
<trkpt lat="53.104011" lon="06.022043"><ele>0</ele><time>2021-05-12T12:10:56Z</time><name>PT5779</name></trkpt>
<trkpt lat="53.103999" lon="06.022051"><ele>0.1</ele><time>2021-05-12T12:10:57Z</time><name>PT5780</name></trkpt>
<trkpt lat="53.103990" lon="06.022066"><ele>0.1</ele><time>2021-05-12T12:10:58Z</time><name>PT5781</name></trkpt>
<trkpt lat="53.103983" lon="06.022082"><ele>0.4</ele><time>2021-05-12T12:10:59Z</time><name>PT5782</name></trkpt>
<trkpt lat="53.103975" lon="06.022095"><ele>0.6</ele><time>2021-05-12T12:11:00Z</time><name>PT5783</name></trkpt>
<trkpt lat="53.103969" lon="06.022109"><ele>0.6</ele><time>2021-05-12T12:11:01Z</time><name>PT5784</name></trkpt>
<trkpt lat="53.103957" lon="06.022117"><ele>0.4</ele><time>2021-05-12T12:11:02Z</time><name>PT5785</name></trkpt>
<trkpt lat="53.103949" lon="06.022125"><ele>0.3</ele><time>2021-05-12T12:11:03Z</time><name>PT5786</name></trkpt>
<trkpt lat="53.103946" lon="06.022136"><ele>0.3</ele><time>2021-05-12T12:11:04Z</time><name>PT5787</name></trkpt>
<trkpt lat="53.103946" lon="06.022151"><ele>0.5</ele><time>2021-05-12T12:11:05Z</time><name>PT5788</name></trkpt>
<trkpt lat="53.103948" lon="06.022168"><ele>0.5</ele><time>2021-05-12T12:11:06Z</time><name>PT5789</name></trkpt>
<trkpt lat="53.103946" lon="06.022178"><ele>0.5</ele><time>2021-05-12T12:11:07Z</time><name>PT5790</name></trkpt>
<trkpt lat="53.103944" lon="06.022195"><ele>0.6</ele><time>2021-05-12T12:11:08Z</time><name>PT5791</name></trkpt>
<trkpt lat="53.103944" lon="06.022210"><ele>0.5</ele><time>2021-05-12T12:11:09Z</time><name>PT5792</name></trkpt>
<trkpt lat="53.103942" lon="06.022226"><ele>0.5</ele><time>2021-05-12T12:11:10Z</time><name>PT5793</name></trkpt>
<trkpt lat="53.103942" lon="06.022244"><ele>0.4</ele><time>2021-05-12T12:11:11Z</time><name>PT5794</name></trkpt>
<trkpt lat="53.103943" lon="06.022258"><ele>0.5</ele><time>2021-05-12T12:11:12Z</time><name>PT5795</name></trkpt>
<trkpt lat="53.103944" lon="06.022272"><ele>0.5</ele><time>2021-05-12T12:11:13Z</time><name>PT5796</name></trkpt>
<trkpt lat="53.103943" lon="06.022288"><ele>0.5</ele><time>2021-05-12T12:11:14Z</time><name>PT5797</name></trkpt>
<trkpt lat="53.103944" lon="06.022303"><ele>0.4</ele><time>2021-05-12T12:11:15Z</time><name>PT5798</name></trkpt>
<trkpt lat="53.103948" lon="06.022319"><ele>0.5</ele><time>2021-05-12T12:11:16Z</time><name>PT5799</name></trkpt>
<trkpt lat="53.103949" lon="06.022335"><ele>0.4</ele><time>2021-05-12T12:11:17Z</time><name>PT5800</name></trkpt>
<trkpt lat="53.103949" lon="06.022349"><ele>0.3</ele><time>2021-05-12T12:11:18Z</time><name>PT5801</name></trkpt>
<trkpt lat="53.103950" lon="06.022366"><ele>0.5</ele><time>2021-05-12T12:11:19Z</time><name>PT5802</name></trkpt>
<trkpt lat="53.103953" lon="06.022380"><ele>0.6</ele><time>2021-05-12T12:11:20Z</time><name>PT5803</name></trkpt>
<trkpt lat="53.103955" lon="06.022399"><ele>0.5</ele><time>2021-05-12T12:11:21Z</time><name>PT5804</name></trkpt>
<trkpt lat="53.103958" lon="06.022416"><ele>0.4</ele><time>2021-05-12T12:11:22Z</time><name>PT5805</name></trkpt>
<trkpt lat="53.103957" lon="06.022436"><ele>0.1</ele><time>2021-05-12T12:11:23Z</time><name>PT5806</name></trkpt>
<trkpt lat="53.103958" lon="06.022458"><ele>0</ele><time>2021-05-12T12:11:24Z</time><name>PT5807</name></trkpt>
<trkpt lat="53.103959" lon="06.022477"><ele>0.1</ele><time>2021-05-12T12:11:25Z</time><name>PT5808</name></trkpt>
<trkpt lat="53.103957" lon="06.022495"><ele>0.1</ele><time>2021-05-12T12:11:26Z</time><name>PT5809</name></trkpt>
<trkpt lat="53.103956" lon="06.022512"><ele>0.6</ele><time>2021-05-12T12:11:27Z</time><name>PT5810</name></trkpt>
<trkpt lat="53.103956" lon="06.022527"><ele>0.6</ele><time>2021-05-12T12:11:28Z</time><name>PT5811</name></trkpt>
<trkpt lat="53.103958" lon="06.022542"><ele>0.3</ele><time>2021-05-12T12:11:29Z</time><name>PT5812</name></trkpt>
<trkpt lat="53.103960" lon="06.022556"><ele>0.5</ele><time>2021-05-12T12:11:30Z</time><name>PT5813</name></trkpt>
<trkpt lat="53.103964" lon="06.022570"><ele>0</ele><time>2021-05-12T12:11:31Z</time><name>PT5814</name></trkpt>
<trkpt lat="53.103963" lon="06.022585"><ele>0.5</ele><time>2021-05-12T12:11:32Z</time><name>PT5815</name></trkpt>
<trkpt lat="53.103963" lon="06.022601"><ele>-1.3</ele><time>2021-05-12T12:11:33Z</time><name>PT5816</name></trkpt>
<trkpt lat="53.103963" lon="06.022616"><ele>-1.6</ele><time>2021-05-12T12:11:34Z</time><name>PT5817</name></trkpt>
<trkpt lat="53.103963" lon="06.022629"><ele>-1.9</ele><time>2021-05-12T12:11:35Z</time><name>PT5818</name></trkpt>
<trkpt lat="53.103962" lon="06.022641"><ele>-1.8</ele><time>2021-05-12T12:11:36Z</time><name>PT5819</name></trkpt>
<trkpt lat="53.103962" lon="06.022648"><ele>-1</ele><time>2021-05-12T12:11:37Z</time><name>PT5820</name></trkpt>
<trkpt lat="53.103962" lon="06.022651"><ele>0</ele><time>2021-05-12T12:11:38Z</time><name>PT5821</name></trkpt>
<trkpt lat="53.103961" lon="06.022653"><ele>0.2</ele><time>2021-05-12T12:11:39Z</time><name>PT5822</name></trkpt>
<trkpt lat="53.103962" lon="06.022654"><ele>0</ele><time>2021-05-12T12:11:40Z</time><name>PT5823</name></trkpt>
<trkpt lat="53.103965" lon="06.022662"><ele>0.6</ele><time>2021-05-12T12:11:42Z</time><name>PT5824</name></trkpt>
<trkpt lat="53.103966" lon="06.022677"><ele>0.8</ele><time>2021-05-12T12:11:43Z</time><name>PT5825</name></trkpt>
<trkpt lat="53.103968" lon="06.022693"><ele>-1.2</ele><time>2021-05-12T12:11:44Z</time><name>PT5826</name></trkpt>
<trkpt lat="53.103967" lon="06.022712"><ele>-1</ele><time>2021-05-12T12:11:45Z</time><name>PT5827</name></trkpt>
<trkpt lat="53.103967" lon="06.022730"><ele>0.7</ele><time>2021-05-12T12:11:46Z</time><name>PT5828</name></trkpt>
<trkpt lat="53.103967" lon="06.022750"><ele>0.7</ele><time>2021-05-12T12:11:47Z</time><name>PT5829</name></trkpt>
<trkpt lat="53.103967" lon="06.022769"><ele>0.2</ele><time>2021-05-12T12:11:48Z</time><name>PT5830</name></trkpt>
<trkpt lat="53.103968" lon="06.022787"><ele>0.1</ele><time>2021-05-12T12:11:49Z</time><name>PT5831</name></trkpt>
<trkpt lat="53.103966" lon="06.022807"><ele>0.5</ele><time>2021-05-12T12:11:50Z</time><name>PT5832</name></trkpt>
<trkpt lat="53.103965" lon="06.022830"><ele>0.6</ele><time>2021-05-12T12:11:51Z</time><name>PT5833</name></trkpt>
<trkpt lat="53.103964" lon="06.022850"><ele>0.7</ele><time>2021-05-12T12:11:52Z</time><name>PT5834</name></trkpt>
<trkpt lat="53.103963" lon="06.022867"><ele>0.8</ele><time>2021-05-12T12:11:53Z</time><name>PT5835</name></trkpt>
<trkpt lat="53.103962" lon="06.022887"><ele>0.8</ele><time>2021-05-12T12:11:54Z</time><name>PT5836</name></trkpt>
<trkpt lat="53.103960" lon="06.022904"><ele>0.6</ele><time>2021-05-12T12:11:55Z</time><name>PT5837</name></trkpt>
<trkpt lat="53.103959" lon="06.022921"><ele>0.8</ele><time>2021-05-12T12:11:56Z</time><name>PT5838</name></trkpt>
<trkpt lat="53.103959" lon="06.022939"><ele>0.9</ele><time>2021-05-12T12:11:57Z</time><name>PT5839</name></trkpt>
<trkpt lat="53.103956" lon="06.022956"><ele>0.9</ele><time>2021-05-12T12:11:58Z</time><name>PT5840</name></trkpt>
<trkpt lat="53.103955" lon="06.022974"><ele>0.8</ele><time>2021-05-12T12:11:59Z</time><name>PT5841</name></trkpt>
<trkpt lat="53.103952" lon="06.022990"><ele>0.7</ele><time>2021-05-12T12:12:00Z</time><name>PT5842</name></trkpt>
<trkpt lat="53.103950" lon="06.023007"><ele>0.7</ele><time>2021-05-12T12:12:01Z</time><name>PT5843</name></trkpt>
<trkpt lat="53.103947" lon="06.023023"><ele>0.6</ele><time>2021-05-12T12:12:02Z</time><name>PT5844</name></trkpt>
<trkpt lat="53.103946" lon="06.023043"><ele>0.7</ele><time>2021-05-12T12:12:03Z</time><name>PT5845</name></trkpt>
<trkpt lat="53.103944" lon="06.023058"><ele>0.7</ele><time>2021-05-12T12:12:04Z</time><name>PT5846</name></trkpt>
<trkpt lat="53.103943" lon="06.023074"><ele>0.8</ele><time>2021-05-12T12:12:05Z</time><name>PT5847</name></trkpt>
<trkpt lat="53.103940" lon="06.023089"><ele>0.7</ele><time>2021-05-12T12:12:06Z</time><name>PT5848</name></trkpt>
<trkpt lat="53.103935" lon="06.023107"><ele>0.7</ele><time>2021-05-12T12:12:07Z</time><name>PT5849</name></trkpt>
<trkpt lat="53.103931" lon="06.023125"><ele>0.6</ele><time>2021-05-12T12:12:08Z</time><name>PT5850</name></trkpt>
<trkpt lat="53.103927" lon="06.023143"><ele>-1</ele><time>2021-05-12T12:12:09Z</time><name>PT5851</name></trkpt>
<trkpt lat="53.103925" lon="06.023161"><ele>-1.2</ele><time>2021-05-12T12:12:10Z</time><name>PT5852</name></trkpt>
<trkpt lat="53.103924" lon="06.023177"><ele>0.6</ele><time>2021-05-12T12:12:11Z</time><name>PT5853</name></trkpt>
<trkpt lat="53.103922" lon="06.023192"><ele>0.6</ele><time>2021-05-12T12:12:12Z</time><name>PT5854</name></trkpt>
<trkpt lat="53.103920" lon="06.023209"><ele>-1.1</ele><time>2021-05-12T12:12:13Z</time><name>PT5855</name></trkpt>
<trkpt lat="53.103917" lon="06.023225"><ele>0.3</ele><time>2021-05-12T12:12:14Z</time><name>PT5856</name></trkpt>
<trkpt lat="53.103915" lon="06.023243"><ele>0</ele><time>2021-05-12T12:12:15Z</time><name>PT5857</name></trkpt>
<trkpt lat="53.103914" lon="06.023257"><ele>0</ele><time>2021-05-12T12:12:16Z</time><name>PT5858</name></trkpt>
<trkpt lat="53.103910" lon="06.023275"><ele>0.1</ele><time>2021-05-12T12:12:17Z</time><name>PT5859</name></trkpt>
<trkpt lat="53.103909" lon="06.023293"><ele>0.2</ele><time>2021-05-12T12:12:18Z</time><name>PT5860</name></trkpt>
<trkpt lat="53.103905" lon="06.023309"><ele>0</ele><time>2021-05-12T12:12:19Z</time><name>PT5861</name></trkpt>
<trkpt lat="53.103902" lon="06.023325"><ele>0</ele><time>2021-05-12T12:12:20Z</time><name>PT5862</name></trkpt>
<trkpt lat="53.103902" lon="06.023347"><ele>0.1</ele><time>2021-05-12T12:12:21Z</time><name>PT5863</name></trkpt>
<trkpt lat="53.103900" lon="06.023362"><ele>0.2</ele><time>2021-05-12T12:12:22Z</time><name>PT5864</name></trkpt>
<trkpt lat="53.103900" lon="06.023380"><ele>0</ele><time>2021-05-12T12:12:23Z</time><name>PT5865</name></trkpt>
<trkpt lat="53.103898" lon="06.023400"><ele>0.3</ele><time>2021-05-12T12:12:24Z</time><name>PT5866</name></trkpt>
<trkpt lat="53.103893" lon="06.023415"><ele>0.4</ele><time>2021-05-12T12:12:25Z</time><name>PT5867</name></trkpt>
<trkpt lat="53.103891" lon="06.023431"><ele>0.6</ele><time>2021-05-12T12:12:26Z</time><name>PT5868</name></trkpt>
<trkpt lat="53.103891" lon="06.023448"><ele>0.6</ele><time>2021-05-12T12:12:27Z</time><name>PT5869</name></trkpt>
<trkpt lat="53.103889" lon="06.023465"><ele>0.7</ele><time>2021-05-12T12:12:28Z</time><name>PT5870</name></trkpt>
<trkpt lat="53.103885" lon="06.023480"><ele>0.9</ele><time>2021-05-12T12:12:29Z</time><name>PT5871</name></trkpt>
<trkpt lat="53.103882" lon="06.023496"><ele>0.9</ele><time>2021-05-12T12:12:30Z</time><name>PT5872</name></trkpt>
<trkpt lat="53.103881" lon="06.023511"><ele>-1</ele><time>2021-05-12T12:12:31Z</time><name>PT5873</name></trkpt>
<trkpt lat="53.103881" lon="06.023526"><ele>-1.1</ele><time>2021-05-12T12:12:32Z</time><name>PT5874</name></trkpt>
<trkpt lat="53.103880" lon="06.023541"><ele>-1</ele><time>2021-05-12T12:12:33Z</time><name>PT5875</name></trkpt>
<trkpt lat="53.103880" lon="06.023555"><ele>-1.1</ele><time>2021-05-12T12:12:34Z</time><name>PT5876</name></trkpt>
<trkpt lat="53.103879" lon="06.023567"><ele>-1.1</ele><time>2021-05-12T12:12:35Z</time><name>PT5877</name></trkpt>
<trkpt lat="53.103878" lon="06.023582"><ele>-1.1</ele><time>2021-05-12T12:12:36Z</time><name>PT5878</name></trkpt>
<trkpt lat="53.103877" lon="06.023598"><ele>0.9</ele><time>2021-05-12T12:12:37Z</time><name>PT5879</name></trkpt>
<trkpt lat="53.103876" lon="06.023612"><ele>0.9</ele><time>2021-05-12T12:12:38Z</time><name>PT5880</name></trkpt>
<trkpt lat="53.103875" lon="06.023622"><ele>0.6</ele><time>2021-05-12T12:12:39Z</time><name>PT5881</name></trkpt>
<trkpt lat="53.103874" lon="06.023635"><ele>0.6</ele><time>2021-05-12T12:12:40Z</time><name>PT5882</name></trkpt>
<trkpt lat="53.103871" lon="06.023645"><ele>0.6</ele><time>2021-05-12T12:12:41Z</time><name>PT5883</name></trkpt>
<trkpt lat="53.103872" lon="06.023655"><ele>0.6</ele><time>2021-05-12T12:12:42Z</time><name>PT5884</name></trkpt>
<trkpt lat="53.103869" lon="06.023665"><ele>0.6</ele><time>2021-05-12T12:12:43Z</time><name>PT5885</name></trkpt>
<trkpt lat="53.103866" lon="06.023676"><ele>0.7</ele><time>2021-05-12T12:12:44Z</time><name>PT5886</name></trkpt>
<trkpt lat="53.103864" lon="06.023684"><ele>0.7</ele><time>2021-05-12T12:12:45Z</time><name>PT5887</name></trkpt>
<trkpt lat="53.103863" lon="06.023691"><ele>0.6</ele><time>2021-05-12T12:12:46Z</time><name>PT5888</name></trkpt>
<trkpt lat="53.103862" lon="06.023696"><ele>0.5</ele><time>2021-05-12T12:12:47Z</time><name>PT5889</name></trkpt>
<trkpt lat="53.103859" lon="06.023698"><ele>0.4</ele><time>2021-05-12T12:12:48Z</time><name>PT5890</name></trkpt>
<trkpt lat="53.103858" lon="06.023700"><ele>0.4</ele><time>2021-05-12T12:12:49Z</time><name>PT5891</name></trkpt>
<trkpt lat="53.103859" lon="06.023700"><ele>0.3</ele><time>2021-05-12T12:12:50Z</time><name>PT5892</name></trkpt>
<trkpt lat="53.103861" lon="06.023697"><ele>0.8</ele><time>2021-05-12T12:13:00Z</time><name>PT5893</name></trkpt>
<trkpt lat="53.103860" lon="06.023697"><ele>0.7</ele><time>2021-05-12T12:13:01Z</time><name>PT5894</name></trkpt>
<trkpt lat="53.103861" lon="06.023703"><ele>0.5</ele><time>2021-05-12T12:13:02Z</time><name>PT5895</name></trkpt>
<trkpt lat="53.103862" lon="06.023696"><ele>0.5</ele><time>2021-05-12T12:13:13Z</time><name>PT5896</name></trkpt>
<trkpt lat="53.103869" lon="06.023685"><ele>0.8</ele><time>2021-05-12T12:13:14Z</time><name>PT5897</name></trkpt>
<trkpt lat="53.103871" lon="06.023680"><ele>0.9</ele><time>2021-05-12T12:13:15Z</time><name>PT5898</name></trkpt>
<trkpt lat="53.103870" lon="06.023678"><ele>-1.1</ele><time>2021-05-12T12:13:18Z</time><name>PT5899</name></trkpt>
<trkpt lat="53.103871" lon="06.023666"><ele>-1.1</ele><time>2021-05-12T12:13:19Z</time><name>PT5900</name></trkpt>
<trkpt lat="53.103873" lon="06.023657"><ele>-1.5</ele><time>2021-05-12T12:13:20Z</time><name>PT5901</name></trkpt>
<trkpt lat="53.103871" lon="06.023651"><ele>-1.6</ele><time>2021-05-12T12:13:21Z</time><name>PT5902</name></trkpt>
<trkpt lat="53.103874" lon="06.023636"><ele>-1.7</ele><time>2021-05-12T12:13:22Z</time><name>PT5903</name></trkpt>
<trkpt lat="53.103876" lon="06.023619"><ele>-1.9</ele><time>2021-05-12T12:13:23Z</time><name>PT5904</name></trkpt>
<trkpt lat="53.103876" lon="06.023606"><ele>-1.7</ele><time>2021-05-12T12:13:24Z</time><name>PT5905</name></trkpt>
<trkpt lat="53.103880" lon="06.023594"><ele>-1.7</ele><time>2021-05-12T12:13:25Z</time><name>PT5906</name></trkpt>
<trkpt lat="53.103882" lon="06.023584"><ele>-1.6</ele><time>2021-05-12T12:13:26Z</time><name>PT5907</name></trkpt>
<trkpt lat="53.103882" lon="06.023574"><ele>-1.1</ele><time>2021-05-12T12:13:27Z</time><name>PT5908</name></trkpt>
<trkpt lat="53.103881" lon="06.023559"><ele>0.9</ele><time>2021-05-12T12:13:28Z</time><name>PT5909</name></trkpt>
<trkpt lat="53.103884" lon="06.023544"><ele>0.9</ele><time>2021-05-12T12:13:29Z</time><name>PT5910</name></trkpt>
<trkpt lat="53.103887" lon="06.023526"><ele>0.8</ele><time>2021-05-12T12:13:30Z</time><name>PT5911</name></trkpt>
<trkpt lat="53.103893" lon="06.023510"><ele>0.8</ele><time>2021-05-12T12:13:31Z</time><name>PT5912</name></trkpt>
<trkpt lat="53.103898" lon="06.023491"><ele>-1</ele><time>2021-05-12T12:13:32Z</time><name>PT5913</name></trkpt>
<trkpt lat="53.103901" lon="06.023473"><ele>-1.1</ele><time>2021-05-12T12:13:33Z</time><name>PT5914</name></trkpt>
<trkpt lat="53.103904" lon="06.023456"><ele>-1.1</ele><time>2021-05-12T12:13:34Z</time><name>PT5915</name></trkpt>
<trkpt lat="53.103909" lon="06.023439"><ele>-1.3</ele><time>2021-05-12T12:13:35Z</time><name>PT5916</name></trkpt>
<trkpt lat="53.103911" lon="06.023422"><ele>-1.4</ele><time>2021-05-12T12:13:36Z</time><name>PT5917</name></trkpt>
<trkpt lat="53.103914" lon="06.023404"><ele>-1.4</ele><time>2021-05-12T12:13:37Z</time><name>PT5918</name></trkpt>
<trkpt lat="53.103915" lon="06.023388"><ele>-1.5</ele><time>2021-05-12T12:13:38Z</time><name>PT5919</name></trkpt>
<trkpt lat="53.103916" lon="06.023372"><ele>-1.4</ele><time>2021-05-12T12:13:39Z</time><name>PT5920</name></trkpt>
<trkpt lat="53.103916" lon="06.023355"><ele>-1.4</ele><time>2021-05-12T12:13:40Z</time><name>PT5921</name></trkpt>
<trkpt lat="53.103921" lon="06.023336"><ele>-1.2</ele><time>2021-05-12T12:13:41Z</time><name>PT5922</name></trkpt>
<trkpt lat="53.103925" lon="06.023318"><ele>-1.1</ele><time>2021-05-12T12:13:42Z</time><name>PT5923</name></trkpt>
<trkpt lat="53.103931" lon="06.023303"><ele>-1.1</ele><time>2021-05-12T12:13:43Z</time><name>PT5924</name></trkpt>
<trkpt lat="53.103933" lon="06.023289"><ele>-1</ele><time>2021-05-12T12:13:44Z</time><name>PT5925</name></trkpt>
<trkpt lat="53.103936" lon="06.023273"><ele>-1.2</ele><time>2021-05-12T12:13:45Z</time><name>PT5926</name></trkpt>
<trkpt lat="53.103935" lon="06.023260"><ele>-1.1</ele><time>2021-05-12T12:13:46Z</time><name>PT5927</name></trkpt>
<trkpt lat="53.103937" lon="06.023241"><ele>-1.2</ele><time>2021-05-12T12:13:47Z</time><name>PT5928</name></trkpt>
<trkpt lat="53.103939" lon="06.023222"><ele>-1.3</ele><time>2021-05-12T12:13:48Z</time><name>PT5929</name></trkpt>
<trkpt lat="53.103941" lon="06.023206"><ele>-1.3</ele><time>2021-05-12T12:13:49Z</time><name>PT5930</name></trkpt>
<trkpt lat="53.103943" lon="06.023191"><ele>-1</ele><time>2021-05-12T12:13:50Z</time><name>PT5931</name></trkpt>
<trkpt lat="53.103945" lon="06.023175"><ele>0.7</ele><time>2021-05-12T12:13:51Z</time><name>PT5932</name></trkpt>
<trkpt lat="53.103948" lon="06.023157"><ele>0.9</ele><time>2021-05-12T12:13:52Z</time><name>PT5933</name></trkpt>
<trkpt lat="53.103950" lon="06.023140"><ele>0.9</ele><time>2021-05-12T12:13:53Z</time><name>PT5934</name></trkpt>
<trkpt lat="53.103951" lon="06.023117"><ele>0.8</ele><time>2021-05-12T12:13:54Z</time><name>PT5935</name></trkpt>
<trkpt lat="53.103952" lon="06.023099"><ele>0.9</ele><time>2021-05-12T12:13:55Z</time><name>PT5936</name></trkpt>
<trkpt lat="53.103950" lon="06.023083"><ele>0.8</ele><time>2021-05-12T12:13:56Z</time><name>PT5937</name></trkpt>
<trkpt lat="53.103951" lon="06.023065"><ele>0.6</ele><time>2021-05-12T12:13:57Z</time><name>PT5938</name></trkpt>
<trkpt lat="53.103952" lon="06.023048"><ele>0.5</ele><time>2021-05-12T12:13:58Z</time><name>PT5939</name></trkpt>
<trkpt lat="53.103954" lon="06.023020"><ele>0.3</ele><time>2021-05-12T12:13:59Z</time><name>PT5940</name></trkpt>
<trkpt lat="53.103954" lon="06.022999"><ele>0.6</ele><time>2021-05-12T12:14:00Z</time><name>PT5941</name></trkpt>
<trkpt lat="53.103952" lon="06.022973"><ele>0.8</ele><time>2021-05-12T12:14:01Z</time><name>PT5942</name></trkpt>
<trkpt lat="53.103951" lon="06.022953"><ele>-1</ele><time>2021-05-12T12:14:02Z</time><name>PT5943</name></trkpt>
<trkpt lat="53.103950" lon="06.022926"><ele>-1.1</ele><time>2021-05-12T12:14:03Z</time><name>PT5944</name></trkpt>
<trkpt lat="53.103951" lon="06.022903"><ele>-1.1</ele><time>2021-05-12T12:14:04Z</time><name>PT5945</name></trkpt>
<trkpt lat="53.103954" lon="06.022883"><ele>-1</ele><time>2021-05-12T12:14:05Z</time><name>PT5946</name></trkpt>
<trkpt lat="53.103957" lon="06.022866"><ele>-1</ele><time>2021-05-12T12:14:06Z</time><name>PT5947</name></trkpt>
<trkpt lat="53.103958" lon="06.022850"><ele>-1.1</ele><time>2021-05-12T12:14:07Z</time><name>PT5948</name></trkpt>
<trkpt lat="53.103959" lon="06.022833"><ele>-1</ele><time>2021-05-12T12:14:08Z</time><name>PT5949</name></trkpt>
<trkpt lat="53.103961" lon="06.022814"><ele>-1.5</ele><time>2021-05-12T12:14:09Z</time><name>PT5950</name></trkpt>
<trkpt lat="53.103961" lon="06.022795"><ele>-1.4</ele><time>2021-05-12T12:14:10Z</time><name>PT5951</name></trkpt>
<trkpt lat="53.103962" lon="06.022776"><ele>-2.1</ele><time>2021-05-12T12:14:11Z</time><name>PT5952</name></trkpt>
<trkpt lat="53.103963" lon="06.022758"><ele>-1.8</ele><time>2021-05-12T12:14:12Z</time><name>PT5953</name></trkpt>
<trkpt lat="53.103963" lon="06.022740"><ele>-1.7</ele><time>2021-05-12T12:14:13Z</time><name>PT5954</name></trkpt>
<trkpt lat="53.103962" lon="06.022719"><ele>-1.1</ele><time>2021-05-12T12:14:14Z</time><name>PT5955</name></trkpt>
<trkpt lat="53.103961" lon="06.022702"><ele>0.6</ele><time>2021-05-12T12:14:15Z</time><name>PT5956</name></trkpt>
<trkpt lat="53.103960" lon="06.022686"><ele>0.7</ele><time>2021-05-12T12:14:16Z</time><name>PT5957</name></trkpt>
<trkpt lat="53.103962" lon="06.022671"><ele>0.8</ele><time>2021-05-12T12:14:17Z</time><name>PT5958</name></trkpt>
<trkpt lat="53.103962" lon="06.022654"><ele>0.8</ele><time>2021-05-12T12:14:18Z</time><name>PT5959</name></trkpt>
<trkpt lat="53.103962" lon="06.022632"><ele>0.7</ele><time>2021-05-12T12:14:19Z</time><name>PT5960</name></trkpt>
<trkpt lat="53.103962" lon="06.022609"><ele>0.7</ele><time>2021-05-12T12:14:20Z</time><name>PT5961</name></trkpt>
<trkpt lat="53.103962" lon="06.022590"><ele>0.6</ele><time>2021-05-12T12:14:21Z</time><name>PT5962</name></trkpt>
<trkpt lat="53.103963" lon="06.022576"><ele>0.6</ele><time>2021-05-12T12:14:22Z</time><name>PT5963</name></trkpt>
<trkpt lat="53.103963" lon="06.022565"><ele>0.5</ele><time>2021-05-12T12:14:23Z</time><name>PT5964</name></trkpt>
<trkpt lat="53.103963" lon="06.022555"><ele>0.4</ele><time>2021-05-12T12:14:24Z</time><name>PT5965</name></trkpt>
<trkpt lat="53.103960" lon="06.022535"><ele>0.5</ele><time>2021-05-12T12:14:25Z</time><name>PT5966</name></trkpt>
<trkpt lat="53.103963" lon="06.022510"><ele>0.4</ele><time>2021-05-12T12:14:26Z</time><name>PT5967</name></trkpt>
<trkpt lat="53.103964" lon="06.022481"><ele>0.5</ele><time>2021-05-12T12:14:27Z</time><name>PT5968</name></trkpt>
<trkpt lat="53.103964" lon="06.022456"><ele>0.6</ele><time>2021-05-12T12:14:28Z</time><name>PT5969</name></trkpt>
<trkpt lat="53.103962" lon="06.022439"><ele>0.8</ele><time>2021-05-12T12:14:29Z</time><name>PT5970</name></trkpt>
<trkpt lat="53.103959" lon="06.022428"><ele>0.7</ele><time>2021-05-12T12:14:30Z</time><name>PT5971</name></trkpt>
<trkpt lat="53.103958" lon="06.022416"><ele>0.7</ele><time>2021-05-12T12:14:31Z</time><name>PT5972</name></trkpt>
<trkpt lat="53.103958" lon="06.022404"><ele>0.6</ele><time>2021-05-12T12:14:32Z</time><name>PT5973</name></trkpt>
<trkpt lat="53.103959" lon="06.022392"><ele>0.5</ele><time>2021-05-12T12:14:33Z</time><name>PT5974</name></trkpt>
<trkpt lat="53.103962" lon="06.022369"><ele>0.6</ele><time>2021-05-12T12:14:34Z</time><name>PT5975</name></trkpt>
<trkpt lat="53.103963" lon="06.022345"><ele>0.6</ele><time>2021-05-12T12:14:35Z</time><name>PT5976</name></trkpt>
<trkpt lat="53.103961" lon="06.022324"><ele>0.8</ele><time>2021-05-12T12:14:36Z</time><name>PT5977</name></trkpt>
<trkpt lat="53.103958" lon="06.022307"><ele>-1</ele><time>2021-05-12T12:14:37Z</time><name>PT5978</name></trkpt>
<trkpt lat="53.103959" lon="06.022285"><ele>-1.1</ele><time>2021-05-12T12:14:38Z</time><name>PT5979</name></trkpt>
<trkpt lat="53.103958" lon="06.022263"><ele>-1.2</ele><time>2021-05-12T12:14:39Z</time><name>PT5980</name></trkpt>
<trkpt lat="53.103955" lon="06.022237"><ele>-1.2</ele><time>2021-05-12T12:14:40Z</time><name>PT5981</name></trkpt>
<trkpt lat="53.103954" lon="06.022212"><ele>-1.2</ele><time>2021-05-12T12:14:41Z</time><name>PT5982</name></trkpt>
<trkpt lat="53.103951" lon="06.022190"><ele>-1.1</ele><time>2021-05-12T12:14:42Z</time><name>PT5983</name></trkpt>
<trkpt lat="53.103949" lon="06.022167"><ele>-1.1</ele><time>2021-05-12T12:14:43Z</time><name>PT5984</name></trkpt>
<trkpt lat="53.103946" lon="06.022147"><ele>-1.1</ele><time>2021-05-12T12:14:44Z</time><name>PT5985</name></trkpt>
<trkpt lat="53.103946" lon="06.022126"><ele>-1.1</ele><time>2021-05-12T12:14:45Z</time><name>PT5986</name></trkpt>
<trkpt lat="53.103945" lon="06.022104"><ele>0.9</ele><time>2021-05-12T12:14:46Z</time><name>PT5987</name></trkpt>
<trkpt lat="53.103944" lon="06.022083"><ele>0.9</ele><time>2021-05-12T12:14:47Z</time><name>PT5988</name></trkpt>
<trkpt lat="53.103944" lon="06.022062"><ele>-1.1</ele><time>2021-05-12T12:14:48Z</time><name>PT5989</name></trkpt>
<trkpt lat="53.103945" lon="06.022042"><ele>-1.2</ele><time>2021-05-12T12:14:49Z</time><name>PT5990</name></trkpt>
<trkpt lat="53.103945" lon="06.022023"><ele>-1.2</ele><time>2021-05-12T12:14:50Z</time><name>PT5991</name></trkpt>
<trkpt lat="53.103944" lon="06.022003"><ele>-1.5</ele><time>2021-05-12T12:14:51Z</time><name>PT5992</name></trkpt>
<trkpt lat="53.103942" lon="06.021984"><ele>-1.3</ele><time>2021-05-12T12:14:52Z</time><name>PT5993</name></trkpt>
<trkpt lat="53.103939" lon="06.021964"><ele>-1.1</ele><time>2021-05-12T12:14:53Z</time><name>PT5994</name></trkpt>
<trkpt lat="53.103937" lon="06.021947"><ele>-1.1</ele><time>2021-05-12T12:14:54Z</time><name>PT5995</name></trkpt>
<trkpt lat="53.103937" lon="06.021929"><ele>-1</ele><time>2021-05-12T12:14:55Z</time><name>PT5996</name></trkpt>
<trkpt lat="53.103938" lon="06.021911"><ele>0.9</ele><time>2021-05-12T12:14:56Z</time><name>PT5997</name></trkpt>
<trkpt lat="53.103938" lon="06.021893"><ele>-1</ele><time>2021-05-12T12:14:57Z</time><name>PT5998</name></trkpt>
<trkpt lat="53.103938" lon="06.021875"><ele>0.9</ele><time>2021-05-12T12:14:58Z</time><name>PT5999</name></trkpt>
<trkpt lat="53.103938" lon="06.021857"><ele>0.8</ele><time>2021-05-12T12:14:59Z</time><name>PT6000</name></trkpt>
<trkpt lat="53.103939" lon="06.021841"><ele>-1.1</ele><time>2021-05-12T12:15:00Z</time><name>PT6001</name></trkpt>
<trkpt lat="53.103938" lon="06.021825"><ele>-1.1</ele><time>2021-05-12T12:15:01Z</time><name>PT6002</name></trkpt>
<trkpt lat="53.103939" lon="06.021812"><ele>0.9</ele><time>2021-05-12T12:15:02Z</time><name>PT6003</name></trkpt>
<trkpt lat="53.103943" lon="06.021800"><ele>0.9</ele><time>2021-05-12T12:15:03Z</time><name>PT6004</name></trkpt>
<trkpt lat="53.103944" lon="06.021785"><ele>0.8</ele><time>2021-05-12T12:15:04Z</time><name>PT6005</name></trkpt>
<trkpt lat="53.103940" lon="06.021767"><ele>0.6</ele><time>2021-05-12T12:15:05Z</time><name>PT6006</name></trkpt>
<trkpt lat="53.103937" lon="06.021748"><ele>0.7</ele><time>2021-05-12T12:15:06Z</time><name>PT6007</name></trkpt>
<trkpt lat="53.103934" lon="06.021724"><ele>0.6</ele><time>2021-05-12T12:15:07Z</time><name>PT6008</name></trkpt>
<trkpt lat="53.103932" lon="06.021707"><ele>0.7</ele><time>2021-05-12T12:15:08Z</time><name>PT6009</name></trkpt>
<trkpt lat="53.103930" lon="06.021688"><ele>0.8</ele><time>2021-05-12T12:15:09Z</time><name>PT6010</name></trkpt>
<trkpt lat="53.103926" lon="06.021671"><ele>0.9</ele><time>2021-05-12T12:15:10Z</time><name>PT6011</name></trkpt>
<trkpt lat="53.103927" lon="06.021652"><ele>-1</ele><time>2021-05-12T12:15:11Z</time><name>PT6012</name></trkpt>
<trkpt lat="53.103925" lon="06.021635"><ele>-1.1</ele><time>2021-05-12T12:15:12Z</time><name>PT6013</name></trkpt>
<trkpt lat="53.103924" lon="06.021616"><ele>-1.3</ele><time>2021-05-12T12:15:13Z</time><name>PT6014</name></trkpt>
<trkpt lat="53.103923" lon="06.021599"><ele>-1.2</ele><time>2021-05-12T12:15:14Z</time><name>PT6015</name></trkpt>
<trkpt lat="53.103924" lon="06.021578"><ele>-1.1</ele><time>2021-05-12T12:15:15Z</time><name>PT6016</name></trkpt>
<trkpt lat="53.103923" lon="06.021555"><ele>-1.2</ele><time>2021-05-12T12:15:16Z</time><name>PT6017</name></trkpt>
<trkpt lat="53.103920" lon="06.021535"><ele>0.9</ele><time>2021-05-12T12:15:17Z</time><name>PT6018</name></trkpt>
<trkpt lat="53.103921" lon="06.021518"><ele>0.7</ele><time>2021-05-12T12:15:18Z</time><name>PT6019</name></trkpt>
<trkpt lat="53.103917" lon="06.021496"><ele>0.6</ele><time>2021-05-12T12:15:19Z</time><name>PT6020</name></trkpt>
<trkpt lat="53.103912" lon="06.021476"><ele>0.6</ele><time>2021-05-12T12:15:20Z</time><name>PT6021</name></trkpt>
<trkpt lat="53.103912" lon="06.021457"><ele>0.5</ele><time>2021-05-12T12:15:21Z</time><name>PT6022</name></trkpt>
<trkpt lat="53.103911" lon="06.021436"><ele>0.6</ele><time>2021-05-12T12:15:22Z</time><name>PT6023</name></trkpt>
<trkpt lat="53.103908" lon="06.021418"><ele>0.5</ele><time>2021-05-12T12:15:23Z</time><name>PT6024</name></trkpt>
<trkpt lat="53.103908" lon="06.021398"><ele>0.6</ele><time>2021-05-12T12:15:24Z</time><name>PT6025</name></trkpt>
<trkpt lat="53.103907" lon="06.021375"><ele>0.6</ele><time>2021-05-12T12:15:25Z</time><name>PT6026</name></trkpt>
<trkpt lat="53.103907" lon="06.021354"><ele>0.6</ele><time>2021-05-12T12:15:26Z</time><name>PT6027</name></trkpt>
<trkpt lat="53.103908" lon="06.021335"><ele>0.8</ele><time>2021-05-12T12:15:27Z</time><name>PT6028</name></trkpt>
<trkpt lat="53.103908" lon="06.021315"><ele>0.8</ele><time>2021-05-12T12:15:28Z</time><name>PT6029</name></trkpt>
<trkpt lat="53.103909" lon="06.021297"><ele>0.7</ele><time>2021-05-12T12:15:29Z</time><name>PT6030</name></trkpt>
<trkpt lat="53.103910" lon="06.021282"><ele>0.7</ele><time>2021-05-12T12:15:30Z</time><name>PT6031</name></trkpt>
<trkpt lat="53.103911" lon="06.021265"><ele>0.6</ele><time>2021-05-12T12:15:31Z</time><name>PT6032</name></trkpt>
<trkpt lat="53.103909" lon="06.021243"><ele>0.7</ele><time>2021-05-12T12:15:32Z</time><name>PT6033</name></trkpt>
<trkpt lat="53.103908" lon="06.021223"><ele>0.7</ele><time>2021-05-12T12:15:33Z</time><name>PT6034</name></trkpt>
<trkpt lat="53.103905" lon="06.021205"><ele>0.8</ele><time>2021-05-12T12:15:34Z</time><name>PT6035</name></trkpt>
<trkpt lat="53.103904" lon="06.021188"><ele>0.9</ele><time>2021-05-12T12:15:35Z</time><name>PT6036</name></trkpt>
<trkpt lat="53.103905" lon="06.021173"><ele>0.6</ele><time>2021-05-12T12:15:36Z</time><name>PT6037</name></trkpt>
<trkpt lat="53.103905" lon="06.021157"><ele>0.7</ele><time>2021-05-12T12:15:37Z</time><name>PT6038</name></trkpt>
<trkpt lat="53.103907" lon="06.021143"><ele>0.8</ele><time>2021-05-12T12:15:38Z</time><name>PT6039</name></trkpt>
<trkpt lat="53.103910" lon="06.021129"><ele>0.8</ele><time>2021-05-12T12:15:39Z</time><name>PT6040</name></trkpt>
<trkpt lat="53.103911" lon="06.021107"><ele>0.8</ele><time>2021-05-12T12:15:40Z</time><name>PT6041</name></trkpt>
<trkpt lat="53.103912" lon="06.021090"><ele>0.7</ele><time>2021-05-12T12:15:41Z</time><name>PT6042</name></trkpt>
<trkpt lat="53.103912" lon="06.021072"><ele>0.6</ele><time>2021-05-12T12:15:42Z</time><name>PT6043</name></trkpt>
<trkpt lat="53.103910" lon="06.021053"><ele>0.5</ele><time>2021-05-12T12:15:43Z</time><name>PT6044</name></trkpt>
<trkpt lat="53.103907" lon="06.021033"><ele>0.5</ele><time>2021-05-12T12:15:44Z</time><name>PT6045</name></trkpt>
<trkpt lat="53.103907" lon="06.021017"><ele>0.6</ele><time>2021-05-12T12:15:45Z</time><name>PT6046</name></trkpt>
<trkpt lat="53.103908" lon="06.020997"><ele>0.7</ele><time>2021-05-12T12:15:46Z</time><name>PT6047</name></trkpt>
<trkpt lat="53.103908" lon="06.020980"><ele>-1</ele><time>2021-05-12T12:15:47Z</time><name>PT6048</name></trkpt>
<trkpt lat="53.103908" lon="06.020962"><ele>-1.1</ele><time>2021-05-12T12:15:48Z</time><name>PT6049</name></trkpt>
<trkpt lat="53.103908" lon="06.020947"><ele>-1.1</ele><time>2021-05-12T12:15:49Z</time><name>PT6050</name></trkpt>
<trkpt lat="53.103906" lon="06.020928"><ele>-1.1</ele><time>2021-05-12T12:15:50Z</time><name>PT6051</name></trkpt>
<trkpt lat="53.103903" lon="06.020913"><ele>-1</ele><time>2021-05-12T12:15:51Z</time><name>PT6052</name></trkpt>
<trkpt lat="53.103900" lon="06.020899"><ele>0.9</ele><time>2021-05-12T12:15:52Z</time><name>PT6053</name></trkpt>
<trkpt lat="53.103898" lon="06.020879"><ele>-1</ele><time>2021-05-12T12:15:53Z</time><name>PT6054</name></trkpt>
<trkpt lat="53.103896" lon="06.020861"><ele>0.9</ele><time>2021-05-12T12:15:54Z</time><name>PT6055</name></trkpt>
<trkpt lat="53.103896" lon="06.020843"><ele>0.8</ele><time>2021-05-12T12:15:55Z</time><name>PT6056</name></trkpt>
<trkpt lat="53.103898" lon="06.020828"><ele>-1</ele><time>2021-05-12T12:15:56Z</time><name>PT6057</name></trkpt>
<trkpt lat="53.103900" lon="06.020811"><ele>-1</ele><time>2021-05-12T12:15:57Z</time><name>PT6058</name></trkpt>
<trkpt lat="53.103898" lon="06.020795"><ele>-1.1</ele><time>2021-05-12T12:15:58Z</time><name>PT6059</name></trkpt>
<trkpt lat="53.103895" lon="06.020776"><ele>-1.1</ele><time>2021-05-12T12:15:59Z</time><name>PT6060</name></trkpt>
<trkpt lat="53.103893" lon="06.020760"><ele>-1.1</ele><time>2021-05-12T12:16:00Z</time><name>PT6061</name></trkpt>
<trkpt lat="53.103889" lon="06.020741"><ele>-1.2</ele><time>2021-05-12T12:16:01Z</time><name>PT6062</name></trkpt>
<trkpt lat="53.103891" lon="06.020723"><ele>-1.1</ele><time>2021-05-12T12:16:02Z</time><name>PT6063</name></trkpt>
<trkpt lat="53.103888" lon="06.020703"><ele>-1.3</ele><time>2021-05-12T12:16:03Z</time><name>PT6064</name></trkpt>
<trkpt lat="53.103886" lon="06.020687"><ele>-1.1</ele><time>2021-05-12T12:16:04Z</time><name>PT6065</name></trkpt>
<trkpt lat="53.103888" lon="06.020668"><ele>-1</ele><time>2021-05-12T12:16:05Z</time><name>PT6066</name></trkpt>
<trkpt lat="53.103887" lon="06.020653"><ele>-1</ele><time>2021-05-12T12:16:06Z</time><name>PT6067</name></trkpt>
<trkpt lat="53.103886" lon="06.020637"><ele>-1</ele><time>2021-05-12T12:16:07Z</time><name>PT6068</name></trkpt>
<trkpt lat="53.103888" lon="06.020620"><ele>-1</ele><time>2021-05-12T12:16:08Z</time><name>PT6069</name></trkpt>
<trkpt lat="53.103888" lon="06.020602"><ele>-1</ele><time>2021-05-12T12:16:09Z</time><name>PT6070</name></trkpt>
<trkpt lat="53.103889" lon="06.020584"><ele>-1</ele><time>2021-05-12T12:16:10Z</time><name>PT6071</name></trkpt>
<trkpt lat="53.103887" lon="06.020566"><ele>-1</ele><time>2021-05-12T12:16:11Z</time><name>PT6072</name></trkpt>
<trkpt lat="53.103886" lon="06.020547"><ele>-1</ele><time>2021-05-12T12:16:12Z</time><name>PT6073</name></trkpt>
<trkpt lat="53.103888" lon="06.020524"><ele>0.9</ele><time>2021-05-12T12:16:13Z</time><name>PT6074</name></trkpt>
<trkpt lat="53.103889" lon="06.020506"><ele>0.9</ele><time>2021-05-12T12:16:14Z</time><name>PT6075</name></trkpt>
<trkpt lat="53.103891" lon="06.020489"><ele>0.8</ele><time>2021-05-12T12:16:15Z</time><name>PT6076</name></trkpt>
<trkpt lat="53.103889" lon="06.020475"><ele>0.9</ele><time>2021-05-12T12:16:16Z</time><name>PT6077</name></trkpt>
<trkpt lat="53.103887" lon="06.020465"><ele>0.7</ele><time>2021-05-12T12:16:17Z</time><name>PT6078</name></trkpt>
<trkpt lat="53.103887" lon="06.020459"><ele>0.8</ele><time>2021-05-12T12:16:18Z</time><name>PT6079</name></trkpt>
<trkpt lat="53.103885" lon="06.020457"><ele>0.8</ele><time>2021-05-12T12:16:19Z</time><name>PT6080</name></trkpt>
<trkpt lat="53.103881" lon="06.020454"><ele>0.9</ele><time>2021-05-12T12:16:20Z</time><name>PT6081</name></trkpt>
<trkpt lat="53.103882" lon="06.020443"><ele>0.7</ele><time>2021-05-12T12:16:21Z</time><name>PT6082</name></trkpt>
<trkpt lat="53.103880" lon="06.020428"><ele>0.6</ele><time>2021-05-12T12:16:22Z</time><name>PT6083</name></trkpt>
<trkpt lat="53.103879" lon="06.020411"><ele>0.6</ele><time>2021-05-12T12:16:23Z</time><name>PT6084</name></trkpt>
<trkpt lat="53.103879" lon="06.020392"><ele>0.4</ele><time>2021-05-12T12:16:24Z</time><name>PT6085</name></trkpt>
<trkpt lat="53.103874" lon="06.020375"><ele>0.4</ele><time>2021-05-12T12:16:25Z</time><name>PT6086</name></trkpt>
<trkpt lat="53.103870" lon="06.020357"><ele>0.5</ele><time>2021-05-12T12:16:26Z</time><name>PT6087</name></trkpt>
<trkpt lat="53.103869" lon="06.020341"><ele>0.6</ele><time>2021-05-12T12:16:27Z</time><name>PT6088</name></trkpt>
<trkpt lat="53.103870" lon="06.020327"><ele>0.6</ele><time>2021-05-12T12:16:28Z</time><name>PT6089</name></trkpt>
<trkpt lat="53.103872" lon="06.020308"><ele>0.6</ele><time>2021-05-12T12:16:29Z</time><name>PT6090</name></trkpt>
<trkpt lat="53.103874" lon="06.020285"><ele>0.7</ele><time>2021-05-12T12:16:30Z</time><name>PT6091</name></trkpt>
<trkpt lat="53.103873" lon="06.020263"><ele>0.6</ele><time>2021-05-12T12:16:31Z</time><name>PT6092</name></trkpt>
<trkpt lat="53.103872" lon="06.020248"><ele>0.5</ele><time>2021-05-12T12:16:32Z</time><name>PT6093</name></trkpt>
<trkpt lat="53.103872" lon="06.020233"><ele>0.6</ele><time>2021-05-12T12:16:33Z</time><name>PT6094</name></trkpt>
<trkpt lat="53.103872" lon="06.020216"><ele>0.6</ele><time>2021-05-12T12:16:34Z</time><name>PT6095</name></trkpt>
<trkpt lat="53.103871" lon="06.020197"><ele>0.6</ele><time>2021-05-12T12:16:35Z</time><name>PT6096</name></trkpt>
<trkpt lat="53.103868" lon="06.020181"><ele>0.6</ele><time>2021-05-12T12:16:36Z</time><name>PT6097</name></trkpt>
<trkpt lat="53.103864" lon="06.020156"><ele>0.6</ele><time>2021-05-12T12:16:37Z</time><name>PT6098</name></trkpt>
<trkpt lat="53.103876" lon="06.020128"><ele>0.5</ele><time>2021-05-12T12:16:38Z</time><name>PT6099</name></trkpt>
<trkpt lat="53.103875" lon="06.020100"><ele>0.6</ele><time>2021-05-12T12:16:39Z</time><name>PT6100</name></trkpt>
<trkpt lat="53.103874" lon="06.020081"><ele>0.5</ele><time>2021-05-12T12:16:40Z</time><name>PT6101</name></trkpt>
<trkpt lat="53.103875" lon="06.020070"><ele>0.6</ele><time>2021-05-12T12:16:41Z</time><name>PT6102</name></trkpt>
<trkpt lat="53.103875" lon="06.020065"><ele>0.6</ele><time>2021-05-12T12:16:42Z</time><name>PT6103</name></trkpt>
<trkpt lat="53.103875" lon="06.020063"><ele>0.5</ele><time>2021-05-12T12:16:43Z</time><name>PT6104</name></trkpt>
<trkpt lat="53.103880" lon="06.020045"><ele>0.3</ele><time>2021-05-12T12:16:55Z</time><name>PT6105</name></trkpt>
<trkpt lat="53.103881" lon="06.020024"><ele>0.4</ele><time>2021-05-12T12:16:56Z</time><name>PT6106</name></trkpt>
<trkpt lat="53.103877" lon="06.020002"><ele>0.3</ele><time>2021-05-12T12:16:57Z</time><name>PT6107</name></trkpt>
<trkpt lat="53.103872" lon="06.019978"><ele>0.3</ele><time>2021-05-12T12:16:58Z</time><name>PT6108</name></trkpt>
<trkpt lat="53.103866" lon="06.019965"><ele>0.3</ele><time>2021-05-12T12:16:59Z</time><name>PT6109</name></trkpt>
<trkpt lat="53.103864" lon="06.019939"><ele>0.1</ele><time>2021-05-12T12:17:00Z</time><name>PT6110</name></trkpt>
<trkpt lat="53.103863" lon="06.019923"><ele>0</ele><time>2021-05-12T12:17:01Z</time><name>PT6111</name></trkpt>
<trkpt lat="53.103860" lon="06.019908"><ele>0.1</ele><time>2021-05-12T12:17:02Z</time><name>PT6112</name></trkpt>
<trkpt lat="53.103860" lon="06.019891"><ele>0</ele><time>2021-05-12T12:17:03Z</time><name>PT6113</name></trkpt>
<trkpt lat="53.103861" lon="06.019869"><ele>0</ele><time>2021-05-12T12:17:04Z</time><name>PT6114</name></trkpt>
<trkpt lat="53.103862" lon="06.019849"><ele>0.2</ele><time>2021-05-12T12:17:05Z</time><name>PT6115</name></trkpt>
<trkpt lat="53.103864" lon="06.019829"><ele>0.3</ele><time>2021-05-12T12:17:06Z</time><name>PT6116</name></trkpt>
<trkpt lat="53.103861" lon="06.019812"><ele>0.3</ele><time>2021-05-12T12:17:07Z</time><name>PT6117</name></trkpt>
<trkpt lat="53.103858" lon="06.019792"><ele>0.6</ele><time>2021-05-12T12:17:08Z</time><name>PT6118</name></trkpt>
<trkpt lat="53.103856" lon="06.019776"><ele>0.7</ele><time>2021-05-12T12:17:09Z</time><name>PT6119</name></trkpt>
<trkpt lat="53.103854" lon="06.019760"><ele>0.6</ele><time>2021-05-12T12:17:10Z</time><name>PT6120</name></trkpt>
<trkpt lat="53.103852" lon="06.019738"><ele>0.7</ele><time>2021-05-12T12:17:11Z</time><name>PT6121</name></trkpt>
<trkpt lat="53.103852" lon="06.019720"><ele>0.9</ele><time>2021-05-12T12:17:12Z</time><name>PT6122</name></trkpt>
<trkpt lat="53.103853" lon="06.019698"><ele>0.7</ele><time>2021-05-12T12:17:13Z</time><name>PT6123</name></trkpt>
<trkpt lat="53.103852" lon="06.019680"><ele>0.9</ele><time>2021-05-12T12:17:14Z</time><name>PT6124</name></trkpt>
<trkpt lat="53.103850" lon="06.019663"><ele>0.8</ele><time>2021-05-12T12:17:15Z</time><name>PT6125</name></trkpt>
<trkpt lat="53.103847" lon="06.019649"><ele>0.8</ele><time>2021-05-12T12:17:16Z</time><name>PT6126</name></trkpt>
<trkpt lat="53.103844" lon="06.019634"><ele>0.8</ele><time>2021-05-12T12:17:17Z</time><name>PT6127</name></trkpt>
<trkpt lat="53.103842" lon="06.019617"><ele>0.7</ele><time>2021-05-12T12:17:18Z</time><name>PT6128</name></trkpt>
<trkpt lat="53.103841" lon="06.019599"><ele>0.7</ele><time>2021-05-12T12:17:19Z</time><name>PT6129</name></trkpt>
<trkpt lat="53.103838" lon="06.019579"><ele>-1</ele><time>2021-05-12T12:17:20Z</time><name>PT6130</name></trkpt>
<trkpt lat="53.103838" lon="06.019565"><ele>-1</ele><time>2021-05-12T12:17:21Z</time><name>PT6131</name></trkpt>
<trkpt lat="53.103836" lon="06.019546"><ele>-1</ele><time>2021-05-12T12:17:22Z</time><name>PT6132</name></trkpt>
<trkpt lat="53.103835" lon="06.019527"><ele>-1.1</ele><time>2021-05-12T12:17:23Z</time><name>PT6133</name></trkpt>
<trkpt lat="53.103832" lon="06.019510"><ele>-1.2</ele><time>2021-05-12T12:17:24Z</time><name>PT6134</name></trkpt>
<trkpt lat="53.103833" lon="06.019493"><ele>-1.1</ele><time>2021-05-12T12:17:25Z</time><name>PT6135</name></trkpt>
<trkpt lat="53.103833" lon="06.019480"><ele>-1.3</ele><time>2021-05-12T12:17:26Z</time><name>PT6136</name></trkpt>
<trkpt lat="53.103834" lon="06.019465"><ele>-1.4</ele><time>2021-05-12T12:17:27Z</time><name>PT6137</name></trkpt>
<trkpt lat="53.103838" lon="06.019460"><ele>-1.4</ele><time>2021-05-12T12:17:28Z</time><name>PT6138</name></trkpt>
<trkpt lat="53.103847" lon="06.019450"><ele>-1.5</ele><time>2021-05-12T12:17:29Z</time><name>PT6139</name></trkpt>
<trkpt lat="53.103847" lon="06.019438"><ele>-1.5</ele><time>2021-05-12T12:17:30Z</time><name>PT6140</name></trkpt>
<trkpt lat="53.103842" lon="06.019424"><ele>-1.5</ele><time>2021-05-12T12:17:31Z</time><name>PT6141</name></trkpt>
<trkpt lat="53.103839" lon="06.019404"><ele>-1.4</ele><time>2021-05-12T12:17:32Z</time><name>PT6142</name></trkpt>
<trkpt lat="53.103837" lon="06.019387"><ele>-1.4</ele><time>2021-05-12T12:17:33Z</time><name>PT6143</name></trkpt>
<trkpt lat="53.103835" lon="06.019372"><ele>-1.3</ele><time>2021-05-12T12:17:34Z</time><name>PT6144</name></trkpt>
<trkpt lat="53.103836" lon="06.019352"><ele>-1.1</ele><time>2021-05-12T12:17:35Z</time><name>PT6145</name></trkpt>
<trkpt lat="53.103840" lon="06.019340"><ele>0.9</ele><time>2021-05-12T12:17:36Z</time><name>PT6146</name></trkpt>
<trkpt lat="53.103842" lon="06.019320"><ele>0.8</ele><time>2021-05-12T12:17:37Z</time><name>PT6147</name></trkpt>
<trkpt lat="53.103844" lon="06.019298"><ele>-1</ele><time>2021-05-12T12:17:38Z</time><name>PT6148</name></trkpt>
<trkpt lat="53.103843" lon="06.019270"><ele>-1.1</ele><time>2021-05-12T12:17:39Z</time><name>PT6149</name></trkpt>
<trkpt lat="53.103843" lon="06.019251"><ele>-1.3</ele><time>2021-05-12T12:17:40Z</time><name>PT6150</name></trkpt>
<trkpt lat="53.103838" lon="06.019232"><ele>-1.2</ele><time>2021-05-12T12:17:41Z</time><name>PT6151</name></trkpt>
<trkpt lat="53.103836" lon="06.019211"><ele>-1.2</ele><time>2021-05-12T12:17:42Z</time><name>PT6152</name></trkpt>
<trkpt lat="53.103834" lon="06.019193"><ele>-1.4</ele><time>2021-05-12T12:17:43Z</time><name>PT6153</name></trkpt>
<trkpt lat="53.103830" lon="06.019177"><ele>-1.4</ele><time>2021-05-12T12:17:44Z</time><name>PT6154</name></trkpt>
<trkpt lat="53.103827" lon="06.019156"><ele>-1.3</ele><time>2021-05-12T12:17:45Z</time><name>PT6155</name></trkpt>
<trkpt lat="53.103823" lon="06.019137"><ele>-1.2</ele><time>2021-05-12T12:17:46Z</time><name>PT6156</name></trkpt>
<trkpt lat="53.103823" lon="06.019117"><ele>-1.1</ele><time>2021-05-12T12:17:47Z</time><name>PT6157</name></trkpt>
<trkpt lat="53.103823" lon="06.019102"><ele>-1.3</ele><time>2021-05-12T12:17:48Z</time><name>PT6158</name></trkpt>
<trkpt lat="53.103823" lon="06.019086"><ele>-1.4</ele><time>2021-05-12T12:17:49Z</time><name>PT6159</name></trkpt>
<trkpt lat="53.103822" lon="06.019072"><ele>-1.6</ele><time>2021-05-12T12:17:50Z</time><name>PT6160</name></trkpt>
<trkpt lat="53.103821" lon="06.019054"><ele>-1.6</ele><time>2021-05-12T12:17:51Z</time><name>PT6161</name></trkpt>
<trkpt lat="53.103819" lon="06.019036"><ele>-1.6</ele><time>2021-05-12T12:17:52Z</time><name>PT6162</name></trkpt>
<trkpt lat="53.103817" lon="06.019020"><ele>-1.7</ele><time>2021-05-12T12:17:53Z</time><name>PT6163</name></trkpt>
<trkpt lat="53.103814" lon="06.019006"><ele>-1.6</ele><time>2021-05-12T12:17:54Z</time><name>PT6164</name></trkpt>
<trkpt lat="53.103812" lon="06.018986"><ele>-1.7</ele><time>2021-05-12T12:17:55Z</time><name>PT6165</name></trkpt>
<trkpt lat="53.103809" lon="06.018972"><ele>-1.9</ele><time>2021-05-12T12:17:56Z</time><name>PT6166</name></trkpt>
<trkpt lat="53.103809" lon="06.018959"><ele>-2.1</ele><time>2021-05-12T12:17:57Z</time><name>PT6167</name></trkpt>
<trkpt lat="53.103811" lon="06.018938"><ele>-2.2</ele><time>2021-05-12T12:17:58Z</time><name>PT6168</name></trkpt>
<trkpt lat="53.103809" lon="06.018920"><ele>-2.3</ele><time>2021-05-12T12:17:59Z</time><name>PT6169</name></trkpt>
<trkpt lat="53.103808" lon="06.018888"><ele>-2.1</ele><time>2021-05-12T12:18:00Z</time><name>PT6170</name></trkpt>
<trkpt lat="53.103807" lon="06.018863"><ele>-2.1</ele><time>2021-05-12T12:18:01Z</time><name>PT6171</name></trkpt>
<trkpt lat="53.103805" lon="06.018842"><ele>-1.9</ele><time>2021-05-12T12:18:02Z</time><name>PT6172</name></trkpt>
<trkpt lat="53.103804" lon="06.018814"><ele>-1.7</ele><time>2021-05-12T12:18:03Z</time><name>PT6173</name></trkpt>
<trkpt lat="53.103804" lon="06.018788"><ele>-1.6</ele><time>2021-05-12T12:18:04Z</time><name>PT6174</name></trkpt>
<trkpt lat="53.103807" lon="06.018766"><ele>-1.6</ele><time>2021-05-12T12:18:05Z</time><name>PT6175</name></trkpt>
<trkpt lat="53.103805" lon="06.018747"><ele>-1.5</ele><time>2021-05-12T12:18:06Z</time><name>PT6176</name></trkpt>
<trkpt lat="53.103805" lon="06.018727"><ele>-1.5</ele><time>2021-05-12T12:18:07Z</time><name>PT6177</name></trkpt>
<trkpt lat="53.103804" lon="06.018705"><ele>-1.5</ele><time>2021-05-12T12:18:08Z</time><name>PT6178</name></trkpt>
<trkpt lat="53.103802" lon="06.018687"><ele>-1.6</ele><time>2021-05-12T12:18:09Z</time><name>PT6179</name></trkpt>
<trkpt lat="53.103799" lon="06.018663"><ele>-1.6</ele><time>2021-05-12T12:18:10Z</time><name>PT6180</name></trkpt>
<trkpt lat="53.103798" lon="06.018635"><ele>-1.7</ele><time>2021-05-12T12:18:11Z</time><name>PT6181</name></trkpt>
<trkpt lat="53.103796" lon="06.018611"><ele>-1.7</ele><time>2021-05-12T12:18:12Z</time><name>PT6182</name></trkpt>
<trkpt lat="53.103794" lon="06.018585"><ele>-1.7</ele><time>2021-05-12T12:18:13Z</time><name>PT6183</name></trkpt>
<trkpt lat="53.103790" lon="06.018561"><ele>-1.5</ele><time>2021-05-12T12:18:14Z</time><name>PT6184</name></trkpt>
<trkpt lat="53.103786" lon="06.018532"><ele>-1.3</ele><time>2021-05-12T12:18:15Z</time><name>PT6185</name></trkpt>
<trkpt lat="53.103784" lon="06.018510"><ele>-1.2</ele><time>2021-05-12T12:18:16Z</time><name>PT6186</name></trkpt>
<trkpt lat="53.103781" lon="06.018487"><ele>-1.2</ele><time>2021-05-12T12:18:17Z</time><name>PT6187</name></trkpt>
<trkpt lat="53.103781" lon="06.018469"><ele>-1.3</ele><time>2021-05-12T12:18:18Z</time><name>PT6188</name></trkpt>
<trkpt lat="53.103778" lon="06.018449"><ele>-1.5</ele><time>2021-05-12T12:18:19Z</time><name>PT6189</name></trkpt>
<trkpt lat="53.103776" lon="06.018428"><ele>-1.6</ele><time>2021-05-12T12:18:20Z</time><name>PT6190</name></trkpt>
<trkpt lat="53.103772" lon="06.018409"><ele>-1.4</ele><time>2021-05-12T12:18:21Z</time><name>PT6191</name></trkpt>
<trkpt lat="53.103766" lon="06.018382"><ele>-1.6</ele><time>2021-05-12T12:18:22Z</time><name>PT6192</name></trkpt>
<trkpt lat="53.103759" lon="06.018353"><ele>-1.6</ele><time>2021-05-12T12:18:23Z</time><name>PT6193</name></trkpt>
<trkpt lat="53.103757" lon="06.018332"><ele>-1.6</ele><time>2021-05-12T12:18:24Z</time><name>PT6194</name></trkpt>
<trkpt lat="53.103755" lon="06.018311"><ele>-1.6</ele><time>2021-05-12T12:18:25Z</time><name>PT6195</name></trkpt>
<trkpt lat="53.103753" lon="06.018291"><ele>-1.9</ele><time>2021-05-12T12:18:26Z</time><name>PT6196</name></trkpt>
<trkpt lat="53.103750" lon="06.018267"><ele>-1.9</ele><time>2021-05-12T12:18:27Z</time><name>PT6197</name></trkpt>
<trkpt lat="53.103750" lon="06.018245"><ele>-1.8</ele><time>2021-05-12T12:18:28Z</time><name>PT6198</name></trkpt>
<trkpt lat="53.103750" lon="06.018222"><ele>-1.6</ele><time>2021-05-12T12:18:29Z</time><name>PT6199</name></trkpt>
<trkpt lat="53.103748" lon="06.018205"><ele>-1.6</ele><time>2021-05-12T12:18:30Z</time><name>PT6200</name></trkpt>
<trkpt lat="53.103744" lon="06.018183"><ele>-1.6</ele><time>2021-05-12T12:18:31Z</time><name>PT6201</name></trkpt>
<trkpt lat="53.103742" lon="06.018161"><ele>-1.2</ele><time>2021-05-12T12:18:32Z</time><name>PT6202</name></trkpt>
<trkpt lat="53.103742" lon="06.018150"><ele>-1.2</ele><time>2021-05-12T12:18:33Z</time><name>PT6203</name></trkpt>
<trkpt lat="53.103742" lon="06.018133"><ele>-1.2</ele><time>2021-05-12T12:18:34Z</time><name>PT6204</name></trkpt>
<trkpt lat="53.103745" lon="06.018117"><ele>-1.3</ele><time>2021-05-12T12:18:35Z</time><name>PT6205</name></trkpt>
<trkpt lat="53.103746" lon="06.018104"><ele>-1.5</ele><time>2021-05-12T12:18:36Z</time><name>PT6206</name></trkpt>
<trkpt lat="53.103743" lon="06.018094"><ele>-1.6</ele><time>2021-05-12T12:18:37Z</time><name>PT6207</name></trkpt>
<trkpt lat="53.103745" lon="06.018085"><ele>-1.6</ele><time>2021-05-12T12:18:38Z</time><name>PT6208</name></trkpt>
<trkpt lat="53.103747" lon="06.018075"><ele>-1.8</ele><time>2021-05-12T12:18:39Z</time><name>PT6209</name></trkpt>
<trkpt lat="53.103745" lon="06.018059"><ele>-1.8</ele><time>2021-05-12T12:18:40Z</time><name>PT6210</name></trkpt>
<trkpt lat="53.103747" lon="06.018049"><ele>-1.7</ele><time>2021-05-12T12:18:41Z</time><name>PT6211</name></trkpt>
<trkpt lat="53.103747" lon="06.018036"><ele>-1.6</ele><time>2021-05-12T12:18:42Z</time><name>PT6212</name></trkpt>
<trkpt lat="53.103747" lon="06.018026"><ele>-1.4</ele><time>2021-05-12T12:18:43Z</time><name>PT6213</name></trkpt>
<trkpt lat="53.103746" lon="06.018016"><ele>-1.1</ele><time>2021-05-12T12:18:44Z</time><name>PT6214</name></trkpt>
<trkpt lat="53.103745" lon="06.018006"><ele>-1.1</ele><time>2021-05-12T12:18:45Z</time><name>PT6215</name></trkpt>
<trkpt lat="53.103749" lon="06.017999"><ele>-1.1</ele><time>2021-05-12T12:18:46Z</time><name>PT6216</name></trkpt>
<trkpt lat="53.103753" lon="06.017987"><ele>-1.2</ele><time>2021-05-12T12:18:47Z</time><name>PT6217</name></trkpt>
<trkpt lat="53.103755" lon="06.017984"><ele>-1.2</ele><time>2021-05-12T12:18:48Z</time><name>PT6218</name></trkpt>
<trkpt lat="53.103755" lon="06.017983"><ele>-1.2</ele><time>2021-05-12T12:18:49Z</time><name>PT6219</name></trkpt>
<trkpt lat="53.103756" lon="06.017983"><ele>-1.1</ele><time>2021-05-12T12:18:50Z</time><name>PT6220</name></trkpt>
<trkpt lat="53.103757" lon="06.017985"><ele>-1.1</ele><time>2021-05-12T12:18:51Z</time><name>PT6221</name></trkpt>
<trkpt lat="53.103757" lon="06.017986"><ele>-1.2</ele><time>2021-05-12T12:18:52Z</time><name>PT6222</name></trkpt>
<trkpt lat="53.103762" lon="06.017988"><ele>0.7</ele><time>2021-05-12T12:19:11Z</time><name>PT6223</name></trkpt>
<trkpt lat="53.103768" lon="06.017994"><ele>0.6</ele><time>2021-05-12T12:19:12Z</time><name>PT6224</name></trkpt>
<trkpt lat="53.103771" lon="06.017991"><ele>0.6</ele><time>2021-05-12T12:19:13Z</time><name>PT6225</name></trkpt>
<trkpt lat="53.103775" lon="06.017995"><ele>0.6</ele><time>2021-05-12T12:19:14Z</time><name>PT6226</name></trkpt>
<trkpt lat="53.103774" lon="06.017990"><ele>0.7</ele><time>2021-05-12T12:19:23Z</time><name>PT6227</name></trkpt>
<trkpt lat="53.103775" lon="06.017990"><ele>0.8</ele><time>2021-05-12T12:19:24Z</time><name>PT6228</name></trkpt>
<trkpt lat="53.103782" lon="06.017987"><ele>0.7</ele><time>2021-05-12T12:19:25Z</time><name>PT6229</name></trkpt>
<trkpt lat="53.103784" lon="06.017987"><ele>0.5</ele><time>2021-05-12T12:19:26Z</time><name>PT6230</name></trkpt>
<trkpt lat="53.103788" lon="06.017965"><ele>0.4</ele><time>2021-05-12T12:19:32Z</time><name>PT6231</name></trkpt>
<trkpt lat="53.103790" lon="06.017961"><ele>0.3</ele><time>2021-05-12T12:19:33Z</time><name>PT6232</name></trkpt>
<trkpt lat="53.103795" lon="06.017960"><ele>0.3</ele><time>2021-05-12T12:19:34Z</time><name>PT6233</name></trkpt>
<trkpt lat="53.103801" lon="06.017960"><ele>0.4</ele><time>2021-05-12T12:21:47Z</time><name>PT6234</name></trkpt>
<trkpt lat="53.103804" lon="06.017957"><ele>0.5</ele><time>2021-05-12T12:21:48Z</time><name>PT6235</name></trkpt>
<trkpt lat="53.103802" lon="06.017964"><ele>0.6</ele><time>2021-05-12T12:22:08Z</time><name>PT6236</name></trkpt>
<trkpt lat="53.103799" lon="06.017977"><ele>0.6</ele><time>2021-05-12T12:22:09Z</time><name>PT6237</name></trkpt>
<trkpt lat="53.103792" lon="06.017989"><ele>0.5</ele><time>2021-05-12T12:22:10Z</time><name>PT6238</name></trkpt>
<trkpt lat="53.103790" lon="06.017996"><ele>0.4</ele><time>2021-05-12T12:22:11Z</time><name>PT6239</name></trkpt>
<trkpt lat="53.103790" lon="06.018001"><ele>0.4</ele><time>2021-05-12T12:22:12Z</time><name>PT6240</name></trkpt>
<trkpt lat="53.103795" lon="06.017989"><ele>0.9</ele><time>2021-05-12T12:23:14Z</time><name>PT6241</name></trkpt>
<trkpt lat="53.103799" lon="06.017971"><ele>0.8</ele><time>2021-05-12T12:23:15Z</time><name>PT6242</name></trkpt>
<trkpt lat="53.103798" lon="06.017956"><ele>0.9</ele><time>2021-05-12T12:23:16Z</time><name>PT6243</name></trkpt>
<trkpt lat="53.103794" lon="06.017938"><ele>0.7</ele><time>2021-05-12T12:23:17Z</time><name>PT6244</name></trkpt>
<trkpt lat="53.103794" lon="06.017920"><ele>-1.1</ele><time>2021-05-12T12:23:18Z</time><name>PT6245</name></trkpt>
<trkpt lat="53.103792" lon="06.017901"><ele>-1.1</ele><time>2021-05-12T12:23:19Z</time><name>PT6246</name></trkpt>
<trkpt lat="53.103791" lon="06.017888"><ele>-1.1</ele><time>2021-05-12T12:23:20Z</time><name>PT6247</name></trkpt>
<trkpt lat="53.103782" lon="06.017872"><ele>-1.4</ele><time>2021-05-12T12:23:21Z</time><name>PT6248</name></trkpt>
<trkpt lat="53.103776" lon="06.017852"><ele>-1.4</ele><time>2021-05-12T12:23:22Z</time><name>PT6249</name></trkpt>
<trkpt lat="53.103770" lon="06.017836"><ele>-1.3</ele><time>2021-05-12T12:23:23Z</time><name>PT6250</name></trkpt>
<trkpt lat="53.103768" lon="06.017818"><ele>-1.3</ele><time>2021-05-12T12:23:24Z</time><name>PT6251</name></trkpt>
<trkpt lat="53.103764" lon="06.017797"><ele>-1.1</ele><time>2021-05-12T12:23:25Z</time><name>PT6252</name></trkpt>
<trkpt lat="53.103762" lon="06.017772"><ele>-1.1</ele><time>2021-05-12T12:23:26Z</time><name>PT6253</name></trkpt>
<trkpt lat="53.103761" lon="06.017753"><ele>-1.1</ele><time>2021-05-12T12:23:27Z</time><name>PT6254</name></trkpt>
<trkpt lat="53.103758" lon="06.017734"><ele>-1.1</ele><time>2021-05-12T12:23:28Z</time><name>PT6255</name></trkpt>
<trkpt lat="53.103754" lon="06.017715"><ele>-1.2</ele><time>2021-05-12T12:23:29Z</time><name>PT6256</name></trkpt>
<trkpt lat="53.103749" lon="06.017697"><ele>-1</ele><time>2021-05-12T12:23:30Z</time><name>PT6257</name></trkpt>
<trkpt lat="53.103745" lon="06.017678"><ele>-1.1</ele><time>2021-05-12T12:23:31Z</time><name>PT6258</name></trkpt>
<trkpt lat="53.103742" lon="06.017659"><ele>-1.1</ele><time>2021-05-12T12:23:32Z</time><name>PT6259</name></trkpt>
<trkpt lat="53.103738" lon="06.017637"><ele>0.9</ele><time>2021-05-12T12:23:33Z</time><name>PT6260</name></trkpt>
<trkpt lat="53.103736" lon="06.017619"><ele>0.8</ele><time>2021-05-12T12:23:34Z</time><name>PT6261</name></trkpt>
<trkpt lat="53.103733" lon="06.017602"><ele>0.8</ele><time>2021-05-12T12:23:35Z</time><name>PT6262</name></trkpt>
<trkpt lat="53.103729" lon="06.017584"><ele>0.8</ele><time>2021-05-12T12:23:36Z</time><name>PT6263</name></trkpt>
<trkpt lat="53.103723" lon="06.017566"><ele>0.9</ele><time>2021-05-12T12:23:37Z</time><name>PT6264</name></trkpt>
<trkpt lat="53.103719" lon="06.017547"><ele>-1</ele><time>2021-05-12T12:23:38Z</time><name>PT6265</name></trkpt>
<trkpt lat="53.103716" lon="06.017529"><ele>-1.1</ele><time>2021-05-12T12:23:39Z</time><name>PT6266</name></trkpt>
<trkpt lat="53.103711" lon="06.017512"><ele>-1.3</ele><time>2021-05-12T12:23:40Z</time><name>PT6267</name></trkpt>
<trkpt lat="53.103706" lon="06.017497"><ele>-1.4</ele><time>2021-05-12T12:23:41Z</time><name>PT6268</name></trkpt>
<trkpt lat="53.103698" lon="06.017482"><ele>-1.6</ele><time>2021-05-12T12:23:42Z</time><name>PT6269</name></trkpt>
<trkpt lat="53.103690" lon="06.017466"><ele>-1.5</ele><time>2021-05-12T12:23:43Z</time><name>PT6270</name></trkpt>
<trkpt lat="53.103681" lon="06.017452"><ele>-1.4</ele><time>2021-05-12T12:23:44Z</time><name>PT6271</name></trkpt>
<trkpt lat="53.103672" lon="06.017437"><ele>-1.4</ele><time>2021-05-12T12:23:45Z</time><name>PT6272</name></trkpt>
<trkpt lat="53.103664" lon="06.017422"><ele>-1.3</ele><time>2021-05-12T12:23:46Z</time><name>PT6273</name></trkpt>
<trkpt lat="53.103659" lon="06.017409"><ele>-1.2</ele><time>2021-05-12T12:23:47Z</time><name>PT6274</name></trkpt>
<trkpt lat="53.103656" lon="06.017396"><ele>-1.4</ele><time>2021-05-12T12:23:48Z</time><name>PT6275</name></trkpt>
<trkpt lat="53.103653" lon="06.017380"><ele>-1.6</ele><time>2021-05-12T12:23:49Z</time><name>PT6276</name></trkpt>
<trkpt lat="53.103649" lon="06.017362"><ele>-1.5</ele><time>2021-05-12T12:23:50Z</time><name>PT6277</name></trkpt>
<trkpt lat="53.103648" lon="06.017348"><ele>-1.4</ele><time>2021-05-12T12:23:51Z</time><name>PT6278</name></trkpt>
<trkpt lat="53.103645" lon="06.017342"><ele>-1.3</ele><time>2021-05-12T12:23:52Z</time><name>PT6279</name></trkpt>
<trkpt lat="53.103642" lon="06.017339"><ele>-1.1</ele><time>2021-05-12T12:23:53Z</time><name>PT6280</name></trkpt>
<trkpt lat="53.103644" lon="06.017339"><ele>0.9</ele><time>2021-05-12T12:23:54Z</time><name>PT6281</name></trkpt>
<trkpt lat="53.103643" lon="06.017337"><ele>0.8</ele><time>2021-05-12T12:23:55Z</time><name>PT6282</name></trkpt>
<trkpt lat="53.103643" lon="06.017334"><ele>0.6</ele><time>2021-05-12T12:23:56Z</time><name>PT6283</name></trkpt>
<trkpt lat="53.103645" lon="06.017331"><ele>0.6</ele><time>2021-05-12T12:24:11Z</time><name>PT6284</name></trkpt>
<trkpt lat="53.103647" lon="06.017325"><ele>0.5</ele><time>2021-05-12T12:24:12Z</time><name>PT6285</name></trkpt>
<trkpt lat="53.103649" lon="06.017326"><ele>0.6</ele><time>2021-05-12T12:24:13Z</time><name>PT6286</name></trkpt>
<trkpt lat="53.103649" lon="06.017317"><ele>0.4</ele><time>2021-05-12T12:24:16Z</time><name>PT6287</name></trkpt>
<trkpt lat="53.103635" lon="06.017296"><ele>0.6</ele><time>2021-05-12T12:24:17Z</time><name>PT6288</name></trkpt>
<trkpt lat="53.103625" lon="06.017280"><ele>0.6</ele><time>2021-05-12T12:24:18Z</time><name>PT6289</name></trkpt>
<trkpt lat="53.103617" lon="06.017264"><ele>-1</ele><time>2021-05-12T12:24:19Z</time><name>PT6290</name></trkpt>
<trkpt lat="53.103610" lon="06.017241"><ele>-1.2</ele><time>2021-05-12T12:24:20Z</time><name>PT6291</name></trkpt>
<trkpt lat="53.103600" lon="06.017224"><ele>-1.3</ele><time>2021-05-12T12:24:21Z</time><name>PT6292</name></trkpt>
<trkpt lat="53.103592" lon="06.017204"><ele>-1.5</ele><time>2021-05-12T12:24:22Z</time><name>PT6293</name></trkpt>
<trkpt lat="53.103584" lon="06.017186"><ele>-1.7</ele><time>2021-05-12T12:24:23Z</time><name>PT6294</name></trkpt>
<trkpt lat="53.103577" lon="06.017169"><ele>-1.6</ele><time>2021-05-12T12:24:24Z</time><name>PT6295</name></trkpt>
<trkpt lat="53.103571" lon="06.017151"><ele>-1.6</ele><time>2021-05-12T12:24:25Z</time><name>PT6296</name></trkpt>
<trkpt lat="53.103564" lon="06.017130"><ele>-1.6</ele><time>2021-05-12T12:24:26Z</time><name>PT6297</name></trkpt>
<trkpt lat="53.103558" lon="06.017110"><ele>-1.7</ele><time>2021-05-12T12:24:27Z</time><name>PT6298</name></trkpt>
<trkpt lat="53.103551" lon="06.017093"><ele>-1.5</ele><time>2021-05-12T12:24:28Z</time><name>PT6299</name></trkpt>
<trkpt lat="53.103545" lon="06.017076"><ele>-1.6</ele><time>2021-05-12T12:24:29Z</time><name>PT6300</name></trkpt>
<trkpt lat="53.103539" lon="06.017060"><ele>-1.6</ele><time>2021-05-12T12:24:30Z</time><name>PT6301</name></trkpt>
<trkpt lat="53.103534" lon="06.017046"><ele>-1.6</ele><time>2021-05-12T12:24:31Z</time><name>PT6302</name></trkpt>
<trkpt lat="53.103527" lon="06.017030"><ele>-1.7</ele><time>2021-05-12T12:24:32Z</time><name>PT6303</name></trkpt>
<trkpt lat="53.103519" lon="06.017014"><ele>-1.7</ele><time>2021-05-12T12:24:33Z</time><name>PT6304</name></trkpt>
<trkpt lat="53.103512" lon="06.016997"><ele>-1.6</ele><time>2021-05-12T12:24:34Z</time><name>PT6305</name></trkpt>
<trkpt lat="53.103503" lon="06.016981"><ele>-1.6</ele><time>2021-05-12T12:24:35Z</time><name>PT6306</name></trkpt>
<trkpt lat="53.103498" lon="06.016969"><ele>-1.5</ele><time>2021-05-12T12:24:36Z</time><name>PT6307</name></trkpt>
<trkpt lat="53.103493" lon="06.016954"><ele>-1.6</ele><time>2021-05-12T12:24:37Z</time><name>PT6308</name></trkpt>
<trkpt lat="53.103489" lon="06.016937"><ele>-1.6</ele><time>2021-05-12T12:24:38Z</time><name>PT6309</name></trkpt>
<trkpt lat="53.103483" lon="06.016920"><ele>-1.6</ele><time>2021-05-12T12:24:39Z</time><name>PT6310</name></trkpt>
<trkpt lat="53.103477" lon="06.016904"><ele>-1.8</ele><time>2021-05-12T12:24:40Z</time><name>PT6311</name></trkpt>
<trkpt lat="53.103473" lon="06.016886"><ele>-1.8</ele><time>2021-05-12T12:24:41Z</time><name>PT6312</name></trkpt>
<trkpt lat="53.103468" lon="06.016869"><ele>-1.8</ele><time>2021-05-12T12:24:42Z</time><name>PT6313</name></trkpt>
<trkpt lat="53.103462" lon="06.016852"><ele>-1.8</ele><time>2021-05-12T12:24:43Z</time><name>PT6314</name></trkpt>
<trkpt lat="53.103455" lon="06.016834"><ele>-1.9</ele><time>2021-05-12T12:24:44Z</time><name>PT6315</name></trkpt>
<trkpt lat="53.103448" lon="06.016816"><ele>-1.8</ele><time>2021-05-12T12:24:45Z</time><name>PT6316</name></trkpt>
<trkpt lat="53.103442" lon="06.016797"><ele>-2.1</ele><time>2021-05-12T12:24:46Z</time><name>PT6317</name></trkpt>
<trkpt lat="53.103435" lon="06.016779"><ele>-2.2</ele><time>2021-05-12T12:24:47Z</time><name>PT6318</name></trkpt>
<trkpt lat="53.103428" lon="06.016763"><ele>-2.2</ele><time>2021-05-12T12:24:48Z</time><name>PT6319</name></trkpt>
<trkpt lat="53.103422" lon="06.016747"><ele>-2.3</ele><time>2021-05-12T12:24:49Z</time><name>PT6320</name></trkpt>
<trkpt lat="53.103415" lon="06.016732"><ele>-2.2</ele><time>2021-05-12T12:24:50Z</time><name>PT6321</name></trkpt>
<trkpt lat="53.103410" lon="06.016717"><ele>-2.3</ele><time>2021-05-12T12:24:51Z</time><name>PT6322</name></trkpt>
<trkpt lat="53.103406" lon="06.016702"><ele>-2.1</ele><time>2021-05-12T12:24:52Z</time><name>PT6323</name></trkpt>
<trkpt lat="53.103401" lon="06.016686"><ele>-2.2</ele><time>2021-05-12T12:24:53Z</time><name>PT6324</name></trkpt>
<trkpt lat="53.103395" lon="06.016670"><ele>-2.3</ele><time>2021-05-12T12:24:54Z</time><name>PT6325</name></trkpt>
<trkpt lat="53.103390" lon="06.016653"><ele>-2.2</ele><time>2021-05-12T12:24:55Z</time><name>PT6326</name></trkpt>
<trkpt lat="53.103385" lon="06.016633"><ele>-2.2</ele><time>2021-05-12T12:24:56Z</time><name>PT6327</name></trkpt>
<trkpt lat="53.103380" lon="06.016616"><ele>-2.1</ele><time>2021-05-12T12:24:57Z</time><name>PT6328</name></trkpt>
<trkpt lat="53.103375" lon="06.016598"><ele>-2.1</ele><time>2021-05-12T12:24:58Z</time><name>PT6329</name></trkpt>
<trkpt lat="53.103369" lon="06.016582"><ele>-2.1</ele><time>2021-05-12T12:24:59Z</time><name>PT6330</name></trkpt>
<trkpt lat="53.103364" lon="06.016567"><ele>-2.1</ele><time>2021-05-12T12:25:00Z</time><name>PT6331</name></trkpt>
<trkpt lat="53.103357" lon="06.016551"><ele>-2.2</ele><time>2021-05-12T12:25:01Z</time><name>PT6332</name></trkpt>
<trkpt lat="53.103351" lon="06.016539"><ele>-2.2</ele><time>2021-05-12T12:25:02Z</time><name>PT6333</name></trkpt>
<trkpt lat="53.103346" lon="06.016526"><ele>-2.1</ele><time>2021-05-12T12:25:03Z</time><name>PT6334</name></trkpt>
<trkpt lat="53.103340" lon="06.016510"><ele>-2</ele><time>2021-05-12T12:25:04Z</time><name>PT6335</name></trkpt>
<trkpt lat="53.103334" lon="06.016492"><ele>-2.1</ele><time>2021-05-12T12:25:05Z</time><name>PT6336</name></trkpt>
<trkpt lat="53.103328" lon="06.016472"><ele>-2.1</ele><time>2021-05-12T12:25:06Z</time><name>PT6337</name></trkpt>
<trkpt lat="53.103323" lon="06.016453"><ele>-2.2</ele><time>2021-05-12T12:25:07Z</time><name>PT6338</name></trkpt>
<trkpt lat="53.103317" lon="06.016434"><ele>-2.3</ele><time>2021-05-12T12:25:08Z</time><name>PT6339</name></trkpt>
<trkpt lat="53.103310" lon="06.016413"><ele>-2.5</ele><time>2021-05-12T12:25:09Z</time><name>PT6340</name></trkpt>
<trkpt lat="53.103305" lon="06.016397"><ele>-2.6</ele><time>2021-05-12T12:25:10Z</time><name>PT6341</name></trkpt>
<trkpt lat="53.103299" lon="06.016378"><ele>-2.7</ele><time>2021-05-12T12:25:11Z</time><name>PT6342</name></trkpt>
<trkpt lat="53.103293" lon="06.016362"><ele>-2.7</ele><time>2021-05-12T12:25:12Z</time><name>PT6343</name></trkpt>
<trkpt lat="53.103287" lon="06.016345"><ele>-2.7</ele><time>2021-05-12T12:25:13Z</time><name>PT6344</name></trkpt>
<trkpt lat="53.103280" lon="06.016327"><ele>-2.6</ele><time>2021-05-12T12:25:14Z</time><name>PT6345</name></trkpt>
<trkpt lat="53.103273" lon="06.016310"><ele>-2.6</ele><time>2021-05-12T12:25:15Z</time><name>PT6346</name></trkpt>
<trkpt lat="53.103267" lon="06.016293"><ele>-2.6</ele><time>2021-05-12T12:25:16Z</time><name>PT6347</name></trkpt>
<trkpt lat="53.103260" lon="06.016275"><ele>-2.3</ele><time>2021-05-12T12:25:17Z</time><name>PT6348</name></trkpt>
<trkpt lat="53.103252" lon="06.016258"><ele>-2.4</ele><time>2021-05-12T12:25:18Z</time><name>PT6349</name></trkpt>
<trkpt lat="53.103245" lon="06.016242"><ele>-2.5</ele><time>2021-05-12T12:25:19Z</time><name>PT6350</name></trkpt>
<trkpt lat="53.103238" lon="06.016226"><ele>-2.6</ele><time>2021-05-12T12:25:20Z</time><name>PT6351</name></trkpt>
<trkpt lat="53.103232" lon="06.016210"><ele>-2.6</ele><time>2021-05-12T12:25:21Z</time><name>PT6352</name></trkpt>
<trkpt lat="53.103227" lon="06.016194"><ele>-2.9</ele><time>2021-05-12T12:25:22Z</time><name>PT6353</name></trkpt>
<trkpt lat="53.103221" lon="06.016177"><ele>-2.9</ele><time>2021-05-12T12:25:23Z</time><name>PT6354</name></trkpt>
<trkpt lat="53.103217" lon="06.016161"><ele>-2.9</ele><time>2021-05-12T12:25:24Z</time><name>PT6355</name></trkpt>
<trkpt lat="53.103212" lon="06.016146"><ele>-2.6</ele><time>2021-05-12T12:25:25Z</time><name>PT6356</name></trkpt>
<trkpt lat="53.103207" lon="06.016127"><ele>-2.5</ele><time>2021-05-12T12:25:26Z</time><name>PT6357</name></trkpt>
<trkpt lat="53.103199" lon="06.016108"><ele>-2.4</ele><time>2021-05-12T12:25:27Z</time><name>PT6358</name></trkpt>
<trkpt lat="53.103193" lon="06.016090"><ele>-2.3</ele><time>2021-05-12T12:25:28Z</time><name>PT6359</name></trkpt>
<trkpt lat="53.103186" lon="06.016071"><ele>-2.2</ele><time>2021-05-12T12:25:29Z</time><name>PT6360</name></trkpt>
<trkpt lat="53.103180" lon="06.016054"><ele>-2.3</ele><time>2021-05-12T12:25:30Z</time><name>PT6361</name></trkpt>
<trkpt lat="53.103173" lon="06.016037"><ele>-2.3</ele><time>2021-05-12T12:25:31Z</time><name>PT6362</name></trkpt>
<trkpt lat="53.103167" lon="06.016018"><ele>-2.1</ele><time>2021-05-12T12:25:32Z</time><name>PT6363</name></trkpt>
<trkpt lat="53.103161" lon="06.016000"><ele>-2.1</ele><time>2021-05-12T12:25:33Z</time><name>PT6364</name></trkpt>
<trkpt lat="53.103154" lon="06.015984"><ele>-2.1</ele><time>2021-05-12T12:25:34Z</time><name>PT6365</name></trkpt>
<trkpt lat="53.103147" lon="06.015968"><ele>-2.1</ele><time>2021-05-12T12:25:35Z</time><name>PT6366</name></trkpt>
<trkpt lat="53.103139" lon="06.015951"><ele>-2.2</ele><time>2021-05-12T12:25:36Z</time><name>PT6367</name></trkpt>
<trkpt lat="53.103131" lon="06.015935"><ele>-2.2</ele><time>2021-05-12T12:25:37Z</time><name>PT6368</name></trkpt>
<trkpt lat="53.103124" lon="06.015919"><ele>-2.4</ele><time>2021-05-12T12:25:38Z</time><name>PT6369</name></trkpt>
<trkpt lat="53.103118" lon="06.015903"><ele>-2.2</ele><time>2021-05-12T12:25:39Z</time><name>PT6370</name></trkpt>
<trkpt lat="53.103111" lon="06.015887"><ele>-2.1</ele><time>2021-05-12T12:25:40Z</time><name>PT6371</name></trkpt>
<trkpt lat="53.103106" lon="06.015872"><ele>-2.1</ele><time>2021-05-12T12:25:41Z</time><name>PT6372</name></trkpt>
<trkpt lat="53.103100" lon="06.015856"><ele>-2.2</ele><time>2021-05-12T12:25:42Z</time><name>PT6373</name></trkpt>
<trkpt lat="53.103095" lon="06.015840"><ele>-2.2</ele><time>2021-05-12T12:25:43Z</time><name>PT6374</name></trkpt>
<trkpt lat="53.103090" lon="06.015822"><ele>-2.3</ele><time>2021-05-12T12:25:44Z</time><name>PT6375</name></trkpt>
<trkpt lat="53.103085" lon="06.015802"><ele>-2.5</ele><time>2021-05-12T12:25:45Z</time><name>PT6376</name></trkpt>
<trkpt lat="53.103079" lon="06.015783"><ele>-2.6</ele><time>2021-05-12T12:25:46Z</time><name>PT6377</name></trkpt>
<trkpt lat="53.103074" lon="06.015765"><ele>-2.6</ele><time>2021-05-12T12:25:47Z</time><name>PT6378</name></trkpt>
<trkpt lat="53.103069" lon="06.015749"><ele>-2.6</ele><time>2021-05-12T12:25:48Z</time><name>PT6379</name></trkpt>
<trkpt lat="53.103064" lon="06.015732"><ele>-2.6</ele><time>2021-05-12T12:25:49Z</time><name>PT6380</name></trkpt>
<trkpt lat="53.103059" lon="06.015715"><ele>-2.5</ele><time>2021-05-12T12:25:50Z</time><name>PT6381</name></trkpt>
<trkpt lat="53.103052" lon="06.015698"><ele>-2.4</ele><time>2021-05-12T12:25:51Z</time><name>PT6382</name></trkpt>
<trkpt lat="53.103045" lon="06.015682"><ele>-2.3</ele><time>2021-05-12T12:25:52Z</time><name>PT6383</name></trkpt>
<trkpt lat="53.103037" lon="06.015664"><ele>-2.1</ele><time>2021-05-12T12:25:53Z</time><name>PT6384</name></trkpt>
<trkpt lat="53.103031" lon="06.015647"><ele>-2.1</ele><time>2021-05-12T12:25:54Z</time><name>PT6385</name></trkpt>
<trkpt lat="53.103026" lon="06.015630"><ele>-1.9</ele><time>2021-05-12T12:25:55Z</time><name>PT6386</name></trkpt>
<trkpt lat="53.103019" lon="06.015613"><ele>-2</ele><time>2021-05-12T12:25:56Z</time><name>PT6387</name></trkpt>
<trkpt lat="53.103014" lon="06.015595"><ele>-1.9</ele><time>2021-05-12T12:25:57Z</time><name>PT6388</name></trkpt>
<trkpt lat="53.103009" lon="06.015576"><ele>-2.1</ele><time>2021-05-12T12:25:58Z</time><name>PT6389</name></trkpt>
<trkpt lat="53.103005" lon="06.015556"><ele>-2</ele><time>2021-05-12T12:25:59Z</time><name>PT6390</name></trkpt>
<trkpt lat="53.103000" lon="06.015537"><ele>-2.1</ele><time>2021-05-12T12:26:00Z</time><name>PT6391</name></trkpt>
<trkpt lat="53.102995" lon="06.015517"><ele>-2.1</ele><time>2021-05-12T12:26:01Z</time><name>PT6392</name></trkpt>
<trkpt lat="53.102989" lon="06.015497"><ele>-2</ele><time>2021-05-12T12:26:02Z</time><name>PT6393</name></trkpt>
<trkpt lat="53.102983" lon="06.015478"><ele>-2</ele><time>2021-05-12T12:26:03Z</time><name>PT6394</name></trkpt>
<trkpt lat="53.102977" lon="06.015460"><ele>-2.1</ele><time>2021-05-12T12:26:04Z</time><name>PT6395</name></trkpt>
<trkpt lat="53.102970" lon="06.015443"><ele>-2.1</ele><time>2021-05-12T12:26:05Z</time><name>PT6396</name></trkpt>
<trkpt lat="53.102964" lon="06.015425"><ele>-2</ele><time>2021-05-12T12:26:06Z</time><name>PT6397</name></trkpt>
<trkpt lat="53.102958" lon="06.015408"><ele>-2.1</ele><time>2021-05-12T12:26:07Z</time><name>PT6398</name></trkpt>
<trkpt lat="53.102951" lon="06.015392"><ele>-2.1</ele><time>2021-05-12T12:26:08Z</time><name>PT6399</name></trkpt>
<trkpt lat="53.102944" lon="06.015375"><ele>-2.1</ele><time>2021-05-12T12:26:09Z</time><name>PT6400</name></trkpt>
<trkpt lat="53.102937" lon="06.015357"><ele>-2.1</ele><time>2021-05-12T12:26:10Z</time><name>PT6401</name></trkpt>
<trkpt lat="53.102932" lon="06.015340"><ele>-2.1</ele><time>2021-05-12T12:26:11Z</time><name>PT6402</name></trkpt>
<trkpt lat="53.102927" lon="06.015321"><ele>-2.1</ele><time>2021-05-12T12:26:12Z</time><name>PT6403</name></trkpt>
<trkpt lat="53.102922" lon="06.015301"><ele>-2.1</ele><time>2021-05-12T12:26:13Z</time><name>PT6404</name></trkpt>
<trkpt lat="53.102917" lon="06.015282"><ele>-2.1</ele><time>2021-05-12T12:26:14Z</time><name>PT6405</name></trkpt>
<trkpt lat="53.102912" lon="06.015262"><ele>-2.1</ele><time>2021-05-12T12:26:15Z</time><name>PT6406</name></trkpt>
<trkpt lat="53.102907" lon="06.015242"><ele>-2.3</ele><time>2021-05-12T12:26:16Z</time><name>PT6407</name></trkpt>
<trkpt lat="53.102902" lon="06.015222"><ele>-2.3</ele><time>2021-05-12T12:26:17Z</time><name>PT6408</name></trkpt>
<trkpt lat="53.102896" lon="06.015202"><ele>-2.5</ele><time>2021-05-12T12:26:18Z</time><name>PT6409</name></trkpt>
<trkpt lat="53.102891" lon="06.015184"><ele>-2.3</ele><time>2021-05-12T12:26:19Z</time><name>PT6410</name></trkpt>
<trkpt lat="53.102885" lon="06.015167"><ele>-2.3</ele><time>2021-05-12T12:26:20Z</time><name>PT6411</name></trkpt>
<trkpt lat="53.102880" lon="06.015151"><ele>-2.4</ele><time>2021-05-12T12:26:21Z</time><name>PT6412</name></trkpt>
<trkpt lat="53.102874" lon="06.015135"><ele>-2.3</ele><time>2021-05-12T12:26:22Z</time><name>PT6413</name></trkpt>
<trkpt lat="53.102867" lon="06.015117"><ele>-2.2</ele><time>2021-05-12T12:26:23Z</time><name>PT6414</name></trkpt>
<trkpt lat="53.102862" lon="06.015100"><ele>-2.3</ele><time>2021-05-12T12:26:24Z</time><name>PT6415</name></trkpt>
<trkpt lat="53.102856" lon="06.015084"><ele>-2.1</ele><time>2021-05-12T12:26:25Z</time><name>PT6416</name></trkpt>
<trkpt lat="53.102848" lon="06.015066"><ele>-2.3</ele><time>2021-05-12T12:26:26Z</time><name>PT6417</name></trkpt>
<trkpt lat="53.102841" lon="06.015050"><ele>-2.4</ele><time>2021-05-12T12:26:27Z</time><name>PT6418</name></trkpt>
<trkpt lat="53.102833" lon="06.015036"><ele>-2.3</ele><time>2021-05-12T12:26:28Z</time><name>PT6419</name></trkpt>
<trkpt lat="53.102827" lon="06.015021"><ele>-2.3</ele><time>2021-05-12T12:26:29Z</time><name>PT6420</name></trkpt>
<trkpt lat="53.102822" lon="06.015007"><ele>-2.2</ele><time>2021-05-12T12:26:30Z</time><name>PT6421</name></trkpt>
<trkpt lat="53.102817" lon="06.014989"><ele>-2.1</ele><time>2021-05-12T12:26:31Z</time><name>PT6422</name></trkpt>
<trkpt lat="53.102812" lon="06.014971"><ele>-2.1</ele><time>2021-05-12T12:26:32Z</time><name>PT6423</name></trkpt>
<trkpt lat="53.102806" lon="06.014953"><ele>-2.1</ele><time>2021-05-12T12:26:33Z</time><name>PT6424</name></trkpt>
<trkpt lat="53.102800" lon="06.014932"><ele>-2.1</ele><time>2021-05-12T12:26:34Z</time><name>PT6425</name></trkpt>
<trkpt lat="53.102795" lon="06.014913"><ele>-2.2</ele><time>2021-05-12T12:26:35Z</time><name>PT6426</name></trkpt>
<trkpt lat="53.102789" lon="06.014895"><ele>-2.3</ele><time>2021-05-12T12:26:36Z</time><name>PT6427</name></trkpt>
<trkpt lat="53.102783" lon="06.014879"><ele>-2.1</ele><time>2021-05-12T12:26:37Z</time><name>PT6428</name></trkpt>
<trkpt lat="53.102776" lon="06.014863"><ele>-2.1</ele><time>2021-05-12T12:26:38Z</time><name>PT6429</name></trkpt>
<trkpt lat="53.102769" lon="06.014848"><ele>-2.1</ele><time>2021-05-12T12:26:39Z</time><name>PT6430</name></trkpt>
<trkpt lat="53.102762" lon="06.014831"><ele>-1.9</ele><time>2021-05-12T12:26:40Z</time><name>PT6431</name></trkpt>
<trkpt lat="53.102756" lon="06.014814"><ele>-2</ele><time>2021-05-12T12:26:41Z</time><name>PT6432</name></trkpt>
<trkpt lat="53.102749" lon="06.014800"><ele>-2.1</ele><time>2021-05-12T12:26:42Z</time><name>PT6433</name></trkpt>
<trkpt lat="53.102741" lon="06.014784"><ele>-2.1</ele><time>2021-05-12T12:26:43Z</time><name>PT6434</name></trkpt>
<trkpt lat="53.102734" lon="06.014767"><ele>-2.1</ele><time>2021-05-12T12:26:44Z</time><name>PT6435</name></trkpt>
<trkpt lat="53.102728" lon="06.014752"><ele>-2.1</ele><time>2021-05-12T12:26:45Z</time><name>PT6436</name></trkpt>
<trkpt lat="53.102722" lon="06.014737"><ele>-1.9</ele><time>2021-05-12T12:26:46Z</time><name>PT6437</name></trkpt>
<trkpt lat="53.102717" lon="06.014721"><ele>-2.1</ele><time>2021-05-12T12:26:47Z</time><name>PT6438</name></trkpt>
<trkpt lat="53.102714" lon="06.014711"><ele>-2.2</ele><time>2021-05-12T12:26:48Z</time><name>PT6439</name></trkpt>
<trkpt lat="53.102714" lon="06.014709"><ele>-2.2</ele><time>2021-05-12T12:26:49Z</time><name>PT6440</name></trkpt>
<trkpt lat="53.102713" lon="06.014710"><ele>-2.1</ele><time>2021-05-12T12:26:50Z</time><name>PT6441</name></trkpt>
<trkpt lat="53.102713" lon="06.014708"><ele>-2.1</ele><time>2021-05-12T12:26:51Z</time><name>PT6442</name></trkpt>
<trkpt lat="53.102713" lon="06.014704"><ele>-1.8</ele><time>2021-05-12T12:26:59Z</time><name>PT6443</name></trkpt>
<trkpt lat="53.102708" lon="06.014691"><ele>-1.8</ele><time>2021-05-12T12:27:00Z</time><name>PT6444</name></trkpt>
<trkpt lat="53.102702" lon="06.014674"><ele>-1.8</ele><time>2021-05-12T12:27:01Z</time><name>PT6445</name></trkpt>
<trkpt lat="53.102695" lon="06.014656"><ele>-1.7</ele><time>2021-05-12T12:27:02Z</time><name>PT6446</name></trkpt>
<trkpt lat="53.102688" lon="06.014637"><ele>-1.7</ele><time>2021-05-12T12:27:03Z</time><name>PT6447</name></trkpt>
<trkpt lat="53.102682" lon="06.014621"><ele>-1.7</ele><time>2021-05-12T12:27:04Z</time><name>PT6448</name></trkpt>
<trkpt lat="53.102677" lon="06.014604"><ele>-1.8</ele><time>2021-05-12T12:27:05Z</time><name>PT6449</name></trkpt>
<trkpt lat="53.102671" lon="06.014587"><ele>-1.9</ele><time>2021-05-12T12:27:06Z</time><name>PT6450</name></trkpt>
<trkpt lat="53.102665" lon="06.014570"><ele>-1.9</ele><time>2021-05-12T12:27:07Z</time><name>PT6451</name></trkpt>
<trkpt lat="53.102662" lon="06.014552"><ele>-1.6</ele><time>2021-05-12T12:27:08Z</time><name>PT6452</name></trkpt>
<trkpt lat="53.102656" lon="06.014533"><ele>-1.6</ele><time>2021-05-12T12:27:09Z</time><name>PT6453</name></trkpt>
<trkpt lat="53.102649" lon="06.014513"><ele>-1.7</ele><time>2021-05-12T12:27:10Z</time><name>PT6454</name></trkpt>
<trkpt lat="53.102643" lon="06.014494"><ele>-1.6</ele><time>2021-05-12T12:27:11Z</time><name>PT6455</name></trkpt>
<trkpt lat="53.102637" lon="06.014475"><ele>-2</ele><time>2021-05-12T12:27:12Z</time><name>PT6456</name></trkpt>
<trkpt lat="53.102631" lon="06.014459"><ele>-2.1</ele><time>2021-05-12T12:27:13Z</time><name>PT6457</name></trkpt>
<trkpt lat="53.102624" lon="06.014442"><ele>-2.1</ele><time>2021-05-12T12:27:14Z</time><name>PT6458</name></trkpt>
<trkpt lat="53.102616" lon="06.014420"><ele>-1.7</ele><time>2021-05-12T12:27:15Z</time><name>PT6459</name></trkpt>
<trkpt lat="53.102609" lon="06.014399"><ele>-1.1</ele><time>2021-05-12T12:27:16Z</time><name>PT6460</name></trkpt>
<trkpt lat="53.102601" lon="06.014379"><ele>-1</ele><time>2021-05-12T12:27:17Z</time><name>PT6461</name></trkpt>
<trkpt lat="53.102594" lon="06.014365"><ele>0.9</ele><time>2021-05-12T12:27:18Z</time><name>PT6462</name></trkpt>
<trkpt lat="53.102588" lon="06.014349"><ele>-1.1</ele><time>2021-05-12T12:27:19Z</time><name>PT6463</name></trkpt>
<trkpt lat="53.102583" lon="06.014334"><ele>-1.1</ele><time>2021-05-12T12:27:20Z</time><name>PT6464</name></trkpt>
<trkpt lat="53.102578" lon="06.014315"><ele>-1.1</ele><time>2021-05-12T12:27:21Z</time><name>PT6465</name></trkpt>
<trkpt lat="53.102572" lon="06.014297"><ele>-1.1</ele><time>2021-05-12T12:27:22Z</time><name>PT6466</name></trkpt>
<trkpt lat="53.102566" lon="06.014282"><ele>-1</ele><time>2021-05-12T12:27:23Z</time><name>PT6467</name></trkpt>
<trkpt lat="53.102561" lon="06.014267"><ele>-1.1</ele><time>2021-05-12T12:27:24Z</time><name>PT6468</name></trkpt>
<trkpt lat="53.102554" lon="06.014250"><ele>-1.2</ele><time>2021-05-12T12:27:25Z</time><name>PT6469</name></trkpt>
<trkpt lat="53.102548" lon="06.014235"><ele>-1.2</ele><time>2021-05-12T12:27:26Z</time><name>PT6470</name></trkpt>
<trkpt lat="53.102541" lon="06.014218"><ele>-1.3</ele><time>2021-05-12T12:27:27Z</time><name>PT6471</name></trkpt>
<trkpt lat="53.102535" lon="06.014201"><ele>-1.2</ele><time>2021-05-12T12:27:28Z</time><name>PT6472</name></trkpt>
<trkpt lat="53.102529" lon="06.014185"><ele>-1.4</ele><time>2021-05-12T12:27:29Z</time><name>PT6473</name></trkpt>
<trkpt lat="53.102524" lon="06.014170"><ele>-1.4</ele><time>2021-05-12T12:27:30Z</time><name>PT6474</name></trkpt>
<trkpt lat="53.102519" lon="06.014153"><ele>-1.2</ele><time>2021-05-12T12:27:31Z</time><name>PT6475</name></trkpt>
<trkpt lat="53.102514" lon="06.014137"><ele>-1.1</ele><time>2021-05-12T12:27:32Z</time><name>PT6476</name></trkpt>
<trkpt lat="53.102510" lon="06.014118"><ele>-1.2</ele><time>2021-05-12T12:27:33Z</time><name>PT6477</name></trkpt>
<trkpt lat="53.102506" lon="06.014100"><ele>-1</ele><time>2021-05-12T12:27:34Z</time><name>PT6478</name></trkpt>
<trkpt lat="53.102499" lon="06.014084"><ele>-1</ele><time>2021-05-12T12:27:35Z</time><name>PT6479</name></trkpt>
<trkpt lat="53.102491" lon="06.014068"><ele>-1</ele><time>2021-05-12T12:27:36Z</time><name>PT6480</name></trkpt>
<trkpt lat="53.102485" lon="06.014051"><ele>-1</ele><time>2021-05-12T12:27:37Z</time><name>PT6481</name></trkpt>
<trkpt lat="53.102478" lon="06.014033"><ele>-1.1</ele><time>2021-05-12T12:27:38Z</time><name>PT6482</name></trkpt>
<trkpt lat="53.102471" lon="06.014015"><ele>-1.4</ele><time>2021-05-12T12:27:39Z</time><name>PT6483</name></trkpt>
<trkpt lat="53.102465" lon="06.013998"><ele>-1.6</ele><time>2021-05-12T12:27:40Z</time><name>PT6484</name></trkpt>
<trkpt lat="53.102459" lon="06.013981"><ele>-1.7</ele><time>2021-05-12T12:27:41Z</time><name>PT6485</name></trkpt>
<trkpt lat="53.102454" lon="06.013961"><ele>-1.8</ele><time>2021-05-12T12:27:42Z</time><name>PT6486</name></trkpt>
<trkpt lat="53.102450" lon="06.013943"><ele>-1.9</ele><time>2021-05-12T12:27:43Z</time><name>PT6487</name></trkpt>
<trkpt lat="53.102445" lon="06.013927"><ele>-1.7</ele><time>2021-05-12T12:27:44Z</time><name>PT6488</name></trkpt>
<trkpt lat="53.102439" lon="06.013910"><ele>-2</ele><time>2021-05-12T12:27:45Z</time><name>PT6489</name></trkpt>
<trkpt lat="53.102433" lon="06.013896"><ele>-2.1</ele><time>2021-05-12T12:27:46Z</time><name>PT6490</name></trkpt>
<trkpt lat="53.102427" lon="06.013879"><ele>-2.1</ele><time>2021-05-12T12:27:47Z</time><name>PT6491</name></trkpt>
<trkpt lat="53.102420" lon="06.013863"><ele>-2.2</ele><time>2021-05-12T12:27:48Z</time><name>PT6492</name></trkpt>
<trkpt lat="53.102412" lon="06.013847"><ele>-2.4</ele><time>2021-05-12T12:27:49Z</time><name>PT6493</name></trkpt>
<trkpt lat="53.102405" lon="06.013831"><ele>-2.3</ele><time>2021-05-12T12:27:50Z</time><name>PT6494</name></trkpt>
<trkpt lat="53.102398" lon="06.013811"><ele>-2.3</ele><time>2021-05-12T12:27:51Z</time><name>PT6495</name></trkpt>
<trkpt lat="53.102391" lon="06.013794"><ele>-2.2</ele><time>2021-05-12T12:27:52Z</time><name>PT6496</name></trkpt>
<trkpt lat="53.102384" lon="06.013778"><ele>-2.2</ele><time>2021-05-12T12:27:53Z</time><name>PT6497</name></trkpt>
<trkpt lat="53.102380" lon="06.013761"><ele>-2.1</ele><time>2021-05-12T12:27:54Z</time><name>PT6498</name></trkpt>
<trkpt lat="53.102376" lon="06.013742"><ele>-2.2</ele><time>2021-05-12T12:27:55Z</time><name>PT6499</name></trkpt>
<trkpt lat="53.102373" lon="06.013723"><ele>-2.1</ele><time>2021-05-12T12:27:56Z</time><name>PT6500</name></trkpt>
<trkpt lat="53.102369" lon="06.013705"><ele>-2.1</ele><time>2021-05-12T12:27:57Z</time><name>PT6501</name></trkpt>
<trkpt lat="53.102364" lon="06.013688"><ele>-2.1</ele><time>2021-05-12T12:27:58Z</time><name>PT6502</name></trkpt>
<trkpt lat="53.102358" lon="06.013671"><ele>-2</ele><time>2021-05-12T12:27:59Z</time><name>PT6503</name></trkpt>
<trkpt lat="53.102351" lon="06.013655"><ele>-2.1</ele><time>2021-05-12T12:28:00Z</time><name>PT6504</name></trkpt>
<trkpt lat="53.102342" lon="06.013638"><ele>-2.2</ele><time>2021-05-12T12:28:01Z</time><name>PT6505</name></trkpt>
<trkpt lat="53.102334" lon="06.013621"><ele>-2.3</ele><time>2021-05-12T12:28:02Z</time><name>PT6506</name></trkpt>
<trkpt lat="53.102328" lon="06.013602"><ele>-2.5</ele><time>2021-05-12T12:28:03Z</time><name>PT6507</name></trkpt>
<trkpt lat="53.102323" lon="06.013586"><ele>-2.5</ele><time>2021-05-12T12:28:04Z</time><name>PT6508</name></trkpt>
<trkpt lat="53.102317" lon="06.013569"><ele>-2.5</ele><time>2021-05-12T12:28:05Z</time><name>PT6509</name></trkpt>
<trkpt lat="53.102313" lon="06.013551"><ele>-2.6</ele><time>2021-05-12T12:28:06Z</time><name>PT6510</name></trkpt>
<trkpt lat="53.102310" lon="06.013533"><ele>-2.6</ele><time>2021-05-12T12:28:07Z</time><name>PT6511</name></trkpt>
<trkpt lat="53.102305" lon="06.013515"><ele>-2.5</ele><time>2021-05-12T12:28:08Z</time><name>PT6512</name></trkpt>
<trkpt lat="53.102300" lon="06.013498"><ele>-2.4</ele><time>2021-05-12T12:28:09Z</time><name>PT6513</name></trkpt>
<trkpt lat="53.102293" lon="06.013480"><ele>-2.3</ele><time>2021-05-12T12:28:10Z</time><name>PT6514</name></trkpt>
<trkpt lat="53.102286" lon="06.013465"><ele>-2.2</ele><time>2021-05-12T12:28:11Z</time><name>PT6515</name></trkpt>
<trkpt lat="53.102280" lon="06.013448"><ele>-2.1</ele><time>2021-05-12T12:28:12Z</time><name>PT6516</name></trkpt>
<trkpt lat="53.102273" lon="06.013430"><ele>-2.3</ele><time>2021-05-12T12:28:13Z</time><name>PT6517</name></trkpt>
<trkpt lat="53.102266" lon="06.013414"><ele>-2.2</ele><time>2021-05-12T12:28:14Z</time><name>PT6518</name></trkpt>
<trkpt lat="53.102260" lon="06.013399"><ele>-2.2</ele><time>2021-05-12T12:28:15Z</time><name>PT6519</name></trkpt>
<trkpt lat="53.102255" lon="06.013383"><ele>-2.1</ele><time>2021-05-12T12:28:16Z</time><name>PT6520</name></trkpt>
<trkpt lat="53.102250" lon="06.013367"><ele>-1.9</ele><time>2021-05-12T12:28:17Z</time><name>PT6521</name></trkpt>
<trkpt lat="53.102245" lon="06.013350"><ele>-2</ele><time>2021-05-12T12:28:18Z</time><name>PT6522</name></trkpt>
<trkpt lat="53.102239" lon="06.013332"><ele>-2</ele><time>2021-05-12T12:28:19Z</time><name>PT6523</name></trkpt>
<trkpt lat="53.102233" lon="06.013316"><ele>-2.1</ele><time>2021-05-12T12:28:20Z</time><name>PT6524</name></trkpt>
<trkpt lat="53.102228" lon="06.013299"><ele>-2.1</ele><time>2021-05-12T12:28:21Z</time><name>PT6525</name></trkpt>
<trkpt lat="53.102221" lon="06.013282"><ele>-2</ele><time>2021-05-12T12:28:22Z</time><name>PT6526</name></trkpt>
<trkpt lat="53.102215" lon="06.013264"><ele>-2.1</ele><time>2021-05-12T12:28:23Z</time><name>PT6527</name></trkpt>
<trkpt lat="53.102208" lon="06.013246"><ele>-2</ele><time>2021-05-12T12:28:24Z</time><name>PT6528</name></trkpt>
<trkpt lat="53.102200" lon="06.013227"><ele>-2.1</ele><time>2021-05-12T12:28:25Z</time><name>PT6529</name></trkpt>
<trkpt lat="53.102195" lon="06.013210"><ele>-2.1</ele><time>2021-05-12T12:28:26Z</time><name>PT6530</name></trkpt>
<trkpt lat="53.102190" lon="06.013195"><ele>-2</ele><time>2021-05-12T12:28:27Z</time><name>PT6531</name></trkpt>
<trkpt lat="53.102185" lon="06.013179"><ele>-2</ele><time>2021-05-12T12:28:28Z</time><name>PT6532</name></trkpt>
<trkpt lat="53.102181" lon="06.013161"><ele>-2</ele><time>2021-05-12T12:28:29Z</time><name>PT6533</name></trkpt>
<trkpt lat="53.102175" lon="06.013143"><ele>-2.1</ele><time>2021-05-12T12:28:30Z</time><name>PT6534</name></trkpt>
<trkpt lat="53.102169" lon="06.013126"><ele>-2.2</ele><time>2021-05-12T12:28:31Z</time><name>PT6535</name></trkpt>
<trkpt lat="53.102161" lon="06.013108"><ele>-2.1</ele><time>2021-05-12T12:28:32Z</time><name>PT6536</name></trkpt>
<trkpt lat="53.102156" lon="06.013091"><ele>-2.3</ele><time>2021-05-12T12:28:33Z</time><name>PT6537</name></trkpt>
<trkpt lat="53.102148" lon="06.013072"><ele>-2.4</ele><time>2021-05-12T12:28:34Z</time><name>PT6538</name></trkpt>
<trkpt lat="53.102142" lon="06.013057"><ele>-2.4</ele><time>2021-05-12T12:28:35Z</time><name>PT6539</name></trkpt>
<trkpt lat="53.102137" lon="06.013041"><ele>-2.3</ele><time>2021-05-12T12:28:36Z</time><name>PT6540</name></trkpt>
<trkpt lat="53.102131" lon="06.013025"><ele>-1.8</ele><time>2021-05-12T12:28:37Z</time><name>PT6541</name></trkpt>
<trkpt lat="53.102125" lon="06.013008"><ele>-1.6</ele><time>2021-05-12T12:28:38Z</time><name>PT6542</name></trkpt>
<trkpt lat="53.102119" lon="06.012992"><ele>-2.4</ele><time>2021-05-12T12:28:39Z</time><name>PT6543</name></trkpt>
<trkpt lat="53.102114" lon="06.012977"><ele>-1.8</ele><time>2021-05-12T12:28:40Z</time><name>PT6544</name></trkpt>
<trkpt lat="53.102110" lon="06.012959"><ele>-1.7</ele><time>2021-05-12T12:28:41Z</time><name>PT6545</name></trkpt>
<trkpt lat="53.102105" lon="06.012943"><ele>-1.9</ele><time>2021-05-12T12:28:42Z</time><name>PT6546</name></trkpt>
<trkpt lat="53.102100" lon="06.012925"><ele>-1.1</ele><time>2021-05-12T12:28:43Z</time><name>PT6547</name></trkpt>
<trkpt lat="53.102094" lon="06.012909"><ele>-1.1</ele><time>2021-05-12T12:28:44Z</time><name>PT6548</name></trkpt>
<trkpt lat="53.102087" lon="06.012892"><ele>-1.5</ele><time>2021-05-12T12:28:45Z</time><name>PT6549</name></trkpt>
<trkpt lat="53.102081" lon="06.012876"><ele>-1.6</ele><time>2021-05-12T12:28:46Z</time><name>PT6550</name></trkpt>
<trkpt lat="53.102075" lon="06.012859"><ele>-1.5</ele><time>2021-05-12T12:28:47Z</time><name>PT6551</name></trkpt>
<trkpt lat="53.102069" lon="06.012841"><ele>-2.1</ele><time>2021-05-12T12:28:48Z</time><name>PT6552</name></trkpt>
<trkpt lat="53.102064" lon="06.012823"><ele>-2.1</ele><time>2021-05-12T12:28:49Z</time><name>PT6553</name></trkpt>
<trkpt lat="53.102059" lon="06.012806"><ele>-2.1</ele><time>2021-05-12T12:28:50Z</time><name>PT6554</name></trkpt>
<trkpt lat="53.102054" lon="06.012788"><ele>-2.4</ele><time>2021-05-12T12:28:51Z</time><name>PT6555</name></trkpt>
<trkpt lat="53.102048" lon="06.012770"><ele>-2.1</ele><time>2021-05-12T12:28:52Z</time><name>PT6556</name></trkpt>
<trkpt lat="53.102043" lon="06.012752"><ele>-2.1</ele><time>2021-05-12T12:28:53Z</time><name>PT6557</name></trkpt>
<trkpt lat="53.102037" lon="06.012734"><ele>-2.6</ele><time>2021-05-12T12:28:54Z</time><name>PT6558</name></trkpt>
<trkpt lat="53.102030" lon="06.012720"><ele>-2</ele><time>2021-05-12T12:28:55Z</time><name>PT6559</name></trkpt>
<trkpt lat="53.102023" lon="06.012704"><ele>-1.9</ele><time>2021-05-12T12:28:56Z</time><name>PT6560</name></trkpt>
<trkpt lat="53.102016" lon="06.012688"><ele>-2.4</ele><time>2021-05-12T12:28:57Z</time><name>PT6561</name></trkpt>
<trkpt lat="53.102010" lon="06.012673"><ele>-2.6</ele><time>2021-05-12T12:28:58Z</time><name>PT6562</name></trkpt>
<trkpt lat="53.102004" lon="06.012658"><ele>-2.6</ele><time>2021-05-12T12:28:59Z</time><name>PT6563</name></trkpt>
<trkpt lat="53.102000" lon="06.012641"><ele>-3.1</ele><time>2021-05-12T12:29:00Z</time><name>PT6564</name></trkpt>
<trkpt lat="53.101995" lon="06.012622"><ele>-3.3</ele><time>2021-05-12T12:29:01Z</time><name>PT6565</name></trkpt>
<trkpt lat="53.101988" lon="06.012602"><ele>-3.2</ele><time>2021-05-12T12:29:02Z</time><name>PT6566</name></trkpt>
<trkpt lat="53.101983" lon="06.012582"><ele>-3.1</ele><time>2021-05-12T12:29:03Z</time><name>PT6567</name></trkpt>
<trkpt lat="53.101978" lon="06.012563"><ele>-3.1</ele><time>2021-05-12T12:29:04Z</time><name>PT6568</name></trkpt>
<trkpt lat="53.101973" lon="06.012546"><ele>-2.9</ele><time>2021-05-12T12:29:05Z</time><name>PT6569</name></trkpt>
<trkpt lat="53.101967" lon="06.012531"><ele>-2.9</ele><time>2021-05-12T12:29:06Z</time><name>PT6570</name></trkpt>
<trkpt lat="53.101960" lon="06.012516"><ele>-2.8</ele><time>2021-05-12T12:29:07Z</time><name>PT6571</name></trkpt>
<trkpt lat="53.101952" lon="06.012500"><ele>-2.7</ele><time>2021-05-12T12:29:08Z</time><name>PT6572</name></trkpt>
<trkpt lat="53.101946" lon="06.012485"><ele>-2.6</ele><time>2021-05-12T12:29:09Z</time><name>PT6573</name></trkpt>
<trkpt lat="53.101941" lon="06.012470"><ele>-2.6</ele><time>2021-05-12T12:29:10Z</time><name>PT6574</name></trkpt>
<trkpt lat="53.101936" lon="06.012452"><ele>-2.6</ele><time>2021-05-12T12:29:11Z</time><name>PT6575</name></trkpt>
<trkpt lat="53.101931" lon="06.012434"><ele>-2.5</ele><time>2021-05-12T12:29:12Z</time><name>PT6576</name></trkpt>
<trkpt lat="53.101927" lon="06.012417"><ele>-2.5</ele><time>2021-05-12T12:29:13Z</time><name>PT6577</name></trkpt>
<trkpt lat="53.101923" lon="06.012400"><ele>-2.4</ele><time>2021-05-12T12:29:14Z</time><name>PT6578</name></trkpt>
<trkpt lat="53.101917" lon="06.012385"><ele>-2.4</ele><time>2021-05-12T12:29:15Z</time><name>PT6579</name></trkpt>
<trkpt lat="53.101911" lon="06.012367"><ele>-2.3</ele><time>2021-05-12T12:29:16Z</time><name>PT6580</name></trkpt>
<trkpt lat="53.101903" lon="06.012351"><ele>-2.4</ele><time>2021-05-12T12:29:17Z</time><name>PT6581</name></trkpt>
<trkpt lat="53.101895" lon="06.012334"><ele>-2.4</ele><time>2021-05-12T12:29:18Z</time><name>PT6582</name></trkpt>
<trkpt lat="53.101889" lon="06.012318"><ele>-2.5</ele><time>2021-05-12T12:29:19Z</time><name>PT6583</name></trkpt>
<trkpt lat="53.101883" lon="06.012302"><ele>-2.5</ele><time>2021-05-12T12:29:20Z</time><name>PT6584</name></trkpt>
<trkpt lat="53.101878" lon="06.012286"><ele>-2.6</ele><time>2021-05-12T12:29:21Z</time><name>PT6585</name></trkpt>
<trkpt lat="53.101872" lon="06.012269"><ele>-2.5</ele><time>2021-05-12T12:29:22Z</time><name>PT6586</name></trkpt>
<trkpt lat="53.101867" lon="06.012250"><ele>-2.7</ele><time>2021-05-12T12:29:23Z</time><name>PT6587</name></trkpt>
<trkpt lat="53.101863" lon="06.012231"><ele>-3</ele><time>2021-05-12T12:29:24Z</time><name>PT6588</name></trkpt>
<trkpt lat="53.101857" lon="06.012213"><ele>-3.1</ele><time>2021-05-12T12:29:25Z</time><name>PT6589</name></trkpt>
<trkpt lat="53.101851" lon="06.012197"><ele>-3.1</ele><time>2021-05-12T12:29:26Z</time><name>PT6590</name></trkpt>
<trkpt lat="53.101844" lon="06.012182"><ele>-3.2</ele><time>2021-05-12T12:29:27Z</time><name>PT6591</name></trkpt>
<trkpt lat="53.101837" lon="06.012165"><ele>-3.2</ele><time>2021-05-12T12:29:28Z</time><name>PT6592</name></trkpt>
<trkpt lat="53.101830" lon="06.012149"><ele>-3.2</ele><time>2021-05-12T12:29:29Z</time><name>PT6593</name></trkpt>
<trkpt lat="53.101822" lon="06.012133"><ele>-3.3</ele><time>2021-05-12T12:29:30Z</time><name>PT6594</name></trkpt>
<trkpt lat="53.101818" lon="06.012119"><ele>-3.3</ele><time>2021-05-12T12:29:31Z</time><name>PT6595</name></trkpt>
<trkpt lat="53.101815" lon="06.012103"><ele>-3.1</ele><time>2021-05-12T12:29:32Z</time><name>PT6596</name></trkpt>
<trkpt lat="53.101812" lon="06.012087"><ele>-3</ele><time>2021-05-12T12:29:33Z</time><name>PT6597</name></trkpt>
<trkpt lat="53.101807" lon="06.012068"><ele>-2.7</ele><time>2021-05-12T12:29:34Z</time><name>PT6598</name></trkpt>
<trkpt lat="53.101801" lon="06.012049"><ele>-2.6</ele><time>2021-05-12T12:29:35Z</time><name>PT6599</name></trkpt>
<trkpt lat="53.101795" lon="06.012032"><ele>-2.5</ele><time>2021-05-12T12:29:36Z</time><name>PT6600</name></trkpt>
<trkpt lat="53.101788" lon="06.012016"><ele>-2.5</ele><time>2021-05-12T12:29:37Z</time><name>PT6601</name></trkpt>
<trkpt lat="53.101782" lon="06.012000"><ele>-2.5</ele><time>2021-05-12T12:29:38Z</time><name>PT6602</name></trkpt>
<trkpt lat="53.101775" lon="06.011983"><ele>-2.5</ele><time>2021-05-12T12:29:39Z</time><name>PT6603</name></trkpt>
<trkpt lat="53.101768" lon="06.011966"><ele>-2.6</ele><time>2021-05-12T12:29:40Z</time><name>PT6604</name></trkpt>
<trkpt lat="53.101762" lon="06.011951"><ele>-2.7</ele><time>2021-05-12T12:29:41Z</time><name>PT6605</name></trkpt>
<trkpt lat="53.101757" lon="06.011937"><ele>-2.7</ele><time>2021-05-12T12:29:42Z</time><name>PT6606</name></trkpt>
<trkpt lat="53.101753" lon="06.011922"><ele>-2.9</ele><time>2021-05-12T12:29:43Z</time><name>PT6607</name></trkpt>
<trkpt lat="53.101749" lon="06.011904"><ele>-3.1</ele><time>2021-05-12T12:29:44Z</time><name>PT6608</name></trkpt>
<trkpt lat="53.101745" lon="06.011884"><ele>-3.2</ele><time>2021-05-12T12:29:45Z</time><name>PT6609</name></trkpt>
<trkpt lat="53.101739" lon="06.011865"><ele>-3.2</ele><time>2021-05-12T12:29:46Z</time><name>PT6610</name></trkpt>
<trkpt lat="53.101733" lon="06.011847"><ele>-3.4</ele><time>2021-05-12T12:29:47Z</time><name>PT6611</name></trkpt>
<trkpt lat="53.101727" lon="06.011830"><ele>-3.2</ele><time>2021-05-12T12:29:48Z</time><name>PT6612</name></trkpt>
<trkpt lat="53.101719" lon="06.011814"><ele>-3.1</ele><time>2021-05-12T12:29:49Z</time><name>PT6613</name></trkpt>
<trkpt lat="53.101711" lon="06.011798"><ele>-3.1</ele><time>2021-05-12T12:29:50Z</time><name>PT6614</name></trkpt>
<trkpt lat="53.101705" lon="06.011782"><ele>-3.2</ele><time>2021-05-12T12:29:51Z</time><name>PT6615</name></trkpt>
<trkpt lat="53.101699" lon="06.011763"><ele>-3.1</ele><time>2021-05-12T12:29:52Z</time><name>PT6616</name></trkpt>
<trkpt lat="53.101693" lon="06.011746"><ele>-3.2</ele><time>2021-05-12T12:29:53Z</time><name>PT6617</name></trkpt>
<trkpt lat="53.101689" lon="06.011729"><ele>-3.1</ele><time>2021-05-12T12:29:54Z</time><name>PT6618</name></trkpt>
<trkpt lat="53.101684" lon="06.011713"><ele>-2.9</ele><time>2021-05-12T12:29:55Z</time><name>PT6619</name></trkpt>
<trkpt lat="53.101678" lon="06.011696"><ele>-2.9</ele><time>2021-05-12T12:29:56Z</time><name>PT6620</name></trkpt>
<trkpt lat="53.101672" lon="06.011676"><ele>-2.8</ele><time>2021-05-12T12:29:57Z</time><name>PT6621</name></trkpt>
<trkpt lat="53.101666" lon="06.011657"><ele>-2.7</ele><time>2021-05-12T12:29:58Z</time><name>PT6622</name></trkpt>
<trkpt lat="53.101661" lon="06.011641"><ele>-2.7</ele><time>2021-05-12T12:29:59Z</time><name>PT6623</name></trkpt>
<trkpt lat="53.101655" lon="06.011625"><ele>-2.6</ele><time>2021-05-12T12:30:00Z</time><name>PT6624</name></trkpt>
<trkpt lat="53.101649" lon="06.011609"><ele>-2.6</ele><time>2021-05-12T12:30:01Z</time><name>PT6625</name></trkpt>
<trkpt lat="53.101642" lon="06.011592"><ele>-2.5</ele><time>2021-05-12T12:30:02Z</time><name>PT6626</name></trkpt>
<trkpt lat="53.101633" lon="06.011576"><ele>-2.2</ele><time>2021-05-12T12:30:03Z</time><name>PT6627</name></trkpt>
<trkpt lat="53.101626" lon="06.011559"><ele>-2.4</ele><time>2021-05-12T12:30:04Z</time><name>PT6628</name></trkpt>
<trkpt lat="53.101620" lon="06.011544"><ele>-2.5</ele><time>2021-05-12T12:30:05Z</time><name>PT6629</name></trkpt>
<trkpt lat="53.101616" lon="06.011529"><ele>-2.6</ele><time>2021-05-12T12:30:06Z</time><name>PT6630</name></trkpt>
<trkpt lat="53.101611" lon="06.011513"><ele>-2.9</ele><time>2021-05-12T12:30:07Z</time><name>PT6631</name></trkpt>
<trkpt lat="53.101605" lon="06.011494"><ele>-3.1</ele><time>2021-05-12T12:30:08Z</time><name>PT6632</name></trkpt>
<trkpt lat="53.101601" lon="06.011476"><ele>-3</ele><time>2021-05-12T12:30:09Z</time><name>PT6633</name></trkpt>
<trkpt lat="53.101595" lon="06.011459"><ele>-2.7</ele><time>2021-05-12T12:30:10Z</time><name>PT6634</name></trkpt>
<trkpt lat="53.101589" lon="06.011443"><ele>-2.7</ele><time>2021-05-12T12:30:11Z</time><name>PT6635</name></trkpt>
<trkpt lat="53.101582" lon="06.011426"><ele>-2.6</ele><time>2021-05-12T12:30:12Z</time><name>PT6636</name></trkpt>
<trkpt lat="53.101575" lon="06.011411"><ele>-2.4</ele><time>2021-05-12T12:30:13Z</time><name>PT6637</name></trkpt>
<trkpt lat="53.101568" lon="06.011395"><ele>-2.4</ele><time>2021-05-12T12:30:14Z</time><name>PT6638</name></trkpt>
<trkpt lat="53.101562" lon="06.011377"><ele>-2.3</ele><time>2021-05-12T12:30:15Z</time><name>PT6639</name></trkpt>
<trkpt lat="53.101557" lon="06.011360"><ele>-2.2</ele><time>2021-05-12T12:30:16Z</time><name>PT6640</name></trkpt>
<trkpt lat="53.101554" lon="06.011341"><ele>-2.1</ele><time>2021-05-12T12:30:17Z</time><name>PT6641</name></trkpt>
<trkpt lat="53.101549" lon="06.011323"><ele>-1.9</ele><time>2021-05-12T12:30:18Z</time><name>PT6642</name></trkpt>
<trkpt lat="53.101544" lon="06.011305"><ele>-2.1</ele><time>2021-05-12T12:30:19Z</time><name>PT6643</name></trkpt>
<trkpt lat="53.101537" lon="06.011290"><ele>-2.2</ele><time>2021-05-12T12:30:20Z</time><name>PT6644</name></trkpt>
<trkpt lat="53.101530" lon="06.011273"><ele>-2.3</ele><time>2021-05-12T12:30:21Z</time><name>PT6645</name></trkpt>
<trkpt lat="53.101524" lon="06.011255"><ele>-2.4</ele><time>2021-05-12T12:30:22Z</time><name>PT6646</name></trkpt>
<trkpt lat="53.101517" lon="06.011238"><ele>-2.5</ele><time>2021-05-12T12:30:23Z</time><name>PT6647</name></trkpt>
<trkpt lat="53.101510" lon="06.011218"><ele>-2.6</ele><time>2021-05-12T12:30:24Z</time><name>PT6648</name></trkpt>
<trkpt lat="53.101503" lon="06.011198"><ele>-2.6</ele><time>2021-05-12T12:30:25Z</time><name>PT6649</name></trkpt>
<trkpt lat="53.101498" lon="06.011180"><ele>-2.5</ele><time>2021-05-12T12:30:26Z</time><name>PT6650</name></trkpt>
<trkpt lat="53.101494" lon="06.011162"><ele>-2.4</ele><time>2021-05-12T12:30:27Z</time><name>PT6651</name></trkpt>
<trkpt lat="53.101489" lon="06.011144"><ele>-2.5</ele><time>2021-05-12T12:30:28Z</time><name>PT6652</name></trkpt>
<trkpt lat="53.101484" lon="06.011125"><ele>-2.6</ele><time>2021-05-12T12:30:29Z</time><name>PT6653</name></trkpt>
<trkpt lat="53.101478" lon="06.011106"><ele>-2.8</ele><time>2021-05-12T12:30:30Z</time><name>PT6654</name></trkpt>
<trkpt lat="53.101472" lon="06.011090"><ele>-3</ele><time>2021-05-12T12:30:31Z</time><name>PT6655</name></trkpt>
<trkpt lat="53.101467" lon="06.011073"><ele>-3.1</ele><time>2021-05-12T12:30:32Z</time><name>PT6656</name></trkpt>
<trkpt lat="53.101459" lon="06.011054"><ele>-3</ele><time>2021-05-12T12:30:33Z</time><name>PT6657</name></trkpt>
<trkpt lat="53.101451" lon="06.011037"><ele>-3</ele><time>2021-05-12T12:30:34Z</time><name>PT6658</name></trkpt>
<trkpt lat="53.101443" lon="06.011018"><ele>-3</ele><time>2021-05-12T12:30:35Z</time><name>PT6659</name></trkpt>
<trkpt lat="53.101437" lon="06.011000"><ele>-3.1</ele><time>2021-05-12T12:30:36Z</time><name>PT6660</name></trkpt>
<trkpt lat="53.101432" lon="06.010983"><ele>-3.1</ele><time>2021-05-12T12:30:37Z</time><name>PT6661</name></trkpt>
<trkpt lat="53.101428" lon="06.010969"><ele>-3</ele><time>2021-05-12T12:30:38Z</time><name>PT6662</name></trkpt>
<trkpt lat="53.101425" lon="06.010951"><ele>-2.9</ele><time>2021-05-12T12:30:39Z</time><name>PT6663</name></trkpt>
<trkpt lat="53.101421" lon="06.010932"><ele>-2.7</ele><time>2021-05-12T12:30:40Z</time><name>PT6664</name></trkpt>
<trkpt lat="53.101416" lon="06.010914"><ele>-2.6</ele><time>2021-05-12T12:30:41Z</time><name>PT6665</name></trkpt>
<trkpt lat="53.101409" lon="06.010898"><ele>-2.7</ele><time>2021-05-12T12:30:42Z</time><name>PT6666</name></trkpt>
<trkpt lat="53.101402" lon="06.010881"><ele>-3.1</ele><time>2021-05-12T12:30:43Z</time><name>PT6667</name></trkpt>
<trkpt lat="53.101393" lon="06.010864"><ele>-3.1</ele><time>2021-05-12T12:30:44Z</time><name>PT6668</name></trkpt>
<trkpt lat="53.101385" lon="06.010846"><ele>-3.3</ele><time>2021-05-12T12:30:45Z</time><name>PT6669</name></trkpt>
<trkpt lat="53.101377" lon="06.010828"><ele>-3.4</ele><time>2021-05-12T12:30:46Z</time><name>PT6670</name></trkpt>
<trkpt lat="53.101371" lon="06.010813"><ele>-3.3</ele><time>2021-05-12T12:30:47Z</time><name>PT6671</name></trkpt>
<trkpt lat="53.101364" lon="06.010797"><ele>-3.2</ele><time>2021-05-12T12:30:48Z</time><name>PT6672</name></trkpt>
<trkpt lat="53.101359" lon="06.010780"><ele>-3.1</ele><time>2021-05-12T12:30:49Z</time><name>PT6673</name></trkpt>
<trkpt lat="53.101354" lon="06.010760"><ele>-3.2</ele><time>2021-05-12T12:30:50Z</time><name>PT6674</name></trkpt>
<trkpt lat="53.101349" lon="06.010740"><ele>-3.4</ele><time>2021-05-12T12:30:51Z</time><name>PT6675</name></trkpt>
<trkpt lat="53.101343" lon="06.010724"><ele>-3.6</ele><time>2021-05-12T12:30:52Z</time><name>PT6676</name></trkpt>
<trkpt lat="53.101337" lon="06.010711"><ele>-3.6</ele><time>2021-05-12T12:30:53Z</time><name>PT6677</name></trkpt>
<trkpt lat="53.101331" lon="06.010694"><ele>-3.7</ele><time>2021-05-12T12:30:54Z</time><name>PT6678</name></trkpt>
<trkpt lat="53.101323" lon="06.010678"><ele>-3.7</ele><time>2021-05-12T12:30:55Z</time><name>PT6679</name></trkpt>
<trkpt lat="53.101316" lon="06.010660"><ele>-3.5</ele><time>2021-05-12T12:30:56Z</time><name>PT6680</name></trkpt>
<trkpt lat="53.101310" lon="06.010644"><ele>-3.5</ele><time>2021-05-12T12:30:57Z</time><name>PT6681</name></trkpt>
<trkpt lat="53.101304" lon="06.010628"><ele>-3.2</ele><time>2021-05-12T12:30:58Z</time><name>PT6682</name></trkpt>
<trkpt lat="53.101299" lon="06.010609"><ele>-3.1</ele><time>2021-05-12T12:30:59Z</time><name>PT6683</name></trkpt>
<trkpt lat="53.101294" lon="06.010590"><ele>-3</ele><time>2021-05-12T12:31:00Z</time><name>PT6684</name></trkpt>
<trkpt lat="53.101289" lon="06.010572"><ele>-3</ele><time>2021-05-12T12:31:01Z</time><name>PT6685</name></trkpt>
<trkpt lat="53.101283" lon="06.010556"><ele>-2.7</ele><time>2021-05-12T12:31:02Z</time><name>PT6686</name></trkpt>
<trkpt lat="53.101277" lon="06.010540"><ele>-2.7</ele><time>2021-05-12T12:31:03Z</time><name>PT6687</name></trkpt>
<trkpt lat="53.101271" lon="06.010523"><ele>-2.7</ele><time>2021-05-12T12:31:04Z</time><name>PT6688</name></trkpt>
<trkpt lat="53.101263" lon="06.010505"><ele>-2.6</ele><time>2021-05-12T12:31:05Z</time><name>PT6689</name></trkpt>
<trkpt lat="53.101257" lon="06.010488"><ele>-2.6</ele><time>2021-05-12T12:31:06Z</time><name>PT6690</name></trkpt>
<trkpt lat="53.101250" lon="06.010471"><ele>-2.6</ele><time>2021-05-12T12:31:07Z</time><name>PT6691</name></trkpt>
<trkpt lat="53.101244" lon="06.010454"><ele>-2.8</ele><time>2021-05-12T12:31:08Z</time><name>PT6692</name></trkpt>
<trkpt lat="53.101241" lon="06.010439"><ele>-2.8</ele><time>2021-05-12T12:31:09Z</time><name>PT6693</name></trkpt>
<trkpt lat="53.101237" lon="06.010422"><ele>-3</ele><time>2021-05-12T12:31:10Z</time><name>PT6694</name></trkpt>
<trkpt lat="53.101232" lon="06.010404"><ele>-3.1</ele><time>2021-05-12T12:31:11Z</time><name>PT6695</name></trkpt>
<trkpt lat="53.101228" lon="06.010386"><ele>-3.3</ele><time>2021-05-12T12:31:12Z</time><name>PT6696</name></trkpt>
<trkpt lat="53.101224" lon="06.010370"><ele>-3.5</ele><time>2021-05-12T12:31:13Z</time><name>PT6697</name></trkpt>
<trkpt lat="53.101217" lon="06.010354"><ele>-3.4</ele><time>2021-05-12T12:31:14Z</time><name>PT6698</name></trkpt>
<trkpt lat="53.101210" lon="06.010338"><ele>-3.4</ele><time>2021-05-12T12:31:15Z</time><name>PT6699</name></trkpt>
<trkpt lat="53.101202" lon="06.010321"><ele>-3.2</ele><time>2021-05-12T12:31:16Z</time><name>PT6700</name></trkpt>
<trkpt lat="53.101196" lon="06.010302"><ele>-3.2</ele><time>2021-05-12T12:31:17Z</time><name>PT6701</name></trkpt>
<trkpt lat="53.101189" lon="06.010287"><ele>-3.1</ele><time>2021-05-12T12:31:18Z</time><name>PT6702</name></trkpt>
<trkpt lat="53.101184" lon="06.010272"><ele>-3.1</ele><time>2021-05-12T12:31:19Z</time><name>PT6703</name></trkpt>
<trkpt lat="53.101178" lon="06.010255"><ele>-3.2</ele><time>2021-05-12T12:31:20Z</time><name>PT6704</name></trkpt>
<trkpt lat="53.101173" lon="06.010236"><ele>-3.5</ele><time>2021-05-12T12:31:21Z</time><name>PT6705</name></trkpt>
<trkpt lat="53.101167" lon="06.010219"><ele>-3.3</ele><time>2021-05-12T12:31:22Z</time><name>PT6706</name></trkpt>
<trkpt lat="53.101161" lon="06.010204"><ele>-3.2</ele><time>2021-05-12T12:31:23Z</time><name>PT6707</name></trkpt>
<trkpt lat="53.101155" lon="06.010187"><ele>-3.1</ele><time>2021-05-12T12:31:24Z</time><name>PT6708</name></trkpt>
<trkpt lat="53.101149" lon="06.010170"><ele>-2.9</ele><time>2021-05-12T12:31:25Z</time><name>PT6709</name></trkpt>
<trkpt lat="53.101141" lon="06.010153"><ele>-2.7</ele><time>2021-05-12T12:31:26Z</time><name>PT6710</name></trkpt>
<trkpt lat="53.101134" lon="06.010137"><ele>-2.6</ele><time>2021-05-12T12:31:27Z</time><name>PT6711</name></trkpt>
<trkpt lat="53.101128" lon="06.010120"><ele>-2.6</ele><time>2021-05-12T12:31:28Z</time><name>PT6712</name></trkpt>
<trkpt lat="53.101123" lon="06.010103"><ele>-2.6</ele><time>2021-05-12T12:31:29Z</time><name>PT6713</name></trkpt>
<trkpt lat="53.101118" lon="06.010085"><ele>-2.6</ele><time>2021-05-12T12:31:30Z</time><name>PT6714</name></trkpt>
<trkpt lat="53.101114" lon="06.010066"><ele>-2.7</ele><time>2021-05-12T12:31:31Z</time><name>PT6715</name></trkpt>
<trkpt lat="53.101108" lon="06.010048"><ele>-2.6</ele><time>2021-05-12T12:31:32Z</time><name>PT6716</name></trkpt>
<trkpt lat="53.101101" lon="06.010031"><ele>-2.6</ele><time>2021-05-12T12:31:33Z</time><name>PT6717</name></trkpt>
<trkpt lat="53.101094" lon="06.010012"><ele>-2.4</ele><time>2021-05-12T12:31:34Z</time><name>PT6718</name></trkpt>
<trkpt lat="53.101087" lon="06.009993"><ele>-2.3</ele><time>2021-05-12T12:31:35Z</time><name>PT6719</name></trkpt>
<trkpt lat="53.101080" lon="06.009977"><ele>-2.1</ele><time>2021-05-12T12:31:36Z</time><name>PT6720</name></trkpt>
<trkpt lat="53.101074" lon="06.009961"><ele>-2</ele><time>2021-05-12T12:31:37Z</time><name>PT6721</name></trkpt>
<trkpt lat="53.101067" lon="06.009943"><ele>-1.9</ele><time>2021-05-12T12:31:38Z</time><name>PT6722</name></trkpt>
<trkpt lat="53.101061" lon="06.009928"><ele>-2.1</ele><time>2021-05-12T12:31:39Z</time><name>PT6723</name></trkpt>
<trkpt lat="53.101056" lon="06.009910"><ele>-2.1</ele><time>2021-05-12T12:31:40Z</time><name>PT6724</name></trkpt>
<trkpt lat="53.101050" lon="06.009890"><ele>-2.1</ele><time>2021-05-12T12:31:41Z</time><name>PT6725</name></trkpt>
<trkpt lat="53.101043" lon="06.009871"><ele>-2.2</ele><time>2021-05-12T12:31:42Z</time><name>PT6726</name></trkpt>
<trkpt lat="53.101038" lon="06.009851"><ele>-2.4</ele><time>2021-05-12T12:31:43Z</time><name>PT6727</name></trkpt>
<trkpt lat="53.101034" lon="06.009833"><ele>-2.4</ele><time>2021-05-12T12:31:44Z</time><name>PT6728</name></trkpt>
<trkpt lat="53.101028" lon="06.009817"><ele>-2.6</ele><time>2021-05-12T12:31:45Z</time><name>PT6729</name></trkpt>
<trkpt lat="53.101021" lon="06.009800"><ele>-2.6</ele><time>2021-05-12T12:31:46Z</time><name>PT6730</name></trkpt>
<trkpt lat="53.101014" lon="06.009784"><ele>-2.8</ele><time>2021-05-12T12:31:47Z</time><name>PT6731</name></trkpt>
<trkpt lat="53.101005" lon="06.009767"><ele>-2.7</ele><time>2021-05-12T12:31:48Z</time><name>PT6732</name></trkpt>
<trkpt lat="53.100999" lon="06.009748"><ele>-2.6</ele><time>2021-05-12T12:31:49Z</time><name>PT6733</name></trkpt>
<trkpt lat="53.100991" lon="06.009731"><ele>-2.6</ele><time>2021-05-12T12:31:50Z</time><name>PT6734</name></trkpt>
<trkpt lat="53.100985" lon="06.009713"><ele>-2.4</ele><time>2021-05-12T12:31:51Z</time><name>PT6735</name></trkpt>
<trkpt lat="53.100980" lon="06.009696"><ele>-2.5</ele><time>2021-05-12T12:31:52Z</time><name>PT6736</name></trkpt>
<trkpt lat="53.100975" lon="06.009678"><ele>-2.4</ele><time>2021-05-12T12:31:53Z</time><name>PT6737</name></trkpt>
<trkpt lat="53.100971" lon="06.009659"><ele>-2.5</ele><time>2021-05-12T12:31:54Z</time><name>PT6738</name></trkpt>
<trkpt lat="53.100966" lon="06.009641"><ele>-2.4</ele><time>2021-05-12T12:31:55Z</time><name>PT6739</name></trkpt>
<trkpt lat="53.100960" lon="06.009622"><ele>-2.4</ele><time>2021-05-12T12:31:56Z</time><name>PT6740</name></trkpt>
<trkpt lat="53.100956" lon="06.009605"><ele>-2.4</ele><time>2021-05-12T12:31:57Z</time><name>PT6741</name></trkpt>
<trkpt lat="53.100950" lon="06.009587"><ele>-2.3</ele><time>2021-05-12T12:31:58Z</time><name>PT6742</name></trkpt>
<trkpt lat="53.100942" lon="06.009569"><ele>-2.2</ele><time>2021-05-12T12:31:59Z</time><name>PT6743</name></trkpt>
<trkpt lat="53.100935" lon="06.009553"><ele>-2.3</ele><time>2021-05-12T12:32:00Z</time><name>PT6744</name></trkpt>
<trkpt lat="53.100927" lon="06.009535"><ele>-2.1</ele><time>2021-05-12T12:32:01Z</time><name>PT6745</name></trkpt>
<trkpt lat="53.100919" lon="06.009517"><ele>-2.1</ele><time>2021-05-12T12:32:02Z</time><name>PT6746</name></trkpt>
<trkpt lat="53.100912" lon="06.009499"><ele>-2.4</ele><time>2021-05-12T12:32:03Z</time><name>PT6747</name></trkpt>
<trkpt lat="53.100906" lon="06.009482"><ele>-2.6</ele><time>2021-05-12T12:32:04Z</time><name>PT6748</name></trkpt>
<trkpt lat="53.100901" lon="06.009464"><ele>-2.6</ele><time>2021-05-12T12:32:05Z</time><name>PT6749</name></trkpt>
<trkpt lat="53.100897" lon="06.009445"><ele>-2.6</ele><time>2021-05-12T12:32:06Z</time><name>PT6750</name></trkpt>
<trkpt lat="53.100892" lon="06.009427"><ele>-2.6</ele><time>2021-05-12T12:32:07Z</time><name>PT6751</name></trkpt>
<trkpt lat="53.100888" lon="06.009408"><ele>-2.4</ele><time>2021-05-12T12:32:08Z</time><name>PT6752</name></trkpt>
<trkpt lat="53.100883" lon="06.009390"><ele>-2.3</ele><time>2021-05-12T12:32:09Z</time><name>PT6753</name></trkpt>
<trkpt lat="53.100876" lon="06.009374"><ele>-2.2</ele><time>2021-05-12T12:32:10Z</time><name>PT6754</name></trkpt>
<trkpt lat="53.100867" lon="06.009358"><ele>-2.3</ele><time>2021-05-12T12:32:11Z</time><name>PT6755</name></trkpt>
<trkpt lat="53.100859" lon="06.009341"><ele>-2.3</ele><time>2021-05-12T12:32:12Z</time><name>PT6756</name></trkpt>
<trkpt lat="53.100851" lon="06.009325"><ele>-2.4</ele><time>2021-05-12T12:32:13Z</time><name>PT6757</name></trkpt>
<trkpt lat="53.100844" lon="06.009307"><ele>-2.5</ele><time>2021-05-12T12:32:14Z</time><name>PT6758</name></trkpt>
<trkpt lat="53.100838" lon="06.009289"><ele>-2.6</ele><time>2021-05-12T12:32:15Z</time><name>PT6759</name></trkpt>
<trkpt lat="53.100831" lon="06.009272"><ele>-2.7</ele><time>2021-05-12T12:32:16Z</time><name>PT6760</name></trkpt>
<trkpt lat="53.100828" lon="06.009254"><ele>-2.9</ele><time>2021-05-12T12:32:17Z</time><name>PT6761</name></trkpt>
<trkpt lat="53.100822" lon="06.009233"><ele>-3.1</ele><time>2021-05-12T12:32:18Z</time><name>PT6762</name></trkpt>
<trkpt lat="53.100816" lon="06.009213"><ele>-3.1</ele><time>2021-05-12T12:32:19Z</time><name>PT6763</name></trkpt>
<trkpt lat="53.100810" lon="06.009195"><ele>-3.1</ele><time>2021-05-12T12:32:20Z</time><name>PT6764</name></trkpt>
<trkpt lat="53.100804" lon="06.009179"><ele>-3</ele><time>2021-05-12T12:32:21Z</time><name>PT6765</name></trkpt>
<trkpt lat="53.100798" lon="06.009162"><ele>-2.9</ele><time>2021-05-12T12:32:22Z</time><name>PT6766</name></trkpt>
<trkpt lat="53.100790" lon="06.009148"><ele>-3.1</ele><time>2021-05-12T12:32:23Z</time><name>PT6767</name></trkpt>
<trkpt lat="53.100784" lon="06.009130"><ele>-3.2</ele><time>2021-05-12T12:32:24Z</time><name>PT6768</name></trkpt>
<trkpt lat="53.100778" lon="06.009114"><ele>-3.3</ele><time>2021-05-12T12:32:25Z</time><name>PT6769</name></trkpt>
<trkpt lat="53.100774" lon="06.009099"><ele>-3.4</ele><time>2021-05-12T12:32:26Z</time><name>PT6770</name></trkpt>
<trkpt lat="53.100770" lon="06.009082"><ele>-3.6</ele><time>2021-05-12T12:32:27Z</time><name>PT6771</name></trkpt>
<trkpt lat="53.100765" lon="06.009063"><ele>-3.6</ele><time>2021-05-12T12:32:28Z</time><name>PT6772</name></trkpt>
<trkpt lat="53.100758" lon="06.009045"><ele>-3.7</ele><time>2021-05-12T12:32:29Z</time><name>PT6773</name></trkpt>
<trkpt lat="53.100753" lon="06.009028"><ele>-3.8</ele><time>2021-05-12T12:32:30Z</time><name>PT6774</name></trkpt>
<trkpt lat="53.100747" lon="06.009013"><ele>-3.6</ele><time>2021-05-12T12:32:31Z</time><name>PT6775</name></trkpt>
<trkpt lat="53.100740" lon="06.008996"><ele>-3.6</ele><time>2021-05-12T12:32:32Z</time><name>PT6776</name></trkpt>
<trkpt lat="53.100735" lon="06.008979"><ele>-3.3</ele><time>2021-05-12T12:32:33Z</time><name>PT6777</name></trkpt>
<trkpt lat="53.100730" lon="06.008964"><ele>-3.1</ele><time>2021-05-12T12:32:34Z</time><name>PT6778</name></trkpt>
<trkpt lat="53.100725" lon="06.008947"><ele>-3.1</ele><time>2021-05-12T12:32:35Z</time><name>PT6779</name></trkpt>
<trkpt lat="53.100720" lon="06.008930"><ele>-3.4</ele><time>2021-05-12T12:32:36Z</time><name>PT6780</name></trkpt>
<trkpt lat="53.100717" lon="06.008912"><ele>-3.6</ele><time>2021-05-12T12:32:37Z</time><name>PT6781</name></trkpt>
<trkpt lat="53.100712" lon="06.008893"><ele>-4</ele><time>2021-05-12T12:32:38Z</time><name>PT6782</name></trkpt>
<trkpt lat="53.100706" lon="06.008877"><ele>-4.3</ele><time>2021-05-12T12:32:39Z</time><name>PT6783</name></trkpt>
<trkpt lat="53.100701" lon="06.008861"><ele>-4.5</ele><time>2021-05-12T12:32:40Z</time><name>PT6784</name></trkpt>
<trkpt lat="53.100695" lon="06.008843"><ele>-4.5</ele><time>2021-05-12T12:32:41Z</time><name>PT6785</name></trkpt>
<trkpt lat="53.100688" lon="06.008825"><ele>-4.4</ele><time>2021-05-12T12:32:42Z</time><name>PT6786</name></trkpt>
<trkpt lat="53.100680" lon="06.008806"><ele>-4.1</ele><time>2021-05-12T12:32:43Z</time><name>PT6787</name></trkpt>
<trkpt lat="53.100673" lon="06.008788"><ele>-4</ele><time>2021-05-12T12:32:44Z</time><name>PT6788</name></trkpt>
<trkpt lat="53.100667" lon="06.008772"><ele>-3.6</ele><time>2021-05-12T12:32:45Z</time><name>PT6789</name></trkpt>
<trkpt lat="53.100662" lon="06.008755"><ele>-3.6</ele><time>2021-05-12T12:32:46Z</time><name>PT6790</name></trkpt>
<trkpt lat="53.100657" lon="06.008738"><ele>-3.6</ele><time>2021-05-12T12:32:47Z</time><name>PT6791</name></trkpt>
<trkpt lat="53.100651" lon="06.008721"><ele>-3.6</ele><time>2021-05-12T12:32:48Z</time><name>PT6792</name></trkpt>
<trkpt lat="53.100645" lon="06.008700"><ele>-3.6</ele><time>2021-05-12T12:32:49Z</time><name>PT6793</name></trkpt>
<trkpt lat="53.100640" lon="06.008683"><ele>-3.6</ele><time>2021-05-12T12:32:50Z</time><name>PT6794</name></trkpt>
<trkpt lat="53.100633" lon="06.008667"><ele>-3.6</ele><time>2021-05-12T12:32:51Z</time><name>PT6795</name></trkpt>
<trkpt lat="53.100626" lon="06.008650"><ele>-3.3</ele><time>2021-05-12T12:32:52Z</time><name>PT6796</name></trkpt>
<trkpt lat="53.100620" lon="06.008635"><ele>-3.4</ele><time>2021-05-12T12:32:53Z</time><name>PT6797</name></trkpt>
<trkpt lat="53.100612" lon="06.008619"><ele>-3.3</ele><time>2021-05-12T12:32:54Z</time><name>PT6798</name></trkpt>
<trkpt lat="53.100605" lon="06.008600"><ele>-3.3</ele><time>2021-05-12T12:32:55Z</time><name>PT6799</name></trkpt>
<trkpt lat="53.100599" lon="06.008583"><ele>-3.2</ele><time>2021-05-12T12:32:56Z</time><name>PT6800</name></trkpt>
<trkpt lat="53.100595" lon="06.008568"><ele>-3.1</ele><time>2021-05-12T12:32:57Z</time><name>PT6801</name></trkpt>
<trkpt lat="53.100593" lon="06.008552"><ele>-2.9</ele><time>2021-05-12T12:32:58Z</time><name>PT6802</name></trkpt>
<trkpt lat="53.100588" lon="06.008534"><ele>-3</ele><time>2021-05-12T12:32:59Z</time><name>PT6803</name></trkpt>
<trkpt lat="53.100583" lon="06.008516"><ele>-2.8</ele><time>2021-05-12T12:33:00Z</time><name>PT6804</name></trkpt>
<trkpt lat="53.100578" lon="06.008500"><ele>-2.8</ele><time>2021-05-12T12:33:01Z</time><name>PT6805</name></trkpt>
<trkpt lat="53.100571" lon="06.008484"><ele>-2.9</ele><time>2021-05-12T12:33:02Z</time><name>PT6806</name></trkpt>
<trkpt lat="53.100564" lon="06.008468"><ele>-2.7</ele><time>2021-05-12T12:33:03Z</time><name>PT6807</name></trkpt>
<trkpt lat="53.100558" lon="06.008453"><ele>-2.6</ele><time>2021-05-12T12:33:04Z</time><name>PT6808</name></trkpt>
<trkpt lat="53.100551" lon="06.008437"><ele>-2.6</ele><time>2021-05-12T12:33:05Z</time><name>PT6809</name></trkpt>
<trkpt lat="53.100544" lon="06.008420"><ele>-2.6</ele><time>2021-05-12T12:33:06Z</time><name>PT6810</name></trkpt>
<trkpt lat="53.100538" lon="06.008403"><ele>-2.3</ele><time>2021-05-12T12:33:07Z</time><name>PT6811</name></trkpt>
<trkpt lat="53.100533" lon="06.008385"><ele>-2.4</ele><time>2021-05-12T12:33:08Z</time><name>PT6812</name></trkpt>
<trkpt lat="53.100528" lon="06.008368"><ele>-2.2</ele><time>2021-05-12T12:33:09Z</time><name>PT6813</name></trkpt>
<trkpt lat="53.100524" lon="06.008350"><ele>-2.2</ele><time>2021-05-12T12:33:10Z</time><name>PT6814</name></trkpt>
<trkpt lat="53.100519" lon="06.008333"><ele>-2.2</ele><time>2021-05-12T12:33:11Z</time><name>PT6815</name></trkpt>
<trkpt lat="53.100512" lon="06.008318"><ele>-2.6</ele><time>2021-05-12T12:33:12Z</time><name>PT6816</name></trkpt>
<trkpt lat="53.100505" lon="06.008302"><ele>-2.8</ele><time>2021-05-12T12:33:13Z</time><name>PT6817</name></trkpt>
<trkpt lat="53.100499" lon="06.008286"><ele>-3.1</ele><time>2021-05-12T12:33:14Z</time><name>PT6818</name></trkpt>
<trkpt lat="53.100497" lon="06.008276"><ele>-3.1</ele><time>2021-05-12T12:33:15Z</time><name>PT6819</name></trkpt>
<trkpt lat="53.100492" lon="06.008262"><ele>-3.2</ele><time>2021-05-12T12:33:16Z</time><name>PT6820</name></trkpt>
<trkpt lat="53.100486" lon="06.008247"><ele>-3.3</ele><time>2021-05-12T12:33:17Z</time><name>PT6821</name></trkpt>
<trkpt lat="53.100480" lon="06.008228"><ele>-3.6</ele><time>2021-05-12T12:33:18Z</time><name>PT6822</name></trkpt>
<trkpt lat="53.100476" lon="06.008207"><ele>-3.6</ele><time>2021-05-12T12:33:19Z</time><name>PT6823</name></trkpt>
<trkpt lat="53.100470" lon="06.008189"><ele>-3.8</ele><time>2021-05-12T12:33:20Z</time><name>PT6824</name></trkpt>
<trkpt lat="53.100464" lon="06.008171"><ele>-4</ele><time>2021-05-12T12:33:21Z</time><name>PT6825</name></trkpt>
<trkpt lat="53.100456" lon="06.008154"><ele>-4</ele><time>2021-05-12T12:33:22Z</time><name>PT6826</name></trkpt>
<trkpt lat="53.100448" lon="06.008138"><ele>-3.8</ele><time>2021-05-12T12:33:23Z</time><name>PT6827</name></trkpt>
<trkpt lat="53.100441" lon="06.008121"><ele>-3.8</ele><time>2021-05-12T12:33:24Z</time><name>PT6828</name></trkpt>
<trkpt lat="53.100436" lon="06.008105"><ele>-3.7</ele><time>2021-05-12T12:33:25Z</time><name>PT6829</name></trkpt>
<trkpt lat="53.100431" lon="06.008089"><ele>-3.7</ele><time>2021-05-12T12:33:26Z</time><name>PT6830</name></trkpt>
<trkpt lat="53.100427" lon="06.008075"><ele>-3.7</ele><time>2021-05-12T12:33:27Z</time><name>PT6831</name></trkpt>
<trkpt lat="53.100423" lon="06.008059"><ele>-3.7</ele><time>2021-05-12T12:33:28Z</time><name>PT6832</name></trkpt>
<trkpt lat="53.100418" lon="06.008044"><ele>-3.6</ele><time>2021-05-12T12:33:29Z</time><name>PT6833</name></trkpt>
<trkpt lat="53.100412" lon="06.008029"><ele>-3.4</ele><time>2021-05-12T12:33:30Z</time><name>PT6834</name></trkpt>
<trkpt lat="53.100406" lon="06.008011"><ele>-3.1</ele><time>2021-05-12T12:33:31Z</time><name>PT6835</name></trkpt>
<trkpt lat="53.100398" lon="06.007993"><ele>-3</ele><time>2021-05-12T12:33:32Z</time><name>PT6836</name></trkpt>
<trkpt lat="53.100391" lon="06.007975"><ele>-2.8</ele><time>2021-05-12T12:33:33Z</time><name>PT6837</name></trkpt>
<trkpt lat="53.100384" lon="06.007958"><ele>-2.8</ele><time>2021-05-12T12:33:34Z</time><name>PT6838</name></trkpt>
<trkpt lat="53.100376" lon="06.007940"><ele>-2.7</ele><time>2021-05-12T12:33:35Z</time><name>PT6839</name></trkpt>
<trkpt lat="53.100371" lon="06.007922"><ele>-2.7</ele><time>2021-05-12T12:33:36Z</time><name>PT6840</name></trkpt>
<trkpt lat="53.100367" lon="06.007906"><ele>-2.6</ele><time>2021-05-12T12:33:37Z</time><name>PT6841</name></trkpt>
<trkpt lat="53.100364" lon="06.007888"><ele>-2.5</ele><time>2021-05-12T12:33:38Z</time><name>PT6842</name></trkpt>
<trkpt lat="53.100360" lon="06.007868"><ele>-2.6</ele><time>2021-05-12T12:33:39Z</time><name>PT6843</name></trkpt>
<trkpt lat="53.100355" lon="06.007850"><ele>-2.7</ele><time>2021-05-12T12:33:40Z</time><name>PT6844</name></trkpt>
<trkpt lat="53.100349" lon="06.007835"><ele>-2.6</ele><time>2021-05-12T12:33:41Z</time><name>PT6845</name></trkpt>
<trkpt lat="53.100344" lon="06.007818"><ele>-2.9</ele><time>2021-05-12T12:33:42Z</time><name>PT6846</name></trkpt>
<trkpt lat="53.100338" lon="06.007800"><ele>-2.8</ele><time>2021-05-12T12:33:43Z</time><name>PT6847</name></trkpt>
<trkpt lat="53.100332" lon="06.007782"><ele>-2.8</ele><time>2021-05-12T12:33:44Z</time><name>PT6848</name></trkpt>
<trkpt lat="53.100327" lon="06.007765"><ele>-2.8</ele><time>2021-05-12T12:33:45Z</time><name>PT6849</name></trkpt>
<trkpt lat="53.100322" lon="06.007747"><ele>-3</ele><time>2021-05-12T12:33:46Z</time><name>PT6850</name></trkpt>
<trkpt lat="53.100318" lon="06.007728"><ele>-2.9</ele><time>2021-05-12T12:33:47Z</time><name>PT6851</name></trkpt>
<trkpt lat="53.100314" lon="06.007710"><ele>-3</ele><time>2021-05-12T12:33:48Z</time><name>PT6852</name></trkpt>
<trkpt lat="53.100311" lon="06.007690"><ele>-3.1</ele><time>2021-05-12T12:33:49Z</time><name>PT6853</name></trkpt>
<trkpt lat="53.100306" lon="06.007674"><ele>-3.1</ele><time>2021-05-12T12:33:50Z</time><name>PT6854</name></trkpt>
<trkpt lat="53.100300" lon="06.007656"><ele>-3.1</ele><time>2021-05-12T12:33:51Z</time><name>PT6855</name></trkpt>
<trkpt lat="53.100292" lon="06.007636"><ele>-3</ele><time>2021-05-12T12:33:52Z</time><name>PT6856</name></trkpt>
<trkpt lat="53.100285" lon="06.007617"><ele>-3.1</ele><time>2021-05-12T12:33:53Z</time><name>PT6857</name></trkpt>
<trkpt lat="53.100279" lon="06.007599"><ele>-2.8</ele><time>2021-05-12T12:33:54Z</time><name>PT6858</name></trkpt>
<trkpt lat="53.100275" lon="06.007581"><ele>-2.8</ele><time>2021-05-12T12:33:55Z</time><name>PT6859</name></trkpt>
<trkpt lat="53.100272" lon="06.007561"><ele>-2.9</ele><time>2021-05-12T12:33:56Z</time><name>PT6860</name></trkpt>
<trkpt lat="53.100269" lon="06.007541"><ele>-3.1</ele><time>2021-05-12T12:33:57Z</time><name>PT6861</name></trkpt>
<trkpt lat="53.100267" lon="06.007519"><ele>-3.1</ele><time>2021-05-12T12:33:58Z</time><name>PT6862</name></trkpt>
<trkpt lat="53.100262" lon="06.007498"><ele>-3.1</ele><time>2021-05-12T12:33:59Z</time><name>PT6863</name></trkpt>
<trkpt lat="53.100258" lon="06.007477"><ele>-3.1</ele><time>2021-05-12T12:34:00Z</time><name>PT6864</name></trkpt>
<trkpt lat="53.100253" lon="06.007458"><ele>-3.2</ele><time>2021-05-12T12:34:01Z</time><name>PT6865</name></trkpt>
<trkpt lat="53.100249" lon="06.007441"><ele>-3.1</ele><time>2021-05-12T12:34:02Z</time><name>PT6866</name></trkpt>
<trkpt lat="53.100244" lon="06.007422"><ele>-3.1</ele><time>2021-05-12T12:34:03Z</time><name>PT6867</name></trkpt>
<trkpt lat="53.100238" lon="06.007404"><ele>-2.9</ele><time>2021-05-12T12:34:04Z</time><name>PT6868</name></trkpt>
<trkpt lat="53.100233" lon="06.007386"><ele>-2.6</ele><time>2021-05-12T12:34:05Z</time><name>PT6869</name></trkpt>
<trkpt lat="53.100227" lon="06.007369"><ele>-2.6</ele><time>2021-05-12T12:34:06Z</time><name>PT6870</name></trkpt>
<trkpt lat="53.100223" lon="06.007353"><ele>-2.6</ele><time>2021-05-12T12:34:07Z</time><name>PT6871</name></trkpt>
<trkpt lat="53.100220" lon="06.007334"><ele>-2.7</ele><time>2021-05-12T12:34:08Z</time><name>PT6872</name></trkpt>
<trkpt lat="53.100218" lon="06.007316"><ele>-2.8</ele><time>2021-05-12T12:34:09Z</time><name>PT6873</name></trkpt>
<trkpt lat="53.100214" lon="06.007299"><ele>-3</ele><time>2021-05-12T12:34:10Z</time><name>PT6874</name></trkpt>
<trkpt lat="53.100211" lon="06.007279"><ele>-3.1</ele><time>2021-05-12T12:34:11Z</time><name>PT6875</name></trkpt>
<trkpt lat="53.100206" lon="06.007257"><ele>-3.1</ele><time>2021-05-12T12:34:12Z</time><name>PT6876</name></trkpt>
<trkpt lat="53.100202" lon="06.007239"><ele>-2.8</ele><time>2021-05-12T12:34:13Z</time><name>PT6877</name></trkpt>
<trkpt lat="53.100198" lon="06.007221"><ele>-2.9</ele><time>2021-05-12T12:34:14Z</time><name>PT6878</name></trkpt>
<trkpt lat="53.100193" lon="06.007203"><ele>-2.7</ele><time>2021-05-12T12:34:15Z</time><name>PT6879</name></trkpt>
<trkpt lat="53.100190" lon="06.007186"><ele>-2.7</ele><time>2021-05-12T12:34:16Z</time><name>PT6880</name></trkpt>
<trkpt lat="53.100189" lon="06.007169"><ele>-2.7</ele><time>2021-05-12T12:34:17Z</time><name>PT6881</name></trkpt>
<trkpt lat="53.100187" lon="06.007150"><ele>-2.8</ele><time>2021-05-12T12:34:18Z</time><name>PT6882</name></trkpt>
<trkpt lat="53.100186" lon="06.007130"><ele>-2.8</ele><time>2021-05-12T12:34:19Z</time><name>PT6883</name></trkpt>
<trkpt lat="53.100184" lon="06.007110"><ele>-2.8</ele><time>2021-05-12T12:34:20Z</time><name>PT6884</name></trkpt>
<trkpt lat="53.100181" lon="06.007091"><ele>-2.8</ele><time>2021-05-12T12:34:21Z</time><name>PT6885</name></trkpt>
<trkpt lat="53.100180" lon="06.007071"><ele>-2.7</ele><time>2021-05-12T12:34:22Z</time><name>PT6886</name></trkpt>
<trkpt lat="53.100177" lon="06.007052"><ele>-2.8</ele><time>2021-05-12T12:34:23Z</time><name>PT6887</name></trkpt>
<trkpt lat="53.100176" lon="06.007036"><ele>-2.8</ele><time>2021-05-12T12:34:24Z</time><name>PT6888</name></trkpt>
<trkpt lat="53.100174" lon="06.007020"><ele>-2.7</ele><time>2021-05-12T12:34:25Z</time><name>PT6889</name></trkpt>
<trkpt lat="53.100173" lon="06.007001"><ele>-2.8</ele><time>2021-05-12T12:34:26Z</time><name>PT6890</name></trkpt>
<trkpt lat="53.100174" lon="06.006984"><ele>-2.9</ele><time>2021-05-12T12:34:27Z</time><name>PT6891</name></trkpt>
<trkpt lat="53.100173" lon="06.006968"><ele>-2.9</ele><time>2021-05-12T12:34:28Z</time><name>PT6892</name></trkpt>
<trkpt lat="53.100171" lon="06.006950"><ele>-3.1</ele><time>2021-05-12T12:34:29Z</time><name>PT6893</name></trkpt>
<trkpt lat="53.100170" lon="06.006934"><ele>-3.2</ele><time>2021-05-12T12:34:30Z</time><name>PT6894</name></trkpt>
<trkpt lat="53.100168" lon="06.006918"><ele>-3.2</ele><time>2021-05-12T12:34:31Z</time><name>PT6895</name></trkpt>
<trkpt lat="53.100165" lon="06.006901"><ele>-3.3</ele><time>2021-05-12T12:34:32Z</time><name>PT6896</name></trkpt>
<trkpt lat="53.100166" lon="06.006884"><ele>-3.4</ele><time>2021-05-12T12:34:33Z</time><name>PT6897</name></trkpt>
<trkpt lat="53.100165" lon="06.006863"><ele>-3.3</ele><time>2021-05-12T12:34:34Z</time><name>PT6898</name></trkpt>
<trkpt lat="53.100165" lon="06.006842"><ele>-3.4</ele><time>2021-05-12T12:34:35Z</time><name>PT6899</name></trkpt>
<trkpt lat="53.100164" lon="06.006825"><ele>-3.3</ele><time>2021-05-12T12:34:36Z</time><name>PT6900</name></trkpt>
<trkpt lat="53.100162" lon="06.006807"><ele>-3.6</ele><time>2021-05-12T12:34:37Z</time><name>PT6901</name></trkpt>
<trkpt lat="53.100160" lon="06.006789"><ele>-3.6</ele><time>2021-05-12T12:34:38Z</time><name>PT6902</name></trkpt>
<trkpt lat="53.100157" lon="06.006770"><ele>-3.5</ele><time>2021-05-12T12:34:39Z</time><name>PT6903</name></trkpt>
<trkpt lat="53.100156" lon="06.006751"><ele>-3.2</ele><time>2021-05-12T12:34:40Z</time><name>PT6904</name></trkpt>
<trkpt lat="53.100155" lon="06.006732"><ele>-3.2</ele><time>2021-05-12T12:34:41Z</time><name>PT6905</name></trkpt>
<trkpt lat="53.100155" lon="06.006711"><ele>-3.3</ele><time>2021-05-12T12:34:42Z</time><name>PT6906</name></trkpt>
<trkpt lat="53.100155" lon="06.006689"><ele>-3.5</ele><time>2021-05-12T12:34:43Z</time><name>PT6907</name></trkpt>
<trkpt lat="53.100155" lon="06.006667"><ele>-3.5</ele><time>2021-05-12T12:34:44Z</time><name>PT6908</name></trkpt>
<trkpt lat="53.100153" lon="06.006648"><ele>-3.4</ele><time>2021-05-12T12:34:45Z</time><name>PT6909</name></trkpt>
<trkpt lat="53.100151" lon="06.006627"><ele>-3.4</ele><time>2021-05-12T12:34:46Z</time><name>PT6910</name></trkpt>
<trkpt lat="53.100149" lon="06.006607"><ele>-3.3</ele><time>2021-05-12T12:34:47Z</time><name>PT6911</name></trkpt>
<trkpt lat="53.100147" lon="06.006585"><ele>-3.3</ele><time>2021-05-12T12:34:48Z</time><name>PT6912</name></trkpt>
<trkpt lat="53.100145" lon="06.006564"><ele>-3.4</ele><time>2021-05-12T12:34:49Z</time><name>PT6913</name></trkpt>
<trkpt lat="53.100143" lon="06.006544"><ele>-3.5</ele><time>2021-05-12T12:34:50Z</time><name>PT6914</name></trkpt>
<trkpt lat="53.100143" lon="06.006526"><ele>-3.5</ele><time>2021-05-12T12:34:51Z</time><name>PT6915</name></trkpt>
<trkpt lat="53.100143" lon="06.006505"><ele>-3.4</ele><time>2021-05-12T12:34:52Z</time><name>PT6916</name></trkpt>
<trkpt lat="53.100144" lon="06.006485"><ele>-3.4</ele><time>2021-05-12T12:34:53Z</time><name>PT6917</name></trkpt>
<trkpt lat="53.100144" lon="06.006467"><ele>-3.4</ele><time>2021-05-12T12:34:54Z</time><name>PT6918</name></trkpt>
<trkpt lat="53.100144" lon="06.006448"><ele>-3.4</ele><time>2021-05-12T12:34:55Z</time><name>PT6919</name></trkpt>
<trkpt lat="53.100142" lon="06.006425"><ele>-3.4</ele><time>2021-05-12T12:34:56Z</time><name>PT6920</name></trkpt>
<trkpt lat="53.100142" lon="06.006404"><ele>-3.5</ele><time>2021-05-12T12:34:57Z</time><name>PT6921</name></trkpt>
<trkpt lat="53.100141" lon="06.006384"><ele>-3.6</ele><time>2021-05-12T12:34:58Z</time><name>PT6922</name></trkpt>
<trkpt lat="53.100142" lon="06.006367"><ele>-3.8</ele><time>2021-05-12T12:34:59Z</time><name>PT6923</name></trkpt>
<trkpt lat="53.100143" lon="06.006347"><ele>-3.6</ele><time>2021-05-12T12:35:00Z</time><name>PT6924</name></trkpt>
<trkpt lat="53.100145" lon="06.006328"><ele>-3.6</ele><time>2021-05-12T12:35:01Z</time><name>PT6925</name></trkpt>
<trkpt lat="53.100146" lon="06.006309"><ele>-3.3</ele><time>2021-05-12T12:35:02Z</time><name>PT6926</name></trkpt>
<trkpt lat="53.100147" lon="06.006291"><ele>-3.1</ele><time>2021-05-12T12:35:03Z</time><name>PT6927</name></trkpt>
<trkpt lat="53.100146" lon="06.006271"><ele>-3.2</ele><time>2021-05-12T12:35:04Z</time><name>PT6928</name></trkpt>
<trkpt lat="53.100145" lon="06.006252"><ele>-3.2</ele><time>2021-05-12T12:35:05Z</time><name>PT6929</name></trkpt>
<trkpt lat="53.100144" lon="06.006231"><ele>-3.4</ele><time>2021-05-12T12:35:06Z</time><name>PT6930</name></trkpt>
<trkpt lat="53.100143" lon="06.006212"><ele>-3.5</ele><time>2021-05-12T12:35:07Z</time><name>PT6931</name></trkpt>
<trkpt lat="53.100144" lon="06.006193"><ele>-3.7</ele><time>2021-05-12T12:35:08Z</time><name>PT6932</name></trkpt>
<trkpt lat="53.100147" lon="06.006174"><ele>-3.7</ele><time>2021-05-12T12:35:09Z</time><name>PT6933</name></trkpt>
<trkpt lat="53.100148" lon="06.006154"><ele>-3.7</ele><time>2021-05-12T12:35:10Z</time><name>PT6934</name></trkpt>
<trkpt lat="53.100149" lon="06.006134"><ele>-3.7</ele><time>2021-05-12T12:35:11Z</time><name>PT6935</name></trkpt>
<trkpt lat="53.100149" lon="06.006115"><ele>-3.2</ele><time>2021-05-12T12:35:12Z</time><name>PT6936</name></trkpt>
<trkpt lat="53.100147" lon="06.006095"><ele>-3.3</ele><time>2021-05-12T12:35:13Z</time><name>PT6937</name></trkpt>
<trkpt lat="53.100146" lon="06.006075"><ele>-3.3</ele><time>2021-05-12T12:35:14Z</time><name>PT6938</name></trkpt>
<trkpt lat="53.100146" lon="06.006053"><ele>-3.2</ele><time>2021-05-12T12:35:15Z</time><name>PT6939</name></trkpt>
<trkpt lat="53.100145" lon="06.006034"><ele>-3.2</ele><time>2021-05-12T12:35:16Z</time><name>PT6940</name></trkpt>
<trkpt lat="53.100146" lon="06.006016"><ele>-3.4</ele><time>2021-05-12T12:35:17Z</time><name>PT6941</name></trkpt>
<trkpt lat="53.100146" lon="06.005996"><ele>-3.3</ele><time>2021-05-12T12:35:18Z</time><name>PT6942</name></trkpt>
<trkpt lat="53.100147" lon="06.005978"><ele>-3.3</ele><time>2021-05-12T12:35:19Z</time><name>PT6943</name></trkpt>
<trkpt lat="53.100149" lon="06.005960"><ele>-3.3</ele><time>2021-05-12T12:35:20Z</time><name>PT6944</name></trkpt>
<trkpt lat="53.100149" lon="06.005942"><ele>-3.4</ele><time>2021-05-12T12:35:21Z</time><name>PT6945</name></trkpt>
<trkpt lat="53.100149" lon="06.005922"><ele>-3.6</ele><time>2021-05-12T12:35:22Z</time><name>PT6946</name></trkpt>
<trkpt lat="53.100151" lon="06.005901"><ele>-3.6</ele><time>2021-05-12T12:35:23Z</time><name>PT6947</name></trkpt>
<trkpt lat="53.100152" lon="06.005881"><ele>-3.6</ele><time>2021-05-12T12:35:24Z</time><name>PT6948</name></trkpt>
<trkpt lat="53.100154" lon="06.005864"><ele>-3.5</ele><time>2021-05-12T12:35:25Z</time><name>PT6949</name></trkpt>
<trkpt lat="53.100156" lon="06.005845"><ele>-3.3</ele><time>2021-05-12T12:35:26Z</time><name>PT6950</name></trkpt>
<trkpt lat="53.100160" lon="06.005826"><ele>-3.2</ele><time>2021-05-12T12:35:27Z</time><name>PT6951</name></trkpt>
<trkpt lat="53.100162" lon="06.005807"><ele>-3.1</ele><time>2021-05-12T12:35:28Z</time><name>PT6952</name></trkpt>
<trkpt lat="53.100163" lon="06.005787"><ele>-3.1</ele><time>2021-05-12T12:35:29Z</time><name>PT6953</name></trkpt>
<trkpt lat="53.100163" lon="06.005766"><ele>-3.1</ele><time>2021-05-12T12:35:30Z</time><name>PT6954</name></trkpt>
<trkpt lat="53.100163" lon="06.005748"><ele>-3.2</ele><time>2021-05-12T12:35:31Z</time><name>PT6955</name></trkpt>
<trkpt lat="53.100164" lon="06.005729"><ele>-3.3</ele><time>2021-05-12T12:35:32Z</time><name>PT6956</name></trkpt>
<trkpt lat="53.100165" lon="06.005711"><ele>-3.5</ele><time>2021-05-12T12:35:33Z</time><name>PT6957</name></trkpt>
<trkpt lat="53.100168" lon="06.005690"><ele>-3.6</ele><time>2021-05-12T12:35:34Z</time><name>PT6958</name></trkpt>
<trkpt lat="53.100172" lon="06.005669"><ele>-3.8</ele><time>2021-05-12T12:35:35Z</time><name>PT6959</name></trkpt>
<trkpt lat="53.100175" lon="06.005649"><ele>-3.9</ele><time>2021-05-12T12:35:36Z</time><name>PT6960</name></trkpt>
<trkpt lat="53.100176" lon="06.005628"><ele>-3.9</ele><time>2021-05-12T12:35:37Z</time><name>PT6961</name></trkpt>
<trkpt lat="53.100177" lon="06.005608"><ele>-4</ele><time>2021-05-12T12:35:38Z</time><name>PT6962</name></trkpt>
<trkpt lat="53.100178" lon="06.005588"><ele>-4</ele><time>2021-05-12T12:35:39Z</time><name>PT6963</name></trkpt>
<trkpt lat="53.100179" lon="06.005567"><ele>-4</ele><time>2021-05-12T12:35:40Z</time><name>PT6964</name></trkpt>
<trkpt lat="53.100179" lon="06.005545"><ele>-3.7</ele><time>2021-05-12T12:35:41Z</time><name>PT6965</name></trkpt>
<trkpt lat="53.100180" lon="06.005524"><ele>-3.5</ele><time>2021-05-12T12:35:42Z</time><name>PT6966</name></trkpt>
<trkpt lat="53.100183" lon="06.005503"><ele>-3.6</ele><time>2021-05-12T12:35:43Z</time><name>PT6967</name></trkpt>
<trkpt lat="53.100185" lon="06.005482"><ele>-3.5</ele><time>2021-05-12T12:35:44Z</time><name>PT6968</name></trkpt>
<trkpt lat="53.100187" lon="06.005462"><ele>-3.6</ele><time>2021-05-12T12:35:45Z</time><name>PT6969</name></trkpt>
<trkpt lat="53.100188" lon="06.005443"><ele>-3.7</ele><time>2021-05-12T12:35:46Z</time><name>PT6970</name></trkpt>
<trkpt lat="53.100189" lon="06.005420"><ele>-3.9</ele><time>2021-05-12T12:35:47Z</time><name>PT6971</name></trkpt>
<trkpt lat="53.100190" lon="06.005400"><ele>-3.6</ele><time>2021-05-12T12:35:48Z</time><name>PT6972</name></trkpt>
<trkpt lat="53.100192" lon="06.005375"><ele>-3.6</ele><time>2021-05-12T12:35:49Z</time><name>PT6973</name></trkpt>
<trkpt lat="53.100194" lon="06.005355"><ele>-3.6</ele><time>2021-05-12T12:35:50Z</time><name>PT6974</name></trkpt>
<trkpt lat="53.100195" lon="06.005336"><ele>-3.6</ele><time>2021-05-12T12:35:51Z</time><name>PT6975</name></trkpt>
<trkpt lat="53.100198" lon="06.005318"><ele>-3.6</ele><time>2021-05-12T12:35:52Z</time><name>PT6976</name></trkpt>
<trkpt lat="53.100200" lon="06.005297"><ele>-3.8</ele><time>2021-05-12T12:35:53Z</time><name>PT6977</name></trkpt>
<trkpt lat="53.100201" lon="06.005278"><ele>-3.9</ele><time>2021-05-12T12:35:54Z</time><name>PT6978</name></trkpt>
<trkpt lat="53.100201" lon="06.005258"><ele>-3.9</ele><time>2021-05-12T12:35:55Z</time><name>PT6979</name></trkpt>
<trkpt lat="53.100200" lon="06.005236"><ele>-3.8</ele><time>2021-05-12T12:35:56Z</time><name>PT6980</name></trkpt>
<trkpt lat="53.100199" lon="06.005216"><ele>-3.7</ele><time>2021-05-12T12:35:57Z</time><name>PT6981</name></trkpt>
<trkpt lat="53.100198" lon="06.005196"><ele>-3.7</ele><time>2021-05-12T12:35:58Z</time><name>PT6982</name></trkpt>
<trkpt lat="53.100199" lon="06.005178"><ele>-3.7</ele><time>2021-05-12T12:35:59Z</time><name>PT6983</name></trkpt>
<trkpt lat="53.100206" lon="06.005161"><ele>-3.7</ele><time>2021-05-12T12:36:00Z</time><name>PT6984</name></trkpt>
<trkpt lat="53.100209" lon="06.005142"><ele>-3.6</ele><time>2021-05-12T12:36:01Z</time><name>PT6985</name></trkpt>
<trkpt lat="53.100214" lon="06.005124"><ele>-3.6</ele><time>2021-05-12T12:36:02Z</time><name>PT6986</name></trkpt>
<trkpt lat="53.100218" lon="06.005107"><ele>-3.6</ele><time>2021-05-12T12:36:03Z</time><name>PT6987</name></trkpt>
<trkpt lat="53.100219" lon="06.005087"><ele>-3.6</ele><time>2021-05-12T12:36:04Z</time><name>PT6988</name></trkpt>
<trkpt lat="53.100216" lon="06.005067"><ele>-3.6</ele><time>2021-05-12T12:36:05Z</time><name>PT6989</name></trkpt>
<trkpt lat="53.100217" lon="06.005050"><ele>-3.8</ele><time>2021-05-12T12:36:06Z</time><name>PT6990</name></trkpt>
<trkpt lat="53.100218" lon="06.005032"><ele>-3.7</ele><time>2021-05-12T12:36:07Z</time><name>PT6991</name></trkpt>
<trkpt lat="53.100221" lon="06.005013"><ele>-3.6</ele><time>2021-05-12T12:36:08Z</time><name>PT6992</name></trkpt>
<trkpt lat="53.100223" lon="06.004993"><ele>-3.6</ele><time>2021-05-12T12:36:09Z</time><name>PT6993</name></trkpt>
<trkpt lat="53.100224" lon="06.004975"><ele>-3.7</ele><time>2021-05-12T12:36:10Z</time><name>PT6994</name></trkpt>
<trkpt lat="53.100226" lon="06.004958"><ele>-3.6</ele><time>2021-05-12T12:36:11Z</time><name>PT6995</name></trkpt>
<trkpt lat="53.100226" lon="06.004939"><ele>-3.9</ele><time>2021-05-12T12:36:12Z</time><name>PT6996</name></trkpt>
<trkpt lat="53.100226" lon="06.004919"><ele>-3.8</ele><time>2021-05-12T12:36:13Z</time><name>PT6997</name></trkpt>
<trkpt lat="53.100227" lon="06.004899"><ele>-3.6</ele><time>2021-05-12T12:36:14Z</time><name>PT6998</name></trkpt>
<trkpt lat="53.100231" lon="06.004881"><ele>-3.6</ele><time>2021-05-12T12:36:15Z</time><name>PT6999</name></trkpt>
<trkpt lat="53.100235" lon="06.004864"><ele>-3.4</ele><time>2021-05-12T12:36:16Z</time><name>PT7000</name></trkpt>
<trkpt lat="53.100240" lon="06.004845"><ele>-3.3</ele><time>2021-05-12T12:36:17Z</time><name>PT7001</name></trkpt>
<trkpt lat="53.100242" lon="06.004826"><ele>-3.1</ele><time>2021-05-12T12:36:18Z</time><name>PT7002</name></trkpt>
<trkpt lat="53.100245" lon="06.004808"><ele>-3.2</ele><time>2021-05-12T12:36:19Z</time><name>PT7003</name></trkpt>
<trkpt lat="53.100247" lon="06.004790"><ele>-3.1</ele><time>2021-05-12T12:36:20Z</time><name>PT7004</name></trkpt>
<trkpt lat="53.100248" lon="06.004771"><ele>-3.1</ele><time>2021-05-12T12:36:21Z</time><name>PT7005</name></trkpt>
<trkpt lat="53.100249" lon="06.004755"><ele>-3.1</ele><time>2021-05-12T12:36:22Z</time><name>PT7006</name></trkpt>
<trkpt lat="53.100252" lon="06.004736"><ele>-3.1</ele><time>2021-05-12T12:36:23Z</time><name>PT7007</name></trkpt>
<trkpt lat="53.100253" lon="06.004717"><ele>-3.1</ele><time>2021-05-12T12:36:24Z</time><name>PT7008</name></trkpt>
<trkpt lat="53.100253" lon="06.004700"><ele>-3.1</ele><time>2021-05-12T12:36:25Z</time><name>PT7009</name></trkpt>
<trkpt lat="53.100252" lon="06.004682"><ele>-3.1</ele><time>2021-05-12T12:36:26Z</time><name>PT7010</name></trkpt>
<trkpt lat="53.100254" lon="06.004663"><ele>-3.1</ele><time>2021-05-12T12:36:27Z</time><name>PT7011</name></trkpt>
<trkpt lat="53.100255" lon="06.004642"><ele>-3</ele><time>2021-05-12T12:36:28Z</time><name>PT7012</name></trkpt>
<trkpt lat="53.100256" lon="06.004622"><ele>-2.8</ele><time>2021-05-12T12:36:29Z</time><name>PT7013</name></trkpt>
<trkpt lat="53.100258" lon="06.004603"><ele>-2.6</ele><time>2021-05-12T12:36:30Z</time><name>PT7014</name></trkpt>
<trkpt lat="53.100262" lon="06.004585"><ele>-2.5</ele><time>2021-05-12T12:36:31Z</time><name>PT7015</name></trkpt>
<trkpt lat="53.100267" lon="06.004566"><ele>-2.5</ele><time>2021-05-12T12:36:32Z</time><name>PT7016</name></trkpt>
<trkpt lat="53.100270" lon="06.004546"><ele>-2.5</ele><time>2021-05-12T12:36:33Z</time><name>PT7017</name></trkpt>
<trkpt lat="53.100272" lon="06.004526"><ele>-2.6</ele><time>2021-05-12T12:36:34Z</time><name>PT7018</name></trkpt>
<trkpt lat="53.100275" lon="06.004507"><ele>-2.6</ele><time>2021-05-12T12:36:35Z</time><name>PT7019</name></trkpt>
<trkpt lat="53.100278" lon="06.004489"><ele>-2.6</ele><time>2021-05-12T12:36:36Z</time><name>PT7020</name></trkpt>
<trkpt lat="53.100280" lon="06.004469"><ele>-2.6</ele><time>2021-05-12T12:36:37Z</time><name>PT7021</name></trkpt>
<trkpt lat="53.100281" lon="06.004449"><ele>-2.6</ele><time>2021-05-12T12:36:38Z</time><name>PT7022</name></trkpt>
<trkpt lat="53.100282" lon="06.004428"><ele>-2.7</ele><time>2021-05-12T12:36:39Z</time><name>PT7023</name></trkpt>
<trkpt lat="53.100282" lon="06.004406"><ele>-2.7</ele><time>2021-05-12T12:36:40Z</time><name>PT7024</name></trkpt>
<trkpt lat="53.100283" lon="06.004387"><ele>-3</ele><time>2021-05-12T12:36:41Z</time><name>PT7025</name></trkpt>
<trkpt lat="53.100284" lon="06.004368"><ele>-3.3</ele><time>2021-05-12T12:36:42Z</time><name>PT7026</name></trkpt>
<trkpt lat="53.100286" lon="06.004348"><ele>-3.4</ele><time>2021-05-12T12:36:43Z</time><name>PT7027</name></trkpt>
<trkpt lat="53.100288" lon="06.004324"><ele>-3.6</ele><time>2021-05-12T12:36:44Z</time><name>PT7028</name></trkpt>
<trkpt lat="53.100291" lon="06.004304"><ele>-3.6</ele><time>2021-05-12T12:36:45Z</time><name>PT7029</name></trkpt>
<trkpt lat="53.100293" lon="06.004286"><ele>-3.6</ele><time>2021-05-12T12:36:46Z</time><name>PT7030</name></trkpt>
<trkpt lat="53.100296" lon="06.004266"><ele>-3.5</ele><time>2021-05-12T12:36:47Z</time><name>PT7031</name></trkpt>
<trkpt lat="53.100299" lon="06.004247"><ele>-3.4</ele><time>2021-05-12T12:36:48Z</time><name>PT7032</name></trkpt>
<trkpt lat="53.100300" lon="06.004232"><ele>-3.5</ele><time>2021-05-12T12:36:49Z</time><name>PT7033</name></trkpt>
<trkpt lat="53.100301" lon="06.004214"><ele>-3.4</ele><time>2021-05-12T12:36:50Z</time><name>PT7034</name></trkpt>
<trkpt lat="53.100301" lon="06.004194"><ele>-3.3</ele><time>2021-05-12T12:36:51Z</time><name>PT7035</name></trkpt>
<trkpt lat="53.100302" lon="06.004175"><ele>-3.2</ele><time>2021-05-12T12:36:52Z</time><name>PT7036</name></trkpt>
<trkpt lat="53.100302" lon="06.004157"><ele>-3.4</ele><time>2021-05-12T12:36:53Z</time><name>PT7037</name></trkpt>
<trkpt lat="53.100304" lon="06.004140"><ele>-3.6</ele><time>2021-05-12T12:36:54Z</time><name>PT7038</name></trkpt>
<trkpt lat="53.100306" lon="06.004122"><ele>-3.8</ele><time>2021-05-12T12:36:55Z</time><name>PT7039</name></trkpt>
<trkpt lat="53.100309" lon="06.004109"><ele>-3.8</ele><time>2021-05-12T12:36:56Z</time><name>PT7040</name></trkpt>
<trkpt lat="53.100307" lon="06.004096"><ele>-4.3</ele><time>2021-05-12T12:36:57Z</time><name>PT7041</name></trkpt>
<trkpt lat="53.100304" lon="06.004077"><ele>-4.2</ele><time>2021-05-12T12:36:58Z</time><name>PT7042</name></trkpt>
<trkpt lat="53.100306" lon="06.004056"><ele>-4</ele><time>2021-05-12T12:36:59Z</time><name>PT7043</name></trkpt>
<trkpt lat="53.100309" lon="06.004030"><ele>-3.4</ele><time>2021-05-12T12:37:00Z</time><name>PT7044</name></trkpt>
<trkpt lat="53.100306" lon="06.004001"><ele>-3.3</ele><time>2021-05-12T12:37:01Z</time><name>PT7045</name></trkpt>
<trkpt lat="53.100301" lon="06.003980"><ele>-3</ele><time>2021-05-12T12:37:02Z</time><name>PT7046</name></trkpt>
<trkpt lat="53.100305" lon="06.003958"><ele>-3.1</ele><time>2021-05-12T12:37:03Z</time><name>PT7047</name></trkpt>
<trkpt lat="53.100306" lon="06.003937"><ele>-3.2</ele><time>2021-05-12T12:37:04Z</time><name>PT7048</name></trkpt>
<trkpt lat="53.100306" lon="06.003920"><ele>-3.6</ele><time>2021-05-12T12:37:05Z</time><name>PT7049</name></trkpt>
<trkpt lat="53.100307" lon="06.003899"><ele>-3.7</ele><time>2021-05-12T12:37:06Z</time><name>PT7050</name></trkpt>
<trkpt lat="53.100309" lon="06.003879"><ele>-3.7</ele><time>2021-05-12T12:37:07Z</time><name>PT7051</name></trkpt>
<trkpt lat="53.100312" lon="06.003862"><ele>-3.7</ele><time>2021-05-12T12:37:08Z</time><name>PT7052</name></trkpt>
<trkpt lat="53.100314" lon="06.003843"><ele>-3.5</ele><time>2021-05-12T12:37:09Z</time><name>PT7053</name></trkpt>
<trkpt lat="53.100315" lon="06.003824"><ele>-3.6</ele><time>2021-05-12T12:37:10Z</time><name>PT7054</name></trkpt>
<trkpt lat="53.100316" lon="06.003805"><ele>-3.4</ele><time>2021-05-12T12:37:11Z</time><name>PT7055</name></trkpt>
<trkpt lat="53.100317" lon="06.003787"><ele>-3.1</ele><time>2021-05-12T12:37:12Z</time><name>PT7056</name></trkpt>
<trkpt lat="53.100319" lon="06.003770"><ele>-3.1</ele><time>2021-05-12T12:37:13Z</time><name>PT7057</name></trkpt>
<trkpt lat="53.100320" lon="06.003751"><ele>-3.3</ele><time>2021-05-12T12:37:14Z</time><name>PT7058</name></trkpt>
<trkpt lat="53.100323" lon="06.003731"><ele>-3.1</ele><time>2021-05-12T12:37:15Z</time><name>PT7059</name></trkpt>
<trkpt lat="53.100326" lon="06.003711"><ele>-3.3</ele><time>2021-05-12T12:37:16Z</time><name>PT7060</name></trkpt>
<trkpt lat="53.100330" lon="06.003691"><ele>-3.4</ele><time>2021-05-12T12:37:17Z</time><name>PT7061</name></trkpt>
<trkpt lat="53.100335" lon="06.003675"><ele>-3.5</ele><time>2021-05-12T12:37:18Z</time><name>PT7062</name></trkpt>
<trkpt lat="53.100338" lon="06.003657"><ele>-3.6</ele><time>2021-05-12T12:37:19Z</time><name>PT7063</name></trkpt>
<trkpt lat="53.100340" lon="06.003640"><ele>-3.6</ele><time>2021-05-12T12:37:20Z</time><name>PT7064</name></trkpt>
<trkpt lat="53.100341" lon="06.003624"><ele>-3.5</ele><time>2021-05-12T12:37:21Z</time><name>PT7065</name></trkpt>
<trkpt lat="53.100342" lon="06.003608"><ele>-3.6</ele><time>2021-05-12T12:37:22Z</time><name>PT7066</name></trkpt>
<trkpt lat="53.100342" lon="06.003589"><ele>-3.6</ele><time>2021-05-12T12:37:23Z</time><name>PT7067</name></trkpt>
<trkpt lat="53.100343" lon="06.003570"><ele>-3.5</ele><time>2021-05-12T12:37:24Z</time><name>PT7068</name></trkpt>
<trkpt lat="53.100344" lon="06.003550"><ele>-3.6</ele><time>2021-05-12T12:37:25Z</time><name>PT7069</name></trkpt>
<trkpt lat="53.100345" lon="06.003531"><ele>-3.2</ele><time>2021-05-12T12:37:26Z</time><name>PT7070</name></trkpt>
<trkpt lat="53.100346" lon="06.003513"><ele>-3.2</ele><time>2021-05-12T12:37:27Z</time><name>PT7071</name></trkpt>
<trkpt lat="53.100346" lon="06.003494"><ele>-3.1</ele><time>2021-05-12T12:37:28Z</time><name>PT7072</name></trkpt>
<trkpt lat="53.100344" lon="06.003473"><ele>-3.2</ele><time>2021-05-12T12:37:29Z</time><name>PT7073</name></trkpt>
<trkpt lat="53.100344" lon="06.003452"><ele>-3.2</ele><time>2021-05-12T12:37:30Z</time><name>PT7074</name></trkpt>
<trkpt lat="53.100346" lon="06.003431"><ele>-3.3</ele><time>2021-05-12T12:37:31Z</time><name>PT7075</name></trkpt>
<trkpt lat="53.100347" lon="06.003412"><ele>-3.4</ele><time>2021-05-12T12:37:32Z</time><name>PT7076</name></trkpt>
<trkpt lat="53.100348" lon="06.003395"><ele>-3.2</ele><time>2021-05-12T12:37:33Z</time><name>PT7077</name></trkpt>
<trkpt lat="53.100350" lon="06.003377"><ele>-3</ele><time>2021-05-12T12:37:34Z</time><name>PT7078</name></trkpt>
<trkpt lat="53.100354" lon="06.003358"><ele>-3.1</ele><time>2021-05-12T12:37:35Z</time><name>PT7079</name></trkpt>
<trkpt lat="53.100357" lon="06.003338"><ele>-3.2</ele><time>2021-05-12T12:37:36Z</time><name>PT7080</name></trkpt>
<trkpt lat="53.100360" lon="06.003319"><ele>-3.4</ele><time>2021-05-12T12:37:37Z</time><name>PT7081</name></trkpt>
<trkpt lat="53.100362" lon="06.003300"><ele>-3.5</ele><time>2021-05-12T12:37:38Z</time><name>PT7082</name></trkpt>
<trkpt lat="53.100363" lon="06.003282"><ele>-3.5</ele><time>2021-05-12T12:37:39Z</time><name>PT7083</name></trkpt>
<trkpt lat="53.100363" lon="06.003263"><ele>-3.4</ele><time>2021-05-12T12:37:40Z</time><name>PT7084</name></trkpt>
<trkpt lat="53.100363" lon="06.003245"><ele>-3.2</ele><time>2021-05-12T12:37:41Z</time><name>PT7085</name></trkpt>
<trkpt lat="53.100363" lon="06.003228"><ele>-3.1</ele><time>2021-05-12T12:37:42Z</time><name>PT7086</name></trkpt>
<trkpt lat="53.100365" lon="06.003211"><ele>-3</ele><time>2021-05-12T12:37:43Z</time><name>PT7087</name></trkpt>
<trkpt lat="53.100368" lon="06.003192"><ele>-3</ele><time>2021-05-12T12:37:44Z</time><name>PT7088</name></trkpt>
<trkpt lat="53.100370" lon="06.003175"><ele>-2.8</ele><time>2021-05-12T12:37:45Z</time><name>PT7089</name></trkpt>
<trkpt lat="53.100372" lon="06.003157"><ele>-2.9</ele><time>2021-05-12T12:37:46Z</time><name>PT7090</name></trkpt>
<trkpt lat="53.100373" lon="06.003139"><ele>-3.1</ele><time>2021-05-12T12:37:47Z</time><name>PT7091</name></trkpt>
<trkpt lat="53.100374" lon="06.003119"><ele>-3.1</ele><time>2021-05-12T12:37:48Z</time><name>PT7092</name></trkpt>
<trkpt lat="53.100375" lon="06.003097"><ele>-3.2</ele><time>2021-05-12T12:37:49Z</time><name>PT7093</name></trkpt>
<trkpt lat="53.100376" lon="06.003074"><ele>-3.3</ele><time>2021-05-12T12:37:50Z</time><name>PT7094</name></trkpt>
<trkpt lat="53.100377" lon="06.003052"><ele>-3.2</ele><time>2021-05-12T12:37:51Z</time><name>PT7095</name></trkpt>
<trkpt lat="53.100378" lon="06.003033"><ele>-3.1</ele><time>2021-05-12T12:37:52Z</time><name>PT7096</name></trkpt>
<trkpt lat="53.100382" lon="06.003015"><ele>-3.1</ele><time>2021-05-12T12:37:53Z</time><name>PT7097</name></trkpt>
<trkpt lat="53.100385" lon="06.002997"><ele>-3.1</ele><time>2021-05-12T12:37:54Z</time><name>PT7098</name></trkpt>
<trkpt lat="53.100389" lon="06.002977"><ele>-3.1</ele><time>2021-05-12T12:37:55Z</time><name>PT7099</name></trkpt>
<trkpt lat="53.100391" lon="06.002959"><ele>-3.4</ele><time>2021-05-12T12:37:56Z</time><name>PT7100</name></trkpt>
<trkpt lat="53.100392" lon="06.002941"><ele>-3.5</ele><time>2021-05-12T12:37:57Z</time><name>PT7101</name></trkpt>
<trkpt lat="53.100394" lon="06.002921"><ele>-3.8</ele><time>2021-05-12T12:37:58Z</time><name>PT7102</name></trkpt>
<trkpt lat="53.100395" lon="06.002901"><ele>-4</ele><time>2021-05-12T12:37:59Z</time><name>PT7103</name></trkpt>
<trkpt lat="53.100395" lon="06.002881"><ele>-4.2</ele><time>2021-05-12T12:38:00Z</time><name>PT7104</name></trkpt>
<trkpt lat="53.100395" lon="06.002860"><ele>-4.2</ele><time>2021-05-12T12:38:01Z</time><name>PT7105</name></trkpt>
<trkpt lat="53.100398" lon="06.002841"><ele>-4</ele><time>2021-05-12T12:38:02Z</time><name>PT7106</name></trkpt>
<trkpt lat="53.100401" lon="06.002823"><ele>-4</ele><time>2021-05-12T12:38:03Z</time><name>PT7107</name></trkpt>
<trkpt lat="53.100403" lon="06.002805"><ele>-4</ele><time>2021-05-12T12:38:04Z</time><name>PT7108</name></trkpt>
<trkpt lat="53.100404" lon="06.002785"><ele>-3.8</ele><time>2021-05-12T12:38:05Z</time><name>PT7109</name></trkpt>
<trkpt lat="53.100405" lon="06.002767"><ele>-3.7</ele><time>2021-05-12T12:38:06Z</time><name>PT7110</name></trkpt>
<trkpt lat="53.100407" lon="06.002747"><ele>-3.6</ele><time>2021-05-12T12:38:07Z</time><name>PT7111</name></trkpt>
<trkpt lat="53.100408" lon="06.002727"><ele>-3.2</ele><time>2021-05-12T12:38:08Z</time><name>PT7112</name></trkpt>
<trkpt lat="53.100409" lon="06.002709"><ele>-3.1</ele><time>2021-05-12T12:38:09Z</time><name>PT7113</name></trkpt>
<trkpt lat="53.100410" lon="06.002692"><ele>-3.3</ele><time>2021-05-12T12:38:10Z</time><name>PT7114</name></trkpt>
<trkpt lat="53.100412" lon="06.002673"><ele>-3.3</ele><time>2021-05-12T12:38:11Z</time><name>PT7115</name></trkpt>
<trkpt lat="53.100415" lon="06.002653"><ele>-3.4</ele><time>2021-05-12T12:38:12Z</time><name>PT7116</name></trkpt>
<trkpt lat="53.100418" lon="06.002635"><ele>-3.4</ele><time>2021-05-12T12:38:13Z</time><name>PT7117</name></trkpt>
<trkpt lat="53.100419" lon="06.002615"><ele>-3.3</ele><time>2021-05-12T12:38:14Z</time><name>PT7118</name></trkpt>
<trkpt lat="53.100420" lon="06.002596"><ele>-3.2</ele><time>2021-05-12T12:38:15Z</time><name>PT7119</name></trkpt>
<trkpt lat="53.100420" lon="06.002576"><ele>-3.3</ele><time>2021-05-12T12:38:16Z</time><name>PT7120</name></trkpt>
<trkpt lat="53.100421" lon="06.002555"><ele>-3.4</ele><time>2021-05-12T12:38:17Z</time><name>PT7121</name></trkpt>
<trkpt lat="53.100421" lon="06.002533"><ele>-3.5</ele><time>2021-05-12T12:38:18Z</time><name>PT7122</name></trkpt>
<trkpt lat="53.100421" lon="06.002514"><ele>-3.6</ele><time>2021-05-12T12:38:19Z</time><name>PT7123</name></trkpt>
<trkpt lat="53.100423" lon="06.002497"><ele>-3.7</ele><time>2021-05-12T12:38:20Z</time><name>PT7124</name></trkpt>
<trkpt lat="53.100426" lon="06.002480"><ele>-3.5</ele><time>2021-05-12T12:38:21Z</time><name>PT7125</name></trkpt>
<trkpt lat="53.100429" lon="06.002463"><ele>-3.5</ele><time>2021-05-12T12:38:22Z</time><name>PT7126</name></trkpt>
<trkpt lat="53.100432" lon="06.002443"><ele>-3.3</ele><time>2021-05-12T12:38:23Z</time><name>PT7127</name></trkpt>
<trkpt lat="53.100432" lon="06.002424"><ele>-3.2</ele><time>2021-05-12T12:38:24Z</time><name>PT7128</name></trkpt>
<trkpt lat="53.100431" lon="06.002405"><ele>-3.1</ele><time>2021-05-12T12:38:25Z</time><name>PT7129</name></trkpt>
<trkpt lat="53.100431" lon="06.002386"><ele>-3.3</ele><time>2021-05-12T12:38:26Z</time><name>PT7130</name></trkpt>
<trkpt lat="53.100433" lon="06.002364"><ele>-3.3</ele><time>2021-05-12T12:38:27Z</time><name>PT7131</name></trkpt>
<trkpt lat="53.100434" lon="06.002345"><ele>-3.3</ele><time>2021-05-12T12:38:28Z</time><name>PT7132</name></trkpt>
<trkpt lat="53.100436" lon="06.002326"><ele>-3.3</ele><time>2021-05-12T12:38:29Z</time><name>PT7133</name></trkpt>
<trkpt lat="53.100439" lon="06.002308"><ele>-3.6</ele><time>2021-05-12T12:38:30Z</time><name>PT7134</name></trkpt>
<trkpt lat="53.100444" lon="06.002288"><ele>-3.6</ele><time>2021-05-12T12:38:31Z</time><name>PT7135</name></trkpt>
<trkpt lat="53.100447" lon="06.002268"><ele>-3.9</ele><time>2021-05-12T12:38:32Z</time><name>PT7136</name></trkpt>
<trkpt lat="53.100448" lon="06.002251"><ele>-3.9</ele><time>2021-05-12T12:38:33Z</time><name>PT7137</name></trkpt>
<trkpt lat="53.100449" lon="06.002234"><ele>-3.9</ele><time>2021-05-12T12:38:34Z</time><name>PT7138</name></trkpt>
<trkpt lat="53.100449" lon="06.002213"><ele>-3.8</ele><time>2021-05-12T12:38:35Z</time><name>PT7139</name></trkpt>
<trkpt lat="53.100449" lon="06.002193"><ele>-3.7</ele><time>2021-05-12T12:38:36Z</time><name>PT7140</name></trkpt>
<trkpt lat="53.100448" lon="06.002174"><ele>-3.6</ele><time>2021-05-12T12:38:37Z</time><name>PT7141</name></trkpt>
<trkpt lat="53.100448" lon="06.002156"><ele>-3.6</ele><time>2021-05-12T12:38:38Z</time><name>PT7142</name></trkpt>
<trkpt lat="53.100450" lon="06.002140"><ele>-3.6</ele><time>2021-05-12T12:38:39Z</time><name>PT7143</name></trkpt>
<trkpt lat="53.100454" lon="06.002121"><ele>-3.6</ele><time>2021-05-12T12:38:40Z</time><name>PT7144</name></trkpt>
<trkpt lat="53.100457" lon="06.002103"><ele>-3.7</ele><time>2021-05-12T12:38:41Z</time><name>PT7145</name></trkpt>
<trkpt lat="53.100460" lon="06.002083"><ele>-3.7</ele><time>2021-05-12T12:38:42Z</time><name>PT7146</name></trkpt>
<trkpt lat="53.100461" lon="06.002064"><ele>-3.7</ele><time>2021-05-12T12:38:43Z</time><name>PT7147</name></trkpt>
<trkpt lat="53.100462" lon="06.002044"><ele>-3.9</ele><time>2021-05-12T12:38:44Z</time><name>PT7148</name></trkpt>
<trkpt lat="53.100462" lon="06.002024"><ele>-3.8</ele><time>2021-05-12T12:38:45Z</time><name>PT7149</name></trkpt>
<trkpt lat="53.100463" lon="06.002003"><ele>-3.7</ele><time>2021-05-12T12:38:46Z</time><name>PT7150</name></trkpt>
<trkpt lat="53.100464" lon="06.001983"><ele>-3.6</ele><time>2021-05-12T12:38:47Z</time><name>PT7151</name></trkpt>
<trkpt lat="53.100465" lon="06.001965"><ele>-3.6</ele><time>2021-05-12T12:38:48Z</time><name>PT7152</name></trkpt>
<trkpt lat="53.100468" lon="06.001946"><ele>-3.6</ele><time>2021-05-12T12:38:49Z</time><name>PT7153</name></trkpt>
<trkpt lat="53.100471" lon="06.001927"><ele>-3.5</ele><time>2021-05-12T12:38:50Z</time><name>PT7154</name></trkpt>
<trkpt lat="53.100473" lon="06.001905"><ele>-3.6</ele><time>2021-05-12T12:38:51Z</time><name>PT7155</name></trkpt>
<trkpt lat="53.100475" lon="06.001885"><ele>-3.7</ele><time>2021-05-12T12:38:52Z</time><name>PT7156</name></trkpt>
<trkpt lat="53.100475" lon="06.001866"><ele>-3.8</ele><time>2021-05-12T12:38:53Z</time><name>PT7157</name></trkpt>
<trkpt lat="53.100476" lon="06.001846"><ele>-3.7</ele><time>2021-05-12T12:38:54Z</time><name>PT7158</name></trkpt>
<trkpt lat="53.100477" lon="06.001825"><ele>-3.8</ele><time>2021-05-12T12:38:55Z</time><name>PT7159</name></trkpt>
<trkpt lat="53.100477" lon="06.001805"><ele>-3.8</ele><time>2021-05-12T12:38:56Z</time><name>PT7160</name></trkpt>
<trkpt lat="53.100478" lon="06.001786"><ele>-3.8</ele><time>2021-05-12T12:38:57Z</time><name>PT7161</name></trkpt>
<trkpt lat="53.100480" lon="06.001767"><ele>-3.7</ele><time>2021-05-12T12:38:58Z</time><name>PT7162</name></trkpt>
<trkpt lat="53.100483" lon="06.001749"><ele>-3.8</ele><time>2021-05-12T12:38:59Z</time><name>PT7163</name></trkpt>
<trkpt lat="53.100485" lon="06.001730"><ele>-3.8</ele><time>2021-05-12T12:39:00Z</time><name>PT7164</name></trkpt>
<trkpt lat="53.100486" lon="06.001712"><ele>-3.7</ele><time>2021-05-12T12:39:01Z</time><name>PT7165</name></trkpt>
<trkpt lat="53.100487" lon="06.001694"><ele>-3.7</ele><time>2021-05-12T12:39:02Z</time><name>PT7166</name></trkpt>
<trkpt lat="53.100487" lon="06.001675"><ele>-3.6</ele><time>2021-05-12T12:39:03Z</time><name>PT7167</name></trkpt>
<trkpt lat="53.100487" lon="06.001655"><ele>-3.6</ele><time>2021-05-12T12:39:04Z</time><name>PT7168</name></trkpt>
<trkpt lat="53.100488" lon="06.001633"><ele>-3.6</ele><time>2021-05-12T12:39:05Z</time><name>PT7169</name></trkpt>
<trkpt lat="53.100488" lon="06.001613"><ele>-3.7</ele><time>2021-05-12T12:39:06Z</time><name>PT7170</name></trkpt>
<trkpt lat="53.100490" lon="06.001595"><ele>-3.7</ele><time>2021-05-12T12:39:07Z</time><name>PT7171</name></trkpt>
<trkpt lat="53.100493" lon="06.001577"><ele>-3.6</ele><time>2021-05-12T12:39:08Z</time><name>PT7172</name></trkpt>
<trkpt lat="53.100496" lon="06.001559"><ele>-3.6</ele><time>2021-05-12T12:39:09Z</time><name>PT7173</name></trkpt>
<trkpt lat="53.100499" lon="06.001540"><ele>-3.6</ele><time>2021-05-12T12:39:10Z</time><name>PT7174</name></trkpt>
<trkpt lat="53.100503" lon="06.001519"><ele>-3.6</ele><time>2021-05-12T12:39:11Z</time><name>PT7175</name></trkpt>
<trkpt lat="53.100505" lon="06.001503"><ele>-3.5</ele><time>2021-05-12T12:39:12Z</time><name>PT7176</name></trkpt>
<trkpt lat="53.100507" lon="06.001485"><ele>-3.5</ele><time>2021-05-12T12:39:13Z</time><name>PT7177</name></trkpt>
<trkpt lat="53.100508" lon="06.001465"><ele>-3.6</ele><time>2021-05-12T12:39:14Z</time><name>PT7178</name></trkpt>
<trkpt lat="53.100507" lon="06.001446"><ele>-3.6</ele><time>2021-05-12T12:39:15Z</time><name>PT7179</name></trkpt>
<trkpt lat="53.100507" lon="06.001427"><ele>-3.7</ele><time>2021-05-12T12:39:16Z</time><name>PT7180</name></trkpt>
<trkpt lat="53.100509" lon="06.001409"><ele>-3.8</ele><time>2021-05-12T12:39:17Z</time><name>PT7181</name></trkpt>
<trkpt lat="53.100513" lon="06.001389"><ele>-3.8</ele><time>2021-05-12T12:39:18Z</time><name>PT7182</name></trkpt>
<trkpt lat="53.100517" lon="06.001369"><ele>-3.7</ele><time>2021-05-12T12:39:19Z</time><name>PT7183</name></trkpt>
<trkpt lat="53.100518" lon="06.001347"><ele>-3.6</ele><time>2021-05-12T12:39:20Z</time><name>PT7184</name></trkpt>
<trkpt lat="53.100520" lon="06.001328"><ele>-3.6</ele><time>2021-05-12T12:39:21Z</time><name>PT7185</name></trkpt>
<trkpt lat="53.100520" lon="06.001309"><ele>-3.6</ele><time>2021-05-12T12:39:22Z</time><name>PT7186</name></trkpt>
<trkpt lat="53.100520" lon="06.001289"><ele>-3.8</ele><time>2021-05-12T12:39:23Z</time><name>PT7187</name></trkpt>
<trkpt lat="53.100520" lon="06.001272"><ele>-3.8</ele><time>2021-05-12T12:39:24Z</time><name>PT7188</name></trkpt>
<trkpt lat="53.100521" lon="06.001256"><ele>-4</ele><time>2021-05-12T12:39:25Z</time><name>PT7189</name></trkpt>
<trkpt lat="53.100523" lon="06.001238"><ele>-4.1</ele><time>2021-05-12T12:39:26Z</time><name>PT7190</name></trkpt>
<trkpt lat="53.100527" lon="06.001217"><ele>-4.3</ele><time>2021-05-12T12:39:27Z</time><name>PT7191</name></trkpt>
<trkpt lat="53.100530" lon="06.001197"><ele>-4.2</ele><time>2021-05-12T12:39:28Z</time><name>PT7192</name></trkpt>
<trkpt lat="53.100532" lon="06.001176"><ele>-4.1</ele><time>2021-05-12T12:39:29Z</time><name>PT7193</name></trkpt>
<trkpt lat="53.100533" lon="06.001159"><ele>-4</ele><time>2021-05-12T12:39:30Z</time><name>PT7194</name></trkpt>
<trkpt lat="53.100535" lon="06.001141"><ele>-3.9</ele><time>2021-05-12T12:39:31Z</time><name>PT7195</name></trkpt>
<trkpt lat="53.100536" lon="06.001123"><ele>-3.8</ele><time>2021-05-12T12:39:32Z</time><name>PT7196</name></trkpt>
<trkpt lat="53.100537" lon="06.001102"><ele>-3.9</ele><time>2021-05-12T12:39:33Z</time><name>PT7197</name></trkpt>
<trkpt lat="53.100537" lon="06.001085"><ele>-3.8</ele><time>2021-05-12T12:39:34Z</time><name>PT7198</name></trkpt>
<trkpt lat="53.100539" lon="06.001068"><ele>-3.9</ele><time>2021-05-12T12:39:35Z</time><name>PT7199</name></trkpt>
<trkpt lat="53.100541" lon="06.001051"><ele>-3.9</ele><time>2021-05-12T12:39:36Z</time><name>PT7200</name></trkpt>
<trkpt lat="53.100542" lon="06.001032"><ele>-4</ele><time>2021-05-12T12:39:37Z</time><name>PT7201</name></trkpt>
<trkpt lat="53.100543" lon="06.001012"><ele>-4</ele><time>2021-05-12T12:39:38Z</time><name>PT7202</name></trkpt>
<trkpt lat="53.100543" lon="06.000991"><ele>-4</ele><time>2021-05-12T12:39:39Z</time><name>PT7203</name></trkpt>
<trkpt lat="53.100544" lon="06.000972"><ele>-4.1</ele><time>2021-05-12T12:39:40Z</time><name>PT7204</name></trkpt>
<trkpt lat="53.100545" lon="06.000953"><ele>-4</ele><time>2021-05-12T12:39:41Z</time><name>PT7205</name></trkpt>
<trkpt lat="53.100546" lon="06.000935"><ele>-4</ele><time>2021-05-12T12:39:42Z</time><name>PT7206</name></trkpt>
<trkpt lat="53.100549" lon="06.000916"><ele>-3.9</ele><time>2021-05-12T12:39:43Z</time><name>PT7207</name></trkpt>
<trkpt lat="53.100552" lon="06.000898"><ele>-3.8</ele><time>2021-05-12T12:39:44Z</time><name>PT7208</name></trkpt>
<trkpt lat="53.100554" lon="06.000880"><ele>-3.9</ele><time>2021-05-12T12:39:45Z</time><name>PT7209</name></trkpt>
<trkpt lat="53.100554" lon="06.000862"><ele>-4</ele><time>2021-05-12T12:39:46Z</time><name>PT7210</name></trkpt>
<trkpt lat="53.100555" lon="06.000843"><ele>-4</ele><time>2021-05-12T12:39:47Z</time><name>PT7211</name></trkpt>
<trkpt lat="53.100555" lon="06.000823"><ele>-4.1</ele><time>2021-05-12T12:39:48Z</time><name>PT7212</name></trkpt>
<trkpt lat="53.100555" lon="06.000806"><ele>-4.2</ele><time>2021-05-12T12:39:49Z</time><name>PT7213</name></trkpt>
<trkpt lat="53.100556" lon="06.000789"><ele>-4</ele><time>2021-05-12T12:39:50Z</time><name>PT7214</name></trkpt>
<trkpt lat="53.100558" lon="06.000771"><ele>-4</ele><time>2021-05-12T12:39:51Z</time><name>PT7215</name></trkpt>
<trkpt lat="53.100560" lon="06.000751"><ele>-4</ele><time>2021-05-12T12:39:52Z</time><name>PT7216</name></trkpt>
<trkpt lat="53.100560" lon="06.000731"><ele>-4.2</ele><time>2021-05-12T12:39:53Z</time><name>PT7217</name></trkpt>
<trkpt lat="53.100561" lon="06.000713"><ele>-4.2</ele><time>2021-05-12T12:39:54Z</time><name>PT7218</name></trkpt>
<trkpt lat="53.100563" lon="06.000694"><ele>-4</ele><time>2021-05-12T12:39:55Z</time><name>PT7219</name></trkpt>
<trkpt lat="53.100563" lon="06.000674"><ele>-4</ele><time>2021-05-12T12:39:56Z</time><name>PT7220</name></trkpt>
<trkpt lat="53.100563" lon="06.000653"><ele>-4.2</ele><time>2021-05-12T12:39:57Z</time><name>PT7221</name></trkpt>
<trkpt lat="53.100564" lon="06.000633"><ele>-4.1</ele><time>2021-05-12T12:39:58Z</time><name>PT7222</name></trkpt>
<trkpt lat="53.100566" lon="06.000610"><ele>-4.3</ele><time>2021-05-12T12:39:59Z</time><name>PT7223</name></trkpt>
<trkpt lat="53.100568" lon="06.000588"><ele>-4.2</ele><time>2021-05-12T12:40:00Z</time><name>PT7224</name></trkpt>
<trkpt lat="53.100570" lon="06.000569"><ele>-4.3</ele><time>2021-05-12T12:40:01Z</time><name>PT7225</name></trkpt>
<trkpt lat="53.100573" lon="06.000551"><ele>-4.2</ele><time>2021-05-12T12:40:02Z</time><name>PT7226</name></trkpt>
<trkpt lat="53.100579" lon="06.000531"><ele>-4.2</ele><time>2021-05-12T12:40:03Z</time><name>PT7227</name></trkpt>
<trkpt lat="53.100584" lon="06.000512"><ele>-4.7</ele><time>2021-05-12T12:40:04Z</time><name>PT7228</name></trkpt>
<trkpt lat="53.100588" lon="06.000494"><ele>-5.2</ele><time>2021-05-12T12:40:05Z</time><name>PT7229</name></trkpt>
<trkpt lat="53.100592" lon="06.000474"><ele>-5.3</ele><time>2021-05-12T12:40:06Z</time><name>PT7230</name></trkpt>
<trkpt lat="53.100596" lon="06.000455"><ele>-5.5</ele><time>2021-05-12T12:40:07Z</time><name>PT7231</name></trkpt>
<trkpt lat="53.100598" lon="06.000434"><ele>-5.4</ele><time>2021-05-12T12:40:08Z</time><name>PT7232</name></trkpt>
<trkpt lat="53.100600" lon="06.000415"><ele>-5.4</ele><time>2021-05-12T12:40:09Z</time><name>PT7233</name></trkpt>
<trkpt lat="53.100599" lon="06.000396"><ele>-5</ele><time>2021-05-12T12:40:10Z</time><name>PT7234</name></trkpt>
<trkpt lat="53.100599" lon="06.000376"><ele>-4.9</ele><time>2021-05-12T12:40:11Z</time><name>PT7235</name></trkpt>
<trkpt lat="53.100598" lon="06.000355"><ele>-4.6</ele><time>2021-05-12T12:40:12Z</time><name>PT7236</name></trkpt>
<trkpt lat="53.100599" lon="06.000336"><ele>-4.4</ele><time>2021-05-12T12:40:13Z</time><name>PT7237</name></trkpt>
<trkpt lat="53.100600" lon="06.000319"><ele>-4.4</ele><time>2021-05-12T12:40:14Z</time><name>PT7238</name></trkpt>
<trkpt lat="53.100601" lon="06.000303"><ele>-4.4</ele><time>2021-05-12T12:40:15Z</time><name>PT7239</name></trkpt>
<trkpt lat="53.100604" lon="06.000286"><ele>-4.5</ele><time>2021-05-12T12:40:16Z</time><name>PT7240</name></trkpt>
<trkpt lat="53.100607" lon="06.000266"><ele>-4.7</ele><time>2021-05-12T12:40:17Z</time><name>PT7241</name></trkpt>
<trkpt lat="53.100611" lon="06.000249"><ele>-4.8</ele><time>2021-05-12T12:40:18Z</time><name>PT7242</name></trkpt>
<trkpt lat="53.100613" lon="06.000232"><ele>-5</ele><time>2021-05-12T12:40:19Z</time><name>PT7243</name></trkpt>
<trkpt lat="53.100617" lon="06.000213"><ele>-5</ele><time>2021-05-12T12:40:20Z</time><name>PT7244</name></trkpt>
<trkpt lat="53.100620" lon="06.000196"><ele>-4.9</ele><time>2021-05-12T12:40:21Z</time><name>PT7245</name></trkpt>
<trkpt lat="53.100622" lon="06.000177"><ele>-4.8</ele><time>2021-05-12T12:40:22Z</time><name>PT7246</name></trkpt>
<trkpt lat="53.100624" lon="06.000157"><ele>-4.6</ele><time>2021-05-12T12:40:23Z</time><name>PT7247</name></trkpt>
<trkpt lat="53.100624" lon="06.000136"><ele>-4.6</ele><time>2021-05-12T12:40:24Z</time><name>PT7248</name></trkpt>
<trkpt lat="53.100627" lon="06.000114"><ele>-4.5</ele><time>2021-05-12T12:40:25Z</time><name>PT7249</name></trkpt>
<trkpt lat="53.100627" lon="06.000094"><ele>-4.5</ele><time>2021-05-12T12:40:26Z</time><name>PT7250</name></trkpt>
<trkpt lat="53.100628" lon="06.000077"><ele>-4.5</ele><time>2021-05-12T12:40:27Z</time><name>PT7251</name></trkpt>
<trkpt lat="53.100630" lon="06.000058"><ele>-4.7</ele><time>2021-05-12T12:40:28Z</time><name>PT7252</name></trkpt>
<trkpt lat="53.100634" lon="06.000040"><ele>-4.8</ele><time>2021-05-12T12:40:29Z</time><name>PT7253</name></trkpt>
<trkpt lat="53.100636" lon="06.000021"><ele>-4.8</ele><time>2021-05-12T12:40:30Z</time><name>PT7254</name></trkpt>
<trkpt lat="53.100639" lon="06.000003"><ele>-4.9</ele><time>2021-05-12T12:40:31Z</time><name>PT7255</name></trkpt>
<trkpt lat="53.100642" lon="05.999984"><ele>-4.7</ele><time>2021-05-12T12:40:32Z</time><name>PT7256</name></trkpt>
<trkpt lat="53.100644" lon="05.999966"><ele>-4.6</ele><time>2021-05-12T12:40:33Z</time><name>PT7257</name></trkpt>
<trkpt lat="53.100645" lon="05.999946"><ele>-4.5</ele><time>2021-05-12T12:40:34Z</time><name>PT7258</name></trkpt>
<trkpt lat="53.100645" lon="05.999926"><ele>-4.3</ele><time>2021-05-12T12:40:35Z</time><name>PT7259</name></trkpt>
<trkpt lat="53.100646" lon="05.999907"><ele>-4.3</ele><time>2021-05-12T12:40:36Z</time><name>PT7260</name></trkpt>
<trkpt lat="53.100647" lon="05.999889"><ele>-4.5</ele><time>2021-05-12T12:40:37Z</time><name>PT7261</name></trkpt>
<trkpt lat="53.100649" lon="05.999872"><ele>-4.7</ele><time>2021-05-12T12:40:38Z</time><name>PT7262</name></trkpt>
<trkpt lat="53.100652" lon="05.999854"><ele>-5</ele><time>2021-05-12T12:40:39Z</time><name>PT7263</name></trkpt>
<trkpt lat="53.100655" lon="05.999835"><ele>-5</ele><time>2021-05-12T12:40:40Z</time><name>PT7264</name></trkpt>
<trkpt lat="53.100659" lon="05.999817"><ele>-5</ele><time>2021-05-12T12:40:41Z</time><name>PT7265</name></trkpt>
<trkpt lat="53.100662" lon="05.999800"><ele>-5.1</ele><time>2021-05-12T12:40:42Z</time><name>PT7266</name></trkpt>
<trkpt lat="53.100664" lon="05.999782"><ele>-5.1</ele><time>2021-05-12T12:40:43Z</time><name>PT7267</name></trkpt>
<trkpt lat="53.100667" lon="05.999763"><ele>-5.2</ele><time>2021-05-12T12:40:44Z</time><name>PT7268</name></trkpt>
<trkpt lat="53.100668" lon="05.999744"><ele>-5.2</ele><time>2021-05-12T12:40:45Z</time><name>PT7269</name></trkpt>
<trkpt lat="53.100669" lon="05.999726"><ele>-5.1</ele><time>2021-05-12T12:40:46Z</time><name>PT7270</name></trkpt>
<trkpt lat="53.100669" lon="05.999705"><ele>-5.1</ele><time>2021-05-12T12:40:47Z</time><name>PT7271</name></trkpt>
<trkpt lat="53.100669" lon="05.999684"><ele>-5.1</ele><time>2021-05-12T12:40:48Z</time><name>PT7272</name></trkpt>
<trkpt lat="53.100669" lon="05.999664"><ele>-5</ele><time>2021-05-12T12:40:49Z</time><name>PT7273</name></trkpt>
<trkpt lat="53.100668" lon="05.999642"><ele>-5</ele><time>2021-05-12T12:40:50Z</time><name>PT7274</name></trkpt>
<trkpt lat="53.100668" lon="05.999619"><ele>-5</ele><time>2021-05-12T12:40:51Z</time><name>PT7275</name></trkpt>
<trkpt lat="53.100668" lon="05.999597"><ele>-4.7</ele><time>2021-05-12T12:40:52Z</time><name>PT7276</name></trkpt>
<trkpt lat="53.100669" lon="05.999577"><ele>-4.6</ele><time>2021-05-12T12:40:53Z</time><name>PT7277</name></trkpt>
<trkpt lat="53.100671" lon="05.999559"><ele>-4.6</ele><time>2021-05-12T12:40:54Z</time><name>PT7278</name></trkpt>
<trkpt lat="53.100672" lon="05.999539"><ele>-4.4</ele><time>2021-05-12T12:40:55Z</time><name>PT7279</name></trkpt>
<trkpt lat="53.100676" lon="05.999519"><ele>-4.4</ele><time>2021-05-12T12:40:56Z</time><name>PT7280</name></trkpt>
<trkpt lat="53.100679" lon="05.999501"><ele>-4.4</ele><time>2021-05-12T12:40:57Z</time><name>PT7281</name></trkpt>
<trkpt lat="53.100681" lon="05.999483"><ele>-4.4</ele><time>2021-05-12T12:40:58Z</time><name>PT7282</name></trkpt>
<trkpt lat="53.100683" lon="05.999463"><ele>-4.3</ele><time>2021-05-12T12:40:59Z</time><name>PT7283</name></trkpt>
<trkpt lat="53.100684" lon="05.999446"><ele>-4.5</ele><time>2021-05-12T12:41:00Z</time><name>PT7284</name></trkpt>
<trkpt lat="53.100686" lon="05.999427"><ele>-4.3</ele><time>2021-05-12T12:41:01Z</time><name>PT7285</name></trkpt>
<trkpt lat="53.100686" lon="05.999408"><ele>-4.4</ele><time>2021-05-12T12:41:02Z</time><name>PT7286</name></trkpt>
<trkpt lat="53.100686" lon="05.999388"><ele>-4.2</ele><time>2021-05-12T12:41:03Z</time><name>PT7287</name></trkpt>
<trkpt lat="53.100686" lon="05.999370"><ele>-4.4</ele><time>2021-05-12T12:41:04Z</time><name>PT7288</name></trkpt>
<trkpt lat="53.100688" lon="05.999353"><ele>-4.2</ele><time>2021-05-12T12:41:05Z</time><name>PT7289</name></trkpt>
<trkpt lat="53.100690" lon="05.999340"><ele>-4.1</ele><time>2021-05-12T12:41:06Z</time><name>PT7290</name></trkpt>
<trkpt lat="53.100690" lon="05.999333"><ele>-4.1</ele><time>2021-05-12T12:41:07Z</time><name>PT7291</name></trkpt>
<trkpt lat="53.100688" lon="05.999330"><ele>-4.2</ele><time>2021-05-12T12:41:08Z</time><name>PT7292</name></trkpt>
<trkpt lat="53.100688" lon="05.999330"><ele>-4.1</ele><time>2021-05-12T12:41:09Z</time><name>PT7293</name></trkpt>
<trkpt lat="53.100689" lon="05.999329"><ele>-4.2</ele><time>2021-05-12T12:41:10Z</time><name>PT7294</name></trkpt>
<trkpt lat="53.100688" lon="05.999319"><ele>-4.2</ele><time>2021-05-12T12:41:13Z</time><name>PT7295</name></trkpt>
<trkpt lat="53.100688" lon="05.999301"><ele>-4.2</ele><time>2021-05-12T12:41:14Z</time><name>PT7296</name></trkpt>
<trkpt lat="53.100689" lon="05.999283"><ele>-4.2</ele><time>2021-05-12T12:41:15Z</time><name>PT7297</name></trkpt>
<trkpt lat="53.100689" lon="05.999260"><ele>-4.1</ele><time>2021-05-12T12:41:16Z</time><name>PT7298</name></trkpt>
<trkpt lat="53.100692" lon="05.999240"><ele>-4.2</ele><time>2021-05-12T12:41:17Z</time><name>PT7299</name></trkpt>
<trkpt lat="53.100693" lon="05.999220"><ele>-4.3</ele><time>2021-05-12T12:41:18Z</time><name>PT7300</name></trkpt>
<trkpt lat="53.100694" lon="05.999202"><ele>-4.2</ele><time>2021-05-12T12:41:19Z</time><name>PT7301</name></trkpt>
<trkpt lat="53.100695" lon="05.999183"><ele>-4.1</ele><time>2021-05-12T12:41:20Z</time><name>PT7302</name></trkpt>
<trkpt lat="53.100695" lon="05.999166"><ele>-4.1</ele><time>2021-05-12T12:41:21Z</time><name>PT7303</name></trkpt>
<trkpt lat="53.100696" lon="05.999150"><ele>-4.1</ele><time>2021-05-12T12:41:22Z</time><name>PT7304</name></trkpt>
<trkpt lat="53.100699" lon="05.999135"><ele>-4.1</ele><time>2021-05-12T12:41:23Z</time><name>PT7305</name></trkpt>
<trkpt lat="53.100703" lon="05.999115"><ele>-4.1</ele><time>2021-05-12T12:41:24Z</time><name>PT7306</name></trkpt>
<trkpt lat="53.100707" lon="05.999097"><ele>-4.1</ele><time>2021-05-12T12:41:25Z</time><name>PT7307</name></trkpt>
<trkpt lat="53.100708" lon="05.999079"><ele>-4.2</ele><time>2021-05-12T12:41:26Z</time><name>PT7308</name></trkpt>
<trkpt lat="53.100708" lon="05.999060"><ele>-4.2</ele><time>2021-05-12T12:41:27Z</time><name>PT7309</name></trkpt>
<trkpt lat="53.100707" lon="05.999042"><ele>-4.2</ele><time>2021-05-12T12:41:28Z</time><name>PT7310</name></trkpt>
<trkpt lat="53.100709" lon="05.999025"><ele>-4.3</ele><time>2021-05-12T12:41:29Z</time><name>PT7311</name></trkpt>
<trkpt lat="53.100712" lon="05.999007"><ele>-4.3</ele><time>2021-05-12T12:41:30Z</time><name>PT7312</name></trkpt>
<trkpt lat="53.100715" lon="05.998987"><ele>-4.1</ele><time>2021-05-12T12:41:31Z</time><name>PT7313</name></trkpt>
<trkpt lat="53.100720" lon="05.998966"><ele>-4</ele><time>2021-05-12T12:41:32Z</time><name>PT7314</name></trkpt>
<trkpt lat="53.100724" lon="05.998945"><ele>-4.1</ele><time>2021-05-12T12:41:33Z</time><name>PT7315</name></trkpt>
<trkpt lat="53.100725" lon="05.998927"><ele>-4</ele><time>2021-05-12T12:41:34Z</time><name>PT7316</name></trkpt>
<trkpt lat="53.100724" lon="05.998907"><ele>-4.3</ele><time>2021-05-12T12:41:35Z</time><name>PT7317</name></trkpt>
<trkpt lat="53.100724" lon="05.998888"><ele>-4.4</ele><time>2021-05-12T12:41:36Z</time><name>PT7318</name></trkpt>
<trkpt lat="53.100725" lon="05.998869"><ele>-4.4</ele><time>2021-05-12T12:41:37Z</time><name>PT7319</name></trkpt>
<trkpt lat="53.100726" lon="05.998851"><ele>-4.3</ele><time>2021-05-12T12:41:38Z</time><name>PT7320</name></trkpt>
<trkpt lat="53.100728" lon="05.998832"><ele>-4.5</ele><time>2021-05-12T12:41:39Z</time><name>PT7321</name></trkpt>
<trkpt lat="53.100731" lon="05.998813"><ele>-4.4</ele><time>2021-05-12T12:41:40Z</time><name>PT7322</name></trkpt>
<trkpt lat="53.100734" lon="05.998792"><ele>-4.2</ele><time>2021-05-12T12:41:41Z</time><name>PT7323</name></trkpt>
<trkpt lat="53.100735" lon="05.998774"><ele>-4.3</ele><time>2021-05-12T12:41:42Z</time><name>PT7324</name></trkpt>
<trkpt lat="53.100736" lon="05.998756"><ele>-4.2</ele><time>2021-05-12T12:41:43Z</time><name>PT7325</name></trkpt>
<trkpt lat="53.100736" lon="05.998737"><ele>-4</ele><time>2021-05-12T12:41:44Z</time><name>PT7326</name></trkpt>
<trkpt lat="53.100736" lon="05.998716"><ele>-4.1</ele><time>2021-05-12T12:41:45Z</time><name>PT7327</name></trkpt>
<trkpt lat="53.100737" lon="05.998695"><ele>-4.3</ele><time>2021-05-12T12:41:46Z</time><name>PT7328</name></trkpt>
<trkpt lat="53.100738" lon="05.998677"><ele>-4.3</ele><time>2021-05-12T12:41:47Z</time><name>PT7329</name></trkpt>
<trkpt lat="53.100739" lon="05.998658"><ele>-4.4</ele><time>2021-05-12T12:41:48Z</time><name>PT7330</name></trkpt>
<trkpt lat="53.100742" lon="05.998638"><ele>-4.6</ele><time>2021-05-12T12:41:49Z</time><name>PT7331</name></trkpt>
<trkpt lat="53.100744" lon="05.998619"><ele>-4.5</ele><time>2021-05-12T12:41:50Z</time><name>PT7332</name></trkpt>
<trkpt lat="53.100747" lon="05.998601"><ele>-4.5</ele><time>2021-05-12T12:41:51Z</time><name>PT7333</name></trkpt>
<trkpt lat="53.100747" lon="05.998581"><ele>-4.5</ele><time>2021-05-12T12:41:52Z</time><name>PT7334</name></trkpt>
<trkpt lat="53.100747" lon="05.998560"><ele>-4.5</ele><time>2021-05-12T12:41:53Z</time><name>PT7335</name></trkpt>
<trkpt lat="53.100746" lon="05.998539"><ele>-4.7</ele><time>2021-05-12T12:41:54Z</time><name>PT7336</name></trkpt>
<trkpt lat="53.100747" lon="05.998519"><ele>-4.9</ele><time>2021-05-12T12:41:55Z</time><name>PT7337</name></trkpt>
<trkpt lat="53.100748" lon="05.998498"><ele>-5</ele><time>2021-05-12T12:41:56Z</time><name>PT7338</name></trkpt>
<trkpt lat="53.100749" lon="05.998479"><ele>-5</ele><time>2021-05-12T12:41:57Z</time><name>PT7339</name></trkpt>
<trkpt lat="53.100749" lon="05.998459"><ele>-5</ele><time>2021-05-12T12:41:58Z</time><name>PT7340</name></trkpt>
<trkpt lat="53.100751" lon="05.998438"><ele>-4.7</ele><time>2021-05-12T12:41:59Z</time><name>PT7341</name></trkpt>
<trkpt lat="53.100755" lon="05.998417"><ele>-4.7</ele><time>2021-05-12T12:42:00Z</time><name>PT7342</name></trkpt>
<trkpt lat="53.100757" lon="05.998397"><ele>-4.6</ele><time>2021-05-12T12:42:01Z</time><name>PT7343</name></trkpt>
<trkpt lat="53.100758" lon="05.998379"><ele>-4.5</ele><time>2021-05-12T12:42:02Z</time><name>PT7344</name></trkpt>
<trkpt lat="53.100758" lon="05.998361"><ele>-4.6</ele><time>2021-05-12T12:42:03Z</time><name>PT7345</name></trkpt>
<trkpt lat="53.100761" lon="05.998340"><ele>-4.6</ele><time>2021-05-12T12:42:04Z</time><name>PT7346</name></trkpt>
<trkpt lat="53.100762" lon="05.998322"><ele>-4.7</ele><time>2021-05-12T12:42:05Z</time><name>PT7347</name></trkpt>
<trkpt lat="53.100762" lon="05.998301"><ele>-4.9</ele><time>2021-05-12T12:42:06Z</time><name>PT7348</name></trkpt>
<trkpt lat="53.100762" lon="05.998283"><ele>-5</ele><time>2021-05-12T12:42:07Z</time><name>PT7349</name></trkpt>
<trkpt lat="53.100763" lon="05.998265"><ele>-5.1</ele><time>2021-05-12T12:42:08Z</time><name>PT7350</name></trkpt>
<trkpt lat="53.100766" lon="05.998248"><ele>-5.3</ele><time>2021-05-12T12:42:09Z</time><name>PT7351</name></trkpt>
<trkpt lat="53.100770" lon="05.998228"><ele>-5.2</ele><time>2021-05-12T12:42:10Z</time><name>PT7352</name></trkpt>
<trkpt lat="53.100774" lon="05.998206"><ele>-5.2</ele><time>2021-05-12T12:42:11Z</time><name>PT7353</name></trkpt>
<trkpt lat="53.100776" lon="05.998186"><ele>-5.2</ele><time>2021-05-12T12:42:12Z</time><name>PT7354</name></trkpt>
<trkpt lat="53.100779" lon="05.998166"><ele>-5.1</ele><time>2021-05-12T12:42:13Z</time><name>PT7355</name></trkpt>
<trkpt lat="53.100781" lon="05.998148"><ele>-5</ele><time>2021-05-12T12:42:14Z</time><name>PT7356</name></trkpt>
<trkpt lat="53.100780" lon="05.998131"><ele>-5</ele><time>2021-05-12T12:42:15Z</time><name>PT7357</name></trkpt>
<trkpt lat="53.100781" lon="05.998112"><ele>-5</ele><time>2021-05-12T12:42:16Z</time><name>PT7358</name></trkpt>
<trkpt lat="53.100782" lon="05.998091"><ele>-4.9</ele><time>2021-05-12T12:42:17Z</time><name>PT7359</name></trkpt>
<trkpt lat="53.100782" lon="05.998070"><ele>-4.8</ele><time>2021-05-12T12:42:18Z</time><name>PT7360</name></trkpt>
<trkpt lat="53.100782" lon="05.998052"><ele>-4.7</ele><time>2021-05-12T12:42:19Z</time><name>PT7361</name></trkpt>
<trkpt lat="53.100784" lon="05.998034"><ele>-4.6</ele><time>2021-05-12T12:42:20Z</time><name>PT7362</name></trkpt>
<trkpt lat="53.100786" lon="05.998014"><ele>-4.5</ele><time>2021-05-12T12:42:21Z</time><name>PT7363</name></trkpt>
<trkpt lat="53.100788" lon="05.997994"><ele>-4.5</ele><time>2021-05-12T12:42:22Z</time><name>PT7364</name></trkpt>
<trkpt lat="53.100790" lon="05.997975"><ele>-4.6</ele><time>2021-05-12T12:42:23Z</time><name>PT7365</name></trkpt>
<trkpt lat="53.100792" lon="05.997955"><ele>-4.7</ele><time>2021-05-12T12:42:24Z</time><name>PT7366</name></trkpt>
<trkpt lat="53.100792" lon="05.997936"><ele>-4.8</ele><time>2021-05-12T12:42:25Z</time><name>PT7367</name></trkpt>
<trkpt lat="53.100791" lon="05.997914"><ele>-4.8</ele><time>2021-05-12T12:42:26Z</time><name>PT7368</name></trkpt>
<trkpt lat="53.100789" lon="05.997892"><ele>-4.7</ele><time>2021-05-12T12:42:27Z</time><name>PT7369</name></trkpt>
<trkpt lat="53.100789" lon="05.997873"><ele>-4.6</ele><time>2021-05-12T12:42:28Z</time><name>PT7370</name></trkpt>
<trkpt lat="53.100791" lon="05.997855"><ele>-4.5</ele><time>2021-05-12T12:42:29Z</time><name>PT7371</name></trkpt>
<trkpt lat="53.100792" lon="05.997838"><ele>-4.6</ele><time>2021-05-12T12:42:30Z</time><name>PT7372</name></trkpt>
<trkpt lat="53.100794" lon="05.997820"><ele>-4.5</ele><time>2021-05-12T12:42:31Z</time><name>PT7373</name></trkpt>
<trkpt lat="53.100796" lon="05.997800"><ele>-4.8</ele><time>2021-05-12T12:42:32Z</time><name>PT7374</name></trkpt>
<trkpt lat="53.100797" lon="05.997781"><ele>-4.7</ele><time>2021-05-12T12:42:33Z</time><name>PT7375</name></trkpt>
<trkpt lat="53.100797" lon="05.997762"><ele>-4.9</ele><time>2021-05-12T12:42:34Z</time><name>PT7376</name></trkpt>
<trkpt lat="53.100798" lon="05.997741"><ele>-5</ele><time>2021-05-12T12:42:35Z</time><name>PT7377</name></trkpt>
<trkpt lat="53.100800" lon="05.997720"><ele>-5.1</ele><time>2021-05-12T12:42:36Z</time><name>PT7378</name></trkpt>
<trkpt lat="53.100801" lon="05.997700"><ele>-5.1</ele><time>2021-05-12T12:42:37Z</time><name>PT7379</name></trkpt>
<trkpt lat="53.100802" lon="05.997682"><ele>-5.2</ele><time>2021-05-12T12:42:38Z</time><name>PT7380</name></trkpt>
<trkpt lat="53.100805" lon="05.997664"><ele>-5.1</ele><time>2021-05-12T12:42:39Z</time><name>PT7381</name></trkpt>
<trkpt lat="53.100808" lon="05.997646"><ele>-5</ele><time>2021-05-12T12:42:40Z</time><name>PT7382</name></trkpt>
<trkpt lat="53.100809" lon="05.997627"><ele>-5.1</ele><time>2021-05-12T12:42:41Z</time><name>PT7383</name></trkpt>
<trkpt lat="53.100809" lon="05.997608"><ele>-5.2</ele><time>2021-05-12T12:42:42Z</time><name>PT7384</name></trkpt>
<trkpt lat="53.100808" lon="05.997588"><ele>-5.5</ele><time>2021-05-12T12:42:43Z</time><name>PT7385</name></trkpt>
<trkpt lat="53.100808" lon="05.997568"><ele>-5.5</ele><time>2021-05-12T12:42:44Z</time><name>PT7386</name></trkpt>
<trkpt lat="53.100808" lon="05.997550"><ele>-5.5</ele><time>2021-05-12T12:42:45Z</time><name>PT7387</name></trkpt>
<trkpt lat="53.100810" lon="05.997531"><ele>-5.5</ele><time>2021-05-12T12:42:46Z</time><name>PT7388</name></trkpt>
<trkpt lat="53.100813" lon="05.997516"><ele>-5.5</ele><time>2021-05-12T12:42:47Z</time><name>PT7389</name></trkpt>
<trkpt lat="53.100815" lon="05.997500"><ele>-5.5</ele><time>2021-05-12T12:42:48Z</time><name>PT7390</name></trkpt>
<trkpt lat="53.100818" lon="05.997481"><ele>-5.5</ele><time>2021-05-12T12:42:49Z</time><name>PT7391</name></trkpt>
<trkpt lat="53.100822" lon="05.997461"><ele>-5.6</ele><time>2021-05-12T12:42:50Z</time><name>PT7392</name></trkpt>
<trkpt lat="53.100825" lon="05.997442"><ele>-5.6</ele><time>2021-05-12T12:42:51Z</time><name>PT7393</name></trkpt>
<trkpt lat="53.100826" lon="05.997424"><ele>-5.5</ele><time>2021-05-12T12:42:52Z</time><name>PT7394</name></trkpt>
<trkpt lat="53.100827" lon="05.997407"><ele>-5.4</ele><time>2021-05-12T12:42:53Z</time><name>PT7395</name></trkpt>
<trkpt lat="53.100827" lon="05.997388"><ele>-5.4</ele><time>2021-05-12T12:42:54Z</time><name>PT7396</name></trkpt>
<trkpt lat="53.100827" lon="05.997370"><ele>-5.4</ele><time>2021-05-12T12:42:55Z</time><name>PT7397</name></trkpt>
<trkpt lat="53.100830" lon="05.997355"><ele>-5.5</ele><time>2021-05-12T12:42:56Z</time><name>PT7398</name></trkpt>
<trkpt lat="53.100834" lon="05.997338"><ele>-5.5</ele><time>2021-05-12T12:42:57Z</time><name>PT7399</name></trkpt>
<trkpt lat="53.100837" lon="05.997319"><ele>-5.5</ele><time>2021-05-12T12:42:58Z</time><name>PT7400</name></trkpt>
<trkpt lat="53.100838" lon="05.997299"><ele>-5.5</ele><time>2021-05-12T12:42:59Z</time><name>PT7401</name></trkpt>
<trkpt lat="53.100841" lon="05.997279"><ele>-5.5</ele><time>2021-05-12T12:43:00Z</time><name>PT7402</name></trkpt>
<trkpt lat="53.100842" lon="05.997260"><ele>-5.3</ele><time>2021-05-12T12:43:01Z</time><name>PT7403</name></trkpt>
<trkpt lat="53.100842" lon="05.997239"><ele>-5.2</ele><time>2021-05-12T12:43:02Z</time><name>PT7404</name></trkpt>
<trkpt lat="53.100841" lon="05.997219"><ele>-5.2</ele><time>2021-05-12T12:43:03Z</time><name>PT7405</name></trkpt>
<trkpt lat="53.100842" lon="05.997199"><ele>-5.4</ele><time>2021-05-12T12:43:04Z</time><name>PT7406</name></trkpt>
<trkpt lat="53.100844" lon="05.997182"><ele>-5.6</ele><time>2021-05-12T12:43:05Z</time><name>PT7407</name></trkpt>
<trkpt lat="53.100847" lon="05.997165"><ele>-5.6</ele><time>2021-05-12T12:43:06Z</time><name>PT7408</name></trkpt>
<trkpt lat="53.100850" lon="05.997144"><ele>-5.9</ele><time>2021-05-12T12:43:07Z</time><name>PT7409</name></trkpt>
<trkpt lat="53.100852" lon="05.997124"><ele>-6</ele><time>2021-05-12T12:43:08Z</time><name>PT7410</name></trkpt>
<trkpt lat="53.100853" lon="05.997107"><ele>-5.8</ele><time>2021-05-12T12:43:09Z</time><name>PT7411</name></trkpt>
<trkpt lat="53.100854" lon="05.997088"><ele>-5.9</ele><time>2021-05-12T12:43:10Z</time><name>PT7412</name></trkpt>
<trkpt lat="53.100854" lon="05.997068"><ele>-5.7</ele><time>2021-05-12T12:43:11Z</time><name>PT7413</name></trkpt>
<trkpt lat="53.100854" lon="05.997049"><ele>-5.8</ele><time>2021-05-12T12:43:12Z</time><name>PT7414</name></trkpt>
<trkpt lat="53.100855" lon="05.997030"><ele>-5.7</ele><time>2021-05-12T12:43:13Z</time><name>PT7415</name></trkpt>
<trkpt lat="53.100858" lon="05.997012"><ele>-5.7</ele><time>2021-05-12T12:43:14Z</time><name>PT7416</name></trkpt>
<trkpt lat="53.100862" lon="05.996993"><ele>-5.7</ele><time>2021-05-12T12:43:15Z</time><name>PT7417</name></trkpt>
<trkpt lat="53.100865" lon="05.996974"><ele>-5.9</ele><time>2021-05-12T12:43:16Z</time><name>PT7418</name></trkpt>
<trkpt lat="53.100869" lon="05.996953"><ele>-5.8</ele><time>2021-05-12T12:43:17Z</time><name>PT7419</name></trkpt>
<trkpt lat="53.100872" lon="05.996932"><ele>-5.7</ele><time>2021-05-12T12:43:18Z</time><name>PT7420</name></trkpt>
<trkpt lat="53.100874" lon="05.996912"><ele>-5.8</ele><time>2021-05-12T12:43:19Z</time><name>PT7421</name></trkpt>
<trkpt lat="53.100876" lon="05.996893"><ele>-5.9</ele><time>2021-05-12T12:43:20Z</time><name>PT7422</name></trkpt>
<trkpt lat="53.100878" lon="05.996873"><ele>-5.8</ele><time>2021-05-12T12:43:21Z</time><name>PT7423</name></trkpt>
<trkpt lat="53.100879" lon="05.996853"><ele>-5.8</ele><time>2021-05-12T12:43:22Z</time><name>PT7424</name></trkpt>
<trkpt lat="53.100879" lon="05.996832"><ele>-6</ele><time>2021-05-12T12:43:23Z</time><name>PT7425</name></trkpt>
<trkpt lat="53.100879" lon="05.996811"><ele>-5.9</ele><time>2021-05-12T12:43:24Z</time><name>PT7426</name></trkpt>
<trkpt lat="53.100880" lon="05.996791"><ele>-6</ele><time>2021-05-12T12:43:25Z</time><name>PT7427</name></trkpt>
<trkpt lat="53.100882" lon="05.996773"><ele>-6</ele><time>2021-05-12T12:43:26Z</time><name>PT7428</name></trkpt>
<trkpt lat="53.100886" lon="05.996755"><ele>-6</ele><time>2021-05-12T12:43:27Z</time><name>PT7429</name></trkpt>
<trkpt lat="53.100890" lon="05.996735"><ele>-5.8</ele><time>2021-05-12T12:43:28Z</time><name>PT7430</name></trkpt>
<trkpt lat="53.100895" lon="05.996716"><ele>-5.5</ele><time>2021-05-12T12:43:29Z</time><name>PT7431</name></trkpt>
<trkpt lat="53.100897" lon="05.996696"><ele>-5.5</ele><time>2021-05-12T12:43:30Z</time><name>PT7432</name></trkpt>
<trkpt lat="53.100900" lon="05.996676"><ele>-5.4</ele><time>2021-05-12T12:43:31Z</time><name>PT7433</name></trkpt>
<trkpt lat="53.100901" lon="05.996658"><ele>-5.4</ele><time>2021-05-12T12:43:32Z</time><name>PT7434</name></trkpt>
<trkpt lat="53.100902" lon="05.996639"><ele>-5.3</ele><time>2021-05-12T12:43:33Z</time><name>PT7435</name></trkpt>
<trkpt lat="53.100902" lon="05.996618"><ele>-5.4</ele><time>2021-05-12T12:43:34Z</time><name>PT7436</name></trkpt>
<trkpt lat="53.100901" lon="05.996596"><ele>-5.3</ele><time>2021-05-12T12:43:35Z</time><name>PT7437</name></trkpt>
<trkpt lat="53.100902" lon="05.996574"><ele>-5.4</ele><time>2021-05-12T12:43:36Z</time><name>PT7438</name></trkpt>
<trkpt lat="53.100904" lon="05.996555"><ele>-5.1</ele><time>2021-05-12T12:43:37Z</time><name>PT7439</name></trkpt>
<trkpt lat="53.100905" lon="05.996538"><ele>-5</ele><time>2021-05-12T12:43:38Z</time><name>PT7440</name></trkpt>
<trkpt lat="53.100907" lon="05.996521"><ele>-5</ele><time>2021-05-12T12:43:39Z</time><name>PT7441</name></trkpt>
<trkpt lat="53.100909" lon="05.996502"><ele>-5</ele><time>2021-05-12T12:43:40Z</time><name>PT7442</name></trkpt>
<trkpt lat="53.100913" lon="05.996484"><ele>-5</ele><time>2021-05-12T12:43:41Z</time><name>PT7443</name></trkpt>
<trkpt lat="53.100914" lon="05.996467"><ele>-5</ele><time>2021-05-12T12:43:42Z</time><name>PT7444</name></trkpt>
<trkpt lat="53.100916" lon="05.996449"><ele>-5</ele><time>2021-05-12T12:43:43Z</time><name>PT7445</name></trkpt>
<trkpt lat="53.100917" lon="05.996429"><ele>-4.8</ele><time>2021-05-12T12:43:44Z</time><name>PT7446</name></trkpt>
<trkpt lat="53.100917" lon="05.996410"><ele>-5</ele><time>2021-05-12T12:43:45Z</time><name>PT7447</name></trkpt>
<trkpt lat="53.100918" lon="05.996388"><ele>-5</ele><time>2021-05-12T12:43:46Z</time><name>PT7448</name></trkpt>
<trkpt lat="53.100920" lon="05.996371"><ele>-5.2</ele><time>2021-05-12T12:43:47Z</time><name>PT7449</name></trkpt>
<trkpt lat="53.100922" lon="05.996353"><ele>-5.4</ele><time>2021-05-12T12:43:48Z</time><name>PT7450</name></trkpt>
<trkpt lat="53.100924" lon="05.996335"><ele>-5.5</ele><time>2021-05-12T12:43:49Z</time><name>PT7451</name></trkpt>
<trkpt lat="53.100927" lon="05.996314"><ele>-5.5</ele><time>2021-05-12T12:43:50Z</time><name>PT7452</name></trkpt>
<trkpt lat="53.100929" lon="05.996295"><ele>-5.5</ele><time>2021-05-12T12:43:51Z</time><name>PT7453</name></trkpt>
<trkpt lat="53.100930" lon="05.996276"><ele>-5.5</ele><time>2021-05-12T12:43:52Z</time><name>PT7454</name></trkpt>
<trkpt lat="53.100930" lon="05.996257"><ele>-5.6</ele><time>2021-05-12T12:43:53Z</time><name>PT7455</name></trkpt>
<trkpt lat="53.100930" lon="05.996238"><ele>-5.5</ele><time>2021-05-12T12:43:54Z</time><name>PT7456</name></trkpt>
<trkpt lat="53.100930" lon="05.996219"><ele>-5.5</ele><time>2021-05-12T12:43:55Z</time><name>PT7457</name></trkpt>
<trkpt lat="53.100930" lon="05.996199"><ele>-5.6</ele><time>2021-05-12T12:43:56Z</time><name>PT7458</name></trkpt>
<trkpt lat="53.100930" lon="05.996180"><ele>-5.6</ele><time>2021-05-12T12:43:57Z</time><name>PT7459</name></trkpt>
<trkpt lat="53.100932" lon="05.996162"><ele>-5.4</ele><time>2021-05-12T12:43:58Z</time><name>PT7460</name></trkpt>
<trkpt lat="53.100935" lon="05.996144"><ele>-5.4</ele><time>2021-05-12T12:43:59Z</time><name>PT7461</name></trkpt>
<trkpt lat="53.100938" lon="05.996125"><ele>-5.4</ele><time>2021-05-12T12:44:00Z</time><name>PT7462</name></trkpt>
<trkpt lat="53.100941" lon="05.996107"><ele>-5.3</ele><time>2021-05-12T12:44:01Z</time><name>PT7463</name></trkpt>
<trkpt lat="53.100943" lon="05.996090"><ele>-5.1</ele><time>2021-05-12T12:44:02Z</time><name>PT7464</name></trkpt>
<trkpt lat="53.100945" lon="05.996070"><ele>-5.3</ele><time>2021-05-12T12:44:03Z</time><name>PT7465</name></trkpt>
<trkpt lat="53.100945" lon="05.996050"><ele>-5.3</ele><time>2021-05-12T12:44:04Z</time><name>PT7466</name></trkpt>
<trkpt lat="53.100944" lon="05.996031"><ele>-5.4</ele><time>2021-05-12T12:44:05Z</time><name>PT7467</name></trkpt>
<trkpt lat="53.100944" lon="05.996011"><ele>-5.4</ele><time>2021-05-12T12:44:06Z</time><name>PT7468</name></trkpt>
<trkpt lat="53.100945" lon="05.995991"><ele>-5.3</ele><time>2021-05-12T12:44:07Z</time><name>PT7469</name></trkpt>
<trkpt lat="53.100945" lon="05.995973"><ele>-5.2</ele><time>2021-05-12T12:44:08Z</time><name>PT7470</name></trkpt>
<trkpt lat="53.100947" lon="05.995954"><ele>-5.1</ele><time>2021-05-12T12:44:09Z</time><name>PT7471</name></trkpt>
<trkpt lat="53.100949" lon="05.995936"><ele>-5.2</ele><time>2021-05-12T12:44:10Z</time><name>PT7472</name></trkpt>
<trkpt lat="53.100952" lon="05.995918"><ele>-5.1</ele><time>2021-05-12T12:44:11Z</time><name>PT7473</name></trkpt>
<trkpt lat="53.100953" lon="05.995899"><ele>-5</ele><time>2021-05-12T12:44:12Z</time><name>PT7474</name></trkpt>
<trkpt lat="53.100953" lon="05.995880"><ele>-5</ele><time>2021-05-12T12:44:13Z</time><name>PT7475</name></trkpt>
<trkpt lat="53.100953" lon="05.995859"><ele>-5</ele><time>2021-05-12T12:44:14Z</time><name>PT7476</name></trkpt>
<trkpt lat="53.100954" lon="05.995838"><ele>-5</ele><time>2021-05-12T12:44:15Z</time><name>PT7477</name></trkpt>
<trkpt lat="53.100957" lon="05.995817"><ele>-5</ele><time>2021-05-12T12:44:16Z</time><name>PT7478</name></trkpt>
<trkpt lat="53.100958" lon="05.995797"><ele>-5.2</ele><time>2021-05-12T12:44:17Z</time><name>PT7479</name></trkpt>
<trkpt lat="53.100958" lon="05.995779"><ele>-5.2</ele><time>2021-05-12T12:44:18Z</time><name>PT7480</name></trkpt>
<trkpt lat="53.100961" lon="05.995762"><ele>-5.2</ele><time>2021-05-12T12:44:19Z</time><name>PT7481</name></trkpt>
<trkpt lat="53.100964" lon="05.995745"><ele>-5.2</ele><time>2021-05-12T12:44:20Z</time><name>PT7482</name></trkpt>
<trkpt lat="53.100967" lon="05.995726"><ele>-5.1</ele><time>2021-05-12T12:44:21Z</time><name>PT7483</name></trkpt>
<trkpt lat="53.100969" lon="05.995708"><ele>-5.4</ele><time>2021-05-12T12:44:22Z</time><name>PT7484</name></trkpt>
<trkpt lat="53.100970" lon="05.995690"><ele>-5.4</ele><time>2021-05-12T12:44:23Z</time><name>PT7485</name></trkpt>
<trkpt lat="53.100972" lon="05.995671"><ele>-5.5</ele><time>2021-05-12T12:44:24Z</time><name>PT7486</name></trkpt>
<trkpt lat="53.100973" lon="05.995652"><ele>-5.5</ele><time>2021-05-12T12:44:25Z</time><name>PT7487</name></trkpt>
<trkpt lat="53.100974" lon="05.995634"><ele>-5.4</ele><time>2021-05-12T12:44:26Z</time><name>PT7488</name></trkpt>
<trkpt lat="53.100976" lon="05.995615"><ele>-5.3</ele><time>2021-05-12T12:44:27Z</time><name>PT7489</name></trkpt>
<trkpt lat="53.100980" lon="05.995595"><ele>-5.4</ele><time>2021-05-12T12:44:28Z</time><name>PT7490</name></trkpt>
<trkpt lat="53.100984" lon="05.995575"><ele>-5.4</ele><time>2021-05-12T12:44:29Z</time><name>PT7491</name></trkpt>
<trkpt lat="53.100988" lon="05.995555"><ele>-5.4</ele><time>2021-05-12T12:44:30Z</time><name>PT7492</name></trkpt>
<trkpt lat="53.100991" lon="05.995535"><ele>-5.3</ele><time>2021-05-12T12:44:31Z</time><name>PT7493</name></trkpt>
<trkpt lat="53.100991" lon="05.995517"><ele>-5.2</ele><time>2021-05-12T12:44:32Z</time><name>PT7494</name></trkpt>
<trkpt lat="53.100992" lon="05.995498"><ele>-5</ele><time>2021-05-12T12:44:33Z</time><name>PT7495</name></trkpt>
<trkpt lat="53.100993" lon="05.995478"><ele>-5</ele><time>2021-05-12T12:44:34Z</time><name>PT7496</name></trkpt>
<trkpt lat="53.100994" lon="05.995458"><ele>-5</ele><time>2021-05-12T12:44:35Z</time><name>PT7497</name></trkpt>
<trkpt lat="53.100995" lon="05.995438"><ele>-4.8</ele><time>2021-05-12T12:44:36Z</time><name>PT7498</name></trkpt>
<trkpt lat="53.100997" lon="05.995419"><ele>-4.9</ele><time>2021-05-12T12:44:37Z</time><name>PT7499</name></trkpt>
<trkpt lat="53.101002" lon="05.995402"><ele>-4.8</ele><time>2021-05-12T12:44:38Z</time><name>PT7500</name></trkpt>
<trkpt lat="53.101005" lon="05.995382"><ele>-5</ele><time>2021-05-12T12:44:39Z</time><name>PT7501</name></trkpt>
<trkpt lat="53.101006" lon="05.995363"><ele>-5.1</ele><time>2021-05-12T12:44:40Z</time><name>PT7502</name></trkpt>
<trkpt lat="53.101007" lon="05.995344"><ele>-5.1</ele><time>2021-05-12T12:44:41Z</time><name>PT7503</name></trkpt>
<trkpt lat="53.101005" lon="05.995324"><ele>-5.3</ele><time>2021-05-12T12:44:42Z</time><name>PT7504</name></trkpt>
<trkpt lat="53.101005" lon="05.995305"><ele>-5.4</ele><time>2021-05-12T12:44:43Z</time><name>PT7505</name></trkpt>
<trkpt lat="53.101006" lon="05.995286"><ele>-5.4</ele><time>2021-05-12T12:44:44Z</time><name>PT7506</name></trkpt>
<trkpt lat="53.101008" lon="05.995268"><ele>-5.4</ele><time>2021-05-12T12:44:45Z</time><name>PT7507</name></trkpt>
<trkpt lat="53.101009" lon="05.995252"><ele>-5.3</ele><time>2021-05-12T12:44:46Z</time><name>PT7508</name></trkpt>
<trkpt lat="53.101011" lon="05.995233"><ele>-5</ele><time>2021-05-12T12:44:47Z</time><name>PT7509</name></trkpt>
<trkpt lat="53.101014" lon="05.995213"><ele>-5</ele><time>2021-05-12T12:44:48Z</time><name>PT7510</name></trkpt>
<trkpt lat="53.101016" lon="05.995193"><ele>-4.8</ele><time>2021-05-12T12:44:49Z</time><name>PT7511</name></trkpt>
<trkpt lat="53.101017" lon="05.995173"><ele>-4.7</ele><time>2021-05-12T12:44:50Z</time><name>PT7512</name></trkpt>
<trkpt lat="53.101018" lon="05.995155"><ele>-4.6</ele><time>2021-05-12T12:44:51Z</time><name>PT7513</name></trkpt>
<trkpt lat="53.101019" lon="05.995135"><ele>-4.7</ele><time>2021-05-12T12:44:52Z</time><name>PT7514</name></trkpt>
<trkpt lat="53.101019" lon="05.995115"><ele>-4.8</ele><time>2021-05-12T12:44:53Z</time><name>PT7515</name></trkpt>
<trkpt lat="53.101020" lon="05.995095"><ele>-5</ele><time>2021-05-12T12:44:54Z</time><name>PT7516</name></trkpt>
<trkpt lat="53.101021" lon="05.995078"><ele>-5</ele><time>2021-05-12T12:44:55Z</time><name>PT7517</name></trkpt>
<trkpt lat="53.101024" lon="05.995060"><ele>-5</ele><time>2021-05-12T12:44:56Z</time><name>PT7518</name></trkpt>
<trkpt lat="53.101025" lon="05.995042"><ele>-5</ele><time>2021-05-12T12:44:57Z</time><name>PT7519</name></trkpt>
<trkpt lat="53.101026" lon="05.995024"><ele>-5</ele><time>2021-05-12T12:44:58Z</time><name>PT7520</name></trkpt>
<trkpt lat="53.101025" lon="05.995007"><ele>-4.8</ele><time>2021-05-12T12:44:59Z</time><name>PT7521</name></trkpt>
<trkpt lat="53.101024" lon="05.994991"><ele>-4.8</ele><time>2021-05-12T12:45:00Z</time><name>PT7522</name></trkpt>
<trkpt lat="53.101024" lon="05.994975"><ele>-4.7</ele><time>2021-05-12T12:45:01Z</time><name>PT7523</name></trkpt>
<trkpt lat="53.101026" lon="05.994958"><ele>-4.6</ele><time>2021-05-12T12:45:02Z</time><name>PT7524</name></trkpt>
<trkpt lat="53.101030" lon="05.994939"><ele>-4.6</ele><time>2021-05-12T12:45:03Z</time><name>PT7525</name></trkpt>
<trkpt lat="53.101034" lon="05.994919"><ele>-4.5</ele><time>2021-05-12T12:45:04Z</time><name>PT7526</name></trkpt>
<trkpt lat="53.101039" lon="05.994900"><ele>-4.6</ele><time>2021-05-12T12:45:05Z</time><name>PT7527</name></trkpt>
<trkpt lat="53.101041" lon="05.994882"><ele>-4.7</ele><time>2021-05-12T12:45:06Z</time><name>PT7528</name></trkpt>
<trkpt lat="53.101043" lon="05.994863"><ele>-4.6</ele><time>2021-05-12T12:45:07Z</time><name>PT7529</name></trkpt>
<trkpt lat="53.101045" lon="05.994844"><ele>-4.7</ele><time>2021-05-12T12:45:08Z</time><name>PT7530</name></trkpt>
<trkpt lat="53.101046" lon="05.994826"><ele>-4.6</ele><time>2021-05-12T12:45:09Z</time><name>PT7531</name></trkpt>
<trkpt lat="53.101048" lon="05.994806"><ele>-4.7</ele><time>2021-05-12T12:45:10Z</time><name>PT7532</name></trkpt>
<trkpt lat="53.101050" lon="05.994788"><ele>-4.7</ele><time>2021-05-12T12:45:11Z</time><name>PT7533</name></trkpt>
<trkpt lat="53.101053" lon="05.994770"><ele>-4.7</ele><time>2021-05-12T12:45:12Z</time><name>PT7534</name></trkpt>
<trkpt lat="53.101056" lon="05.994750"><ele>-4.7</ele><time>2021-05-12T12:45:13Z</time><name>PT7535</name></trkpt>
<trkpt lat="53.101059" lon="05.994731"><ele>-4.9</ele><time>2021-05-12T12:45:14Z</time><name>PT7536</name></trkpt>
<trkpt lat="53.101062" lon="05.994711"><ele>-4.8</ele><time>2021-05-12T12:45:15Z</time><name>PT7537</name></trkpt>
<trkpt lat="53.101063" lon="05.994691"><ele>-4.9</ele><time>2021-05-12T12:45:16Z</time><name>PT7538</name></trkpt>
<trkpt lat="53.101065" lon="05.994672"><ele>-5</ele><time>2021-05-12T12:45:17Z</time><name>PT7539</name></trkpt>
<trkpt lat="53.101066" lon="05.994654"><ele>-4.9</ele><time>2021-05-12T12:45:18Z</time><name>PT7540</name></trkpt>
<trkpt lat="53.101068" lon="05.994635"><ele>-4.7</ele><time>2021-05-12T12:45:19Z</time><name>PT7541</name></trkpt>
<trkpt lat="53.101070" lon="05.994617"><ele>-4.6</ele><time>2021-05-12T12:45:20Z</time><name>PT7542</name></trkpt>
<trkpt lat="53.101071" lon="05.994599"><ele>-4.5</ele><time>2021-05-12T12:45:21Z</time><name>PT7543</name></trkpt>
<trkpt lat="53.101072" lon="05.994580"><ele>-4.5</ele><time>2021-05-12T12:45:22Z</time><name>PT7544</name></trkpt>
<trkpt lat="53.101075" lon="05.994561"><ele>-4.6</ele><time>2021-05-12T12:45:23Z</time><name>PT7545</name></trkpt>
<trkpt lat="53.101079" lon="05.994542"><ele>-4.6</ele><time>2021-05-12T12:45:24Z</time><name>PT7546</name></trkpt>
<trkpt lat="53.101081" lon="05.994526"><ele>-4.6</ele><time>2021-05-12T12:45:25Z</time><name>PT7547</name></trkpt>
<trkpt lat="53.101082" lon="05.994507"><ele>-4.7</ele><time>2021-05-12T12:45:26Z</time><name>PT7548</name></trkpt>
<trkpt lat="53.101084" lon="05.994487"><ele>-4.7</ele><time>2021-05-12T12:45:27Z</time><name>PT7549</name></trkpt>
<trkpt lat="53.101084" lon="05.994467"><ele>-4.9</ele><time>2021-05-12T12:45:28Z</time><name>PT7550</name></trkpt>
<trkpt lat="53.101084" lon="05.994446"><ele>-4.8</ele><time>2021-05-12T12:45:29Z</time><name>PT7551</name></trkpt>
<trkpt lat="53.101085" lon="05.994429"><ele>-4.9</ele><time>2021-05-12T12:45:30Z</time><name>PT7552</name></trkpt>
<trkpt lat="53.101086" lon="05.994413"><ele>-4.8</ele><time>2021-05-12T12:45:31Z</time><name>PT7553</name></trkpt>
<trkpt lat="53.101089" lon="05.994394"><ele>-4.8</ele><time>2021-05-12T12:45:32Z</time><name>PT7554</name></trkpt>
<trkpt lat="53.101091" lon="05.994375"><ele>-4.8</ele><time>2021-05-12T12:45:33Z</time><name>PT7555</name></trkpt>
<trkpt lat="53.101092" lon="05.994357"><ele>-4.9</ele><time>2021-05-12T12:45:34Z</time><name>PT7556</name></trkpt>
<trkpt lat="53.101092" lon="05.994339"><ele>-5</ele><time>2021-05-12T12:45:35Z</time><name>PT7557</name></trkpt>
<trkpt lat="53.101092" lon="05.994320"><ele>-5.2</ele><time>2021-05-12T12:45:36Z</time><name>PT7558</name></trkpt>
<trkpt lat="53.101092" lon="05.994304"><ele>-5.4</ele><time>2021-05-12T12:45:37Z</time><name>PT7559</name></trkpt>
<trkpt lat="53.101094" lon="05.994286"><ele>-5.3</ele><time>2021-05-12T12:45:38Z</time><name>PT7560</name></trkpt>
<trkpt lat="53.101097" lon="05.994267"><ele>-5.3</ele><time>2021-05-12T12:45:39Z</time><name>PT7561</name></trkpt>
<trkpt lat="53.101100" lon="05.994247"><ele>-5.4</ele><time>2021-05-12T12:45:40Z</time><name>PT7562</name></trkpt>
<trkpt lat="53.101103" lon="05.994226"><ele>-5.5</ele><time>2021-05-12T12:45:41Z</time><name>PT7563</name></trkpt>
<trkpt lat="53.101104" lon="05.994208"><ele>-5.6</ele><time>2021-05-12T12:45:42Z</time><name>PT7564</name></trkpt>
<trkpt lat="53.101103" lon="05.994188"><ele>-5.7</ele><time>2021-05-12T12:45:43Z</time><name>PT7565</name></trkpt>
<trkpt lat="53.101103" lon="05.994168"><ele>-5.8</ele><time>2021-05-12T12:45:44Z</time><name>PT7566</name></trkpt>
<trkpt lat="53.101105" lon="05.994147"><ele>-5.9</ele><time>2021-05-12T12:45:45Z</time><name>PT7567</name></trkpt>
<trkpt lat="53.101106" lon="05.994129"><ele>-5.7</ele><time>2021-05-12T12:45:46Z</time><name>PT7568</name></trkpt>
<trkpt lat="53.101109" lon="05.994111"><ele>-5.6</ele><time>2021-05-12T12:45:47Z</time><name>PT7569</name></trkpt>
<trkpt lat="53.101111" lon="05.994093"><ele>-5.6</ele><time>2021-05-12T12:45:48Z</time><name>PT7570</name></trkpt>
<trkpt lat="53.101116" lon="05.994073"><ele>-5.5</ele><time>2021-05-12T12:45:49Z</time><name>PT7571</name></trkpt>
<trkpt lat="53.101119" lon="05.994053"><ele>-5.3</ele><time>2021-05-12T12:45:50Z</time><name>PT7572</name></trkpt>
<trkpt lat="53.101119" lon="05.994036"><ele>-5.2</ele><time>2021-05-12T12:45:51Z</time><name>PT7573</name></trkpt>
<trkpt lat="53.101120" lon="05.994018"><ele>-5.1</ele><time>2021-05-12T12:45:52Z</time><name>PT7574</name></trkpt>
<trkpt lat="53.101121" lon="05.993998"><ele>-5.1</ele><time>2021-05-12T12:45:53Z</time><name>PT7575</name></trkpt>
<trkpt lat="53.101122" lon="05.993978"><ele>-5.2</ele><time>2021-05-12T12:45:54Z</time><name>PT7576</name></trkpt>
<trkpt lat="53.101122" lon="05.993959"><ele>-5.1</ele><time>2021-05-12T12:45:55Z</time><name>PT7577</name></trkpt>
<trkpt lat="53.101124" lon="05.993940"><ele>-5.1</ele><time>2021-05-12T12:45:56Z</time><name>PT7578</name></trkpt>
<trkpt lat="53.101127" lon="05.993921"><ele>-5</ele><time>2021-05-12T12:45:57Z</time><name>PT7579</name></trkpt>
<trkpt lat="53.101129" lon="05.993901"><ele>-4.8</ele><time>2021-05-12T12:45:58Z</time><name>PT7580</name></trkpt>
<trkpt lat="53.101129" lon="05.993884"><ele>-4.7</ele><time>2021-05-12T12:45:59Z</time><name>PT7581</name></trkpt>
<trkpt lat="53.101129" lon="05.993864"><ele>-4.7</ele><time>2021-05-12T12:46:00Z</time><name>PT7582</name></trkpt>
<trkpt lat="53.101129" lon="05.993843"><ele>-4.6</ele><time>2021-05-12T12:46:01Z</time><name>PT7583</name></trkpt>
<trkpt lat="53.101129" lon="05.993820"><ele>-4.7</ele><time>2021-05-12T12:46:02Z</time><name>PT7584</name></trkpt>
<trkpt lat="53.101130" lon="05.993799"><ele>-4.6</ele><time>2021-05-12T12:46:03Z</time><name>PT7585</name></trkpt>
<trkpt lat="53.101132" lon="05.993782"><ele>-4.6</ele><time>2021-05-12T12:46:04Z</time><name>PT7586</name></trkpt>
<trkpt lat="53.101135" lon="05.993763"><ele>-4.8</ele><time>2021-05-12T12:46:05Z</time><name>PT7587</name></trkpt>
<trkpt lat="53.101137" lon="05.993743"><ele>-4.6</ele><time>2021-05-12T12:46:06Z</time><name>PT7588</name></trkpt>
<trkpt lat="53.101140" lon="05.993722"><ele>-4.6</ele><time>2021-05-12T12:46:07Z</time><name>PT7589</name></trkpt>
<trkpt lat="53.101142" lon="05.993703"><ele>-4.7</ele><time>2021-05-12T12:46:08Z</time><name>PT7590</name></trkpt>
<trkpt lat="53.101144" lon="05.993685"><ele>-4.8</ele><time>2021-05-12T12:46:09Z</time><name>PT7591</name></trkpt>
<trkpt lat="53.101145" lon="05.993666"><ele>-4.7</ele><time>2021-05-12T12:46:10Z</time><name>PT7592</name></trkpt>
<trkpt lat="53.101145" lon="05.993649"><ele>-4.6</ele><time>2021-05-12T12:46:11Z</time><name>PT7593</name></trkpt>
<trkpt lat="53.101145" lon="05.993633"><ele>-4.8</ele><time>2021-05-12T12:46:12Z</time><name>PT7594</name></trkpt>
<trkpt lat="53.101145" lon="05.993616"><ele>-4.7</ele><time>2021-05-12T12:46:13Z</time><name>PT7595</name></trkpt>
<trkpt lat="53.101145" lon="05.993598"><ele>-5</ele><time>2021-05-12T12:46:14Z</time><name>PT7596</name></trkpt>
<trkpt lat="53.101146" lon="05.993581"><ele>-5.1</ele><time>2021-05-12T12:46:15Z</time><name>PT7597</name></trkpt>
<trkpt lat="53.101148" lon="05.993563"><ele>-5.1</ele><time>2021-05-12T12:46:16Z</time><name>PT7598</name></trkpt>
<trkpt lat="53.101148" lon="05.993546"><ele>-5</ele><time>2021-05-12T12:46:17Z</time><name>PT7599</name></trkpt>
<trkpt lat="53.101150" lon="05.993528"><ele>-5.1</ele><time>2021-05-12T12:46:18Z</time><name>PT7600</name></trkpt>
<trkpt lat="53.101151" lon="05.993510"><ele>-4.8</ele><time>2021-05-12T12:46:19Z</time><name>PT7601</name></trkpt>
<trkpt lat="53.101153" lon="05.993489"><ele>-4.7</ele><time>2021-05-12T12:46:20Z</time><name>PT7602</name></trkpt>
<trkpt lat="53.101156" lon="05.993466"><ele>-4.6</ele><time>2021-05-12T12:46:21Z</time><name>PT7603</name></trkpt>
<trkpt lat="53.101156" lon="05.993448"><ele>-4.5</ele><time>2021-05-12T12:46:22Z</time><name>PT7604</name></trkpt>
<trkpt lat="53.101156" lon="05.993428"><ele>-4.6</ele><time>2021-05-12T12:46:23Z</time><name>PT7605</name></trkpt>
<trkpt lat="53.101156" lon="05.993408"><ele>-4.5</ele><time>2021-05-12T12:46:24Z</time><name>PT7606</name></trkpt>
<trkpt lat="53.101157" lon="05.993387"><ele>-4.5</ele><time>2021-05-12T12:46:25Z</time><name>PT7607</name></trkpt>
<trkpt lat="53.101159" lon="05.993368"><ele>-4.6</ele><time>2021-05-12T12:46:26Z</time><name>PT7608</name></trkpt>
<trkpt lat="53.101161" lon="05.993348"><ele>-4.6</ele><time>2021-05-12T12:46:27Z</time><name>PT7609</name></trkpt>
<trkpt lat="53.101163" lon="05.993328"><ele>-4.6</ele><time>2021-05-12T12:46:28Z</time><name>PT7610</name></trkpt>
<trkpt lat="53.101165" lon="05.993307"><ele>-4.6</ele><time>2021-05-12T12:46:29Z</time><name>PT7611</name></trkpt>
<trkpt lat="53.101165" lon="05.993290"><ele>-4.5</ele><time>2021-05-12T12:46:30Z</time><name>PT7612</name></trkpt>
<trkpt lat="53.101167" lon="05.993269"><ele>-4.4</ele><time>2021-05-12T12:46:31Z</time><name>PT7613</name></trkpt>
<trkpt lat="53.101167" lon="05.993248"><ele>-4.3</ele><time>2021-05-12T12:46:32Z</time><name>PT7614</name></trkpt>
<trkpt lat="53.101168" lon="05.993228"><ele>-4.3</ele><time>2021-05-12T12:46:33Z</time><name>PT7615</name></trkpt>
<trkpt lat="53.101170" lon="05.993210"><ele>-4.3</ele><time>2021-05-12T12:46:34Z</time><name>PT7616</name></trkpt>
<trkpt lat="53.101173" lon="05.993193"><ele>-4.5</ele><time>2021-05-12T12:46:35Z</time><name>PT7617</name></trkpt>
<trkpt lat="53.101174" lon="05.993173"><ele>-4.5</ele><time>2021-05-12T12:46:36Z</time><name>PT7618</name></trkpt>
<trkpt lat="53.101175" lon="05.993155"><ele>-4.7</ele><time>2021-05-12T12:46:37Z</time><name>PT7619</name></trkpt>
<trkpt lat="53.101177" lon="05.993138"><ele>-4.9</ele><time>2021-05-12T12:46:38Z</time><name>PT7620</name></trkpt>
<trkpt lat="53.101179" lon="05.993119"><ele>-4.8</ele><time>2021-05-12T12:46:39Z</time><name>PT7621</name></trkpt>
<trkpt lat="53.101180" lon="05.993099"><ele>-4.8</ele><time>2021-05-12T12:46:40Z</time><name>PT7622</name></trkpt>
<trkpt lat="53.101178" lon="05.993081"><ele>-4.7</ele><time>2021-05-12T12:46:41Z</time><name>PT7623</name></trkpt>
<trkpt lat="53.101178" lon="05.993063"><ele>-4.7</ele><time>2021-05-12T12:46:42Z</time><name>PT7624</name></trkpt>
<trkpt lat="53.101180" lon="05.993044"><ele>-4.8</ele><time>2021-05-12T12:46:43Z</time><name>PT7625</name></trkpt>
<trkpt lat="53.101182" lon="05.993025"><ele>-5</ele><time>2021-05-12T12:46:44Z</time><name>PT7626</name></trkpt>
<trkpt lat="53.101183" lon="05.993006"><ele>-4.9</ele><time>2021-05-12T12:46:45Z</time><name>PT7627</name></trkpt>
<trkpt lat="53.101185" lon="05.992988"><ele>-4.9</ele><time>2021-05-12T12:46:46Z</time><name>PT7628</name></trkpt>
<trkpt lat="53.101185" lon="05.992967"><ele>-4.6</ele><time>2021-05-12T12:46:47Z</time><name>PT7629</name></trkpt>
<trkpt lat="53.101185" lon="05.992947"><ele>-4.6</ele><time>2021-05-12T12:46:48Z</time><name>PT7630</name></trkpt>
<trkpt lat="53.101185" lon="05.992928"><ele>-4.4</ele><time>2021-05-12T12:46:49Z</time><name>PT7631</name></trkpt>
<trkpt lat="53.101186" lon="05.992910"><ele>-4.3</ele><time>2021-05-12T12:46:50Z</time><name>PT7632</name></trkpt>
<trkpt lat="53.101189" lon="05.992892"><ele>-4.4</ele><time>2021-05-12T12:46:51Z</time><name>PT7633</name></trkpt>
<trkpt lat="53.101192" lon="05.992872"><ele>-4.5</ele><time>2021-05-12T12:46:52Z</time><name>PT7634</name></trkpt>
<trkpt lat="53.101194" lon="05.992854"><ele>-4.4</ele><time>2021-05-12T12:46:53Z</time><name>PT7635</name></trkpt>
<trkpt lat="53.101195" lon="05.992835"><ele>-4.5</ele><time>2021-05-12T12:46:54Z</time><name>PT7636</name></trkpt>
<trkpt lat="53.101195" lon="05.992816"><ele>-4.5</ele><time>2021-05-12T12:46:55Z</time><name>PT7637</name></trkpt>
<trkpt lat="53.101195" lon="05.992795"><ele>-4.5</ele><time>2021-05-12T12:46:56Z</time><name>PT7638</name></trkpt>
<trkpt lat="53.101196" lon="05.992777"><ele>-4.5</ele><time>2021-05-12T12:46:57Z</time><name>PT7639</name></trkpt>
<trkpt lat="53.101198" lon="05.992759"><ele>-4.5</ele><time>2021-05-12T12:46:58Z</time><name>PT7640</name></trkpt>
<trkpt lat="53.101200" lon="05.992738"><ele>-4.5</ele><time>2021-05-12T12:46:59Z</time><name>PT7641</name></trkpt>
<trkpt lat="53.101202" lon="05.992718"><ele>-4.3</ele><time>2021-05-12T12:47:00Z</time><name>PT7642</name></trkpt>
<trkpt lat="53.101203" lon="05.992698"><ele>-4.3</ele><time>2021-05-12T12:47:01Z</time><name>PT7643</name></trkpt>
<trkpt lat="53.101204" lon="05.992679"><ele>-4.1</ele><time>2021-05-12T12:47:02Z</time><name>PT7644</name></trkpt>
<trkpt lat="53.101206" lon="05.992659"><ele>-4.1</ele><time>2021-05-12T12:47:03Z</time><name>PT7645</name></trkpt>
<trkpt lat="53.101207" lon="05.992639"><ele>-4.2</ele><time>2021-05-12T12:47:04Z</time><name>PT7646</name></trkpt>
<trkpt lat="53.101208" lon="05.992621"><ele>-4.1</ele><time>2021-05-12T12:47:05Z</time><name>PT7647</name></trkpt>
<trkpt lat="53.101210" lon="05.992603"><ele>-4.1</ele><time>2021-05-12T12:47:06Z</time><name>PT7648</name></trkpt>
<trkpt lat="53.101212" lon="05.992586"><ele>-4.1</ele><time>2021-05-12T12:47:07Z</time><name>PT7649</name></trkpt>
<trkpt lat="53.101215" lon="05.992567"><ele>-4.2</ele><time>2021-05-12T12:47:08Z</time><name>PT7650</name></trkpt>
<trkpt lat="53.101217" lon="05.992549"><ele>-4.1</ele><time>2021-05-12T12:47:09Z</time><name>PT7651</name></trkpt>
<trkpt lat="53.101217" lon="05.992530"><ele>-4.2</ele><time>2021-05-12T12:47:10Z</time><name>PT7652</name></trkpt>
<trkpt lat="53.101218" lon="05.992509"><ele>-4.2</ele><time>2021-05-12T12:47:11Z</time><name>PT7653</name></trkpt>
<trkpt lat="53.101218" lon="05.992488"><ele>-4.2</ele><time>2021-05-12T12:47:12Z</time><name>PT7654</name></trkpt>
<trkpt lat="53.101220" lon="05.992469"><ele>-4</ele><time>2021-05-12T12:47:13Z</time><name>PT7655</name></trkpt>
<trkpt lat="53.101222" lon="05.992451"><ele>-4</ele><time>2021-05-12T12:47:14Z</time><name>PT7656</name></trkpt>
<trkpt lat="53.101225" lon="05.992433"><ele>-4</ele><time>2021-05-12T12:47:15Z</time><name>PT7657</name></trkpt>
<trkpt lat="53.101229" lon="05.992416"><ele>-4</ele><time>2021-05-12T12:47:16Z</time><name>PT7658</name></trkpt>
<trkpt lat="53.101232" lon="05.992400"><ele>-4</ele><time>2021-05-12T12:47:17Z</time><name>PT7659</name></trkpt>
<trkpt lat="53.101233" lon="05.992383"><ele>-4.2</ele><time>2021-05-12T12:47:18Z</time><name>PT7660</name></trkpt>
<trkpt lat="53.101232" lon="05.992364"><ele>-4</ele><time>2021-05-12T12:47:19Z</time><name>PT7661</name></trkpt>
<trkpt lat="53.101232" lon="05.992344"><ele>-4.2</ele><time>2021-05-12T12:47:20Z</time><name>PT7662</name></trkpt>
<trkpt lat="53.101233" lon="05.992327"><ele>-4.3</ele><time>2021-05-12T12:47:21Z</time><name>PT7663</name></trkpt>
<trkpt lat="53.101236" lon="05.992308"><ele>-4.1</ele><time>2021-05-12T12:47:22Z</time><name>PT7664</name></trkpt>
<trkpt lat="53.101238" lon="05.992289"><ele>-4</ele><time>2021-05-12T12:47:23Z</time><name>PT7665</name></trkpt>
<trkpt lat="53.101240" lon="05.992270"><ele>-3.9</ele><time>2021-05-12T12:47:24Z</time><name>PT7666</name></trkpt>
<trkpt lat="53.101241" lon="05.992251"><ele>-3.6</ele><time>2021-05-12T12:47:25Z</time><name>PT7667</name></trkpt>
<trkpt lat="53.101241" lon="05.992231"><ele>-3.5</ele><time>2021-05-12T12:47:26Z</time><name>PT7668</name></trkpt>
<trkpt lat="53.101241" lon="05.992212"><ele>-3.6</ele><time>2021-05-12T12:47:27Z</time><name>PT7669</name></trkpt>
<trkpt lat="53.101241" lon="05.992197"><ele>-3.9</ele><time>2021-05-12T12:47:28Z</time><name>PT7670</name></trkpt>
<trkpt lat="53.101245" lon="05.992181"><ele>-4.1</ele><time>2021-05-12T12:47:29Z</time><name>PT7671</name></trkpt>
<trkpt lat="53.101246" lon="05.992166"><ele>-4.3</ele><time>2021-05-12T12:47:30Z</time><name>PT7672</name></trkpt>
<trkpt lat="53.101246" lon="05.992153"><ele>-4.3</ele><time>2021-05-12T12:47:31Z</time><name>PT7673</name></trkpt>
<trkpt lat="53.101246" lon="05.992142"><ele>-4.5</ele><time>2021-05-12T12:47:32Z</time><name>PT7674</name></trkpt>
<trkpt lat="53.101246" lon="05.992131"><ele>-4.5</ele><time>2021-05-12T12:47:33Z</time><name>PT7675</name></trkpt>
<trkpt lat="53.101248" lon="05.992116"><ele>-4.8</ele><time>2021-05-12T12:47:34Z</time><name>PT7676</name></trkpt>
<trkpt lat="53.101248" lon="05.992100"><ele>-4.5</ele><time>2021-05-12T12:47:35Z</time><name>PT7677</name></trkpt>
<trkpt lat="53.101246" lon="05.992084"><ele>-4.5</ele><time>2021-05-12T12:47:36Z</time><name>PT7678</name></trkpt>
<trkpt lat="53.101248" lon="05.992072"><ele>-4.1</ele><time>2021-05-12T12:47:37Z</time><name>PT7679</name></trkpt>
<trkpt lat="53.101251" lon="05.992068"><ele>-4</ele><time>2021-05-12T12:47:38Z</time><name>PT7680</name></trkpt>
<trkpt lat="53.101252" lon="05.992066"><ele>-3.9</ele><time>2021-05-12T12:47:39Z</time><name>PT7681</name></trkpt>
<trkpt lat="53.101252" lon="05.992066"><ele>-3.9</ele><time>2021-05-12T12:47:40Z</time><name>PT7682</name></trkpt>
<trkpt lat="53.101254" lon="05.992061"><ele>-3.6</ele><time>2021-05-12T12:47:43Z</time><name>PT7683</name></trkpt>
<trkpt lat="53.101251" lon="05.992046"><ele>-3.3</ele><time>2021-05-12T12:47:44Z</time><name>PT7684</name></trkpt>
<trkpt lat="53.101252" lon="05.992035"><ele>-3.3</ele><time>2021-05-12T12:47:45Z</time><name>PT7685</name></trkpt>
<trkpt lat="53.101255" lon="05.992030"><ele>-3.2</ele><time>2021-05-12T12:47:46Z</time><name>PT7686</name></trkpt>
<trkpt lat="53.101256" lon="05.992024"><ele>-3.3</ele><time>2021-05-12T12:47:47Z</time><name>PT7687</name></trkpt>
<trkpt lat="53.101256" lon="05.992013"><ele>-3.3</ele><time>2021-05-12T12:47:48Z</time><name>PT7688</name></trkpt>
<trkpt lat="53.101257" lon="05.991998"><ele>-3.4</ele><time>2021-05-12T12:47:49Z</time><name>PT7689</name></trkpt>
<trkpt lat="53.101258" lon="05.991983"><ele>-3.7</ele><time>2021-05-12T12:47:50Z</time><name>PT7690</name></trkpt>
<trkpt lat="53.101259" lon="05.991967"><ele>-3.6</ele><time>2021-05-12T12:47:51Z</time><name>PT7691</name></trkpt>
<trkpt lat="53.101259" lon="05.991952"><ele>-3.9</ele><time>2021-05-12T12:47:52Z</time><name>PT7692</name></trkpt>
<trkpt lat="53.101260" lon="05.991937"><ele>-4</ele><time>2021-05-12T12:47:53Z</time><name>PT7693</name></trkpt>
<trkpt lat="53.101261" lon="05.991921"><ele>-4</ele><time>2021-05-12T12:47:54Z</time><name>PT7694</name></trkpt>
<trkpt lat="53.101263" lon="05.991904"><ele>-4.2</ele><time>2021-05-12T12:47:55Z</time><name>PT7695</name></trkpt>
<trkpt lat="53.101265" lon="05.991887"><ele>-4.3</ele><time>2021-05-12T12:47:56Z</time><name>PT7696</name></trkpt>
<trkpt lat="53.101266" lon="05.991871"><ele>-4.3</ele><time>2021-05-12T12:47:57Z</time><name>PT7697</name></trkpt>
<trkpt lat="53.101266" lon="05.991854"><ele>-4.2</ele><time>2021-05-12T12:47:58Z</time><name>PT7698</name></trkpt>
<trkpt lat="53.101265" lon="05.991836"><ele>-4.2</ele><time>2021-05-12T12:47:59Z</time><name>PT7699</name></trkpt>
<trkpt lat="53.101265" lon="05.991819"><ele>-4.1</ele><time>2021-05-12T12:48:00Z</time><name>PT7700</name></trkpt>
<trkpt lat="53.101267" lon="05.991802"><ele>-4</ele><time>2021-05-12T12:48:01Z</time><name>PT7701</name></trkpt>
<trkpt lat="53.101270" lon="05.991784"><ele>-4.2</ele><time>2021-05-12T12:48:02Z</time><name>PT7702</name></trkpt>
<trkpt lat="53.101273" lon="05.991767"><ele>-4.4</ele><time>2021-05-12T12:48:03Z</time><name>PT7703</name></trkpt>
<trkpt lat="53.101275" lon="05.991752"><ele>-4.5</ele><time>2021-05-12T12:48:04Z</time><name>PT7704</name></trkpt>
<trkpt lat="53.101275" lon="05.991743"><ele>-4.8</ele><time>2021-05-12T12:48:05Z</time><name>PT7705</name></trkpt>
<trkpt lat="53.101276" lon="05.991739"><ele>-4.6</ele><time>2021-05-12T12:48:06Z</time><name>PT7706</name></trkpt>
<trkpt lat="53.101277" lon="05.991738"><ele>-4.5</ele><time>2021-05-12T12:48:07Z</time><name>PT7707</name></trkpt>
<trkpt lat="53.101276" lon="05.991732"><ele>-4.2</ele><time>2021-05-12T12:48:08Z</time><name>PT7708</name></trkpt>
<trkpt lat="53.101278" lon="05.991722"><ele>-3.9</ele><time>2021-05-12T12:48:09Z</time><name>PT7709</name></trkpt>
<trkpt lat="53.101281" lon="05.991708"><ele>-3.8</ele><time>2021-05-12T12:48:10Z</time><name>PT7710</name></trkpt>
<trkpt lat="53.101281" lon="05.991693"><ele>-3.8</ele><time>2021-05-12T12:48:11Z</time><name>PT7711</name></trkpt>
<trkpt lat="53.101281" lon="05.991675"><ele>-3.9</ele><time>2021-05-12T12:48:12Z</time><name>PT7712</name></trkpt>
<trkpt lat="53.101281" lon="05.991658"><ele>-4.1</ele><time>2021-05-12T12:48:13Z</time><name>PT7713</name></trkpt>
<trkpt lat="53.101282" lon="05.991642"><ele>-4.1</ele><time>2021-05-12T12:48:14Z</time><name>PT7714</name></trkpt>
<trkpt lat="53.101284" lon="05.991625"><ele>-4.3</ele><time>2021-05-12T12:48:15Z</time><name>PT7715</name></trkpt>
<trkpt lat="53.101286" lon="05.991607"><ele>-4.3</ele><time>2021-05-12T12:48:16Z</time><name>PT7716</name></trkpt>
<trkpt lat="53.101288" lon="05.991591"><ele>-4.3</ele><time>2021-05-12T12:48:17Z</time><name>PT7717</name></trkpt>
<trkpt lat="53.101288" lon="05.991574"><ele>-4.5</ele><time>2021-05-12T12:48:18Z</time><name>PT7718</name></trkpt>
<trkpt lat="53.101288" lon="05.991557"><ele>-4.4</ele><time>2021-05-12T12:48:19Z</time><name>PT7719</name></trkpt>
<trkpt lat="53.101290" lon="05.991546"><ele>-4.5</ele><time>2021-05-12T12:48:20Z</time><name>PT7720</name></trkpt>
<trkpt lat="53.101293" lon="05.991531"><ele>-4.5</ele><time>2021-05-12T12:48:21Z</time><name>PT7721</name></trkpt>
<trkpt lat="53.101295" lon="05.991517"><ele>-4.3</ele><time>2021-05-12T12:48:22Z</time><name>PT7722</name></trkpt>
<trkpt lat="53.101295" lon="05.991502"><ele>-4.3</ele><time>2021-05-12T12:48:23Z</time><name>PT7723</name></trkpt>
<trkpt lat="53.101294" lon="05.991485"><ele>-4.1</ele><time>2021-05-12T12:48:24Z</time><name>PT7724</name></trkpt>
<trkpt lat="53.101295" lon="05.991470"><ele>-4.1</ele><time>2021-05-12T12:48:25Z</time><name>PT7725</name></trkpt>
<trkpt lat="53.101296" lon="05.991452"><ele>-4.3</ele><time>2021-05-12T12:48:26Z</time><name>PT7726</name></trkpt>
<trkpt lat="53.101297" lon="05.991434"><ele>-4.3</ele><time>2021-05-12T12:48:27Z</time><name>PT7727</name></trkpt>
<trkpt lat="53.101298" lon="05.991416"><ele>-4.5</ele><time>2021-05-12T12:48:28Z</time><name>PT7728</name></trkpt>
<trkpt lat="53.101300" lon="05.991398"><ele>-4.6</ele><time>2021-05-12T12:48:29Z</time><name>PT7729</name></trkpt>
<trkpt lat="53.101301" lon="05.991381"><ele>-4.5</ele><time>2021-05-12T12:48:30Z</time><name>PT7730</name></trkpt>
<trkpt lat="53.101301" lon="05.991363"><ele>-4.5</ele><time>2021-05-12T12:48:31Z</time><name>PT7731</name></trkpt>
<trkpt lat="53.101303" lon="05.991345"><ele>-4.4</ele><time>2021-05-12T12:48:32Z</time><name>PT7732</name></trkpt>
<trkpt lat="53.101302" lon="05.991326"><ele>-4.3</ele><time>2021-05-12T12:48:33Z</time><name>PT7733</name></trkpt>
<trkpt lat="53.101302" lon="05.991309"><ele>-4.2</ele><time>2021-05-12T12:48:34Z</time><name>PT7734</name></trkpt>
<trkpt lat="53.101303" lon="05.991292"><ele>-4.2</ele><time>2021-05-12T12:48:35Z</time><name>PT7735</name></trkpt>
<trkpt lat="53.101308" lon="05.991274"><ele>-4.3</ele><time>2021-05-12T12:48:36Z</time><name>PT7736</name></trkpt>
<trkpt lat="53.101313" lon="05.991257"><ele>-4.3</ele><time>2021-05-12T12:48:37Z</time><name>PT7737</name></trkpt>
<trkpt lat="53.101316" lon="05.991238"><ele>-4</ele><time>2021-05-12T12:48:38Z</time><name>PT7738</name></trkpt>
<trkpt lat="53.101319" lon="05.991218"><ele>-4.2</ele><time>2021-05-12T12:48:39Z</time><name>PT7739</name></trkpt>
<trkpt lat="53.101320" lon="05.991200"><ele>-4.4</ele><time>2021-05-12T12:48:40Z</time><name>PT7740</name></trkpt>
<trkpt lat="53.101320" lon="05.991182"><ele>-4.4</ele><time>2021-05-12T12:48:41Z</time><name>PT7741</name></trkpt>
<trkpt lat="53.101320" lon="05.991165"><ele>-4.4</ele><time>2021-05-12T12:48:42Z</time><name>PT7742</name></trkpt>
<trkpt lat="53.101320" lon="05.991147"><ele>-4.3</ele><time>2021-05-12T12:48:43Z</time><name>PT7743</name></trkpt>
<trkpt lat="53.101323" lon="05.991129"><ele>-4.2</ele><time>2021-05-12T12:48:44Z</time><name>PT7744</name></trkpt>
<trkpt lat="53.101326" lon="05.991109"><ele>-4.1</ele><time>2021-05-12T12:48:45Z</time><name>PT7745</name></trkpt>
<trkpt lat="53.101329" lon="05.991089"><ele>-4.1</ele><time>2021-05-12T12:48:46Z</time><name>PT7746</name></trkpt>
<trkpt lat="53.101332" lon="05.991067"><ele>-4.2</ele><time>2021-05-12T12:48:47Z</time><name>PT7747</name></trkpt>
<trkpt lat="53.101335" lon="05.991047"><ele>-4.5</ele><time>2021-05-12T12:48:48Z</time><name>PT7748</name></trkpt>
<trkpt lat="53.101335" lon="05.991029"><ele>-4.8</ele><time>2021-05-12T12:48:49Z</time><name>PT7749</name></trkpt>
<trkpt lat="53.101336" lon="05.991008"><ele>-4.9</ele><time>2021-05-12T12:48:50Z</time><name>PT7750</name></trkpt>
<trkpt lat="53.101336" lon="05.990988"><ele>-5.1</ele><time>2021-05-12T12:48:51Z</time><name>PT7751</name></trkpt>
<trkpt lat="53.101336" lon="05.990967"><ele>-5.2</ele><time>2021-05-12T12:48:52Z</time><name>PT7752</name></trkpt>
<trkpt lat="53.101337" lon="05.990948"><ele>-5.2</ele><time>2021-05-12T12:48:53Z</time><name>PT7753</name></trkpt>
<trkpt lat="53.101340" lon="05.990931"><ele>-5.1</ele><time>2021-05-12T12:48:54Z</time><name>PT7754</name></trkpt>
<trkpt lat="53.101343" lon="05.990912"><ele>-5</ele><time>2021-05-12T12:48:55Z</time><name>PT7755</name></trkpt>
<trkpt lat="53.101345" lon="05.990892"><ele>-5</ele><time>2021-05-12T12:48:56Z</time><name>PT7756</name></trkpt>
<trkpt lat="53.101348" lon="05.990872"><ele>-5</ele><time>2021-05-12T12:48:57Z</time><name>PT7757</name></trkpt>
<trkpt lat="53.101348" lon="05.990852"><ele>-5.1</ele><time>2021-05-12T12:48:58Z</time><name>PT7758</name></trkpt>
<trkpt lat="53.101349" lon="05.990832"><ele>-5</ele><time>2021-05-12T12:48:59Z</time><name>PT7759</name></trkpt>
<trkpt lat="53.101349" lon="05.990813"><ele>-5.1</ele><time>2021-05-12T12:49:00Z</time><name>PT7760</name></trkpt>
<trkpt lat="53.101351" lon="05.990793"><ele>-5</ele><time>2021-05-12T12:49:01Z</time><name>PT7761</name></trkpt>
<trkpt lat="53.101354" lon="05.990775"><ele>-4.9</ele><time>2021-05-12T12:49:02Z</time><name>PT7762</name></trkpt>
<trkpt lat="53.101356" lon="05.990758"><ele>-5</ele><time>2021-05-12T12:49:03Z</time><name>PT7763</name></trkpt>
<trkpt lat="53.101359" lon="05.990738"><ele>-5</ele><time>2021-05-12T12:49:04Z</time><name>PT7764</name></trkpt>
<trkpt lat="53.101361" lon="05.990718"><ele>-5</ele><time>2021-05-12T12:49:05Z</time><name>PT7765</name></trkpt>
<trkpt lat="53.101363" lon="05.990698"><ele>-5.1</ele><time>2021-05-12T12:49:06Z</time><name>PT7766</name></trkpt>
<trkpt lat="53.101366" lon="05.990678"><ele>-5</ele><time>2021-05-12T12:49:07Z</time><name>PT7767</name></trkpt>
<trkpt lat="53.101368" lon="05.990660"><ele>-4.7</ele><time>2021-05-12T12:49:08Z</time><name>PT7768</name></trkpt>
<trkpt lat="53.101369" lon="05.990641"><ele>-4.7</ele><time>2021-05-12T12:49:09Z</time><name>PT7769</name></trkpt>
<trkpt lat="53.101370" lon="05.990621"><ele>-4.5</ele><time>2021-05-12T12:49:10Z</time><name>PT7770</name></trkpt>
<trkpt lat="53.101371" lon="05.990600"><ele>-4.5</ele><time>2021-05-12T12:49:11Z</time><name>PT7771</name></trkpt>
<trkpt lat="53.101371" lon="05.990580"><ele>-4.7</ele><time>2021-05-12T12:49:12Z</time><name>PT7772</name></trkpt>
<trkpt lat="53.101372" lon="05.990562"><ele>-4.9</ele><time>2021-05-12T12:49:13Z</time><name>PT7773</name></trkpt>
<trkpt lat="53.101374" lon="05.990543"><ele>-4.9</ele><time>2021-05-12T12:49:14Z</time><name>PT7774</name></trkpt>
<trkpt lat="53.101376" lon="05.990525"><ele>-4.8</ele><time>2021-05-12T12:49:15Z</time><name>PT7775</name></trkpt>
<trkpt lat="53.101379" lon="05.990508"><ele>-4.5</ele><time>2021-05-12T12:49:16Z</time><name>PT7776</name></trkpt>
<trkpt lat="53.101381" lon="05.990492"><ele>-4.5</ele><time>2021-05-12T12:49:17Z</time><name>PT7777</name></trkpt>
<trkpt lat="53.101381" lon="05.990473"><ele>-4.5</ele><time>2021-05-12T12:49:18Z</time><name>PT7778</name></trkpt>
<trkpt lat="53.101381" lon="05.990455"><ele>-4.5</ele><time>2021-05-12T12:49:19Z</time><name>PT7779</name></trkpt>
<trkpt lat="53.101382" lon="05.990438"><ele>-4.5</ele><time>2021-05-12T12:49:20Z</time><name>PT7780</name></trkpt>
<trkpt lat="53.101385" lon="05.990419"><ele>-4.5</ele><time>2021-05-12T12:49:21Z</time><name>PT7781</name></trkpt>
<trkpt lat="53.101388" lon="05.990398"><ele>-4.5</ele><time>2021-05-12T12:49:22Z</time><name>PT7782</name></trkpt>
<trkpt lat="53.101391" lon="05.990378"><ele>-4.5</ele><time>2021-05-12T12:49:23Z</time><name>PT7783</name></trkpt>
<trkpt lat="53.101391" lon="05.990360"><ele>-4.7</ele><time>2021-05-12T12:49:24Z</time><name>PT7784</name></trkpt>
<trkpt lat="53.101392" lon="05.990342"><ele>-4.7</ele><time>2021-05-12T12:49:25Z</time><name>PT7785</name></trkpt>
<trkpt lat="53.101391" lon="05.990324"><ele>-4.8</ele><time>2021-05-12T12:49:26Z</time><name>PT7786</name></trkpt>
<trkpt lat="53.101391" lon="05.990306"><ele>-4.7</ele><time>2021-05-12T12:49:27Z</time><name>PT7787</name></trkpt>
<trkpt lat="53.101392" lon="05.990289"><ele>-4.5</ele><time>2021-05-12T12:49:28Z</time><name>PT7788</name></trkpt>
<trkpt lat="53.101395" lon="05.990270"><ele>-4.4</ele><time>2021-05-12T12:49:29Z</time><name>PT7789</name></trkpt>
<trkpt lat="53.101398" lon="05.990250"><ele>-4.2</ele><time>2021-05-12T12:49:30Z</time><name>PT7790</name></trkpt>
<trkpt lat="53.101399" lon="05.990231"><ele>-4</ele><time>2021-05-12T12:49:31Z</time><name>PT7791</name></trkpt>
<trkpt lat="53.101399" lon="05.990211"><ele>-4</ele><time>2021-05-12T12:49:32Z</time><name>PT7792</name></trkpt>
<trkpt lat="53.101399" lon="05.990192"><ele>-3.9</ele><time>2021-05-12T12:49:33Z</time><name>PT7793</name></trkpt>
<trkpt lat="53.101400" lon="05.990173"><ele>-3.7</ele><time>2021-05-12T12:49:34Z</time><name>PT7794</name></trkpt>
<trkpt lat="53.101401" lon="05.990156"><ele>-3.6</ele><time>2021-05-12T12:49:35Z</time><name>PT7795</name></trkpt>
<trkpt lat="53.101403" lon="05.990138"><ele>-3.5</ele><time>2021-05-12T12:49:36Z</time><name>PT7796</name></trkpt>
<trkpt lat="53.101404" lon="05.990119"><ele>-3.5</ele><time>2021-05-12T12:49:37Z</time><name>PT7797</name></trkpt>
<trkpt lat="53.101405" lon="05.990103"><ele>-3.5</ele><time>2021-05-12T12:49:38Z</time><name>PT7798</name></trkpt>
<trkpt lat="53.101406" lon="05.990086"><ele>-3.6</ele><time>2021-05-12T12:49:39Z</time><name>PT7799</name></trkpt>
<trkpt lat="53.101405" lon="05.990068"><ele>-3.8</ele><time>2021-05-12T12:49:40Z</time><name>PT7800</name></trkpt>
<trkpt lat="53.101405" lon="05.990051"><ele>-3.9</ele><time>2021-05-12T12:49:41Z</time><name>PT7801</name></trkpt>
<trkpt lat="53.101406" lon="05.990037"><ele>-3.8</ele><time>2021-05-12T12:49:42Z</time><name>PT7802</name></trkpt>
<trkpt lat="53.101408" lon="05.990022"><ele>-3.9</ele><time>2021-05-12T12:49:43Z</time><name>PT7803</name></trkpt>
<trkpt lat="53.101410" lon="05.990007"><ele>-3.9</ele><time>2021-05-12T12:49:44Z</time><name>PT7804</name></trkpt>
<trkpt lat="53.101411" lon="05.989989"><ele>-3.8</ele><time>2021-05-12T12:49:45Z</time><name>PT7805</name></trkpt>
<trkpt lat="53.101411" lon="05.989971"><ele>-3.8</ele><time>2021-05-12T12:49:46Z</time><name>PT7806</name></trkpt>
<trkpt lat="53.101412" lon="05.989953"><ele>-3.8</ele><time>2021-05-12T12:49:47Z</time><name>PT7807</name></trkpt>
<trkpt lat="53.101413" lon="05.989935"><ele>-3.9</ele><time>2021-05-12T12:49:48Z</time><name>PT7808</name></trkpt>
<trkpt lat="53.101413" lon="05.989917"><ele>-4</ele><time>2021-05-12T12:49:49Z</time><name>PT7809</name></trkpt>
<trkpt lat="53.101413" lon="05.989900"><ele>-4</ele><time>2021-05-12T12:49:50Z</time><name>PT7810</name></trkpt>
<trkpt lat="53.101416" lon="05.989882"><ele>-4.1</ele><time>2021-05-12T12:49:51Z</time><name>PT7811</name></trkpt>
<trkpt lat="53.101418" lon="05.989863"><ele>-4.1</ele><time>2021-05-12T12:49:52Z</time><name>PT7812</name></trkpt>
<trkpt lat="53.101421" lon="05.989842"><ele>-4</ele><time>2021-05-12T12:49:53Z</time><name>PT7813</name></trkpt>
<trkpt lat="53.101424" lon="05.989823"><ele>-3.9</ele><time>2021-05-12T12:49:54Z</time><name>PT7814</name></trkpt>
<trkpt lat="53.101425" lon="05.989805"><ele>-3.9</ele><time>2021-05-12T12:49:55Z</time><name>PT7815</name></trkpt>
<trkpt lat="53.101426" lon="05.989787"><ele>-3.9</ele><time>2021-05-12T12:49:56Z</time><name>PT7816</name></trkpt>
<trkpt lat="53.101426" lon="05.989768"><ele>-3.8</ele><time>2021-05-12T12:49:57Z</time><name>PT7817</name></trkpt>
<trkpt lat="53.101427" lon="05.989749"><ele>-3.8</ele><time>2021-05-12T12:49:58Z</time><name>PT7818</name></trkpt>
<trkpt lat="53.101428" lon="05.989727"><ele>-4</ele><time>2021-05-12T12:49:59Z</time><name>PT7819</name></trkpt>
<trkpt lat="53.101429" lon="05.989707"><ele>-4</ele><time>2021-05-12T12:50:00Z</time><name>PT7820</name></trkpt>
<trkpt lat="53.101430" lon="05.989687"><ele>-4</ele><time>2021-05-12T12:50:01Z</time><name>PT7821</name></trkpt>
<trkpt lat="53.101433" lon="05.989668"><ele>-4.1</ele><time>2021-05-12T12:50:02Z</time><name>PT7822</name></trkpt>
<trkpt lat="53.101437" lon="05.989648"><ele>-4</ele><time>2021-05-12T12:50:03Z</time><name>PT7823</name></trkpt>
<trkpt lat="53.101441" lon="05.989628"><ele>-4</ele><time>2021-05-12T12:50:04Z</time><name>PT7824</name></trkpt>
<trkpt lat="53.101443" lon="05.989608"><ele>-4</ele><time>2021-05-12T12:50:05Z</time><name>PT7825</name></trkpt>
<trkpt lat="53.101446" lon="05.989586"><ele>-4</ele><time>2021-05-12T12:50:06Z</time><name>PT7826</name></trkpt>
<trkpt lat="53.101448" lon="05.989567"><ele>-4</ele><time>2021-05-12T12:50:07Z</time><name>PT7827</name></trkpt>
<trkpt lat="53.101448" lon="05.989548"><ele>-3.9</ele><time>2021-05-12T12:50:08Z</time><name>PT7828</name></trkpt>
<trkpt lat="53.101448" lon="05.989529"><ele>-3.9</ele><time>2021-05-12T12:50:09Z</time><name>PT7829</name></trkpt>
<trkpt lat="53.101447" lon="05.989510"><ele>-3.9</ele><time>2021-05-12T12:50:10Z</time><name>PT7830</name></trkpt>
<trkpt lat="53.101446" lon="05.989492"><ele>-3.8</ele><time>2021-05-12T12:50:11Z</time><name>PT7831</name></trkpt>
<trkpt lat="53.101447" lon="05.989475"><ele>-3.7</ele><time>2021-05-12T12:50:12Z</time><name>PT7832</name></trkpt>
<trkpt lat="53.101448" lon="05.989460"><ele>-3.7</ele><time>2021-05-12T12:50:13Z</time><name>PT7833</name></trkpt>
<trkpt lat="53.101450" lon="05.989442"><ele>-3.7</ele><time>2021-05-12T12:50:14Z</time><name>PT7834</name></trkpt>
<trkpt lat="53.101450" lon="05.989425"><ele>-3.6</ele><time>2021-05-12T12:50:15Z</time><name>PT7835</name></trkpt>
<trkpt lat="53.101450" lon="05.989407"><ele>-3.9</ele><time>2021-05-12T12:50:16Z</time><name>PT7836</name></trkpt>
<trkpt lat="53.101451" lon="05.989388"><ele>-3.9</ele><time>2021-05-12T12:50:17Z</time><name>PT7837</name></trkpt>
<trkpt lat="53.101452" lon="05.989367"><ele>-4</ele><time>2021-05-12T12:50:18Z</time><name>PT7838</name></trkpt>
<trkpt lat="53.101452" lon="05.989349"><ele>-4.4</ele><time>2021-05-12T12:50:19Z</time><name>PT7839</name></trkpt>
<trkpt lat="53.101455" lon="05.989331"><ele>-4.3</ele><time>2021-05-12T12:50:20Z</time><name>PT7840</name></trkpt>
<trkpt lat="53.101457" lon="05.989312"><ele>-4.5</ele><time>2021-05-12T12:50:21Z</time><name>PT7841</name></trkpt>
<trkpt lat="53.101459" lon="05.989295"><ele>-4.5</ele><time>2021-05-12T12:50:22Z</time><name>PT7842</name></trkpt>
<trkpt lat="53.101459" lon="05.989276"><ele>-4.5</ele><time>2021-05-12T12:50:23Z</time><name>PT7843</name></trkpt>
<trkpt lat="53.101458" lon="05.989257"><ele>-4.5</ele><time>2021-05-12T12:50:24Z</time><name>PT7844</name></trkpt>
<trkpt lat="53.101458" lon="05.989237"><ele>-4.4</ele><time>2021-05-12T12:50:25Z</time><name>PT7845</name></trkpt>
<trkpt lat="53.101459" lon="05.989210"><ele>-4.4</ele><time>2021-05-12T12:50:26Z</time><name>PT7846</name></trkpt>
<trkpt lat="53.101460" lon="05.989190"><ele>-4.4</ele><time>2021-05-12T12:50:27Z</time><name>PT7847</name></trkpt>
<trkpt lat="53.101461" lon="05.989171"><ele>-4</ele><time>2021-05-12T12:50:28Z</time><name>PT7848</name></trkpt>
<trkpt lat="53.101464" lon="05.989150"><ele>-3.9</ele><time>2021-05-12T12:50:29Z</time><name>PT7849</name></trkpt>
<trkpt lat="53.101468" lon="05.989131"><ele>-3.6</ele><time>2021-05-12T12:50:30Z</time><name>PT7850</name></trkpt>
<trkpt lat="53.101472" lon="05.989110"><ele>-3.6</ele><time>2021-05-12T12:50:31Z</time><name>PT7851</name></trkpt>
<trkpt lat="53.101476" lon="05.989089"><ele>-3.6</ele><time>2021-05-12T12:50:32Z</time><name>PT7852</name></trkpt>
<trkpt lat="53.101479" lon="05.989069"><ele>-3.4</ele><time>2021-05-12T12:50:33Z</time><name>PT7853</name></trkpt>
<trkpt lat="53.101481" lon="05.989049"><ele>-3.6</ele><time>2021-05-12T12:50:34Z</time><name>PT7854</name></trkpt>
<trkpt lat="53.101483" lon="05.989029"><ele>-3.6</ele><time>2021-05-12T12:50:35Z</time><name>PT7855</name></trkpt>
<trkpt lat="53.101484" lon="05.989008"><ele>-3.6</ele><time>2021-05-12T12:50:36Z</time><name>PT7856</name></trkpt>
<trkpt lat="53.101484" lon="05.988986"><ele>-3.8</ele><time>2021-05-12T12:50:37Z</time><name>PT7857</name></trkpt>
<trkpt lat="53.101486" lon="05.988968"><ele>-3.8</ele><time>2021-05-12T12:50:38Z</time><name>PT7858</name></trkpt>
<trkpt lat="53.101490" lon="05.988950"><ele>-4</ele><time>2021-05-12T12:50:39Z</time><name>PT7859</name></trkpt>
<trkpt lat="53.101492" lon="05.988931"><ele>-3.9</ele><time>2021-05-12T12:50:40Z</time><name>PT7860</name></trkpt>
<trkpt lat="53.101496" lon="05.988912"><ele>-4.1</ele><time>2021-05-12T12:50:41Z</time><name>PT7861</name></trkpt>
<trkpt lat="53.101500" lon="05.988892"><ele>-4.2</ele><time>2021-05-12T12:50:42Z</time><name>PT7862</name></trkpt>
<trkpt lat="53.101504" lon="05.988872"><ele>-4.3</ele><time>2021-05-12T12:50:43Z</time><name>PT7863</name></trkpt>
<trkpt lat="53.101504" lon="05.988854"><ele>-4.4</ele><time>2021-05-12T12:50:44Z</time><name>PT7864</name></trkpt>
<trkpt lat="53.101503" lon="05.988835"><ele>-4.4</ele><time>2021-05-12T12:50:45Z</time><name>PT7865</name></trkpt>
<trkpt lat="53.101502" lon="05.988814"><ele>-4.3</ele><time>2021-05-12T12:50:46Z</time><name>PT7866</name></trkpt>
<trkpt lat="53.101503" lon="05.988795"><ele>-4.2</ele><time>2021-05-12T12:50:47Z</time><name>PT7867</name></trkpt>
<trkpt lat="53.101505" lon="05.988776"><ele>-4.2</ele><time>2021-05-12T12:50:48Z</time><name>PT7868</name></trkpt>
<trkpt lat="53.101506" lon="05.988757"><ele>-4.2</ele><time>2021-05-12T12:50:49Z</time><name>PT7869</name></trkpt>
<trkpt lat="53.101509" lon="05.988735"><ele>-4.3</ele><time>2021-05-12T12:50:50Z</time><name>PT7870</name></trkpt>
<trkpt lat="53.101512" lon="05.988716"><ele>-4.6</ele><time>2021-05-12T12:50:51Z</time><name>PT7871</name></trkpt>
<trkpt lat="53.101515" lon="05.988697"><ele>-4.9</ele><time>2021-05-12T12:50:52Z</time><name>PT7872</name></trkpt>
<trkpt lat="53.101517" lon="05.988680"><ele>-5</ele><time>2021-05-12T12:50:53Z</time><name>PT7873</name></trkpt>
<trkpt lat="53.101520" lon="05.988658"><ele>-5</ele><time>2021-05-12T12:50:54Z</time><name>PT7874</name></trkpt>
<trkpt lat="53.101522" lon="05.988637"><ele>-4.8</ele><time>2021-05-12T12:50:55Z</time><name>PT7875</name></trkpt>
<trkpt lat="53.101525" lon="05.988616"><ele>-4.7</ele><time>2021-05-12T12:50:56Z</time><name>PT7876</name></trkpt>
<trkpt lat="53.101525" lon="05.988597"><ele>-4.6</ele><time>2021-05-12T12:50:57Z</time><name>PT7877</name></trkpt>
<trkpt lat="53.101527" lon="05.988579"><ele>-4.4</ele><time>2021-05-12T12:50:58Z</time><name>PT7878</name></trkpt>
<trkpt lat="53.101530" lon="05.988560"><ele>-4.5</ele><time>2021-05-12T12:50:59Z</time><name>PT7879</name></trkpt>
<trkpt lat="53.101534" lon="05.988541"><ele>-4.5</ele><time>2021-05-12T12:51:00Z</time><name>PT7880</name></trkpt>
<trkpt lat="53.101536" lon="05.988522"><ele>-4.1</ele><time>2021-05-12T12:51:01Z</time><name>PT7881</name></trkpt>
<trkpt lat="53.101538" lon="05.988503"><ele>-4.2</ele><time>2021-05-12T12:51:02Z</time><name>PT7882</name></trkpt>
<trkpt lat="53.101540" lon="05.988483"><ele>-4</ele><time>2021-05-12T12:51:03Z</time><name>PT7883</name></trkpt>
<trkpt lat="53.101540" lon="05.988462"><ele>-3.8</ele><time>2021-05-12T12:51:04Z</time><name>PT7884</name></trkpt>
<trkpt lat="53.101541" lon="05.988442"><ele>-3.9</ele><time>2021-05-12T12:51:05Z</time><name>PT7885</name></trkpt>
<trkpt lat="53.101542" lon="05.988424"><ele>-4</ele><time>2021-05-12T12:51:06Z</time><name>PT7886</name></trkpt>
<trkpt lat="53.101544" lon="05.988406"><ele>-4</ele><time>2021-05-12T12:51:07Z</time><name>PT7887</name></trkpt>
<trkpt lat="53.101549" lon="05.988387"><ele>-4</ele><time>2021-05-12T12:51:08Z</time><name>PT7888</name></trkpt>
<trkpt lat="53.101552" lon="05.988369"><ele>-4</ele><time>2021-05-12T12:51:09Z</time><name>PT7889</name></trkpt>
<trkpt lat="53.101556" lon="05.988349"><ele>-3.8</ele><time>2021-05-12T12:51:10Z</time><name>PT7890</name></trkpt>
<trkpt lat="53.101558" lon="05.988329"><ele>-3.8</ele><time>2021-05-12T12:51:11Z</time><name>PT7891</name></trkpt>
<trkpt lat="53.101560" lon="05.988310"><ele>-3.6</ele><time>2021-05-12T12:51:12Z</time><name>PT7892</name></trkpt>
<trkpt lat="53.101560" lon="05.988292"><ele>-3.6</ele><time>2021-05-12T12:51:13Z</time><name>PT7893</name></trkpt>
<trkpt lat="53.101561" lon="05.988273"><ele>-3.5</ele><time>2021-05-12T12:51:14Z</time><name>PT7894</name></trkpt>
<trkpt lat="53.101561" lon="05.988252"><ele>-3.2</ele><time>2021-05-12T12:51:15Z</time><name>PT7895</name></trkpt>
<trkpt lat="53.101560" lon="05.988232"><ele>-3.2</ele><time>2021-05-12T12:51:16Z</time><name>PT7896</name></trkpt>
<trkpt lat="53.101562" lon="05.988213"><ele>-3.2</ele><time>2021-05-12T12:51:17Z</time><name>PT7897</name></trkpt>
<trkpt lat="53.101564" lon="05.988196"><ele>-3.4</ele><time>2021-05-12T12:51:18Z</time><name>PT7898</name></trkpt>
<trkpt lat="53.101567" lon="05.988177"><ele>-3.5</ele><time>2021-05-12T12:51:19Z</time><name>PT7899</name></trkpt>
<trkpt lat="53.101569" lon="05.988157"><ele>-3.6</ele><time>2021-05-12T12:51:20Z</time><name>PT7900</name></trkpt>
<trkpt lat="53.101571" lon="05.988139"><ele>-3.7</ele><time>2021-05-12T12:51:21Z</time><name>PT7901</name></trkpt>
<trkpt lat="53.101573" lon="05.988121"><ele>-3.8</ele><time>2021-05-12T12:51:22Z</time><name>PT7902</name></trkpt>
<trkpt lat="53.101573" lon="05.988103"><ele>-3.8</ele><time>2021-05-12T12:51:23Z</time><name>PT7903</name></trkpt>
<trkpt lat="53.101574" lon="05.988085"><ele>-3.8</ele><time>2021-05-12T12:51:24Z</time><name>PT7904</name></trkpt>
<trkpt lat="53.101576" lon="05.988064"><ele>-3.9</ele><time>2021-05-12T12:51:25Z</time><name>PT7905</name></trkpt>
<trkpt lat="53.101576" lon="05.988045"><ele>-3.9</ele><time>2021-05-12T12:51:26Z</time><name>PT7906</name></trkpt>
<trkpt lat="53.101577" lon="05.988028"><ele>-4</ele><time>2021-05-12T12:51:27Z</time><name>PT7907</name></trkpt>
<trkpt lat="53.101578" lon="05.988010"><ele>-4.3</ele><time>2021-05-12T12:51:28Z</time><name>PT7908</name></trkpt>
<trkpt lat="53.101580" lon="05.987992"><ele>-4.3</ele><time>2021-05-12T12:51:29Z</time><name>PT7909</name></trkpt>
<trkpt lat="53.101582" lon="05.987975"><ele>-4.3</ele><time>2021-05-12T12:51:30Z</time><name>PT7910</name></trkpt>
<trkpt lat="53.101581" lon="05.987957"><ele>-4.5</ele><time>2021-05-12T12:51:31Z</time><name>PT7911</name></trkpt>
<trkpt lat="53.101581" lon="05.987938"><ele>-4.2</ele><time>2021-05-12T12:51:32Z</time><name>PT7912</name></trkpt>
<trkpt lat="53.101580" lon="05.987918"><ele>-4</ele><time>2021-05-12T12:51:33Z</time><name>PT7913</name></trkpt>
<trkpt lat="53.101581" lon="05.987900"><ele>-3.9</ele><time>2021-05-12T12:51:34Z</time><name>PT7914</name></trkpt>
<trkpt lat="53.101583" lon="05.987884"><ele>-3.7</ele><time>2021-05-12T12:51:35Z</time><name>PT7915</name></trkpt>
<trkpt lat="53.101586" lon="05.987868"><ele>-3.6</ele><time>2021-05-12T12:51:36Z</time><name>PT7916</name></trkpt>
<trkpt lat="53.101589" lon="05.987850"><ele>-3.7</ele><time>2021-05-12T12:51:37Z</time><name>PT7917</name></trkpt>
<trkpt lat="53.101590" lon="05.987832"><ele>-3.7</ele><time>2021-05-12T12:51:38Z</time><name>PT7918</name></trkpt>
<trkpt lat="53.101590" lon="05.987813"><ele>-3.9</ele><time>2021-05-12T12:51:39Z</time><name>PT7919</name></trkpt>
<trkpt lat="53.101589" lon="05.987793"><ele>-3.7</ele><time>2021-05-12T12:51:40Z</time><name>PT7920</name></trkpt>
<trkpt lat="53.101589" lon="05.987774"><ele>-3.7</ele><time>2021-05-12T12:51:41Z</time><name>PT7921</name></trkpt>
<trkpt lat="53.101590" lon="05.987756"><ele>-3.7</ele><time>2021-05-12T12:51:42Z</time><name>PT7922</name></trkpt>
<trkpt lat="53.101592" lon="05.987737"><ele>-3.6</ele><time>2021-05-12T12:51:43Z</time><name>PT7923</name></trkpt>
<trkpt lat="53.101595" lon="05.987718"><ele>-3.5</ele><time>2021-05-12T12:51:44Z</time><name>PT7924</name></trkpt>
<trkpt lat="53.101598" lon="05.987698"><ele>-3.3</ele><time>2021-05-12T12:51:45Z</time><name>PT7925</name></trkpt>
<trkpt lat="53.101600" lon="05.987681"><ele>-3.4</ele><time>2021-05-12T12:51:46Z</time><name>PT7926</name></trkpt>
<trkpt lat="53.101602" lon="05.987662"><ele>-3.3</ele><time>2021-05-12T12:51:47Z</time><name>PT7927</name></trkpt>
<trkpt lat="53.101602" lon="05.987643"><ele>-3.6</ele><time>2021-05-12T12:51:48Z</time><name>PT7928</name></trkpt>
<trkpt lat="53.101602" lon="05.987623"><ele>-3.8</ele><time>2021-05-12T12:51:49Z</time><name>PT7929</name></trkpt>
<trkpt lat="53.101602" lon="05.987603"><ele>-3.8</ele><time>2021-05-12T12:51:50Z</time><name>PT7930</name></trkpt>
<trkpt lat="53.101603" lon="05.987584"><ele>-3.8</ele><time>2021-05-12T12:51:51Z</time><name>PT7931</name></trkpt>
<trkpt lat="53.101605" lon="05.987566"><ele>-3.6</ele><time>2021-05-12T12:51:52Z</time><name>PT7932</name></trkpt>
<trkpt lat="53.101609" lon="05.987549"><ele>-3.6</ele><time>2021-05-12T12:51:53Z</time><name>PT7933</name></trkpt>
<trkpt lat="53.101613" lon="05.987531"><ele>-3.5</ele><time>2021-05-12T12:51:54Z</time><name>PT7934</name></trkpt>
<trkpt lat="53.101615" lon="05.987513"><ele>-3.6</ele><time>2021-05-12T12:51:55Z</time><name>PT7935</name></trkpt>
<trkpt lat="53.101617" lon="05.987493"><ele>-3.6</ele><time>2021-05-12T12:51:56Z</time><name>PT7936</name></trkpt>
<trkpt lat="53.101618" lon="05.987473"><ele>-3.7</ele><time>2021-05-12T12:51:57Z</time><name>PT7937</name></trkpt>
<trkpt lat="53.101618" lon="05.987455"><ele>-3.7</ele><time>2021-05-12T12:51:58Z</time><name>PT7938</name></trkpt>
<trkpt lat="53.101618" lon="05.987436"><ele>-3.7</ele><time>2021-05-12T12:51:59Z</time><name>PT7939</name></trkpt>
<trkpt lat="53.101617" lon="05.987418"><ele>-4.3</ele><time>2021-05-12T12:52:00Z</time><name>PT7940</name></trkpt>
<trkpt lat="53.101619" lon="05.987403"><ele>-4</ele><time>2021-05-12T12:52:01Z</time><name>PT7941</name></trkpt>
<trkpt lat="53.101622" lon="05.987386"><ele>-4</ele><time>2021-05-12T12:52:02Z</time><name>PT7942</name></trkpt>
<trkpt lat="53.101624" lon="05.987367"><ele>-3.9</ele><time>2021-05-12T12:52:03Z</time><name>PT7943</name></trkpt>
<trkpt lat="53.101628" lon="05.987340"><ele>-3</ele><time>2021-05-12T12:52:04Z</time><name>PT7944</name></trkpt>
<trkpt lat="53.101635" lon="05.987319"><ele>-3</ele><time>2021-05-12T12:52:05Z</time><name>PT7945</name></trkpt>
<trkpt lat="53.101637" lon="05.987295"><ele>-3.2</ele><time>2021-05-12T12:52:06Z</time><name>PT7946</name></trkpt>
<trkpt lat="53.101641" lon="05.987276"><ele>-3.8</ele><time>2021-05-12T12:52:07Z</time><name>PT7947</name></trkpt>
<trkpt lat="53.101643" lon="05.987257"><ele>-4</ele><time>2021-05-12T12:52:08Z</time><name>PT7948</name></trkpt>
<trkpt lat="53.101645" lon="05.987238"><ele>-4.1</ele><time>2021-05-12T12:52:09Z</time><name>PT7949</name></trkpt>
<trkpt lat="53.101646" lon="05.987219"><ele>-4.1</ele><time>2021-05-12T12:52:10Z</time><name>PT7950</name></trkpt>
<trkpt lat="53.101647" lon="05.987199"><ele>-3.9</ele><time>2021-05-12T12:52:11Z</time><name>PT7951</name></trkpt>
<trkpt lat="53.101651" lon="05.987180"><ele>-3.5</ele><time>2021-05-12T12:52:12Z</time><name>PT7952</name></trkpt>
<trkpt lat="53.101653" lon="05.987162"><ele>-3.4</ele><time>2021-05-12T12:52:13Z</time><name>PT7953</name></trkpt>
<trkpt lat="53.101655" lon="05.987145"><ele>-3.3</ele><time>2021-05-12T12:52:14Z</time><name>PT7954</name></trkpt>
<trkpt lat="53.101656" lon="05.987126"><ele>-3.2</ele><time>2021-05-12T12:52:15Z</time><name>PT7955</name></trkpt>
<trkpt lat="53.101657" lon="05.987107"><ele>-3.6</ele><time>2021-05-12T12:52:16Z</time><name>PT7956</name></trkpt>
<trkpt lat="53.101657" lon="05.987088"><ele>-3.6</ele><time>2021-05-12T12:52:17Z</time><name>PT7957</name></trkpt>
<trkpt lat="53.101657" lon="05.987070"><ele>-3.6</ele><time>2021-05-12T12:52:18Z</time><name>PT7958</name></trkpt>
<trkpt lat="53.101657" lon="05.987051"><ele>-3.9</ele><time>2021-05-12T12:52:19Z</time><name>PT7959</name></trkpt>
<trkpt lat="53.101659" lon="05.987033"><ele>-4</ele><time>2021-05-12T12:52:20Z</time><name>PT7960</name></trkpt>
<trkpt lat="53.101660" lon="05.987017"><ele>-4.2</ele><time>2021-05-12T12:52:21Z</time><name>PT7961</name></trkpt>
<trkpt lat="53.101659" lon="05.987000"><ele>-4.5</ele><time>2021-05-12T12:52:22Z</time><name>PT7962</name></trkpt>
<trkpt lat="53.101659" lon="05.986981"><ele>-4.5</ele><time>2021-05-12T12:52:23Z</time><name>PT7963</name></trkpt>
<trkpt lat="53.101661" lon="05.986962"><ele>-4.5</ele><time>2021-05-12T12:52:24Z</time><name>PT7964</name></trkpt>
<trkpt lat="53.101663" lon="05.986943"><ele>-4.1</ele><time>2021-05-12T12:52:25Z</time><name>PT7965</name></trkpt>
<trkpt lat="53.101664" lon="05.986924"><ele>-3.9</ele><time>2021-05-12T12:52:26Z</time><name>PT7966</name></trkpt>
<trkpt lat="53.101666" lon="05.986907"><ele>-3.6</ele><time>2021-05-12T12:52:27Z</time><name>PT7967</name></trkpt>
<trkpt lat="53.101669" lon="05.986891"><ele>-3.6</ele><time>2021-05-12T12:52:28Z</time><name>PT7968</name></trkpt>
<trkpt lat="53.101671" lon="05.986873"><ele>-3.7</ele><time>2021-05-12T12:52:29Z</time><name>PT7969</name></trkpt>
<trkpt lat="53.101672" lon="05.986854"><ele>-3.6</ele><time>2021-05-12T12:52:30Z</time><name>PT7970</name></trkpt>
<trkpt lat="53.101673" lon="05.986839"><ele>-3.8</ele><time>2021-05-12T12:52:31Z</time><name>PT7971</name></trkpt>
<trkpt lat="53.101676" lon="05.986825"><ele>-4</ele><time>2021-05-12T12:52:32Z</time><name>PT7972</name></trkpt>
<trkpt lat="53.101678" lon="05.986813"><ele>-4</ele><time>2021-05-12T12:52:33Z</time><name>PT7973</name></trkpt>
<trkpt lat="53.101679" lon="05.986799"><ele>-3.9</ele><time>2021-05-12T12:52:34Z</time><name>PT7974</name></trkpt>
<trkpt lat="53.101680" lon="05.986785"><ele>-3.9</ele><time>2021-05-12T12:52:35Z</time><name>PT7975</name></trkpt>
<trkpt lat="53.101682" lon="05.986770"><ele>-4</ele><time>2021-05-12T12:52:36Z</time><name>PT7976</name></trkpt>
<trkpt lat="53.101685" lon="05.986757"><ele>-4</ele><time>2021-05-12T12:52:37Z</time><name>PT7977</name></trkpt>
<trkpt lat="53.101686" lon="05.986743"><ele>-4.1</ele><time>2021-05-12T12:52:38Z</time><name>PT7978</name></trkpt>
<trkpt lat="53.101687" lon="05.986727"><ele>-4.3</ele><time>2021-05-12T12:52:39Z</time><name>PT7979</name></trkpt>
<trkpt lat="53.101687" lon="05.986710"><ele>-4.4</ele><time>2021-05-12T12:52:40Z</time><name>PT7980</name></trkpt>
<trkpt lat="53.101688" lon="05.986692"><ele>-4.4</ele><time>2021-05-12T12:52:41Z</time><name>PT7981</name></trkpt>
<trkpt lat="53.101691" lon="05.986675"><ele>-4.4</ele><time>2021-05-12T12:52:42Z</time><name>PT7982</name></trkpt>
<trkpt lat="53.101692" lon="05.986659"><ele>-4.5</ele><time>2021-05-12T12:52:43Z</time><name>PT7983</name></trkpt>
<trkpt lat="53.101693" lon="05.986644"><ele>-4.5</ele><time>2021-05-12T12:52:44Z</time><name>PT7984</name></trkpt>
<trkpt lat="53.101694" lon="05.986629"><ele>-4.5</ele><time>2021-05-12T12:52:45Z</time><name>PT7985</name></trkpt>
<trkpt lat="53.101696" lon="05.986614"><ele>-4.5</ele><time>2021-05-12T12:52:46Z</time><name>PT7986</name></trkpt>
<trkpt lat="53.101698" lon="05.986600"><ele>-4.5</ele><time>2021-05-12T12:52:47Z</time><name>PT7987</name></trkpt>
<trkpt lat="53.101700" lon="05.986586"><ele>-4.5</ele><time>2021-05-12T12:52:48Z</time><name>PT7988</name></trkpt>
<trkpt lat="53.101700" lon="05.986573"><ele>-4.2</ele><time>2021-05-12T12:52:49Z</time><name>PT7989</name></trkpt>
<trkpt lat="53.101700" lon="05.986559"><ele>-4.1</ele><time>2021-05-12T12:52:50Z</time><name>PT7990</name></trkpt>
<trkpt lat="53.101700" lon="05.986544"><ele>-4.1</ele><time>2021-05-12T12:52:51Z</time><name>PT7991</name></trkpt>
<trkpt lat="53.101703" lon="05.986529"><ele>-4.1</ele><time>2021-05-12T12:52:52Z</time><name>PT7992</name></trkpt>
<trkpt lat="53.101705" lon="05.986514"><ele>-4.2</ele><time>2021-05-12T12:52:53Z</time><name>PT7993</name></trkpt>
<trkpt lat="53.101705" lon="05.986499"><ele>-4.5</ele><time>2021-05-12T12:52:54Z</time><name>PT7994</name></trkpt>
<trkpt lat="53.101706" lon="05.986482"><ele>-5</ele><time>2021-05-12T12:52:55Z</time><name>PT7995</name></trkpt>
<trkpt lat="53.101706" lon="05.986466"><ele>-5</ele><time>2021-05-12T12:52:56Z</time><name>PT7996</name></trkpt>
<trkpt lat="53.101707" lon="05.986448"><ele>-5.1</ele><time>2021-05-12T12:52:57Z</time><name>PT7997</name></trkpt>
<trkpt lat="53.101707" lon="05.986431"><ele>-5</ele><time>2021-05-12T12:52:58Z</time><name>PT7998</name></trkpt>
<trkpt lat="53.101709" lon="05.986415"><ele>-4.9</ele><time>2021-05-12T12:52:59Z</time><name>PT7999</name></trkpt>
<trkpt lat="53.101710" lon="05.986396"><ele>-4.4</ele><time>2021-05-12T12:53:00Z</time><name>PT8000</name></trkpt>
<trkpt lat="53.101711" lon="05.986379"><ele>-4.3</ele><time>2021-05-12T12:53:01Z</time><name>PT8001</name></trkpt>
<trkpt lat="53.101712" lon="05.986362"><ele>-4.2</ele><time>2021-05-12T12:53:02Z</time><name>PT8002</name></trkpt>
<trkpt lat="53.101714" lon="05.986343"><ele>-4.4</ele><time>2021-05-12T12:53:03Z</time><name>PT8003</name></trkpt>
<trkpt lat="53.101716" lon="05.986325"><ele>-4.3</ele><time>2021-05-12T12:53:04Z</time><name>PT8004</name></trkpt>
<trkpt lat="53.101717" lon="05.986308"><ele>-4.5</ele><time>2021-05-12T12:53:05Z</time><name>PT8005</name></trkpt>
<trkpt lat="53.101720" lon="05.986291"><ele>-4.4</ele><time>2021-05-12T12:53:06Z</time><name>PT8006</name></trkpt>
<trkpt lat="53.101721" lon="05.986274"><ele>-4.3</ele><time>2021-05-12T12:53:07Z</time><name>PT8007</name></trkpt>
<trkpt lat="53.101722" lon="05.986255"><ele>-4.1</ele><time>2021-05-12T12:53:08Z</time><name>PT8008</name></trkpt>
<trkpt lat="53.101723" lon="05.986235"><ele>-4.3</ele><time>2021-05-12T12:53:09Z</time><name>PT8009</name></trkpt>
<trkpt lat="53.101724" lon="05.986219"><ele>-4.3</ele><time>2021-05-12T12:53:10Z</time><name>PT8010</name></trkpt>
<trkpt lat="53.101727" lon="05.986203"><ele>-4.4</ele><time>2021-05-12T12:53:11Z</time><name>PT8011</name></trkpt>
<trkpt lat="53.101728" lon="05.986186"><ele>-4.5</ele><time>2021-05-12T12:53:12Z</time><name>PT8012</name></trkpt>
<trkpt lat="53.101728" lon="05.986168"><ele>-4.7</ele><time>2021-05-12T12:53:13Z</time><name>PT8013</name></trkpt>
<trkpt lat="53.101729" lon="05.986150"><ele>-4.7</ele><time>2021-05-12T12:53:14Z</time><name>PT8014</name></trkpt>
<trkpt lat="53.101731" lon="05.986134"><ele>-4.8</ele><time>2021-05-12T12:53:15Z</time><name>PT8015</name></trkpt>
<trkpt lat="53.101733" lon="05.986117"><ele>-4.9</ele><time>2021-05-12T12:53:16Z</time><name>PT8016</name></trkpt>
<trkpt lat="53.101734" lon="05.986102"><ele>-4.9</ele><time>2021-05-12T12:53:17Z</time><name>PT8017</name></trkpt>
<trkpt lat="53.101733" lon="05.986086"><ele>-4.9</ele><time>2021-05-12T12:53:18Z</time><name>PT8018</name></trkpt>
<trkpt lat="53.101734" lon="05.986069"><ele>-5</ele><time>2021-05-12T12:53:19Z</time><name>PT8019</name></trkpt>
<trkpt lat="53.101735" lon="05.986050"><ele>-5</ele><time>2021-05-12T12:53:20Z</time><name>PT8020</name></trkpt>
<trkpt lat="53.101737" lon="05.986034"><ele>-4.8</ele><time>2021-05-12T12:53:21Z</time><name>PT8021</name></trkpt>
<trkpt lat="53.101739" lon="05.986018"><ele>-4.7</ele><time>2021-05-12T12:53:22Z</time><name>PT8022</name></trkpt>
<trkpt lat="53.101740" lon="05.986001"><ele>-4.6</ele><time>2021-05-12T12:53:23Z</time><name>PT8023</name></trkpt>
<trkpt lat="53.101742" lon="05.985985"><ele>-4.5</ele><time>2021-05-12T12:53:24Z</time><name>PT8024</name></trkpt>
<trkpt lat="53.101743" lon="05.985968"><ele>-4.6</ele><time>2021-05-12T12:53:25Z</time><name>PT8025</name></trkpt>
<trkpt lat="53.101746" lon="05.985949"><ele>-4.6</ele><time>2021-05-12T12:53:26Z</time><name>PT8026</name></trkpt>
<trkpt lat="53.101749" lon="05.985931"><ele>-4.5</ele><time>2021-05-12T12:53:27Z</time><name>PT8027</name></trkpt>
<trkpt lat="53.101750" lon="05.985914"><ele>-4.5</ele><time>2021-05-12T12:53:28Z</time><name>PT8028</name></trkpt>
<trkpt lat="53.101750" lon="05.985899"><ele>-4.9</ele><time>2021-05-12T12:53:29Z</time><name>PT8029</name></trkpt>
<trkpt lat="53.101749" lon="05.985886"><ele>-4.9</ele><time>2021-05-12T12:53:30Z</time><name>PT8030</name></trkpt>
<trkpt lat="53.101749" lon="05.985881"><ele>-5</ele><time>2021-05-12T12:53:31Z</time><name>PT8031</name></trkpt>
<trkpt lat="53.101748" lon="05.985880"><ele>-5</ele><time>2021-05-12T12:53:32Z</time><name>PT8032</name></trkpt>
<trkpt lat="53.101749" lon="05.985869"><ele>-4.6</ele><time>2021-05-12T12:53:33Z</time><name>PT8033</name></trkpt>
<trkpt lat="53.101751" lon="05.985853"><ele>-4.1</ele><time>2021-05-12T12:53:34Z</time><name>PT8034</name></trkpt>
<trkpt lat="53.101752" lon="05.985838"><ele>-4</ele><time>2021-05-12T12:53:35Z</time><name>PT8035</name></trkpt>
<trkpt lat="53.101753" lon="05.985822"><ele>-3.9</ele><time>2021-05-12T12:53:36Z</time><name>PT8036</name></trkpt>
<trkpt lat="53.101754" lon="05.985804"><ele>-3.8</ele><time>2021-05-12T12:53:37Z</time><name>PT8037</name></trkpt>
<trkpt lat="53.101756" lon="05.985784"><ele>-4</ele><time>2021-05-12T12:53:38Z</time><name>PT8038</name></trkpt>
<trkpt lat="53.101758" lon="05.985762"><ele>-4</ele><time>2021-05-12T12:53:39Z</time><name>PT8039</name></trkpt>
<trkpt lat="53.101760" lon="05.985741"><ele>-3.8</ele><time>2021-05-12T12:53:40Z</time><name>PT8040</name></trkpt>
<trkpt lat="53.101762" lon="05.985721"><ele>-3.7</ele><time>2021-05-12T12:53:41Z</time><name>PT8041</name></trkpt>
<trkpt lat="53.101764" lon="05.985704"><ele>-3.6</ele><time>2021-05-12T12:53:42Z</time><name>PT8042</name></trkpt>
<trkpt lat="53.101765" lon="05.985688"><ele>-3.6</ele><time>2021-05-12T12:53:43Z</time><name>PT8043</name></trkpt>
<trkpt lat="53.101765" lon="05.985669"><ele>-3.7</ele><time>2021-05-12T12:53:44Z</time><name>PT8044</name></trkpt>
<trkpt lat="53.101766" lon="05.985650"><ele>-3.8</ele><time>2021-05-12T12:53:45Z</time><name>PT8045</name></trkpt>
<trkpt lat="53.101768" lon="05.985631"><ele>-4</ele><time>2021-05-12T12:53:46Z</time><name>PT8046</name></trkpt>
<trkpt lat="53.101771" lon="05.985613"><ele>-4</ele><time>2021-05-12T12:53:47Z</time><name>PT8047</name></trkpt>
<trkpt lat="53.101772" lon="05.985594"><ele>-4</ele><time>2021-05-12T12:53:48Z</time><name>PT8048</name></trkpt>
<trkpt lat="53.101773" lon="05.985575"><ele>-3.9</ele><time>2021-05-12T12:53:49Z</time><name>PT8049</name></trkpt>
<trkpt lat="53.101774" lon="05.985558"><ele>-3.9</ele><time>2021-05-12T12:53:50Z</time><name>PT8050</name></trkpt>
<trkpt lat="53.101775" lon="05.985541"><ele>-4.1</ele><time>2021-05-12T12:53:51Z</time><name>PT8051</name></trkpt>
<trkpt lat="53.101776" lon="05.985525"><ele>-4.3</ele><time>2021-05-12T12:53:52Z</time><name>PT8052</name></trkpt>
<trkpt lat="53.101777" lon="05.985507"><ele>-4.5</ele><time>2021-05-12T12:53:53Z</time><name>PT8053</name></trkpt>
<trkpt lat="53.101778" lon="05.985488"><ele>-4.7</ele><time>2021-05-12T12:53:54Z</time><name>PT8054</name></trkpt>
<trkpt lat="53.101780" lon="05.985468"><ele>-5</ele><time>2021-05-12T12:53:55Z</time><name>PT8055</name></trkpt>
<trkpt lat="53.101783" lon="05.985449"><ele>-4.9</ele><time>2021-05-12T12:53:56Z</time><name>PT8056</name></trkpt>
<trkpt lat="53.101786" lon="05.985430"><ele>-4.8</ele><time>2021-05-12T12:53:57Z</time><name>PT8057</name></trkpt>
<trkpt lat="53.101789" lon="05.985412"><ele>-4.5</ele><time>2021-05-12T12:53:58Z</time><name>PT8058</name></trkpt>
<trkpt lat="53.101791" lon="05.985393"><ele>-4.5</ele><time>2021-05-12T12:53:59Z</time><name>PT8059</name></trkpt>
<trkpt lat="53.101792" lon="05.985373"><ele>-4.5</ele><time>2021-05-12T12:54:00Z</time><name>PT8060</name></trkpt>
<trkpt lat="53.101793" lon="05.985355"><ele>-4.8</ele><time>2021-05-12T12:54:01Z</time><name>PT8061</name></trkpt>
<trkpt lat="53.101794" lon="05.985336"><ele>-4.7</ele><time>2021-05-12T12:54:02Z</time><name>PT8062</name></trkpt>
<trkpt lat="53.101795" lon="05.985318"><ele>-4.8</ele><time>2021-05-12T12:54:03Z</time><name>PT8063</name></trkpt>
<trkpt lat="53.101799" lon="05.985298"><ele>-4.8</ele><time>2021-05-12T12:54:04Z</time><name>PT8064</name></trkpt>
<trkpt lat="53.101801" lon="05.985281"><ele>-4.8</ele><time>2021-05-12T12:54:05Z</time><name>PT8065</name></trkpt>
<trkpt lat="53.101802" lon="05.985263"><ele>-4.5</ele><time>2021-05-12T12:54:06Z</time><name>PT8066</name></trkpt>
<trkpt lat="53.101803" lon="05.985243"><ele>-4.3</ele><time>2021-05-12T12:54:07Z</time><name>PT8067</name></trkpt>
<trkpt lat="53.101806" lon="05.985223"><ele>-4.4</ele><time>2021-05-12T12:54:08Z</time><name>PT8068</name></trkpt>
<trkpt lat="53.101808" lon="05.985203"><ele>-4.3</ele><time>2021-05-12T12:54:09Z</time><name>PT8069</name></trkpt>
<trkpt lat="53.101807" lon="05.985184"><ele>-4.3</ele><time>2021-05-12T12:54:10Z</time><name>PT8070</name></trkpt>
<trkpt lat="53.101809" lon="05.985166"><ele>-4.3</ele><time>2021-05-12T12:54:11Z</time><name>PT8071</name></trkpt>
<trkpt lat="53.101811" lon="05.985150"><ele>-4.5</ele><time>2021-05-12T12:54:12Z</time><name>PT8072</name></trkpt>
<trkpt lat="53.101813" lon="05.985133"><ele>-4.4</ele><time>2021-05-12T12:54:13Z</time><name>PT8073</name></trkpt>
<trkpt lat="53.101815" lon="05.985115"><ele>-4.4</ele><time>2021-05-12T12:54:14Z</time><name>PT8074</name></trkpt>
<trkpt lat="53.101816" lon="05.985096"><ele>-4.5</ele><time>2021-05-12T12:54:15Z</time><name>PT8075</name></trkpt>
<trkpt lat="53.101818" lon="05.985077"><ele>-4.5</ele><time>2021-05-12T12:54:16Z</time><name>PT8076</name></trkpt>
<trkpt lat="53.101818" lon="05.985057"><ele>-4.5</ele><time>2021-05-12T12:54:17Z</time><name>PT8077</name></trkpt>
<trkpt lat="53.101819" lon="05.985038"><ele>-4.5</ele><time>2021-05-12T12:54:18Z</time><name>PT8078</name></trkpt>
<trkpt lat="53.101819" lon="05.985017"><ele>-4.5</ele><time>2021-05-12T12:54:19Z</time><name>PT8079</name></trkpt>
<trkpt lat="53.101821" lon="05.984995"><ele>-4.5</ele><time>2021-05-12T12:54:20Z</time><name>PT8080</name></trkpt>
<trkpt lat="53.101822" lon="05.984979"><ele>-4.4</ele><time>2021-05-12T12:54:21Z</time><name>PT8081</name></trkpt>
<trkpt lat="53.101824" lon="05.984961"><ele>-4.4</ele><time>2021-05-12T12:54:22Z</time><name>PT8082</name></trkpt>
<trkpt lat="53.101827" lon="05.984942"><ele>-4.3</ele><time>2021-05-12T12:54:23Z</time><name>PT8083</name></trkpt>
<trkpt lat="53.101830" lon="05.984926"><ele>-4.5</ele><time>2021-05-12T12:54:24Z</time><name>PT8084</name></trkpt>
<trkpt lat="53.101832" lon="05.984907"><ele>-4.7</ele><time>2021-05-12T12:54:25Z</time><name>PT8085</name></trkpt>
<trkpt lat="53.101834" lon="05.984889"><ele>-4.6</ele><time>2021-05-12T12:54:26Z</time><name>PT8086</name></trkpt>
<trkpt lat="53.101835" lon="05.984871"><ele>-4.8</ele><time>2021-05-12T12:54:27Z</time><name>PT8087</name></trkpt>
<trkpt lat="53.101836" lon="05.984852"><ele>-4.5</ele><time>2021-05-12T12:54:28Z</time><name>PT8088</name></trkpt>
<trkpt lat="53.101836" lon="05.984833"><ele>-4.5</ele><time>2021-05-12T12:54:29Z</time><name>PT8089</name></trkpt>
<trkpt lat="53.101836" lon="05.984813"><ele>-4.5</ele><time>2021-05-12T12:54:30Z</time><name>PT8090</name></trkpt>
<trkpt lat="53.101837" lon="05.984795"><ele>-4.5</ele><time>2021-05-12T12:54:31Z</time><name>PT8091</name></trkpt>
<trkpt lat="53.101839" lon="05.984778"><ele>-4.4</ele><time>2021-05-12T12:54:32Z</time><name>PT8092</name></trkpt>
<trkpt lat="53.101841" lon="05.984763"><ele>-4.5</ele><time>2021-05-12T12:54:33Z</time><name>PT8093</name></trkpt>
<trkpt lat="53.101842" lon="05.984749"><ele>-4.4</ele><time>2021-05-12T12:54:34Z</time><name>PT8094</name></trkpt>
<trkpt lat="53.101842" lon="05.984733"><ele>-4.4</ele><time>2021-05-12T12:54:35Z</time><name>PT8095</name></trkpt>
<trkpt lat="53.101841" lon="05.984714"><ele>-4.5</ele><time>2021-05-12T12:54:36Z</time><name>PT8096</name></trkpt>
<trkpt lat="53.101842" lon="05.984695"><ele>-4.5</ele><time>2021-05-12T12:54:37Z</time><name>PT8097</name></trkpt>
<trkpt lat="53.101844" lon="05.984678"><ele>-4.5</ele><time>2021-05-12T12:54:38Z</time><name>PT8098</name></trkpt>
<trkpt lat="53.101848" lon="05.984660"><ele>-4.5</ele><time>2021-05-12T12:54:39Z</time><name>PT8099</name></trkpt>
<trkpt lat="53.101852" lon="05.984641"><ele>-4.5</ele><time>2021-05-12T12:54:40Z</time><name>PT8100</name></trkpt>
<trkpt lat="53.101855" lon="05.984622"><ele>-4.6</ele><time>2021-05-12T12:54:41Z</time><name>PT8101</name></trkpt>
<trkpt lat="53.101857" lon="05.984605"><ele>-4.6</ele><time>2021-05-12T12:54:42Z</time><name>PT8102</name></trkpt>
<trkpt lat="53.101857" lon="05.984588"><ele>-4.5</ele><time>2021-05-12T12:54:43Z</time><name>PT8103</name></trkpt>
<trkpt lat="53.101857" lon="05.984571"><ele>-4.6</ele><time>2021-05-12T12:54:44Z</time><name>PT8104</name></trkpt>
<trkpt lat="53.101858" lon="05.984553"><ele>-4.6</ele><time>2021-05-12T12:54:45Z</time><name>PT8105</name></trkpt>
<trkpt lat="53.101858" lon="05.984535"><ele>-4.7</ele><time>2021-05-12T12:54:46Z</time><name>PT8106</name></trkpt>
<trkpt lat="53.101859" lon="05.984518"><ele>-4.9</ele><time>2021-05-12T12:54:47Z</time><name>PT8107</name></trkpt>
<trkpt lat="53.101862" lon="05.984500"><ele>-4.9</ele><time>2021-05-12T12:54:48Z</time><name>PT8108</name></trkpt>
<trkpt lat="53.101865" lon="05.984481"><ele>-4.8</ele><time>2021-05-12T12:54:49Z</time><name>PT8109</name></trkpt>
<trkpt lat="53.101867" lon="05.984464"><ele>-4.9</ele><time>2021-05-12T12:54:50Z</time><name>PT8110</name></trkpt>
<trkpt lat="53.101867" lon="05.984447"><ele>-4.6</ele><time>2021-05-12T12:54:51Z</time><name>PT8111</name></trkpt>
<trkpt lat="53.101868" lon="05.984428"><ele>-4.5</ele><time>2021-05-12T12:54:52Z</time><name>PT8112</name></trkpt>
<trkpt lat="53.101867" lon="05.984407"><ele>-4.5</ele><time>2021-05-12T12:54:53Z</time><name>PT8113</name></trkpt>
<trkpt lat="53.101866" lon="05.984388"><ele>-4.4</ele><time>2021-05-12T12:54:54Z</time><name>PT8114</name></trkpt>
<trkpt lat="53.101868" lon="05.984372"><ele>-4.5</ele><time>2021-05-12T12:54:55Z</time><name>PT8115</name></trkpt>
<trkpt lat="53.101870" lon="05.984355"><ele>-4.5</ele><time>2021-05-12T12:54:56Z</time><name>PT8116</name></trkpt>
<trkpt lat="53.101872" lon="05.984338"><ele>-4.5</ele><time>2021-05-12T12:54:57Z</time><name>PT8117</name></trkpt>
<trkpt lat="53.101871" lon="05.984313"><ele>-4.5</ele><time>2021-05-12T12:54:58Z</time><name>PT8118</name></trkpt>
<trkpt lat="53.101871" lon="05.984292"><ele>-4.5</ele><time>2021-05-12T12:54:59Z</time><name>PT8119</name></trkpt>
<trkpt lat="53.101873" lon="05.984275"><ele>-4.5</ele><time>2021-05-12T12:55:00Z</time><name>PT8120</name></trkpt>
<trkpt lat="53.101873" lon="05.984257"><ele>-4.5</ele><time>2021-05-12T12:55:01Z</time><name>PT8121</name></trkpt>
<trkpt lat="53.101872" lon="05.984239"><ele>-4.5</ele><time>2021-05-12T12:55:02Z</time><name>PT8122</name></trkpt>
<trkpt lat="53.101872" lon="05.984220"><ele>-4.5</ele><time>2021-05-12T12:55:03Z</time><name>PT8123</name></trkpt>
<trkpt lat="53.101874" lon="05.984202"><ele>-4.5</ele><time>2021-05-12T12:55:04Z</time><name>PT8124</name></trkpt>
<trkpt lat="53.101876" lon="05.984183"><ele>-4.5</ele><time>2021-05-12T12:55:05Z</time><name>PT8125</name></trkpt>
<trkpt lat="53.101879" lon="05.984165"><ele>-4.5</ele><time>2021-05-12T12:55:06Z</time><name>PT8126</name></trkpt>
<trkpt lat="53.101882" lon="05.984145"><ele>-4.6</ele><time>2021-05-12T12:55:07Z</time><name>PT8127</name></trkpt>
<trkpt lat="53.101885" lon="05.984128"><ele>-4.7</ele><time>2021-05-12T12:55:08Z</time><name>PT8128</name></trkpt>
<trkpt lat="53.101887" lon="05.984110"><ele>-4.9</ele><time>2021-05-12T12:55:09Z</time><name>PT8129</name></trkpt>
<trkpt lat="53.101888" lon="05.984092"><ele>-4.9</ele><time>2021-05-12T12:55:10Z</time><name>PT8130</name></trkpt>
<trkpt lat="53.101889" lon="05.984072"><ele>-5</ele><time>2021-05-12T12:55:11Z</time><name>PT8131</name></trkpt>
<trkpt lat="53.101889" lon="05.984052"><ele>-4.7</ele><time>2021-05-12T12:55:12Z</time><name>PT8132</name></trkpt>
<trkpt lat="53.101889" lon="05.984034"><ele>-4.7</ele><time>2021-05-12T12:55:13Z</time><name>PT8133</name></trkpt>
<trkpt lat="53.101891" lon="05.984016"><ele>-4.6</ele><time>2021-05-12T12:55:14Z</time><name>PT8134</name></trkpt>
<trkpt lat="53.101895" lon="05.983998"><ele>-4.6</ele><time>2021-05-12T12:55:15Z</time><name>PT8135</name></trkpt>
<trkpt lat="53.101897" lon="05.983979"><ele>-4.5</ele><time>2021-05-12T12:55:16Z</time><name>PT8136</name></trkpt>
<trkpt lat="53.101898" lon="05.983961"><ele>-4.5</ele><time>2021-05-12T12:55:17Z</time><name>PT8137</name></trkpt>
<trkpt lat="53.101899" lon="05.983943"><ele>-4.4</ele><time>2021-05-12T12:55:18Z</time><name>PT8138</name></trkpt>
<trkpt lat="53.101900" lon="05.983925"><ele>-4.4</ele><time>2021-05-12T12:55:19Z</time><name>PT8139</name></trkpt>
<trkpt lat="53.101900" lon="05.983905"><ele>-4.3</ele><time>2021-05-12T12:55:20Z</time><name>PT8140</name></trkpt>
<trkpt lat="53.101900" lon="05.983887"><ele>-4.2</ele><time>2021-05-12T12:55:21Z</time><name>PT8141</name></trkpt>
<trkpt lat="53.101901" lon="05.983870"><ele>-4.3</ele><time>2021-05-12T12:55:22Z</time><name>PT8142</name></trkpt>
<trkpt lat="53.101902" lon="05.983851"><ele>-4.3</ele><time>2021-05-12T12:55:23Z</time><name>PT8143</name></trkpt>
<trkpt lat="53.101902" lon="05.983833"><ele>-4.2</ele><time>2021-05-12T12:55:24Z</time><name>PT8144</name></trkpt>
<trkpt lat="53.101904" lon="05.983818"><ele>-4.3</ele><time>2021-05-12T12:55:25Z</time><name>PT8145</name></trkpt>
<trkpt lat="53.101906" lon="05.983802"><ele>-4.2</ele><time>2021-05-12T12:55:26Z</time><name>PT8146</name></trkpt>
<trkpt lat="53.101907" lon="05.983787"><ele>-4.3</ele><time>2021-05-12T12:55:27Z</time><name>PT8147</name></trkpt>
<trkpt lat="53.101909" lon="05.983771"><ele>-4.3</ele><time>2021-05-12T12:55:28Z</time><name>PT8148</name></trkpt>
<trkpt lat="53.101911" lon="05.983754"><ele>-4.5</ele><time>2021-05-12T12:55:29Z</time><name>PT8149</name></trkpt>
<trkpt lat="53.101913" lon="05.983735"><ele>-4.4</ele><time>2021-05-12T12:55:30Z</time><name>PT8150</name></trkpt>
<trkpt lat="53.101914" lon="05.983717"><ele>-4.4</ele><time>2021-05-12T12:55:31Z</time><name>PT8151</name></trkpt>
<trkpt lat="53.101916" lon="05.983699"><ele>-4.5</ele><time>2021-05-12T12:55:32Z</time><name>PT8152</name></trkpt>
<trkpt lat="53.101918" lon="05.983680"><ele>-4.5</ele><time>2021-05-12T12:55:33Z</time><name>PT8153</name></trkpt>
<trkpt lat="53.101918" lon="05.983660"><ele>-4.5</ele><time>2021-05-12T12:55:34Z</time><name>PT8154</name></trkpt>
<trkpt lat="53.101919" lon="05.983642"><ele>-4.7</ele><time>2021-05-12T12:55:35Z</time><name>PT8155</name></trkpt>
<trkpt lat="53.101920" lon="05.983624"><ele>-4.9</ele><time>2021-05-12T12:55:36Z</time><name>PT8156</name></trkpt>
<trkpt lat="53.101920" lon="05.983606"><ele>-5</ele><time>2021-05-12T12:55:37Z</time><name>PT8157</name></trkpt>
<trkpt lat="53.101922" lon="05.983587"><ele>-5</ele><time>2021-05-12T12:55:38Z</time><name>PT8158</name></trkpt>
<trkpt lat="53.101925" lon="05.983568"><ele>-4.9</ele><time>2021-05-12T12:55:39Z</time><name>PT8159</name></trkpt>
<trkpt lat="53.101929" lon="05.983547"><ele>-4.8</ele><time>2021-05-12T12:55:40Z</time><name>PT8160</name></trkpt>
<trkpt lat="53.101930" lon="05.983527"><ele>-4.7</ele><time>2021-05-12T12:55:41Z</time><name>PT8161</name></trkpt>
<trkpt lat="53.101930" lon="05.983509"><ele>-4.5</ele><time>2021-05-12T12:55:42Z</time><name>PT8162</name></trkpt>
<trkpt lat="53.101930" lon="05.983491"><ele>-4.7</ele><time>2021-05-12T12:55:43Z</time><name>PT8163</name></trkpt>
<trkpt lat="53.101930" lon="05.983476"><ele>-4.6</ele><time>2021-05-12T12:55:44Z</time><name>PT8164</name></trkpt>
<trkpt lat="53.101932" lon="05.983457"><ele>-4.5</ele><time>2021-05-12T12:55:45Z</time><name>PT8165</name></trkpt>
<trkpt lat="53.101935" lon="05.983438"><ele>-4.7</ele><time>2021-05-12T12:55:46Z</time><name>PT8166</name></trkpt>
<trkpt lat="53.101938" lon="05.983420"><ele>-4.8</ele><time>2021-05-12T12:55:47Z</time><name>PT8167</name></trkpt>
<trkpt lat="53.101939" lon="05.983404"><ele>-4.6</ele><time>2021-05-12T12:55:48Z</time><name>PT8168</name></trkpt>
<trkpt lat="53.101939" lon="05.983388"><ele>-4.6</ele><time>2021-05-12T12:55:49Z</time><name>PT8169</name></trkpt>
<trkpt lat="53.101938" lon="05.983371"><ele>-4.5</ele><time>2021-05-12T12:55:50Z</time><name>PT8170</name></trkpt>
<trkpt lat="53.101939" lon="05.983354"><ele>-4.5</ele><time>2021-05-12T12:55:51Z</time><name>PT8171</name></trkpt>
<trkpt lat="53.101942" lon="05.983334"><ele>-4.5</ele><time>2021-05-12T12:55:52Z</time><name>PT8172</name></trkpt>
<trkpt lat="53.101944" lon="05.983315"><ele>-4.5</ele><time>2021-05-12T12:55:53Z</time><name>PT8173</name></trkpt>
<trkpt lat="53.101945" lon="05.983297"><ele>-4.5</ele><time>2021-05-12T12:55:54Z</time><name>PT8174</name></trkpt>
<trkpt lat="53.101948" lon="05.983279"><ele>-4.6</ele><time>2021-05-12T12:55:55Z</time><name>PT8175</name></trkpt>
<trkpt lat="53.101949" lon="05.983261"><ele>-4.7</ele><time>2021-05-12T12:55:56Z</time><name>PT8176</name></trkpt>
<trkpt lat="53.101950" lon="05.983244"><ele>-4.8</ele><time>2021-05-12T12:55:57Z</time><name>PT8177</name></trkpt>
<trkpt lat="53.101952" lon="05.983226"><ele>-4.6</ele><time>2021-05-12T12:55:58Z</time><name>PT8178</name></trkpt>
<trkpt lat="53.101954" lon="05.983207"><ele>-4.5</ele><time>2021-05-12T12:55:59Z</time><name>PT8179</name></trkpt>
<trkpt lat="53.101956" lon="05.983188"><ele>-4.5</ele><time>2021-05-12T12:56:00Z</time><name>PT8180</name></trkpt>
<trkpt lat="53.101957" lon="05.983170"><ele>-4.3</ele><time>2021-05-12T12:56:01Z</time><name>PT8181</name></trkpt>
<trkpt lat="53.101958" lon="05.983151"><ele>-4.2</ele><time>2021-05-12T12:56:02Z</time><name>PT8182</name></trkpt>
<trkpt lat="53.101959" lon="05.983133"><ele>-4.2</ele><time>2021-05-12T12:56:03Z</time><name>PT8183</name></trkpt>
<trkpt lat="53.101961" lon="05.983116"><ele>-4.3</ele><time>2021-05-12T12:56:04Z</time><name>PT8184</name></trkpt>
<trkpt lat="53.101965" lon="05.983099"><ele>-4.4</ele><time>2021-05-12T12:56:05Z</time><name>PT8185</name></trkpt>
<trkpt lat="53.101967" lon="05.983081"><ele>-4.3</ele><time>2021-05-12T12:56:06Z</time><name>PT8186</name></trkpt>
<trkpt lat="53.101969" lon="05.983063"><ele>-4.2</ele><time>2021-05-12T12:56:07Z</time><name>PT8187</name></trkpt>
<trkpt lat="53.101970" lon="05.983045"><ele>-4.1</ele><time>2021-05-12T12:56:08Z</time><name>PT8188</name></trkpt>
<trkpt lat="53.101971" lon="05.983026"><ele>-4.1</ele><time>2021-05-12T12:56:09Z</time><name>PT8189</name></trkpt>
<trkpt lat="53.101971" lon="05.983011"><ele>-4</ele><time>2021-05-12T12:56:10Z</time><name>PT8190</name></trkpt>
<trkpt lat="53.101973" lon="05.982996"><ele>-4</ele><time>2021-05-12T12:56:11Z</time><name>PT8191</name></trkpt>
<trkpt lat="53.101977" lon="05.982982"><ele>-4</ele><time>2021-05-12T12:56:12Z</time><name>PT8192</name></trkpt>
<trkpt lat="53.101979" lon="05.982968"><ele>-3.9</ele><time>2021-05-12T12:56:13Z</time><name>PT8193</name></trkpt>
<trkpt lat="53.101978" lon="05.982953"><ele>-3.8</ele><time>2021-05-12T12:56:14Z</time><name>PT8194</name></trkpt>
<trkpt lat="53.101979" lon="05.982938"><ele>-3.7</ele><time>2021-05-12T12:56:15Z</time><name>PT8195</name></trkpt>
<trkpt lat="53.101985" lon="05.982922"><ele>-3.6</ele><time>2021-05-12T12:56:16Z</time><name>PT8196</name></trkpt>
<trkpt lat="53.101988" lon="05.982906"><ele>-3.6</ele><time>2021-05-12T12:56:17Z</time><name>PT8197</name></trkpt>
<trkpt lat="53.101990" lon="05.982890"><ele>-3.6</ele><time>2021-05-12T12:56:18Z</time><name>PT8198</name></trkpt>
<trkpt lat="53.101992" lon="05.982873"><ele>-3.6</ele><time>2021-05-12T12:56:19Z</time><name>PT8199</name></trkpt>
<trkpt lat="53.101995" lon="05.982855"><ele>-3.6</ele><time>2021-05-12T12:56:20Z</time><name>PT8200</name></trkpt>
<trkpt lat="53.101998" lon="05.982843"><ele>-3.7</ele><time>2021-05-12T12:56:21Z</time><name>PT8201</name></trkpt>
<trkpt lat="53.102002" lon="05.982828"><ele>-3.8</ele><time>2021-05-12T12:56:22Z</time><name>PT8202</name></trkpt>
<trkpt lat="53.102007" lon="05.982810"><ele>-3.8</ele><time>2021-05-12T12:56:23Z</time><name>PT8203</name></trkpt>
<trkpt lat="53.102009" lon="05.982793"><ele>-3.7</ele><time>2021-05-12T12:56:24Z</time><name>PT8204</name></trkpt>
<trkpt lat="53.102011" lon="05.982780"><ele>-3.8</ele><time>2021-05-12T12:56:25Z</time><name>PT8205</name></trkpt>
<trkpt lat="53.102014" lon="05.982771"><ele>-3.9</ele><time>2021-05-12T12:56:26Z</time><name>PT8206</name></trkpt>
<trkpt lat="53.102015" lon="05.982760"><ele>-3.7</ele><time>2021-05-12T12:56:27Z</time><name>PT8207</name></trkpt>
<trkpt lat="53.102018" lon="05.982758"><ele>-3.6</ele><time>2021-05-12T12:56:28Z</time><name>PT8208</name></trkpt>
<trkpt lat="53.102017" lon="05.982753"><ele>-3.6</ele><time>2021-05-12T12:56:29Z</time><name>PT8209</name></trkpt>
<trkpt lat="53.102018" lon="05.982744"><ele>-3.5</ele><time>2021-05-12T12:56:30Z</time><name>PT8210</name></trkpt>
<trkpt lat="53.102021" lon="05.982733"><ele>-3.6</ele><time>2021-05-12T12:56:31Z</time><name>PT8211</name></trkpt>
<trkpt lat="53.102022" lon="05.982724"><ele>-3.6</ele><time>2021-05-12T12:56:32Z</time><name>PT8212</name></trkpt>
<trkpt lat="53.102022" lon="05.982713"><ele>-3.8</ele><time>2021-05-12T12:56:33Z</time><name>PT8213</name></trkpt>
<trkpt lat="53.102024" lon="05.982701"><ele>-4</ele><time>2021-05-12T12:56:34Z</time><name>PT8214</name></trkpt>
<trkpt lat="53.102024" lon="05.982690"><ele>-4</ele><time>2021-05-12T12:56:35Z</time><name>PT8215</name></trkpt>
<trkpt lat="53.102025" lon="05.982680"><ele>-4</ele><time>2021-05-12T12:56:36Z</time><name>PT8216</name></trkpt>
<trkpt lat="53.102029" lon="05.982666"><ele>-3.9</ele><time>2021-05-12T12:56:37Z</time><name>PT8217</name></trkpt>
<trkpt lat="53.102033" lon="05.982654"><ele>-4</ele><time>2021-05-12T12:56:38Z</time><name>PT8218</name></trkpt>
<trkpt lat="53.102032" lon="05.982647"><ele>-3.3</ele><time>2021-05-12T12:56:39Z</time><name>PT8219</name></trkpt>
<trkpt lat="53.102032" lon="05.982641"><ele>-3.1</ele><time>2021-05-12T12:56:40Z</time><name>PT8220</name></trkpt>
<trkpt lat="53.102034" lon="05.982638"><ele>-3</ele><time>2021-05-12T12:56:41Z</time><name>PT8221</name></trkpt>
<trkpt lat="53.102030" lon="05.982603"><ele>-3.6</ele><time>2021-05-12T13:20:29Z</time><name>PT8222</name></trkpt>
<trkpt lat="53.102034" lon="05.982595"><ele>-4.4</ele><time>2021-05-12T13:20:33Z</time><name>PT8223</name></trkpt>
<trkpt lat="53.102034" lon="05.982577"><ele>-4.4</ele><time>2021-05-12T13:20:34Z</time><name>PT8224</name></trkpt>
<trkpt lat="53.102032" lon="05.982562"><ele>-4.4</ele><time>2021-05-12T13:20:35Z</time><name>PT8225</name></trkpt>
<trkpt lat="53.102033" lon="05.982544"><ele>-4.2</ele><time>2021-05-12T13:20:36Z</time><name>PT8226</name></trkpt>
<trkpt lat="53.102030" lon="05.982525"><ele>-4.2</ele><time>2021-05-12T13:20:37Z</time><name>PT8227</name></trkpt>
<trkpt lat="53.102025" lon="05.982509"><ele>-4.2</ele><time>2021-05-12T13:20:38Z</time><name>PT8228</name></trkpt>
<trkpt lat="53.102022" lon="05.982492"><ele>-4.3</ele><time>2021-05-12T13:20:39Z</time><name>PT8229</name></trkpt>
<trkpt lat="53.102020" lon="05.982474"><ele>-4</ele><time>2021-05-12T13:20:40Z</time><name>PT8230</name></trkpt>
<trkpt lat="53.102022" lon="05.982458"><ele>-4</ele><time>2021-05-12T13:20:41Z</time><name>PT8231</name></trkpt>
<trkpt lat="53.102024" lon="05.982443"><ele>-3.7</ele><time>2021-05-12T13:20:42Z</time><name>PT8232</name></trkpt>
<trkpt lat="53.102025" lon="05.982427"><ele>-3.6</ele><time>2021-05-12T13:20:43Z</time><name>PT8233</name></trkpt>
<trkpt lat="53.102027" lon="05.982411"><ele>-3.5</ele><time>2021-05-12T13:20:44Z</time><name>PT8234</name></trkpt>
<trkpt lat="53.102028" lon="05.982395"><ele>-3.6</ele><time>2021-05-12T13:20:45Z</time><name>PT8235</name></trkpt>
<trkpt lat="53.102029" lon="05.982376"><ele>-3.7</ele><time>2021-05-12T13:20:46Z</time><name>PT8236</name></trkpt>
<trkpt lat="53.102030" lon="05.982358"><ele>-4</ele><time>2021-05-12T13:20:47Z</time><name>PT8237</name></trkpt>
<trkpt lat="53.102032" lon="05.982340"><ele>-3.8</ele><time>2021-05-12T13:20:48Z</time><name>PT8238</name></trkpt>
<trkpt lat="53.102035" lon="05.982325"><ele>-3.6</ele><time>2021-05-12T13:20:49Z</time><name>PT8239</name></trkpt>
<trkpt lat="53.102037" lon="05.982310"><ele>-3.5</ele><time>2021-05-12T13:20:50Z</time><name>PT8240</name></trkpt>
<trkpt lat="53.102038" lon="05.982294"><ele>-3.1</ele><time>2021-05-12T13:20:51Z</time><name>PT8241</name></trkpt>
<trkpt lat="53.102040" lon="05.982276"><ele>-3</ele><time>2021-05-12T13:20:52Z</time><name>PT8242</name></trkpt>
<trkpt lat="53.102040" lon="05.982259"><ele>-3.1</ele><time>2021-05-12T13:20:53Z</time><name>PT8243</name></trkpt>
<trkpt lat="53.102042" lon="05.982240"><ele>-3.2</ele><time>2021-05-12T13:20:54Z</time><name>PT8244</name></trkpt>
<trkpt lat="53.102043" lon="05.982221"><ele>-3.6</ele><time>2021-05-12T13:20:55Z</time><name>PT8245</name></trkpt>
<trkpt lat="53.102044" lon="05.982202"><ele>-3.6</ele><time>2021-05-12T13:20:56Z</time><name>PT8246</name></trkpt>
<trkpt lat="53.102046" lon="05.982184"><ele>-3.7</ele><time>2021-05-12T13:20:57Z</time><name>PT8247</name></trkpt>
<trkpt lat="53.102048" lon="05.982166"><ele>-3.2</ele><time>2021-05-12T13:20:58Z</time><name>PT8248</name></trkpt>
<trkpt lat="53.102050" lon="05.982146"><ele>-3.2</ele><time>2021-05-12T13:20:59Z</time><name>PT8249</name></trkpt>
<trkpt lat="53.102051" lon="05.982128"><ele>-2.9</ele><time>2021-05-12T13:21:00Z</time><name>PT8250</name></trkpt>
<trkpt lat="53.102052" lon="05.982110"><ele>-2.6</ele><time>2021-05-12T13:21:01Z</time><name>PT8251</name></trkpt>
<trkpt lat="53.102053" lon="05.982093"><ele>-2.6</ele><time>2021-05-12T13:21:02Z</time><name>PT8252</name></trkpt>
<trkpt lat="53.102053" lon="05.982077"><ele>-3.1</ele><time>2021-05-12T13:21:03Z</time><name>PT8253</name></trkpt>
<trkpt lat="53.102054" lon="05.982063"><ele>-3.4</ele><time>2021-05-12T13:21:04Z</time><name>PT8254</name></trkpt>
<trkpt lat="53.102053" lon="05.982058"><ele>-3.5</ele><time>2021-05-12T13:21:05Z</time><name>PT8255</name></trkpt>
<trkpt lat="53.102056" lon="05.982052"><ele>-3.8</ele><time>2021-05-12T13:21:06Z</time><name>PT8256</name></trkpt>
<trkpt lat="53.102059" lon="05.982039"><ele>-3.6</ele><time>2021-05-12T13:21:07Z</time><name>PT8257</name></trkpt>
<trkpt lat="53.102061" lon="05.982024"><ele>-3.5</ele><time>2021-05-12T13:21:08Z</time><name>PT8258</name></trkpt>
<trkpt lat="53.102061" lon="05.982007"><ele>-3.4</ele><time>2021-05-12T13:21:09Z</time><name>PT8259</name></trkpt>
<trkpt lat="53.102062" lon="05.981990"><ele>-3.1</ele><time>2021-05-12T13:21:10Z</time><name>PT8260</name></trkpt>
<trkpt lat="53.102063" lon="05.981973"><ele>-3.4</ele><time>2021-05-12T13:21:11Z</time><name>PT8261</name></trkpt>
<trkpt lat="53.102064" lon="05.981957"><ele>-3.5</ele><time>2021-05-12T13:21:12Z</time><name>PT8262</name></trkpt>
<trkpt lat="53.102066" lon="05.981943"><ele>-3.6</ele><time>2021-05-12T13:21:13Z</time><name>PT8263</name></trkpt>
<trkpt lat="53.102067" lon="05.981929"><ele>-3.6</ele><time>2021-05-12T13:21:14Z</time><name>PT8264</name></trkpt>
<trkpt lat="53.102067" lon="05.981914"><ele>-3.6</ele><time>2021-05-12T13:21:15Z</time><name>PT8265</name></trkpt>
<trkpt lat="53.102068" lon="05.981898"><ele>-3.8</ele><time>2021-05-12T13:21:16Z</time><name>PT8266</name></trkpt>
<trkpt lat="53.102070" lon="05.981878"><ele>-3.8</ele><time>2021-05-12T13:21:17Z</time><name>PT8267</name></trkpt>
<trkpt lat="53.102071" lon="05.981858"><ele>-3.6</ele><time>2021-05-12T13:21:18Z</time><name>PT8268</name></trkpt>
<trkpt lat="53.102072" lon="05.981838"><ele>-3.6</ele><time>2021-05-12T13:21:19Z</time><name>PT8269</name></trkpt>
<trkpt lat="53.102073" lon="05.981820"><ele>-3.5</ele><time>2021-05-12T13:21:20Z</time><name>PT8270</name></trkpt>
<trkpt lat="53.102076" lon="05.981801"><ele>-3.4</ele><time>2021-05-12T13:21:21Z</time><name>PT8271</name></trkpt>
<trkpt lat="53.102078" lon="05.981782"><ele>-3.5</ele><time>2021-05-12T13:21:22Z</time><name>PT8272</name></trkpt>
<trkpt lat="53.102081" lon="05.981762"><ele>-3.6</ele><time>2021-05-12T13:21:23Z</time><name>PT8273</name></trkpt>
<trkpt lat="53.102082" lon="05.981742"><ele>-3.5</ele><time>2021-05-12T13:21:24Z</time><name>PT8274</name></trkpt>
<trkpt lat="53.102083" lon="05.981724"><ele>-3.5</ele><time>2021-05-12T13:21:25Z</time><name>PT8275</name></trkpt>
<trkpt lat="53.102085" lon="05.981705"><ele>-3.6</ele><time>2021-05-12T13:21:26Z</time><name>PT8276</name></trkpt>
<trkpt lat="53.102086" lon="05.981686"><ele>-3.3</ele><time>2021-05-12T13:21:27Z</time><name>PT8277</name></trkpt>
<trkpt lat="53.102087" lon="05.981668"><ele>-3.4</ele><time>2021-05-12T13:21:28Z</time><name>PT8278</name></trkpt>
<trkpt lat="53.102087" lon="05.981650"><ele>-3.4</ele><time>2021-05-12T13:21:29Z</time><name>PT8279</name></trkpt>
<trkpt lat="53.102087" lon="05.981631"><ele>-3.3</ele><time>2021-05-12T13:21:30Z</time><name>PT8280</name></trkpt>
<trkpt lat="53.102089" lon="05.981613"><ele>-3.5</ele><time>2021-05-12T13:21:31Z</time><name>PT8281</name></trkpt>
<trkpt lat="53.102091" lon="05.981595"><ele>-3.5</ele><time>2021-05-12T13:21:32Z</time><name>PT8282</name></trkpt>
<trkpt lat="53.102094" lon="05.981577"><ele>-3.6</ele><time>2021-05-12T13:21:33Z</time><name>PT8283</name></trkpt>
<trkpt lat="53.102096" lon="05.981558"><ele>-3.6</ele><time>2021-05-12T13:21:34Z</time><name>PT8284</name></trkpt>
<trkpt lat="53.102099" lon="05.981539"><ele>-3.5</ele><time>2021-05-12T13:21:35Z</time><name>PT8285</name></trkpt>
<trkpt lat="53.102100" lon="05.981519"><ele>-3.7</ele><time>2021-05-12T13:21:36Z</time><name>PT8286</name></trkpt>
<trkpt lat="53.102100" lon="05.981500"><ele>-3.5</ele><time>2021-05-12T13:21:37Z</time><name>PT8287</name></trkpt>
<trkpt lat="53.102100" lon="05.981481"><ele>-3.2</ele><time>2021-05-12T13:21:38Z</time><name>PT8288</name></trkpt>
<trkpt lat="53.102100" lon="05.981471"><ele>-3.1</ele><time>2021-05-12T13:21:39Z</time><name>PT8289</name></trkpt>
<trkpt lat="53.102100" lon="05.981469"><ele>-3</ele><time>2021-05-12T13:21:40Z</time><name>PT8290</name></trkpt>
<trkpt lat="53.102100" lon="05.981467"><ele>-2.8</ele><time>2021-05-12T13:21:41Z</time><name>PT8291</name></trkpt>
<trkpt lat="53.102100" lon="05.981467"><ele>-3.3</ele><time>2021-05-12T13:21:42Z</time><name>PT8292</name></trkpt>
<trkpt lat="53.102101" lon="05.981459"><ele>-3.8</ele><time>2021-05-12T13:21:45Z</time><name>PT8293</name></trkpt>
<trkpt lat="53.102103" lon="05.981442"><ele>-3.6</ele><time>2021-05-12T13:21:46Z</time><name>PT8294</name></trkpt>
<trkpt lat="53.102102" lon="05.981430"><ele>-3.6</ele><time>2021-05-12T13:21:47Z</time><name>PT8295</name></trkpt>
<trkpt lat="53.102101" lon="05.981425"><ele>-3.5</ele><time>2021-05-12T13:21:48Z</time><name>PT8296</name></trkpt>
<trkpt lat="53.102101" lon="05.981425"><ele>-3</ele><time>2021-05-12T13:21:49Z</time><name>PT8297</name></trkpt>
<trkpt lat="53.102101" lon="05.981422"><ele>-3.1</ele><time>2021-05-12T13:21:50Z</time><name>PT8298</name></trkpt>
<trkpt lat="53.102103" lon="05.981413"><ele>-3.7</ele><time>2021-05-12T13:21:57Z</time><name>PT8299</name></trkpt>
<trkpt lat="53.102105" lon="05.981394"><ele>-3.6</ele><time>2021-05-12T13:21:58Z</time><name>PT8300</name></trkpt>
<trkpt lat="53.102107" lon="05.981379"><ele>-3.7</ele><time>2021-05-12T13:21:59Z</time><name>PT8301</name></trkpt>
<trkpt lat="53.102109" lon="05.981363"><ele>-4</ele><time>2021-05-12T13:22:00Z</time><name>PT8302</name></trkpt>
<trkpt lat="53.102111" lon="05.981346"><ele>-4</ele><time>2021-05-12T13:22:01Z</time><name>PT8303</name></trkpt>
<trkpt lat="53.102112" lon="05.981330"><ele>-4</ele><time>2021-05-12T13:22:02Z</time><name>PT8304</name></trkpt>
<trkpt lat="53.102113" lon="05.981316"><ele>-4</ele><time>2021-05-12T13:22:03Z</time><name>PT8305</name></trkpt>
<trkpt lat="53.102113" lon="05.981300"><ele>-4</ele><time>2021-05-12T13:22:04Z</time><name>PT8306</name></trkpt>
<trkpt lat="53.102116" lon="05.981284"><ele>-4</ele><time>2021-05-12T13:22:05Z</time><name>PT8307</name></trkpt>
<trkpt lat="53.102120" lon="05.981267"><ele>-4</ele><time>2021-05-12T13:22:06Z</time><name>PT8308</name></trkpt>
<trkpt lat="53.102123" lon="05.981251"><ele>-4</ele><time>2021-05-12T13:22:07Z</time><name>PT8309</name></trkpt>
<trkpt lat="53.102124" lon="05.981234"><ele>-4</ele><time>2021-05-12T13:22:08Z</time><name>PT8310</name></trkpt>
<trkpt lat="53.102125" lon="05.981218"><ele>-3.9</ele><time>2021-05-12T13:22:09Z</time><name>PT8311</name></trkpt>
<trkpt lat="53.102127" lon="05.981207"><ele>-3.8</ele><time>2021-05-12T13:22:10Z</time><name>PT8312</name></trkpt>
<trkpt lat="53.102130" lon="05.981202"><ele>-3.9</ele><time>2021-05-12T13:22:11Z</time><name>PT8313</name></trkpt>
<trkpt lat="53.102137" lon="05.981192"><ele>-3.7</ele><time>2021-05-12T13:22:12Z</time><name>PT8314</name></trkpt>
<trkpt lat="53.102143" lon="05.981176"><ele>-3.6</ele><time>2021-05-12T13:22:13Z</time><name>PT8315</name></trkpt>
<trkpt lat="53.102146" lon="05.981158"><ele>-3.6</ele><time>2021-05-12T13:22:14Z</time><name>PT8316</name></trkpt>
<trkpt lat="53.102145" lon="05.981139"><ele>-3.6</ele><time>2021-05-12T13:22:15Z</time><name>PT8317</name></trkpt>
<trkpt lat="53.102146" lon="05.981119"><ele>-3.6</ele><time>2021-05-12T13:22:16Z</time><name>PT8318</name></trkpt>
<trkpt lat="53.102148" lon="05.981099"><ele>-3.7</ele><time>2021-05-12T13:22:17Z</time><name>PT8319</name></trkpt>
<trkpt lat="53.102148" lon="05.981080"><ele>-4</ele><time>2021-05-12T13:22:18Z</time><name>PT8320</name></trkpt>
<trkpt lat="53.102150" lon="05.981062"><ele>-4.2</ele><time>2021-05-12T13:22:19Z</time><name>PT8321</name></trkpt>
<trkpt lat="53.102151" lon="05.981043"><ele>-4.3</ele><time>2021-05-12T13:22:20Z</time><name>PT8322</name></trkpt>
<trkpt lat="53.102151" lon="05.981023"><ele>-4.3</ele><time>2021-05-12T13:22:21Z</time><name>PT8323</name></trkpt>
<trkpt lat="53.102154" lon="05.981004"><ele>-4.3</ele><time>2021-05-12T13:22:22Z</time><name>PT8324</name></trkpt>
<trkpt lat="53.102157" lon="05.980984"><ele>-4.1</ele><time>2021-05-12T13:22:23Z</time><name>PT8325</name></trkpt>
<trkpt lat="53.102159" lon="05.980966"><ele>-4.1</ele><time>2021-05-12T13:22:24Z</time><name>PT8326</name></trkpt>
<trkpt lat="53.102161" lon="05.980946"><ele>-4</ele><time>2021-05-12T13:22:25Z</time><name>PT8327</name></trkpt>
<trkpt lat="53.102162" lon="05.980925"><ele>-4</ele><time>2021-05-12T13:22:26Z</time><name>PT8328</name></trkpt>
<trkpt lat="53.102163" lon="05.980904"><ele>-4.1</ele><time>2021-05-12T13:22:27Z</time><name>PT8329</name></trkpt>
<trkpt lat="53.102161" lon="05.980884"><ele>-4.1</ele><time>2021-05-12T13:22:28Z</time><name>PT8330</name></trkpt>
<trkpt lat="53.102162" lon="05.980865"><ele>-4.1</ele><time>2021-05-12T13:22:29Z</time><name>PT8331</name></trkpt>
<trkpt lat="53.102162" lon="05.980844"><ele>-4.2</ele><time>2021-05-12T13:22:30Z</time><name>PT8332</name></trkpt>
<trkpt lat="53.102164" lon="05.980824"><ele>-4.2</ele><time>2021-05-12T13:22:31Z</time><name>PT8333</name></trkpt>
<trkpt lat="53.102166" lon="05.980806"><ele>-4.3</ele><time>2021-05-12T13:22:32Z</time><name>PT8334</name></trkpt>
<trkpt lat="53.102169" lon="05.980787"><ele>-4.2</ele><time>2021-05-12T13:22:33Z</time><name>PT8335</name></trkpt>
<trkpt lat="53.102170" lon="05.980769"><ele>-4.4</ele><time>2021-05-12T13:22:34Z</time><name>PT8336</name></trkpt>
<trkpt lat="53.102171" lon="05.980751"><ele>-4.4</ele><time>2021-05-12T13:22:35Z</time><name>PT8337</name></trkpt>
<trkpt lat="53.102174" lon="05.980733"><ele>-4.4</ele><time>2021-05-12T13:22:36Z</time><name>PT8338</name></trkpt>
<trkpt lat="53.102176" lon="05.980713"><ele>-4.3</ele><time>2021-05-12T13:22:37Z</time><name>PT8339</name></trkpt>
<trkpt lat="53.102177" lon="05.980692"><ele>-4.2</ele><time>2021-05-12T13:22:38Z</time><name>PT8340</name></trkpt>
<trkpt lat="53.102178" lon="05.980673"><ele>-4.1</ele><time>2021-05-12T13:22:39Z</time><name>PT8341</name></trkpt>
<trkpt lat="53.102179" lon="05.980653"><ele>-4</ele><time>2021-05-12T13:22:40Z</time><name>PT8342</name></trkpt>
<trkpt lat="53.102179" lon="05.980634"><ele>-4.1</ele><time>2021-05-12T13:22:41Z</time><name>PT8343</name></trkpt>
<trkpt lat="53.102181" lon="05.980614"><ele>-4</ele><time>2021-05-12T13:22:42Z</time><name>PT8344</name></trkpt>
<trkpt lat="53.102184" lon="05.980593"><ele>-4.1</ele><time>2021-05-12T13:22:43Z</time><name>PT8345</name></trkpt>
<trkpt lat="53.102186" lon="05.980573"><ele>-4</ele><time>2021-05-12T13:22:44Z</time><name>PT8346</name></trkpt>
<trkpt lat="53.102189" lon="05.980553"><ele>-4.2</ele><time>2021-05-12T13:22:45Z</time><name>PT8347</name></trkpt>
<trkpt lat="53.102192" lon="05.980534"><ele>-4.3</ele><time>2021-05-12T13:22:46Z</time><name>PT8348</name></trkpt>
<trkpt lat="53.102194" lon="05.980516"><ele>-4.5</ele><time>2021-05-12T13:22:47Z</time><name>PT8349</name></trkpt>
<trkpt lat="53.102196" lon="05.980498"><ele>-4.5</ele><time>2021-05-12T13:22:48Z</time><name>PT8350</name></trkpt>
<trkpt lat="53.102195" lon="05.980481"><ele>-4.5</ele><time>2021-05-12T13:22:49Z</time><name>PT8351</name></trkpt>
<trkpt lat="53.102195" lon="05.980463"><ele>-4.5</ele><time>2021-05-12T13:22:50Z</time><name>PT8352</name></trkpt>
<trkpt lat="53.102195" lon="05.980444"><ele>-4.3</ele><time>2021-05-12T13:22:51Z</time><name>PT8353</name></trkpt>
<trkpt lat="53.102195" lon="05.980423"><ele>-4.1</ele><time>2021-05-12T13:22:52Z</time><name>PT8354</name></trkpt>
<trkpt lat="53.102197" lon="05.980403"><ele>-3.9</ele><time>2021-05-12T13:22:53Z</time><name>PT8355</name></trkpt>
<trkpt lat="53.102199" lon="05.980382"><ele>-3.7</ele><time>2021-05-12T13:22:54Z</time><name>PT8356</name></trkpt>
<trkpt lat="53.102202" lon="05.980361"><ele>-3.6</ele><time>2021-05-12T13:22:55Z</time><name>PT8357</name></trkpt>
<trkpt lat="53.102203" lon="05.980341"><ele>-3.7</ele><time>2021-05-12T13:22:56Z</time><name>PT8358</name></trkpt>
<trkpt lat="53.102204" lon="05.980322"><ele>-3.8</ele><time>2021-05-12T13:22:57Z</time><name>PT8359</name></trkpt>
<trkpt lat="53.102204" lon="05.980304"><ele>-4</ele><time>2021-05-12T13:22:58Z</time><name>PT8360</name></trkpt>
<trkpt lat="53.102205" lon="05.980284"><ele>-4.3</ele><time>2021-05-12T13:22:59Z</time><name>PT8361</name></trkpt>
<trkpt lat="53.102206" lon="05.980265"><ele>-4.1</ele><time>2021-05-12T13:23:00Z</time><name>PT8362</name></trkpt>
<trkpt lat="53.102207" lon="05.980245"><ele>-3.8</ele><time>2021-05-12T13:23:01Z</time><name>PT8363</name></trkpt>
<trkpt lat="53.102206" lon="05.980225"><ele>-3.7</ele><time>2021-05-12T13:23:02Z</time><name>PT8364</name></trkpt>
<trkpt lat="53.102205" lon="05.980206"><ele>-3.5</ele><time>2021-05-12T13:23:03Z</time><name>PT8365</name></trkpt>
<trkpt lat="53.102206" lon="05.980187"><ele>-3.1</ele><time>2021-05-12T13:23:04Z</time><name>PT8366</name></trkpt>
<trkpt lat="53.102208" lon="05.980168"><ele>-3.4</ele><time>2021-05-12T13:23:05Z</time><name>PT8367</name></trkpt>
<trkpt lat="53.102211" lon="05.980150"><ele>-3.9</ele><time>2021-05-12T13:23:06Z</time><name>PT8368</name></trkpt>
<trkpt lat="53.102213" lon="05.980133"><ele>-4</ele><time>2021-05-12T13:23:07Z</time><name>PT8369</name></trkpt>
<trkpt lat="53.102215" lon="05.980115"><ele>-4</ele><time>2021-05-12T13:23:08Z</time><name>PT8370</name></trkpt>
<trkpt lat="53.102216" lon="05.980094"><ele>-3.9</ele><time>2021-05-12T13:23:09Z</time><name>PT8371</name></trkpt>
<trkpt lat="53.102217" lon="05.980079"><ele>-3.6</ele><time>2021-05-12T13:23:10Z</time><name>PT8372</name></trkpt>
<trkpt lat="53.102217" lon="05.980063"><ele>-3.6</ele><time>2021-05-12T13:23:11Z</time><name>PT8373</name></trkpt>
<trkpt lat="53.102217" lon="05.980046"><ele>-3.1</ele><time>2021-05-12T13:23:12Z</time><name>PT8374</name></trkpt>
<trkpt lat="53.102218" lon="05.980028"><ele>-3.1</ele><time>2021-05-12T13:23:13Z</time><name>PT8375</name></trkpt>
<trkpt lat="53.102218" lon="05.980011"><ele>-3.1</ele><time>2021-05-12T13:23:14Z</time><name>PT8376</name></trkpt>
<trkpt lat="53.102221" lon="05.979992"><ele>-3.1</ele><time>2021-05-12T13:23:15Z</time><name>PT8377</name></trkpt>
<trkpt lat="53.102223" lon="05.979972"><ele>-3.2</ele><time>2021-05-12T13:23:16Z</time><name>PT8378</name></trkpt>
<trkpt lat="53.102225" lon="05.979954"><ele>-3.3</ele><time>2021-05-12T13:23:17Z</time><name>PT8379</name></trkpt>
<trkpt lat="53.102226" lon="05.979938"><ele>-3.3</ele><time>2021-05-12T13:23:18Z</time><name>PT8380</name></trkpt>
<trkpt lat="53.102226" lon="05.979920"><ele>-3.2</ele><time>2021-05-12T13:23:19Z</time><name>PT8381</name></trkpt>
<trkpt lat="53.102227" lon="05.979903"><ele>-3.3</ele><time>2021-05-12T13:23:20Z</time><name>PT8382</name></trkpt>
<trkpt lat="53.102228" lon="05.979886"><ele>-3.3</ele><time>2021-05-12T13:23:21Z</time><name>PT8383</name></trkpt>
<trkpt lat="53.102229" lon="05.979870"><ele>-3.4</ele><time>2021-05-12T13:23:22Z</time><name>PT8384</name></trkpt>
<trkpt lat="53.102229" lon="05.979850"><ele>-3.3</ele><time>2021-05-12T13:23:23Z</time><name>PT8385</name></trkpt>
<trkpt lat="53.102230" lon="05.979833"><ele>-3.5</ele><time>2021-05-12T13:23:24Z</time><name>PT8386</name></trkpt>
<trkpt lat="53.102233" lon="05.979813"><ele>-4.1</ele><time>2021-05-12T13:23:25Z</time><name>PT8387</name></trkpt>
<trkpt lat="53.102233" lon="05.979794"><ele>-4.4</ele><time>2021-05-12T13:23:26Z</time><name>PT8388</name></trkpt>
<trkpt lat="53.102233" lon="05.979774"><ele>-5.4</ele><time>2021-05-12T13:23:27Z</time><name>PT8389</name></trkpt>
<trkpt lat="53.102233" lon="05.979755"><ele>-5.9</ele><time>2021-05-12T13:23:28Z</time><name>PT8390</name></trkpt>
<trkpt lat="53.102232" lon="05.979736"><ele>-6.3</ele><time>2021-05-12T13:23:29Z</time><name>PT8391</name></trkpt>
<trkpt lat="53.102233" lon="05.979719"><ele>-5.6</ele><time>2021-05-12T13:23:30Z</time><name>PT8392</name></trkpt>
<trkpt lat="53.102238" lon="05.979706"><ele>-3.7</ele><time>2021-05-12T13:23:31Z</time><name>PT8393</name></trkpt>
<trkpt lat="53.102242" lon="05.979693"><ele>-2.9</ele><time>2021-05-12T13:23:32Z</time><name>PT8394</name></trkpt>
<trkpt lat="53.102243" lon="05.979676"><ele>-1.9</ele><time>2021-05-12T13:23:33Z</time><name>PT8395</name></trkpt>
<trkpt lat="53.102244" lon="05.979658"><ele>-1.1</ele><time>2021-05-12T13:23:34Z</time><name>PT8396</name></trkpt>
<trkpt lat="53.102245" lon="05.979641"><ele>-1.5</ele><time>2021-05-12T13:23:35Z</time><name>PT8397</name></trkpt>
<trkpt lat="53.102246" lon="05.979623"><ele>-2.6</ele><time>2021-05-12T13:23:36Z</time><name>PT8398</name></trkpt>
<trkpt lat="53.102248" lon="05.979603"><ele>-3.1</ele><time>2021-05-12T13:23:37Z</time><name>PT8399</name></trkpt>
<trkpt lat="53.102248" lon="05.979581"><ele>-3.4</ele><time>2021-05-12T13:23:38Z</time><name>PT8400</name></trkpt>
<trkpt lat="53.102248" lon="05.979559"><ele>-3.6</ele><time>2021-05-12T13:23:39Z</time><name>PT8401</name></trkpt>
<trkpt lat="53.102248" lon="05.979541"><ele>-3.6</ele><time>2021-05-12T13:23:40Z</time><name>PT8402</name></trkpt>
<trkpt lat="53.102251" lon="05.979521"><ele>-3.6</ele><time>2021-05-12T13:23:41Z</time><name>PT8403</name></trkpt>
<trkpt lat="53.102253" lon="05.979500"><ele>-3.8</ele><time>2021-05-12T13:23:42Z</time><name>PT8404</name></trkpt>
<trkpt lat="53.102256" lon="05.979480"><ele>-3.9</ele><time>2021-05-12T13:23:43Z</time><name>PT8405</name></trkpt>
<trkpt lat="53.102259" lon="05.979460"><ele>-4</ele><time>2021-05-12T13:23:44Z</time><name>PT8406</name></trkpt>
<trkpt lat="53.102260" lon="05.979441"><ele>-4.1</ele><time>2021-05-12T13:23:45Z</time><name>PT8407</name></trkpt>
<trkpt lat="53.102262" lon="05.979421"><ele>-4.1</ele><time>2021-05-12T13:23:46Z</time><name>PT8408</name></trkpt>
<trkpt lat="53.102262" lon="05.979400"><ele>-4.1</ele><time>2021-05-12T13:23:47Z</time><name>PT8409</name></trkpt>
<trkpt lat="53.102263" lon="05.979378"><ele>-4</ele><time>2021-05-12T13:23:48Z</time><name>PT8410</name></trkpt>
<trkpt lat="53.102266" lon="05.979358"><ele>-3.7</ele><time>2021-05-12T13:23:49Z</time><name>PT8411</name></trkpt>
<trkpt lat="53.102267" lon="05.979338"><ele>-3.7</ele><time>2021-05-12T13:23:50Z</time><name>PT8412</name></trkpt>
<trkpt lat="53.102267" lon="05.979317"><ele>-3.7</ele><time>2021-05-12T13:23:51Z</time><name>PT8413</name></trkpt>
<trkpt lat="53.102267" lon="05.979296"><ele>-3.7</ele><time>2021-05-12T13:23:52Z</time><name>PT8414</name></trkpt>
<trkpt lat="53.102268" lon="05.979273"><ele>-3.7</ele><time>2021-05-12T13:23:53Z</time><name>PT8415</name></trkpt>
<trkpt lat="53.102268" lon="05.979251"><ele>-3.8</ele><time>2021-05-12T13:23:54Z</time><name>PT8416</name></trkpt>
<trkpt lat="53.102269" lon="05.979231"><ele>-3.7</ele><time>2021-05-12T13:23:55Z</time><name>PT8417</name></trkpt>
<trkpt lat="53.102273" lon="05.979211"><ele>-3.7</ele><time>2021-05-12T13:23:56Z</time><name>PT8418</name></trkpt>
<trkpt lat="53.102276" lon="05.979191"><ele>-3.6</ele><time>2021-05-12T13:23:57Z</time><name>PT8419</name></trkpt>
<trkpt lat="53.102278" lon="05.979170"><ele>-3.5</ele><time>2021-05-12T13:23:58Z</time><name>PT8420</name></trkpt>
<trkpt lat="53.102280" lon="05.979150"><ele>-3.6</ele><time>2021-05-12T13:23:59Z</time><name>PT8421</name></trkpt>
<trkpt lat="53.102282" lon="05.979130"><ele>-3.4</ele><time>2021-05-12T13:24:00Z</time><name>PT8422</name></trkpt>
<trkpt lat="53.102285" lon="05.979109"><ele>-3.6</ele><time>2021-05-12T13:24:01Z</time><name>PT8423</name></trkpt>
<trkpt lat="53.102288" lon="05.979090"><ele>-3.5</ele><time>2021-05-12T13:24:02Z</time><name>PT8424</name></trkpt>
<trkpt lat="53.102290" lon="05.979071"><ele>-3.4</ele><time>2021-05-12T13:24:03Z</time><name>PT8425</name></trkpt>
<trkpt lat="53.102291" lon="05.979052"><ele>-3.3</ele><time>2021-05-12T13:24:04Z</time><name>PT8426</name></trkpt>
<trkpt lat="53.102292" lon="05.979033"><ele>-3.2</ele><time>2021-05-12T13:24:05Z</time><name>PT8427</name></trkpt>
<trkpt lat="53.102292" lon="05.979013"><ele>-3.2</ele><time>2021-05-12T13:24:06Z</time><name>PT8428</name></trkpt>
<trkpt lat="53.102294" lon="05.978995"><ele>-3.3</ele><time>2021-05-12T13:24:07Z</time><name>PT8429</name></trkpt>
<trkpt lat="53.102297" lon="05.978975"><ele>-3.4</ele><time>2021-05-12T13:24:08Z</time><name>PT8430</name></trkpt>
<trkpt lat="53.102300" lon="05.978953"><ele>-3.6</ele><time>2021-05-12T13:24:09Z</time><name>PT8431</name></trkpt>
<trkpt lat="53.102302" lon="05.978932"><ele>-3.6</ele><time>2021-05-12T13:24:10Z</time><name>PT8432</name></trkpt>
<trkpt lat="53.102304" lon="05.978912"><ele>-3.6</ele><time>2021-05-12T13:24:11Z</time><name>PT8433</name></trkpt>
<trkpt lat="53.102307" lon="05.978892"><ele>-3.4</ele><time>2021-05-12T13:24:12Z</time><name>PT8434</name></trkpt>
<trkpt lat="53.102309" lon="05.978872"><ele>-3.6</ele><time>2021-05-12T13:24:13Z</time><name>PT8435</name></trkpt>
<trkpt lat="53.102310" lon="05.978854"><ele>-3.5</ele><time>2021-05-12T13:24:14Z</time><name>PT8436</name></trkpt>
<trkpt lat="53.102311" lon="05.978836"><ele>-3.6</ele><time>2021-05-12T13:24:15Z</time><name>PT8437</name></trkpt>
<trkpt lat="53.102312" lon="05.978816"><ele>-3.5</ele><time>2021-05-12T13:24:16Z</time><name>PT8438</name></trkpt>
<trkpt lat="53.102315" lon="05.978795"><ele>-3.5</ele><time>2021-05-12T13:24:17Z</time><name>PT8439</name></trkpt>
<trkpt lat="53.102317" lon="05.978774"><ele>-3.5</ele><time>2021-05-12T13:24:18Z</time><name>PT8440</name></trkpt>
<trkpt lat="53.102317" lon="05.978753"><ele>-3.5</ele><time>2021-05-12T13:24:19Z</time><name>PT8441</name></trkpt>
<trkpt lat="53.102317" lon="05.978732"><ele>-3.5</ele><time>2021-05-12T13:24:20Z</time><name>PT8442</name></trkpt>
<trkpt lat="53.102317" lon="05.978712"><ele>-3.5</ele><time>2021-05-12T13:24:21Z</time><name>PT8443</name></trkpt>
<trkpt lat="53.102319" lon="05.978691"><ele>-3.4</ele><time>2021-05-12T13:24:22Z</time><name>PT8444</name></trkpt>
<trkpt lat="53.102322" lon="05.978671"><ele>-3.5</ele><time>2021-05-12T13:24:23Z</time><name>PT8445</name></trkpt>
<trkpt lat="53.102325" lon="05.978651"><ele>-3.6</ele><time>2021-05-12T13:24:24Z</time><name>PT8446</name></trkpt>
<trkpt lat="53.102327" lon="05.978633"><ele>-3.8</ele><time>2021-05-12T13:24:25Z</time><name>PT8447</name></trkpt>
<trkpt lat="53.102329" lon="05.978614"><ele>-3.8</ele><time>2021-05-12T13:24:26Z</time><name>PT8448</name></trkpt>
<trkpt lat="53.102330" lon="05.978595"><ele>-3.9</ele><time>2021-05-12T13:24:27Z</time><name>PT8449</name></trkpt>
<trkpt lat="53.102331" lon="05.978575"><ele>-3.7</ele><time>2021-05-12T13:24:28Z</time><name>PT8450</name></trkpt>
<trkpt lat="53.102332" lon="05.978555"><ele>-3.7</ele><time>2021-05-12T13:24:29Z</time><name>PT8451</name></trkpt>
<trkpt lat="53.102333" lon="05.978534"><ele>-3.7</ele><time>2021-05-12T13:24:30Z</time><name>PT8452</name></trkpt>
<trkpt lat="53.102333" lon="05.978514"><ele>-3.6</ele><time>2021-05-12T13:24:31Z</time><name>PT8453</name></trkpt>
<trkpt lat="53.102334" lon="05.978497"><ele>-3.6</ele><time>2021-05-12T13:24:32Z</time><name>PT8454</name></trkpt>
<trkpt lat="53.102336" lon="05.978479"><ele>-3.6</ele><time>2021-05-12T13:24:33Z</time><name>PT8455</name></trkpt>
<trkpt lat="53.102339" lon="05.978459"><ele>-3.7</ele><time>2021-05-12T13:24:34Z</time><name>PT8456</name></trkpt>
<trkpt lat="53.102341" lon="05.978440"><ele>-3.7</ele><time>2021-05-12T13:24:35Z</time><name>PT8457</name></trkpt>
<trkpt lat="53.102344" lon="05.978421"><ele>-4</ele><time>2021-05-12T13:24:36Z</time><name>PT8458</name></trkpt>
<trkpt lat="53.102346" lon="05.978401"><ele>-4</ele><time>2021-05-12T13:24:37Z</time><name>PT8459</name></trkpt>
<trkpt lat="53.102348" lon="05.978383"><ele>-4</ele><time>2021-05-12T13:24:38Z</time><name>PT8460</name></trkpt>
<trkpt lat="53.102350" lon="05.978365"><ele>-4.1</ele><time>2021-05-12T13:24:39Z</time><name>PT8461</name></trkpt>
<trkpt lat="53.102352" lon="05.978347"><ele>-3.9</ele><time>2021-05-12T13:24:40Z</time><name>PT8462</name></trkpt>
<trkpt lat="53.102353" lon="05.978329"><ele>-3.7</ele><time>2021-05-12T13:24:41Z</time><name>PT8463</name></trkpt>
<trkpt lat="53.102353" lon="05.978310"><ele>-3.5</ele><time>2021-05-12T13:24:42Z</time><name>PT8464</name></trkpt>
<trkpt lat="53.102352" lon="05.978291"><ele>-3.5</ele><time>2021-05-12T13:24:43Z</time><name>PT8465</name></trkpt>
<trkpt lat="53.102354" lon="05.978271"><ele>-3.5</ele><time>2021-05-12T13:24:44Z</time><name>PT8466</name></trkpt>
<trkpt lat="53.102357" lon="05.978251"><ele>-3.6</ele><time>2021-05-12T13:24:45Z</time><name>PT8467</name></trkpt>
<trkpt lat="53.102359" lon="05.978231"><ele>-3.7</ele><time>2021-05-12T13:24:46Z</time><name>PT8468</name></trkpt>
<trkpt lat="53.102363" lon="05.978215"><ele>-3.8</ele><time>2021-05-12T13:24:47Z</time><name>PT8469</name></trkpt>
<trkpt lat="53.102366" lon="05.978195"><ele>-3.9</ele><time>2021-05-12T13:24:48Z</time><name>PT8470</name></trkpt>
<trkpt lat="53.102368" lon="05.978176"><ele>-4</ele><time>2021-05-12T13:24:49Z</time><name>PT8471</name></trkpt>
<trkpt lat="53.102370" lon="05.978157"><ele>-4</ele><time>2021-05-12T13:24:50Z</time><name>PT8472</name></trkpt>
<trkpt lat="53.102373" lon="05.978138"><ele>-4</ele><time>2021-05-12T13:24:51Z</time><name>PT8473</name></trkpt>
<trkpt lat="53.102375" lon="05.978120"><ele>-4</ele><time>2021-05-12T13:24:52Z</time><name>PT8474</name></trkpt>
<trkpt lat="53.102376" lon="05.978099"><ele>-4</ele><time>2021-05-12T13:24:53Z</time><name>PT8475</name></trkpt>
<trkpt lat="53.102377" lon="05.978079"><ele>-4</ele><time>2021-05-12T13:24:54Z</time><name>PT8476</name></trkpt>
<trkpt lat="53.102378" lon="05.978059"><ele>-3.9</ele><time>2021-05-12T13:24:55Z</time><name>PT8477</name></trkpt>
<trkpt lat="53.102378" lon="05.978041"><ele>-3.9</ele><time>2021-05-12T13:24:56Z</time><name>PT8478</name></trkpt>
<trkpt lat="53.102379" lon="05.978025"><ele>-3.6</ele><time>2021-05-12T13:24:57Z</time><name>PT8479</name></trkpt>
<trkpt lat="53.102381" lon="05.978006"><ele>-3.7</ele><time>2021-05-12T13:24:58Z</time><name>PT8480</name></trkpt>
<trkpt lat="53.102383" lon="05.977986"><ele>-3.6</ele><time>2021-05-12T13:24:59Z</time><name>PT8481</name></trkpt>
<trkpt lat="53.102386" lon="05.977965"><ele>-3.7</ele><time>2021-05-12T13:25:00Z</time><name>PT8482</name></trkpt>
<trkpt lat="53.102389" lon="05.977945"><ele>-3.8</ele><time>2021-05-12T13:25:01Z</time><name>PT8483</name></trkpt>
<trkpt lat="53.102391" lon="05.977926"><ele>-3.8</ele><time>2021-05-12T13:25:02Z</time><name>PT8484</name></trkpt>
<trkpt lat="53.102391" lon="05.977909"><ele>-3.6</ele><time>2021-05-12T13:25:03Z</time><name>PT8485</name></trkpt>
<trkpt lat="53.102392" lon="05.977890"><ele>-3.6</ele><time>2021-05-12T13:25:04Z</time><name>PT8486</name></trkpt>
<trkpt lat="53.102393" lon="05.977870"><ele>-3.5</ele><time>2021-05-12T13:25:05Z</time><name>PT8487</name></trkpt>
<trkpt lat="53.102392" lon="05.977849"><ele>-3.3</ele><time>2021-05-12T13:25:06Z</time><name>PT8488</name></trkpt>
<trkpt lat="53.102392" lon="05.977830"><ele>-3.2</ele><time>2021-05-12T13:25:07Z</time><name>PT8489</name></trkpt>
<trkpt lat="53.102394" lon="05.977812"><ele>-3.1</ele><time>2021-05-12T13:25:08Z</time><name>PT8490</name></trkpt>
<trkpt lat="53.102395" lon="05.977793"><ele>-3.1</ele><time>2021-05-12T13:25:09Z</time><name>PT8491</name></trkpt>
<trkpt lat="53.102398" lon="05.977775"><ele>-3.1</ele><time>2021-05-12T13:25:10Z</time><name>PT8492</name></trkpt>
<trkpt lat="53.102400" lon="05.977758"><ele>-3</ele><time>2021-05-12T13:25:11Z</time><name>PT8493</name></trkpt>
<trkpt lat="53.102403" lon="05.977739"><ele>-2.9</ele><time>2021-05-12T13:25:12Z</time><name>PT8494</name></trkpt>
<trkpt lat="53.102403" lon="05.977720"><ele>-2.7</ele><time>2021-05-12T13:25:13Z</time><name>PT8495</name></trkpt>
<trkpt lat="53.102404" lon="05.977701"><ele>-2.6</ele><time>2021-05-12T13:25:14Z</time><name>PT8496</name></trkpt>
<trkpt lat="53.102405" lon="05.977681"><ele>-2.6</ele><time>2021-05-12T13:25:15Z</time><name>PT8497</name></trkpt>
<trkpt lat="53.102406" lon="05.977662"><ele>-2.6</ele><time>2021-05-12T13:25:16Z</time><name>PT8498</name></trkpt>
<trkpt lat="53.102407" lon="05.977643"><ele>-2.6</ele><time>2021-05-12T13:25:17Z</time><name>PT8499</name></trkpt>
<trkpt lat="53.102409" lon="05.977624"><ele>-2.8</ele><time>2021-05-12T13:25:18Z</time><name>PT8500</name></trkpt>
<trkpt lat="53.102411" lon="05.977605"><ele>-2.7</ele><time>2021-05-12T13:25:19Z</time><name>PT8501</name></trkpt>
<trkpt lat="53.102413" lon="05.977587"><ele>-2.7</ele><time>2021-05-12T13:25:20Z</time><name>PT8502</name></trkpt>
<trkpt lat="53.102412" lon="05.977569"><ele>-2.7</ele><time>2021-05-12T13:25:21Z</time><name>PT8503</name></trkpt>
<trkpt lat="53.102412" lon="05.977551"><ele>-2.7</ele><time>2021-05-12T13:25:22Z</time><name>PT8504</name></trkpt>
<trkpt lat="53.102412" lon="05.977536"><ele>-2.7</ele><time>2021-05-12T13:25:23Z</time><name>PT8505</name></trkpt>
<trkpt lat="53.102414" lon="05.977520"><ele>-2.8</ele><time>2021-05-12T13:25:24Z</time><name>PT8506</name></trkpt>
<trkpt lat="53.102416" lon="05.977501"><ele>-2.9</ele><time>2021-05-12T13:25:25Z</time><name>PT8507</name></trkpt>
<trkpt lat="53.102418" lon="05.977482"><ele>-3</ele><time>2021-05-12T13:25:26Z</time><name>PT8508</name></trkpt>
<trkpt lat="53.102419" lon="05.977465"><ele>-2.9</ele><time>2021-05-12T13:25:27Z</time><name>PT8509</name></trkpt>
<trkpt lat="53.102421" lon="05.977447"><ele>-2.9</ele><time>2021-05-12T13:25:28Z</time><name>PT8510</name></trkpt>
<trkpt lat="53.102424" lon="05.977428"><ele>-3</ele><time>2021-05-12T13:25:29Z</time><name>PT8511</name></trkpt>
<trkpt lat="53.102425" lon="05.977408"><ele>-3.1</ele><time>2021-05-12T13:25:30Z</time><name>PT8512</name></trkpt>
<trkpt lat="53.102426" lon="05.977388"><ele>-3.1</ele><time>2021-05-12T13:25:31Z</time><name>PT8513</name></trkpt>
<trkpt lat="53.102429" lon="05.977368"><ele>-3.1</ele><time>2021-05-12T13:25:32Z</time><name>PT8514</name></trkpt>
<trkpt lat="53.102431" lon="05.977347"><ele>-3.1</ele><time>2021-05-12T13:25:33Z</time><name>PT8515</name></trkpt>
<trkpt lat="53.102433" lon="05.977328"><ele>-3.1</ele><time>2021-05-12T13:25:34Z</time><name>PT8516</name></trkpt>
<trkpt lat="53.102434" lon="05.977310"><ele>-3.1</ele><time>2021-05-12T13:25:35Z</time><name>PT8517</name></trkpt>
<trkpt lat="53.102435" lon="05.977290"><ele>-3</ele><time>2021-05-12T13:25:36Z</time><name>PT8518</name></trkpt>
<trkpt lat="53.102435" lon="05.977272"><ele>-3.1</ele><time>2021-05-12T13:25:37Z</time><name>PT8519</name></trkpt>
<trkpt lat="53.102434" lon="05.977254"><ele>-3.1</ele><time>2021-05-12T13:25:38Z</time><name>PT8520</name></trkpt>
<trkpt lat="53.102435" lon="05.977237"><ele>-3.1</ele><time>2021-05-12T13:25:39Z</time><name>PT8521</name></trkpt>
<trkpt lat="53.102437" lon="05.977219"><ele>-3.2</ele><time>2021-05-12T13:25:40Z</time><name>PT8522</name></trkpt>
<trkpt lat="53.102440" lon="05.977199"><ele>-3.4</ele><time>2021-05-12T13:25:41Z</time><name>PT8523</name></trkpt>
<trkpt lat="53.102442" lon="05.977181"><ele>-3.4</ele><time>2021-05-12T13:25:42Z</time><name>PT8524</name></trkpt>
<trkpt lat="53.102444" lon="05.977164"><ele>-3.4</ele><time>2021-05-12T13:25:43Z</time><name>PT8525</name></trkpt>
<trkpt lat="53.102443" lon="05.977148"><ele>-3.2</ele><time>2021-05-12T13:25:44Z</time><name>PT8526</name></trkpt>
<trkpt lat="53.102444" lon="05.977129"><ele>-3.2</ele><time>2021-05-12T13:25:45Z</time><name>PT8527</name></trkpt>
<trkpt lat="53.102445" lon="05.977112"><ele>-3.4</ele><time>2021-05-12T13:25:46Z</time><name>PT8528</name></trkpt>
<trkpt lat="53.102445" lon="05.977094"><ele>-3.4</ele><time>2021-05-12T13:25:47Z</time><name>PT8529</name></trkpt>
<trkpt lat="53.102448" lon="05.977076"><ele>-3.5</ele><time>2021-05-12T13:25:48Z</time><name>PT8530</name></trkpt>
<trkpt lat="53.102450" lon="05.977059"><ele>-3.6</ele><time>2021-05-12T13:25:49Z</time><name>PT8531</name></trkpt>
<trkpt lat="53.102451" lon="05.977041"><ele>-3.6</ele><time>2021-05-12T13:25:50Z</time><name>PT8532</name></trkpt>
<trkpt lat="53.102451" lon="05.977024"><ele>-3.4</ele><time>2021-05-12T13:25:51Z</time><name>PT8533</name></trkpt>
<trkpt lat="53.102452" lon="05.977005"><ele>-3.4</ele><time>2021-05-12T13:25:52Z</time><name>PT8534</name></trkpt>
<trkpt lat="53.102452" lon="05.976987"><ele>-3.4</ele><time>2021-05-12T13:25:53Z</time><name>PT8535</name></trkpt>
<trkpt lat="53.102453" lon="05.976970"><ele>-3.4</ele><time>2021-05-12T13:25:54Z</time><name>PT8536</name></trkpt>
<trkpt lat="53.102453" lon="05.976951"><ele>-3.6</ele><time>2021-05-12T13:25:55Z</time><name>PT8537</name></trkpt>
<trkpt lat="53.102454" lon="05.976930"><ele>-3.6</ele><time>2021-05-12T13:25:56Z</time><name>PT8538</name></trkpt>
<trkpt lat="53.102456" lon="05.976911"><ele>-3.6</ele><time>2021-05-12T13:25:57Z</time><name>PT8539</name></trkpt>
<trkpt lat="53.102458" lon="05.976894"><ele>-3.6</ele><time>2021-05-12T13:25:58Z</time><name>PT8540</name></trkpt>
<trkpt lat="53.102458" lon="05.976875"><ele>-3.5</ele><time>2021-05-12T13:25:59Z</time><name>PT8541</name></trkpt>
<trkpt lat="53.102458" lon="05.976854"><ele>-3.3</ele><time>2021-05-12T13:26:00Z</time><name>PT8542</name></trkpt>
<trkpt lat="53.102457" lon="05.976838"><ele>-3.4</ele><time>2021-05-12T13:26:01Z</time><name>PT8543</name></trkpt>
<trkpt lat="53.102457" lon="05.976824"><ele>-3.4</ele><time>2021-05-12T13:26:02Z</time><name>PT8544</name></trkpt>
<trkpt lat="53.102458" lon="05.976807"><ele>-3.3</ele><time>2021-05-12T13:26:03Z</time><name>PT8545</name></trkpt>
<trkpt lat="53.102458" lon="05.976790"><ele>-3.4</ele><time>2021-05-12T13:26:04Z</time><name>PT8546</name></trkpt>
<trkpt lat="53.102457" lon="05.976773"><ele>-3.3</ele><time>2021-05-12T13:26:05Z</time><name>PT8547</name></trkpt>
<trkpt lat="53.102455" lon="05.976755"><ele>-3.4</ele><time>2021-05-12T13:26:06Z</time><name>PT8548</name></trkpt>
<trkpt lat="53.102454" lon="05.976740"><ele>-3.2</ele><time>2021-05-12T13:26:07Z</time><name>PT8549</name></trkpt>
<trkpt lat="53.102453" lon="05.976726"><ele>-3.2</ele><time>2021-05-12T13:26:08Z</time><name>PT8550</name></trkpt>
<trkpt lat="53.102453" lon="05.976708"><ele>-3.2</ele><time>2021-05-12T13:26:09Z</time><name>PT8551</name></trkpt>
<trkpt lat="53.102453" lon="05.976691"><ele>-3.3</ele><time>2021-05-12T13:26:10Z</time><name>PT8552</name></trkpt>
<trkpt lat="53.102450" lon="05.976672"><ele>-3.2</ele><time>2021-05-12T13:26:11Z</time><name>PT8553</name></trkpt>
<trkpt lat="53.102448" lon="05.976652"><ele>-3.2</ele><time>2021-05-12T13:26:12Z</time><name>PT8554</name></trkpt>
<trkpt lat="53.102444" lon="05.976634"><ele>-3.3</ele><time>2021-05-12T13:26:13Z</time><name>PT8555</name></trkpt>
<trkpt lat="53.102441" lon="05.976614"><ele>-3.4</ele><time>2021-05-12T13:26:14Z</time><name>PT8556</name></trkpt>
<trkpt lat="53.102440" lon="05.976595"><ele>-3.2</ele><time>2021-05-12T13:26:15Z</time><name>PT8557</name></trkpt>
<trkpt lat="53.102440" lon="05.976577"><ele>-3.1</ele><time>2021-05-12T13:26:16Z</time><name>PT8558</name></trkpt>
<trkpt lat="53.102440" lon="05.976559"><ele>-3.1</ele><time>2021-05-12T13:26:17Z</time><name>PT8559</name></trkpt>
<trkpt lat="53.102441" lon="05.976541"><ele>-3.1</ele><time>2021-05-12T13:26:18Z</time><name>PT8560</name></trkpt>
<trkpt lat="53.102440" lon="05.976525"><ele>-3.1</ele><time>2021-05-12T13:26:19Z</time><name>PT8561</name></trkpt>
<trkpt lat="53.102439" lon="05.976509"><ele>-3.3</ele><time>2021-05-12T13:26:20Z</time><name>PT8562</name></trkpt>
<trkpt lat="53.102434" lon="05.976494"><ele>-3.5</ele><time>2021-05-12T13:26:21Z</time><name>PT8563</name></trkpt>
<trkpt lat="53.102431" lon="05.976477"><ele>-3.4</ele><time>2021-05-12T13:26:22Z</time><name>PT8564</name></trkpt>
<trkpt lat="53.102427" lon="05.976459"><ele>-3.3</ele><time>2021-05-12T13:26:23Z</time><name>PT8565</name></trkpt>
<trkpt lat="53.102423" lon="05.976441"><ele>-3.6</ele><time>2021-05-12T13:26:24Z</time><name>PT8566</name></trkpt>
<trkpt lat="53.102421" lon="05.976423"><ele>-3.6</ele><time>2021-05-12T13:26:25Z</time><name>PT8567</name></trkpt>
<trkpt lat="53.102419" lon="05.976406"><ele>-3.7</ele><time>2021-05-12T13:26:26Z</time><name>PT8568</name></trkpt>
<trkpt lat="53.102417" lon="05.976388"><ele>-3.8</ele><time>2021-05-12T13:26:27Z</time><name>PT8569</name></trkpt>
<trkpt lat="53.102413" lon="05.976370"><ele>-4</ele><time>2021-05-12T13:26:28Z</time><name>PT8570</name></trkpt>
<trkpt lat="53.102408" lon="05.976352"><ele>-3.9</ele><time>2021-05-12T13:26:29Z</time><name>PT8571</name></trkpt>
<trkpt lat="53.102403" lon="05.976333"><ele>-3.8</ele><time>2021-05-12T13:26:30Z</time><name>PT8572</name></trkpt>
<trkpt lat="53.102401" lon="05.976316"><ele>-3.9</ele><time>2021-05-12T13:26:31Z</time><name>PT8573</name></trkpt>
<trkpt lat="53.102401" lon="05.976299"><ele>-3.9</ele><time>2021-05-12T13:26:32Z</time><name>PT8574</name></trkpt>
<trkpt lat="53.102402" lon="05.976281"><ele>-4</ele><time>2021-05-12T13:26:33Z</time><name>PT8575</name></trkpt>
<trkpt lat="53.102402" lon="05.976266"><ele>-4</ele><time>2021-05-12T13:26:34Z</time><name>PT8576</name></trkpt>
<trkpt lat="53.102403" lon="05.976250"><ele>-4</ele><time>2021-05-12T13:26:35Z</time><name>PT8577</name></trkpt>
<trkpt lat="53.102403" lon="05.976232"><ele>-4</ele><time>2021-05-12T13:26:36Z</time><name>PT8578</name></trkpt>
<trkpt lat="53.102402" lon="05.976213"><ele>-4.1</ele><time>2021-05-12T13:26:37Z</time><name>PT8579</name></trkpt>
<trkpt lat="53.102402" lon="05.976195"><ele>-4.2</ele><time>2021-05-12T13:26:38Z</time><name>PT8580</name></trkpt>
<trkpt lat="53.102403" lon="05.976180"><ele>-4.2</ele><time>2021-05-12T13:26:39Z</time><name>PT8581</name></trkpt>
<trkpt lat="53.102406" lon="05.976163"><ele>-4.3</ele><time>2021-05-12T13:26:40Z</time><name>PT8582</name></trkpt>
<trkpt lat="53.102411" lon="05.976147"><ele>-4.3</ele><time>2021-05-12T13:26:41Z</time><name>PT8583</name></trkpt>
<trkpt lat="53.102414" lon="05.976131"><ele>-4.3</ele><time>2021-05-12T13:26:42Z</time><name>PT8584</name></trkpt>
<trkpt lat="53.102417" lon="05.976114"><ele>-4.2</ele><time>2021-05-12T13:26:43Z</time><name>PT8585</name></trkpt>
<trkpt lat="53.102420" lon="05.976095"><ele>-4.1</ele><time>2021-05-12T13:26:44Z</time><name>PT8586</name></trkpt>
<trkpt lat="53.102423" lon="05.976080"><ele>-4</ele><time>2021-05-12T13:26:45Z</time><name>PT8587</name></trkpt>
<trkpt lat="53.102428" lon="05.976065"><ele>-4</ele><time>2021-05-12T13:26:46Z</time><name>PT8588</name></trkpt>
<trkpt lat="53.102433" lon="05.976049"><ele>-3.9</ele><time>2021-05-12T13:26:47Z</time><name>PT8589</name></trkpt>
<trkpt lat="53.102439" lon="05.976033"><ele>-3.8</ele><time>2021-05-12T13:26:48Z</time><name>PT8590</name></trkpt>
<trkpt lat="53.102445" lon="05.976017"><ele>-3.8</ele><time>2021-05-12T13:26:49Z</time><name>PT8591</name></trkpt>
<trkpt lat="53.102450" lon="05.976002"><ele>-3.7</ele><time>2021-05-12T13:26:50Z</time><name>PT8592</name></trkpt>
<trkpt lat="53.102456" lon="05.975984"><ele>-3.6</ele><time>2021-05-12T13:26:51Z</time><name>PT8593</name></trkpt>
<trkpt lat="53.102460" lon="05.975968"><ele>-3.8</ele><time>2021-05-12T13:26:52Z</time><name>PT8594</name></trkpt>
<trkpt lat="53.102465" lon="05.975951"><ele>-3.8</ele><time>2021-05-12T13:26:53Z</time><name>PT8595</name></trkpt>
<trkpt lat="53.102470" lon="05.975933"><ele>-3.8</ele><time>2021-05-12T13:26:54Z</time><name>PT8596</name></trkpt>
<trkpt lat="53.102476" lon="05.975917"><ele>-4.1</ele><time>2021-05-12T13:26:55Z</time><name>PT8597</name></trkpt>
<trkpt lat="53.102482" lon="05.975903"><ele>-4.2</ele><time>2021-05-12T13:26:56Z</time><name>PT8598</name></trkpt>
<trkpt lat="53.102486" lon="05.975890"><ele>-4</ele><time>2021-05-12T13:26:57Z</time><name>PT8599</name></trkpt>
<trkpt lat="53.102488" lon="05.975879"><ele>-4.1</ele><time>2021-05-12T13:26:58Z</time><name>PT8600</name></trkpt>
<trkpt lat="53.102492" lon="05.975868"><ele>-4.1</ele><time>2021-05-12T13:26:59Z</time><name>PT8601</name></trkpt>
<trkpt lat="53.102496" lon="05.975857"><ele>-3.8</ele><time>2021-05-12T13:27:00Z</time><name>PT8602</name></trkpt>
<trkpt lat="53.102498" lon="05.975845"><ele>-3.7</ele><time>2021-05-12T13:27:01Z</time><name>PT8603</name></trkpt>
<trkpt lat="53.102501" lon="05.975834"><ele>-3.6</ele><time>2021-05-12T13:27:02Z</time><name>PT8604</name></trkpt>
<trkpt lat="53.102504" lon="05.975825"><ele>-3.6</ele><time>2021-05-12T13:27:03Z</time><name>PT8605</name></trkpt>
<trkpt lat="53.102507" lon="05.975816"><ele>-3.6</ele><time>2021-05-12T13:27:04Z</time><name>PT8606</name></trkpt>
<trkpt lat="53.102512" lon="05.975804"><ele>-3.6</ele><time>2021-05-12T13:27:05Z</time><name>PT8607</name></trkpt>
<trkpt lat="53.102516" lon="05.975786"><ele>-3.8</ele><time>2021-05-12T13:27:06Z</time><name>PT8608</name></trkpt>
<trkpt lat="53.102519" lon="05.975768"><ele>-3.6</ele><time>2021-05-12T13:27:07Z</time><name>PT8609</name></trkpt>
<trkpt lat="53.102527" lon="05.975750"><ele>-3.6</ele><time>2021-05-12T13:27:08Z</time><name>PT8610</name></trkpt>
<trkpt lat="53.102530" lon="05.975734"><ele>-3.6</ele><time>2021-05-12T13:27:09Z</time><name>PT8611</name></trkpt>
<trkpt lat="53.102533" lon="05.975718"><ele>-3.7</ele><time>2021-05-12T13:27:10Z</time><name>PT8612</name></trkpt>
<trkpt lat="53.102537" lon="05.975700"><ele>-3.7</ele><time>2021-05-12T13:27:11Z</time><name>PT8613</name></trkpt>
<trkpt lat="53.102542" lon="05.975683"><ele>-3.9</ele><time>2021-05-12T13:27:12Z</time><name>PT8614</name></trkpt>
<trkpt lat="53.102545" lon="05.975664"><ele>-3.9</ele><time>2021-05-12T13:27:13Z</time><name>PT8615</name></trkpt>
<trkpt lat="53.102548" lon="05.975643"><ele>-3.9</ele><time>2021-05-12T13:27:14Z</time><name>PT8616</name></trkpt>
<trkpt lat="53.102550" lon="05.975621"><ele>-3.7</ele><time>2021-05-12T13:27:15Z</time><name>PT8617</name></trkpt>
<trkpt lat="53.102551" lon="05.975603"><ele>-3.7</ele><time>2021-05-12T13:27:16Z</time><name>PT8618</name></trkpt>
<trkpt lat="53.102552" lon="05.975585"><ele>-3.6</ele><time>2021-05-12T13:27:17Z</time><name>PT8619</name></trkpt>
<trkpt lat="53.102553" lon="05.975566"><ele>-3.6</ele><time>2021-05-12T13:27:18Z</time><name>PT8620</name></trkpt>
<trkpt lat="53.102556" lon="05.975547"><ele>-3.5</ele><time>2021-05-12T13:27:19Z</time><name>PT8621</name></trkpt>
<trkpt lat="53.102558" lon="05.975529"><ele>-3.6</ele><time>2021-05-12T13:27:20Z</time><name>PT8622</name></trkpt>
<trkpt lat="53.102561" lon="05.975511"><ele>-3.6</ele><time>2021-05-12T13:27:21Z</time><name>PT8623</name></trkpt>
<trkpt lat="53.102562" lon="05.975495"><ele>-3.7</ele><time>2021-05-12T13:27:22Z</time><name>PT8624</name></trkpt>
<trkpt lat="53.102564" lon="05.975478"><ele>-3.5</ele><time>2021-05-12T13:27:23Z</time><name>PT8625</name></trkpt>
<trkpt lat="53.102567" lon="05.975460"><ele>-3.6</ele><time>2021-05-12T13:27:24Z</time><name>PT8626</name></trkpt>
<trkpt lat="53.102570" lon="05.975442"><ele>-3.6</ele><time>2021-05-12T13:27:25Z</time><name>PT8627</name></trkpt>
<trkpt lat="53.102572" lon="05.975425"><ele>-3.6</ele><time>2021-05-12T13:27:26Z</time><name>PT8628</name></trkpt>
<trkpt lat="53.102575" lon="05.975406"><ele>-3.6</ele><time>2021-05-12T13:27:27Z</time><name>PT8629</name></trkpt>
<trkpt lat="53.102578" lon="05.975388"><ele>-3.6</ele><time>2021-05-12T13:27:28Z</time><name>PT8630</name></trkpt>
<trkpt lat="53.102579" lon="05.975369"><ele>-3.6</ele><time>2021-05-12T13:27:29Z</time><name>PT8631</name></trkpt>
<trkpt lat="53.102580" lon="05.975351"><ele>-3.6</ele><time>2021-05-12T13:27:30Z</time><name>PT8632</name></trkpt>
<trkpt lat="53.102582" lon="05.975331"><ele>-3.6</ele><time>2021-05-12T13:27:31Z</time><name>PT8633</name></trkpt>
<trkpt lat="53.102584" lon="05.975312"><ele>-3.5</ele><time>2021-05-12T13:27:32Z</time><name>PT8634</name></trkpt>
<trkpt lat="53.102585" lon="05.975291"><ele>-3.5</ele><time>2021-05-12T13:27:33Z</time><name>PT8635</name></trkpt>
<trkpt lat="53.102585" lon="05.975271"><ele>-3.5</ele><time>2021-05-12T13:27:34Z</time><name>PT8636</name></trkpt>
<trkpt lat="53.102586" lon="05.975249"><ele>-3.5</ele><time>2021-05-12T13:27:35Z</time><name>PT8637</name></trkpt>
<trkpt lat="53.102587" lon="05.975228"><ele>-3.3</ele><time>2021-05-12T13:27:36Z</time><name>PT8638</name></trkpt>
<trkpt lat="53.102587" lon="05.975209"><ele>-3.3</ele><time>2021-05-12T13:27:37Z</time><name>PT8639</name></trkpt>
<trkpt lat="53.102588" lon="05.975190"><ele>-3.3</ele><time>2021-05-12T13:27:38Z</time><name>PT8640</name></trkpt>
<trkpt lat="53.102589" lon="05.975171"><ele>-3.3</ele><time>2021-05-12T13:27:39Z</time><name>PT8641</name></trkpt>
<trkpt lat="53.102591" lon="05.975154"><ele>-3.3</ele><time>2021-05-12T13:27:40Z</time><name>PT8642</name></trkpt>
<trkpt lat="53.102591" lon="05.975136"><ele>-3.3</ele><time>2021-05-12T13:27:41Z</time><name>PT8643</name></trkpt>
<trkpt lat="53.102594" lon="05.975115"><ele>-3.3</ele><time>2021-05-12T13:27:42Z</time><name>PT8644</name></trkpt>
<trkpt lat="53.102597" lon="05.975100"><ele>-3.4</ele><time>2021-05-12T13:27:43Z</time><name>PT8645</name></trkpt>
<trkpt lat="53.102594" lon="05.975081"><ele>-3.2</ele><time>2021-05-12T13:27:44Z</time><name>PT8646</name></trkpt>
<trkpt lat="53.102596" lon="05.975059"><ele>-3.1</ele><time>2021-05-12T13:27:45Z</time><name>PT8647</name></trkpt>
<trkpt lat="53.102597" lon="05.975040"><ele>-3.2</ele><time>2021-05-12T13:27:46Z</time><name>PT8648</name></trkpt>
<trkpt lat="53.102598" lon="05.975020"><ele>-3.3</ele><time>2021-05-12T13:27:47Z</time><name>PT8649</name></trkpt>
<trkpt lat="53.102598" lon="05.975004"><ele>-3.3</ele><time>2021-05-12T13:27:48Z</time><name>PT8650</name></trkpt>
<trkpt lat="53.102597" lon="05.974988"><ele>-3.2</ele><time>2021-05-12T13:27:49Z</time><name>PT8651</name></trkpt>
<trkpt lat="53.102599" lon="05.974972"><ele>-3.2</ele><time>2021-05-12T13:27:50Z</time><name>PT8652</name></trkpt>
<trkpt lat="53.102603" lon="05.974954"><ele>-3.5</ele><time>2021-05-12T13:27:51Z</time><name>PT8653</name></trkpt>
<trkpt lat="53.102605" lon="05.974935"><ele>-3.5</ele><time>2021-05-12T13:27:52Z</time><name>PT8654</name></trkpt>
<trkpt lat="53.102608" lon="05.974918"><ele>-3.6</ele><time>2021-05-12T13:27:53Z</time><name>PT8655</name></trkpt>
<trkpt lat="53.102611" lon="05.974900"><ele>-3.5</ele><time>2021-05-12T13:27:54Z</time><name>PT8656</name></trkpt>
<trkpt lat="53.102616" lon="05.974883"><ele>-3.5</ele><time>2021-05-12T13:27:55Z</time><name>PT8657</name></trkpt>
<trkpt lat="53.102618" lon="05.974864"><ele>-3.3</ele><time>2021-05-12T13:27:56Z</time><name>PT8658</name></trkpt>
<trkpt lat="53.102617" lon="05.974846"><ele>-3.4</ele><time>2021-05-12T13:27:57Z</time><name>PT8659</name></trkpt>
<trkpt lat="53.102616" lon="05.974828"><ele>-3.5</ele><time>2021-05-12T13:27:58Z</time><name>PT8660</name></trkpt>
<trkpt lat="53.102617" lon="05.974811"><ele>-3.5</ele><time>2021-05-12T13:27:59Z</time><name>PT8661</name></trkpt>
<trkpt lat="53.102619" lon="05.974794"><ele>-3.3</ele><time>2021-05-12T13:28:00Z</time><name>PT8662</name></trkpt>
<trkpt lat="53.102621" lon="05.974778"><ele>-3.3</ele><time>2021-05-12T13:28:01Z</time><name>PT8663</name></trkpt>
<trkpt lat="53.102624" lon="05.974762"><ele>-3.1</ele><time>2021-05-12T13:28:02Z</time><name>PT8664</name></trkpt>
<trkpt lat="53.102626" lon="05.974745"><ele>-3.1</ele><time>2021-05-12T13:28:03Z</time><name>PT8665</name></trkpt>
<trkpt lat="53.102626" lon="05.974729"><ele>-3.1</ele><time>2021-05-12T13:28:04Z</time><name>PT8666</name></trkpt>
<trkpt lat="53.102627" lon="05.974713"><ele>-3.1</ele><time>2021-05-12T13:28:05Z</time><name>PT8667</name></trkpt>
<trkpt lat="53.102628" lon="05.974694"><ele>-3.2</ele><time>2021-05-12T13:28:06Z</time><name>PT8668</name></trkpt>
<trkpt lat="53.102630" lon="05.974677"><ele>-3.4</ele><time>2021-05-12T13:28:07Z</time><name>PT8669</name></trkpt>
<trkpt lat="53.102632" lon="05.974662"><ele>-3.2</ele><time>2021-05-12T13:28:08Z</time><name>PT8670</name></trkpt>
<trkpt lat="53.102633" lon="05.974645"><ele>-3.2</ele><time>2021-05-12T13:28:09Z</time><name>PT8671</name></trkpt>
<trkpt lat="53.102632" lon="05.974627"><ele>-3.2</ele><time>2021-05-12T13:28:10Z</time><name>PT8672</name></trkpt>
<trkpt lat="53.102631" lon="05.974608"><ele>-3.5</ele><time>2021-05-12T13:28:11Z</time><name>PT8673</name></trkpt>
<trkpt lat="53.102633" lon="05.974590"><ele>-3.4</ele><time>2021-05-12T13:28:12Z</time><name>PT8674</name></trkpt>
<trkpt lat="53.102635" lon="05.974575"><ele>-3.5</ele><time>2021-05-12T13:28:13Z</time><name>PT8675</name></trkpt>
<trkpt lat="53.102636" lon="05.974557"><ele>-3.5</ele><time>2021-05-12T13:28:14Z</time><name>PT8676</name></trkpt>
<trkpt lat="53.102637" lon="05.974539"><ele>-3.5</ele><time>2021-05-12T13:28:15Z</time><name>PT8677</name></trkpt>
<trkpt lat="53.102637" lon="05.974521"><ele>-3.4</ele><time>2021-05-12T13:28:16Z</time><name>PT8678</name></trkpt>
<trkpt lat="53.102637" lon="05.974501"><ele>-3.4</ele><time>2021-05-12T13:28:17Z</time><name>PT8679</name></trkpt>
<trkpt lat="53.102639" lon="05.974484"><ele>-3.4</ele><time>2021-05-12T13:28:18Z</time><name>PT8680</name></trkpt>
<trkpt lat="53.102641" lon="05.974466"><ele>-3.3</ele><time>2021-05-12T13:28:19Z</time><name>PT8681</name></trkpt>
<trkpt lat="53.102644" lon="05.974449"><ele>-3.5</ele><time>2021-05-12T13:28:20Z</time><name>PT8682</name></trkpt>
<trkpt lat="53.102646" lon="05.974428"><ele>-3.6</ele><time>2021-05-12T13:28:21Z</time><name>PT8683</name></trkpt>
<trkpt lat="53.102650" lon="05.974409"><ele>-3.8</ele><time>2021-05-12T13:28:22Z</time><name>PT8684</name></trkpt>
<trkpt lat="53.102654" lon="05.974388"><ele>-3.9</ele><time>2021-05-12T13:28:23Z</time><name>PT8685</name></trkpt>
<trkpt lat="53.102655" lon="05.974368"><ele>-4</ele><time>2021-05-12T13:28:24Z</time><name>PT8686</name></trkpt>
<trkpt lat="53.102657" lon="05.974349"><ele>-3.8</ele><time>2021-05-12T13:28:25Z</time><name>PT8687</name></trkpt>
<trkpt lat="53.102659" lon="05.974330"><ele>-3.7</ele><time>2021-05-12T13:28:26Z</time><name>PT8688</name></trkpt>
<trkpt lat="53.102660" lon="05.974309"><ele>-3.6</ele><time>2021-05-12T13:28:27Z</time><name>PT8689</name></trkpt>
<trkpt lat="53.102661" lon="05.974290"><ele>-3.6</ele><time>2021-05-12T13:28:28Z</time><name>PT8690</name></trkpt>
<trkpt lat="53.102663" lon="05.974268"><ele>-3.5</ele><time>2021-05-12T13:28:29Z</time><name>PT8691</name></trkpt>
<trkpt lat="53.102663" lon="05.974246"><ele>-3.6</ele><time>2021-05-12T13:28:30Z</time><name>PT8692</name></trkpt>
<trkpt lat="53.102663" lon="05.974226"><ele>-3.7</ele><time>2021-05-12T13:28:31Z</time><name>PT8693</name></trkpt>
<trkpt lat="53.102664" lon="05.974207"><ele>-3.7</ele><time>2021-05-12T13:28:32Z</time><name>PT8694</name></trkpt>
<trkpt lat="53.102667" lon="05.974188"><ele>-3.6</ele><time>2021-05-12T13:28:33Z</time><name>PT8695</name></trkpt>
<trkpt lat="53.102669" lon="05.974169"><ele>-3.6</ele><time>2021-05-12T13:28:34Z</time><name>PT8696</name></trkpt>
<trkpt lat="53.102671" lon="05.974149"><ele>-3.5</ele><time>2021-05-12T13:28:35Z</time><name>PT8697</name></trkpt>
<trkpt lat="53.102674" lon="05.974129"><ele>-3.3</ele><time>2021-05-12T13:28:36Z</time><name>PT8698</name></trkpt>
<trkpt lat="53.102676" lon="05.974109"><ele>-3.3</ele><time>2021-05-12T13:28:37Z</time><name>PT8699</name></trkpt>
<trkpt lat="53.102679" lon="05.974091"><ele>-3.5</ele><time>2021-05-12T13:28:38Z</time><name>PT8700</name></trkpt>
<trkpt lat="53.102682" lon="05.974073"><ele>-3.5</ele><time>2021-05-12T13:28:39Z</time><name>PT8701</name></trkpt>
<trkpt lat="53.102683" lon="05.974053"><ele>-3.5</ele><time>2021-05-12T13:28:40Z</time><name>PT8702</name></trkpt>
<trkpt lat="53.102681" lon="05.974035"><ele>-3.6</ele><time>2021-05-12T13:28:41Z</time><name>PT8703</name></trkpt>
<trkpt lat="53.102682" lon="05.974017"><ele>-3.6</ele><time>2021-05-12T13:28:42Z</time><name>PT8704</name></trkpt>
<trkpt lat="53.102684" lon="05.973998"><ele>-3.6</ele><time>2021-05-12T13:28:43Z</time><name>PT8705</name></trkpt>
<trkpt lat="53.102686" lon="05.973979"><ele>-3.6</ele><time>2021-05-12T13:28:44Z</time><name>PT8706</name></trkpt>
<trkpt lat="53.102689" lon="05.973960"><ele>-3.8</ele><time>2021-05-12T13:28:45Z</time><name>PT8707</name></trkpt>
<trkpt lat="53.102691" lon="05.973940"><ele>-3.7</ele><time>2021-05-12T13:28:46Z</time><name>PT8708</name></trkpt>
<trkpt lat="53.102693" lon="05.973920"><ele>-3.9</ele><time>2021-05-12T13:28:47Z</time><name>PT8709</name></trkpt>
<trkpt lat="53.102695" lon="05.973901"><ele>-4</ele><time>2021-05-12T13:28:48Z</time><name>PT8710</name></trkpt>
<trkpt lat="53.102697" lon="05.973881"><ele>-4</ele><time>2021-05-12T13:28:49Z</time><name>PT8711</name></trkpt>
<trkpt lat="53.102697" lon="05.973861"><ele>-4</ele><time>2021-05-12T13:28:50Z</time><name>PT8712</name></trkpt>
<trkpt lat="53.102698" lon="05.973842"><ele>-4</ele><time>2021-05-12T13:28:51Z</time><name>PT8713</name></trkpt>
<trkpt lat="53.102699" lon="05.973822"><ele>-3.8</ele><time>2021-05-12T13:28:52Z</time><name>PT8714</name></trkpt>
<trkpt lat="53.102699" lon="05.973802"><ele>-3.7</ele><time>2021-05-12T13:28:53Z</time><name>PT8715</name></trkpt>
<trkpt lat="53.102699" lon="05.973785"><ele>-3.7</ele><time>2021-05-12T13:28:54Z</time><name>PT8716</name></trkpt>
<trkpt lat="53.102701" lon="05.973767"><ele>-3.8</ele><time>2021-05-12T13:28:55Z</time><name>PT8717</name></trkpt>
<trkpt lat="53.102702" lon="05.973749"><ele>-3.8</ele><time>2021-05-12T13:28:56Z</time><name>PT8718</name></trkpt>
<trkpt lat="53.102706" lon="05.973729"><ele>-3.8</ele><time>2021-05-12T13:28:57Z</time><name>PT8719</name></trkpt>
<trkpt lat="53.102710" lon="05.973708"><ele>-3.7</ele><time>2021-05-12T13:28:58Z</time><name>PT8720</name></trkpt>
<trkpt lat="53.102711" lon="05.973687"><ele>-3.9</ele><time>2021-05-12T13:28:59Z</time><name>PT8721</name></trkpt>
<trkpt lat="53.102712" lon="05.973668"><ele>-3.8</ele><time>2021-05-12T13:29:00Z</time><name>PT8722</name></trkpt>
<trkpt lat="53.102713" lon="05.973650"><ele>-3.7</ele><time>2021-05-12T13:29:01Z</time><name>PT8723</name></trkpt>
<trkpt lat="53.102714" lon="05.973631"><ele>-3.9</ele><time>2021-05-12T13:29:02Z</time><name>PT8724</name></trkpt>
<trkpt lat="53.102715" lon="05.973611"><ele>-3.8</ele><time>2021-05-12T13:29:03Z</time><name>PT8725</name></trkpt>
<trkpt lat="53.102717" lon="05.973591"><ele>-3.9</ele><time>2021-05-12T13:29:04Z</time><name>PT8726</name></trkpt>
<trkpt lat="53.102718" lon="05.973570"><ele>-3.7</ele><time>2021-05-12T13:29:05Z</time><name>PT8727</name></trkpt>
<trkpt lat="53.102718" lon="05.973552"><ele>-3.6</ele><time>2021-05-12T13:29:06Z</time><name>PT8728</name></trkpt>
<trkpt lat="53.102720" lon="05.973534"><ele>-3.5</ele><time>2021-05-12T13:29:07Z</time><name>PT8729</name></trkpt>
<trkpt lat="53.102722" lon="05.973516"><ele>-3.6</ele><time>2021-05-12T13:29:08Z</time><name>PT8730</name></trkpt>
<trkpt lat="53.102725" lon="05.973497"><ele>-3.6</ele><time>2021-05-12T13:29:09Z</time><name>PT8731</name></trkpt>
<trkpt lat="53.102728" lon="05.973476"><ele>-3.7</ele><time>2021-05-12T13:29:10Z</time><name>PT8732</name></trkpt>
<trkpt lat="53.102730" lon="05.973455"><ele>-3.8</ele><time>2021-05-12T13:29:11Z</time><name>PT8733</name></trkpt>
<trkpt lat="53.102732" lon="05.973435"><ele>-4</ele><time>2021-05-12T13:29:12Z</time><name>PT8734</name></trkpt>
<trkpt lat="53.102735" lon="05.973415"><ele>-3.9</ele><time>2021-05-12T13:29:13Z</time><name>PT8735</name></trkpt>
<trkpt lat="53.102735" lon="05.973396"><ele>-4</ele><time>2021-05-12T13:29:14Z</time><name>PT8736</name></trkpt>
<trkpt lat="53.102736" lon="05.973375"><ele>-3.9</ele><time>2021-05-12T13:29:15Z</time><name>PT8737</name></trkpt>
<trkpt lat="53.102735" lon="05.973355"><ele>-3.8</ele><time>2021-05-12T13:29:16Z</time><name>PT8738</name></trkpt>
<trkpt lat="53.102737" lon="05.973336"><ele>-3.8</ele><time>2021-05-12T13:29:17Z</time><name>PT8739</name></trkpt>
<trkpt lat="53.102736" lon="05.973319"><ele>-4</ele><time>2021-05-12T13:29:18Z</time><name>PT8740</name></trkpt>
<trkpt lat="53.102737" lon="05.973308"><ele>-4.2</ele><time>2021-05-12T13:29:19Z</time><name>PT8741</name></trkpt>
<trkpt lat="53.102738" lon="05.973299"><ele>-4.5</ele><time>2021-05-12T13:29:20Z</time><name>PT8742</name></trkpt>
<trkpt lat="53.102736" lon="05.973296"><ele>-4.5</ele><time>2021-05-12T13:29:21Z</time><name>PT8743</name></trkpt>
<trkpt lat="53.102735" lon="05.973297"><ele>-4.3</ele><time>2021-05-12T13:29:22Z</time><name>PT8744</name></trkpt>
<trkpt lat="53.102735" lon="05.973298"><ele>-4.3</ele><time>2021-05-12T13:29:23Z</time><name>PT8745</name></trkpt>
<trkpt lat="53.102735" lon="05.973299"><ele>-4</ele><time>2021-05-12T13:29:24Z</time><name>PT8746</name></trkpt>
<trkpt lat="53.102734" lon="05.973292"><ele>-3.7</ele><time>2021-05-12T13:29:42Z</time><name>PT8747</name></trkpt>
<trkpt lat="53.102742" lon="05.973279"><ele>-3.8</ele><time>2021-05-12T13:29:43Z</time><name>PT8748</name></trkpt>
<trkpt lat="53.102747" lon="05.973261"><ele>-3.7</ele><time>2021-05-12T13:29:44Z</time><name>PT8749</name></trkpt>
<trkpt lat="53.102749" lon="05.973244"><ele>-3.9</ele><time>2021-05-12T13:29:45Z</time><name>PT8750</name></trkpt>
<trkpt lat="53.102750" lon="05.973222"><ele>-3.9</ele><time>2021-05-12T13:29:46Z</time><name>PT8751</name></trkpt>
<trkpt lat="53.102751" lon="05.973204"><ele>-4.1</ele><time>2021-05-12T13:29:47Z</time><name>PT8752</name></trkpt>
<trkpt lat="53.102752" lon="05.973188"><ele>-4</ele><time>2021-05-12T13:29:48Z</time><name>PT8753</name></trkpt>
<trkpt lat="53.102752" lon="05.973177"><ele>-4.1</ele><time>2021-05-12T13:29:49Z</time><name>PT8754</name></trkpt>
<trkpt lat="53.102752" lon="05.973168"><ele>-4</ele><time>2021-05-12T13:29:50Z</time><name>PT8755</name></trkpt>
<trkpt lat="53.102754" lon="05.973156"><ele>-4</ele><time>2021-05-12T13:29:51Z</time><name>PT8756</name></trkpt>
<trkpt lat="53.102756" lon="05.973143"><ele>-4.1</ele><time>2021-05-12T13:29:52Z</time><name>PT8757</name></trkpt>
<trkpt lat="53.102758" lon="05.973137"><ele>-4</ele><time>2021-05-12T13:29:53Z</time><name>PT8758</name></trkpt>
<trkpt lat="53.102762" lon="05.973138"><ele>-3.8</ele><time>2021-05-12T13:29:54Z</time><name>PT8759</name></trkpt>
<trkpt lat="53.102764" lon="05.973141"><ele>-3.6</ele><time>2021-05-12T13:29:55Z</time><name>PT8760</name></trkpt>
<trkpt lat="53.102765" lon="05.973142"><ele>-3.2</ele><time>2021-05-12T13:29:56Z</time><name>PT8761</name></trkpt>
<trkpt lat="53.102767" lon="05.973143"><ele>-3.1</ele><time>2021-05-12T13:29:57Z</time><name>PT8762</name></trkpt>
<trkpt lat="53.102767" lon="05.973141"><ele>-3</ele><time>2021-05-12T13:29:58Z</time><name>PT8763</name></trkpt>
<trkpt lat="53.102768" lon="05.973135"><ele>-2.9</ele><time>2021-05-12T13:29:59Z</time><name>PT8764</name></trkpt>
<trkpt lat="53.102770" lon="05.973131"><ele>-2.8</ele><time>2021-05-12T13:30:00Z</time><name>PT8765</name></trkpt>
<trkpt lat="53.102770" lon="05.973130"><ele>-2.9</ele><time>2021-05-12T13:30:01Z</time><name>PT8766</name></trkpt>
<trkpt lat="53.102766" lon="05.973128"><ele>-3.4</ele><time>2021-05-12T13:30:10Z</time><name>PT8767</name></trkpt>
<trkpt lat="53.102765" lon="05.973126"><ele>-3.5</ele><time>2021-05-12T13:30:11Z</time><name>PT8768</name></trkpt>
<trkpt lat="53.102766" lon="05.973126"><ele>-3.3</ele><time>2021-05-12T13:30:26Z</time><name>PT8769</name></trkpt>
<trkpt lat="53.102768" lon="05.973125"><ele>-3.3</ele><time>2021-05-12T13:30:27Z</time><name>PT8770</name></trkpt>
<trkpt lat="53.102769" lon="05.973124"><ele>-3.1</ele><time>2021-05-12T13:30:28Z</time><name>PT8771</name></trkpt>
<trkpt lat="53.102769" lon="05.973124"><ele>-3.2</ele><time>2021-05-12T13:30:29Z</time><name>PT8772</name></trkpt>
<trkpt lat="53.102769" lon="05.973124"><ele>-3.2</ele><time>2021-05-12T13:30:30Z</time><name>PT8773</name></trkpt>
<trkpt lat="53.102769" lon="05.973119"><ele>-3.5</ele><time>2021-05-12T13:30:33Z</time><name>PT8774</name></trkpt>
<trkpt lat="53.102776" lon="05.973107"><ele>-3.5</ele><time>2021-05-12T13:30:34Z</time><name>PT8775</name></trkpt>
<trkpt lat="53.102776" lon="05.973101"><ele>-3.4</ele><time>2021-05-12T13:30:35Z</time><name>PT8776</name></trkpt>
<trkpt lat="53.102773" lon="05.973094"><ele>-3.5</ele><time>2021-05-12T13:30:36Z</time><name>PT8777</name></trkpt>
<trkpt lat="53.102773" lon="05.973088"><ele>-3.1</ele><time>2021-05-12T13:30:45Z</time><name>PT8778</name></trkpt>
<trkpt lat="53.102774" lon="05.973077"><ele>-3.3</ele><time>2021-05-12T13:30:46Z</time><name>PT8779</name></trkpt>
<trkpt lat="53.102775" lon="05.973066"><ele>-3.3</ele><time>2021-05-12T13:30:47Z</time><name>PT8780</name></trkpt>
<trkpt lat="53.102776" lon="05.973048"><ele>-3.2</ele><time>2021-05-12T13:30:48Z</time><name>PT8781</name></trkpt>
<trkpt lat="53.102775" lon="05.973030"><ele>-3.3</ele><time>2021-05-12T13:30:49Z</time><name>PT8782</name></trkpt>
<trkpt lat="53.102775" lon="05.973013"><ele>-3.4</ele><time>2021-05-12T13:30:50Z</time><name>PT8783</name></trkpt>
<trkpt lat="53.102776" lon="05.972994"><ele>-3.2</ele><time>2021-05-12T13:30:51Z</time><name>PT8784</name></trkpt>
<trkpt lat="53.102776" lon="05.972975"><ele>-3.3</ele><time>2021-05-12T13:30:52Z</time><name>PT8785</name></trkpt>
<trkpt lat="53.102776" lon="05.972957"><ele>-3.4</ele><time>2021-05-12T13:30:53Z</time><name>PT8786</name></trkpt>
<trkpt lat="53.102777" lon="05.972938"><ele>-3.3</ele><time>2021-05-12T13:30:54Z</time><name>PT8787</name></trkpt>
<trkpt lat="53.102779" lon="05.972919"><ele>-3.2</ele><time>2021-05-12T13:30:55Z</time><name>PT8788</name></trkpt>
<trkpt lat="53.102781" lon="05.972902"><ele>-3.3</ele><time>2021-05-12T13:30:56Z</time><name>PT8789</name></trkpt>
<trkpt lat="53.102782" lon="05.972885"><ele>-3.3</ele><time>2021-05-12T13:30:57Z</time><name>PT8790</name></trkpt>
<trkpt lat="53.102783" lon="05.972868"><ele>-3.5</ele><time>2021-05-12T13:30:58Z</time><name>PT8791</name></trkpt>
<trkpt lat="53.102784" lon="05.972850"><ele>-3.5</ele><time>2021-05-12T13:30:59Z</time><name>PT8792</name></trkpt>
<trkpt lat="53.102784" lon="05.972832"><ele>-3.5</ele><time>2021-05-12T13:31:00Z</time><name>PT8793</name></trkpt>
<trkpt lat="53.102784" lon="05.972816"><ele>-3.6</ele><time>2021-05-12T13:31:01Z</time><name>PT8794</name></trkpt>
<trkpt lat="53.102786" lon="05.972798"><ele>-3.5</ele><time>2021-05-12T13:31:02Z</time><name>PT8795</name></trkpt>
<trkpt lat="53.102789" lon="05.972782"><ele>-3.6</ele><time>2021-05-12T13:31:03Z</time><name>PT8796</name></trkpt>
<trkpt lat="53.102791" lon="05.972764"><ele>-3.7</ele><time>2021-05-12T13:31:04Z</time><name>PT8797</name></trkpt>
<trkpt lat="53.102791" lon="05.972746"><ele>-3.9</ele><time>2021-05-12T13:31:05Z</time><name>PT8798</name></trkpt>
<trkpt lat="53.102791" lon="05.972729"><ele>-3.9</ele><time>2021-05-12T13:31:06Z</time><name>PT8799</name></trkpt>
<trkpt lat="53.102791" lon="05.972711"><ele>-3.8</ele><time>2021-05-12T13:31:07Z</time><name>PT8800</name></trkpt>
<trkpt lat="53.102793" lon="05.972693"><ele>-3.8</ele><time>2021-05-12T13:31:08Z</time><name>PT8801</name></trkpt>
<trkpt lat="53.102793" lon="05.972678"><ele>-3.7</ele><time>2021-05-12T13:31:09Z</time><name>PT8802</name></trkpt>
<trkpt lat="53.102795" lon="05.972661"><ele>-3.6</ele><time>2021-05-12T13:31:10Z</time><name>PT8803</name></trkpt>
<trkpt lat="53.102798" lon="05.972644"><ele>-3.5</ele><time>2021-05-12T13:31:11Z</time><name>PT8804</name></trkpt>
<trkpt lat="53.102800" lon="05.972627"><ele>-3.6</ele><time>2021-05-12T13:31:12Z</time><name>PT8805</name></trkpt>
<trkpt lat="53.102800" lon="05.972610"><ele>-3.6</ele><time>2021-05-12T13:31:13Z</time><name>PT8806</name></trkpt>
<trkpt lat="53.102800" lon="05.972591"><ele>-3.7</ele><time>2021-05-12T13:31:14Z</time><name>PT8807</name></trkpt>
<trkpt lat="53.102799" lon="05.972572"><ele>-3.8</ele><time>2021-05-12T13:31:15Z</time><name>PT8808</name></trkpt>
<trkpt lat="53.102798" lon="05.972553"><ele>-3.8</ele><time>2021-05-12T13:31:16Z</time><name>PT8809</name></trkpt>
<trkpt lat="53.102798" lon="05.972536"><ele>-3.7</ele><time>2021-05-12T13:31:17Z</time><name>PT8810</name></trkpt>
<trkpt lat="53.102798" lon="05.972519"><ele>-3.8</ele><time>2021-05-12T13:31:18Z</time><name>PT8811</name></trkpt>
<trkpt lat="53.102799" lon="05.972499"><ele>-3.6</ele><time>2021-05-12T13:31:19Z</time><name>PT8812</name></trkpt>
<trkpt lat="53.102800" lon="05.972481"><ele>-3.7</ele><time>2021-05-12T13:31:20Z</time><name>PT8813</name></trkpt>
<trkpt lat="53.102800" lon="05.972463"><ele>-3.7</ele><time>2021-05-12T13:31:21Z</time><name>PT8814</name></trkpt>
<trkpt lat="53.102799" lon="05.972445"><ele>-3.6</ele><time>2021-05-12T13:31:22Z</time><name>PT8815</name></trkpt>
<trkpt lat="53.102798" lon="05.972427"><ele>-3.6</ele><time>2021-05-12T13:31:23Z</time><name>PT8816</name></trkpt>
<trkpt lat="53.102797" lon="05.972409"><ele>-3.7</ele><time>2021-05-12T13:31:24Z</time><name>PT8817</name></trkpt>
<trkpt lat="53.102798" lon="05.972394"><ele>-3.7</ele><time>2021-05-12T13:31:25Z</time><name>PT8818</name></trkpt>
<trkpt lat="53.102799" lon="05.972379"><ele>-3.7</ele><time>2021-05-12T13:31:26Z</time><name>PT8819</name></trkpt>
<trkpt lat="53.102799" lon="05.972369"><ele>-3.8</ele><time>2021-05-12T13:31:27Z</time><name>PT8820</name></trkpt>
<trkpt lat="53.102801" lon="05.972368"><ele>-3.7</ele><time>2021-05-12T13:31:28Z</time><name>PT8821</name></trkpt>
<trkpt lat="53.102803" lon="05.972362"><ele>-3.7</ele><time>2021-05-12T13:31:29Z</time><name>PT8822</name></trkpt>
<trkpt lat="53.102802" lon="05.972359"><ele>-3.6</ele><time>2021-05-12T13:31:30Z</time><name>PT8823</name></trkpt>
<trkpt lat="53.102802" lon="05.972351"><ele>-3.5</ele><time>2021-05-12T13:31:31Z</time><name>PT8824</name></trkpt>
<trkpt lat="53.102801" lon="05.972339"><ele>-3.5</ele><time>2021-05-12T13:31:32Z</time><name>PT8825</name></trkpt>
<trkpt lat="53.102800" lon="05.972327"><ele>-3.5</ele><time>2021-05-12T13:31:33Z</time><name>PT8826</name></trkpt>
<trkpt lat="53.102800" lon="05.972311"><ele>-3.6</ele><time>2021-05-12T13:31:34Z</time><name>PT8827</name></trkpt>
<trkpt lat="53.102799" lon="05.972295"><ele>-3.5</ele><time>2021-05-12T13:31:35Z</time><name>PT8828</name></trkpt>
<trkpt lat="53.102798" lon="05.972277"><ele>-3.8</ele><time>2021-05-12T13:31:36Z</time><name>PT8829</name></trkpt>
<trkpt lat="53.102795" lon="05.972259"><ele>-4</ele><time>2021-05-12T13:31:37Z</time><name>PT8830</name></trkpt>
<trkpt lat="53.102793" lon="05.972243"><ele>-4</ele><time>2021-05-12T13:31:38Z</time><name>PT8831</name></trkpt>
<trkpt lat="53.102793" lon="05.972227"><ele>-3.8</ele><time>2021-05-12T13:31:39Z</time><name>PT8832</name></trkpt>
<trkpt lat="53.102789" lon="05.972208"><ele>-3.9</ele><time>2021-05-12T13:31:40Z</time><name>PT8833</name></trkpt>
<trkpt lat="53.102787" lon="05.972189"><ele>-3.7</ele><time>2021-05-12T13:31:41Z</time><name>PT8834</name></trkpt>
<trkpt lat="53.102787" lon="05.972172"><ele>-3.8</ele><time>2021-05-12T13:31:42Z</time><name>PT8835</name></trkpt>
<trkpt lat="53.102787" lon="05.972155"><ele>-4</ele><time>2021-05-12T13:31:43Z</time><name>PT8836</name></trkpt>
<trkpt lat="53.102786" lon="05.972140"><ele>-3.9</ele><time>2021-05-12T13:31:44Z</time><name>PT8837</name></trkpt>
<trkpt lat="53.102785" lon="05.972125"><ele>-3.8</ele><time>2021-05-12T13:31:45Z</time><name>PT8838</name></trkpt>
<trkpt lat="53.102785" lon="05.972111"><ele>-3.7</ele><time>2021-05-12T13:31:46Z</time><name>PT8839</name></trkpt>
<trkpt lat="53.102784" lon="05.972100"><ele>-3.7</ele><time>2021-05-12T13:31:47Z</time><name>PT8840</name></trkpt>
<trkpt lat="53.102782" lon="05.972092"><ele>-3.6</ele><time>2021-05-12T13:31:48Z</time><name>PT8841</name></trkpt>
<trkpt lat="53.102783" lon="05.972083"><ele>-3.5</ele><time>2021-05-12T13:31:49Z</time><name>PT8842</name></trkpt>
<trkpt lat="53.102781" lon="05.972074"><ele>-3.4</ele><time>2021-05-12T13:31:50Z</time><name>PT8843</name></trkpt>
<trkpt lat="53.102778" lon="05.972065"><ele>-3.2</ele><time>2021-05-12T13:31:51Z</time><name>PT8844</name></trkpt>
<trkpt lat="53.102777" lon="05.972054"><ele>-3.1</ele><time>2021-05-12T13:31:52Z</time><name>PT8845</name></trkpt>
<trkpt lat="53.102776" lon="05.972044"><ele>-3.1</ele><time>2021-05-12T13:31:53Z</time><name>PT8846</name></trkpt>
<trkpt lat="53.102775" lon="05.972039"><ele>-3.1</ele><time>2021-05-12T13:31:54Z</time><name>PT8847</name></trkpt>
<trkpt lat="53.102775" lon="05.972031"><ele>-3.1</ele><time>2021-05-12T13:31:55Z</time><name>PT8848</name></trkpt>
<trkpt lat="53.102773" lon="05.972019"><ele>-3.1</ele><time>2021-05-12T13:31:56Z</time><name>PT8849</name></trkpt>
<trkpt lat="53.102771" lon="05.972007"><ele>-3.2</ele><time>2021-05-12T13:31:57Z</time><name>PT8850</name></trkpt>
<trkpt lat="53.102770" lon="05.971995"><ele>-3.2</ele><time>2021-05-12T13:31:58Z</time><name>PT8851</name></trkpt>
<trkpt lat="53.102768" lon="05.971982"><ele>-3.2</ele><time>2021-05-12T13:31:59Z</time><name>PT8852</name></trkpt>
<trkpt lat="53.102768" lon="05.971979"><ele>-3.3</ele><time>2021-05-12T13:32:00Z</time><name>PT8853</name></trkpt>
<trkpt lat="53.102765" lon="05.971976"><ele>-3.2</ele><time>2021-05-12T13:32:01Z</time><name>PT8854</name></trkpt>
<trkpt lat="53.102763" lon="05.971969"><ele>-3.3</ele><time>2021-05-12T13:32:02Z</time><name>PT8855</name></trkpt>
<trkpt lat="53.102761" lon="05.971964"><ele>-3.2</ele><time>2021-05-12T13:32:03Z</time><name>PT8856</name></trkpt>
<trkpt lat="53.102759" lon="05.971963"><ele>-3.3</ele><time>2021-05-12T13:32:04Z</time><name>PT8857</name></trkpt>
<trkpt lat="53.102759" lon="05.971960"><ele>-3.1</ele><time>2021-05-12T13:32:05Z</time><name>PT8858</name></trkpt>
<trkpt lat="53.102758" lon="05.971960"><ele>-3.1</ele><time>2021-05-12T13:32:06Z</time><name>PT8859</name></trkpt>
<trkpt lat="53.102757" lon="05.971960"><ele>-3.2</ele><time>2021-05-12T13:32:07Z</time><name>PT8860</name></trkpt>
<trkpt lat="53.102758" lon="05.971962"><ele>-3.3</ele><time>2021-05-12T13:32:08Z</time><name>PT8861</name></trkpt>
<trkpt lat="53.102763" lon="05.971954"><ele>-3.6</ele><time>2021-05-12T13:32:39Z</time><name>PT8862</name></trkpt>
<trkpt lat="53.102765" lon="05.971942"><ele>-3.7</ele><time>2021-05-12T13:32:40Z</time><name>PT8863</name></trkpt>
<trkpt lat="53.102764" lon="05.971933"><ele>-3.6</ele><time>2021-05-12T13:32:41Z</time><name>PT8864</name></trkpt>
<trkpt lat="53.102765" lon="05.971928"><ele>-3.6</ele><time>2021-05-12T13:32:42Z</time><name>PT8865</name></trkpt>
<trkpt lat="53.102766" lon="05.971929"><ele>-3.4</ele><time>2021-05-12T13:32:43Z</time><name>PT8866</name></trkpt>
<trkpt lat="53.102766" lon="05.971928"><ele>-3.1</ele><time>2021-05-12T13:32:44Z</time><name>PT8867</name></trkpt>
<trkpt lat="53.102767" lon="05.971928"><ele>-3</ele><time>2021-05-12T13:32:45Z</time><name>PT8868</name></trkpt>
<trkpt lat="53.102767" lon="05.971929"><ele>-2.9</ele><time>2021-05-12T13:32:46Z</time><name>PT8869</name></trkpt>
<trkpt lat="53.102768" lon="05.971926"><ele>-3</ele><time>2021-05-12T13:33:07Z</time><name>PT8870</name></trkpt>
<trkpt lat="53.102769" lon="05.971925"><ele>-3</ele><time>2021-05-12T13:33:08Z</time><name>PT8871</name></trkpt>
<trkpt lat="53.102771" lon="05.971925"><ele>-3.1</ele><time>2021-05-12T13:33:09Z</time><name>PT8872</name></trkpt>
<trkpt lat="53.102774" lon="05.971925"><ele>-3.1</ele><time>2021-05-12T13:33:10Z</time><name>PT8873</name></trkpt>
<trkpt lat="53.102774" lon="05.971920"><ele>-3.2</ele><time>2021-05-12T13:33:11Z</time><name>PT8874</name></trkpt>
<trkpt lat="53.102772" lon="05.971917"><ele>-3.2</ele><time>2021-05-12T13:33:12Z</time><name>PT8875</name></trkpt>
<trkpt lat="53.102774" lon="05.971918"><ele>-3.3</ele><time>2021-05-12T13:33:13Z</time><name>PT8876</name></trkpt>
<trkpt lat="53.102775" lon="05.971915"><ele>-3.3</ele><time>2021-05-12T13:33:50Z</time><name>PT8877</name></trkpt>
<trkpt lat="53.102775" lon="05.971901"><ele>-3.2</ele><time>2021-05-12T13:33:51Z</time><name>PT8878</name></trkpt>
<trkpt lat="53.102775" lon="05.971885"><ele>-3.1</ele><time>2021-05-12T13:33:52Z</time><name>PT8879</name></trkpt>
<trkpt lat="53.102774" lon="05.971868"><ele>-3.3</ele><time>2021-05-12T13:33:53Z</time><name>PT8880</name></trkpt>
<trkpt lat="53.102772" lon="05.971851"><ele>-3.3</ele><time>2021-05-12T13:33:54Z</time><name>PT8881</name></trkpt>
<trkpt lat="53.102769" lon="05.971834"><ele>-3.5</ele><time>2021-05-12T13:33:55Z</time><name>PT8882</name></trkpt>
<trkpt lat="53.102767" lon="05.971818"><ele>-3.3</ele><time>2021-05-12T13:33:56Z</time><name>PT8883</name></trkpt>
<trkpt lat="53.102766" lon="05.971800"><ele>-3.4</ele><time>2021-05-12T13:33:57Z</time><name>PT8884</name></trkpt>
<trkpt lat="53.102765" lon="05.971782"><ele>-3.6</ele><time>2021-05-12T13:33:58Z</time><name>PT8885</name></trkpt>
<trkpt lat="53.102764" lon="05.971764"><ele>-3.5</ele><time>2021-05-12T13:33:59Z</time><name>PT8886</name></trkpt>
<trkpt lat="53.102765" lon="05.971750"><ele>-3.4</ele><time>2021-05-12T13:34:00Z</time><name>PT8887</name></trkpt>
<trkpt lat="53.102763" lon="05.971737"><ele>-3.4</ele><time>2021-05-12T13:34:01Z</time><name>PT8888</name></trkpt>
<trkpt lat="53.102760" lon="05.971731"><ele>-3.1</ele><time>2021-05-12T13:34:02Z</time><name>PT8889</name></trkpt>
<trkpt lat="53.102760" lon="05.971725"><ele>-3.2</ele><time>2021-05-12T13:34:03Z</time><name>PT8890</name></trkpt>
<trkpt lat="53.102760" lon="05.971725"><ele>-3.2</ele><time>2021-05-12T13:34:04Z</time><name>PT8891</name></trkpt>
<trkpt lat="53.102761" lon="05.971724"><ele>-3.2</ele><time>2021-05-12T13:34:05Z</time><name>PT8892</name></trkpt>
<trkpt lat="53.102760" lon="05.971716"><ele>-3.1</ele><time>2021-05-12T13:34:07Z</time><name>PT8893</name></trkpt>
<trkpt lat="53.102759" lon="05.971699"><ele>-3.1</ele><time>2021-05-12T13:34:08Z</time><name>PT8894</name></trkpt>
<trkpt lat="53.102757" lon="05.971680"><ele>-3.1</ele><time>2021-05-12T13:34:09Z</time><name>PT8895</name></trkpt>
<trkpt lat="53.102754" lon="05.971663"><ele>-3.3</ele><time>2021-05-12T13:34:10Z</time><name>PT8896</name></trkpt>
<trkpt lat="53.102754" lon="05.971648"><ele>-3.3</ele><time>2021-05-12T13:34:11Z</time><name>PT8897</name></trkpt>
<trkpt lat="53.102753" lon="05.971630"><ele>-3.4</ele><time>2021-05-12T13:34:12Z</time><name>PT8898</name></trkpt>
<trkpt lat="53.102753" lon="05.971615"><ele>-3.3</ele><time>2021-05-12T13:34:13Z</time><name>PT8899</name></trkpt>
<trkpt lat="53.102749" lon="05.971600"><ele>-3.4</ele><time>2021-05-12T13:34:14Z</time><name>PT8900</name></trkpt>
<trkpt lat="53.102746" lon="05.971591"><ele>-3.2</ele><time>2021-05-12T13:34:15Z</time><name>PT8901</name></trkpt>
<trkpt lat="53.102749" lon="05.971584"><ele>-3.3</ele><time>2021-05-12T13:34:16Z</time><name>PT8902</name></trkpt>
<trkpt lat="53.102747" lon="05.971577"><ele>-3.5</ele><time>2021-05-12T13:34:17Z</time><name>PT8903</name></trkpt>
<trkpt lat="53.102746" lon="05.971566"><ele>-3.6</ele><time>2021-05-12T13:34:18Z</time><name>PT8904</name></trkpt>
<trkpt lat="53.102748" lon="05.971560"><ele>-3.3</ele><time>2021-05-12T13:34:19Z</time><name>PT8905</name></trkpt>
<trkpt lat="53.102749" lon="05.971561"><ele>-3.1</ele><time>2021-05-12T13:34:20Z</time><name>PT8906</name></trkpt>
<trkpt lat="53.102749" lon="05.971559"><ele>-2.9</ele><time>2021-05-12T13:34:21Z</time><name>PT8907</name></trkpt>
<trkpt lat="53.102748" lon="05.971559"><ele>-2.7</ele><time>2021-05-12T13:34:22Z</time><name>PT8908</name></trkpt>
<trkpt lat="53.102748" lon="05.971557"><ele>-2.6</ele><time>2021-05-12T13:34:32Z</time><name>PT8909</name></trkpt>
<trkpt lat="53.102745" lon="05.971534"><ele>-3</ele><time>2021-05-12T13:34:33Z</time><name>PT8910</name></trkpt>
<trkpt lat="53.102745" lon="05.971520"><ele>-2.8</ele><time>2021-05-12T13:34:34Z</time><name>PT8911</name></trkpt>
<trkpt lat="53.102744" lon="05.971505"><ele>-2.9</ele><time>2021-05-12T13:34:35Z</time><name>PT8912</name></trkpt>
<trkpt lat="53.102745" lon="05.971491"><ele>-2.8</ele><time>2021-05-12T13:34:36Z</time><name>PT8913</name></trkpt>
<trkpt lat="53.102744" lon="05.971473"><ele>-2.7</ele><time>2021-05-12T13:34:37Z</time><name>PT8914</name></trkpt>
<trkpt lat="53.102744" lon="05.971457"><ele>-2.8</ele><time>2021-05-12T13:34:38Z</time><name>PT8915</name></trkpt>
<trkpt lat="53.102744" lon="05.971446"><ele>-2.8</ele><time>2021-05-12T13:34:39Z</time><name>PT8916</name></trkpt>
<trkpt lat="53.102742" lon="05.971431"><ele>-2.9</ele><time>2021-05-12T13:34:40Z</time><name>PT8917</name></trkpt>
<trkpt lat="53.102741" lon="05.971416"><ele>-3.1</ele><time>2021-05-12T13:34:41Z</time><name>PT8918</name></trkpt>
<trkpt lat="53.102741" lon="05.971403"><ele>-3.1</ele><time>2021-05-12T13:34:42Z</time><name>PT8919</name></trkpt>
<trkpt lat="53.102738" lon="05.971385"><ele>-3</ele><time>2021-05-12T13:34:43Z</time><name>PT8920</name></trkpt>
<trkpt lat="53.102738" lon="05.971367"><ele>-3.1</ele><time>2021-05-12T13:34:44Z</time><name>PT8921</name></trkpt>
<trkpt lat="53.102735" lon="05.971351"><ele>-2.9</ele><time>2021-05-12T13:34:45Z</time><name>PT8922</name></trkpt>
<trkpt lat="53.102732" lon="05.971338"><ele>-2.8</ele><time>2021-05-12T13:34:46Z</time><name>PT8923</name></trkpt>
<trkpt lat="53.102731" lon="05.971327"><ele>-2.9</ele><time>2021-05-12T13:34:47Z</time><name>PT8924</name></trkpt>
<trkpt lat="53.102731" lon="05.971311"><ele>-3</ele><time>2021-05-12T13:34:48Z</time><name>PT8925</name></trkpt>
<trkpt lat="53.102730" lon="05.971295"><ele>-2.8</ele><time>2021-05-12T13:34:49Z</time><name>PT8926</name></trkpt>
<trkpt lat="53.102729" lon="05.971279"><ele>-3</ele><time>2021-05-12T13:34:50Z</time><name>PT8927</name></trkpt>
<trkpt lat="53.102727" lon="05.971260"><ele>-2.9</ele><time>2021-05-12T13:34:51Z</time><name>PT8928</name></trkpt>
<trkpt lat="53.102724" lon="05.971242"><ele>-2.8</ele><time>2021-05-12T13:34:52Z</time><name>PT8929</name></trkpt>
<trkpt lat="53.102721" lon="05.971225"><ele>-2.7</ele><time>2021-05-12T13:34:53Z</time><name>PT8930</name></trkpt>
<trkpt lat="53.102718" lon="05.971208"><ele>-2.9</ele><time>2021-05-12T13:34:54Z</time><name>PT8931</name></trkpt>
<trkpt lat="53.102717" lon="05.971193"><ele>-3.1</ele><time>2021-05-12T13:34:55Z</time><name>PT8932</name></trkpt>
<trkpt lat="53.102715" lon="05.971174"><ele>-3.1</ele><time>2021-05-12T13:34:56Z</time><name>PT8933</name></trkpt>
<trkpt lat="53.102713" lon="05.971157"><ele>-3.2</ele><time>2021-05-12T13:34:57Z</time><name>PT8934</name></trkpt>
<trkpt lat="53.102713" lon="05.971139"><ele>-3.4</ele><time>2021-05-12T13:34:58Z</time><name>PT8935</name></trkpt>
<trkpt lat="53.102713" lon="05.971120"><ele>-3.3</ele><time>2021-05-12T13:34:59Z</time><name>PT8936</name></trkpt>
<trkpt lat="53.102713" lon="05.971101"><ele>-3.3</ele><time>2021-05-12T13:35:00Z</time><name>PT8937</name></trkpt>
<trkpt lat="53.102711" lon="05.971080"><ele>-3.4</ele><time>2021-05-12T13:35:01Z</time><name>PT8938</name></trkpt>
<trkpt lat="53.102707" lon="05.971060"><ele>-3.5</ele><time>2021-05-12T13:35:02Z</time><name>PT8939</name></trkpt>
<trkpt lat="53.102703" lon="05.971042"><ele>-3.8</ele><time>2021-05-12T13:35:03Z</time><name>PT8940</name></trkpt>
<trkpt lat="53.102700" lon="05.971025"><ele>-3.8</ele><time>2021-05-12T13:35:04Z</time><name>PT8941</name></trkpt>
<trkpt lat="53.102698" lon="05.971008"><ele>-3.8</ele><time>2021-05-12T13:35:05Z</time><name>PT8942</name></trkpt>
<trkpt lat="53.102696" lon="05.970991"><ele>-3.6</ele><time>2021-05-12T13:35:06Z</time><name>PT8943</name></trkpt>
<trkpt lat="53.102697" lon="05.970974"><ele>-3</ele><time>2021-05-12T13:35:07Z</time><name>PT8944</name></trkpt>
<trkpt lat="53.102697" lon="05.970957"><ele>-2.7</ele><time>2021-05-12T13:35:08Z</time><name>PT8945</name></trkpt>
<trkpt lat="53.102695" lon="05.970942"><ele>-2.6</ele><time>2021-05-12T13:35:09Z</time><name>PT8946</name></trkpt>
<trkpt lat="53.102692" lon="05.970926"><ele>-2.5</ele><time>2021-05-12T13:35:10Z</time><name>PT8947</name></trkpt>
<trkpt lat="53.102688" lon="05.970914"><ele>-2.6</ele><time>2021-05-12T13:35:11Z</time><name>PT8948</name></trkpt>
<trkpt lat="53.102686" lon="05.970901"><ele>-2.6</ele><time>2021-05-12T13:35:12Z</time><name>PT8949</name></trkpt>
<trkpt lat="53.102685" lon="05.970885"><ele>-2.6</ele><time>2021-05-12T13:35:13Z</time><name>PT8950</name></trkpt>
<trkpt lat="53.102685" lon="05.970870"><ele>-2.5</ele><time>2021-05-12T13:35:14Z</time><name>PT8951</name></trkpt>
<trkpt lat="53.102685" lon="05.970856"><ele>-2.5</ele><time>2021-05-12T13:35:15Z</time><name>PT8952</name></trkpt>
<trkpt lat="53.102684" lon="05.970842"><ele>-2.7</ele><time>2021-05-12T13:35:16Z</time><name>PT8953</name></trkpt>
<trkpt lat="53.102682" lon="05.970827"><ele>-2.7</ele><time>2021-05-12T13:35:17Z</time><name>PT8954</name></trkpt>
<trkpt lat="53.102681" lon="05.970810"><ele>-2.8</ele><time>2021-05-12T13:35:18Z</time><name>PT8955</name></trkpt>
<trkpt lat="53.102678" lon="05.970794"><ele>-2.9</ele><time>2021-05-12T13:35:19Z</time><name>PT8956</name></trkpt>
<trkpt lat="53.102676" lon="05.970778"><ele>-2.8</ele><time>2021-05-12T13:35:20Z</time><name>PT8957</name></trkpt>
<trkpt lat="53.102674" lon="05.970758"><ele>-2.6</ele><time>2021-05-12T13:35:21Z</time><name>PT8958</name></trkpt>
<trkpt lat="53.102674" lon="05.970736"><ele>-2.7</ele><time>2021-05-12T13:35:22Z</time><name>PT8959</name></trkpt>
<trkpt lat="53.102673" lon="05.970714"><ele>-2.7</ele><time>2021-05-12T13:35:23Z</time><name>PT8960</name></trkpt>
<trkpt lat="53.102673" lon="05.970696"><ele>-2.6</ele><time>2021-05-12T13:35:24Z</time><name>PT8961</name></trkpt>
<trkpt lat="53.102672" lon="05.970678"><ele>-2.8</ele><time>2021-05-12T13:35:25Z</time><name>PT8962</name></trkpt>
<trkpt lat="53.102671" lon="05.970660"><ele>-2.6</ele><time>2021-05-12T13:35:26Z</time><name>PT8963</name></trkpt>
<trkpt lat="53.102670" lon="05.970641"><ele>-2.6</ele><time>2021-05-12T13:35:27Z</time><name>PT8964</name></trkpt>
<trkpt lat="53.102668" lon="05.970622"><ele>-2.7</ele><time>2021-05-12T13:35:28Z</time><name>PT8965</name></trkpt>
<trkpt lat="53.102664" lon="05.970600"><ele>-2.7</ele><time>2021-05-12T13:35:29Z</time><name>PT8966</name></trkpt>
<trkpt lat="53.102661" lon="05.970579"><ele>-2.8</ele><time>2021-05-12T13:35:30Z</time><name>PT8967</name></trkpt>
<trkpt lat="53.102657" lon="05.970559"><ele>-2.7</ele><time>2021-05-12T13:35:31Z</time><name>PT8968</name></trkpt>
<trkpt lat="53.102654" lon="05.970539"><ele>-2.6</ele><time>2021-05-12T13:35:32Z</time><name>PT8969</name></trkpt>
<trkpt lat="53.102652" lon="05.970528"><ele>-2.6</ele><time>2021-05-12T13:35:33Z</time><name>PT8970</name></trkpt>
<trkpt lat="53.102654" lon="05.970519"><ele>-2.6</ele><time>2021-05-12T13:35:34Z</time><name>PT8971</name></trkpt>
<trkpt lat="53.102653" lon="05.970505"><ele>-2.7</ele><time>2021-05-12T13:35:35Z</time><name>PT8972</name></trkpt>
<trkpt lat="53.102650" lon="05.970487"><ele>-2.7</ele><time>2021-05-12T13:35:36Z</time><name>PT8973</name></trkpt>
<trkpt lat="53.102647" lon="05.970466"><ele>-3.1</ele><time>2021-05-12T13:35:37Z</time><name>PT8974</name></trkpt>
<trkpt lat="53.102644" lon="05.970444"><ele>-3</ele><time>2021-05-12T13:35:38Z</time><name>PT8975</name></trkpt>
<trkpt lat="53.102641" lon="05.970422"><ele>-3.1</ele><time>2021-05-12T13:35:39Z</time><name>PT8976</name></trkpt>
<trkpt lat="53.102636" lon="05.970400"><ele>-3.1</ele><time>2021-05-12T13:35:40Z</time><name>PT8977</name></trkpt>
<trkpt lat="53.102633" lon="05.970380"><ele>-2.9</ele><time>2021-05-12T13:35:41Z</time><name>PT8978</name></trkpt>
<trkpt lat="53.102631" lon="05.970360"><ele>-2.9</ele><time>2021-05-12T13:35:42Z</time><name>PT8979</name></trkpt>
<trkpt lat="53.102630" lon="05.970339"><ele>-2.8</ele><time>2021-05-12T13:35:43Z</time><name>PT8980</name></trkpt>
<trkpt lat="53.102629" lon="05.970319"><ele>-2.9</ele><time>2021-05-12T13:35:44Z</time><name>PT8981</name></trkpt>
<trkpt lat="53.102629" lon="05.970300"><ele>-3</ele><time>2021-05-12T13:35:45Z</time><name>PT8982</name></trkpt>
<trkpt lat="53.102629" lon="05.970281"><ele>-2.8</ele><time>2021-05-12T13:35:46Z</time><name>PT8983</name></trkpt>
<trkpt lat="53.102629" lon="05.970262"><ele>-2.9</ele><time>2021-05-12T13:35:47Z</time><name>PT8984</name></trkpt>
<trkpt lat="53.102629" lon="05.970248"><ele>-2.7</ele><time>2021-05-12T13:35:48Z</time><name>PT8985</name></trkpt>
<trkpt lat="53.102629" lon="05.970245"><ele>-2.9</ele><time>2021-05-12T13:35:49Z</time><name>PT8986</name></trkpt>
<trkpt lat="53.102628" lon="05.970236"><ele>-2.8</ele><time>2021-05-12T13:35:50Z</time><name>PT8987</name></trkpt>
<trkpt lat="53.102627" lon="05.970221"><ele>-2.5</ele><time>2021-05-12T13:35:51Z</time><name>PT8988</name></trkpt>
<trkpt lat="53.102624" lon="05.970200"><ele>-2.4</ele><time>2021-05-12T13:35:52Z</time><name>PT8989</name></trkpt>
<trkpt lat="53.102621" lon="05.970180"><ele>-2.3</ele><time>2021-05-12T13:35:53Z</time><name>PT8990</name></trkpt>
<trkpt lat="53.102619" lon="05.970159"><ele>-2.5</ele><time>2021-05-12T13:35:54Z</time><name>PT8991</name></trkpt>
<trkpt lat="53.102617" lon="05.970139"><ele>-2.7</ele><time>2021-05-12T13:35:55Z</time><name>PT8992</name></trkpt>
<trkpt lat="53.102614" lon="05.970119"><ele>-3</ele><time>2021-05-12T13:35:56Z</time><name>PT8993</name></trkpt>
<trkpt lat="53.102612" lon="05.970098"><ele>-3.1</ele><time>2021-05-12T13:35:57Z</time><name>PT8994</name></trkpt>
<trkpt lat="53.102609" lon="05.970079"><ele>-3.1</ele><time>2021-05-12T13:35:58Z</time><name>PT8995</name></trkpt>
<trkpt lat="53.102605" lon="05.970061"><ele>-3.3</ele><time>2021-05-12T13:35:59Z</time><name>PT8996</name></trkpt>
<trkpt lat="53.102603" lon="05.970042"><ele>-3.3</ele><time>2021-05-12T13:36:00Z</time><name>PT8997</name></trkpt>
<trkpt lat="53.102601" lon="05.970025"><ele>-3.3</ele><time>2021-05-12T13:36:01Z</time><name>PT8998</name></trkpt>
<trkpt lat="53.102600" lon="05.970007"><ele>-3.5</ele><time>2021-05-12T13:36:02Z</time><name>PT8999</name></trkpt>
<trkpt lat="53.102600" lon="05.969990"><ele>-3.4</ele><time>2021-05-12T13:36:03Z</time><name>PT9000</name></trkpt>
<trkpt lat="53.102599" lon="05.969971"><ele>-3.1</ele><time>2021-05-12T13:36:04Z</time><name>PT9001</name></trkpt>
<trkpt lat="53.102598" lon="05.969951"><ele>-3.1</ele><time>2021-05-12T13:36:05Z</time><name>PT9002</name></trkpt>
<trkpt lat="53.102597" lon="05.969932"><ele>-3.1</ele><time>2021-05-12T13:36:06Z</time><name>PT9003</name></trkpt>
<trkpt lat="53.102597" lon="05.969911"><ele>-3.1</ele><time>2021-05-12T13:36:07Z</time><name>PT9004</name></trkpt>
<trkpt lat="53.102596" lon="05.969889"><ele>-3.3</ele><time>2021-05-12T13:36:08Z</time><name>PT9005</name></trkpt>
<trkpt lat="53.102596" lon="05.969868"><ele>-3.4</ele><time>2021-05-12T13:36:09Z</time><name>PT9006</name></trkpt>
<trkpt lat="53.102597" lon="05.969850"><ele>-3.5</ele><time>2021-05-12T13:36:10Z</time><name>PT9007</name></trkpt>
<trkpt lat="53.102595" lon="05.969831"><ele>-3.4</ele><time>2021-05-12T13:36:11Z</time><name>PT9008</name></trkpt>
<trkpt lat="53.102593" lon="05.969811"><ele>-3.5</ele><time>2021-05-12T13:36:12Z</time><name>PT9009</name></trkpt>
<trkpt lat="53.102591" lon="05.969792"><ele>-3.6</ele><time>2021-05-12T13:36:13Z</time><name>PT9010</name></trkpt>
<trkpt lat="53.102589" lon="05.969773"><ele>-3.6</ele><time>2021-05-12T13:36:14Z</time><name>PT9011</name></trkpt>
<trkpt lat="53.102587" lon="05.969752"><ele>-3.6</ele><time>2021-05-12T13:36:15Z</time><name>PT9012</name></trkpt>
<trkpt lat="53.102585" lon="05.969732"><ele>-3.6</ele><time>2021-05-12T13:36:16Z</time><name>PT9013</name></trkpt>
<trkpt lat="53.102583" lon="05.969710"><ele>-3.3</ele><time>2021-05-12T13:36:17Z</time><name>PT9014</name></trkpt>
<trkpt lat="53.102580" lon="05.969688"><ele>-3.1</ele><time>2021-05-12T13:36:18Z</time><name>PT9015</name></trkpt>
<trkpt lat="53.102577" lon="05.969669"><ele>-3.1</ele><time>2021-05-12T13:36:19Z</time><name>PT9016</name></trkpt>
<trkpt lat="53.102574" lon="05.969649"><ele>-2.9</ele><time>2021-05-12T13:36:20Z</time><name>PT9017</name></trkpt>
<trkpt lat="53.102572" lon="05.969631"><ele>-2.9</ele><time>2021-05-12T13:36:21Z</time><name>PT9018</name></trkpt>
<trkpt lat="53.102570" lon="05.969611"><ele>-2.9</ele><time>2021-05-12T13:36:22Z</time><name>PT9019</name></trkpt>
<trkpt lat="53.102568" lon="05.969594"><ele>-2.9</ele><time>2021-05-12T13:36:23Z</time><name>PT9020</name></trkpt>
<trkpt lat="53.102565" lon="05.969576"><ele>-2.8</ele><time>2021-05-12T13:36:24Z</time><name>PT9021</name></trkpt>
<trkpt lat="53.102563" lon="05.969557"><ele>-2.8</ele><time>2021-05-12T13:36:25Z</time><name>PT9022</name></trkpt>
<trkpt lat="53.102563" lon="05.969536"><ele>-2.7</ele><time>2021-05-12T13:36:26Z</time><name>PT9023</name></trkpt>
<trkpt lat="53.102561" lon="05.969515"><ele>-2.8</ele><time>2021-05-12T13:36:27Z</time><name>PT9024</name></trkpt>
<trkpt lat="53.102560" lon="05.969493"><ele>-2.9</ele><time>2021-05-12T13:36:28Z</time><name>PT9025</name></trkpt>
<trkpt lat="53.102560" lon="05.969473"><ele>-2.9</ele><time>2021-05-12T13:36:29Z</time><name>PT9026</name></trkpt>
<trkpt lat="53.102559" lon="05.969454"><ele>-2.9</ele><time>2021-05-12T13:36:30Z</time><name>PT9027</name></trkpt>
<trkpt lat="53.102558" lon="05.969433"><ele>-2.6</ele><time>2021-05-12T13:36:31Z</time><name>PT9028</name></trkpt>
<trkpt lat="53.102556" lon="05.969412"><ele>-2.7</ele><time>2021-05-12T13:36:32Z</time><name>PT9029</name></trkpt>
<trkpt lat="53.102556" lon="05.969391"><ele>-2.8</ele><time>2021-05-12T13:36:33Z</time><name>PT9030</name></trkpt>
<trkpt lat="53.102555" lon="05.969371"><ele>-3.1</ele><time>2021-05-12T13:36:34Z</time><name>PT9031</name></trkpt>
<trkpt lat="53.102555" lon="05.969351"><ele>-3.1</ele><time>2021-05-12T13:36:35Z</time><name>PT9032</name></trkpt>
<trkpt lat="53.102554" lon="05.969333"><ele>-3.3</ele><time>2021-05-12T13:36:36Z</time><name>PT9033</name></trkpt>
<trkpt lat="53.102552" lon="05.969317"><ele>-3.4</ele><time>2021-05-12T13:36:37Z</time><name>PT9034</name></trkpt>
<trkpt lat="53.102550" lon="05.969298"><ele>-3.2</ele><time>2021-05-12T13:36:38Z</time><name>PT9035</name></trkpt>
<trkpt lat="53.102548" lon="05.969277"><ele>-3.2</ele><time>2021-05-12T13:36:39Z</time><name>PT9036</name></trkpt>
<trkpt lat="53.102543" lon="05.969249"><ele>-3.1</ele><time>2021-05-12T13:36:40Z</time><name>PT9037</name></trkpt>
<trkpt lat="53.102537" lon="05.969225"><ele>-3.1</ele><time>2021-05-12T13:36:41Z</time><name>PT9038</name></trkpt>
<trkpt lat="53.102534" lon="05.969203"><ele>-3.1</ele><time>2021-05-12T13:36:42Z</time><name>PT9039</name></trkpt>
<trkpt lat="53.102531" lon="05.969182"><ele>-3.2</ele><time>2021-05-12T13:36:43Z</time><name>PT9040</name></trkpt>
<trkpt lat="53.102528" lon="05.969160"><ele>-3.3</ele><time>2021-05-12T13:36:44Z</time><name>PT9041</name></trkpt>
<trkpt lat="53.102525" lon="05.969139"><ele>-3.3</ele><time>2021-05-12T13:36:45Z</time><name>PT9042</name></trkpt>
<trkpt lat="53.102522" lon="05.969118"><ele>-3.2</ele><time>2021-05-12T13:36:46Z</time><name>PT9043</name></trkpt>
<trkpt lat="53.102519" lon="05.969097"><ele>-3.1</ele><time>2021-05-12T13:36:47Z</time><name>PT9044</name></trkpt>
<trkpt lat="53.102517" lon="05.969077"><ele>-3.1</ele><time>2021-05-12T13:36:48Z</time><name>PT9045</name></trkpt>
<trkpt lat="53.102515" lon="05.969057"><ele>-3.2</ele><time>2021-05-12T13:36:49Z</time><name>PT9046</name></trkpt>
<trkpt lat="53.102514" lon="05.969036"><ele>-3.2</ele><time>2021-05-12T13:36:50Z</time><name>PT9047</name></trkpt>
<trkpt lat="53.102512" lon="05.969016"><ele>-3.1</ele><time>2021-05-12T13:36:51Z</time><name>PT9048</name></trkpt>
<trkpt lat="53.102511" lon="05.968998"><ele>-3.2</ele><time>2021-05-12T13:36:52Z</time><name>PT9049</name></trkpt>
<trkpt lat="53.102510" lon="05.968977"><ele>-3.1</ele><time>2021-05-12T13:36:53Z</time><name>PT9050</name></trkpt>
<trkpt lat="53.102510" lon="05.968956"><ele>-3.1</ele><time>2021-05-12T13:36:54Z</time><name>PT9051</name></trkpt>
<trkpt lat="53.102510" lon="05.968935"><ele>-3</ele><time>2021-05-12T13:36:55Z</time><name>PT9052</name></trkpt>
<trkpt lat="53.102510" lon="05.968915"><ele>-3</ele><time>2021-05-12T13:36:56Z</time><name>PT9053</name></trkpt>
<trkpt lat="53.102510" lon="05.968894"><ele>-3</ele><time>2021-05-12T13:36:57Z</time><name>PT9054</name></trkpt>
<trkpt lat="53.102510" lon="05.968873"><ele>-3.1</ele><time>2021-05-12T13:36:58Z</time><name>PT9055</name></trkpt>
<trkpt lat="53.102509" lon="05.968854"><ele>-3.2</ele><time>2021-05-12T13:36:59Z</time><name>PT9056</name></trkpt>
<trkpt lat="53.102509" lon="05.968834"><ele>-3.4</ele><time>2021-05-12T13:37:00Z</time><name>PT9057</name></trkpt>
<trkpt lat="53.102507" lon="05.968813"><ele>-3.5</ele><time>2021-05-12T13:37:01Z</time><name>PT9058</name></trkpt>
<trkpt lat="53.102506" lon="05.968791"><ele>-3.6</ele><time>2021-05-12T13:37:02Z</time><name>PT9059</name></trkpt>
<trkpt lat="53.102505" lon="05.968770"><ele>-3.6</ele><time>2021-05-12T13:37:03Z</time><name>PT9060</name></trkpt>
<trkpt lat="53.102504" lon="05.968750"><ele>-3.4</ele><time>2021-05-12T13:37:04Z</time><name>PT9061</name></trkpt>
<trkpt lat="53.102502" lon="05.968729"><ele>-3.3</ele><time>2021-05-12T13:37:05Z</time><name>PT9062</name></trkpt>
<trkpt lat="53.102500" lon="05.968710"><ele>-3.2</ele><time>2021-05-12T13:37:06Z</time><name>PT9063</name></trkpt>
<trkpt lat="53.102499" lon="05.968690"><ele>-3.1</ele><time>2021-05-12T13:37:07Z</time><name>PT9064</name></trkpt>
<trkpt lat="53.102496" lon="05.968672"><ele>-3.1</ele><time>2021-05-12T13:37:08Z</time><name>PT9065</name></trkpt>
<trkpt lat="53.102495" lon="05.968651"><ele>-3</ele><time>2021-05-12T13:37:09Z</time><name>PT9066</name></trkpt>
<trkpt lat="53.102492" lon="05.968630"><ele>-2.9</ele><time>2021-05-12T13:37:10Z</time><name>PT9067</name></trkpt>
<trkpt lat="53.102489" lon="05.968611"><ele>-3</ele><time>2021-05-12T13:37:11Z</time><name>PT9068</name></trkpt>
<trkpt lat="53.102487" lon="05.968590"><ele>-3.1</ele><time>2021-05-12T13:37:12Z</time><name>PT9069</name></trkpt>
<trkpt lat="53.102485" lon="05.968570"><ele>-3.2</ele><time>2021-05-12T13:37:13Z</time><name>PT9070</name></trkpt>
<trkpt lat="53.102484" lon="05.968550"><ele>-3.2</ele><time>2021-05-12T13:37:14Z</time><name>PT9071</name></trkpt>
<trkpt lat="53.102480" lon="05.968528"><ele>-3.2</ele><time>2021-05-12T13:37:15Z</time><name>PT9072</name></trkpt>
<trkpt lat="53.102479" lon="05.968508"><ele>-3.1</ele><time>2021-05-12T13:37:16Z</time><name>PT9073</name></trkpt>
<trkpt lat="53.102477" lon="05.968489"><ele>-3</ele><time>2021-05-12T13:37:17Z</time><name>PT9074</name></trkpt>
<trkpt lat="53.102476" lon="05.968472"><ele>-3</ele><time>2021-05-12T13:37:18Z</time><name>PT9075</name></trkpt>
<trkpt lat="53.102474" lon="05.968453"><ele>-3</ele><time>2021-05-12T13:37:19Z</time><name>PT9076</name></trkpt>
<trkpt lat="53.102472" lon="05.968432"><ele>-3</ele><time>2021-05-12T13:37:20Z</time><name>PT9077</name></trkpt>
<trkpt lat="53.102473" lon="05.968413"><ele>-3.1</ele><time>2021-05-12T13:37:21Z</time><name>PT9078</name></trkpt>
<trkpt lat="53.102473" lon="05.968394"><ele>-3</ele><time>2021-05-12T13:37:22Z</time><name>PT9079</name></trkpt>
<trkpt lat="53.102473" lon="05.968374"><ele>-3.1</ele><time>2021-05-12T13:37:23Z</time><name>PT9080</name></trkpt>
<trkpt lat="53.102471" lon="05.968356"><ele>-3.2</ele><time>2021-05-12T13:37:24Z</time><name>PT9081</name></trkpt>
<trkpt lat="53.102470" lon="05.968337"><ele>-3.4</ele><time>2021-05-12T13:37:25Z</time><name>PT9082</name></trkpt>
<trkpt lat="53.102470" lon="05.968318"><ele>-3.5</ele><time>2021-05-12T13:37:26Z</time><name>PT9083</name></trkpt>
<trkpt lat="53.102469" lon="05.968299"><ele>-3.5</ele><time>2021-05-12T13:37:27Z</time><name>PT9084</name></trkpt>
<trkpt lat="53.102469" lon="05.968280"><ele>-3.3</ele><time>2021-05-12T13:37:28Z</time><name>PT9085</name></trkpt>
<trkpt lat="53.102468" lon="05.968262"><ele>-3.1</ele><time>2021-05-12T13:37:29Z</time><name>PT9086</name></trkpt>
<trkpt lat="53.102467" lon="05.968245"><ele>-3.1</ele><time>2021-05-12T13:37:30Z</time><name>PT9087</name></trkpt>
<trkpt lat="53.102464" lon="05.968226"><ele>-3.1</ele><time>2021-05-12T13:37:31Z</time><name>PT9088</name></trkpt>
<trkpt lat="53.102461" lon="05.968207"><ele>-3.1</ele><time>2021-05-12T13:37:32Z</time><name>PT9089</name></trkpt>
<trkpt lat="53.102461" lon="05.968192"><ele>-3.1</ele><time>2021-05-12T13:37:33Z</time><name>PT9090</name></trkpt>
<trkpt lat="53.102460" lon="05.968172"><ele>-3</ele><time>2021-05-12T13:37:34Z</time><name>PT9091</name></trkpt>
<trkpt lat="53.102458" lon="05.968150"><ele>-2.9</ele><time>2021-05-12T13:37:35Z</time><name>PT9092</name></trkpt>
<trkpt lat="53.102455" lon="05.968128"><ele>-3</ele><time>2021-05-12T13:37:36Z</time><name>PT9093</name></trkpt>
<trkpt lat="53.102452" lon="05.968108"><ele>-3.1</ele><time>2021-05-12T13:37:37Z</time><name>PT9094</name></trkpt>
<trkpt lat="53.102449" lon="05.968088"><ele>-3.2</ele><time>2021-05-12T13:37:38Z</time><name>PT9095</name></trkpt>
<trkpt lat="53.102446" lon="05.968068"><ele>-3.2</ele><time>2021-05-12T13:37:39Z</time><name>PT9096</name></trkpt>
<trkpt lat="53.102442" lon="05.968048"><ele>-3.1</ele><time>2021-05-12T13:37:40Z</time><name>PT9097</name></trkpt>
<trkpt lat="53.102440" lon="05.968029"><ele>-3.1</ele><time>2021-05-12T13:37:41Z</time><name>PT9098</name></trkpt>
<trkpt lat="53.102438" lon="05.968009"><ele>-3.1</ele><time>2021-05-12T13:37:42Z</time><name>PT9099</name></trkpt>
<trkpt lat="53.102437" lon="05.967989"><ele>-3.3</ele><time>2021-05-12T13:37:43Z</time><name>PT9100</name></trkpt>
<trkpt lat="53.102435" lon="05.967970"><ele>-3.6</ele><time>2021-05-12T13:37:44Z</time><name>PT9101</name></trkpt>
<trkpt lat="53.102435" lon="05.967951"><ele>-3.7</ele><time>2021-05-12T13:37:45Z</time><name>PT9102</name></trkpt>
<trkpt lat="53.102434" lon="05.967932"><ele>-3.6</ele><time>2021-05-12T13:37:46Z</time><name>PT9103</name></trkpt>
<trkpt lat="53.102432" lon="05.967911"><ele>-3.5</ele><time>2021-05-12T13:37:47Z</time><name>PT9104</name></trkpt>
<trkpt lat="53.102431" lon="05.967891"><ele>-3.4</ele><time>2021-05-12T13:37:48Z</time><name>PT9105</name></trkpt>
<trkpt lat="53.102431" lon="05.967872"><ele>-3.4</ele><time>2021-05-12T13:37:49Z</time><name>PT9106</name></trkpt>
<trkpt lat="53.102430" lon="05.967852"><ele>-3.5</ele><time>2021-05-12T13:37:50Z</time><name>PT9107</name></trkpt>
<trkpt lat="53.102428" lon="05.967832"><ele>-3.3</ele><time>2021-05-12T13:37:51Z</time><name>PT9108</name></trkpt>
<trkpt lat="53.102426" lon="05.967812"><ele>-3.4</ele><time>2021-05-12T13:37:52Z</time><name>PT9109</name></trkpt>
<trkpt lat="53.102424" lon="05.967794"><ele>-3.4</ele><time>2021-05-12T13:37:53Z</time><name>PT9110</name></trkpt>
<trkpt lat="53.102421" lon="05.967777"><ele>-3.4</ele><time>2021-05-12T13:37:54Z</time><name>PT9111</name></trkpt>
<trkpt lat="53.102419" lon="05.967757"><ele>-3.4</ele><time>2021-05-12T13:37:55Z</time><name>PT9112</name></trkpt>
<trkpt lat="53.102417" lon="05.967740"><ele>-3.5</ele><time>2021-05-12T13:37:56Z</time><name>PT9113</name></trkpt>
<trkpt lat="53.102416" lon="05.967722"><ele>-3.4</ele><time>2021-05-12T13:37:57Z</time><name>PT9114</name></trkpt>
<trkpt lat="53.102414" lon="05.967702"><ele>-3.1</ele><time>2021-05-12T13:37:58Z</time><name>PT9115</name></trkpt>
<trkpt lat="53.102413" lon="05.967683"><ele>-3.1</ele><time>2021-05-12T13:37:59Z</time><name>PT9116</name></trkpt>
<trkpt lat="53.102412" lon="05.967664"><ele>-3.1</ele><time>2021-05-12T13:38:00Z</time><name>PT9117</name></trkpt>
<trkpt lat="53.102412" lon="05.967647"><ele>-3.1</ele><time>2021-05-12T13:38:01Z</time><name>PT9118</name></trkpt>
<trkpt lat="53.102412" lon="05.967629"><ele>-3.2</ele><time>2021-05-12T13:38:02Z</time><name>PT9119</name></trkpt>
<trkpt lat="53.102410" lon="05.967610"><ele>-3.1</ele><time>2021-05-12T13:38:03Z</time><name>PT9120</name></trkpt>
<trkpt lat="53.102407" lon="05.967590"><ele>-3.3</ele><time>2021-05-12T13:38:04Z</time><name>PT9121</name></trkpt>
<trkpt lat="53.102404" lon="05.967571"><ele>-3.3</ele><time>2021-05-12T13:38:05Z</time><name>PT9122</name></trkpt>
<trkpt lat="53.102401" lon="05.967553"><ele>-3.3</ele><time>2021-05-12T13:38:06Z</time><name>PT9123</name></trkpt>
<trkpt lat="53.102400" lon="05.967533"><ele>-3.3</ele><time>2021-05-12T13:38:07Z</time><name>PT9124</name></trkpt>
<trkpt lat="53.102398" lon="05.967513"><ele>-3.3</ele><time>2021-05-12T13:38:08Z</time><name>PT9125</name></trkpt>
<trkpt lat="53.102397" lon="05.967493"><ele>-3.4</ele><time>2021-05-12T13:38:09Z</time><name>PT9126</name></trkpt>
<trkpt lat="53.102395" lon="05.967475"><ele>-3.3</ele><time>2021-05-12T13:38:10Z</time><name>PT9127</name></trkpt>
<trkpt lat="53.102395" lon="05.967458"><ele>-3.4</ele><time>2021-05-12T13:38:11Z</time><name>PT9128</name></trkpt>
<trkpt lat="53.102392" lon="05.967440"><ele>-3.1</ele><time>2021-05-12T13:38:12Z</time><name>PT9129</name></trkpt>
<trkpt lat="53.102388" lon="05.967419"><ele>-3.1</ele><time>2021-05-12T13:38:13Z</time><name>PT9130</name></trkpt>
<trkpt lat="53.102386" lon="05.967401"><ele>-2.9</ele><time>2021-05-12T13:38:14Z</time><name>PT9131</name></trkpt>
<trkpt lat="53.102385" lon="05.967381"><ele>-3</ele><time>2021-05-12T13:38:15Z</time><name>PT9132</name></trkpt>
<trkpt lat="53.102385" lon="05.967363"><ele>-3</ele><time>2021-05-12T13:38:16Z</time><name>PT9133</name></trkpt>
<trkpt lat="53.102385" lon="05.967344"><ele>-3</ele><time>2021-05-12T13:38:17Z</time><name>PT9134</name></trkpt>
<trkpt lat="53.102384" lon="05.967325"><ele>-3.1</ele><time>2021-05-12T13:38:18Z</time><name>PT9135</name></trkpt>
<trkpt lat="53.102384" lon="05.967304"><ele>-3.1</ele><time>2021-05-12T13:38:19Z</time><name>PT9136</name></trkpt>
<trkpt lat="53.102383" lon="05.967282"><ele>-3.1</ele><time>2021-05-12T13:38:20Z</time><name>PT9137</name></trkpt>
<trkpt lat="53.102383" lon="05.967262"><ele>-3.2</ele><time>2021-05-12T13:38:21Z</time><name>PT9138</name></trkpt>
<trkpt lat="53.102380" lon="05.967244"><ele>-3.1</ele><time>2021-05-12T13:38:22Z</time><name>PT9139</name></trkpt>
<trkpt lat="53.102377" lon="05.967226"><ele>-3.2</ele><time>2021-05-12T13:38:23Z</time><name>PT9140</name></trkpt>
<trkpt lat="53.102374" lon="05.967210"><ele>-3.1</ele><time>2021-05-12T13:38:24Z</time><name>PT9141</name></trkpt>
<trkpt lat="53.102372" lon="05.967192"><ele>-3.1</ele><time>2021-05-12T13:38:25Z</time><name>PT9142</name></trkpt>
<trkpt lat="53.102371" lon="05.967173"><ele>-3.1</ele><time>2021-05-12T13:38:26Z</time><name>PT9143</name></trkpt>
<trkpt lat="53.102369" lon="05.967154"><ele>-3.1</ele><time>2021-05-12T13:38:27Z</time><name>PT9144</name></trkpt>
<trkpt lat="53.102369" lon="05.967134"><ele>-3.2</ele><time>2021-05-12T13:38:28Z</time><name>PT9145</name></trkpt>
<trkpt lat="53.102367" lon="05.967115"><ele>-3.3</ele><time>2021-05-12T13:38:29Z</time><name>PT9146</name></trkpt>
<trkpt lat="53.102365" lon="05.967094"><ele>-3.3</ele><time>2021-05-12T13:38:30Z</time><name>PT9147</name></trkpt>
<trkpt lat="53.102362" lon="05.967074"><ele>-3.2</ele><time>2021-05-12T13:38:31Z</time><name>PT9148</name></trkpt>
<trkpt lat="53.102359" lon="05.967055"><ele>-3.1</ele><time>2021-05-12T13:38:32Z</time><name>PT9149</name></trkpt>
<trkpt lat="53.102356" lon="05.967036"><ele>-3.2</ele><time>2021-05-12T13:38:33Z</time><name>PT9150</name></trkpt>
<trkpt lat="53.102355" lon="05.967018"><ele>-3.2</ele><time>2021-05-12T13:38:34Z</time><name>PT9151</name></trkpt>
<trkpt lat="53.102354" lon="05.966998"><ele>-3.1</ele><time>2021-05-12T13:38:35Z</time><name>PT9152</name></trkpt>
<trkpt lat="53.102355" lon="05.966977"><ele>-3.3</ele><time>2021-05-12T13:38:36Z</time><name>PT9153</name></trkpt>
<trkpt lat="53.102355" lon="05.966959"><ele>-3.3</ele><time>2021-05-12T13:38:37Z</time><name>PT9154</name></trkpt>
<trkpt lat="53.102354" lon="05.966941"><ele>-3.3</ele><time>2021-05-12T13:38:38Z</time><name>PT9155</name></trkpt>
<trkpt lat="53.102353" lon="05.966923"><ele>-3.2</ele><time>2021-05-12T13:38:39Z</time><name>PT9156</name></trkpt>
<trkpt lat="53.102349" lon="05.966905"><ele>-3.2</ele><time>2021-05-12T13:38:40Z</time><name>PT9157</name></trkpt>
<trkpt lat="53.102346" lon="05.966888"><ele>-3.1</ele><time>2021-05-12T13:38:41Z</time><name>PT9158</name></trkpt>
<trkpt lat="53.102345" lon="05.966871"><ele>-3.1</ele><time>2021-05-12T13:38:42Z</time><name>PT9159</name></trkpt>
<trkpt lat="53.102344" lon="05.966853"><ele>-3.1</ele><time>2021-05-12T13:38:43Z</time><name>PT9160</name></trkpt>
<trkpt lat="53.102344" lon="05.966833"><ele>-3.1</ele><time>2021-05-12T13:38:44Z</time><name>PT9161</name></trkpt>
<trkpt lat="53.102343" lon="05.966813"><ele>-3.1</ele><time>2021-05-12T13:38:45Z</time><name>PT9162</name></trkpt>
<trkpt lat="53.102343" lon="05.966794"><ele>-3.1</ele><time>2021-05-12T13:38:46Z</time><name>PT9163</name></trkpt>
<trkpt lat="53.102341" lon="05.966776"><ele>-2.9</ele><time>2021-05-12T13:38:47Z</time><name>PT9164</name></trkpt>
<trkpt lat="53.102338" lon="05.966758"><ele>-2.9</ele><time>2021-05-12T13:38:48Z</time><name>PT9165</name></trkpt>
<trkpt lat="53.102336" lon="05.966738"><ele>-2.8</ele><time>2021-05-12T13:38:49Z</time><name>PT9166</name></trkpt>
<trkpt lat="53.102333" lon="05.966719"><ele>-2.9</ele><time>2021-05-12T13:38:50Z</time><name>PT9167</name></trkpt>
<trkpt lat="53.102332" lon="05.966701"><ele>-3</ele><time>2021-05-12T13:38:51Z</time><name>PT9168</name></trkpt>
<trkpt lat="53.102330" lon="05.966682"><ele>-3.1</ele><time>2021-05-12T13:38:52Z</time><name>PT9169</name></trkpt>
<trkpt lat="53.102328" lon="05.966662"><ele>-3.1</ele><time>2021-05-12T13:38:53Z</time><name>PT9170</name></trkpt>
<trkpt lat="53.102327" lon="05.966642"><ele>-3.1</ele><time>2021-05-12T13:38:54Z</time><name>PT9171</name></trkpt>
<trkpt lat="53.102326" lon="05.966625"><ele>-2.9</ele><time>2021-05-12T13:38:55Z</time><name>PT9172</name></trkpt>
<trkpt lat="53.102324" lon="05.966604"><ele>-2.9</ele><time>2021-05-12T13:38:56Z</time><name>PT9173</name></trkpt>
<trkpt lat="53.102322" lon="05.966586"><ele>-3</ele><time>2021-05-12T13:38:57Z</time><name>PT9174</name></trkpt>
<trkpt lat="53.102319" lon="05.966567"><ele>-2.9</ele><time>2021-05-12T13:38:58Z</time><name>PT9175</name></trkpt>
<trkpt lat="53.102318" lon="05.966547"><ele>-2.9</ele><time>2021-05-12T13:38:59Z</time><name>PT9176</name></trkpt>
<trkpt lat="53.102315" lon="05.966525"><ele>-3</ele><time>2021-05-12T13:39:00Z</time><name>PT9177</name></trkpt>
<trkpt lat="53.102312" lon="05.966504"><ele>-3</ele><time>2021-05-12T13:39:01Z</time><name>PT9178</name></trkpt>
<trkpt lat="53.102309" lon="05.966484"><ele>-3.1</ele><time>2021-05-12T13:39:02Z</time><name>PT9179</name></trkpt>
<trkpt lat="53.102308" lon="05.966466"><ele>-3.2</ele><time>2021-05-12T13:39:03Z</time><name>PT9180</name></trkpt>
<trkpt lat="53.102306" lon="05.966447"><ele>-3.2</ele><time>2021-05-12T13:39:04Z</time><name>PT9181</name></trkpt>
<trkpt lat="53.102306" lon="05.966427"><ele>-3.2</ele><time>2021-05-12T13:39:05Z</time><name>PT9182</name></trkpt>
<trkpt lat="53.102305" lon="05.966405"><ele>-3.1</ele><time>2021-05-12T13:39:06Z</time><name>PT9183</name></trkpt>
<trkpt lat="53.102305" lon="05.966385"><ele>-3.2</ele><time>2021-05-12T13:39:07Z</time><name>PT9184</name></trkpt>
<trkpt lat="53.102305" lon="05.966365"><ele>-3.1</ele><time>2021-05-12T13:39:08Z</time><name>PT9185</name></trkpt>
<trkpt lat="53.102303" lon="05.966346"><ele>-3.1</ele><time>2021-05-12T13:39:09Z</time><name>PT9186</name></trkpt>
<trkpt lat="53.102302" lon="05.966329"><ele>-3.1</ele><time>2021-05-12T13:39:10Z</time><name>PT9187</name></trkpt>
<trkpt lat="53.102298" lon="05.966311"><ele>-3.2</ele><time>2021-05-12T13:39:11Z</time><name>PT9188</name></trkpt>
<trkpt lat="53.102297" lon="05.966294"><ele>-3.1</ele><time>2021-05-12T13:39:12Z</time><name>PT9189</name></trkpt>
<trkpt lat="53.102295" lon="05.966273"><ele>-3.1</ele><time>2021-05-12T13:39:13Z</time><name>PT9190</name></trkpt>
<trkpt lat="53.102294" lon="05.966252"><ele>-3.1</ele><time>2021-05-12T13:39:14Z</time><name>PT9191</name></trkpt>
<trkpt lat="53.102295" lon="05.966231"><ele>-3.1</ele><time>2021-05-12T13:39:15Z</time><name>PT9192</name></trkpt>
<trkpt lat="53.102293" lon="05.966210"><ele>-3.1</ele><time>2021-05-12T13:39:16Z</time><name>PT9193</name></trkpt>
<trkpt lat="53.102293" lon="05.966189"><ele>-3.1</ele><time>2021-05-12T13:39:17Z</time><name>PT9194</name></trkpt>
<trkpt lat="53.102292" lon="05.966170"><ele>-3.1</ele><time>2021-05-12T13:39:18Z</time><name>PT9195</name></trkpt>
<trkpt lat="53.102289" lon="05.966152"><ele>-3.1</ele><time>2021-05-12T13:39:19Z</time><name>PT9196</name></trkpt>
<trkpt lat="53.102287" lon="05.966134"><ele>-3.1</ele><time>2021-05-12T13:39:20Z</time><name>PT9197</name></trkpt>
<trkpt lat="53.102283" lon="05.966114"><ele>-3.1</ele><time>2021-05-12T13:39:21Z</time><name>PT9198</name></trkpt>
<trkpt lat="53.102282" lon="05.966096"><ele>-3.1</ele><time>2021-05-12T13:39:22Z</time><name>PT9199</name></trkpt>
<trkpt lat="53.102280" lon="05.966079"><ele>-3.1</ele><time>2021-05-12T13:39:23Z</time><name>PT9200</name></trkpt>
<trkpt lat="53.102279" lon="05.966058"><ele>-3.1</ele><time>2021-05-12T13:39:24Z</time><name>PT9201</name></trkpt>
<trkpt lat="53.102277" lon="05.966037"><ele>-3</ele><time>2021-05-12T13:39:25Z</time><name>PT9202</name></trkpt>
<trkpt lat="53.102276" lon="05.966016"><ele>-3.1</ele><time>2021-05-12T13:39:26Z</time><name>PT9203</name></trkpt>
<trkpt lat="53.102275" lon="05.965995"><ele>-3</ele><time>2021-05-12T13:39:27Z</time><name>PT9204</name></trkpt>
<trkpt lat="53.102273" lon="05.965974"><ele>-3</ele><time>2021-05-12T13:39:28Z</time><name>PT9205</name></trkpt>
<trkpt lat="53.102271" lon="05.965952"><ele>-3</ele><time>2021-05-12T13:39:29Z</time><name>PT9206</name></trkpt>
<trkpt lat="53.102270" lon="05.965930"><ele>-2.9</ele><time>2021-05-12T13:39:30Z</time><name>PT9207</name></trkpt>
<trkpt lat="53.102269" lon="05.965911"><ele>-3.1</ele><time>2021-05-12T13:39:31Z</time><name>PT9208</name></trkpt>
<trkpt lat="53.102267" lon="05.965892"><ele>-3.1</ele><time>2021-05-12T13:39:32Z</time><name>PT9209</name></trkpt>
<trkpt lat="53.102265" lon="05.965873"><ele>-2.9</ele><time>2021-05-12T13:39:33Z</time><name>PT9210</name></trkpt>
<trkpt lat="53.102261" lon="05.965856"><ele>-2.7</ele><time>2021-05-12T13:39:34Z</time><name>PT9211</name></trkpt>
<trkpt lat="53.102259" lon="05.965839"><ele>-2.8</ele><time>2021-05-12T13:39:35Z</time><name>PT9212</name></trkpt>
<trkpt lat="53.102257" lon="05.965822"><ele>-2.8</ele><time>2021-05-12T13:39:36Z</time><name>PT9213</name></trkpt>
<trkpt lat="53.102255" lon="05.965806"><ele>-3</ele><time>2021-05-12T13:39:37Z</time><name>PT9214</name></trkpt>
<trkpt lat="53.102254" lon="05.965786"><ele>-3.1</ele><time>2021-05-12T13:39:38Z</time><name>PT9215</name></trkpt>
<trkpt lat="53.102253" lon="05.965766"><ele>-3</ele><time>2021-05-12T13:39:39Z</time><name>PT9216</name></trkpt>
<trkpt lat="53.102252" lon="05.965745"><ele>-3.1</ele><time>2021-05-12T13:39:40Z</time><name>PT9217</name></trkpt>
<trkpt lat="53.102252" lon="05.965724"><ele>-3.1</ele><time>2021-05-12T13:39:41Z</time><name>PT9218</name></trkpt>
<trkpt lat="53.102252" lon="05.965702"><ele>-3.2</ele><time>2021-05-12T13:39:42Z</time><name>PT9219</name></trkpt>
<trkpt lat="53.102254" lon="05.965685"><ele>-3.2</ele><time>2021-05-12T13:39:43Z</time><name>PT9220</name></trkpt>
<trkpt lat="53.102254" lon="05.965666"><ele>-3.4</ele><time>2021-05-12T13:39:44Z</time><name>PT9221</name></trkpt>
<trkpt lat="53.102253" lon="05.965646"><ele>-3.2</ele><time>2021-05-12T13:39:45Z</time><name>PT9222</name></trkpt>
<trkpt lat="53.102251" lon="05.965627"><ele>-3.1</ele><time>2021-05-12T13:39:46Z</time><name>PT9223</name></trkpt>
<trkpt lat="53.102248" lon="05.965608"><ele>-2.9</ele><time>2021-05-12T13:39:47Z</time><name>PT9224</name></trkpt>
<trkpt lat="53.102245" lon="05.965589"><ele>-2.7</ele><time>2021-05-12T13:39:48Z</time><name>PT9225</name></trkpt>
<trkpt lat="53.102242" lon="05.965570"><ele>-2.7</ele><time>2021-05-12T13:39:49Z</time><name>PT9226</name></trkpt>
<trkpt lat="53.102240" lon="05.965552"><ele>-2.7</ele><time>2021-05-12T13:39:50Z</time><name>PT9227</name></trkpt>
<trkpt lat="53.102238" lon="05.965533"><ele>-2.6</ele><time>2021-05-12T13:39:51Z</time><name>PT9228</name></trkpt>
<trkpt lat="53.102238" lon="05.965512"><ele>-2.8</ele><time>2021-05-12T13:39:52Z</time><name>PT9229</name></trkpt>
<trkpt lat="53.102237" lon="05.965492"><ele>-2.9</ele><time>2021-05-12T13:39:53Z</time><name>PT9230</name></trkpt>
<trkpt lat="53.102237" lon="05.965470"><ele>-3</ele><time>2021-05-12T13:39:54Z</time><name>PT9231</name></trkpt>
<trkpt lat="53.102234" lon="05.965453"><ele>-3.1</ele><time>2021-05-12T13:39:55Z</time><name>PT9232</name></trkpt>
<trkpt lat="53.102232" lon="05.965435"><ele>-3.1</ele><time>2021-05-12T13:39:56Z</time><name>PT9233</name></trkpt>
<trkpt lat="53.102231" lon="05.965413"><ele>-3.3</ele><time>2021-05-12T13:39:57Z</time><name>PT9234</name></trkpt>
<trkpt lat="53.102228" lon="05.965394"><ele>-3.4</ele><time>2021-05-12T13:39:58Z</time><name>PT9235</name></trkpt>
<trkpt lat="53.102225" lon="05.965376"><ele>-3.4</ele><time>2021-05-12T13:39:59Z</time><name>PT9236</name></trkpt>
<trkpt lat="53.102223" lon="05.965356"><ele>-3.5</ele><time>2021-05-12T13:40:00Z</time><name>PT9237</name></trkpt>
<trkpt lat="53.102219" lon="05.965336"><ele>-3.3</ele><time>2021-05-12T13:40:01Z</time><name>PT9238</name></trkpt>
<trkpt lat="53.102217" lon="05.965317"><ele>-3</ele><time>2021-05-12T13:40:02Z</time><name>PT9239</name></trkpt>
<trkpt lat="53.102215" lon="05.965298"><ele>-3</ele><time>2021-05-12T13:40:03Z</time><name>PT9240</name></trkpt>
<trkpt lat="53.102213" lon="05.965280"><ele>-3</ele><time>2021-05-12T13:40:04Z</time><name>PT9241</name></trkpt>
<trkpt lat="53.102211" lon="05.965262"><ele>-3.2</ele><time>2021-05-12T13:40:05Z</time><name>PT9242</name></trkpt>
<trkpt lat="53.102209" lon="05.965244"><ele>-3.3</ele><time>2021-05-12T13:40:06Z</time><name>PT9243</name></trkpt>
<trkpt lat="53.102208" lon="05.965225"><ele>-3.5</ele><time>2021-05-12T13:40:07Z</time><name>PT9244</name></trkpt>
<trkpt lat="53.102206" lon="05.965205"><ele>-3.4</ele><time>2021-05-12T13:40:08Z</time><name>PT9245</name></trkpt>
<trkpt lat="53.102205" lon="05.965185"><ele>-3.2</ele><time>2021-05-12T13:40:09Z</time><name>PT9246</name></trkpt>
<trkpt lat="53.102204" lon="05.965166"><ele>-3</ele><time>2021-05-12T13:40:10Z</time><name>PT9247</name></trkpt>
<trkpt lat="53.102203" lon="05.965145"><ele>-2.9</ele><time>2021-05-12T13:40:11Z</time><name>PT9248</name></trkpt>
<trkpt lat="53.102201" lon="05.965122"><ele>-2.8</ele><time>2021-05-12T13:40:12Z</time><name>PT9249</name></trkpt>
<trkpt lat="53.102199" lon="05.965100"><ele>-2.7</ele><time>2021-05-12T13:40:13Z</time><name>PT9250</name></trkpt>
<trkpt lat="53.102197" lon="05.965081"><ele>-2.8</ele><time>2021-05-12T13:40:14Z</time><name>PT9251</name></trkpt>
<trkpt lat="53.102197" lon="05.965061"><ele>-2.7</ele><time>2021-05-12T13:40:15Z</time><name>PT9252</name></trkpt>
<trkpt lat="53.102195" lon="05.965042"><ele>-2.8</ele><time>2021-05-12T13:40:16Z</time><name>PT9253</name></trkpt>
<trkpt lat="53.102194" lon="05.965023"><ele>-3</ele><time>2021-05-12T13:40:17Z</time><name>PT9254</name></trkpt>
<trkpt lat="53.102192" lon="05.965004"><ele>-2.9</ele><time>2021-05-12T13:40:18Z</time><name>PT9255</name></trkpt>
<trkpt lat="53.102189" lon="05.964984"><ele>-3</ele><time>2021-05-12T13:40:19Z</time><name>PT9256</name></trkpt>
<trkpt lat="53.102186" lon="05.964964"><ele>-2.8</ele><time>2021-05-12T13:40:20Z</time><name>PT9257</name></trkpt>
<trkpt lat="53.102182" lon="05.964942"><ele>-2.7</ele><time>2021-05-12T13:40:21Z</time><name>PT9258</name></trkpt>
<trkpt lat="53.102180" lon="05.964920"><ele>-2.7</ele><time>2021-05-12T13:40:22Z</time><name>PT9259</name></trkpt>
<trkpt lat="53.102176" lon="05.964899"><ele>-2.8</ele><time>2021-05-12T13:40:23Z</time><name>PT9260</name></trkpt>
<trkpt lat="53.102174" lon="05.964880"><ele>-2.8</ele><time>2021-05-12T13:40:24Z</time><name>PT9261</name></trkpt>
<trkpt lat="53.102172" lon="05.964862"><ele>-2.9</ele><time>2021-05-12T13:40:25Z</time><name>PT9262</name></trkpt>
<trkpt lat="53.102170" lon="05.964842"><ele>-2.9</ele><time>2021-05-12T13:40:26Z</time><name>PT9263</name></trkpt>
<trkpt lat="53.102171" lon="05.964823"><ele>-3</ele><time>2021-05-12T13:40:27Z</time><name>PT9264</name></trkpt>
<trkpt lat="53.102171" lon="05.964805"><ele>-3.1</ele><time>2021-05-12T13:40:28Z</time><name>PT9265</name></trkpt>
<trkpt lat="53.102170" lon="05.964788"><ele>-3.1</ele><time>2021-05-12T13:40:29Z</time><name>PT9266</name></trkpt>
<trkpt lat="53.102168" lon="05.964769"><ele>-3</ele><time>2021-05-12T13:40:30Z</time><name>PT9267</name></trkpt>
<trkpt lat="53.102166" lon="05.964750"><ele>-3.1</ele><time>2021-05-12T13:40:31Z</time><name>PT9268</name></trkpt>
<trkpt lat="53.102164" lon="05.964731"><ele>-3.1</ele><time>2021-05-12T13:40:32Z</time><name>PT9269</name></trkpt>
<trkpt lat="53.102160" lon="05.964711"><ele>-3.1</ele><time>2021-05-12T13:40:33Z</time><name>PT9270</name></trkpt>
<trkpt lat="53.102158" lon="05.964689"><ele>-3.1</ele><time>2021-05-12T13:40:34Z</time><name>PT9271</name></trkpt>
<trkpt lat="53.102156" lon="05.964670"><ele>-3</ele><time>2021-05-12T13:40:35Z</time><name>PT9272</name></trkpt>
<trkpt lat="53.102156" lon="05.964652"><ele>-3</ele><time>2021-05-12T13:40:36Z</time><name>PT9273</name></trkpt>
<trkpt lat="53.102154" lon="05.964632"><ele>-3</ele><time>2021-05-12T13:40:37Z</time><name>PT9274</name></trkpt>
<trkpt lat="53.102153" lon="05.964612"><ele>-3.1</ele><time>2021-05-12T13:40:38Z</time><name>PT9275</name></trkpt>
<trkpt lat="53.102152" lon="05.964594"><ele>-3.2</ele><time>2021-05-12T13:40:39Z</time><name>PT9276</name></trkpt>
<trkpt lat="53.102152" lon="05.964575"><ele>-3.1</ele><time>2021-05-12T13:40:40Z</time><name>PT9277</name></trkpt>
<trkpt lat="53.102151" lon="05.964555"><ele>-3.1</ele><time>2021-05-12T13:40:41Z</time><name>PT9278</name></trkpt>
<trkpt lat="53.102149" lon="05.964535"><ele>-3.1</ele><time>2021-05-12T13:40:42Z</time><name>PT9279</name></trkpt>
<trkpt lat="53.102147" lon="05.964516"><ele>-3</ele><time>2021-05-12T13:40:43Z</time><name>PT9280</name></trkpt>
<trkpt lat="53.102145" lon="05.964495"><ele>-2.7</ele><time>2021-05-12T13:40:44Z</time><name>PT9281</name></trkpt>
<trkpt lat="53.102143" lon="05.964477"><ele>-2.7</ele><time>2021-05-12T13:40:45Z</time><name>PT9282</name></trkpt>
<trkpt lat="53.102142" lon="05.964461"><ele>-2.6</ele><time>2021-05-12T13:40:46Z</time><name>PT9283</name></trkpt>
<trkpt lat="53.102141" lon="05.964440"><ele>-2.6</ele><time>2021-05-12T13:40:47Z</time><name>PT9284</name></trkpt>
<trkpt lat="53.102141" lon="05.964420"><ele>-2.7</ele><time>2021-05-12T13:40:48Z</time><name>PT9285</name></trkpt>
<trkpt lat="53.102141" lon="05.964399"><ele>-2.7</ele><time>2021-05-12T13:40:49Z</time><name>PT9286</name></trkpt>
<trkpt lat="53.102139" lon="05.964382"><ele>-2.6</ele><time>2021-05-12T13:40:50Z</time><name>PT9287</name></trkpt>
<trkpt lat="53.102137" lon="05.964363"><ele>-2.9</ele><time>2021-05-12T13:40:51Z</time><name>PT9288</name></trkpt>
<trkpt lat="53.102134" lon="05.964344"><ele>-2.7</ele><time>2021-05-12T13:40:52Z</time><name>PT9289</name></trkpt>
<trkpt lat="53.102132" lon="05.964324"><ele>-2.8</ele><time>2021-05-12T13:40:53Z</time><name>PT9290</name></trkpt>
<trkpt lat="53.102129" lon="05.964303"><ele>-2.9</ele><time>2021-05-12T13:40:54Z</time><name>PT9291</name></trkpt>
<trkpt lat="53.102126" lon="05.964284"><ele>-2.9</ele><time>2021-05-12T13:40:55Z</time><name>PT9292</name></trkpt>
<trkpt lat="53.102124" lon="05.964267"><ele>-3</ele><time>2021-05-12T13:40:56Z</time><name>PT9293</name></trkpt>
<trkpt lat="53.102123" lon="05.964247"><ele>-3.1</ele><time>2021-05-12T13:40:57Z</time><name>PT9294</name></trkpt>
<trkpt lat="53.102122" lon="05.964227"><ele>-3.1</ele><time>2021-05-12T13:40:58Z</time><name>PT9295</name></trkpt>
<trkpt lat="53.102122" lon="05.964209"><ele>-3.1</ele><time>2021-05-12T13:40:59Z</time><name>PT9296</name></trkpt>
<trkpt lat="53.102119" lon="05.964190"><ele>-3</ele><time>2021-05-12T13:41:00Z</time><name>PT9297</name></trkpt>
<trkpt lat="53.102117" lon="05.964170"><ele>-2.7</ele><time>2021-05-12T13:41:01Z</time><name>PT9298</name></trkpt>
<trkpt lat="53.102115" lon="05.964151"><ele>-2.7</ele><time>2021-05-12T13:41:02Z</time><name>PT9299</name></trkpt>
<trkpt lat="53.102113" lon="05.964130"><ele>-2.6</ele><time>2021-05-12T13:41:03Z</time><name>PT9300</name></trkpt>
<trkpt lat="53.102110" lon="05.964108"><ele>-2.6</ele><time>2021-05-12T13:41:04Z</time><name>PT9301</name></trkpt>
<trkpt lat="53.102108" lon="05.964090"><ele>-2.6</ele><time>2021-05-12T13:41:05Z</time><name>PT9302</name></trkpt>
<trkpt lat="53.102106" lon="05.964071"><ele>-2.6</ele><time>2021-05-12T13:41:06Z</time><name>PT9303</name></trkpt>
<trkpt lat="53.102105" lon="05.964050"><ele>-2.6</ele><time>2021-05-12T13:41:07Z</time><name>PT9304</name></trkpt>
<trkpt lat="53.102104" lon="05.964031"><ele>-3</ele><time>2021-05-12T13:41:08Z</time><name>PT9305</name></trkpt>
<trkpt lat="53.102103" lon="05.964013"><ele>-3</ele><time>2021-05-12T13:41:09Z</time><name>PT9306</name></trkpt>
<trkpt lat="53.102102" lon="05.963994"><ele>-3</ele><time>2021-05-12T13:41:10Z</time><name>PT9307</name></trkpt>
<trkpt lat="53.102101" lon="05.963976"><ele>-2.8</ele><time>2021-05-12T13:41:11Z</time><name>PT9308</name></trkpt>
<trkpt lat="53.102099" lon="05.963955"><ele>-2.7</ele><time>2021-05-12T13:41:12Z</time><name>PT9309</name></trkpt>
<trkpt lat="53.102097" lon="05.963935"><ele>-2.7</ele><time>2021-05-12T13:41:13Z</time><name>PT9310</name></trkpt>
<trkpt lat="53.102095" lon="05.963915"><ele>-2.6</ele><time>2021-05-12T13:41:14Z</time><name>PT9311</name></trkpt>
<trkpt lat="53.102093" lon="05.963895"><ele>-2.7</ele><time>2021-05-12T13:41:15Z</time><name>PT9312</name></trkpt>
<trkpt lat="53.102091" lon="05.963877"><ele>-2.6</ele><time>2021-05-12T13:41:16Z</time><name>PT9313</name></trkpt>
<trkpt lat="53.102090" lon="05.963859"><ele>-2.5</ele><time>2021-05-12T13:41:17Z</time><name>PT9314</name></trkpt>
<trkpt lat="53.102089" lon="05.963839"><ele>-2.5</ele><time>2021-05-12T13:41:18Z</time><name>PT9315</name></trkpt>
<trkpt lat="53.102088" lon="05.963820"><ele>-2.4</ele><time>2021-05-12T13:41:19Z</time><name>PT9316</name></trkpt>
<trkpt lat="53.102087" lon="05.963803"><ele>-2.4</ele><time>2021-05-12T13:41:20Z</time><name>PT9317</name></trkpt>
<trkpt lat="53.102084" lon="05.963785"><ele>-2.6</ele><time>2021-05-12T13:41:21Z</time><name>PT9318</name></trkpt>
<trkpt lat="53.102081" lon="05.963766"><ele>-2.9</ele><time>2021-05-12T13:41:22Z</time><name>PT9319</name></trkpt>
<trkpt lat="53.102079" lon="05.963748"><ele>-3</ele><time>2021-05-12T13:41:23Z</time><name>PT9320</name></trkpt>
<trkpt lat="53.102079" lon="05.963729"><ele>-3.1</ele><time>2021-05-12T13:41:24Z</time><name>PT9321</name></trkpt>
<trkpt lat="53.102078" lon="05.963709"><ele>-3.1</ele><time>2021-05-12T13:41:25Z</time><name>PT9322</name></trkpt>
<trkpt lat="53.102078" lon="05.963688"><ele>-2.8</ele><time>2021-05-12T13:41:26Z</time><name>PT9323</name></trkpt>
<trkpt lat="53.102075" lon="05.963669"><ele>-2.8</ele><time>2021-05-12T13:41:27Z</time><name>PT9324</name></trkpt>
<trkpt lat="53.102074" lon="05.963651"><ele>-3</ele><time>2021-05-12T13:41:28Z</time><name>PT9325</name></trkpt>
<trkpt lat="53.102073" lon="05.963631"><ele>-3</ele><time>2021-05-12T13:41:29Z</time><name>PT9326</name></trkpt>
<trkpt lat="53.102072" lon="05.963611"><ele>-3</ele><time>2021-05-12T13:41:30Z</time><name>PT9327</name></trkpt>
<trkpt lat="53.102069" lon="05.963593"><ele>-3</ele><time>2021-05-12T13:41:31Z</time><name>PT9328</name></trkpt>
<trkpt lat="53.102067" lon="05.963575"><ele>-2.8</ele><time>2021-05-12T13:41:32Z</time><name>PT9329</name></trkpt>
<trkpt lat="53.102067" lon="05.963556"><ele>-2.8</ele><time>2021-05-12T13:41:33Z</time><name>PT9330</name></trkpt>
<trkpt lat="53.102066" lon="05.963537"><ele>-2.7</ele><time>2021-05-12T13:41:34Z</time><name>PT9331</name></trkpt>
<trkpt lat="53.102065" lon="05.963519"><ele>-2.7</ele><time>2021-05-12T13:41:35Z</time><name>PT9332</name></trkpt>
<trkpt lat="53.102065" lon="05.963501"><ele>-2.6</ele><time>2021-05-12T13:41:36Z</time><name>PT9333</name></trkpt>
<trkpt lat="53.102064" lon="05.963482"><ele>-2.9</ele><time>2021-05-12T13:41:37Z</time><name>PT9334</name></trkpt>
<trkpt lat="53.102060" lon="05.963462"><ele>-2.7</ele><time>2021-05-12T13:41:38Z</time><name>PT9335</name></trkpt>
<trkpt lat="53.102057" lon="05.963444"><ele>-2.7</ele><time>2021-05-12T13:41:39Z</time><name>PT9336</name></trkpt>
<trkpt lat="53.102056" lon="05.963427"><ele>-2.7</ele><time>2021-05-12T13:41:40Z</time><name>PT9337</name></trkpt>
<trkpt lat="53.102056" lon="05.963408"><ele>-2.7</ele><time>2021-05-12T13:41:41Z</time><name>PT9338</name></trkpt>
<trkpt lat="53.102056" lon="05.963389"><ele>-2.8</ele><time>2021-05-12T13:41:42Z</time><name>PT9339</name></trkpt>
<trkpt lat="53.102054" lon="05.963370"><ele>-2.8</ele><time>2021-05-12T13:41:43Z</time><name>PT9340</name></trkpt>
<trkpt lat="53.102053" lon="05.963351"><ele>-2.6</ele><time>2021-05-12T13:41:44Z</time><name>PT9341</name></trkpt>
<trkpt lat="53.102050" lon="05.963331"><ele>-2.6</ele><time>2021-05-12T13:41:45Z</time><name>PT9342</name></trkpt>
<trkpt lat="53.102048" lon="05.963313"><ele>-2.8</ele><time>2021-05-12T13:41:46Z</time><name>PT9343</name></trkpt>
<trkpt lat="53.102046" lon="05.963293"><ele>-2.8</ele><time>2021-05-12T13:41:47Z</time><name>PT9344</name></trkpt>
<trkpt lat="53.102044" lon="05.963276"><ele>-3</ele><time>2021-05-12T13:41:48Z</time><name>PT9345</name></trkpt>
<trkpt lat="53.102044" lon="05.963258"><ele>-3</ele><time>2021-05-12T13:41:49Z</time><name>PT9346</name></trkpt>
<trkpt lat="53.102044" lon="05.963240"><ele>-2.8</ele><time>2021-05-12T13:41:50Z</time><name>PT9347</name></trkpt>
<trkpt lat="53.102043" lon="05.963219"><ele>-2.8</ele><time>2021-05-12T13:41:51Z</time><name>PT9348</name></trkpt>
<trkpt lat="53.102042" lon="05.963200"><ele>-2.8</ele><time>2021-05-12T13:41:52Z</time><name>PT9349</name></trkpt>
<trkpt lat="53.102040" lon="05.963183"><ele>-2.7</ele><time>2021-05-12T13:41:53Z</time><name>PT9350</name></trkpt>
<trkpt lat="53.102038" lon="05.963163"><ele>-2.9</ele><time>2021-05-12T13:41:54Z</time><name>PT9351</name></trkpt>
<trkpt lat="53.102035" lon="05.963144"><ele>-2.8</ele><time>2021-05-12T13:41:55Z</time><name>PT9352</name></trkpt>
<trkpt lat="53.102033" lon="05.963125"><ele>-3</ele><time>2021-05-12T13:41:56Z</time><name>PT9353</name></trkpt>
<trkpt lat="53.102032" lon="05.963106"><ele>-3</ele><time>2021-05-12T13:41:57Z</time><name>PT9354</name></trkpt>
<trkpt lat="53.102030" lon="05.963088"><ele>-3.2</ele><time>2021-05-12T13:41:58Z</time><name>PT9355</name></trkpt>
<trkpt lat="53.102029" lon="05.963071"><ele>-3.3</ele><time>2021-05-12T13:41:59Z</time><name>PT9356</name></trkpt>
<trkpt lat="53.102027" lon="05.963052"><ele>-3.3</ele><time>2021-05-12T13:42:00Z</time><name>PT9357</name></trkpt>
<trkpt lat="53.102026" lon="05.963034"><ele>-3.1</ele><time>2021-05-12T13:42:01Z</time><name>PT9358</name></trkpt>
<trkpt lat="53.102024" lon="05.963015"><ele>-3</ele><time>2021-05-12T13:42:02Z</time><name>PT9359</name></trkpt>
<trkpt lat="53.102023" lon="05.962996"><ele>-2.9</ele><time>2021-05-12T13:42:03Z</time><name>PT9360</name></trkpt>
<trkpt lat="53.102020" lon="05.962977"><ele>-2.9</ele><time>2021-05-12T13:42:04Z</time><name>PT9361</name></trkpt>
<trkpt lat="53.102018" lon="05.962962"><ele>-2.9</ele><time>2021-05-12T13:42:05Z</time><name>PT9362</name></trkpt>
<trkpt lat="53.102016" lon="05.962946"><ele>-3</ele><time>2021-05-12T13:42:06Z</time><name>PT9363</name></trkpt>
<trkpt lat="53.102015" lon="05.962928"><ele>-3</ele><time>2021-05-12T13:42:07Z</time><name>PT9364</name></trkpt>
<trkpt lat="53.102014" lon="05.962910"><ele>-3.1</ele><time>2021-05-12T13:42:08Z</time><name>PT9365</name></trkpt>
<trkpt lat="53.102013" lon="05.962891"><ele>-3.1</ele><time>2021-05-12T13:42:09Z</time><name>PT9366</name></trkpt>
<trkpt lat="53.102012" lon="05.962871"><ele>-2.9</ele><time>2021-05-12T13:42:10Z</time><name>PT9367</name></trkpt>
<trkpt lat="53.102010" lon="05.962852"><ele>-2.8</ele><time>2021-05-12T13:42:11Z</time><name>PT9368</name></trkpt>
<trkpt lat="53.102008" lon="05.962833"><ele>-2.8</ele><time>2021-05-12T13:42:12Z</time><name>PT9369</name></trkpt>
<trkpt lat="53.102004" lon="05.962814"><ele>-2.8</ele><time>2021-05-12T13:42:13Z</time><name>PT9370</name></trkpt>
<trkpt lat="53.102002" lon="05.962797"><ele>-3</ele><time>2021-05-12T13:42:14Z</time><name>PT9371</name></trkpt>
<trkpt lat="53.102001" lon="05.962778"><ele>-3</ele><time>2021-05-12T13:42:15Z</time><name>PT9372</name></trkpt>
<trkpt lat="53.102000" lon="05.962760"><ele>-3</ele><time>2021-05-12T13:42:16Z</time><name>PT9373</name></trkpt>
<trkpt lat="53.101999" lon="05.962742"><ele>-3.1</ele><time>2021-05-12T13:42:17Z</time><name>PT9374</name></trkpt>
<trkpt lat="53.101997" lon="05.962722"><ele>-3.2</ele><time>2021-05-12T13:42:18Z</time><name>PT9375</name></trkpt>
<trkpt lat="53.101995" lon="05.962702"><ele>-3.1</ele><time>2021-05-12T13:42:19Z</time><name>PT9376</name></trkpt>
<trkpt lat="53.101992" lon="05.962683"><ele>-3.1</ele><time>2021-05-12T13:42:20Z</time><name>PT9377</name></trkpt>
<trkpt lat="53.101988" lon="05.962663"><ele>-3.1</ele><time>2021-05-12T13:42:21Z</time><name>PT9378</name></trkpt>
<trkpt lat="53.101987" lon="05.962645"><ele>-2.9</ele><time>2021-05-12T13:42:22Z</time><name>PT9379</name></trkpt>
<trkpt lat="53.101986" lon="05.962627"><ele>-2.9</ele><time>2021-05-12T13:42:23Z</time><name>PT9380</name></trkpt>
<trkpt lat="53.101985" lon="05.962609"><ele>-2.8</ele><time>2021-05-12T13:42:24Z</time><name>PT9381</name></trkpt>
<trkpt lat="53.101985" lon="05.962590"><ele>-2.8</ele><time>2021-05-12T13:42:25Z</time><name>PT9382</name></trkpt>
<trkpt lat="53.101983" lon="05.962571"><ele>-2.7</ele><time>2021-05-12T13:42:26Z</time><name>PT9383</name></trkpt>
<trkpt lat="53.101983" lon="05.962550"><ele>-2.8</ele><time>2021-05-12T13:42:27Z</time><name>PT9384</name></trkpt>
<trkpt lat="53.101980" lon="05.962530"><ele>-2.9</ele><time>2021-05-12T13:42:28Z</time><name>PT9385</name></trkpt>
<trkpt lat="53.101978" lon="05.962510"><ele>-3</ele><time>2021-05-12T13:42:29Z</time><name>PT9386</name></trkpt>
<trkpt lat="53.101974" lon="05.962490"><ele>-3</ele><time>2021-05-12T13:42:30Z</time><name>PT9387</name></trkpt>
<trkpt lat="53.101973" lon="05.962473"><ele>-3.1</ele><time>2021-05-12T13:42:31Z</time><name>PT9388</name></trkpt>
<trkpt lat="53.101973" lon="05.962456"><ele>-3.1</ele><time>2021-05-12T13:42:32Z</time><name>PT9389</name></trkpt>
<trkpt lat="53.101972" lon="05.962437"><ele>-3.1</ele><time>2021-05-12T13:42:33Z</time><name>PT9390</name></trkpt>
<trkpt lat="53.101971" lon="05.962418"><ele>-3.1</ele><time>2021-05-12T13:42:34Z</time><name>PT9391</name></trkpt>
<trkpt lat="53.101969" lon="05.962400"><ele>-3</ele><time>2021-05-12T13:42:35Z</time><name>PT9392</name></trkpt>
<trkpt lat="53.101967" lon="05.962381"><ele>-3</ele><time>2021-05-12T13:42:36Z</time><name>PT9393</name></trkpt>
<trkpt lat="53.101965" lon="05.962361"><ele>-3</ele><time>2021-05-12T13:42:37Z</time><name>PT9394</name></trkpt>
<trkpt lat="53.101962" lon="05.962341"><ele>-3</ele><time>2021-05-12T13:42:38Z</time><name>PT9395</name></trkpt>
<trkpt lat="53.101960" lon="05.962320"><ele>-3.1</ele><time>2021-05-12T13:42:39Z</time><name>PT9396</name></trkpt>
<trkpt lat="53.101958" lon="05.962299"><ele>-3.1</ele><time>2021-05-12T13:42:40Z</time><name>PT9397</name></trkpt>
<trkpt lat="53.101955" lon="05.962278"><ele>-3.1</ele><time>2021-05-12T13:42:41Z</time><name>PT9398</name></trkpt>
<trkpt lat="53.101954" lon="05.962260"><ele>-3.2</ele><time>2021-05-12T13:42:42Z</time><name>PT9399</name></trkpt>
<trkpt lat="53.101953" lon="05.962242"><ele>-3.1</ele><time>2021-05-12T13:42:43Z</time><name>PT9400</name></trkpt>
<trkpt lat="53.101952" lon="05.962223"><ele>-3.1</ele><time>2021-05-12T13:42:44Z</time><name>PT9401</name></trkpt>
<trkpt lat="53.101951" lon="05.962205"><ele>-3.1</ele><time>2021-05-12T13:42:45Z</time><name>PT9402</name></trkpt>
<trkpt lat="53.101949" lon="05.962187"><ele>-3.1</ele><time>2021-05-12T13:42:46Z</time><name>PT9403</name></trkpt>
<trkpt lat="53.101946" lon="05.962168"><ele>-3</ele><time>2021-05-12T13:42:47Z</time><name>PT9404</name></trkpt>
<trkpt lat="53.101944" lon="05.962149"><ele>-3.1</ele><time>2021-05-12T13:42:48Z</time><name>PT9405</name></trkpt>
<trkpt lat="53.101941" lon="05.962129"><ele>-3.1</ele><time>2021-05-12T13:42:49Z</time><name>PT9406</name></trkpt>
<trkpt lat="53.101939" lon="05.962109"><ele>-3.1</ele><time>2021-05-12T13:42:50Z</time><name>PT9407</name></trkpt>
<trkpt lat="53.101936" lon="05.962091"><ele>-3</ele><time>2021-05-12T13:42:51Z</time><name>PT9408</name></trkpt>
<trkpt lat="53.101936" lon="05.962072"><ele>-2.7</ele><time>2021-05-12T13:42:52Z</time><name>PT9409</name></trkpt>
<trkpt lat="53.101937" lon="05.962052"><ele>-2.6</ele><time>2021-05-12T13:42:53Z</time><name>PT9410</name></trkpt>
<trkpt lat="53.101938" lon="05.962033"><ele>-2.6</ele><time>2021-05-12T13:42:54Z</time><name>PT9411</name></trkpt>
<trkpt lat="53.101938" lon="05.962015"><ele>-2.7</ele><time>2021-05-12T13:42:55Z</time><name>PT9412</name></trkpt>
<trkpt lat="53.101938" lon="05.961999"><ele>-2.8</ele><time>2021-05-12T13:42:56Z</time><name>PT9413</name></trkpt>
<trkpt lat="53.101937" lon="05.961981"><ele>-2.8</ele><time>2021-05-12T13:42:57Z</time><name>PT9414</name></trkpt>
<trkpt lat="53.101936" lon="05.961962"><ele>-2.9</ele><time>2021-05-12T13:42:58Z</time><name>PT9415</name></trkpt>
<trkpt lat="53.101934" lon="05.961942"><ele>-3</ele><time>2021-05-12T13:42:59Z</time><name>PT9416</name></trkpt>
<trkpt lat="53.101931" lon="05.961923"><ele>-2.8</ele><time>2021-05-12T13:43:00Z</time><name>PT9417</name></trkpt>
<trkpt lat="53.101929" lon="05.961905"><ele>-2.9</ele><time>2021-05-12T13:43:01Z</time><name>PT9418</name></trkpt>
<trkpt lat="53.101928" lon="05.961885"><ele>-2.8</ele><time>2021-05-12T13:43:02Z</time><name>PT9419</name></trkpt>
<trkpt lat="53.101926" lon="05.961865"><ele>-2.7</ele><time>2021-05-12T13:43:03Z</time><name>PT9420</name></trkpt>
<trkpt lat="53.101925" lon="05.961845"><ele>-2.9</ele><time>2021-05-12T13:43:04Z</time><name>PT9421</name></trkpt>
<trkpt lat="53.101924" lon="05.961825"><ele>-2.8</ele><time>2021-05-12T13:43:05Z</time><name>PT9422</name></trkpt>
<trkpt lat="53.101923" lon="05.961805"><ele>-2.7</ele><time>2021-05-12T13:43:06Z</time><name>PT9423</name></trkpt>
<trkpt lat="53.101922" lon="05.961784"><ele>-3</ele><time>2021-05-12T13:43:07Z</time><name>PT9424</name></trkpt>
<trkpt lat="53.101922" lon="05.961763"><ele>-3</ele><time>2021-05-12T13:43:08Z</time><name>PT9425</name></trkpt>
<trkpt lat="53.101920" lon="05.961742"><ele>-3.2</ele><time>2021-05-12T13:43:09Z</time><name>PT9426</name></trkpt>
<trkpt lat="53.101918" lon="05.961722"><ele>-3.4</ele><time>2021-05-12T13:43:10Z</time><name>PT9427</name></trkpt>
<trkpt lat="53.101916" lon="05.961705"><ele>-3</ele><time>2021-05-12T13:43:11Z</time><name>PT9428</name></trkpt>
<trkpt lat="53.101915" lon="05.961686"><ele>-3</ele><time>2021-05-12T13:43:12Z</time><name>PT9429</name></trkpt>
<trkpt lat="53.101913" lon="05.961665"><ele>-3</ele><time>2021-05-12T13:43:13Z</time><name>PT9430</name></trkpt>
<trkpt lat="53.101910" lon="05.961643"><ele>-2.8</ele><time>2021-05-12T13:43:14Z</time><name>PT9431</name></trkpt>
<trkpt lat="53.101906" lon="05.961624"><ele>-2.9</ele><time>2021-05-12T13:43:15Z</time><name>PT9432</name></trkpt>
<trkpt lat="53.101903" lon="05.961605"><ele>-3.1</ele><time>2021-05-12T13:43:16Z</time><name>PT9433</name></trkpt>
<trkpt lat="53.101900" lon="05.961587"><ele>-3</ele><time>2021-05-12T13:43:17Z</time><name>PT9434</name></trkpt>
<trkpt lat="53.101899" lon="05.961570"><ele>-2.9</ele><time>2021-05-12T13:43:18Z</time><name>PT9435</name></trkpt>
<trkpt lat="53.101898" lon="05.961553"><ele>-3</ele><time>2021-05-12T13:43:19Z</time><name>PT9436</name></trkpt>
<trkpt lat="53.101899" lon="05.961536"><ele>-2.9</ele><time>2021-05-12T13:43:20Z</time><name>PT9437</name></trkpt>
<trkpt lat="53.101897" lon="05.961517"><ele>-2.7</ele><time>2021-05-12T13:43:21Z</time><name>PT9438</name></trkpt>
<trkpt lat="53.101896" lon="05.961498"><ele>-2.8</ele><time>2021-05-12T13:43:22Z</time><name>PT9439</name></trkpt>
<trkpt lat="53.101895" lon="05.961477"><ele>-2.8</ele><time>2021-05-12T13:43:23Z</time><name>PT9440</name></trkpt>
<trkpt lat="53.101894" lon="05.961458"><ele>-2.9</ele><time>2021-05-12T13:43:24Z</time><name>PT9441</name></trkpt>
<trkpt lat="53.101890" lon="05.961437"><ele>-3.1</ele><time>2021-05-12T13:43:25Z</time><name>PT9442</name></trkpt>
<trkpt lat="53.101887" lon="05.961418"><ele>-3</ele><time>2021-05-12T13:43:26Z</time><name>PT9443</name></trkpt>
<trkpt lat="53.101886" lon="05.961399"><ele>-3.1</ele><time>2021-05-12T13:43:27Z</time><name>PT9444</name></trkpt>
<trkpt lat="53.101886" lon="05.961382"><ele>-3.2</ele><time>2021-05-12T13:43:28Z</time><name>PT9445</name></trkpt>
<trkpt lat="53.101885" lon="05.961364"><ele>-3</ele><time>2021-05-12T13:43:29Z</time><name>PT9446</name></trkpt>
<trkpt lat="53.101884" lon="05.961345"><ele>-3.1</ele><time>2021-05-12T13:43:30Z</time><name>PT9447</name></trkpt>
<trkpt lat="53.101883" lon="05.961328"><ele>-3.2</ele><time>2021-05-12T13:43:31Z</time><name>PT9448</name></trkpt>
<trkpt lat="53.101882" lon="05.961309"><ele>-3.1</ele><time>2021-05-12T13:43:32Z</time><name>PT9449</name></trkpt>
<trkpt lat="53.101881" lon="05.961289"><ele>-3.1</ele><time>2021-05-12T13:43:33Z</time><name>PT9450</name></trkpt>
<trkpt lat="53.101879" lon="05.961268"><ele>-3.1</ele><time>2021-05-12T13:43:34Z</time><name>PT9451</name></trkpt>
<trkpt lat="53.101877" lon="05.961250"><ele>-3.1</ele><time>2021-05-12T13:43:35Z</time><name>PT9452</name></trkpt>
<trkpt lat="53.101874" lon="05.961232"><ele>-3.1</ele><time>2021-05-12T13:43:36Z</time><name>PT9453</name></trkpt>
<trkpt lat="53.101872" lon="05.961212"><ele>-3.3</ele><time>2021-05-12T13:43:37Z</time><name>PT9454</name></trkpt>
<trkpt lat="53.101870" lon="05.961192"><ele>-3.3</ele><time>2021-05-12T13:43:38Z</time><name>PT9455</name></trkpt>
<trkpt lat="53.101869" lon="05.961172"><ele>-3.3</ele><time>2021-05-12T13:43:39Z</time><name>PT9456</name></trkpt>
<trkpt lat="53.101867" lon="05.961153"><ele>-3.4</ele><time>2021-05-12T13:43:40Z</time><name>PT9457</name></trkpt>
<trkpt lat="53.101865" lon="05.961135"><ele>-3.5</ele><time>2021-05-12T13:43:41Z</time><name>PT9458</name></trkpt>
<trkpt lat="53.101863" lon="05.961116"><ele>-3.6</ele><time>2021-05-12T13:43:42Z</time><name>PT9459</name></trkpt>
<trkpt lat="53.101860" lon="05.961095"><ele>-3.5</ele><time>2021-05-12T13:43:43Z</time><name>PT9460</name></trkpt>
<trkpt lat="53.101857" lon="05.961074"><ele>-3.4</ele><time>2021-05-12T13:43:44Z</time><name>PT9461</name></trkpt>
<trkpt lat="53.101854" lon="05.961056"><ele>-3.3</ele><time>2021-05-12T13:43:45Z</time><name>PT9462</name></trkpt>
<trkpt lat="53.101853" lon="05.961039"><ele>-3</ele><time>2021-05-12T13:43:46Z</time><name>PT9463</name></trkpt>
<trkpt lat="53.101853" lon="05.961020"><ele>-3.2</ele><time>2021-05-12T13:43:47Z</time><name>PT9464</name></trkpt>
<trkpt lat="53.101853" lon="05.961001"><ele>-3.1</ele><time>2021-05-12T13:43:48Z</time><name>PT9465</name></trkpt>
<trkpt lat="53.101854" lon="05.960981"><ele>-3.1</ele><time>2021-05-12T13:43:49Z</time><name>PT9466</name></trkpt>
<trkpt lat="53.101853" lon="05.960962"><ele>-3.2</ele><time>2021-05-12T13:43:50Z</time><name>PT9467</name></trkpt>
<trkpt lat="53.101852" lon="05.960943"><ele>-3.1</ele><time>2021-05-12T13:43:51Z</time><name>PT9468</name></trkpt>
<trkpt lat="53.101851" lon="05.960921"><ele>-3.1</ele><time>2021-05-12T13:43:52Z</time><name>PT9469</name></trkpt>
<trkpt lat="53.101849" lon="05.960900"><ele>-3.1</ele><time>2021-05-12T13:43:53Z</time><name>PT9470</name></trkpt>
<trkpt lat="53.101847" lon="05.960881"><ele>-3.1</ele><time>2021-05-12T13:43:54Z</time><name>PT9471</name></trkpt>
<trkpt lat="53.101845" lon="05.960863"><ele>-3.2</ele><time>2021-05-12T13:43:55Z</time><name>PT9472</name></trkpt>
<trkpt lat="53.101844" lon="05.960845"><ele>-3.1</ele><time>2021-05-12T13:43:56Z</time><name>PT9473</name></trkpt>
<trkpt lat="53.101841" lon="05.960826"><ele>-3</ele><time>2021-05-12T13:43:57Z</time><name>PT9474</name></trkpt>
<trkpt lat="53.101838" lon="05.960808"><ele>-2.9</ele><time>2021-05-12T13:43:58Z</time><name>PT9475</name></trkpt>
<trkpt lat="53.101836" lon="05.960789"><ele>-2.8</ele><time>2021-05-12T13:43:59Z</time><name>PT9476</name></trkpt>
<trkpt lat="53.101834" lon="05.960768"><ele>-3</ele><time>2021-05-12T13:44:00Z</time><name>PT9477</name></trkpt>
<trkpt lat="53.101831" lon="05.960748"><ele>-3.1</ele><time>2021-05-12T13:44:01Z</time><name>PT9478</name></trkpt>
<trkpt lat="53.101828" lon="05.960731"><ele>-3</ele><time>2021-05-12T13:44:02Z</time><name>PT9479</name></trkpt>
<trkpt lat="53.101825" lon="05.960713"><ele>-2.8</ele><time>2021-05-12T13:44:03Z</time><name>PT9480</name></trkpt>
<trkpt lat="53.101823" lon="05.960697"><ele>-2.9</ele><time>2021-05-12T13:44:04Z</time><name>PT9481</name></trkpt>
<trkpt lat="53.101822" lon="05.960679"><ele>-2.7</ele><time>2021-05-12T13:44:05Z</time><name>PT9482</name></trkpt>
<trkpt lat="53.101821" lon="05.960660"><ele>-2.8</ele><time>2021-05-12T13:44:06Z</time><name>PT9483</name></trkpt>
<trkpt lat="53.101821" lon="05.960643"><ele>-3</ele><time>2021-05-12T13:44:07Z</time><name>PT9484</name></trkpt>
<trkpt lat="53.101821" lon="05.960624"><ele>-3</ele><time>2021-05-12T13:44:08Z</time><name>PT9485</name></trkpt>
<trkpt lat="53.101821" lon="05.960605"><ele>-3</ele><time>2021-05-12T13:44:09Z</time><name>PT9486</name></trkpt>
<trkpt lat="53.101820" lon="05.960584"><ele>-3</ele><time>2021-05-12T13:44:10Z</time><name>PT9487</name></trkpt>
<trkpt lat="53.101819" lon="05.960564"><ele>-3.1</ele><time>2021-05-12T13:44:11Z</time><name>PT9488</name></trkpt>
<trkpt lat="53.101817" lon="05.960546"><ele>-3</ele><time>2021-05-12T13:44:12Z</time><name>PT9489</name></trkpt>
<trkpt lat="53.101816" lon="05.960529"><ele>-3</ele><time>2021-05-12T13:44:13Z</time><name>PT9490</name></trkpt>
<trkpt lat="53.101815" lon="05.960510"><ele>-3</ele><time>2021-05-12T13:44:14Z</time><name>PT9491</name></trkpt>
<trkpt lat="53.101813" lon="05.960491"><ele>-3.1</ele><time>2021-05-12T13:44:15Z</time><name>PT9492</name></trkpt>
<trkpt lat="53.101810" lon="05.960474"><ele>-3.1</ele><time>2021-05-12T13:44:16Z</time><name>PT9493</name></trkpt>
<trkpt lat="53.101808" lon="05.960457"><ele>-3.1</ele><time>2021-05-12T13:44:17Z</time><name>PT9494</name></trkpt>
<trkpt lat="53.101806" lon="05.960439"><ele>-3.1</ele><time>2021-05-12T13:44:18Z</time><name>PT9495</name></trkpt>
<trkpt lat="53.101804" lon="05.960420"><ele>-3.1</ele><time>2021-05-12T13:44:19Z</time><name>PT9496</name></trkpt>
<trkpt lat="53.101801" lon="05.960402"><ele>-3.1</ele><time>2021-05-12T13:44:20Z</time><name>PT9497</name></trkpt>
<trkpt lat="53.101798" lon="05.960383"><ele>-3</ele><time>2021-05-12T13:44:21Z</time><name>PT9498</name></trkpt>
<trkpt lat="53.101798" lon="05.960366"><ele>-3.1</ele><time>2021-05-12T13:44:22Z</time><name>PT9499</name></trkpt>
<trkpt lat="53.101798" lon="05.960346"><ele>-3</ele><time>2021-05-12T13:44:23Z</time><name>PT9500</name></trkpt>
<trkpt lat="53.101798" lon="05.960327"><ele>-3.1</ele><time>2021-05-12T13:44:24Z</time><name>PT9501</name></trkpt>
<trkpt lat="53.101797" lon="05.960306"><ele>-3.1</ele><time>2021-05-12T13:44:25Z</time><name>PT9502</name></trkpt>
<trkpt lat="53.101798" lon="05.960288"><ele>-3.1</ele><time>2021-05-12T13:44:26Z</time><name>PT9503</name></trkpt>
<trkpt lat="53.101798" lon="05.960269"><ele>-3</ele><time>2021-05-12T13:44:27Z</time><name>PT9504</name></trkpt>
<trkpt lat="53.101796" lon="05.960248"><ele>-2.8</ele><time>2021-05-12T13:44:28Z</time><name>PT9505</name></trkpt>
<trkpt lat="53.101794" lon="05.960229"><ele>-2.8</ele><time>2021-05-12T13:44:29Z</time><name>PT9506</name></trkpt>
<trkpt lat="53.101793" lon="05.960211"><ele>-2.8</ele><time>2021-05-12T13:44:30Z</time><name>PT9507</name></trkpt>
<trkpt lat="53.101792" lon="05.960192"><ele>-2.9</ele><time>2021-05-12T13:44:31Z</time><name>PT9508</name></trkpt>
<trkpt lat="53.101790" lon="05.960172"><ele>-3</ele><time>2021-05-12T13:44:32Z</time><name>PT9509</name></trkpt>
<trkpt lat="53.101788" lon="05.960151"><ele>-2.9</ele><time>2021-05-12T13:44:33Z</time><name>PT9510</name></trkpt>
<trkpt lat="53.101786" lon="05.960133"><ele>-3.1</ele><time>2021-05-12T13:44:34Z</time><name>PT9511</name></trkpt>
<trkpt lat="53.101784" lon="05.960116"><ele>-3.1</ele><time>2021-05-12T13:44:35Z</time><name>PT9512</name></trkpt>
<trkpt lat="53.101781" lon="05.960095"><ele>-3.2</ele><time>2021-05-12T13:44:36Z</time><name>PT9513</name></trkpt>
<trkpt lat="53.101779" lon="05.960075"><ele>-3.2</ele><time>2021-05-12T13:44:37Z</time><name>PT9514</name></trkpt>
<trkpt lat="53.101776" lon="05.960056"><ele>-3.4</ele><time>2021-05-12T13:44:38Z</time><name>PT9515</name></trkpt>
<trkpt lat="53.101775" lon="05.960040"><ele>-3.1</ele><time>2021-05-12T13:44:39Z</time><name>PT9516</name></trkpt>
<trkpt lat="53.101774" lon="05.960023"><ele>-3</ele><time>2021-05-12T13:44:40Z</time><name>PT9517</name></trkpt>
<trkpt lat="53.101772" lon="05.960004"><ele>-3.1</ele><time>2021-05-12T13:44:41Z</time><name>PT9518</name></trkpt>
<trkpt lat="53.101771" lon="05.959984"><ele>-3</ele><time>2021-05-12T13:44:42Z</time><name>PT9519</name></trkpt>
<trkpt lat="53.101768" lon="05.959965"><ele>-3.1</ele><time>2021-05-12T13:44:43Z</time><name>PT9520</name></trkpt>
<trkpt lat="53.101767" lon="05.959946"><ele>-3.1</ele><time>2021-05-12T13:44:44Z</time><name>PT9521</name></trkpt>
<trkpt lat="53.101767" lon="05.959930"><ele>-3.1</ele><time>2021-05-12T13:44:45Z</time><name>PT9522</name></trkpt>
<trkpt lat="53.101767" lon="05.959911"><ele>-3.2</ele><time>2021-05-12T13:44:46Z</time><name>PT9523</name></trkpt>
<trkpt lat="53.101767" lon="05.959890"><ele>-3.2</ele><time>2021-05-12T13:44:47Z</time><name>PT9524</name></trkpt>
<trkpt lat="53.101766" lon="05.959869"><ele>-3.2</ele><time>2021-05-12T13:44:48Z</time><name>PT9525</name></trkpt>
<trkpt lat="53.101764" lon="05.959850"><ele>-3.3</ele><time>2021-05-12T13:44:49Z</time><name>PT9526</name></trkpt>
<trkpt lat="53.101761" lon="05.959830"><ele>-3.4</ele><time>2021-05-12T13:44:50Z</time><name>PT9527</name></trkpt>
<trkpt lat="53.101760" lon="05.959812"><ele>-3.5</ele><time>2021-05-12T13:44:51Z</time><name>PT9528</name></trkpt>
<trkpt lat="53.101758" lon="05.959792"><ele>-3.6</ele><time>2021-05-12T13:44:52Z</time><name>PT9529</name></trkpt>
<trkpt lat="53.101756" lon="05.959772"><ele>-3.6</ele><time>2021-05-12T13:44:53Z</time><name>PT9530</name></trkpt>
<trkpt lat="53.101754" lon="05.959754"><ele>-3.4</ele><time>2021-05-12T13:44:54Z</time><name>PT9531</name></trkpt>
<trkpt lat="53.101752" lon="05.959736"><ele>-3.4</ele><time>2021-05-12T13:44:55Z</time><name>PT9532</name></trkpt>
<trkpt lat="53.101749" lon="05.959715"><ele>-3.4</ele><time>2021-05-12T13:44:56Z</time><name>PT9533</name></trkpt>
<trkpt lat="53.101746" lon="05.959695"><ele>-3.5</ele><time>2021-05-12T13:44:57Z</time><name>PT9534</name></trkpt>
<trkpt lat="53.101743" lon="05.959677"><ele>-3.4</ele><time>2021-05-12T13:44:58Z</time><name>PT9535</name></trkpt>
<trkpt lat="53.101740" lon="05.959659"><ele>-3.6</ele><time>2021-05-12T13:44:59Z</time><name>PT9536</name></trkpt>
<trkpt lat="53.101737" lon="05.959642"><ele>-3.5</ele><time>2021-05-12T13:45:00Z</time><name>PT9537</name></trkpt>
<trkpt lat="53.101736" lon="05.959625"><ele>-3.4</ele><time>2021-05-12T13:45:01Z</time><name>PT9538</name></trkpt>
<trkpt lat="53.101736" lon="05.959604"><ele>-3.4</ele><time>2021-05-12T13:45:02Z</time><name>PT9539</name></trkpt>
<trkpt lat="53.101736" lon="05.959584"><ele>-3.4</ele><time>2021-05-12T13:45:03Z</time><name>PT9540</name></trkpt>
<trkpt lat="53.101736" lon="05.959564"><ele>-3.4</ele><time>2021-05-12T13:45:04Z</time><name>PT9541</name></trkpt>
<trkpt lat="53.101735" lon="05.959546"><ele>-3.6</ele><time>2021-05-12T13:45:05Z</time><name>PT9542</name></trkpt>
<trkpt lat="53.101734" lon="05.959527"><ele>-3.5</ele><time>2021-05-12T13:45:06Z</time><name>PT9543</name></trkpt>
<trkpt lat="53.101734" lon="05.959506"><ele>-3.4</ele><time>2021-05-12T13:45:07Z</time><name>PT9544</name></trkpt>
<trkpt lat="53.101733" lon="05.959484"><ele>-3.3</ele><time>2021-05-12T13:45:08Z</time><name>PT9545</name></trkpt>
<trkpt lat="53.101731" lon="05.959463"><ele>-3.1</ele><time>2021-05-12T13:45:09Z</time><name>PT9546</name></trkpt>
<trkpt lat="53.101729" lon="05.959444"><ele>-3</ele><time>2021-05-12T13:45:10Z</time><name>PT9547</name></trkpt>
<trkpt lat="53.101727" lon="05.959425"><ele>-2.8</ele><time>2021-05-12T13:45:11Z</time><name>PT9548</name></trkpt>
<trkpt lat="53.101724" lon="05.959406"><ele>-2.7</ele><time>2021-05-12T13:45:12Z</time><name>PT9549</name></trkpt>
<trkpt lat="53.101722" lon="05.959389"><ele>-2.6</ele><time>2021-05-12T13:45:13Z</time><name>PT9550</name></trkpt>
<trkpt lat="53.101720" lon="05.959369"><ele>-2.9</ele><time>2021-05-12T13:45:14Z</time><name>PT9551</name></trkpt>
<trkpt lat="53.101717" lon="05.959350"><ele>-2.9</ele><time>2021-05-12T13:45:15Z</time><name>PT9552</name></trkpt>
<trkpt lat="53.101713" lon="05.959332"><ele>-3.1</ele><time>2021-05-12T13:45:16Z</time><name>PT9553</name></trkpt>
<trkpt lat="53.101710" lon="05.959315"><ele>-3.1</ele><time>2021-05-12T13:45:17Z</time><name>PT9554</name></trkpt>
<trkpt lat="53.101708" lon="05.959297"><ele>-3</ele><time>2021-05-12T13:45:18Z</time><name>PT9555</name></trkpt>
<trkpt lat="53.101706" lon="05.959278"><ele>-3.1</ele><time>2021-05-12T13:45:19Z</time><name>PT9556</name></trkpt>
<trkpt lat="53.101706" lon="05.959261"><ele>-3.1</ele><time>2021-05-12T13:45:20Z</time><name>PT9557</name></trkpt>
<trkpt lat="53.101705" lon="05.959245"><ele>-3.2</ele><time>2021-05-12T13:45:21Z</time><name>PT9558</name></trkpt>
<trkpt lat="53.101704" lon="05.959226"><ele>-3.3</ele><time>2021-05-12T13:45:22Z</time><name>PT9559</name></trkpt>
<trkpt lat="53.101702" lon="05.959208"><ele>-3.3</ele><time>2021-05-12T13:45:23Z</time><name>PT9560</name></trkpt>
<trkpt lat="53.101700" lon="05.959194"><ele>-3.3</ele><time>2021-05-12T13:45:24Z</time><name>PT9561</name></trkpt>
<trkpt lat="53.101699" lon="05.959181"><ele>-3.3</ele><time>2021-05-12T13:45:25Z</time><name>PT9562</name></trkpt>
<trkpt lat="53.101697" lon="05.959164"><ele>-3.3</ele><time>2021-05-12T13:45:26Z</time><name>PT9563</name></trkpt>
<trkpt lat="53.101695" lon="05.959146"><ele>-3.1</ele><time>2021-05-12T13:45:27Z</time><name>PT9564</name></trkpt>
<trkpt lat="53.101694" lon="05.959128"><ele>-3.2</ele><time>2021-05-12T13:45:28Z</time><name>PT9565</name></trkpt>
<trkpt lat="53.101694" lon="05.959109"><ele>-3.3</ele><time>2021-05-12T13:45:29Z</time><name>PT9566</name></trkpt>
<trkpt lat="53.101692" lon="05.959089"><ele>-3.3</ele><time>2021-05-12T13:45:30Z</time><name>PT9567</name></trkpt>
<trkpt lat="53.101690" lon="05.959069"><ele>-3.3</ele><time>2021-05-12T13:45:31Z</time><name>PT9568</name></trkpt>
<trkpt lat="53.101688" lon="05.959051"><ele>-3.2</ele><time>2021-05-12T13:45:32Z</time><name>PT9569</name></trkpt>
<trkpt lat="53.101686" lon="05.959031"><ele>-3.1</ele><time>2021-05-12T13:45:33Z</time><name>PT9570</name></trkpt>
<trkpt lat="53.101684" lon="05.959011"><ele>-3.1</ele><time>2021-05-12T13:45:34Z</time><name>PT9571</name></trkpt>
<trkpt lat="53.101681" lon="05.958992"><ele>-3</ele><time>2021-05-12T13:45:35Z</time><name>PT9572</name></trkpt>
<trkpt lat="53.101678" lon="05.958973"><ele>-3</ele><time>2021-05-12T13:45:36Z</time><name>PT9573</name></trkpt>
<trkpt lat="53.101676" lon="05.958955"><ele>-3.1</ele><time>2021-05-12T13:45:37Z</time><name>PT9574</name></trkpt>
<trkpt lat="53.101676" lon="05.958940"><ele>-3.1</ele><time>2021-05-12T13:45:38Z</time><name>PT9575</name></trkpt>
<trkpt lat="53.101675" lon="05.958925"><ele>-3.1</ele><time>2021-05-12T13:45:39Z</time><name>PT9576</name></trkpt>
<trkpt lat="53.101674" lon="05.958916"><ele>-3.1</ele><time>2021-05-12T13:45:40Z</time><name>PT9577</name></trkpt>
<trkpt lat="53.101673" lon="05.958906"><ele>-3.1</ele><time>2021-05-12T13:45:41Z</time><name>PT9578</name></trkpt>
<trkpt lat="53.101673" lon="05.958892"><ele>-2.6</ele><time>2021-05-12T13:45:42Z</time><name>PT9579</name></trkpt>
<trkpt lat="53.101673" lon="05.958876"><ele>-2.6</ele><time>2021-05-12T13:45:43Z</time><name>PT9580</name></trkpt>
<trkpt lat="53.101672" lon="05.958856"><ele>-2.6</ele><time>2021-05-12T13:45:44Z</time><name>PT9581</name></trkpt>
<trkpt lat="53.101671" lon="05.958837"><ele>-2.6</ele><time>2021-05-12T13:45:45Z</time><name>PT9582</name></trkpt>
<trkpt lat="53.101669" lon="05.958816"><ele>-2.7</ele><time>2021-05-12T13:45:46Z</time><name>PT9583</name></trkpt>
<trkpt lat="53.101667" lon="05.958799"><ele>-2.9</ele><time>2021-05-12T13:45:47Z</time><name>PT9584</name></trkpt>
<trkpt lat="53.101664" lon="05.958780"><ele>-3</ele><time>2021-05-12T13:45:48Z</time><name>PT9585</name></trkpt>
<trkpt lat="53.101661" lon="05.958762"><ele>-3.1</ele><time>2021-05-12T13:45:49Z</time><name>PT9586</name></trkpt>
<trkpt lat="53.101659" lon="05.958745"><ele>-3.1</ele><time>2021-05-12T13:45:50Z</time><name>PT9587</name></trkpt>
<trkpt lat="53.101659" lon="05.958727"><ele>-3</ele><time>2021-05-12T13:45:51Z</time><name>PT9588</name></trkpt>
<trkpt lat="53.101658" lon="05.958707"><ele>-3</ele><time>2021-05-12T13:45:52Z</time><name>PT9589</name></trkpt>
<trkpt lat="53.101657" lon="05.958686"><ele>-3</ele><time>2021-05-12T13:45:53Z</time><name>PT9590</name></trkpt>
<trkpt lat="53.101655" lon="05.958668"><ele>-3</ele><time>2021-05-12T13:45:54Z</time><name>PT9591</name></trkpt>
<trkpt lat="53.101653" lon="05.958648"><ele>-2.9</ele><time>2021-05-12T13:45:55Z</time><name>PT9592</name></trkpt>
<trkpt lat="53.101651" lon="05.958628"><ele>-3</ele><time>2021-05-12T13:45:56Z</time><name>PT9593</name></trkpt>
<trkpt lat="53.101649" lon="05.958606"><ele>-3.1</ele><time>2021-05-12T13:45:57Z</time><name>PT9594</name></trkpt>
<trkpt lat="53.101647" lon="05.958587"><ele>-3.1</ele><time>2021-05-12T13:45:58Z</time><name>PT9595</name></trkpt>
<trkpt lat="53.101644" lon="05.958568"><ele>-3.1</ele><time>2021-05-12T13:45:59Z</time><name>PT9596</name></trkpt>
<trkpt lat="53.101640" lon="05.958548"><ele>-2.9</ele><time>2021-05-12T13:46:00Z</time><name>PT9597</name></trkpt>
<trkpt lat="53.101636" lon="05.958528"><ele>-2.9</ele><time>2021-05-12T13:46:01Z</time><name>PT9598</name></trkpt>
<trkpt lat="53.101634" lon="05.958509"><ele>-2.8</ele><time>2021-05-12T13:46:02Z</time><name>PT9599</name></trkpt>
<trkpt lat="53.101633" lon="05.958492"><ele>-3</ele><time>2021-05-12T13:46:03Z</time><name>PT9600</name></trkpt>
<trkpt lat="53.101632" lon="05.958472"><ele>-3.1</ele><time>2021-05-12T13:46:04Z</time><name>PT9601</name></trkpt>
<trkpt lat="53.101631" lon="05.958452"><ele>-3.1</ele><time>2021-05-12T13:46:05Z</time><name>PT9602</name></trkpt>
<trkpt lat="53.101629" lon="05.958433"><ele>-3.1</ele><time>2021-05-12T13:46:06Z</time><name>PT9603</name></trkpt>
<trkpt lat="53.101629" lon="05.958415"><ele>-3.1</ele><time>2021-05-12T13:46:07Z</time><name>PT9604</name></trkpt>
<trkpt lat="53.101628" lon="05.958394"><ele>-3.2</ele><time>2021-05-12T13:46:08Z</time><name>PT9605</name></trkpt>
<trkpt lat="53.101626" lon="05.958374"><ele>-3.2</ele><time>2021-05-12T13:46:09Z</time><name>PT9606</name></trkpt>
<trkpt lat="53.101625" lon="05.958356"><ele>-3.1</ele><time>2021-05-12T13:46:10Z</time><name>PT9607</name></trkpt>
<trkpt lat="53.101622" lon="05.958336"><ele>-3</ele><time>2021-05-12T13:46:11Z</time><name>PT9608</name></trkpt>
<trkpt lat="53.101619" lon="05.958316"><ele>-3</ele><time>2021-05-12T13:46:12Z</time><name>PT9609</name></trkpt>
<trkpt lat="53.101616" lon="05.958297"><ele>-3.1</ele><time>2021-05-12T13:46:13Z</time><name>PT9610</name></trkpt>
<trkpt lat="53.101615" lon="05.958280"><ele>-3.1</ele><time>2021-05-12T13:46:14Z</time><name>PT9611</name></trkpt>
<trkpt lat="53.101614" lon="05.958262"><ele>-3.1</ele><time>2021-05-12T13:46:15Z</time><name>PT9612</name></trkpt>
<trkpt lat="53.101614" lon="05.958243"><ele>-3.3</ele><time>2021-05-12T13:46:16Z</time><name>PT9613</name></trkpt>
<trkpt lat="53.101614" lon="05.958224"><ele>-3.3</ele><time>2021-05-12T13:46:17Z</time><name>PT9614</name></trkpt>
<trkpt lat="53.101613" lon="05.958204"><ele>-3.3</ele><time>2021-05-12T13:46:18Z</time><name>PT9615</name></trkpt>
<trkpt lat="53.101611" lon="05.958184"><ele>-3.1</ele><time>2021-05-12T13:46:19Z</time><name>PT9616</name></trkpt>
<trkpt lat="53.101609" lon="05.958165"><ele>-3.1</ele><time>2021-05-12T13:46:20Z</time><name>PT9617</name></trkpt>
<trkpt lat="53.101606" lon="05.958145"><ele>-3.1</ele><time>2021-05-12T13:46:21Z</time><name>PT9618</name></trkpt>
<trkpt lat="53.101603" lon="05.958125"><ele>-3.1</ele><time>2021-05-12T13:46:22Z</time><name>PT9619</name></trkpt>
<trkpt lat="53.101600" lon="05.958104"><ele>-3.4</ele><time>2021-05-12T13:46:23Z</time><name>PT9620</name></trkpt>
<trkpt lat="53.101597" lon="05.958086"><ele>-3.3</ele><time>2021-05-12T13:46:24Z</time><name>PT9621</name></trkpt>
<trkpt lat="53.101596" lon="05.958068"><ele>-3.1</ele><time>2021-05-12T13:46:25Z</time><name>PT9622</name></trkpt>
<trkpt lat="53.101595" lon="05.958050"><ele>-3.1</ele><time>2021-05-12T13:46:26Z</time><name>PT9623</name></trkpt>
<trkpt lat="53.101594" lon="05.958032"><ele>-3.1</ele><time>2021-05-12T13:46:27Z</time><name>PT9624</name></trkpt>
<trkpt lat="53.101593" lon="05.958014"><ele>-3</ele><time>2021-05-12T13:46:28Z</time><name>PT9625</name></trkpt>
<trkpt lat="53.101592" lon="05.957994"><ele>-3</ele><time>2021-05-12T13:46:29Z</time><name>PT9626</name></trkpt>
<trkpt lat="53.101590" lon="05.957975"><ele>-3</ele><time>2021-05-12T13:46:30Z</time><name>PT9627</name></trkpt>
<trkpt lat="53.101588" lon="05.957955"><ele>-2.9</ele><time>2021-05-12T13:46:31Z</time><name>PT9628</name></trkpt>
<trkpt lat="53.101585" lon="05.957935"><ele>-3.1</ele><time>2021-05-12T13:46:32Z</time><name>PT9629</name></trkpt>
<trkpt lat="53.101583" lon="05.957917"><ele>-3.3</ele><time>2021-05-12T13:46:33Z</time><name>PT9630</name></trkpt>
<trkpt lat="53.101583" lon="05.957898"><ele>-3.3</ele><time>2021-05-12T13:46:34Z</time><name>PT9631</name></trkpt>
<trkpt lat="53.101582" lon="05.957881"><ele>-3.4</ele><time>2021-05-12T13:46:35Z</time><name>PT9632</name></trkpt>
<trkpt lat="53.101581" lon="05.957862"><ele>-3.3</ele><time>2021-05-12T13:46:36Z</time><name>PT9633</name></trkpt>
<trkpt lat="53.101580" lon="05.957843"><ele>-3.1</ele><time>2021-05-12T13:46:37Z</time><name>PT9634</name></trkpt>
<trkpt lat="53.101578" lon="05.957826"><ele>-3.1</ele><time>2021-05-12T13:46:38Z</time><name>PT9635</name></trkpt>
<trkpt lat="53.101577" lon="05.957808"><ele>-3.5</ele><time>2021-05-12T13:46:39Z</time><name>PT9636</name></trkpt>
<trkpt lat="53.101576" lon="05.957793"><ele>-3.7</ele><time>2021-05-12T13:46:40Z</time><name>PT9637</name></trkpt>
<trkpt lat="53.101575" lon="05.957781"><ele>-4</ele><time>2021-05-12T13:46:41Z</time><name>PT9638</name></trkpt>
<trkpt lat="53.101574" lon="05.957768"><ele>-3.8</ele><time>2021-05-12T13:46:42Z</time><name>PT9639</name></trkpt>
<trkpt lat="53.101575" lon="05.957736"><ele>-2.6</ele><time>2021-05-12T13:46:44Z</time><name>PT9640</name></trkpt>
<trkpt lat="53.101571" lon="05.957718"><ele>-2.4</ele><time>2021-05-12T13:46:45Z</time><name>PT9641</name></trkpt>
<trkpt lat="53.101569" lon="05.957698"><ele>-2.1</ele><time>2021-05-12T13:46:46Z</time><name>PT9642</name></trkpt>
<trkpt lat="53.101567" lon="05.957683"><ele>-2.7</ele><time>2021-05-12T13:46:47Z</time><name>PT9643</name></trkpt>
<trkpt lat="53.101566" lon="05.957666"><ele>-3</ele><time>2021-05-12T13:46:48Z</time><name>PT9644</name></trkpt>
<trkpt lat="53.101565" lon="05.957645"><ele>-3.1</ele><time>2021-05-12T13:46:49Z</time><name>PT9645</name></trkpt>
<trkpt lat="53.101564" lon="05.957627"><ele>-3.5</ele><time>2021-05-12T13:46:50Z</time><name>PT9646</name></trkpt>
<trkpt lat="53.101563" lon="05.957608"><ele>-3.3</ele><time>2021-05-12T13:46:51Z</time><name>PT9647</name></trkpt>
<trkpt lat="53.101560" lon="05.957590"><ele>-2.9</ele><time>2021-05-12T13:46:52Z</time><name>PT9648</name></trkpt>
<trkpt lat="53.101558" lon="05.957571"><ele>-2.6</ele><time>2021-05-12T13:46:53Z</time><name>PT9649</name></trkpt>
<trkpt lat="53.101554" lon="05.957555"><ele>-1.8</ele><time>2021-05-12T13:46:54Z</time><name>PT9650</name></trkpt>
<trkpt lat="53.101553" lon="05.957542"><ele>-1.7</ele><time>2021-05-12T13:46:55Z</time><name>PT9651</name></trkpt>
<trkpt lat="53.101550" lon="05.957531"><ele>-2.1</ele><time>2021-05-12T13:46:56Z</time><name>PT9652</name></trkpt>
<trkpt lat="53.101549" lon="05.957520"><ele>-2</ele><time>2021-05-12T13:46:57Z</time><name>PT9653</name></trkpt>
<trkpt lat="53.101548" lon="05.957510"><ele>-2.2</ele><time>2021-05-12T13:46:58Z</time><name>PT9654</name></trkpt>
<trkpt lat="53.101549" lon="05.957495"><ele>-2.4</ele><time>2021-05-12T13:46:59Z</time><name>PT9655</name></trkpt>
<trkpt lat="53.101550" lon="05.957474"><ele>-2.4</ele><time>2021-05-12T13:47:00Z</time><name>PT9656</name></trkpt>
<trkpt lat="53.101550" lon="05.957450"><ele>-2.5</ele><time>2021-05-12T13:47:01Z</time><name>PT9657</name></trkpt>
<trkpt lat="53.101548" lon="05.957425"><ele>-2.5</ele><time>2021-05-12T13:47:02Z</time><name>PT9658</name></trkpt>
<trkpt lat="53.101547" lon="05.957403"><ele>-2.5</ele><time>2021-05-12T13:47:03Z</time><name>PT9659</name></trkpt>
<trkpt lat="53.101544" lon="05.957387"><ele>-2.6</ele><time>2021-05-12T13:47:04Z</time><name>PT9660</name></trkpt>
<trkpt lat="53.101542" lon="05.957372"><ele>-2.6</ele><time>2021-05-12T13:47:05Z</time><name>PT9661</name></trkpt>
<trkpt lat="53.101540" lon="05.957355"><ele>-2.6</ele><time>2021-05-12T13:47:06Z</time><name>PT9662</name></trkpt>
<trkpt lat="53.101538" lon="05.957338"><ele>-2.6</ele><time>2021-05-12T13:47:07Z</time><name>PT9663</name></trkpt>
<trkpt lat="53.101537" lon="05.957316"><ele>-2.6</ele><time>2021-05-12T13:47:08Z</time><name>PT9664</name></trkpt>
<trkpt lat="53.101536" lon="05.957291"><ele>-2.4</ele><time>2021-05-12T13:47:09Z</time><name>PT9665</name></trkpt>
<trkpt lat="53.101534" lon="05.957272"><ele>-2.4</ele><time>2021-05-12T13:47:10Z</time><name>PT9666</name></trkpt>
<trkpt lat="53.101531" lon="05.957259"><ele>-2.2</ele><time>2021-05-12T13:47:11Z</time><name>PT9667</name></trkpt>
<trkpt lat="53.101529" lon="05.957248"><ele>-2.1</ele><time>2021-05-12T13:47:12Z</time><name>PT9668</name></trkpt>
<trkpt lat="53.101527" lon="05.957234"><ele>-2.1</ele><time>2021-05-12T13:47:13Z</time><name>PT9669</name></trkpt>
<trkpt lat="53.101527" lon="05.957218"><ele>-2.2</ele><time>2021-05-12T13:47:14Z</time><name>PT9670</name></trkpt>
<trkpt lat="53.101527" lon="05.957195"><ele>-2.1</ele><time>2021-05-12T13:47:15Z</time><name>PT9671</name></trkpt>
<trkpt lat="53.101527" lon="05.957171"><ele>-2.1</ele><time>2021-05-12T13:47:16Z</time><name>PT9672</name></trkpt>
<trkpt lat="53.101525" lon="05.957149"><ele>-2.1</ele><time>2021-05-12T13:47:17Z</time><name>PT9673</name></trkpt>
<trkpt lat="53.101522" lon="05.957132"><ele>-2.2</ele><time>2021-05-12T13:47:18Z</time><name>PT9674</name></trkpt>
<trkpt lat="53.101520" lon="05.957117"><ele>-2.2</ele><time>2021-05-12T13:47:19Z</time><name>PT9675</name></trkpt>
<trkpt lat="53.101519" lon="05.957102"><ele>-2.3</ele><time>2021-05-12T13:47:20Z</time><name>PT9676</name></trkpt>
<trkpt lat="53.101518" lon="05.957085"><ele>-2.4</ele><time>2021-05-12T13:47:21Z</time><name>PT9677</name></trkpt>
<trkpt lat="53.101518" lon="05.957066"><ele>-2.4</ele><time>2021-05-12T13:47:22Z</time><name>PT9678</name></trkpt>
<trkpt lat="53.101518" lon="05.957045"><ele>-2.5</ele><time>2021-05-12T13:47:23Z</time><name>PT9679</name></trkpt>
<trkpt lat="53.101517" lon="05.957021"><ele>-2.6</ele><time>2021-05-12T13:47:24Z</time><name>PT9680</name></trkpt>
<trkpt lat="53.101515" lon="05.957002"><ele>-2.5</ele><time>2021-05-12T13:47:25Z</time><name>PT9681</name></trkpt>
<trkpt lat="53.101512" lon="05.956988"><ele>-2.5</ele><time>2021-05-12T13:47:26Z</time><name>PT9682</name></trkpt>
<trkpt lat="53.101511" lon="05.956975"><ele>-2.6</ele><time>2021-05-12T13:47:27Z</time><name>PT9683</name></trkpt>
<trkpt lat="53.101511" lon="05.956959"><ele>-2.6</ele><time>2021-05-12T13:47:28Z</time><name>PT9684</name></trkpt>
<trkpt lat="53.101511" lon="05.956932"><ele>-2.6</ele><time>2021-05-12T13:47:29Z</time><name>PT9685</name></trkpt>
<trkpt lat="53.101510" lon="05.956902"><ele>-2.5</ele><time>2021-05-12T13:47:30Z</time><name>PT9686</name></trkpt>
<trkpt lat="53.101508" lon="05.956878"><ele>-2.5</ele><time>2021-05-12T13:47:31Z</time><name>PT9687</name></trkpt>
<trkpt lat="53.101506" lon="05.956856"><ele>-2.2</ele><time>2021-05-12T13:47:32Z</time><name>PT9688</name></trkpt>
<trkpt lat="53.101503" lon="05.956837"><ele>-2.3</ele><time>2021-05-12T13:47:33Z</time><name>PT9689</name></trkpt>
<trkpt lat="53.101501" lon="05.956824"><ele>-2.1</ele><time>2021-05-12T13:47:34Z</time><name>PT9690</name></trkpt>
<trkpt lat="53.101500" lon="05.956812"><ele>-2.2</ele><time>2021-05-12T13:47:35Z</time><name>PT9691</name></trkpt>
<trkpt lat="53.101498" lon="05.956797"><ele>-2.2</ele><time>2021-05-12T13:47:36Z</time><name>PT9692</name></trkpt>
<trkpt lat="53.101496" lon="05.956777"><ele>-2.2</ele><time>2021-05-12T13:47:37Z</time><name>PT9693</name></trkpt>
<trkpt lat="53.101495" lon="05.956752"><ele>-2.2</ele><time>2021-05-12T13:47:38Z</time><name>PT9694</name></trkpt>
<trkpt lat="53.101493" lon="05.956729"><ele>-2.2</ele><time>2021-05-12T13:47:39Z</time><name>PT9695</name></trkpt>
<trkpt lat="53.101491" lon="05.956711"><ele>-2.1</ele><time>2021-05-12T13:47:40Z</time><name>PT9696</name></trkpt>
<trkpt lat="53.101488" lon="05.956696"><ele>-2.1</ele><time>2021-05-12T13:47:41Z</time><name>PT9697</name></trkpt>
<trkpt lat="53.101485" lon="05.956683"><ele>-2.1</ele><time>2021-05-12T13:47:42Z</time><name>PT9698</name></trkpt>
<trkpt lat="53.101484" lon="05.956672"><ele>-2</ele><time>2021-05-12T13:47:43Z</time><name>PT9699</name></trkpt>
<trkpt lat="53.101484" lon="05.956654"><ele>-2.1</ele><time>2021-05-12T13:47:44Z</time><name>PT9700</name></trkpt>
<trkpt lat="53.101483" lon="05.956632"><ele>-2</ele><time>2021-05-12T13:47:45Z</time><name>PT9701</name></trkpt>
<trkpt lat="53.101481" lon="05.956610"><ele>-1.9</ele><time>2021-05-12T13:47:46Z</time><name>PT9702</name></trkpt>
<trkpt lat="53.101480" lon="05.956591"><ele>-2</ele><time>2021-05-12T13:47:47Z</time><name>PT9703</name></trkpt>
<trkpt lat="53.101478" lon="05.956576"><ele>-2</ele><time>2021-05-12T13:47:48Z</time><name>PT9704</name></trkpt>
<trkpt lat="53.101476" lon="05.956565"><ele>-1.9</ele><time>2021-05-12T13:47:49Z</time><name>PT9705</name></trkpt>
<trkpt lat="53.101474" lon="05.956558"><ele>-2</ele><time>2021-05-12T13:47:50Z</time><name>PT9706</name></trkpt>
<trkpt lat="53.101474" lon="05.956554"><ele>-2</ele><time>2021-05-12T13:47:51Z</time><name>PT9707</name></trkpt>
<trkpt lat="53.101474" lon="05.956547"><ele>-2.2</ele><time>2021-05-12T13:47:52Z</time><name>PT9708</name></trkpt>
<trkpt lat="53.101473" lon="05.956539"><ele>-2.1</ele><time>2021-05-12T13:47:53Z</time><name>PT9709</name></trkpt>
<trkpt lat="53.101471" lon="05.956528"><ele>-2.1</ele><time>2021-05-12T13:47:54Z</time><name>PT9710</name></trkpt>
<trkpt lat="53.101470" lon="05.956510"><ele>-2.2</ele><time>2021-05-12T13:47:55Z</time><name>PT9711</name></trkpt>
<trkpt lat="53.101469" lon="05.956490"><ele>-2.2</ele><time>2021-05-12T13:47:56Z</time><name>PT9712</name></trkpt>
<trkpt lat="53.101467" lon="05.956466"><ele>-2.1</ele><time>2021-05-12T13:47:57Z</time><name>PT9713</name></trkpt>
<trkpt lat="53.101465" lon="05.956442"><ele>-2.4</ele><time>2021-05-12T13:47:58Z</time><name>PT9714</name></trkpt>
<trkpt lat="53.101464" lon="05.956421"><ele>-2.5</ele><time>2021-05-12T13:47:59Z</time><name>PT9715</name></trkpt>
<trkpt lat="53.101462" lon="05.956407"><ele>-2.4</ele><time>2021-05-12T13:48:00Z</time><name>PT9716</name></trkpt>
<trkpt lat="53.101460" lon="05.956391"><ele>-2.3</ele><time>2021-05-12T13:48:01Z</time><name>PT9717</name></trkpt>
<trkpt lat="53.101459" lon="05.956373"><ele>-2.1</ele><time>2021-05-12T13:48:02Z</time><name>PT9718</name></trkpt>
<trkpt lat="53.101458" lon="05.956353"><ele>-2</ele><time>2021-05-12T13:48:03Z</time><name>PT9719</name></trkpt>
<trkpt lat="53.101458" lon="05.956332"><ele>-1.8</ele><time>2021-05-12T13:48:04Z</time><name>PT9720</name></trkpt>
<trkpt lat="53.101456" lon="05.956308"><ele>-2.1</ele><time>2021-05-12T13:48:05Z</time><name>PT9721</name></trkpt>
<trkpt lat="53.101453" lon="05.956286"><ele>-2.2</ele><time>2021-05-12T13:48:06Z</time><name>PT9722</name></trkpt>
<trkpt lat="53.101450" lon="05.956268"><ele>-2.5</ele><time>2021-05-12T13:48:07Z</time><name>PT9723</name></trkpt>
<trkpt lat="53.101448" lon="05.956254"><ele>-2.4</ele><time>2021-05-12T13:48:08Z</time><name>PT9724</name></trkpt>
<trkpt lat="53.101446" lon="05.956240"><ele>-2.5</ele><time>2021-05-12T13:48:09Z</time><name>PT9725</name></trkpt>
<trkpt lat="53.101444" lon="05.956224"><ele>-2.6</ele><time>2021-05-12T13:48:10Z</time><name>PT9726</name></trkpt>
<trkpt lat="53.101444" lon="05.956202"><ele>-2.6</ele><time>2021-05-12T13:48:11Z</time><name>PT9727</name></trkpt>
<trkpt lat="53.101444" lon="05.956178"><ele>-2.5</ele><time>2021-05-12T13:48:12Z</time><name>PT9728</name></trkpt>
<trkpt lat="53.101442" lon="05.956154"><ele>-2.5</ele><time>2021-05-12T13:48:13Z</time><name>PT9729</name></trkpt>
<trkpt lat="53.101440" lon="05.956132"><ele>-2.5</ele><time>2021-05-12T13:48:14Z</time><name>PT9730</name></trkpt>
<trkpt lat="53.101436" lon="05.956116"><ele>-2.2</ele><time>2021-05-12T13:48:15Z</time><name>PT9731</name></trkpt>
<trkpt lat="53.101435" lon="05.956104"><ele>-2.1</ele><time>2021-05-12T13:48:16Z</time><name>PT9732</name></trkpt>
<trkpt lat="53.101436" lon="05.956095"><ele>-2.2</ele><time>2021-05-12T13:48:17Z</time><name>PT9733</name></trkpt>
<trkpt lat="53.101435" lon="05.956080"><ele>-2.3</ele><time>2021-05-12T13:48:18Z</time><name>PT9734</name></trkpt>
<trkpt lat="53.101433" lon="05.956057"><ele>-2.3</ele><time>2021-05-12T13:48:19Z</time><name>PT9735</name></trkpt>
<trkpt lat="53.101430" lon="05.956036"><ele>-2.4</ele><time>2021-05-12T13:48:20Z</time><name>PT9736</name></trkpt>
<trkpt lat="53.101427" lon="05.956021"><ele>-2.5</ele><time>2021-05-12T13:48:21Z</time><name>PT9737</name></trkpt>
<trkpt lat="53.101425" lon="05.956008"><ele>-2.4</ele><time>2021-05-12T13:48:22Z</time><name>PT9738</name></trkpt>
<trkpt lat="53.101422" lon="05.955995"><ele>-2.4</ele><time>2021-05-12T13:48:23Z</time><name>PT9739</name></trkpt>
<trkpt lat="53.101421" lon="05.955979"><ele>-2.4</ele><time>2021-05-12T13:48:24Z</time><name>PT9740</name></trkpt>
<trkpt lat="53.101421" lon="05.955959"><ele>-2.5</ele><time>2021-05-12T13:48:25Z</time><name>PT9741</name></trkpt>
<trkpt lat="53.101420" lon="05.955935"><ele>-2.6</ele><time>2021-05-12T13:48:26Z</time><name>PT9742</name></trkpt>
<trkpt lat="53.101419" lon="05.955913"><ele>-2.6</ele><time>2021-05-12T13:48:27Z</time><name>PT9743</name></trkpt>
<trkpt lat="53.101416" lon="05.955896"><ele>-2.6</ele><time>2021-05-12T13:48:28Z</time><name>PT9744</name></trkpt>
<trkpt lat="53.101414" lon="05.955884"><ele>-2.4</ele><time>2021-05-12T13:48:29Z</time><name>PT9745</name></trkpt>
<trkpt lat="53.101413" lon="05.955872"><ele>-2.5</ele><time>2021-05-12T13:48:30Z</time><name>PT9746</name></trkpt>
<trkpt lat="53.101412" lon="05.955855"><ele>-2.4</ele><time>2021-05-12T13:48:31Z</time><name>PT9747</name></trkpt>
<trkpt lat="53.101412" lon="05.955833"><ele>-2.5</ele><time>2021-05-12T13:48:32Z</time><name>PT9748</name></trkpt>
<trkpt lat="53.101410" lon="05.955808"><ele>-2.4</ele><time>2021-05-12T13:48:33Z</time><name>PT9749</name></trkpt>
<trkpt lat="53.101408" lon="05.955785"><ele>-2.5</ele><time>2021-05-12T13:48:34Z</time><name>PT9750</name></trkpt>
<trkpt lat="53.101406" lon="05.955769"><ele>-2.6</ele><time>2021-05-12T13:48:35Z</time><name>PT9751</name></trkpt>
<trkpt lat="53.101404" lon="05.955759"><ele>-2.5</ele><time>2021-05-12T13:48:36Z</time><name>PT9752</name></trkpt>
<trkpt lat="53.101404" lon="05.955754"><ele>-2.5</ele><time>2021-05-12T13:48:37Z</time><name>PT9753</name></trkpt>
<trkpt lat="53.101404" lon="05.955753"><ele>-2.6</ele><time>2021-05-12T13:48:38Z</time><name>PT9754</name></trkpt>
<trkpt lat="53.101404" lon="05.955748"><ele>-2.6</ele><time>2021-05-12T13:48:39Z</time><name>PT9755</name></trkpt>
<trkpt lat="53.101405" lon="05.955733"><ele>-2.6</ele><time>2021-05-12T13:48:40Z</time><name>PT9756</name></trkpt>
<trkpt lat="53.101404" lon="05.955715"><ele>-2.4</ele><time>2021-05-12T13:48:41Z</time><name>PT9757</name></trkpt>
<trkpt lat="53.101402" lon="05.955699"><ele>-2.3</ele><time>2021-05-12T13:48:42Z</time><name>PT9758</name></trkpt>
<trkpt lat="53.101399" lon="05.955687"><ele>-2.1</ele><time>2021-05-12T13:48:43Z</time><name>PT9759</name></trkpt>
<trkpt lat="53.101398" lon="05.955670"><ele>-2.1</ele><time>2021-05-12T13:48:44Z</time><name>PT9760</name></trkpt>
<trkpt lat="53.101396" lon="05.955654"><ele>-2.2</ele><time>2021-05-12T13:48:45Z</time><name>PT9761</name></trkpt>
<trkpt lat="53.101395" lon="05.955638"><ele>-2.3</ele><time>2021-05-12T13:48:46Z</time><name>PT9762</name></trkpt>
<trkpt lat="53.101394" lon="05.955616"><ele>-2.5</ele><time>2021-05-12T13:48:47Z</time><name>PT9763</name></trkpt>
<trkpt lat="53.101392" lon="05.955594"><ele>-2.4</ele><time>2021-05-12T13:48:48Z</time><name>PT9764</name></trkpt>
<trkpt lat="53.101390" lon="05.955577"><ele>-2.4</ele><time>2021-05-12T13:48:49Z</time><name>PT9765</name></trkpt>
<trkpt lat="53.101387" lon="05.955562"><ele>-2.3</ele><time>2021-05-12T13:48:50Z</time><name>PT9766</name></trkpt>
<trkpt lat="53.101384" lon="05.955549"><ele>-2.5</ele><time>2021-05-12T13:48:51Z</time><name>PT9767</name></trkpt>
<trkpt lat="53.101383" lon="05.955535"><ele>-2.3</ele><time>2021-05-12T13:48:52Z</time><name>PT9768</name></trkpt>
<trkpt lat="53.101383" lon="05.955518"><ele>-2.4</ele><time>2021-05-12T13:48:53Z</time><name>PT9769</name></trkpt>
<trkpt lat="53.101383" lon="05.955500"><ele>-2.3</ele><time>2021-05-12T13:48:54Z</time><name>PT9770</name></trkpt>
<trkpt lat="53.101382" lon="05.955478"><ele>-2.3</ele><time>2021-05-12T13:48:55Z</time><name>PT9771</name></trkpt>
<trkpt lat="53.101380" lon="05.955454"><ele>-2.2</ele><time>2021-05-12T13:48:56Z</time><name>PT9772</name></trkpt>
<trkpt lat="53.101378" lon="05.955432"><ele>-2.1</ele><time>2021-05-12T13:48:57Z</time><name>PT9773</name></trkpt>
<trkpt lat="53.101375" lon="05.955417"><ele>-2.1</ele><time>2021-05-12T13:48:58Z</time><name>PT9774</name></trkpt>
<trkpt lat="53.101372" lon="05.955402"><ele>-2.1</ele><time>2021-05-12T13:48:59Z</time><name>PT9775</name></trkpt>
<trkpt lat="53.101372" lon="05.955387"><ele>-2</ele><time>2021-05-12T13:49:00Z</time><name>PT9776</name></trkpt>
<trkpt lat="53.101371" lon="05.955369"><ele>-2.1</ele><time>2021-05-12T13:49:01Z</time><name>PT9777</name></trkpt>
<trkpt lat="53.101370" lon="05.955348"><ele>-2.1</ele><time>2021-05-12T13:49:02Z</time><name>PT9778</name></trkpt>
<trkpt lat="53.101368" lon="05.955327"><ele>-2.1</ele><time>2021-05-12T13:49:03Z</time><name>PT9779</name></trkpt>
<trkpt lat="53.101365" lon="05.955309"><ele>-2.1</ele><time>2021-05-12T13:49:04Z</time><name>PT9780</name></trkpt>
<trkpt lat="53.101362" lon="05.955294"><ele>-2</ele><time>2021-05-12T13:49:05Z</time><name>PT9781</name></trkpt>
<trkpt lat="53.101361" lon="05.955278"><ele>-2.1</ele><time>2021-05-12T13:49:06Z</time><name>PT9782</name></trkpt>
<trkpt lat="53.101361" lon="05.955263"><ele>-2.1</ele><time>2021-05-12T13:49:07Z</time><name>PT9783</name></trkpt>
<trkpt lat="53.101360" lon="05.955245"><ele>-2.1</ele><time>2021-05-12T13:49:08Z</time><name>PT9784</name></trkpt>
<trkpt lat="53.101360" lon="05.955224"><ele>-2.1</ele><time>2021-05-12T13:49:09Z</time><name>PT9785</name></trkpt>
<trkpt lat="53.101358" lon="05.955201"><ele>-2.2</ele><time>2021-05-12T13:49:10Z</time><name>PT9786</name></trkpt>
<trkpt lat="53.101356" lon="05.955181"><ele>-2.3</ele><time>2021-05-12T13:49:11Z</time><name>PT9787</name></trkpt>
<trkpt lat="53.101353" lon="05.955167"><ele>-2.3</ele><time>2021-05-12T13:49:12Z</time><name>PT9788</name></trkpt>
<trkpt lat="53.101351" lon="05.955153"><ele>-2.3</ele><time>2021-05-12T13:49:13Z</time><name>PT9789</name></trkpt>
<trkpt lat="53.101349" lon="05.955142"><ele>-2.4</ele><time>2021-05-12T13:49:14Z</time><name>PT9790</name></trkpt>
<trkpt lat="53.101349" lon="05.955126"><ele>-2.3</ele><time>2021-05-12T13:49:15Z</time><name>PT9791</name></trkpt>
<trkpt lat="53.101349" lon="05.955106"><ele>-2.3</ele><time>2021-05-12T13:49:16Z</time><name>PT9792</name></trkpt>
<trkpt lat="53.101349" lon="05.955083"><ele>-2.2</ele><time>2021-05-12T13:49:17Z</time><name>PT9793</name></trkpt>
<trkpt lat="53.101348" lon="05.955061"><ele>-2.2</ele><time>2021-05-12T13:49:18Z</time><name>PT9794</name></trkpt>
<trkpt lat="53.101345" lon="05.955044"><ele>-2.2</ele><time>2021-05-12T13:49:19Z</time><name>PT9795</name></trkpt>
<trkpt lat="53.101342" lon="05.955031"><ele>-2.2</ele><time>2021-05-12T13:49:20Z</time><name>PT9796</name></trkpt>
<trkpt lat="53.101341" lon="05.955018"><ele>-2.1</ele><time>2021-05-12T13:49:21Z</time><name>PT9797</name></trkpt>
<trkpt lat="53.101340" lon="05.955004"><ele>-2.1</ele><time>2021-05-12T13:49:22Z</time><name>PT9798</name></trkpt>
<trkpt lat="53.101339" lon="05.954987"><ele>-1.9</ele><time>2021-05-12T13:49:23Z</time><name>PT9799</name></trkpt>
<trkpt lat="53.101340" lon="05.954965"><ele>-2</ele><time>2021-05-12T13:49:24Z</time><name>PT9800</name></trkpt>
<trkpt lat="53.101339" lon="05.954941"><ele>-2.1</ele><time>2021-05-12T13:49:25Z</time><name>PT9801</name></trkpt>
<trkpt lat="53.101337" lon="05.954922"><ele>-2.1</ele><time>2021-05-12T13:49:26Z</time><name>PT9802</name></trkpt>
<trkpt lat="53.101335" lon="05.954905"><ele>-2.3</ele><time>2021-05-12T13:49:27Z</time><name>PT9803</name></trkpt>
<trkpt lat="53.101332" lon="05.954890"><ele>-2.4</ele><time>2021-05-12T13:49:28Z</time><name>PT9804</name></trkpt>
<trkpt lat="53.101330" lon="05.954876"><ele>-2.4</ele><time>2021-05-12T13:49:29Z</time><name>PT9805</name></trkpt>
<trkpt lat="53.101328" lon="05.954861"><ele>-2.2</ele><time>2021-05-12T13:49:30Z</time><name>PT9806</name></trkpt>
<trkpt lat="53.101327" lon="05.954842"><ele>-2.1</ele><time>2021-05-12T13:49:31Z</time><name>PT9807</name></trkpt>
<trkpt lat="53.101325" lon="05.954820"><ele>-2.2</ele><time>2021-05-12T13:49:32Z</time><name>PT9808</name></trkpt>
<trkpt lat="53.101325" lon="05.954797"><ele>-2.2</ele><time>2021-05-12T13:49:33Z</time><name>PT9809</name></trkpt>
<trkpt lat="53.101324" lon="05.954779"><ele>-2.3</ele><time>2021-05-12T13:49:34Z</time><name>PT9810</name></trkpt>
<trkpt lat="53.101321" lon="05.954765"><ele>-2.3</ele><time>2021-05-12T13:49:35Z</time><name>PT9811</name></trkpt>
<trkpt lat="53.101319" lon="05.954753"><ele>-2.3</ele><time>2021-05-12T13:49:36Z</time><name>PT9812</name></trkpt>
<trkpt lat="53.101318" lon="05.954739"><ele>-2.2</ele><time>2021-05-12T13:49:37Z</time><name>PT9813</name></trkpt>
<trkpt lat="53.101318" lon="05.954720"><ele>-2.2</ele><time>2021-05-12T13:49:38Z</time><name>PT9814</name></trkpt>
<trkpt lat="53.101317" lon="05.954697"><ele>-2.2</ele><time>2021-05-12T13:49:39Z</time><name>PT9815</name></trkpt>
<trkpt lat="53.101316" lon="05.954675"><ele>-2.3</ele><time>2021-05-12T13:49:40Z</time><name>PT9816</name></trkpt>
<trkpt lat="53.101314" lon="05.954659"><ele>-2.3</ele><time>2021-05-12T13:49:41Z</time><name>PT9817</name></trkpt>
<trkpt lat="53.101311" lon="05.954644"><ele>-2.4</ele><time>2021-05-12T13:49:42Z</time><name>PT9818</name></trkpt>
<trkpt lat="53.101309" lon="05.954631"><ele>-2.5</ele><time>2021-05-12T13:49:43Z</time><name>PT9819</name></trkpt>
<trkpt lat="53.101307" lon="05.954617"><ele>-2.4</ele><time>2021-05-12T13:49:44Z</time><name>PT9820</name></trkpt>
<trkpt lat="53.101307" lon="05.954598"><ele>-2.4</ele><time>2021-05-12T13:49:45Z</time><name>PT9821</name></trkpt>
<trkpt lat="53.101306" lon="05.954576"><ele>-2.5</ele><time>2021-05-12T13:49:46Z</time><name>PT9822</name></trkpt>
<trkpt lat="53.101305" lon="05.954549"><ele>-2.4</ele><time>2021-05-12T13:49:47Z</time><name>PT9823</name></trkpt>
<trkpt lat="53.101303" lon="05.954523"><ele>-2.4</ele><time>2021-05-12T13:49:48Z</time><name>PT9824</name></trkpt>
<trkpt lat="53.101300" lon="05.954503"><ele>-2.5</ele><time>2021-05-12T13:49:49Z</time><name>PT9825</name></trkpt>
<trkpt lat="53.101296" lon="05.954490"><ele>-2.3</ele><time>2021-05-12T13:49:50Z</time><name>PT9826</name></trkpt>
<trkpt lat="53.101294" lon="05.954481"><ele>-2.3</ele><time>2021-05-12T13:49:51Z</time><name>PT9827</name></trkpt>
<trkpt lat="53.101293" lon="05.954469"><ele>-2.2</ele><time>2021-05-12T13:49:52Z</time><name>PT9828</name></trkpt>
<trkpt lat="53.101292" lon="05.954453"><ele>-2.2</ele><time>2021-05-12T13:49:53Z</time><name>PT9829</name></trkpt>
<trkpt lat="53.101291" lon="05.954433"><ele>-2.3</ele><time>2021-05-12T13:49:54Z</time><name>PT9830</name></trkpt>
<trkpt lat="53.101291" lon="05.954406"><ele>-2.1</ele><time>2021-05-12T13:49:55Z</time><name>PT9831</name></trkpt>
<trkpt lat="53.101291" lon="05.954381"><ele>-2.4</ele><time>2021-05-12T13:49:56Z</time><name>PT9832</name></trkpt>
<trkpt lat="53.101289" lon="05.954363"><ele>-2.6</ele><time>2021-05-12T13:49:57Z</time><name>PT9833</name></trkpt>
<trkpt lat="53.101285" lon="05.954350"><ele>-2.6</ele><time>2021-05-12T13:49:58Z</time><name>PT9834</name></trkpt>
<trkpt lat="53.101283" lon="05.954337"><ele>-2.5</ele><time>2021-05-12T13:49:59Z</time><name>PT9835</name></trkpt>
<trkpt lat="53.101283" lon="05.954322"><ele>-2.5</ele><time>2021-05-12T13:50:00Z</time><name>PT9836</name></trkpt>
<trkpt lat="53.101282" lon="05.954305"><ele>-2.6</ele><time>2021-05-12T13:50:01Z</time><name>PT9837</name></trkpt>
<trkpt lat="53.101281" lon="05.954284"><ele>-2.4</ele><time>2021-05-12T13:50:02Z</time><name>PT9838</name></trkpt>
<trkpt lat="53.101280" lon="05.954264"><ele>-2.3</ele><time>2021-05-12T13:50:03Z</time><name>PT9839</name></trkpt>
<trkpt lat="53.101277" lon="05.954250"><ele>-2.4</ele><time>2021-05-12T13:50:04Z</time><name>PT9840</name></trkpt>
<trkpt lat="53.101275" lon="05.954236"><ele>-2.5</ele><time>2021-05-12T13:50:05Z</time><name>PT9841</name></trkpt>
<trkpt lat="53.101275" lon="05.954226"><ele>-2.4</ele><time>2021-05-12T13:50:06Z</time><name>PT9842</name></trkpt>
<trkpt lat="53.101275" lon="05.954210"><ele>-2.3</ele><time>2021-05-12T13:50:07Z</time><name>PT9843</name></trkpt>
<trkpt lat="53.101274" lon="05.954186"><ele>-2.4</ele><time>2021-05-12T13:50:08Z</time><name>PT9844</name></trkpt>
<trkpt lat="53.101273" lon="05.954162"><ele>-2.3</ele><time>2021-05-12T13:50:09Z</time><name>PT9845</name></trkpt>
<trkpt lat="53.101270" lon="05.954145"><ele>-2.3</ele><time>2021-05-12T13:50:10Z</time><name>PT9846</name></trkpt>
<trkpt lat="53.101268" lon="05.954132"><ele>-2.3</ele><time>2021-05-12T13:50:11Z</time><name>PT9847</name></trkpt>
<trkpt lat="53.101267" lon="05.954119"><ele>-2.5</ele><time>2021-05-12T13:50:12Z</time><name>PT9848</name></trkpt>
<trkpt lat="53.101266" lon="05.954104"><ele>-2.6</ele><time>2021-05-12T13:50:13Z</time><name>PT9849</name></trkpt>
<trkpt lat="53.101265" lon="05.954084"><ele>-2.6</ele><time>2021-05-12T13:50:14Z</time><name>PT9850</name></trkpt>
<trkpt lat="53.101264" lon="05.954065"><ele>-2.6</ele><time>2021-05-12T13:50:15Z</time><name>PT9851</name></trkpt>
<trkpt lat="53.101262" lon="05.954047"><ele>-2.6</ele><time>2021-05-12T13:50:16Z</time><name>PT9852</name></trkpt>
<trkpt lat="53.101261" lon="05.954032"><ele>-2.4</ele><time>2021-05-12T13:50:17Z</time><name>PT9853</name></trkpt>
<trkpt lat="53.101259" lon="05.954017"><ele>-2.3</ele><time>2021-05-12T13:50:18Z</time><name>PT9854</name></trkpt>
<trkpt lat="53.101256" lon="05.954004"><ele>-2.2</ele><time>2021-05-12T13:50:19Z</time><name>PT9855</name></trkpt>
<trkpt lat="53.101255" lon="05.953989"><ele>-2.1</ele><time>2021-05-12T13:50:20Z</time><name>PT9856</name></trkpt>
<trkpt lat="53.101255" lon="05.953969"><ele>-1.8</ele><time>2021-05-12T13:50:21Z</time><name>PT9857</name></trkpt>
<trkpt lat="53.101253" lon="05.953945"><ele>-1.8</ele><time>2021-05-12T13:50:22Z</time><name>PT9858</name></trkpt>
<trkpt lat="53.101252" lon="05.953920"><ele>-1.8</ele><time>2021-05-12T13:50:23Z</time><name>PT9859</name></trkpt>
<trkpt lat="53.101251" lon="05.953901"><ele>-1.9</ele><time>2021-05-12T13:50:24Z</time><name>PT9860</name></trkpt>
<trkpt lat="53.101249" lon="05.953888"><ele>-2</ele><time>2021-05-12T13:50:25Z</time><name>PT9861</name></trkpt>
<trkpt lat="53.101247" lon="05.953874"><ele>-2.1</ele><time>2021-05-12T13:50:26Z</time><name>PT9862</name></trkpt>
<trkpt lat="53.101246" lon="05.953860"><ele>-2.1</ele><time>2021-05-12T13:50:27Z</time><name>PT9863</name></trkpt>
<trkpt lat="53.101245" lon="05.953840"><ele>-2</ele><time>2021-05-12T13:50:28Z</time><name>PT9864</name></trkpt>
<trkpt lat="53.101244" lon="05.953815"><ele>-1.9</ele><time>2021-05-12T13:50:29Z</time><name>PT9865</name></trkpt>
<trkpt lat="53.101242" lon="05.953796"><ele>-1.9</ele><time>2021-05-12T13:50:30Z</time><name>PT9866</name></trkpt>
<trkpt lat="53.101240" lon="05.953784"><ele>-2.1</ele><time>2021-05-12T13:50:31Z</time><name>PT9867</name></trkpt>
<trkpt lat="53.101239" lon="05.953771"><ele>-1.9</ele><time>2021-05-12T13:50:32Z</time><name>PT9868</name></trkpt>
<trkpt lat="53.101237" lon="05.953754"><ele>-2</ele><time>2021-05-12T13:50:33Z</time><name>PT9869</name></trkpt>
<trkpt lat="53.101236" lon="05.953739"><ele>-2.1</ele><time>2021-05-12T13:50:34Z</time><name>PT9870</name></trkpt>
<trkpt lat="53.101233" lon="05.953725"><ele>-1.9</ele><time>2021-05-12T13:50:35Z</time><name>PT9871</name></trkpt>
<trkpt lat="53.101233" lon="05.953709"><ele>-1.7</ele><time>2021-05-12T13:50:36Z</time><name>PT9872</name></trkpt>
<trkpt lat="53.101232" lon="05.953688"><ele>-1.9</ele><time>2021-05-12T13:50:37Z</time><name>PT9873</name></trkpt>
<trkpt lat="53.101230" lon="05.953663"><ele>-1.9</ele><time>2021-05-12T13:50:38Z</time><name>PT9874</name></trkpt>
<trkpt lat="53.101228" lon="05.953639"><ele>-1.8</ele><time>2021-05-12T13:50:39Z</time><name>PT9875</name></trkpt>
<trkpt lat="53.101226" lon="05.953619"><ele>-1.7</ele><time>2021-05-12T13:50:40Z</time><name>PT9876</name></trkpt>
<trkpt lat="53.101225" lon="05.953604"><ele>-1.8</ele><time>2021-05-12T13:50:41Z</time><name>PT9877</name></trkpt>
<trkpt lat="53.101222" lon="05.953593"><ele>-2</ele><time>2021-05-12T13:50:42Z</time><name>PT9878</name></trkpt>
<trkpt lat="53.101221" lon="05.953581"><ele>-2</ele><time>2021-05-12T13:50:43Z</time><name>PT9879</name></trkpt>
<trkpt lat="53.101219" lon="05.953563"><ele>-2.1</ele><time>2021-05-12T13:50:44Z</time><name>PT9880</name></trkpt>
<trkpt lat="53.101218" lon="05.953538"><ele>-2.3</ele><time>2021-05-12T13:50:45Z</time><name>PT9881</name></trkpt>
<trkpt lat="53.101217" lon="05.953517"><ele>-2.4</ele><time>2021-05-12T13:50:46Z</time><name>PT9882</name></trkpt>
<trkpt lat="53.101213" lon="05.953499"><ele>-2.5</ele><time>2021-05-12T13:50:47Z</time><name>PT9883</name></trkpt>
<trkpt lat="53.101211" lon="05.953485"><ele>-2.5</ele><time>2021-05-12T13:50:48Z</time><name>PT9884</name></trkpt>
<trkpt lat="53.101210" lon="05.953471"><ele>-2.4</ele><time>2021-05-12T13:50:49Z</time><name>PT9885</name></trkpt>
<trkpt lat="53.101209" lon="05.953454"><ele>-2.3</ele><time>2021-05-12T13:50:50Z</time><name>PT9886</name></trkpt>
<trkpt lat="53.101207" lon="05.953432"><ele>-2.3</ele><time>2021-05-12T13:50:51Z</time><name>PT9887</name></trkpt>
<trkpt lat="53.101205" lon="05.953411"><ele>-2.2</ele><time>2021-05-12T13:50:52Z</time><name>PT9888</name></trkpt>
<trkpt lat="53.101204" lon="05.953398"><ele>-2.4</ele><time>2021-05-12T13:50:53Z</time><name>PT9889</name></trkpt>
<trkpt lat="53.101203" lon="05.953387"><ele>-2.4</ele><time>2021-05-12T13:50:54Z</time><name>PT9890</name></trkpt>
<trkpt lat="53.101204" lon="05.953373"><ele>-2.6</ele><time>2021-05-12T13:50:55Z</time><name>PT9891</name></trkpt>
<trkpt lat="53.101208" lon="05.953360"><ele>-2.5</ele><time>2021-05-12T13:50:56Z</time><name>PT9892</name></trkpt>
<trkpt lat="53.101211" lon="05.953352"><ele>-2.6</ele><time>2021-05-12T13:50:57Z</time><name>PT9893</name></trkpt>
<trkpt lat="53.101216" lon="05.953342"><ele>-2.5</ele><time>2021-05-12T13:50:58Z</time><name>PT9894</name></trkpt>
<trkpt lat="53.101225" lon="05.953333"><ele>-2.5</ele><time>2021-05-12T13:50:59Z</time><name>PT9895</name></trkpt>
<trkpt lat="53.101234" lon="05.953326"><ele>-2.4</ele><time>2021-05-12T13:51:00Z</time><name>PT9896</name></trkpt>
<trkpt lat="53.101242" lon="05.953320"><ele>-2.3</ele><time>2021-05-12T13:51:01Z</time><name>PT9897</name></trkpt>
<trkpt lat="53.101252" lon="05.953315"><ele>-2.3</ele><time>2021-05-12T13:51:02Z</time><name>PT9898</name></trkpt>
<trkpt lat="53.101264" lon="05.953309"><ele>-2.4</ele><time>2021-05-12T13:51:03Z</time><name>PT9899</name></trkpt>
<trkpt lat="53.101276" lon="05.953302"><ele>-2.6</ele><time>2021-05-12T13:51:04Z</time><name>PT9900</name></trkpt>
<trkpt lat="53.101284" lon="05.953296"><ele>-2.8</ele><time>2021-05-12T13:51:05Z</time><name>PT9901</name></trkpt>
<trkpt lat="53.101292" lon="05.953294"><ele>-3</ele><time>2021-05-12T13:51:06Z</time><name>PT9902</name></trkpt>
<trkpt lat="53.101300" lon="05.953289"><ele>-3.1</ele><time>2021-05-12T13:51:07Z</time><name>PT9903</name></trkpt>
<trkpt lat="53.101308" lon="05.953284"><ele>-3.2</ele><time>2021-05-12T13:51:08Z</time><name>PT9904</name></trkpt>
<trkpt lat="53.101317" lon="05.953278"><ele>-3.2</ele><time>2021-05-12T13:51:09Z</time><name>PT9905</name></trkpt>
<trkpt lat="53.101325" lon="05.953266"><ele>-3.3</ele><time>2021-05-12T13:51:10Z</time><name>PT9906</name></trkpt>
<trkpt lat="53.101336" lon="05.953250"><ele>-3.4</ele><time>2021-05-12T13:51:11Z</time><name>PT9907</name></trkpt>
<trkpt lat="53.101344" lon="05.953232"><ele>-3.4</ele><time>2021-05-12T13:51:12Z</time><name>PT9908</name></trkpt>
<trkpt lat="53.101349" lon="05.953215"><ele>-3.4</ele><time>2021-05-12T13:51:13Z</time><name>PT9909</name></trkpt>
<trkpt lat="53.101352" lon="05.953202"><ele>-3.4</ele><time>2021-05-12T13:51:14Z</time><name>PT9910</name></trkpt>
<trkpt lat="53.101353" lon="05.953189"><ele>-3.2</ele><time>2021-05-12T13:51:15Z</time><name>PT9911</name></trkpt>
<trkpt lat="53.101355" lon="05.953178"><ele>-3.3</ele><time>2021-05-12T13:51:16Z</time><name>PT9912</name></trkpt>
<trkpt lat="53.101358" lon="05.953163"><ele>-3.1</ele><time>2021-05-12T13:51:17Z</time><name>PT9913</name></trkpt>
<trkpt lat="53.101362" lon="05.953144"><ele>-3.2</ele><time>2021-05-12T13:51:18Z</time><name>PT9914</name></trkpt>
<trkpt lat="53.101366" lon="05.953125"><ele>-3.1</ele><time>2021-05-12T13:51:19Z</time><name>PT9915</name></trkpt>
<trkpt lat="53.101369" lon="05.953108"><ele>-3</ele><time>2021-05-12T13:51:20Z</time><name>PT9916</name></trkpt>
<trkpt lat="53.101371" lon="05.953094"><ele>-2.9</ele><time>2021-05-12T13:51:21Z</time><name>PT9917</name></trkpt>
<trkpt lat="53.101373" lon="05.953082"><ele>-3</ele><time>2021-05-12T13:51:22Z</time><name>PT9918</name></trkpt>
<trkpt lat="53.101375" lon="05.953067"><ele>-3.1</ele><time>2021-05-12T13:51:23Z</time><name>PT9919</name></trkpt>
<trkpt lat="53.101378" lon="05.953048"><ele>-2.9</ele><time>2021-05-12T13:51:24Z</time><name>PT9920</name></trkpt>
<trkpt lat="53.101385" lon="05.953026"><ele>-3.1</ele><time>2021-05-12T13:51:25Z</time><name>PT9921</name></trkpt>
<trkpt lat="53.101389" lon="05.953006"><ele>-3.1</ele><time>2021-05-12T13:51:26Z</time><name>PT9922</name></trkpt>
<trkpt lat="53.101388" lon="05.952992"><ele>-3.1</ele><time>2021-05-12T13:51:27Z</time><name>PT9923</name></trkpt>
<trkpt lat="53.101387" lon="05.952979"><ele>-3.2</ele><time>2021-05-12T13:51:28Z</time><name>PT9924</name></trkpt>
<trkpt lat="53.101387" lon="05.952965"><ele>-3.1</ele><time>2021-05-12T13:51:29Z</time><name>PT9925</name></trkpt>
<trkpt lat="53.101386" lon="05.952950"><ele>-3.1</ele><time>2021-05-12T13:51:30Z</time><name>PT9926</name></trkpt>
<trkpt lat="53.101386" lon="05.952934"><ele>-3</ele><time>2021-05-12T13:51:31Z</time><name>PT9927</name></trkpt>
<trkpt lat="53.101388" lon="05.952912"><ele>-3</ele><time>2021-05-12T13:51:32Z</time><name>PT9928</name></trkpt>
<trkpt lat="53.101389" lon="05.952891"><ele>-3.1</ele><time>2021-05-12T13:51:33Z</time><name>PT9929</name></trkpt>
<trkpt lat="53.101390" lon="05.952877"><ele>-3</ele><time>2021-05-12T13:51:34Z</time><name>PT9930</name></trkpt>
<trkpt lat="53.101390" lon="05.952865"><ele>-2.8</ele><time>2021-05-12T13:51:35Z</time><name>PT9931</name></trkpt>
<trkpt lat="53.101389" lon="05.952850"><ele>-2.9</ele><time>2021-05-12T13:51:36Z</time><name>PT9932</name></trkpt>
<trkpt lat="53.101388" lon="05.952833"><ele>-2.7</ele><time>2021-05-12T13:51:37Z</time><name>PT9933</name></trkpt>
<trkpt lat="53.101387" lon="05.952809"><ele>-2.7</ele><time>2021-05-12T13:51:38Z</time><name>PT9934</name></trkpt>
<trkpt lat="53.101388" lon="05.952785"><ele>-2.8</ele><time>2021-05-12T13:51:39Z</time><name>PT9935</name></trkpt>
<trkpt lat="53.101386" lon="05.952769"><ele>-2.8</ele><time>2021-05-12T13:51:40Z</time><name>PT9936</name></trkpt>
<trkpt lat="53.101384" lon="05.952754"><ele>-3</ele><time>2021-05-12T13:51:41Z</time><name>PT9937</name></trkpt>
<trkpt lat="53.101383" lon="05.952742"><ele>-2.9</ele><time>2021-05-12T13:51:42Z</time><name>PT9938</name></trkpt>
<trkpt lat="53.101384" lon="05.952727"><ele>-2.7</ele><time>2021-05-12T13:51:43Z</time><name>PT9939</name></trkpt>
<trkpt lat="53.101385" lon="05.952709"><ele>-2.7</ele><time>2021-05-12T13:51:44Z</time><name>PT9940</name></trkpt>
<trkpt lat="53.101386" lon="05.952688"><ele>-2.7</ele><time>2021-05-12T13:51:45Z</time><name>PT9941</name></trkpt>
<trkpt lat="53.101386" lon="05.952670"><ele>-2.6</ele><time>2021-05-12T13:51:46Z</time><name>PT9942</name></trkpt>
<trkpt lat="53.101385" lon="05.952657"><ele>-2.7</ele><time>2021-05-12T13:51:47Z</time><name>PT9943</name></trkpt>
<trkpt lat="53.101386" lon="05.952646"><ele>-3</ele><time>2021-05-12T13:51:48Z</time><name>PT9944</name></trkpt>
<trkpt lat="53.101388" lon="05.952631"><ele>-2.9</ele><time>2021-05-12T13:51:49Z</time><name>PT9945</name></trkpt>
<trkpt lat="53.101389" lon="05.952608"><ele>-2.8</ele><time>2021-05-12T13:51:50Z</time><name>PT9946</name></trkpt>
<trkpt lat="53.101388" lon="05.952590"><ele>-2.8</ele><time>2021-05-12T13:51:51Z</time><name>PT9947</name></trkpt>
<trkpt lat="53.101388" lon="05.952575"><ele>-2.8</ele><time>2021-05-12T13:51:52Z</time><name>PT9948</name></trkpt>
<trkpt lat="53.101389" lon="05.952562"><ele>-2.7</ele><time>2021-05-12T13:51:53Z</time><name>PT9949</name></trkpt>
<trkpt lat="53.101391" lon="05.952545"><ele>-2.8</ele><time>2021-05-12T13:51:54Z</time><name>PT9950</name></trkpt>
<trkpt lat="53.101393" lon="05.952522"><ele>-2.7</ele><time>2021-05-12T13:51:55Z</time><name>PT9951</name></trkpt>
<trkpt lat="53.101394" lon="05.952497"><ele>-2.6</ele><time>2021-05-12T13:51:56Z</time><name>PT9952</name></trkpt>
<trkpt lat="53.101393" lon="05.952480"><ele>-2.6</ele><time>2021-05-12T13:51:57Z</time><name>PT9953</name></trkpt>
<trkpt lat="53.101392" lon="05.952467"><ele>-2.6</ele><time>2021-05-12T13:51:58Z</time><name>PT9954</name></trkpt>
<trkpt lat="53.101392" lon="05.952454"><ele>-2.6</ele><time>2021-05-12T13:51:59Z</time><name>PT9955</name></trkpt>
<trkpt lat="53.101391" lon="05.952433"><ele>-2.6</ele><time>2021-05-12T13:52:00Z</time><name>PT9956</name></trkpt>
<trkpt lat="53.101391" lon="05.952414"><ele>-2.7</ele><time>2021-05-12T13:52:01Z</time><name>PT9957</name></trkpt>
<trkpt lat="53.101391" lon="05.952401"><ele>-2.6</ele><time>2021-05-12T13:52:02Z</time><name>PT9958</name></trkpt>
<trkpt lat="53.101392" lon="05.952390"><ele>-2.6</ele><time>2021-05-12T13:52:03Z</time><name>PT9959</name></trkpt>
<trkpt lat="53.101393" lon="05.952372"><ele>-2.5</ele><time>2021-05-12T13:52:04Z</time><name>PT9960</name></trkpt>
<trkpt lat="53.101394" lon="05.952345"><ele>-2.4</ele><time>2021-05-12T13:52:05Z</time><name>PT9961</name></trkpt>
<trkpt lat="53.101394" lon="05.952320"><ele>-2.3</ele><time>2021-05-12T13:52:06Z</time><name>PT9962</name></trkpt>
<trkpt lat="53.101392" lon="05.952302"><ele>-2.3</ele><time>2021-05-12T13:52:07Z</time><name>PT9963</name></trkpt>
<trkpt lat="53.101391" lon="05.952290"><ele>-2.5</ele><time>2021-05-12T13:52:08Z</time><name>PT9964</name></trkpt>
<trkpt lat="53.101392" lon="05.952275"><ele>-2.7</ele><time>2021-05-12T13:52:09Z</time><name>PT9965</name></trkpt>
<trkpt lat="53.101393" lon="05.952255"><ele>-2.9</ele><time>2021-05-12T13:52:10Z</time><name>PT9966</name></trkpt>
<trkpt lat="53.101396" lon="05.952232"><ele>-3.1</ele><time>2021-05-12T13:52:11Z</time><name>PT9967</name></trkpt>
<trkpt lat="53.101396" lon="05.952214"><ele>-3</ele><time>2021-05-12T13:52:12Z</time><name>PT9968</name></trkpt>
<trkpt lat="53.101395" lon="05.952203"><ele>-3</ele><time>2021-05-12T13:52:13Z</time><name>PT9969</name></trkpt>
<trkpt lat="53.101395" lon="05.952194"><ele>-2.8</ele><time>2021-05-12T13:52:14Z</time><name>PT9970</name></trkpt>
<trkpt lat="53.101396" lon="05.952181"><ele>-2.7</ele><time>2021-05-12T13:52:15Z</time><name>PT9971</name></trkpt>
<trkpt lat="53.101399" lon="05.952163"><ele>-2.6</ele><time>2021-05-12T13:52:16Z</time><name>PT9972</name></trkpt>
<trkpt lat="53.101402" lon="05.952141"><ele>-2.7</ele><time>2021-05-12T13:52:17Z</time><name>PT9973</name></trkpt>
<trkpt lat="53.101403" lon="05.952125"><ele>-2.6</ele><time>2021-05-12T13:52:18Z</time><name>PT9974</name></trkpt>
<trkpt lat="53.101405" lon="05.952112"><ele>-2.5</ele><time>2021-05-12T13:52:19Z</time><name>PT9975</name></trkpt>
<trkpt lat="53.101408" lon="05.952100"><ele>-2.5</ele><time>2021-05-12T13:52:20Z</time><name>PT9976</name></trkpt>
<trkpt lat="53.101414" lon="05.952088"><ele>-2.4</ele><time>2021-05-12T13:52:21Z</time><name>PT9977</name></trkpt>
<trkpt lat="53.101420" lon="05.952068"><ele>-2.4</ele><time>2021-05-12T13:52:22Z</time><name>PT9978</name></trkpt>
<trkpt lat="53.101424" lon="05.952049"><ele>-2.2</ele><time>2021-05-12T13:52:23Z</time><name>PT9979</name></trkpt>
<trkpt lat="53.101427" lon="05.952035"><ele>-2.4</ele><time>2021-05-12T13:52:24Z</time><name>PT9980</name></trkpt>
<trkpt lat="53.101431" lon="05.952025"><ele>-2.3</ele><time>2021-05-12T13:52:25Z</time><name>PT9981</name></trkpt>
<trkpt lat="53.101436" lon="05.952013"><ele>-2.1</ele><time>2021-05-12T13:52:26Z</time><name>PT9982</name></trkpt>
<trkpt lat="53.101446" lon="05.951997"><ele>-2.1</ele><time>2021-05-12T13:52:27Z</time><name>PT9983</name></trkpt>
<trkpt lat="53.101453" lon="05.951979"><ele>-2.2</ele><time>2021-05-12T13:52:28Z</time><name>PT9984</name></trkpt>
<trkpt lat="53.101457" lon="05.951963"><ele>-2.3</ele><time>2021-05-12T13:52:29Z</time><name>PT9985</name></trkpt>
<trkpt lat="53.101460" lon="05.951950"><ele>-2.5</ele><time>2021-05-12T13:52:30Z</time><name>PT9986</name></trkpt>
<trkpt lat="53.101465" lon="05.951938"><ele>-2.7</ele><time>2021-05-12T13:52:31Z</time><name>PT9987</name></trkpt>
<trkpt lat="53.101471" lon="05.951926"><ele>-2.9</ele><time>2021-05-12T13:52:32Z</time><name>PT9988</name></trkpt>
<trkpt lat="53.101480" lon="05.951909"><ele>-3</ele><time>2021-05-12T13:52:33Z</time><name>PT9989</name></trkpt>
<trkpt lat="53.101489" lon="05.951891"><ele>-3</ele><time>2021-05-12T13:52:34Z</time><name>PT9990</name></trkpt>
<trkpt lat="53.101495" lon="05.951872"><ele>-2.9</ele><time>2021-05-12T13:52:35Z</time><name>PT9991</name></trkpt>
<trkpt lat="53.101499" lon="05.951858"><ele>-2.8</ele><time>2021-05-12T13:52:36Z</time><name>PT9992</name></trkpt>
<trkpt lat="53.101502" lon="05.951843"><ele>-2.7</ele><time>2021-05-12T13:52:37Z</time><name>PT9993</name></trkpt>
<trkpt lat="53.101508" lon="05.951831"><ele>-2.6</ele><time>2021-05-12T13:52:38Z</time><name>PT9994</name></trkpt>
<trkpt lat="53.101517" lon="05.951816"><ele>-2.6</ele><time>2021-05-12T13:52:39Z</time><name>PT9995</name></trkpt>
<trkpt lat="53.101525" lon="05.951794"><ele>-2.6</ele><time>2021-05-12T13:52:40Z</time><name>PT9996</name></trkpt>
<trkpt lat="53.101532" lon="05.951775"><ele>-2.7</ele><time>2021-05-12T13:52:41Z</time><name>PT9997</name></trkpt>
<trkpt lat="53.101536" lon="05.951760"><ele>-2.7</ele><time>2021-05-12T13:52:42Z</time><name>PT9998</name></trkpt>
<trkpt lat="53.101539" lon="05.951748"><ele>-2.6</ele><time>2021-05-12T13:52:43Z</time><name>PT9999</name></trkpt>
<trkpt lat="53.101543" lon="05.951738"><ele>-2.7</ele><time>2021-05-12T13:52:44Z</time><name>PT10000</name></trkpt>
<trkpt lat="53.101549" lon="05.951724"><ele>-2.8</ele><time>2021-05-12T13:52:45Z</time><name>PT10001</name></trkpt>
<trkpt lat="53.101557" lon="05.951705"><ele>-2.6</ele><time>2021-05-12T13:52:46Z</time><name>PT10002</name></trkpt>
<trkpt lat="53.101562" lon="05.951689"><ele>-2.6</ele><time>2021-05-12T13:52:47Z</time><name>PT10003</name></trkpt>
<trkpt lat="53.101564" lon="05.951673"><ele>-2.6</ele><time>2021-05-12T13:52:48Z</time><name>PT10004</name></trkpt>
<trkpt lat="53.101566" lon="05.951661"><ele>-2.8</ele><time>2021-05-12T13:52:49Z</time><name>PT10005</name></trkpt>
<trkpt lat="53.101570" lon="05.951650"><ele>-2.7</ele><time>2021-05-12T13:52:50Z</time><name>PT10006</name></trkpt>
<trkpt lat="53.101576" lon="05.951634"><ele>-2.8</ele><time>2021-05-12T13:52:51Z</time><name>PT10007</name></trkpt>
<trkpt lat="53.101583" lon="05.951613"><ele>-2.8</ele><time>2021-05-12T13:52:52Z</time><name>PT10008</name></trkpt>
<trkpt lat="53.101591" lon="05.951593"><ele>-2.7</ele><time>2021-05-12T13:52:53Z</time><name>PT10009</name></trkpt>
<trkpt lat="53.101597" lon="05.951577"><ele>-2.6</ele><time>2021-05-12T13:52:54Z</time><name>PT10010</name></trkpt>
<trkpt lat="53.101600" lon="05.951562"><ele>-2.5</ele><time>2021-05-12T13:52:55Z</time><name>PT10011</name></trkpt>
<trkpt lat="53.101603" lon="05.951549"><ele>-2.5</ele><time>2021-05-12T13:52:56Z</time><name>PT10012</name></trkpt>
<trkpt lat="53.101607" lon="05.951537"><ele>-2.6</ele><time>2021-05-12T13:52:57Z</time><name>PT10013</name></trkpt>
<trkpt lat="53.101612" lon="05.951522"><ele>-2.5</ele><time>2021-05-12T13:52:58Z</time><name>PT10014</name></trkpt>
<trkpt lat="53.101618" lon="05.951502"><ele>-2.6</ele><time>2021-05-12T13:52:59Z</time><name>PT10015</name></trkpt>
<trkpt lat="53.101624" lon="05.951480"><ele>-2.4</ele><time>2021-05-12T13:53:00Z</time><name>PT10016</name></trkpt>
<trkpt lat="53.101628" lon="05.951461"><ele>-2.4</ele><time>2021-05-12T13:53:01Z</time><name>PT10017</name></trkpt>
<trkpt lat="53.101630" lon="05.951449"><ele>-2.3</ele><time>2021-05-12T13:53:02Z</time><name>PT10018</name></trkpt>
<trkpt lat="53.101632" lon="05.951440"><ele>-2.5</ele><time>2021-05-12T13:53:03Z</time><name>PT10019</name></trkpt>
<trkpt lat="53.101636" lon="05.951426"><ele>-2.6</ele><time>2021-05-12T13:53:04Z</time><name>PT10020</name></trkpt>
<trkpt lat="53.101642" lon="05.951406"><ele>-2.8</ele><time>2021-05-12T13:53:05Z</time><name>PT10021</name></trkpt>
<trkpt lat="53.101649" lon="05.951383"><ele>-2.8</ele><time>2021-05-12T13:53:06Z</time><name>PT10022</name></trkpt>
<trkpt lat="53.101655" lon="05.951363"><ele>-2.8</ele><time>2021-05-12T13:53:07Z</time><name>PT10023</name></trkpt>
<trkpt lat="53.101658" lon="05.951348"><ele>-2.9</ele><time>2021-05-12T13:53:08Z</time><name>PT10024</name></trkpt>
<trkpt lat="53.101660" lon="05.951335"><ele>-2.9</ele><time>2021-05-12T13:53:09Z</time><name>PT10025</name></trkpt>
<trkpt lat="53.101663" lon="05.951321"><ele>-2.9</ele><time>2021-05-12T13:53:10Z</time><name>PT10026</name></trkpt>
<trkpt lat="53.101668" lon="05.951304"><ele>-2.9</ele><time>2021-05-12T13:53:11Z</time><name>PT10027</name></trkpt>
<trkpt lat="53.101675" lon="05.951284"><ele>-2.8</ele><time>2021-05-12T13:53:12Z</time><name>PT10028</name></trkpt>
<trkpt lat="53.101681" lon="05.951260"><ele>-2.6</ele><time>2021-05-12T13:53:13Z</time><name>PT10029</name></trkpt>
<trkpt lat="53.101687" lon="05.951238"><ele>-2.6</ele><time>2021-05-12T13:53:14Z</time><name>PT10030</name></trkpt>
<trkpt lat="53.101691" lon="05.951220"><ele>-2.5</ele><time>2021-05-12T13:53:15Z</time><name>PT10031</name></trkpt>
<trkpt lat="53.101693" lon="05.951206"><ele>-2.5</ele><time>2021-05-12T13:53:16Z</time><name>PT10032</name></trkpt>
<trkpt lat="53.101695" lon="05.951193"><ele>-2.6</ele><time>2021-05-12T13:53:17Z</time><name>PT10033</name></trkpt>
<trkpt lat="53.101700" lon="05.951178"><ele>-2.6</ele><time>2021-05-12T13:53:18Z</time><name>PT10034</name></trkpt>
<trkpt lat="53.101706" lon="05.951161"><ele>-2.6</ele><time>2021-05-12T13:53:19Z</time><name>PT10035</name></trkpt>
<trkpt lat="53.101713" lon="05.951141"><ele>-2.6</ele><time>2021-05-12T13:53:20Z</time><name>PT10036</name></trkpt>
<trkpt lat="53.101719" lon="05.951120"><ele>-2.7</ele><time>2021-05-12T13:53:21Z</time><name>PT10037</name></trkpt>
<trkpt lat="53.101723" lon="05.951103"><ele>-2.7</ele><time>2021-05-12T13:53:22Z</time><name>PT10038</name></trkpt>
<trkpt lat="53.101727" lon="05.951089"><ele>-2.6</ele><time>2021-05-12T13:53:23Z</time><name>PT10039</name></trkpt>
<trkpt lat="53.101729" lon="05.951077"><ele>-2.6</ele><time>2021-05-12T13:53:24Z</time><name>PT10040</name></trkpt>
<trkpt lat="53.101732" lon="05.951065"><ele>-2.6</ele><time>2021-05-12T13:53:25Z</time><name>PT10041</name></trkpt>
<trkpt lat="53.101739" lon="05.951048"><ele>-2.6</ele><time>2021-05-12T13:53:26Z</time><name>PT10042</name></trkpt>
<trkpt lat="53.101745" lon="05.951029"><ele>-2.6</ele><time>2021-05-12T13:53:27Z</time><name>PT10043</name></trkpt>
<trkpt lat="53.101752" lon="05.951005"><ele>-2.6</ele><time>2021-05-12T13:53:28Z</time><name>PT10044</name></trkpt>
<trkpt lat="53.101760" lon="05.950984"><ele>-2.6</ele><time>2021-05-12T13:53:29Z</time><name>PT10045</name></trkpt>
<trkpt lat="53.101763" lon="05.950971"><ele>-2.6</ele><time>2021-05-12T13:53:30Z</time><name>PT10046</name></trkpt>
<trkpt lat="53.101765" lon="05.950960"><ele>-2.7</ele><time>2021-05-12T13:53:31Z</time><name>PT10047</name></trkpt>
<trkpt lat="53.101766" lon="05.950948"><ele>-2.9</ele><time>2021-05-12T13:53:32Z</time><name>PT10048</name></trkpt>
<trkpt lat="53.101771" lon="05.950932"><ele>-2.9</ele><time>2021-05-12T13:53:33Z</time><name>PT10049</name></trkpt>
<trkpt lat="53.101777" lon="05.950911"><ele>-3</ele><time>2021-05-12T13:53:34Z</time><name>PT10050</name></trkpt>
<trkpt lat="53.101784" lon="05.950891"><ele>-2.9</ele><time>2021-05-12T13:53:35Z</time><name>PT10051</name></trkpt>
<trkpt lat="53.101788" lon="05.950877"><ele>-2.9</ele><time>2021-05-12T13:53:36Z</time><name>PT10052</name></trkpt>
<trkpt lat="53.101791" lon="05.950865"><ele>-2.9</ele><time>2021-05-12T13:53:37Z</time><name>PT10053</name></trkpt>
<trkpt lat="53.101793" lon="05.950852"><ele>-2.9</ele><time>2021-05-12T13:53:38Z</time><name>PT10054</name></trkpt>
<trkpt lat="53.101798" lon="05.950832"><ele>-2.9</ele><time>2021-05-12T13:53:39Z</time><name>PT10055</name></trkpt>
<trkpt lat="53.101805" lon="05.950811"><ele>-2.9</ele><time>2021-05-12T13:53:40Z</time><name>PT10056</name></trkpt>
<trkpt lat="53.101810" lon="05.950793"><ele>-2.8</ele><time>2021-05-12T13:53:41Z</time><name>PT10057</name></trkpt>
<trkpt lat="53.101813" lon="05.950778"><ele>-2.7</ele><time>2021-05-12T13:53:42Z</time><name>PT10058</name></trkpt>
<trkpt lat="53.101815" lon="05.950763"><ele>-2.6</ele><time>2021-05-12T13:53:43Z</time><name>PT10059</name></trkpt>
<trkpt lat="53.101817" lon="05.950750"><ele>-2.6</ele><time>2021-05-12T13:53:44Z</time><name>PT10060</name></trkpt>
<trkpt lat="53.101821" lon="05.950736"><ele>-2.6</ele><time>2021-05-12T13:53:45Z</time><name>PT10061</name></trkpt>
<trkpt lat="53.101825" lon="05.950714"><ele>-2.4</ele><time>2021-05-12T13:53:46Z</time><name>PT10062</name></trkpt>
<trkpt lat="53.101829" lon="05.950691"><ele>-2.4</ele><time>2021-05-12T13:53:47Z</time><name>PT10063</name></trkpt>
<trkpt lat="53.101832" lon="05.950668"><ele>-2.3</ele><time>2021-05-12T13:53:48Z</time><name>PT10064</name></trkpt>
<trkpt lat="53.101833" lon="05.950652"><ele>-2.3</ele><time>2021-05-12T13:53:49Z</time><name>PT10065</name></trkpt>
<trkpt lat="53.101834" lon="05.950641"><ele>-2.3</ele><time>2021-05-12T13:53:50Z</time><name>PT10066</name></trkpt>
<trkpt lat="53.101834" lon="05.950632"><ele>-2.4</ele><time>2021-05-12T13:53:51Z</time><name>PT10067</name></trkpt>
<trkpt lat="53.101837" lon="05.950614"><ele>-2.3</ele><time>2021-05-12T13:53:52Z</time><name>PT10068</name></trkpt>
<trkpt lat="53.101841" lon="05.950593"><ele>-2.3</ele><time>2021-05-12T13:53:53Z</time><name>PT10069</name></trkpt>
<trkpt lat="53.101843" lon="05.950573"><ele>-2.3</ele><time>2021-05-12T13:53:54Z</time><name>PT10070</name></trkpt>
<trkpt lat="53.101843" lon="05.950557"><ele>-2.4</ele><time>2021-05-12T13:53:55Z</time><name>PT10071</name></trkpt>
<trkpt lat="53.101842" lon="05.950546"><ele>-2.4</ele><time>2021-05-12T13:53:56Z</time><name>PT10072</name></trkpt>
<trkpt lat="53.101843" lon="05.950533"><ele>-2.4</ele><time>2021-05-12T13:53:57Z</time><name>PT10073</name></trkpt>
<trkpt lat="53.101847" lon="05.950515"><ele>-2.5</ele><time>2021-05-12T13:53:58Z</time><name>PT10074</name></trkpt>
<trkpt lat="53.101851" lon="05.950494"><ele>-2.5</ele><time>2021-05-12T13:53:59Z</time><name>PT10075</name></trkpt>
<trkpt lat="53.101851" lon="05.950477"><ele>-2.5</ele><time>2021-05-12T13:54:00Z</time><name>PT10076</name></trkpt>
<trkpt lat="53.101852" lon="05.950464"><ele>-2.5</ele><time>2021-05-12T13:54:01Z</time><name>PT10077</name></trkpt>
<trkpt lat="53.101855" lon="05.950450"><ele>-2.6</ele><time>2021-05-12T13:54:02Z</time><name>PT10078</name></trkpt>
<trkpt lat="53.101858" lon="05.950432"><ele>-2.5</ele><time>2021-05-12T13:54:03Z</time><name>PT10079</name></trkpt>
<trkpt lat="53.101861" lon="05.950409"><ele>-2.5</ele><time>2021-05-12T13:54:04Z</time><name>PT10080</name></trkpt>
<trkpt lat="53.101863" lon="05.950389"><ele>-2.5</ele><time>2021-05-12T13:54:05Z</time><name>PT10081</name></trkpt>
<trkpt lat="53.101864" lon="05.950376"><ele>-2.3</ele><time>2021-05-12T13:54:06Z</time><name>PT10082</name></trkpt>
<trkpt lat="53.101864" lon="05.950363"><ele>-2.2</ele><time>2021-05-12T13:54:07Z</time><name>PT10083</name></trkpt>
<trkpt lat="53.101865" lon="05.950349"><ele>-2.1</ele><time>2021-05-12T13:54:08Z</time><name>PT10084</name></trkpt>
<trkpt lat="53.101867" lon="05.950328"><ele>-2.1</ele><time>2021-05-12T13:54:09Z</time><name>PT10085</name></trkpt>
<trkpt lat="53.101868" lon="05.950307"><ele>-2.1</ele><time>2021-05-12T13:54:10Z</time><name>PT10086</name></trkpt>
<trkpt lat="53.101868" lon="05.950291"><ele>-2.2</ele><time>2021-05-12T13:54:11Z</time><name>PT10087</name></trkpt>
<trkpt lat="53.101868" lon="05.950280"><ele>-2.3</ele><time>2021-05-12T13:54:12Z</time><name>PT10088</name></trkpt>
<trkpt lat="53.101869" lon="05.950271"><ele>-2.3</ele><time>2021-05-12T13:54:13Z</time><name>PT10089</name></trkpt>
<trkpt lat="53.101871" lon="05.950255"><ele>-2.3</ele><time>2021-05-12T13:54:14Z</time><name>PT10090</name></trkpt>
<trkpt lat="53.101874" lon="05.950236"><ele>-2.3</ele><time>2021-05-12T13:54:15Z</time><name>PT10091</name></trkpt>
<trkpt lat="53.101874" lon="05.950220"><ele>-2.2</ele><time>2021-05-12T13:54:16Z</time><name>PT10092</name></trkpt>
<trkpt lat="53.101874" lon="05.950205"><ele>-2.4</ele><time>2021-05-12T13:54:17Z</time><name>PT10093</name></trkpt>
<trkpt lat="53.101874" lon="05.950189"><ele>-2.2</ele><time>2021-05-12T13:54:18Z</time><name>PT10094</name></trkpt>
<trkpt lat="53.101876" lon="05.950171"><ele>-2.3</ele><time>2021-05-12T13:54:19Z</time><name>PT10095</name></trkpt>
<trkpt lat="53.101879" lon="05.950147"><ele>-2.3</ele><time>2021-05-12T13:54:20Z</time><name>PT10096</name></trkpt>
<trkpt lat="53.101882" lon="05.950121"><ele>-2.3</ele><time>2021-05-12T13:54:21Z</time><name>PT10097</name></trkpt>
<trkpt lat="53.101884" lon="05.950100"><ele>-2.3</ele><time>2021-05-12T13:54:22Z</time><name>PT10098</name></trkpt>
<trkpt lat="53.101884" lon="05.950086"><ele>-2.2</ele><time>2021-05-12T13:54:23Z</time><name>PT10099</name></trkpt>
<trkpt lat="53.101884" lon="05.950074"><ele>-2.3</ele><time>2021-05-12T13:54:24Z</time><name>PT10100</name></trkpt>
<trkpt lat="53.101886" lon="05.950061"><ele>-2.2</ele><time>2021-05-12T13:54:25Z</time><name>PT10101</name></trkpt>
<trkpt lat="53.101889" lon="05.950042"><ele>-2.2</ele><time>2021-05-12T13:54:26Z</time><name>PT10102</name></trkpt>
<trkpt lat="53.101891" lon="05.950021"><ele>-2.2</ele><time>2021-05-12T13:54:27Z</time><name>PT10103</name></trkpt>
<trkpt lat="53.101890" lon="05.950003"><ele>-2.3</ele><time>2021-05-12T13:54:28Z</time><name>PT10104</name></trkpt>
<trkpt lat="53.101889" lon="05.949990"><ele>-2.2</ele><time>2021-05-12T13:54:29Z</time><name>PT10105</name></trkpt>
<trkpt lat="53.101889" lon="05.949977"><ele>-2.2</ele><time>2021-05-12T13:54:30Z</time><name>PT10106</name></trkpt>
<trkpt lat="53.101891" lon="05.949959"><ele>-2.1</ele><time>2021-05-12T13:54:31Z</time><name>PT10107</name></trkpt>
<trkpt lat="53.101893" lon="05.949937"><ele>-2.1</ele><time>2021-05-12T13:54:32Z</time><name>PT10108</name></trkpt>
<trkpt lat="53.101894" lon="05.949917"><ele>-2.1</ele><time>2021-05-12T13:54:33Z</time><name>PT10109</name></trkpt>
<trkpt lat="53.101895" lon="05.949904"><ele>-2.1</ele><time>2021-05-12T13:54:34Z</time><name>PT10110</name></trkpt>
<trkpt lat="53.101895" lon="05.949893"><ele>-2.3</ele><time>2021-05-12T13:54:35Z</time><name>PT10111</name></trkpt>
<trkpt lat="53.101897" lon="05.949876"><ele>-2.2</ele><time>2021-05-12T13:54:36Z</time><name>PT10112</name></trkpt>
<trkpt lat="53.101899" lon="05.949851"><ele>-2.1</ele><time>2021-05-12T13:54:37Z</time><name>PT10113</name></trkpt>
<trkpt lat="53.101902" lon="05.949825"><ele>-2.1</ele><time>2021-05-12T13:54:38Z</time><name>PT10114</name></trkpt>
<trkpt lat="53.101903" lon="05.949806"><ele>-2.1</ele><time>2021-05-12T13:54:39Z</time><name>PT10115</name></trkpt>
<trkpt lat="53.101901" lon="05.949798"><ele>-2.2</ele><time>2021-05-12T13:54:40Z</time><name>PT10116</name></trkpt>
<trkpt lat="53.101900" lon="05.949791"><ele>-2.4</ele><time>2021-05-12T13:54:41Z</time><name>PT10117</name></trkpt>
<trkpt lat="53.101901" lon="05.949778"><ele>-2.3</ele><time>2021-05-12T13:54:42Z</time><name>PT10118</name></trkpt>
<trkpt lat="53.101906" lon="05.949757"><ele>-2.4</ele><time>2021-05-12T13:54:43Z</time><name>PT10119</name></trkpt>
<trkpt lat="53.101908" lon="05.949740"><ele>-2.4</ele><time>2021-05-12T13:54:44Z</time><name>PT10120</name></trkpt>
<trkpt lat="53.101908" lon="05.949726"><ele>-2.3</ele><time>2021-05-12T13:54:45Z</time><name>PT10121</name></trkpt>
<trkpt lat="53.101908" lon="05.949712"><ele>-2.3</ele><time>2021-05-12T13:54:46Z</time><name>PT10122</name></trkpt>
<trkpt lat="53.101908" lon="05.949694"><ele>-2.4</ele><time>2021-05-12T13:54:47Z</time><name>PT10123</name></trkpt>
<trkpt lat="53.101909" lon="05.949673"><ele>-2.5</ele><time>2021-05-12T13:54:48Z</time><name>PT10124</name></trkpt>
<trkpt lat="53.101911" lon="05.949650"><ele>-2.5</ele><time>2021-05-12T13:54:49Z</time><name>PT10125</name></trkpt>
<trkpt lat="53.101911" lon="05.949635"><ele>-2.4</ele><time>2021-05-12T13:54:50Z</time><name>PT10126</name></trkpt>
<trkpt lat="53.101910" lon="05.949622"><ele>-2.3</ele><time>2021-05-12T13:54:51Z</time><name>PT10127</name></trkpt>
<trkpt lat="53.101911" lon="05.949607"><ele>-2.2</ele><time>2021-05-12T13:54:52Z</time><name>PT10128</name></trkpt>
<trkpt lat="53.101914" lon="05.949588"><ele>-2.1</ele><time>2021-05-12T13:54:53Z</time><name>PT10129</name></trkpt>
<trkpt lat="53.101917" lon="05.949568"><ele>-2</ele><time>2021-05-12T13:54:54Z</time><name>PT10130</name></trkpt>
<trkpt lat="53.101917" lon="05.949547"><ele>-2.1</ele><time>2021-05-12T13:54:55Z</time><name>PT10131</name></trkpt>
<trkpt lat="53.101918" lon="05.949532"><ele>-2.1</ele><time>2021-05-12T13:54:56Z</time><name>PT10132</name></trkpt>
<trkpt lat="53.101918" lon="05.949515"><ele>-2.4</ele><time>2021-05-12T13:54:57Z</time><name>PT10133</name></trkpt>
<trkpt lat="53.101920" lon="05.949503"><ele>-2.5</ele><time>2021-05-12T13:54:58Z</time><name>PT10134</name></trkpt>
<trkpt lat="53.101921" lon="05.949484"><ele>-2.5</ele><time>2021-05-12T13:54:59Z</time><name>PT10135</name></trkpt>
<trkpt lat="53.101922" lon="05.949460"><ele>-2.4</ele><time>2021-05-12T13:55:00Z</time><name>PT10136</name></trkpt>
<trkpt lat="53.101921" lon="05.949441"><ele>-2.5</ele><time>2021-05-12T13:55:01Z</time><name>PT10137</name></trkpt>
<trkpt lat="53.101920" lon="05.949425"><ele>-2.2</ele><time>2021-05-12T13:55:02Z</time><name>PT10138</name></trkpt>
<trkpt lat="53.101919" lon="05.949411"><ele>-2.1</ele><time>2021-05-12T13:55:03Z</time><name>PT10139</name></trkpt>
<trkpt lat="53.101920" lon="05.949400"><ele>-2.2</ele><time>2021-05-12T13:55:04Z</time><name>PT10140</name></trkpt>
<trkpt lat="53.101919" lon="05.949384"><ele>-2.4</ele><time>2021-05-12T13:55:05Z</time><name>PT10141</name></trkpt>
<trkpt lat="53.101918" lon="05.949365"><ele>-2.4</ele><time>2021-05-12T13:55:06Z</time><name>PT10142</name></trkpt>
<trkpt lat="53.101917" lon="05.949343"><ele>-2.5</ele><time>2021-05-12T13:55:07Z</time><name>PT10143</name></trkpt>
<trkpt lat="53.101917" lon="05.949321"><ele>-2.6</ele><time>2021-05-12T13:55:08Z</time><name>PT10144</name></trkpt>
<trkpt lat="53.101915" lon="05.949304"><ele>-2.6</ele><time>2021-05-12T13:55:09Z</time><name>PT10145</name></trkpt>
<trkpt lat="53.101913" lon="05.949293"><ele>-2.5</ele><time>2021-05-12T13:55:10Z</time><name>PT10146</name></trkpt>
<trkpt lat="53.101911" lon="05.949283"><ele>-2.6</ele><time>2021-05-12T13:55:11Z</time><name>PT10147</name></trkpt>
<trkpt lat="53.101908" lon="05.949266"><ele>-2.5</ele><time>2021-05-12T13:55:12Z</time><name>PT10148</name></trkpt>
<trkpt lat="53.101908" lon="05.949248"><ele>-2.6</ele><time>2021-05-12T13:55:13Z</time><name>PT10149</name></trkpt>
<trkpt lat="53.101908" lon="05.949234"><ele>-2.8</ele><time>2021-05-12T13:55:14Z</time><name>PT10150</name></trkpt>
<trkpt lat="53.101905" lon="05.949225"><ele>-3.1</ele><time>2021-05-12T13:55:15Z</time><name>PT10151</name></trkpt>
<trkpt lat="53.101902" lon="05.949213"><ele>-3.3</ele><time>2021-05-12T13:55:16Z</time><name>PT10152</name></trkpt>
<trkpt lat="53.101901" lon="05.949204"><ele>-3.3</ele><time>2021-05-12T13:55:17Z</time><name>PT10153</name></trkpt>
<trkpt lat="53.101899" lon="05.949189"><ele>-3.3</ele><time>2021-05-12T13:55:18Z</time><name>PT10154</name></trkpt>
<trkpt lat="53.101897" lon="05.949176"><ele>-3.4</ele><time>2021-05-12T13:55:19Z</time><name>PT10155</name></trkpt>
<trkpt lat="53.101893" lon="05.949171"><ele>-3.3</ele><time>2021-05-12T13:55:20Z</time><name>PT10156</name></trkpt>
<trkpt lat="53.101890" lon="05.949157"><ele>-3.2</ele><time>2021-05-12T13:55:21Z</time><name>PT10157</name></trkpt>
<trkpt lat="53.101886" lon="05.949145"><ele>-3.1</ele><time>2021-05-12T13:55:22Z</time><name>PT10158</name></trkpt>
<trkpt lat="53.101888" lon="05.949126"><ele>-3</ele><time>2021-05-12T13:55:23Z</time><name>PT10159</name></trkpt>
<trkpt lat="53.101887" lon="05.949116"><ele>-2.7</ele><time>2021-05-12T13:55:24Z</time><name>PT10160</name></trkpt>
<trkpt lat="53.101882" lon="05.949099"><ele>-2.7</ele><time>2021-05-12T13:55:25Z</time><name>PT10161</name></trkpt>
<trkpt lat="53.101878" lon="05.949089"><ele>-2.6</ele><time>2021-05-12T13:55:26Z</time><name>PT10162</name></trkpt>
<trkpt lat="53.101877" lon="05.949077"><ele>-2.9</ele><time>2021-05-12T13:55:27Z</time><name>PT10163</name></trkpt>
<trkpt lat="53.101879" lon="05.949061"><ele>-2.9</ele><time>2021-05-12T13:55:28Z</time><name>PT10164</name></trkpt>
<trkpt lat="53.101878" lon="05.949048"><ele>-2.7</ele><time>2021-05-12T13:55:29Z</time><name>PT10165</name></trkpt>
<trkpt lat="53.101877" lon="05.949034"><ele>-3</ele><time>2021-05-12T13:55:30Z</time><name>PT10166</name></trkpt>
<trkpt lat="53.101872" lon="05.949018"><ele>-3</ele><time>2021-05-12T13:55:31Z</time><name>PT10167</name></trkpt>
<trkpt lat="53.101868" lon="05.949004"><ele>-3</ele><time>2021-05-12T13:55:32Z</time><name>PT10168</name></trkpt>
<trkpt lat="53.101864" lon="05.948988"><ele>-3.1</ele><time>2021-05-12T13:55:33Z</time><name>PT10169</name></trkpt>
<trkpt lat="53.101860" lon="05.948971"><ele>-3.1</ele><time>2021-05-12T13:55:34Z</time><name>PT10170</name></trkpt>
<trkpt lat="53.101858" lon="05.948957"><ele>-3.1</ele><time>2021-05-12T13:55:35Z</time><name>PT10171</name></trkpt>
<trkpt lat="53.101855" lon="05.948944"><ele>-3.1</ele><time>2021-05-12T13:55:36Z</time><name>PT10172</name></trkpt>
<trkpt lat="53.101850" lon="05.948931"><ele>-3.3</ele><time>2021-05-12T13:55:37Z</time><name>PT10173</name></trkpt>
<trkpt lat="53.101844" lon="05.948918"><ele>-3.5</ele><time>2021-05-12T13:55:38Z</time><name>PT10174</name></trkpt>
<trkpt lat="53.101838" lon="05.948900"><ele>-3.7</ele><time>2021-05-12T13:55:39Z</time><name>PT10175</name></trkpt>
<trkpt lat="53.101832" lon="05.948885"><ele>-3.6</ele><time>2021-05-12T13:55:40Z</time><name>PT10176</name></trkpt>
<trkpt lat="53.101825" lon="05.948863"><ele>-3.5</ele><time>2021-05-12T13:55:41Z</time><name>PT10177</name></trkpt>
<trkpt lat="53.101817" lon="05.948849"><ele>-3.3</ele><time>2021-05-12T13:55:42Z</time><name>PT10178</name></trkpt>
<trkpt lat="53.101808" lon="05.948833"><ele>-3.1</ele><time>2021-05-12T13:55:43Z</time><name>PT10179</name></trkpt>
<trkpt lat="53.101797" lon="05.948823"><ele>-3.1</ele><time>2021-05-12T13:55:44Z</time><name>PT10180</name></trkpt>
<trkpt lat="53.101788" lon="05.948810"><ele>-3.3</ele><time>2021-05-12T13:55:45Z</time><name>PT10181</name></trkpt>
<trkpt lat="53.101781" lon="05.948794"><ele>-3.3</ele><time>2021-05-12T13:55:46Z</time><name>PT10182</name></trkpt>
<trkpt lat="53.101772" lon="05.948783"><ele>-3.3</ele><time>2021-05-12T13:55:47Z</time><name>PT10183</name></trkpt>
<trkpt lat="53.101763" lon="05.948774"><ele>-3.3</ele><time>2021-05-12T13:55:48Z</time><name>PT10184</name></trkpt>
<trkpt lat="53.101753" lon="05.948765"><ele>-3.3</ele><time>2021-05-12T13:55:49Z</time><name>PT10185</name></trkpt>
<trkpt lat="53.101743" lon="05.948753"><ele>-3.2</ele><time>2021-05-12T13:55:50Z</time><name>PT10186</name></trkpt>
<trkpt lat="53.101734" lon="05.948743"><ele>-3.1</ele><time>2021-05-12T13:55:51Z</time><name>PT10187</name></trkpt>
<trkpt lat="53.101724" lon="05.948735"><ele>-2.6</ele><time>2021-05-12T13:55:52Z</time><name>PT10188</name></trkpt>
<trkpt lat="53.101715" lon="05.948726"><ele>-2.6</ele><time>2021-05-12T13:55:53Z</time><name>PT10189</name></trkpt>
<trkpt lat="53.101706" lon="05.948716"><ele>-2.6</ele><time>2021-05-12T13:55:54Z</time><name>PT10190</name></trkpt>
<trkpt lat="53.101696" lon="05.948706"><ele>-2.5</ele><time>2021-05-12T13:55:55Z</time><name>PT10191</name></trkpt>
<trkpt lat="53.101687" lon="05.948694"><ele>-2.6</ele><time>2021-05-12T13:55:56Z</time><name>PT10192</name></trkpt>
<trkpt lat="53.101679" lon="05.948686"><ele>-2.6</ele><time>2021-05-12T13:55:57Z</time><name>PT10193</name></trkpt>
<trkpt lat="53.101670" lon="05.948682"><ele>-2.8</ele><time>2021-05-12T13:55:58Z</time><name>PT10194</name></trkpt>
<trkpt lat="53.101662" lon="05.948677"><ele>-2.8</ele><time>2021-05-12T13:55:59Z</time><name>PT10195</name></trkpt>
<trkpt lat="53.101654" lon="05.948669"><ele>-2.8</ele><time>2021-05-12T13:56:00Z</time><name>PT10196</name></trkpt>
<trkpt lat="53.101645" lon="05.948663"><ele>-3</ele><time>2021-05-12T13:56:01Z</time><name>PT10197</name></trkpt>
<trkpt lat="53.101636" lon="05.948655"><ele>-3.1</ele><time>2021-05-12T13:56:02Z</time><name>PT10198</name></trkpt>
<trkpt lat="53.101627" lon="05.948649"><ele>-3.1</ele><time>2021-05-12T13:56:03Z</time><name>PT10199</name></trkpt>
<trkpt lat="53.101618" lon="05.948642"><ele>-3.1</ele><time>2021-05-12T13:56:04Z</time><name>PT10200</name></trkpt>
<trkpt lat="53.101611" lon="05.948636"><ele>-3.2</ele><time>2021-05-12T13:56:05Z</time><name>PT10201</name></trkpt>
<trkpt lat="53.101603" lon="05.948627"><ele>-3.2</ele><time>2021-05-12T13:56:06Z</time><name>PT10202</name></trkpt>
<trkpt lat="53.101594" lon="05.948619"><ele>-3.3</ele><time>2021-05-12T13:56:07Z</time><name>PT10203</name></trkpt>
<trkpt lat="53.101584" lon="05.948611"><ele>-3.5</ele><time>2021-05-12T13:56:08Z</time><name>PT10204</name></trkpt>
<trkpt lat="53.101575" lon="05.948604"><ele>-3.5</ele><time>2021-05-12T13:56:09Z</time><name>PT10205</name></trkpt>
<trkpt lat="53.101564" lon="05.948597"><ele>-3.6</ele><time>2021-05-12T13:56:10Z</time><name>PT10206</name></trkpt>
<trkpt lat="53.101554" lon="05.948590"><ele>-3.6</ele><time>2021-05-12T13:56:11Z</time><name>PT10207</name></trkpt>
<trkpt lat="53.101546" lon="05.948582"><ele>-3.6</ele><time>2021-05-12T13:56:12Z</time><name>PT10208</name></trkpt>
<trkpt lat="53.101538" lon="05.948572"><ele>-3.5</ele><time>2021-05-12T13:56:13Z</time><name>PT10209</name></trkpt>
<trkpt lat="53.101527" lon="05.948561"><ele>-3.5</ele><time>2021-05-12T13:56:14Z</time><name>PT10210</name></trkpt>
<trkpt lat="53.101518" lon="05.948552"><ele>-3.5</ele><time>2021-05-12T13:56:15Z</time><name>PT10211</name></trkpt>
<trkpt lat="53.101509" lon="05.948544"><ele>-3.5</ele><time>2021-05-12T13:56:16Z</time><name>PT10212</name></trkpt>
<trkpt lat="53.101498" lon="05.948538"><ele>-3.6</ele><time>2021-05-12T13:56:17Z</time><name>PT10213</name></trkpt>
<trkpt lat="53.101487" lon="05.948532"><ele>-3.6</ele><time>2021-05-12T13:56:18Z</time><name>PT10214</name></trkpt>
<trkpt lat="53.101477" lon="05.948524"><ele>-3.6</ele><time>2021-05-12T13:56:19Z</time><name>PT10215</name></trkpt>
<trkpt lat="53.101468" lon="05.948516"><ele>-3.5</ele><time>2021-05-12T13:56:20Z</time><name>PT10216</name></trkpt>
<trkpt lat="53.101458" lon="05.948508"><ele>-3.2</ele><time>2021-05-12T13:56:21Z</time><name>PT10217</name></trkpt>
<trkpt lat="53.101449" lon="05.948499"><ele>-3.3</ele><time>2021-05-12T13:56:22Z</time><name>PT10218</name></trkpt>
<trkpt lat="53.101439" lon="05.948490"><ele>-3.1</ele><time>2021-05-12T13:56:23Z</time><name>PT10219</name></trkpt>
<trkpt lat="53.101429" lon="05.948481"><ele>-3.1</ele><time>2021-05-12T13:56:24Z</time><name>PT10220</name></trkpt>
<trkpt lat="53.101418" lon="05.948475"><ele>-3</ele><time>2021-05-12T13:56:25Z</time><name>PT10221</name></trkpt>
<trkpt lat="53.101409" lon="05.948466"><ele>-2.8</ele><time>2021-05-12T13:56:26Z</time><name>PT10222</name></trkpt>
<trkpt lat="53.101401" lon="05.948458"><ele>-2.8</ele><time>2021-05-12T13:56:27Z</time><name>PT10223</name></trkpt>
<trkpt lat="53.101393" lon="05.948450"><ele>-2.9</ele><time>2021-05-12T13:56:28Z</time><name>PT10224</name></trkpt>
<trkpt lat="53.101384" lon="05.948445"><ele>-3.1</ele><time>2021-05-12T13:56:29Z</time><name>PT10225</name></trkpt>
<trkpt lat="53.101374" lon="05.948438"><ele>-3.3</ele><time>2021-05-12T13:56:30Z</time><name>PT10226</name></trkpt>
<trkpt lat="53.101364" lon="05.948430"><ele>-3.4</ele><time>2021-05-12T13:56:31Z</time><name>PT10227</name></trkpt>
<trkpt lat="53.101355" lon="05.948421"><ele>-3.6</ele><time>2021-05-12T13:56:32Z</time><name>PT10228</name></trkpt>
<trkpt lat="53.101347" lon="05.948411"><ele>-3.6</ele><time>2021-05-12T13:56:33Z</time><name>PT10229</name></trkpt>
<trkpt lat="53.101336" lon="05.948404"><ele>-3.6</ele><time>2021-05-12T13:56:34Z</time><name>PT10230</name></trkpt>
<trkpt lat="53.101326" lon="05.948396"><ele>-3.6</ele><time>2021-05-12T13:56:35Z</time><name>PT10231</name></trkpt>
<trkpt lat="53.101317" lon="05.948388"><ele>-3.6</ele><time>2021-05-12T13:56:36Z</time><name>PT10232</name></trkpt>
<trkpt lat="53.101308" lon="05.948380"><ele>-3.6</ele><time>2021-05-12T13:56:37Z</time><name>PT10233</name></trkpt>
<trkpt lat="53.101298" lon="05.948371"><ele>-3.5</ele><time>2021-05-12T13:56:38Z</time><name>PT10234</name></trkpt>
<trkpt lat="53.101289" lon="05.948362"><ele>-3.5</ele><time>2021-05-12T13:56:39Z</time><name>PT10235</name></trkpt>
<trkpt lat="53.101280" lon="05.948355"><ele>-3.6</ele><time>2021-05-12T13:56:40Z</time><name>PT10236</name></trkpt>
<trkpt lat="53.101269" lon="05.948347"><ele>-3.6</ele><time>2021-05-12T13:56:41Z</time><name>PT10237</name></trkpt>
<trkpt lat="53.101258" lon="05.948340"><ele>-3.5</ele><time>2021-05-12T13:56:42Z</time><name>PT10238</name></trkpt>
<trkpt lat="53.101249" lon="05.948331"><ele>-3.6</ele><time>2021-05-12T13:56:43Z</time><name>PT10239</name></trkpt>
<trkpt lat="53.101241" lon="05.948322"><ele>-3.6</ele><time>2021-05-12T13:56:44Z</time><name>PT10240</name></trkpt>
<trkpt lat="53.101233" lon="05.948314"><ele>-3.6</ele><time>2021-05-12T13:56:45Z</time><name>PT10241</name></trkpt>
<trkpt lat="53.101224" lon="05.948307"><ele>-3.5</ele><time>2021-05-12T13:56:46Z</time><name>PT10242</name></trkpt>
<trkpt lat="53.101214" lon="05.948300"><ele>-3.2</ele><time>2021-05-12T13:56:47Z</time><name>PT10243</name></trkpt>
<trkpt lat="53.101205" lon="05.948291"><ele>-3.1</ele><time>2021-05-12T13:56:48Z</time><name>PT10244</name></trkpt>
<trkpt lat="53.101196" lon="05.948281"><ele>-3.2</ele><time>2021-05-12T13:56:49Z</time><name>PT10245</name></trkpt>
<trkpt lat="53.101187" lon="05.948275"><ele>-3.2</ele><time>2021-05-12T13:56:50Z</time><name>PT10246</name></trkpt>
<trkpt lat="53.101178" lon="05.948271"><ele>-3.5</ele><time>2021-05-12T13:56:51Z</time><name>PT10247</name></trkpt>
<trkpt lat="53.101168" lon="05.948266"><ele>-3.6</ele><time>2021-05-12T13:56:52Z</time><name>PT10248</name></trkpt>
<trkpt lat="53.101160" lon="05.948260"><ele>-3.6</ele><time>2021-05-12T13:56:53Z</time><name>PT10249</name></trkpt>
<trkpt lat="53.101151" lon="05.948250"><ele>-3.6</ele><time>2021-05-12T13:56:54Z</time><name>PT10250</name></trkpt>
<trkpt lat="53.101141" lon="05.948240"><ele>-3.7</ele><time>2021-05-12T13:56:55Z</time><name>PT10251</name></trkpt>
<trkpt lat="53.101132" lon="05.948230"><ele>-3.6</ele><time>2021-05-12T13:56:56Z</time><name>PT10252</name></trkpt>
<trkpt lat="53.101124" lon="05.948222"><ele>-3.5</ele><time>2021-05-12T13:56:57Z</time><name>PT10253</name></trkpt>
<trkpt lat="53.101113" lon="05.948216"><ele>-3.5</ele><time>2021-05-12T13:56:58Z</time><name>PT10254</name></trkpt>
<trkpt lat="53.101104" lon="05.948210"><ele>-3.6</ele><time>2021-05-12T13:56:59Z</time><name>PT10255</name></trkpt>
<trkpt lat="53.101096" lon="05.948203"><ele>-3.4</ele><time>2021-05-12T13:57:00Z</time><name>PT10256</name></trkpt>
<trkpt lat="53.101088" lon="05.948192"><ele>-3.6</ele><time>2021-05-12T13:57:01Z</time><name>PT10257</name></trkpt>
<trkpt lat="53.101079" lon="05.948182"><ele>-3.4</ele><time>2021-05-12T13:57:02Z</time><name>PT10258</name></trkpt>
<trkpt lat="53.101069" lon="05.948176"><ele>-3.4</ele><time>2021-05-12T13:57:03Z</time><name>PT10259</name></trkpt>
<trkpt lat="53.101060" lon="05.948171"><ele>-3.4</ele><time>2021-05-12T13:57:04Z</time><name>PT10260</name></trkpt>
<trkpt lat="53.101052" lon="05.948165"><ele>-3.5</ele><time>2021-05-12T13:57:05Z</time><name>PT10261</name></trkpt>
<trkpt lat="53.101044" lon="05.948156"><ele>-3.5</ele><time>2021-05-12T13:57:06Z</time><name>PT10262</name></trkpt>
<trkpt lat="53.101034" lon="05.948145"><ele>-3.6</ele><time>2021-05-12T13:57:07Z</time><name>PT10263</name></trkpt>
<trkpt lat="53.101026" lon="05.948135"><ele>-3.6</ele><time>2021-05-12T13:57:08Z</time><name>PT10264</name></trkpt>
<trkpt lat="53.101018" lon="05.948128"><ele>-3.5</ele><time>2021-05-12T13:57:09Z</time><name>PT10265</name></trkpt>
<trkpt lat="53.101008" lon="05.948122"><ele>-3.5</ele><time>2021-05-12T13:57:10Z</time><name>PT10266</name></trkpt>
<trkpt lat="53.100999" lon="05.948117"><ele>-3.5</ele><time>2021-05-12T13:57:11Z</time><name>PT10267</name></trkpt>
<trkpt lat="53.100991" lon="05.948110"><ele>-3.4</ele><time>2021-05-12T13:57:12Z</time><name>PT10268</name></trkpt>
<trkpt lat="53.100982" lon="05.948101"><ele>-3.3</ele><time>2021-05-12T13:57:13Z</time><name>PT10269</name></trkpt>
<trkpt lat="53.100974" lon="05.948092"><ele>-3.4</ele><time>2021-05-12T13:57:14Z</time><name>PT10270</name></trkpt>
<trkpt lat="53.100964" lon="05.948083"><ele>-3.7</ele><time>2021-05-12T13:57:15Z</time><name>PT10271</name></trkpt>
<trkpt lat="53.100955" lon="05.948076"><ele>-4</ele><time>2021-05-12T13:57:16Z</time><name>PT10272</name></trkpt>
<trkpt lat="53.100945" lon="05.948068"><ele>-4</ele><time>2021-05-12T13:57:17Z</time><name>PT10273</name></trkpt>
<trkpt lat="53.100938" lon="05.948062"><ele>-4.1</ele><time>2021-05-12T13:57:18Z</time><name>PT10274</name></trkpt>
<trkpt lat="53.100928" lon="05.948054"><ele>-3.8</ele><time>2021-05-12T13:57:19Z</time><name>PT10275</name></trkpt>
<trkpt lat="53.100919" lon="05.948045"><ele>-3.6</ele><time>2021-05-12T13:57:20Z</time><name>PT10276</name></trkpt>
<trkpt lat="53.100913" lon="05.948041"><ele>-3.3</ele><time>2021-05-12T13:57:21Z</time><name>PT10277</name></trkpt>
<trkpt lat="53.100905" lon="05.948035"><ele>-3.1</ele><time>2021-05-12T13:57:22Z</time><name>PT10278</name></trkpt>
<trkpt lat="53.100896" lon="05.948029"><ele>-2.9</ele><time>2021-05-12T13:57:23Z</time><name>PT10279</name></trkpt>
<trkpt lat="53.100887" lon="05.948020"><ele>-3</ele><time>2021-05-12T13:57:24Z</time><name>PT10280</name></trkpt>
<trkpt lat="53.100876" lon="05.948009"><ele>-3.2</ele><time>2021-05-12T13:57:25Z</time><name>PT10281</name></trkpt>
<trkpt lat="53.100865" lon="05.948000"><ele>-3.4</ele><time>2021-05-12T13:57:26Z</time><name>PT10282</name></trkpt>
<trkpt lat="53.100854" lon="05.947991"><ele>-3.6</ele><time>2021-05-12T13:57:27Z</time><name>PT10283</name></trkpt>
<trkpt lat="53.100843" lon="05.947983"><ele>-3.6</ele><time>2021-05-12T13:57:28Z</time><name>PT10284</name></trkpt>
<trkpt lat="53.100832" lon="05.947975"><ele>-3.7</ele><time>2021-05-12T13:57:29Z</time><name>PT10285</name></trkpt>
<trkpt lat="53.100824" lon="05.947967"><ele>-3.7</ele><time>2021-05-12T13:57:30Z</time><name>PT10286</name></trkpt>
<trkpt lat="53.100815" lon="05.947959"><ele>-3.7</ele><time>2021-05-12T13:57:31Z</time><name>PT10287</name></trkpt>
<trkpt lat="53.100805" lon="05.947952"><ele>-3.7</ele><time>2021-05-12T13:57:32Z</time><name>PT10288</name></trkpt>
<trkpt lat="53.100796" lon="05.947941"><ele>-3.7</ele><time>2021-05-12T13:57:33Z</time><name>PT10289</name></trkpt>
<trkpt lat="53.100787" lon="05.947931"><ele>-3.6</ele><time>2021-05-12T13:57:34Z</time><name>PT10290</name></trkpt>
<trkpt lat="53.100778" lon="05.947920"><ele>-3.3</ele><time>2021-05-12T13:57:35Z</time><name>PT10291</name></trkpt>
<trkpt lat="53.100770" lon="05.947913"><ele>-3.3</ele><time>2021-05-12T13:57:36Z</time><name>PT10292</name></trkpt>
<trkpt lat="53.100761" lon="05.947905"><ele>-3.1</ele><time>2021-05-12T13:57:37Z</time><name>PT10293</name></trkpt>
<trkpt lat="53.100751" lon="05.947897"><ele>-3</ele><time>2021-05-12T13:57:38Z</time><name>PT10294</name></trkpt>
<trkpt lat="53.100739" lon="05.947887"><ele>-2.9</ele><time>2021-05-12T13:57:39Z</time><name>PT10295</name></trkpt>
<trkpt lat="53.100728" lon="05.947878"><ele>-2.7</ele><time>2021-05-12T13:57:40Z</time><name>PT10296</name></trkpt>
<trkpt lat="53.100718" lon="05.947871"><ele>-2.8</ele><time>2021-05-12T13:57:41Z</time><name>PT10297</name></trkpt>
<trkpt lat="53.100710" lon="05.947867"><ele>-3.1</ele><time>2021-05-12T13:57:42Z</time><name>PT10298</name></trkpt>
<trkpt lat="53.100700" lon="05.947859"><ele>-3.2</ele><time>2021-05-12T13:57:43Z</time><name>PT10299</name></trkpt>
<trkpt lat="53.100690" lon="05.947851"><ele>-3.3</ele><time>2021-05-12T13:57:44Z</time><name>PT10300</name></trkpt>
<trkpt lat="53.100683" lon="05.947841"><ele>-3.5</ele><time>2021-05-12T13:57:45Z</time><name>PT10301</name></trkpt>
<trkpt lat="53.100674" lon="05.947830"><ele>-3.5</ele><time>2021-05-12T13:57:46Z</time><name>PT10302</name></trkpt>
<trkpt lat="53.100665" lon="05.947821"><ele>-3.6</ele><time>2021-05-12T13:57:47Z</time><name>PT10303</name></trkpt>
<trkpt lat="53.100657" lon="05.947812"><ele>-3.6</ele><time>2021-05-12T13:57:48Z</time><name>PT10304</name></trkpt>
<trkpt lat="53.100647" lon="05.947803"><ele>-3.5</ele><time>2021-05-12T13:57:49Z</time><name>PT10305</name></trkpt>
<trkpt lat="53.100638" lon="05.947797"><ele>-3.4</ele><time>2021-05-12T13:57:50Z</time><name>PT10306</name></trkpt>
<trkpt lat="53.100629" lon="05.947790"><ele>-3.5</ele><time>2021-05-12T13:57:51Z</time><name>PT10307</name></trkpt>
<trkpt lat="53.100620" lon="05.947780"><ele>-3.2</ele><time>2021-05-12T13:57:52Z</time><name>PT10308</name></trkpt>
<trkpt lat="53.100609" lon="05.947773"><ele>-3.2</ele><time>2021-05-12T13:57:53Z</time><name>PT10309</name></trkpt>
<trkpt lat="53.100599" lon="05.947767"><ele>-3.2</ele><time>2021-05-12T13:57:54Z</time><name>PT10310</name></trkpt>
<trkpt lat="53.100589" lon="05.947758"><ele>-3</ele><time>2021-05-12T13:57:55Z</time><name>PT10311</name></trkpt>
<trkpt lat="53.100580" lon="05.947748"><ele>-3</ele><time>2021-05-12T13:57:56Z</time><name>PT10312</name></trkpt>
<trkpt lat="53.100569" lon="05.947739"><ele>-2.9</ele><time>2021-05-12T13:57:57Z</time><name>PT10313</name></trkpt>
<trkpt lat="53.100557" lon="05.947732"><ele>-2.9</ele><time>2021-05-12T13:57:58Z</time><name>PT10314</name></trkpt>
<trkpt lat="53.100547" lon="05.947726"><ele>-2.9</ele><time>2021-05-12T13:57:59Z</time><name>PT10315</name></trkpt>
<trkpt lat="53.100537" lon="05.947718"><ele>-3.1</ele><time>2021-05-12T13:58:00Z</time><name>PT10316</name></trkpt>
<trkpt lat="53.100527" lon="05.947709"><ele>-3.2</ele><time>2021-05-12T13:58:01Z</time><name>PT10317</name></trkpt>
<trkpt lat="53.100517" lon="05.947701"><ele>-3.2</ele><time>2021-05-12T13:58:02Z</time><name>PT10318</name></trkpt>
<trkpt lat="53.100508" lon="05.947693"><ele>-3.4</ele><time>2021-05-12T13:58:03Z</time><name>PT10319</name></trkpt>
<trkpt lat="53.100499" lon="05.947684"><ele>-3.5</ele><time>2021-05-12T13:58:04Z</time><name>PT10320</name></trkpt>
<trkpt lat="53.100489" lon="05.947679"><ele>-3.4</ele><time>2021-05-12T13:58:05Z</time><name>PT10321</name></trkpt>
<trkpt lat="53.100479" lon="05.947672"><ele>-3.4</ele><time>2021-05-12T13:58:06Z</time><name>PT10322</name></trkpt>
<trkpt lat="53.100470" lon="05.947664"><ele>-3.4</ele><time>2021-05-12T13:58:07Z</time><name>PT10323</name></trkpt>
<trkpt lat="53.100459" lon="05.947656"><ele>-3.4</ele><time>2021-05-12T13:58:08Z</time><name>PT10324</name></trkpt>
<trkpt lat="53.100450" lon="05.947649"><ele>-3.3</ele><time>2021-05-12T13:58:09Z</time><name>PT10325</name></trkpt>
<trkpt lat="53.100439" lon="05.947642"><ele>-3.3</ele><time>2021-05-12T13:58:10Z</time><name>PT10326</name></trkpt>
<trkpt lat="53.100428" lon="05.947634"><ele>-3.4</ele><time>2021-05-12T13:58:11Z</time><name>PT10327</name></trkpt>
<trkpt lat="53.100419" lon="05.947629"><ele>-3.3</ele><time>2021-05-12T13:58:12Z</time><name>PT10328</name></trkpt>
<trkpt lat="53.100411" lon="05.947621"><ele>-3.2</ele><time>2021-05-12T13:58:13Z</time><name>PT10329</name></trkpt>
<trkpt lat="53.100400" lon="05.947615"><ele>-3.2</ele><time>2021-05-12T13:58:14Z</time><name>PT10330</name></trkpt>
<trkpt lat="53.100391" lon="05.947609"><ele>-3.1</ele><time>2021-05-12T13:58:15Z</time><name>PT10331</name></trkpt>
<trkpt lat="53.100381" lon="05.947602"><ele>-3.1</ele><time>2021-05-12T13:58:16Z</time><name>PT10332</name></trkpt>
<trkpt lat="53.100371" lon="05.947596"><ele>-3.1</ele><time>2021-05-12T13:58:17Z</time><name>PT10333</name></trkpt>
<trkpt lat="53.100361" lon="05.947589"><ele>-3.3</ele><time>2021-05-12T13:58:18Z</time><name>PT10334</name></trkpt>
<trkpt lat="53.100351" lon="05.947581"><ele>-3.4</ele><time>2021-05-12T13:58:19Z</time><name>PT10335</name></trkpt>
<trkpt lat="53.100341" lon="05.947573"><ele>-3.5</ele><time>2021-05-12T13:58:20Z</time><name>PT10336</name></trkpt>
<trkpt lat="53.100332" lon="05.947563"><ele>-3.6</ele><time>2021-05-12T13:58:21Z</time><name>PT10337</name></trkpt>
<trkpt lat="53.100323" lon="05.947554"><ele>-3.6</ele><time>2021-05-12T13:58:22Z</time><name>PT10338</name></trkpt>
<trkpt lat="53.100312" lon="05.947547"><ele>-3.7</ele><time>2021-05-12T13:58:23Z</time><name>PT10339</name></trkpt>
<trkpt lat="53.100301" lon="05.947540"><ele>-3.8</ele><time>2021-05-12T13:58:24Z</time><name>PT10340</name></trkpt>
<trkpt lat="53.100292" lon="05.947531"><ele>-3.8</ele><time>2021-05-12T13:58:25Z</time><name>PT10341</name></trkpt>
<trkpt lat="53.100283" lon="05.947524"><ele>-3.6</ele><time>2021-05-12T13:58:26Z</time><name>PT10342</name></trkpt>
<trkpt lat="53.100274" lon="05.947518"><ele>-3.3</ele><time>2021-05-12T13:58:27Z</time><name>PT10343</name></trkpt>
<trkpt lat="53.100266" lon="05.947510"><ele>-3.3</ele><time>2021-05-12T13:58:28Z</time><name>PT10344</name></trkpt>
<trkpt lat="53.100256" lon="05.947503"><ele>-3.2</ele><time>2021-05-12T13:58:29Z</time><name>PT10345</name></trkpt>
<trkpt lat="53.100245" lon="05.947497"><ele>-3.1</ele><time>2021-05-12T13:58:30Z</time><name>PT10346</name></trkpt>
<trkpt lat="53.100234" lon="05.947491"><ele>-3.3</ele><time>2021-05-12T13:58:31Z</time><name>PT10347</name></trkpt>
<trkpt lat="53.100223" lon="05.947485"><ele>-3.1</ele><time>2021-05-12T13:58:32Z</time><name>PT10348</name></trkpt>
<trkpt lat="53.100212" lon="05.947479"><ele>-3.1</ele><time>2021-05-12T13:58:33Z</time><name>PT10349</name></trkpt>
<trkpt lat="53.100203" lon="05.947473"><ele>-3</ele><time>2021-05-12T13:58:34Z</time><name>PT10350</name></trkpt>
<trkpt lat="53.100192" lon="05.947465"><ele>-3.2</ele><time>2021-05-12T13:58:35Z</time><name>PT10351</name></trkpt>
<trkpt lat="53.100182" lon="05.947457"><ele>-3.2</ele><time>2021-05-12T13:58:36Z</time><name>PT10352</name></trkpt>
<trkpt lat="53.100171" lon="05.947448"><ele>-3.2</ele><time>2021-05-12T13:58:37Z</time><name>PT10353</name></trkpt>
<trkpt lat="53.100162" lon="05.947442"><ele>-3.4</ele><time>2021-05-12T13:58:38Z</time><name>PT10354</name></trkpt>
<trkpt lat="53.100152" lon="05.947436"><ele>-3.3</ele><time>2021-05-12T13:58:39Z</time><name>PT10355</name></trkpt>
<trkpt lat="53.100142" lon="05.947430"><ele>-3.3</ele><time>2021-05-12T13:58:40Z</time><name>PT10356</name></trkpt>
<trkpt lat="53.100132" lon="05.947423"><ele>-3.3</ele><time>2021-05-12T13:58:41Z</time><name>PT10357</name></trkpt>
<trkpt lat="53.100123" lon="05.947417"><ele>-3.3</ele><time>2021-05-12T13:58:42Z</time><name>PT10358</name></trkpt>
<trkpt lat="53.100113" lon="05.947410"><ele>-3.1</ele><time>2021-05-12T13:58:43Z</time><name>PT10359</name></trkpt>
<trkpt lat="53.100102" lon="05.947403"><ele>-3.1</ele><time>2021-05-12T13:58:44Z</time><name>PT10360</name></trkpt>
<trkpt lat="53.100093" lon="05.947397"><ele>-3</ele><time>2021-05-12T13:58:45Z</time><name>PT10361</name></trkpt>
<trkpt lat="53.100084" lon="05.947392"><ele>-3</ele><time>2021-05-12T13:58:46Z</time><name>PT10362</name></trkpt>
<trkpt lat="53.100073" lon="05.947387"><ele>-3.1</ele><time>2021-05-12T13:58:47Z</time><name>PT10363</name></trkpt>
<trkpt lat="53.100062" lon="05.947384"><ele>-3.2</ele><time>2021-05-12T13:58:48Z</time><name>PT10364</name></trkpt>
<trkpt lat="53.100051" lon="05.947377"><ele>-3.2</ele><time>2021-05-12T13:58:49Z</time><name>PT10365</name></trkpt>
<trkpt lat="53.100038" lon="05.947375"><ele>-3.2</ele><time>2021-05-12T13:58:50Z</time><name>PT10366</name></trkpt>
<trkpt lat="53.100028" lon="05.947368"><ele>-3.1</ele><time>2021-05-12T13:58:51Z</time><name>PT10367</name></trkpt>
<trkpt lat="53.100017" lon="05.947362"><ele>-3.1</ele><time>2021-05-12T13:58:52Z</time><name>PT10368</name></trkpt>
<trkpt lat="53.100007" lon="05.947356"><ele>-3.2</ele><time>2021-05-12T13:58:53Z</time><name>PT10369</name></trkpt>
<trkpt lat="53.100000" lon="05.947356"><ele>-3.1</ele><time>2021-05-12T13:58:54Z</time><name>PT10370</name></trkpt>
<trkpt lat="53.099999" lon="05.947369"><ele>-3.1</ele><time>2021-05-12T13:58:55Z</time><name>PT10371</name></trkpt>
<trkpt lat="53.099996" lon="05.947361"><ele>-3.1</ele><time>2021-05-12T13:58:56Z</time><name>PT10372</name></trkpt>
<trkpt lat="53.099989" lon="05.947353"><ele>-2.9</ele><time>2021-05-12T13:58:57Z</time><name>PT10373</name></trkpt>
<trkpt lat="53.099982" lon="05.947347"><ele>-2.9</ele><time>2021-05-12T13:58:58Z</time><name>PT10374</name></trkpt>
<trkpt lat="53.099972" lon="05.947343"><ele>-3.1</ele><time>2021-05-12T13:58:59Z</time><name>PT10375</name></trkpt>
<trkpt lat="53.099960" lon="05.947337"><ele>-3.1</ele><time>2021-05-12T13:59:00Z</time><name>PT10376</name></trkpt>
<trkpt lat="53.099949" lon="05.947331"><ele>-3.2</ele><time>2021-05-12T13:59:01Z</time><name>PT10377</name></trkpt>
<trkpt lat="53.099939" lon="05.947324"><ele>-3.2</ele><time>2021-05-12T13:59:02Z</time><name>PT10378</name></trkpt>
<trkpt lat="53.099930" lon="05.947316"><ele>-3.2</ele><time>2021-05-12T13:59:03Z</time><name>PT10379</name></trkpt>
<trkpt lat="53.099921" lon="05.947307"><ele>-3.1</ele><time>2021-05-12T13:59:04Z</time><name>PT10380</name></trkpt>
<trkpt lat="53.099910" lon="05.947301"><ele>-3</ele><time>2021-05-12T13:59:05Z</time><name>PT10381</name></trkpt>
<trkpt lat="53.099898" lon="05.947296"><ele>-3</ele><time>2021-05-12T13:59:06Z</time><name>PT10382</name></trkpt>
<trkpt lat="53.099887" lon="05.947291"><ele>-3</ele><time>2021-05-12T13:59:07Z</time><name>PT10383</name></trkpt>
<trkpt lat="53.099875" lon="05.947287"><ele>-3</ele><time>2021-05-12T13:59:08Z</time><name>PT10384</name></trkpt>
<trkpt lat="53.099864" lon="05.947281"><ele>-3.1</ele><time>2021-05-12T13:59:09Z</time><name>PT10385</name></trkpt>
<trkpt lat="53.099854" lon="05.947273"><ele>-3</ele><time>2021-05-12T13:59:10Z</time><name>PT10386</name></trkpt>
<trkpt lat="53.099843" lon="05.947266"><ele>-3</ele><time>2021-05-12T13:59:11Z</time><name>PT10387</name></trkpt>
<trkpt lat="53.099832" lon="05.947259"><ele>-3.1</ele><time>2021-05-12T13:59:12Z</time><name>PT10388</name></trkpt>
<trkpt lat="53.099823" lon="05.947255"><ele>-3.1</ele><time>2021-05-12T13:59:13Z</time><name>PT10389</name></trkpt>
<trkpt lat="53.099812" lon="05.947250"><ele>-3</ele><time>2021-05-12T13:59:14Z</time><name>PT10390</name></trkpt>
<trkpt lat="53.099801" lon="05.947246"><ele>-3</ele><time>2021-05-12T13:59:15Z</time><name>PT10391</name></trkpt>
<trkpt lat="53.099792" lon="05.947243"><ele>-2.8</ele><time>2021-05-12T13:59:16Z</time><name>PT10392</name></trkpt>
<trkpt lat="53.099783" lon="05.947239"><ele>-2.6</ele><time>2021-05-12T13:59:17Z</time><name>PT10393</name></trkpt>
<trkpt lat="53.099772" lon="05.947235"><ele>-2.6</ele><time>2021-05-12T13:59:18Z</time><name>PT10394</name></trkpt>
<trkpt lat="53.099761" lon="05.947230"><ele>-2.4</ele><time>2021-05-12T13:59:19Z</time><name>PT10395</name></trkpt>
<trkpt lat="53.099751" lon="05.947226"><ele>-2.6</ele><time>2021-05-12T13:59:20Z</time><name>PT10396</name></trkpt>
<trkpt lat="53.099740" lon="05.947221"><ele>-2.6</ele><time>2021-05-12T13:59:21Z</time><name>PT10397</name></trkpt>
<trkpt lat="53.099730" lon="05.947218"><ele>-2.7</ele><time>2021-05-12T13:59:22Z</time><name>PT10398</name></trkpt>
<trkpt lat="53.099721" lon="05.947215"><ele>-2.7</ele><time>2021-05-12T13:59:23Z</time><name>PT10399</name></trkpt>
<trkpt lat="53.099711" lon="05.947209"><ele>-2.6</ele><time>2021-05-12T13:59:24Z</time><name>PT10400</name></trkpt>
<trkpt lat="53.099700" lon="05.947205"><ele>-2.7</ele><time>2021-05-12T13:59:25Z</time><name>PT10401</name></trkpt>
<trkpt lat="53.099689" lon="05.947202"><ele>-2.7</ele><time>2021-05-12T13:59:26Z</time><name>PT10402</name></trkpt>
<trkpt lat="53.099678" lon="05.947199"><ele>-2.8</ele><time>2021-05-12T13:59:27Z</time><name>PT10403</name></trkpt>
<trkpt lat="53.099667" lon="05.947196"><ele>-2.8</ele><time>2021-05-12T13:59:28Z</time><name>PT10404</name></trkpt>
<trkpt lat="53.099656" lon="05.947194"><ele>-2.8</ele><time>2021-05-12T13:59:29Z</time><name>PT10405</name></trkpt>
<trkpt lat="53.099646" lon="05.947192"><ele>-2.8</ele><time>2021-05-12T13:59:30Z</time><name>PT10406</name></trkpt>
<trkpt lat="53.099636" lon="05.947192"><ele>-2.8</ele><time>2021-05-12T13:59:31Z</time><name>PT10407</name></trkpt>
<trkpt lat="53.099627" lon="05.947192"><ele>-2.7</ele><time>2021-05-12T13:59:32Z</time><name>PT10408</name></trkpt>
<trkpt lat="53.099619" lon="05.947193"><ele>-2.6</ele><time>2021-05-12T13:59:33Z</time><name>PT10409</name></trkpt>
<trkpt lat="53.099612" lon="05.947193"><ele>-2.5</ele><time>2021-05-12T13:59:34Z</time><name>PT10410</name></trkpt>
<trkpt lat="53.099608" lon="05.947191"><ele>-2.4</ele><time>2021-05-12T13:59:35Z</time><name>PT10411</name></trkpt>
<trkpt lat="53.099604" lon="05.947195"><ele>-2.6</ele><time>2021-05-12T13:59:36Z</time><name>PT10412</name></trkpt>
<trkpt lat="53.099600" lon="05.947199"><ele>-2.7</ele><time>2021-05-12T13:59:37Z</time><name>PT10413</name></trkpt>
<trkpt lat="53.099592" lon="05.947200"><ele>-2.7</ele><time>2021-05-12T13:59:38Z</time><name>PT10414</name></trkpt>
<trkpt lat="53.099584" lon="05.947204"><ele>-2.7</ele><time>2021-05-12T13:59:39Z</time><name>PT10415</name></trkpt>
<trkpt lat="53.099575" lon="05.947209"><ele>-2.6</ele><time>2021-05-12T13:59:40Z</time><name>PT10416</name></trkpt>
<trkpt lat="53.099571" lon="05.947224"><ele>-2.5</ele><time>2021-05-12T13:59:41Z</time><name>PT10417</name></trkpt>
<trkpt lat="53.099564" lon="05.947234"><ele>-2.5</ele><time>2021-05-12T13:59:42Z</time><name>PT10418</name></trkpt>
<trkpt lat="53.099556" lon="05.947239"><ele>-2.4</ele><time>2021-05-12T13:59:43Z</time><name>PT10419</name></trkpt>
<trkpt lat="53.099546" lon="05.947246"><ele>-2.3</ele><time>2021-05-12T13:59:44Z</time><name>PT10420</name></trkpt>
<trkpt lat="53.099537" lon="05.947255"><ele>-2.3</ele><time>2021-05-12T13:59:45Z</time><name>PT10421</name></trkpt>
<trkpt lat="53.099528" lon="05.947267"><ele>-2.6</ele><time>2021-05-12T13:59:46Z</time><name>PT10422</name></trkpt>
<trkpt lat="53.099520" lon="05.947274"><ele>-2.8</ele><time>2021-05-12T13:59:47Z</time><name>PT10423</name></trkpt>
<trkpt lat="53.099511" lon="05.947277"><ele>-3</ele><time>2021-05-12T13:59:48Z</time><name>PT10424</name></trkpt>
<trkpt lat="53.099502" lon="05.947280"><ele>-3.1</ele><time>2021-05-12T13:59:49Z</time><name>PT10425</name></trkpt>
<trkpt lat="53.099492" lon="05.947283"><ele>-3.1</ele><time>2021-05-12T13:59:50Z</time><name>PT10426</name></trkpt>
<trkpt lat="53.099483" lon="05.947285"><ele>-2.9</ele><time>2021-05-12T13:59:51Z</time><name>PT10427</name></trkpt>
<trkpt lat="53.099473" lon="05.947286"><ele>-3</ele><time>2021-05-12T13:59:52Z</time><name>PT10428</name></trkpt>
<trkpt lat="53.099463" lon="05.947290"><ele>-2.9</ele><time>2021-05-12T13:59:53Z</time><name>PT10429</name></trkpt>
<trkpt lat="53.099453" lon="05.947294"><ele>-2.9</ele><time>2021-05-12T13:59:54Z</time><name>PT10430</name></trkpt>
<trkpt lat="53.099440" lon="05.947296"><ele>-3</ele><time>2021-05-12T13:59:55Z</time><name>PT10431</name></trkpt>
<trkpt lat="53.099430" lon="05.947299"><ele>-3</ele><time>2021-05-12T13:59:56Z</time><name>PT10432</name></trkpt>
<trkpt lat="53.099420" lon="05.947303"><ele>-2.9</ele><time>2021-05-12T13:59:57Z</time><name>PT10433</name></trkpt>
<trkpt lat="53.099414" lon="05.947312"><ele>-3</ele><time>2021-05-12T13:59:58Z</time><name>PT10434</name></trkpt>
<trkpt lat="53.099406" lon="05.947325"><ele>-3</ele><time>2021-05-12T13:59:59Z</time><name>PT10435</name></trkpt>
<trkpt lat="53.099399" lon="05.947335"><ele>-2.9</ele><time>2021-05-12T14:00:00Z</time><name>PT10436</name></trkpt>
<trkpt lat="53.099390" lon="05.947344"><ele>-2.9</ele><time>2021-05-12T14:00:01Z</time><name>PT10437</name></trkpt>
<trkpt lat="53.099384" lon="05.947354"><ele>-2.9</ele><time>2021-05-12T14:00:02Z</time><name>PT10438</name></trkpt>
<trkpt lat="53.099379" lon="05.947367"><ele>-2.8</ele><time>2021-05-12T14:00:03Z</time><name>PT10439</name></trkpt>
<trkpt lat="53.099375" lon="05.947378"><ele>-2.9</ele><time>2021-05-12T14:00:04Z</time><name>PT10440</name></trkpt>
<trkpt lat="53.099367" lon="05.947390"><ele>-3</ele><time>2021-05-12T14:00:05Z</time><name>PT10441</name></trkpt>
<trkpt lat="53.099359" lon="05.947404"><ele>-3.1</ele><time>2021-05-12T14:00:06Z</time><name>PT10442</name></trkpt>
<trkpt lat="53.099352" lon="05.947417"><ele>-3.1</ele><time>2021-05-12T14:00:07Z</time><name>PT10443</name></trkpt>
<trkpt lat="53.099346" lon="05.947430"><ele>-3.1</ele><time>2021-05-12T14:00:08Z</time><name>PT10444</name></trkpt>
<trkpt lat="53.099340" lon="05.947444"><ele>-3</ele><time>2021-05-12T14:00:09Z</time><name>PT10445</name></trkpt>
<trkpt lat="53.099333" lon="05.947458"><ele>-2.8</ele><time>2021-05-12T14:00:10Z</time><name>PT10446</name></trkpt>
<trkpt lat="53.099325" lon="05.947470"><ele>-2.8</ele><time>2021-05-12T14:00:11Z</time><name>PT10447</name></trkpt>
<trkpt lat="53.099316" lon="05.947483"><ele>-2.9</ele><time>2021-05-12T14:00:12Z</time><name>PT10448</name></trkpt>
<trkpt lat="53.099310" lon="05.947496"><ele>-2.8</ele><time>2021-05-12T14:00:13Z</time><name>PT10449</name></trkpt>
<trkpt lat="53.099303" lon="05.947511"><ele>-2.8</ele><time>2021-05-12T14:00:14Z</time><name>PT10450</name></trkpt>
<trkpt lat="53.099297" lon="05.947524"><ele>-2.9</ele><time>2021-05-12T14:00:15Z</time><name>PT10451</name></trkpt>
<trkpt lat="53.099290" lon="05.947537"><ele>-2.9</ele><time>2021-05-12T14:00:16Z</time><name>PT10452</name></trkpt>
<trkpt lat="53.099282" lon="05.947550"><ele>-3</ele><time>2021-05-12T14:00:17Z</time><name>PT10453</name></trkpt>
<trkpt lat="53.099274" lon="05.947562"><ele>-3</ele><time>2021-05-12T14:00:18Z</time><name>PT10454</name></trkpt>
<trkpt lat="53.099266" lon="05.947576"><ele>-3</ele><time>2021-05-12T14:00:19Z</time><name>PT10455</name></trkpt>
<trkpt lat="53.099260" lon="05.947587"><ele>-2.9</ele><time>2021-05-12T14:00:20Z</time><name>PT10456</name></trkpt>
<trkpt lat="53.099253" lon="05.947599"><ele>-2.8</ele><time>2021-05-12T14:00:21Z</time><name>PT10457</name></trkpt>
<trkpt lat="53.099248" lon="05.947613"><ele>-2.8</ele><time>2021-05-12T14:00:22Z</time><name>PT10458</name></trkpt>
<trkpt lat="53.099241" lon="05.947626"><ele>-2.8</ele><time>2021-05-12T14:00:23Z</time><name>PT10459</name></trkpt>
<trkpt lat="53.099234" lon="05.947638"><ele>-2.8</ele><time>2021-05-12T14:00:24Z</time><name>PT10460</name></trkpt>
<trkpt lat="53.099226" lon="05.947650"><ele>-3.1</ele><time>2021-05-12T14:00:25Z</time><name>PT10461</name></trkpt>
<trkpt lat="53.099219" lon="05.947662"><ele>-3.1</ele><time>2021-05-12T14:00:26Z</time><name>PT10462</name></trkpt>
<trkpt lat="53.099211" lon="05.947678"><ele>-3.1</ele><time>2021-05-12T14:00:27Z</time><name>PT10463</name></trkpt>
<trkpt lat="53.099205" lon="05.947689"><ele>-3.2</ele><time>2021-05-12T14:00:28Z</time><name>PT10464</name></trkpt>
<trkpt lat="53.099197" lon="05.947700"><ele>-3.1</ele><time>2021-05-12T14:00:29Z</time><name>PT10465</name></trkpt>
<trkpt lat="53.099190" lon="05.947711"><ele>-3.1</ele><time>2021-05-12T14:00:30Z</time><name>PT10466</name></trkpt>
<trkpt lat="53.099184" lon="05.947724"><ele>-3</ele><time>2021-05-12T14:00:31Z</time><name>PT10467</name></trkpt>
<trkpt lat="53.099178" lon="05.947737"><ele>-3</ele><time>2021-05-12T14:00:32Z</time><name>PT10468</name></trkpt>
<trkpt lat="53.099171" lon="05.947749"><ele>-2.9</ele><time>2021-05-12T14:00:33Z</time><name>PT10469</name></trkpt>
<trkpt lat="53.099164" lon="05.947758"><ele>-2.9</ele><time>2021-05-12T14:00:34Z</time><name>PT10470</name></trkpt>
<trkpt lat="53.099159" lon="05.947769"><ele>-3</ele><time>2021-05-12T14:00:35Z</time><name>PT10471</name></trkpt>
<trkpt lat="53.099154" lon="05.947779"><ele>-3</ele><time>2021-05-12T14:00:36Z</time><name>PT10472</name></trkpt>
<trkpt lat="53.099147" lon="05.947791"><ele>-3.1</ele><time>2021-05-12T14:00:37Z</time><name>PT10473</name></trkpt>
<trkpt lat="53.099140" lon="05.947802"><ele>-3.1</ele><time>2021-05-12T14:00:38Z</time><name>PT10474</name></trkpt>
<trkpt lat="53.099129" lon="05.947815"><ele>-2.9</ele><time>2021-05-12T14:00:39Z</time><name>PT10475</name></trkpt>
<trkpt lat="53.099121" lon="05.947825"><ele>-2.7</ele><time>2021-05-12T14:00:40Z</time><name>PT10476</name></trkpt>
<trkpt lat="53.099116" lon="05.947836"><ele>-2.7</ele><time>2021-05-12T14:00:41Z</time><name>PT10477</name></trkpt>
<trkpt lat="53.099107" lon="05.947848"><ele>-2.8</ele><time>2021-05-12T14:00:42Z</time><name>PT10478</name></trkpt>
<trkpt lat="53.099102" lon="05.947858"><ele>-2.9</ele><time>2021-05-12T14:00:43Z</time><name>PT10479</name></trkpt>
<trkpt lat="53.099095" lon="05.947863"><ele>-2.9</ele><time>2021-05-12T14:00:44Z</time><name>PT10480</name></trkpt>
<trkpt lat="53.099087" lon="05.947873"><ele>-3.1</ele><time>2021-05-12T14:00:45Z</time><name>PT10481</name></trkpt>
<trkpt lat="53.099082" lon="05.947884"><ele>-2.9</ele><time>2021-05-12T14:00:46Z</time><name>PT10482</name></trkpt>
<trkpt lat="53.099077" lon="05.947887"><ele>-2.7</ele><time>2021-05-12T14:00:47Z</time><name>PT10483</name></trkpt>
<trkpt lat="53.099071" lon="05.947889"><ele>-2.7</ele><time>2021-05-12T14:00:48Z</time><name>PT10484</name></trkpt>
<trkpt lat="53.099066" lon="05.947893"><ele>-2.6</ele><time>2021-05-12T14:00:49Z</time><name>PT10485</name></trkpt>
<trkpt lat="53.099061" lon="05.947900"><ele>-2.6</ele><time>2021-05-12T14:00:50Z</time><name>PT10486</name></trkpt>
<trkpt lat="53.099058" lon="05.947904"><ele>-2.5</ele><time>2021-05-12T14:00:51Z</time><name>PT10487</name></trkpt>
<trkpt lat="53.099052" lon="05.947910"><ele>-2.3</ele><time>2021-05-12T14:00:52Z</time><name>PT10488</name></trkpt>
<trkpt lat="53.099048" lon="05.947914"><ele>-2.2</ele><time>2021-05-12T14:00:53Z</time><name>PT10489</name></trkpt>
<trkpt lat="53.099038" lon="05.947917"><ele>-2.2</ele><time>2021-05-12T14:00:54Z</time><name>PT10490</name></trkpt>
<trkpt lat="53.099032" lon="05.947922"><ele>-2.2</ele><time>2021-05-12T14:00:55Z</time><name>PT10491</name></trkpt>
<trkpt lat="53.099030" lon="05.947927"><ele>-2.2</ele><time>2021-05-12T14:00:56Z</time><name>PT10492</name></trkpt>
<trkpt lat="53.099029" lon="05.947922"><ele>-2.2</ele><time>2021-05-12T14:00:57Z</time><name>PT10493</name></trkpt>
<trkpt lat="53.099026" lon="05.947919"><ele>-2.1</ele><time>2021-05-12T14:00:58Z</time><name>PT10494</name></trkpt>
<trkpt lat="53.099025" lon="05.947916"><ele>-2.1</ele><time>2021-05-12T14:00:59Z</time><name>PT10495</name></trkpt>
<trkpt lat="53.099024" lon="05.947915"><ele>-2.1</ele><time>2021-05-12T14:01:00Z</time><name>PT10496</name></trkpt>
<trkpt lat="53.099019" lon="05.947913"><ele>-2.5</ele><time>2021-05-12T14:01:16Z</time><name>PT10497</name></trkpt>
<trkpt lat="53.099017" lon="05.947911"><ele>-2.5</ele><time>2021-05-12T14:01:17Z</time><name>PT10498</name></trkpt>
<trkpt lat="53.099012" lon="05.947910"><ele>-2.4</ele><time>2021-05-12T14:01:18Z</time><name>PT10499</name></trkpt>
<trkpt lat="53.099007" lon="05.947916"><ele>-2.6</ele><time>2021-05-12T14:01:19Z</time><name>PT10500</name></trkpt>
<trkpt lat="53.099010" lon="05.947925"><ele>-2.1</ele><time>2021-05-12T14:02:27Z</time><name>PT10501</name></trkpt>
<trkpt lat="53.099008" lon="05.947936"><ele>-2.1</ele><time>2021-05-12T14:02:28Z</time><name>PT10502</name></trkpt>
<trkpt lat="53.099001" lon="05.947941"><ele>-2.1</ele><time>2021-05-12T14:02:29Z</time><name>PT10503</name></trkpt>
<trkpt lat="53.098996" lon="05.947947"><ele>-2.1</ele><time>2021-05-12T14:02:30Z</time><name>PT10504</name></trkpt>
<trkpt lat="53.098990" lon="05.947942"><ele>-2.2</ele><time>2021-05-12T14:02:31Z</time><name>PT10505</name></trkpt>
<trkpt lat="53.098991" lon="05.947940"><ele>-2.4</ele><time>2021-05-12T14:02:44Z</time><name>PT10506</name></trkpt>
<trkpt lat="53.098991" lon="05.947938"><ele>-2.3</ele><time>2021-05-12T14:02:45Z</time><name>PT10507</name></trkpt>
<trkpt lat="53.098991" lon="05.947931"><ele>-2.2</ele><time>2021-05-12T14:02:53Z</time><name>PT10508</name></trkpt>
<trkpt lat="53.098995" lon="05.947935"><ele>-2.3</ele><time>2021-05-12T14:02:54Z</time><name>PT10509</name></trkpt>
<trkpt lat="53.098995" lon="05.947935"><ele>-2.1</ele><time>2021-05-12T14:02:55Z</time><name>PT10510</name></trkpt>
<trkpt lat="53.098993" lon="05.947942"><ele>-1.9</ele><time>2021-05-12T14:03:06Z</time><name>PT10511</name></trkpt>
<trkpt lat="53.098992" lon="05.947942"><ele>-1.8</ele><time>2021-05-12T14:03:07Z</time><name>PT10512</name></trkpt>
<trkpt lat="53.098984" lon="05.947948"><ele>-2.2</ele><time>2021-05-12T14:03:14Z</time><name>PT10513</name></trkpt>
<trkpt lat="53.098980" lon="05.947961"><ele>-2.4</ele><time>2021-05-12T14:03:15Z</time><name>PT10514</name></trkpt>
<trkpt lat="53.098975" lon="05.947970"><ele>-2.4</ele><time>2021-05-12T14:03:16Z</time><name>PT10515</name></trkpt>
<trkpt lat="53.098971" lon="05.947979"><ele>-2.3</ele><time>2021-05-12T14:03:17Z</time><name>PT10516</name></trkpt>
<trkpt lat="53.098967" lon="05.947991"><ele>-2.4</ele><time>2021-05-12T14:03:18Z</time><name>PT10517</name></trkpt>
<trkpt lat="53.098962" lon="05.948002"><ele>-2.4</ele><time>2021-05-12T14:03:19Z</time><name>PT10518</name></trkpt>
<trkpt lat="53.098954" lon="05.948014"><ele>-2.5</ele><time>2021-05-12T14:03:20Z</time><name>PT10519</name></trkpt>
<trkpt lat="53.098946" lon="05.948026"><ele>-2.7</ele><time>2021-05-12T14:03:21Z</time><name>PT10520</name></trkpt>
<trkpt lat="53.098938" lon="05.948038"><ele>-2.8</ele><time>2021-05-12T14:03:22Z</time><name>PT10521</name></trkpt>
<trkpt lat="53.098930" lon="05.948051"><ele>-2.9</ele><time>2021-05-12T14:03:23Z</time><name>PT10522</name></trkpt>
<trkpt lat="53.098922" lon="05.948065"><ele>-3</ele><time>2021-05-12T14:03:24Z</time><name>PT10523</name></trkpt>
<trkpt lat="53.098917" lon="05.948077"><ele>-2.8</ele><time>2021-05-12T14:03:25Z</time><name>PT10524</name></trkpt>
<trkpt lat="53.098910" lon="05.948087"><ele>-3.1</ele><time>2021-05-12T14:03:26Z</time><name>PT10525</name></trkpt>
<trkpt lat="53.098903" lon="05.948099"><ele>-3.1</ele><time>2021-05-12T14:03:27Z</time><name>PT10526</name></trkpt>
<trkpt lat="53.098896" lon="05.948108"><ele>-3.2</ele><time>2021-05-12T14:03:28Z</time><name>PT10527</name></trkpt>
<trkpt lat="53.098889" lon="05.948119"><ele>-3.3</ele><time>2021-05-12T14:03:29Z</time><name>PT10528</name></trkpt>
<trkpt lat="53.098883" lon="05.948133"><ele>-3.2</ele><time>2021-05-12T14:03:30Z</time><name>PT10529</name></trkpt>
<trkpt lat="53.098876" lon="05.948144"><ele>-3.1</ele><time>2021-05-12T14:03:31Z</time><name>PT10530</name></trkpt>
<trkpt lat="53.098868" lon="05.948156"><ele>-3.3</ele><time>2021-05-12T14:03:32Z</time><name>PT10531</name></trkpt>
<trkpt lat="53.098860" lon="05.948168"><ele>-3.4</ele><time>2021-05-12T14:03:33Z</time><name>PT10532</name></trkpt>
<trkpt lat="53.098854" lon="05.948180"><ele>-3.3</ele><time>2021-05-12T14:03:34Z</time><name>PT10533</name></trkpt>
<trkpt lat="53.098848" lon="05.948195"><ele>-3.5</ele><time>2021-05-12T14:03:35Z</time><name>PT10534</name></trkpt>
<trkpt lat="53.098843" lon="05.948207"><ele>-3.4</ele><time>2021-05-12T14:03:36Z</time><name>PT10535</name></trkpt>
<trkpt lat="53.098835" lon="05.948217"><ele>-3.5</ele><time>2021-05-12T14:03:37Z</time><name>PT10536</name></trkpt>
<trkpt lat="53.098828" lon="05.948229"><ele>-3.5</ele><time>2021-05-12T14:03:38Z</time><name>PT10537</name></trkpt>
<trkpt lat="53.098824" lon="05.948241"><ele>-3.4</ele><time>2021-05-12T14:03:39Z</time><name>PT10538</name></trkpt>
<trkpt lat="53.098818" lon="05.948255"><ele>-3.3</ele><time>2021-05-12T14:03:40Z</time><name>PT10539</name></trkpt>
<trkpt lat="53.098812" lon="05.948267"><ele>-3.3</ele><time>2021-05-12T14:03:41Z</time><name>PT10540</name></trkpt>
<trkpt lat="53.098804" lon="05.948280"><ele>-3.3</ele><time>2021-05-12T14:03:42Z</time><name>PT10541</name></trkpt>
<trkpt lat="53.098798" lon="05.948290"><ele>-3.3</ele><time>2021-05-12T14:03:43Z</time><name>PT10542</name></trkpt>
<trkpt lat="53.098792" lon="05.948303"><ele>-3.3</ele><time>2021-05-12T14:03:44Z</time><name>PT10543</name></trkpt>
<trkpt lat="53.098787" lon="05.948318"><ele>-3.6</ele><time>2021-05-12T14:03:45Z</time><name>PT10544</name></trkpt>
<trkpt lat="53.098783" lon="05.948334"><ele>-3.6</ele><time>2021-05-12T14:03:46Z</time><name>PT10545</name></trkpt>
<trkpt lat="53.098776" lon="05.948345"><ele>-3.7</ele><time>2021-05-12T14:03:47Z</time><name>PT10546</name></trkpt>
<trkpt lat="53.098772" lon="05.948356"><ele>-3.7</ele><time>2021-05-12T14:03:48Z</time><name>PT10547</name></trkpt>
<trkpt lat="53.098768" lon="05.948369"><ele>-3.4</ele><time>2021-05-12T14:03:49Z</time><name>PT10548</name></trkpt>
<trkpt lat="53.098764" lon="05.948381"><ele>-3.6</ele><time>2021-05-12T14:03:50Z</time><name>PT10549</name></trkpt>
<trkpt lat="53.098761" lon="05.948395"><ele>-3.4</ele><time>2021-05-12T14:03:51Z</time><name>PT10550</name></trkpt>
<trkpt lat="53.098766" lon="05.948399"><ele>-3.5</ele><time>2021-05-12T14:03:52Z</time><name>PT10551</name></trkpt>
<trkpt lat="53.098768" lon="05.948399"><ele>-3.4</ele><time>2021-05-12T14:03:53Z</time><name>PT10552</name></trkpt>
<trkpt lat="53.098766" lon="05.948401"><ele>-3.5</ele><time>2021-05-12T14:03:54Z</time><name>PT10553</name></trkpt>
<trkpt lat="53.098766" lon="05.948404"><ele>-3.4</ele><time>2021-05-12T14:03:55Z</time><name>PT10554</name></trkpt>
<trkpt lat="53.098769" lon="05.948415"><ele>-3.4</ele><time>2021-05-12T14:03:56Z</time><name>PT10555</name></trkpt>
<trkpt lat="53.098765" lon="05.948428"><ele>-3.6</ele><time>2021-05-12T14:03:57Z</time><name>PT10556</name></trkpt>
<trkpt lat="53.098766" lon="05.948427"><ele>-3.6</ele><time>2021-05-12T14:03:58Z</time><name>PT10557</name></trkpt>
<trkpt lat="53.098766" lon="05.948430"><ele>-3.6</ele><time>2021-05-12T14:03:59Z</time><name>PT10558</name></trkpt>
<trkpt lat="53.098763" lon="05.948433"><ele>-3.7</ele><time>2021-05-12T14:04:00Z</time><name>PT10559</name></trkpt>
<trkpt lat="53.098762" lon="05.948434"><ele>-3.6</ele><time>2021-05-12T14:04:01Z</time><name>PT10560</name></trkpt>
<trkpt lat="53.098760" lon="05.948461"><ele>-3.6</ele><time>2021-05-12T14:04:17Z</time><name>PT10561</name></trkpt>
<trkpt lat="53.098754" lon="05.948486"><ele>-3.7</ele><time>2021-05-12T14:04:18Z</time><name>PT10562</name></trkpt>
<trkpt lat="53.098748" lon="05.948518"><ele>-3.6</ele><time>2021-05-12T14:04:19Z</time><name>PT10563</name></trkpt>
<trkpt lat="53.098743" lon="05.948536"><ele>-3.6</ele><time>2021-05-12T14:04:20Z</time><name>PT10564</name></trkpt>
<trkpt lat="53.098737" lon="05.948554"><ele>-3.7</ele><time>2021-05-12T14:04:21Z</time><name>PT10565</name></trkpt>
<trkpt lat="53.098730" lon="05.948570"><ele>-3.8</ele><time>2021-05-12T14:04:22Z</time><name>PT10566</name></trkpt>
<trkpt lat="53.098724" lon="05.948586"><ele>-4</ele><time>2021-05-12T14:04:23Z</time><name>PT10567</name></trkpt>
<trkpt lat="53.098718" lon="05.948605"><ele>-3.9</ele><time>2021-05-12T14:04:24Z</time><name>PT10568</name></trkpt>
<trkpt lat="53.098713" lon="05.948621"><ele>-3.7</ele><time>2021-05-12T14:04:25Z</time><name>PT10569</name></trkpt>
<trkpt lat="53.098708" lon="05.948640"><ele>-3.6</ele><time>2021-05-12T14:04:26Z</time><name>PT10570</name></trkpt>
<trkpt lat="53.098704" lon="05.948659"><ele>-3.5</ele><time>2021-05-12T14:04:27Z</time><name>PT10571</name></trkpt>
<trkpt lat="53.098699" lon="05.948677"><ele>-3.6</ele><time>2021-05-12T14:04:28Z</time><name>PT10572</name></trkpt>
<trkpt lat="53.098694" lon="05.948692"><ele>-3.6</ele><time>2021-05-12T14:04:29Z</time><name>PT10573</name></trkpt>
<trkpt lat="53.098688" lon="05.948710"><ele>-3.7</ele><time>2021-05-12T14:04:30Z</time><name>PT10574</name></trkpt>
<trkpt lat="53.098683" lon="05.948732"><ele>-3.7</ele><time>2021-05-12T14:04:31Z</time><name>PT10575</name></trkpt>
<trkpt lat="53.098681" lon="05.948749"><ele>-3.7</ele><time>2021-05-12T14:04:32Z</time><name>PT10576</name></trkpt>
<trkpt lat="53.098677" lon="05.948762"><ele>-3.6</ele><time>2021-05-12T14:04:33Z</time><name>PT10577</name></trkpt>
<trkpt lat="53.098675" lon="05.948773"><ele>-3.6</ele><time>2021-05-12T14:04:34Z</time><name>PT10578</name></trkpt>
<trkpt lat="53.098670" lon="05.948789"><ele>-3.6</ele><time>2021-05-12T14:04:35Z</time><name>PT10579</name></trkpt>
<trkpt lat="53.098666" lon="05.948804"><ele>-3.5</ele><time>2021-05-12T14:04:36Z</time><name>PT10580</name></trkpt>
<trkpt lat="53.098665" lon="05.948817"><ele>-3.6</ele><time>2021-05-12T14:04:37Z</time><name>PT10581</name></trkpt>
<trkpt lat="53.098662" lon="05.948832"><ele>-3.3</ele><time>2021-05-12T14:04:38Z</time><name>PT10582</name></trkpt>
<trkpt lat="53.098659" lon="05.948846"><ele>-3.3</ele><time>2021-05-12T14:04:39Z</time><name>PT10583</name></trkpt>
<trkpt lat="53.098651" lon="05.948858"><ele>-3.3</ele><time>2021-05-12T14:04:40Z</time><name>PT10584</name></trkpt>
<trkpt lat="53.098644" lon="05.948870"><ele>-3.2</ele><time>2021-05-12T14:04:41Z</time><name>PT10585</name></trkpt>
<trkpt lat="53.098640" lon="05.948884"><ele>-3.1</ele><time>2021-05-12T14:04:42Z</time><name>PT10586</name></trkpt>
<trkpt lat="53.098634" lon="05.948899"><ele>-3.1</ele><time>2021-05-12T14:04:43Z</time><name>PT10587</name></trkpt>
<trkpt lat="53.098625" lon="05.948913"><ele>-3.1</ele><time>2021-05-12T14:04:44Z</time><name>PT10588</name></trkpt>
<trkpt lat="53.098618" lon="05.948927"><ele>-3.1</ele><time>2021-05-12T14:04:45Z</time><name>PT10589</name></trkpt>
<trkpt lat="53.098611" lon="05.948940"><ele>-3.3</ele><time>2021-05-12T14:04:46Z</time><name>PT10590</name></trkpt>
<trkpt lat="53.098605" lon="05.948953"><ele>-3.3</ele><time>2021-05-12T14:04:47Z</time><name>PT10591</name></trkpt>
<trkpt lat="53.098598" lon="05.948961"><ele>-3.2</ele><time>2021-05-12T14:04:48Z</time><name>PT10592</name></trkpt>
<trkpt lat="53.098594" lon="05.948959"><ele>-3.2</ele><time>2021-05-12T14:04:49Z</time><name>PT10593</name></trkpt>
<trkpt lat="53.098591" lon="05.948957"><ele>-3.2</ele><time>2021-05-12T14:04:50Z</time><name>PT10594</name></trkpt>
<trkpt lat="53.098587" lon="05.948958"><ele>-3.1</ele><time>2021-05-12T14:04:51Z</time><name>PT10595</name></trkpt>
<trkpt lat="53.098582" lon="05.948962"><ele>-3.2</ele><time>2021-05-12T14:04:52Z</time><name>PT10596</name></trkpt>
<trkpt lat="53.098574" lon="05.948970"><ele>-3.1</ele><time>2021-05-12T14:04:56Z</time><name>PT10597</name></trkpt>
<trkpt lat="53.098571" lon="05.948986"><ele>-2.8</ele><time>2021-05-12T14:04:57Z</time><name>PT10598</name></trkpt>
<trkpt lat="53.098566" lon="05.949000"><ele>-2.7</ele><time>2021-05-12T14:04:58Z</time><name>PT10599</name></trkpt>
<trkpt lat="53.098561" lon="05.949011"><ele>-2.9</ele><time>2021-05-12T14:04:59Z</time><name>PT10600</name></trkpt>
<trkpt lat="53.098556" lon="05.949023"><ele>-3</ele><time>2021-05-12T14:05:00Z</time><name>PT10601</name></trkpt>
<trkpt lat="53.098551" lon="05.949031"><ele>-3</ele><time>2021-05-12T14:05:01Z</time><name>PT10602</name></trkpt>
<trkpt lat="53.098548" lon="05.949036"><ele>-3.1</ele><time>2021-05-12T14:05:02Z</time><name>PT10603</name></trkpt>
<trkpt lat="53.098543" lon="05.949032"><ele>-3.1</ele><time>2021-05-12T14:05:03Z</time><name>PT10604</name></trkpt>
<trkpt lat="53.098541" lon="05.949032"><ele>-3.3</ele><time>2021-05-12T14:05:04Z</time><name>PT10605</name></trkpt>
<trkpt lat="53.098537" lon="05.949035"><ele>-3.7</ele><time>2021-05-12T14:05:13Z</time><name>PT10606</name></trkpt>
<trkpt lat="53.098534" lon="05.949036"><ele>-3.7</ele><time>2021-05-12T14:05:14Z</time><name>PT10607</name></trkpt>
<trkpt lat="53.098532" lon="05.949036"><ele>-4</ele><time>2021-05-12T14:05:15Z</time><name>PT10608</name></trkpt>
<trkpt lat="53.098523" lon="05.949039"><ele>-3.9</ele><time>2021-05-12T14:05:31Z</time><name>PT10609</name></trkpt>
<trkpt lat="53.098519" lon="05.949055"><ele>-3.8</ele><time>2021-05-12T14:05:32Z</time><name>PT10610</name></trkpt>
<trkpt lat="53.098514" lon="05.949068"><ele>-3.7</ele><time>2021-05-12T14:05:33Z</time><name>PT10611</name></trkpt>
<trkpt lat="53.098508" lon="05.949081"><ele>-3.6</ele><time>2021-05-12T14:05:34Z</time><name>PT10612</name></trkpt>
<trkpt lat="53.098503" lon="05.949098"><ele>-3.5</ele><time>2021-05-12T14:05:35Z</time><name>PT10613</name></trkpt>
<trkpt lat="53.098501" lon="05.949113"><ele>-3.6</ele><time>2021-05-12T14:05:36Z</time><name>PT10614</name></trkpt>
<trkpt lat="53.098496" lon="05.949126"><ele>-3.6</ele><time>2021-05-12T14:05:37Z</time><name>PT10615</name></trkpt>
<trkpt lat="53.098491" lon="05.949139"><ele>-3.9</ele><time>2021-05-12T14:05:38Z</time><name>PT10616</name></trkpt>
<trkpt lat="53.098486" lon="05.949153"><ele>-3.9</ele><time>2021-05-12T14:05:39Z</time><name>PT10617</name></trkpt>
<trkpt lat="53.098482" lon="05.949165"><ele>-3.7</ele><time>2021-05-12T14:05:40Z</time><name>PT10618</name></trkpt>
<trkpt lat="53.098477" lon="05.949177"><ele>-3.6</ele><time>2021-05-12T14:05:41Z</time><name>PT10619</name></trkpt>
<trkpt lat="53.098471" lon="05.949190"><ele>-3.7</ele><time>2021-05-12T14:05:42Z</time><name>PT10620</name></trkpt>
<trkpt lat="53.098464" lon="05.949204"><ele>-3.6</ele><time>2021-05-12T14:05:43Z</time><name>PT10621</name></trkpt>
<trkpt lat="53.098456" lon="05.949217"><ele>-3.8</ele><time>2021-05-12T14:05:44Z</time><name>PT10622</name></trkpt>
<trkpt lat="53.098450" lon="05.949229"><ele>-4</ele><time>2021-05-12T14:05:45Z</time><name>PT10623</name></trkpt>
<trkpt lat="53.098444" lon="05.949242"><ele>-4</ele><time>2021-05-12T14:05:46Z</time><name>PT10624</name></trkpt>
<trkpt lat="53.098439" lon="05.949256"><ele>-4</ele><time>2021-05-12T14:05:47Z</time><name>PT10625</name></trkpt>
<trkpt lat="53.098432" lon="05.949272"><ele>-4</ele><time>2021-05-12T14:05:48Z</time><name>PT10626</name></trkpt>
<trkpt lat="53.098427" lon="05.949286"><ele>-4</ele><time>2021-05-12T14:05:49Z</time><name>PT10627</name></trkpt>
<trkpt lat="53.098421" lon="05.949300"><ele>-4.1</ele><time>2021-05-12T14:05:50Z</time><name>PT10628</name></trkpt>
<trkpt lat="53.098414" lon="05.949311"><ele>-4.1</ele><time>2021-05-12T14:05:51Z</time><name>PT10629</name></trkpt>
<trkpt lat="53.098408" lon="05.949325"><ele>-4.1</ele><time>2021-05-12T14:05:52Z</time><name>PT10630</name></trkpt>
<trkpt lat="53.098403" lon="05.949337"><ele>-4</ele><time>2021-05-12T14:05:53Z</time><name>PT10631</name></trkpt>
<trkpt lat="53.098396" lon="05.949351"><ele>-4</ele><time>2021-05-12T14:05:54Z</time><name>PT10632</name></trkpt>
<trkpt lat="53.098388" lon="05.949365"><ele>-4.2</ele><time>2021-05-12T14:05:55Z</time><name>PT10633</name></trkpt>
<trkpt lat="53.098382" lon="05.949378"><ele>-4.1</ele><time>2021-05-12T14:05:56Z</time><name>PT10634</name></trkpt>
<trkpt lat="53.098376" lon="05.949389"><ele>-4.2</ele><time>2021-05-12T14:05:57Z</time><name>PT10635</name></trkpt>
<trkpt lat="53.098370" lon="05.949403"><ele>-4.4</ele><time>2021-05-12T14:05:58Z</time><name>PT10636</name></trkpt>
<trkpt lat="53.098364" lon="05.949416"><ele>-4.2</ele><time>2021-05-12T14:05:59Z</time><name>PT10637</name></trkpt>
<trkpt lat="53.098360" lon="05.949430"><ele>-4.2</ele><time>2021-05-12T14:06:00Z</time><name>PT10638</name></trkpt>
<trkpt lat="53.098354" lon="05.949446"><ele>-4.1</ele><time>2021-05-12T14:06:01Z</time><name>PT10639</name></trkpt>
<trkpt lat="53.098347" lon="05.949459"><ele>-4.1</ele><time>2021-05-12T14:06:02Z</time><name>PT10640</name></trkpt>
<trkpt lat="53.098339" lon="05.949473"><ele>-4</ele><time>2021-05-12T14:06:03Z</time><name>PT10641</name></trkpt>
<trkpt lat="53.098332" lon="05.949487"><ele>-4.1</ele><time>2021-05-12T14:06:04Z</time><name>PT10642</name></trkpt>
<trkpt lat="53.098323" lon="05.949502"><ele>-4.1</ele><time>2021-05-12T14:06:05Z</time><name>PT10643</name></trkpt>
<trkpt lat="53.098316" lon="05.949517"><ele>-4</ele><time>2021-05-12T14:06:06Z</time><name>PT10644</name></trkpt>
<trkpt lat="53.098310" lon="05.949533"><ele>-4</ele><time>2021-05-12T14:06:07Z</time><name>PT10645</name></trkpt>
<trkpt lat="53.098304" lon="05.949549"><ele>-3.9</ele><time>2021-05-12T14:06:08Z</time><name>PT10646</name></trkpt>
<trkpt lat="53.098298" lon="05.949563"><ele>-3.8</ele><time>2021-05-12T14:06:09Z</time><name>PT10647</name></trkpt>
<trkpt lat="53.098291" lon="05.949578"><ele>-3.9</ele><time>2021-05-12T14:06:10Z</time><name>PT10648</name></trkpt>
<trkpt lat="53.098282" lon="05.949592"><ele>-3.9</ele><time>2021-05-12T14:06:11Z</time><name>PT10649</name></trkpt>
<trkpt lat="53.098277" lon="05.949601"><ele>-3.7</ele><time>2021-05-12T14:06:12Z</time><name>PT10650</name></trkpt>
<trkpt lat="53.098273" lon="05.949605"><ele>-3.7</ele><time>2021-05-12T14:06:13Z</time><name>PT10651</name></trkpt>
<trkpt lat="53.098265" lon="05.949610"><ele>-3.9</ele><time>2021-05-12T14:06:14Z</time><name>PT10652</name></trkpt>
<trkpt lat="53.098264" lon="05.949609"><ele>-3.9</ele><time>2021-05-12T14:06:15Z</time><name>PT10653</name></trkpt>
<trkpt lat="53.098262" lon="05.949610"><ele>-3.6</ele><time>2021-05-12T14:06:19Z</time><name>PT10654</name></trkpt>
<trkpt lat="53.098256" lon="05.949625"><ele>-3.5</ele><time>2021-05-12T14:06:20Z</time><name>PT10655</name></trkpt>
<trkpt lat="53.098250" lon="05.949636"><ele>-3.6</ele><time>2021-05-12T14:06:21Z</time><name>PT10656</name></trkpt>
<trkpt lat="53.098240" lon="05.949657"><ele>-3.5</ele><time>2021-05-12T14:06:22Z</time><name>PT10657</name></trkpt>
<trkpt lat="53.098234" lon="05.949674"><ele>-3.6</ele><time>2021-05-12T14:06:23Z</time><name>PT10658</name></trkpt>
<trkpt lat="53.098227" lon="05.949690"><ele>-3.4</ele><time>2021-05-12T14:06:24Z</time><name>PT10659</name></trkpt>
<trkpt lat="53.098219" lon="05.949708"><ele>-3.5</ele><time>2021-05-12T14:06:25Z</time><name>PT10660</name></trkpt>
<trkpt lat="53.098213" lon="05.949725"><ele>-3.6</ele><time>2021-05-12T14:06:26Z</time><name>PT10661</name></trkpt>
<trkpt lat="53.098205" lon="05.949738"><ele>-3.5</ele><time>2021-05-12T14:06:27Z</time><name>PT10662</name></trkpt>
<trkpt lat="53.098198" lon="05.949751"><ele>-3.5</ele><time>2021-05-12T14:06:28Z</time><name>PT10663</name></trkpt>
<trkpt lat="53.098190" lon="05.949768"><ele>-3.5</ele><time>2021-05-12T14:06:29Z</time><name>PT10664</name></trkpt>
<trkpt lat="53.098184" lon="05.949782"><ele>-3.5</ele><time>2021-05-12T14:06:30Z</time><name>PT10665</name></trkpt>
<trkpt lat="53.098178" lon="05.949796"><ele>-3.6</ele><time>2021-05-12T14:06:31Z</time><name>PT10666</name></trkpt>
<trkpt lat="53.098172" lon="05.949812"><ele>-3.8</ele><time>2021-05-12T14:06:32Z</time><name>PT10667</name></trkpt>
<trkpt lat="53.098164" lon="05.949826"><ele>-3.7</ele><time>2021-05-12T14:06:33Z</time><name>PT10668</name></trkpt>
<trkpt lat="53.098158" lon="05.949842"><ele>-3.7</ele><time>2021-05-12T14:06:34Z</time><name>PT10669</name></trkpt>
<trkpt lat="53.098152" lon="05.949856"><ele>-3.7</ele><time>2021-05-12T14:06:35Z</time><name>PT10670</name></trkpt>
<trkpt lat="53.098145" lon="05.949869"><ele>-3.7</ele><time>2021-05-12T14:06:36Z</time><name>PT10671</name></trkpt>
<trkpt lat="53.098138" lon="05.949881"><ele>-3.8</ele><time>2021-05-12T14:06:37Z</time><name>PT10672</name></trkpt>
<trkpt lat="53.098133" lon="05.949895"><ele>-3.8</ele><time>2021-05-12T14:06:38Z</time><name>PT10673</name></trkpt>
<trkpt lat="53.098126" lon="05.949910"><ele>-3.7</ele><time>2021-05-12T14:06:39Z</time><name>PT10674</name></trkpt>
<trkpt lat="53.098122" lon="05.949925"><ele>-3.7</ele><time>2021-05-12T14:06:40Z</time><name>PT10675</name></trkpt>
<trkpt lat="53.098110" lon="05.949937"><ele>-3.8</ele><time>2021-05-12T14:06:41Z</time><name>PT10676</name></trkpt>
<trkpt lat="53.098103" lon="05.949948"><ele>-4</ele><time>2021-05-12T14:06:42Z</time><name>PT10677</name></trkpt>
<trkpt lat="53.098098" lon="05.949961"><ele>-4</ele><time>2021-05-12T14:06:43Z</time><name>PT10678</name></trkpt>
<trkpt lat="53.098092" lon="05.949973"><ele>-4.3</ele><time>2021-05-12T14:06:44Z</time><name>PT10679</name></trkpt>
<trkpt lat="53.098089" lon="05.949986"><ele>-4.3</ele><time>2021-05-12T14:06:45Z</time><name>PT10680</name></trkpt>
<trkpt lat="53.098084" lon="05.950001"><ele>-4.5</ele><time>2021-05-12T14:06:46Z</time><name>PT10681</name></trkpt>
<trkpt lat="53.098081" lon="05.950013"><ele>-4.5</ele><time>2021-05-12T14:06:47Z</time><name>PT10682</name></trkpt>
<trkpt lat="53.098075" lon="05.950024"><ele>-4.3</ele><time>2021-05-12T14:06:48Z</time><name>PT10683</name></trkpt>
<trkpt lat="53.098068" lon="05.950037"><ele>-4.2</ele><time>2021-05-12T14:06:49Z</time><name>PT10684</name></trkpt>
<trkpt lat="53.098062" lon="05.950051"><ele>-4.1</ele><time>2021-05-12T14:06:50Z</time><name>PT10685</name></trkpt>
<trkpt lat="53.098057" lon="05.950062"><ele>-4.2</ele><time>2021-05-12T14:06:51Z</time><name>PT10686</name></trkpt>
<trkpt lat="53.098051" lon="05.950076"><ele>-4</ele><time>2021-05-12T14:06:52Z</time><name>PT10687</name></trkpt>
<trkpt lat="53.098047" lon="05.950089"><ele>-4</ele><time>2021-05-12T14:06:53Z</time><name>PT10688</name></trkpt>
<trkpt lat="53.098041" lon="05.950100"><ele>-3.8</ele><time>2021-05-12T14:06:54Z</time><name>PT10689</name></trkpt>
<trkpt lat="53.098033" lon="05.950113"><ele>-3.5</ele><time>2021-05-12T14:06:55Z</time><name>PT10690</name></trkpt>
<trkpt lat="53.098026" lon="05.950126"><ele>-3.7</ele><time>2021-05-12T14:06:56Z</time><name>PT10691</name></trkpt>
<trkpt lat="53.098021" lon="05.950140"><ele>-3.8</ele><time>2021-05-12T14:06:57Z</time><name>PT10692</name></trkpt>
<trkpt lat="53.098017" lon="05.950159"><ele>-3.8</ele><time>2021-05-12T14:06:58Z</time><name>PT10693</name></trkpt>
<trkpt lat="53.098011" lon="05.950177"><ele>-3.9</ele><time>2021-05-12T14:06:59Z</time><name>PT10694</name></trkpt>
<trkpt lat="53.098002" lon="05.950194"><ele>-3.8</ele><time>2021-05-12T14:07:00Z</time><name>PT10695</name></trkpt>
<trkpt lat="53.097996" lon="05.950209"><ele>-3.7</ele><time>2021-05-12T14:07:01Z</time><name>PT10696</name></trkpt>
<trkpt lat="53.097990" lon="05.950224"><ele>-3.8</ele><time>2021-05-12T14:07:02Z</time><name>PT10697</name></trkpt>
<trkpt lat="53.097984" lon="05.950242"><ele>-3.9</ele><time>2021-05-12T14:07:03Z</time><name>PT10698</name></trkpt>
<trkpt lat="53.097980" lon="05.950257"><ele>-4</ele><time>2021-05-12T14:07:04Z</time><name>PT10699</name></trkpt>
<trkpt lat="53.097975" lon="05.950272"><ele>-4.1</ele><time>2021-05-12T14:07:05Z</time><name>PT10700</name></trkpt>
<trkpt lat="53.097969" lon="05.950286"><ele>-4</ele><time>2021-05-12T14:07:06Z</time><name>PT10701</name></trkpt>
<trkpt lat="53.097962" lon="05.950300"><ele>-4.1</ele><time>2021-05-12T14:07:07Z</time><name>PT10702</name></trkpt>
<trkpt lat="53.097954" lon="05.950313"><ele>-4.1</ele><time>2021-05-12T14:07:08Z</time><name>PT10703</name></trkpt>
<trkpt lat="53.097946" lon="05.950329"><ele>-4</ele><time>2021-05-12T14:07:09Z</time><name>PT10704</name></trkpt>
<trkpt lat="53.097940" lon="05.950346"><ele>-4.1</ele><time>2021-05-12T14:07:10Z</time><name>PT10705</name></trkpt>
<trkpt lat="53.097934" lon="05.950361"><ele>-4.2</ele><time>2021-05-12T14:07:11Z</time><name>PT10706</name></trkpt>
<trkpt lat="53.097927" lon="05.950376"><ele>-4.2</ele><time>2021-05-12T14:07:12Z</time><name>PT10707</name></trkpt>
<trkpt lat="53.097921" lon="05.950390"><ele>-4.2</ele><time>2021-05-12T14:07:13Z</time><name>PT10708</name></trkpt>
<trkpt lat="53.097914" lon="05.950405"><ele>-4.1</ele><time>2021-05-12T14:07:14Z</time><name>PT10709</name></trkpt>
<trkpt lat="53.097906" lon="05.950420"><ele>-4</ele><time>2021-05-12T14:07:15Z</time><name>PT10710</name></trkpt>
<trkpt lat="53.097898" lon="05.950436"><ele>-3.9</ele><time>2021-05-12T14:07:16Z</time><name>PT10711</name></trkpt>
<trkpt lat="53.097893" lon="05.950451"><ele>-3.9</ele><time>2021-05-12T14:07:17Z</time><name>PT10712</name></trkpt>
<trkpt lat="53.097886" lon="05.950467"><ele>-4</ele><time>2021-05-12T14:07:18Z</time><name>PT10713</name></trkpt>
<trkpt lat="53.097878" lon="05.950482"><ele>-4.1</ele><time>2021-05-12T14:07:19Z</time><name>PT10714</name></trkpt>
<trkpt lat="53.097871" lon="05.950496"><ele>-4.1</ele><time>2021-05-12T14:07:20Z</time><name>PT10715</name></trkpt>
<trkpt lat="53.097863" lon="05.950504"><ele>-4.3</ele><time>2021-05-12T14:07:21Z</time><name>PT10716</name></trkpt>
<trkpt lat="53.097859" lon="05.950506"><ele>-4.1</ele><time>2021-05-12T14:07:22Z</time><name>PT10717</name></trkpt>
<trkpt lat="53.097859" lon="05.950512"><ele>-4.2</ele><time>2021-05-12T14:07:23Z</time><name>PT10718</name></trkpt>
<trkpt lat="53.097854" lon="05.950524"><ele>-4.3</ele><time>2021-05-12T14:07:24Z</time><name>PT10719</name></trkpt>
<trkpt lat="53.097850" lon="05.950539"><ele>-4.3</ele><time>2021-05-12T14:07:25Z</time><name>PT10720</name></trkpt>
<trkpt lat="53.097844" lon="05.950552"><ele>-4.4</ele><time>2021-05-12T14:07:26Z</time><name>PT10721</name></trkpt>
<trkpt lat="53.097839" lon="05.950568"><ele>-4.3</ele><time>2021-05-12T14:07:27Z</time><name>PT10722</name></trkpt>
<trkpt lat="53.097832" lon="05.950583"><ele>-4.3</ele><time>2021-05-12T14:07:28Z</time><name>PT10723</name></trkpt>
<trkpt lat="53.097826" lon="05.950598"><ele>-4.3</ele><time>2021-05-12T14:07:29Z</time><name>PT10724</name></trkpt>
<trkpt lat="53.097821" lon="05.950613"><ele>-4</ele><time>2021-05-12T14:07:30Z</time><name>PT10725</name></trkpt>
<trkpt lat="53.097815" lon="05.950629"><ele>-4.1</ele><time>2021-05-12T14:07:31Z</time><name>PT10726</name></trkpt>
<trkpt lat="53.097810" lon="05.950643"><ele>-4.2</ele><time>2021-05-12T14:07:32Z</time><name>PT10727</name></trkpt>
<trkpt lat="53.097804" lon="05.950657"><ele>-4.1</ele><time>2021-05-12T14:07:33Z</time><name>PT10728</name></trkpt>
<trkpt lat="53.097798" lon="05.950672"><ele>-4.2</ele><time>2021-05-12T14:07:34Z</time><name>PT10729</name></trkpt>
<trkpt lat="53.097793" lon="05.950684"><ele>-4</ele><time>2021-05-12T14:07:35Z</time><name>PT10730</name></trkpt>
<trkpt lat="53.097787" lon="05.950695"><ele>-4</ele><time>2021-05-12T14:07:36Z</time><name>PT10731</name></trkpt>
<trkpt lat="53.097782" lon="05.950708"><ele>-4</ele><time>2021-05-12T14:07:37Z</time><name>PT10732</name></trkpt>
<trkpt lat="53.097776" lon="05.950721"><ele>-4.1</ele><time>2021-05-12T14:07:38Z</time><name>PT10733</name></trkpt>
<trkpt lat="53.097769" lon="05.950735"><ele>-4</ele><time>2021-05-12T14:07:39Z</time><name>PT10734</name></trkpt>
<trkpt lat="53.097762" lon="05.950748"><ele>-4.2</ele><time>2021-05-12T14:07:40Z</time><name>PT10735</name></trkpt>
<trkpt lat="53.097756" lon="05.950761"><ele>-4.2</ele><time>2021-05-12T14:07:41Z</time><name>PT10736</name></trkpt>
<trkpt lat="53.097750" lon="05.950776"><ele>-4.1</ele><time>2021-05-12T14:07:42Z</time><name>PT10737</name></trkpt>
<trkpt lat="53.097744" lon="05.950790"><ele>-4.3</ele><time>2021-05-12T14:07:43Z</time><name>PT10738</name></trkpt>
<trkpt lat="53.097739" lon="05.950803"><ele>-4.4</ele><time>2021-05-12T14:07:44Z</time><name>PT10739</name></trkpt>
<trkpt lat="53.097734" lon="05.950816"><ele>-4.5</ele><time>2021-05-12T14:07:45Z</time><name>PT10740</name></trkpt>
<trkpt lat="53.097727" lon="05.950828"><ele>-4.6</ele><time>2021-05-12T14:07:46Z</time><name>PT10741</name></trkpt>
<trkpt lat="53.097720" lon="05.950836"><ele>-4.7</ele><time>2021-05-12T14:07:47Z</time><name>PT10742</name></trkpt>
<trkpt lat="53.097716" lon="05.950839"><ele>-4.5</ele><time>2021-05-12T14:07:48Z</time><name>PT10743</name></trkpt>
<trkpt lat="53.097714" lon="05.950840"><ele>-4.5</ele><time>2021-05-12T14:07:49Z</time><name>PT10744</name></trkpt>
<trkpt lat="53.097713" lon="05.950843"><ele>-4.5</ele><time>2021-05-12T14:07:50Z</time><name>PT10745</name></trkpt>
<trkpt lat="53.097710" lon="05.950854"><ele>-4.4</ele><time>2021-05-12T14:07:51Z</time><name>PT10746</name></trkpt>
<trkpt lat="53.097705" lon="05.950868"><ele>-4.3</ele><time>2021-05-12T14:07:52Z</time><name>PT10747</name></trkpt>
<trkpt lat="53.097698" lon="05.950881"><ele>-4.3</ele><time>2021-05-12T14:07:53Z</time><name>PT10748</name></trkpt>
<trkpt lat="53.097692" lon="05.950894"><ele>-4</ele><time>2021-05-12T14:07:54Z</time><name>PT10749</name></trkpt>
<trkpt lat="53.097685" lon="05.950907"><ele>-4.1</ele><time>2021-05-12T14:07:55Z</time><name>PT10750</name></trkpt>
<trkpt lat="53.097670" lon="05.950920"><ele>-4.2</ele><time>2021-05-12T14:07:56Z</time><name>PT10751</name></trkpt>
<trkpt lat="53.097665" lon="05.950934"><ele>-4.3</ele><time>2021-05-12T14:07:57Z</time><name>PT10752</name></trkpt>
<trkpt lat="53.097657" lon="05.950949"><ele>-4.3</ele><time>2021-05-12T14:07:58Z</time><name>PT10753</name></trkpt>
<trkpt lat="53.097650" lon="05.950961"><ele>-4.4</ele><time>2021-05-12T14:07:59Z</time><name>PT10754</name></trkpt>
<trkpt lat="53.097644" lon="05.950973"><ele>-4.3</ele><time>2021-05-12T14:08:00Z</time><name>PT10755</name></trkpt>
<trkpt lat="53.097638" lon="05.950986"><ele>-4.2</ele><time>2021-05-12T14:08:01Z</time><name>PT10756</name></trkpt>
<trkpt lat="53.097634" lon="05.950999"><ele>-3.9</ele><time>2021-05-12T14:08:02Z</time><name>PT10757</name></trkpt>
<trkpt lat="53.097628" lon="05.951012"><ele>-3.8</ele><time>2021-05-12T14:08:03Z</time><name>PT10758</name></trkpt>
<trkpt lat="53.097622" lon="05.951028"><ele>-3.9</ele><time>2021-05-12T14:08:04Z</time><name>PT10759</name></trkpt>
<trkpt lat="53.097616" lon="05.951041"><ele>-3.9</ele><time>2021-05-12T14:08:05Z</time><name>PT10760</name></trkpt>
<trkpt lat="53.097610" lon="05.951056"><ele>-4</ele><time>2021-05-12T14:08:06Z</time><name>PT10761</name></trkpt>
<trkpt lat="53.097604" lon="05.951071"><ele>-3.9</ele><time>2021-05-12T14:08:07Z</time><name>PT10762</name></trkpt>
<trkpt lat="53.097599" lon="05.951084"><ele>-3.9</ele><time>2021-05-12T14:08:08Z</time><name>PT10763</name></trkpt>
<trkpt lat="53.097593" lon="05.951097"><ele>-3.9</ele><time>2021-05-12T14:08:09Z</time><name>PT10764</name></trkpt>
<trkpt lat="53.097586" lon="05.951111"><ele>-3.9</ele><time>2021-05-12T14:08:10Z</time><name>PT10765</name></trkpt>
<trkpt lat="53.097582" lon="05.951124"><ele>-4</ele><time>2021-05-12T14:08:11Z</time><name>PT10766</name></trkpt>
<trkpt lat="53.097579" lon="05.951137"><ele>-3.8</ele><time>2021-05-12T14:08:12Z</time><name>PT10767</name></trkpt>
<trkpt lat="53.097575" lon="05.951149"><ele>-4</ele><time>2021-05-12T14:08:13Z</time><name>PT10768</name></trkpt>
<trkpt lat="53.097569" lon="05.951159"><ele>-4</ele><time>2021-05-12T14:08:14Z</time><name>PT10769</name></trkpt>
<trkpt lat="53.097562" lon="05.951171"><ele>-4</ele><time>2021-05-12T14:08:15Z</time><name>PT10770</name></trkpt>
<trkpt lat="53.097557" lon="05.951183"><ele>-4.2</ele><time>2021-05-12T14:08:16Z</time><name>PT10771</name></trkpt>
<trkpt lat="53.097551" lon="05.951196"><ele>-4.3</ele><time>2021-05-12T14:08:17Z</time><name>PT10772</name></trkpt>
<trkpt lat="53.097546" lon="05.951207"><ele>-4.3</ele><time>2021-05-12T14:08:18Z</time><name>PT10773</name></trkpt>
<trkpt lat="53.097539" lon="05.951219"><ele>-4.2</ele><time>2021-05-12T14:08:19Z</time><name>PT10774</name></trkpt>
<trkpt lat="53.097532" lon="05.951232"><ele>-4.2</ele><time>2021-05-12T14:08:20Z</time><name>PT10775</name></trkpt>
<trkpt lat="53.097527" lon="05.951246"><ele>-4.1</ele><time>2021-05-12T14:08:21Z</time><name>PT10776</name></trkpt>
<trkpt lat="53.097522" lon="05.951260"><ele>-4.2</ele><time>2021-05-12T14:08:22Z</time><name>PT10777</name></trkpt>
<trkpt lat="53.097517" lon="05.951275"><ele>-4.2</ele><time>2021-05-12T14:08:23Z</time><name>PT10778</name></trkpt>
<trkpt lat="53.097513" lon="05.951284"><ele>-4</ele><time>2021-05-12T14:08:24Z</time><name>PT10779</name></trkpt>
<trkpt lat="53.097508" lon="05.951296"><ele>-4</ele><time>2021-05-12T14:08:25Z</time><name>PT10780</name></trkpt>
<trkpt lat="53.097502" lon="05.951308"><ele>-3.9</ele><time>2021-05-12T14:08:26Z</time><name>PT10781</name></trkpt>
<trkpt lat="53.097497" lon="05.951321"><ele>-3.7</ele><time>2021-05-12T14:08:27Z</time><name>PT10782</name></trkpt>
<trkpt lat="53.097492" lon="05.951334"><ele>-3.7</ele><time>2021-05-12T14:08:28Z</time><name>PT10783</name></trkpt>
<trkpt lat="53.097484" lon="05.951347"><ele>-3.8</ele><time>2021-05-12T14:08:29Z</time><name>PT10784</name></trkpt>
<trkpt lat="53.097479" lon="05.951359"><ele>-3.6</ele><time>2021-05-12T14:08:30Z</time><name>PT10785</name></trkpt>
<trkpt lat="53.097473" lon="05.951371"><ele>-3.6</ele><time>2021-05-12T14:08:31Z</time><name>PT10786</name></trkpt>
<trkpt lat="53.097467" lon="05.951386"><ele>-3.7</ele><time>2021-05-12T14:08:32Z</time><name>PT10787</name></trkpt>
<trkpt lat="53.097463" lon="05.951397"><ele>-3.7</ele><time>2021-05-12T14:08:33Z</time><name>PT10788</name></trkpt>
<trkpt lat="53.097455" lon="05.951408"><ele>-3.9</ele><time>2021-05-12T14:08:34Z</time><name>PT10789</name></trkpt>
<trkpt lat="53.097449" lon="05.951419"><ele>-3.7</ele><time>2021-05-12T14:08:35Z</time><name>PT10790</name></trkpt>
<trkpt lat="53.097444" lon="05.951431"><ele>-3.8</ele><time>2021-05-12T14:08:36Z</time><name>PT10791</name></trkpt>
<trkpt lat="53.097437" lon="05.951445"><ele>-3.6</ele><time>2021-05-12T14:08:37Z</time><name>PT10792</name></trkpt>
<trkpt lat="53.097430" lon="05.951458"><ele>-3.5</ele><time>2021-05-12T14:08:38Z</time><name>PT10793</name></trkpt>
<trkpt lat="53.097423" lon="05.951470"><ele>-3.6</ele><time>2021-05-12T14:08:39Z</time><name>PT10794</name></trkpt>
<trkpt lat="53.097415" lon="05.951484"><ele>-3.5</ele><time>2021-05-12T14:08:40Z</time><name>PT10795</name></trkpt>
<trkpt lat="53.097408" lon="05.951496"><ele>-3.6</ele><time>2021-05-12T14:08:41Z</time><name>PT10796</name></trkpt>
<trkpt lat="53.097404" lon="05.951510"><ele>-3.6</ele><time>2021-05-12T14:08:42Z</time><name>PT10797</name></trkpt>
<trkpt lat="53.097400" lon="05.951524"><ele>-3.6</ele><time>2021-05-12T14:08:43Z</time><name>PT10798</name></trkpt>
<trkpt lat="53.097394" lon="05.951536"><ele>-3.5</ele><time>2021-05-12T14:08:44Z</time><name>PT10799</name></trkpt>
<trkpt lat="53.097387" lon="05.951548"><ele>-3.5</ele><time>2021-05-12T14:08:45Z</time><name>PT10800</name></trkpt>
<trkpt lat="53.097381" lon="05.951559"><ele>-3.6</ele><time>2021-05-12T14:08:46Z</time><name>PT10801</name></trkpt>
<trkpt lat="53.097376" lon="05.951572"><ele>-3.8</ele><time>2021-05-12T14:08:47Z</time><name>PT10802</name></trkpt>
<trkpt lat="53.097371" lon="05.951586"><ele>-4</ele><time>2021-05-12T14:08:48Z</time><name>PT10803</name></trkpt>
<trkpt lat="53.097366" lon="05.951596"><ele>-4.2</ele><time>2021-05-12T14:08:49Z</time><name>PT10804</name></trkpt>
<trkpt lat="53.097359" lon="05.951611"><ele>-4.3</ele><time>2021-05-12T14:08:50Z</time><name>PT10805</name></trkpt>
<trkpt lat="53.097355" lon="05.951625"><ele>-4.3</ele><time>2021-05-12T14:08:51Z</time><name>PT10806</name></trkpt>
<trkpt lat="53.097350" lon="05.951638"><ele>-4.5</ele><time>2021-05-12T14:08:52Z</time><name>PT10807</name></trkpt>
<trkpt lat="53.097344" lon="05.951651"><ele>-4.1</ele><time>2021-05-12T14:08:53Z</time><name>PT10808</name></trkpt>
<trkpt lat="53.097338" lon="05.951661"><ele>-4</ele><time>2021-05-12T14:08:54Z</time><name>PT10809</name></trkpt>
<trkpt lat="53.097334" lon="05.951673"><ele>-4.1</ele><time>2021-05-12T14:08:55Z</time><name>PT10810</name></trkpt>
<trkpt lat="53.097329" lon="05.951683"><ele>-4</ele><time>2021-05-12T14:08:56Z</time><name>PT10811</name></trkpt>
<trkpt lat="53.097324" lon="05.951690"><ele>-4.1</ele><time>2021-05-12T14:08:57Z</time><name>PT10812</name></trkpt>
<trkpt lat="53.097319" lon="05.951697"><ele>-4.3</ele><time>2021-05-12T14:08:58Z</time><name>PT10813</name></trkpt>
<trkpt lat="53.097314" lon="05.951706"><ele>-4.2</ele><time>2021-05-12T14:08:59Z</time><name>PT10814</name></trkpt>
<trkpt lat="53.097309" lon="05.951718"><ele>-4</ele><time>2021-05-12T14:09:00Z</time><name>PT10815</name></trkpt>
<trkpt lat="53.097303" lon="05.951726"><ele>-4</ele><time>2021-05-12T14:09:01Z</time><name>PT10816</name></trkpt>
<trkpt lat="53.097300" lon="05.951733"><ele>-3.8</ele><time>2021-05-12T14:09:02Z</time><name>PT10817</name></trkpt>
<trkpt lat="53.097295" lon="05.951742"><ele>-3.6</ele><time>2021-05-12T14:09:03Z</time><name>PT10818</name></trkpt>
<trkpt lat="53.097290" lon="05.951750"><ele>-3.6</ele><time>2021-05-12T14:09:04Z</time><name>PT10819</name></trkpt>
<trkpt lat="53.097286" lon="05.951760"><ele>-3.5</ele><time>2021-05-12T14:09:05Z</time><name>PT10820</name></trkpt>
<trkpt lat="53.097282" lon="05.951768"><ele>-3.6</ele><time>2021-05-12T14:09:06Z</time><name>PT10821</name></trkpt>
<trkpt lat="53.097278" lon="05.951770"><ele>-3.6</ele><time>2021-05-12T14:09:07Z</time><name>PT10822</name></trkpt>
<trkpt lat="53.097276" lon="05.951771"><ele>-3.6</ele><time>2021-05-12T14:09:08Z</time><name>PT10823</name></trkpt>
<trkpt lat="53.097276" lon="05.951773"><ele>-3.7</ele><time>2021-05-12T14:09:09Z</time><name>PT10824</name></trkpt>
<trkpt lat="53.097275" lon="05.951778"><ele>-3.8</ele><time>2021-05-12T14:09:10Z</time><name>PT10825</name></trkpt>
<trkpt lat="53.097273" lon="05.951782"><ele>-3.7</ele><time>2021-05-12T14:09:11Z</time><name>PT10826</name></trkpt>
<trkpt lat="53.097271" lon="05.951787"><ele>-3.6</ele><time>2021-05-12T14:09:12Z</time><name>PT10827</name></trkpt>
<trkpt lat="53.097269" lon="05.951794"><ele>-3.5</ele><time>2021-05-12T14:09:27Z</time><name>PT10828</name></trkpt>
<trkpt lat="53.097264" lon="05.951805"><ele>-3.5</ele><time>2021-05-12T14:09:28Z</time><name>PT10829</name></trkpt>
<trkpt lat="53.097259" lon="05.951823"><ele>-3.6</ele><time>2021-05-12T14:09:29Z</time><name>PT10830</name></trkpt>
<trkpt lat="53.097254" lon="05.951840"><ele>-3.7</ele><time>2021-05-12T14:09:30Z</time><name>PT10831</name></trkpt>
<trkpt lat="53.097250" lon="05.951857"><ele>-3.6</ele><time>2021-05-12T14:09:31Z</time><name>PT10832</name></trkpt>
<trkpt lat="53.097243" lon="05.951871"><ele>-3.6</ele><time>2021-05-12T14:09:32Z</time><name>PT10833</name></trkpt>
<trkpt lat="53.097236" lon="05.951882"><ele>-3.4</ele><time>2021-05-12T14:09:33Z</time><name>PT10834</name></trkpt>
<trkpt lat="53.097232" lon="05.951893"><ele>-3.3</ele><time>2021-05-12T14:09:34Z</time><name>PT10835</name></trkpt>
<trkpt lat="53.097227" lon="05.951903"><ele>-3.3</ele><time>2021-05-12T14:09:35Z</time><name>PT10836</name></trkpt>
<trkpt lat="53.097222" lon="05.951912"><ele>-3.1</ele><time>2021-05-12T14:09:36Z</time><name>PT10837</name></trkpt>
<trkpt lat="53.097211" lon="05.951913"><ele>-3.1</ele><time>2021-05-12T14:09:37Z</time><name>PT10838</name></trkpt>
<trkpt lat="53.097206" lon="05.951921"><ele>-3.1</ele><time>2021-05-12T14:09:38Z</time><name>PT10839</name></trkpt>
<trkpt lat="53.097202" lon="05.951929"><ele>-3.1</ele><time>2021-05-12T14:09:39Z</time><name>PT10840</name></trkpt>
<trkpt lat="53.097197" lon="05.951931"><ele>-3</ele><time>2021-05-12T14:09:40Z</time><name>PT10841</name></trkpt>
<trkpt lat="53.097191" lon="05.951938"><ele>-3</ele><time>2021-05-12T14:09:41Z</time><name>PT10842</name></trkpt>
<trkpt lat="53.097184" lon="05.951941"><ele>-3.1</ele><time>2021-05-12T14:09:42Z</time><name>PT10843</name></trkpt>
<trkpt lat="53.097177" lon="05.951935"><ele>-3.1</ele><time>2021-05-12T14:09:43Z</time><name>PT10844</name></trkpt>
<trkpt lat="53.097172" lon="05.951931"><ele>-3.3</ele><time>2021-05-12T14:09:44Z</time><name>PT10845</name></trkpt>
<trkpt lat="53.097159" lon="05.951933"><ele>-3.6</ele><time>2021-05-12T14:09:45Z</time><name>PT10846</name></trkpt>
<trkpt lat="53.097152" lon="05.951930"><ele>-3.9</ele><time>2021-05-12T14:09:46Z</time><name>PT10847</name></trkpt>
<trkpt lat="53.097147" lon="05.951926"><ele>-4</ele><time>2021-05-12T14:09:47Z</time><name>PT10848</name></trkpt>
<trkpt lat="53.097143" lon="05.951917"><ele>-3.9</ele><time>2021-05-12T14:09:48Z</time><name>PT10849</name></trkpt>
<trkpt lat="53.097138" lon="05.951906"><ele>-3.6</ele><time>2021-05-12T14:09:49Z</time><name>PT10850</name></trkpt>
<trkpt lat="53.097130" lon="05.951899"><ele>-3.4</ele><time>2021-05-12T14:09:50Z</time><name>PT10851</name></trkpt>
<trkpt lat="53.097126" lon="05.951891"><ele>-3.2</ele><time>2021-05-12T14:09:51Z</time><name>PT10852</name></trkpt>
<trkpt lat="53.097116" lon="05.951888"><ele>-3</ele><time>2021-05-12T14:09:52Z</time><name>PT10853</name></trkpt>
<trkpt lat="53.097108" lon="05.951879"><ele>-3</ele><time>2021-05-12T14:09:53Z</time><name>PT10854</name></trkpt>
<trkpt lat="53.097101" lon="05.951873"><ele>-3.1</ele><time>2021-05-12T14:09:54Z</time><name>PT10855</name></trkpt>
<trkpt lat="53.097091" lon="05.951866"><ele>-3.1</ele><time>2021-05-12T14:09:55Z</time><name>PT10856</name></trkpt>
<trkpt lat="53.097084" lon="05.951858"><ele>-3.2</ele><time>2021-05-12T14:09:56Z</time><name>PT10857</name></trkpt>
<trkpt lat="53.097072" lon="05.951853"><ele>-3.3</ele><time>2021-05-12T14:09:57Z</time><name>PT10858</name></trkpt>
<trkpt lat="53.097064" lon="05.951842"><ele>-3.3</ele><time>2021-05-12T14:09:58Z</time><name>PT10859</name></trkpt>
<trkpt lat="53.097057" lon="05.951835"><ele>-3.1</ele><time>2021-05-12T14:09:59Z</time><name>PT10860</name></trkpt>
<trkpt lat="53.097047" lon="05.951826"><ele>-3.1</ele><time>2021-05-12T14:10:00Z</time><name>PT10861</name></trkpt>
<trkpt lat="53.097037" lon="05.951814"><ele>-3.1</ele><time>2021-05-12T14:10:01Z</time><name>PT10862</name></trkpt>
<trkpt lat="53.097028" lon="05.951803"><ele>-3.1</ele><time>2021-05-12T14:10:02Z</time><name>PT10863</name></trkpt>
<trkpt lat="53.097020" lon="05.951795"><ele>-3.2</ele><time>2021-05-12T14:10:03Z</time><name>PT10864</name></trkpt>
<trkpt lat="53.097011" lon="05.951783"><ele>-3.2</ele><time>2021-05-12T14:10:04Z</time><name>PT10865</name></trkpt>
<trkpt lat="53.097003" lon="05.951771"><ele>-3.5</ele><time>2021-05-12T14:10:05Z</time><name>PT10866</name></trkpt>
<trkpt lat="53.096997" lon="05.951760"><ele>-3.5</ele><time>2021-05-12T14:10:06Z</time><name>PT10867</name></trkpt>
<trkpt lat="53.096989" lon="05.951750"><ele>-3.7</ele><time>2021-05-12T14:10:07Z</time><name>PT10868</name></trkpt>
<trkpt lat="53.096981" lon="05.951741"><ele>-3.8</ele><time>2021-05-12T14:10:08Z</time><name>PT10869</name></trkpt>
<trkpt lat="53.096975" lon="05.951731"><ele>-4</ele><time>2021-05-12T14:10:09Z</time><name>PT10870</name></trkpt>
<trkpt lat="53.096969" lon="05.951718"><ele>-4.1</ele><time>2021-05-12T14:10:10Z</time><name>PT10871</name></trkpt>
<trkpt lat="53.096961" lon="05.951705"><ele>-4.2</ele><time>2021-05-12T14:10:11Z</time><name>PT10872</name></trkpt>
<trkpt lat="53.096953" lon="05.951693"><ele>-4.2</ele><time>2021-05-12T14:10:12Z</time><name>PT10873</name></trkpt>
<trkpt lat="53.096945" lon="05.951681"><ele>-4.2</ele><time>2021-05-12T14:10:13Z</time><name>PT10874</name></trkpt>
<trkpt lat="53.096937" lon="05.951669"><ele>-4.3</ele><time>2021-05-12T14:10:14Z</time><name>PT10875</name></trkpt>
<trkpt lat="53.096929" lon="05.951656"><ele>-4.5</ele><time>2021-05-12T14:10:15Z</time><name>PT10876</name></trkpt>
<trkpt lat="53.096922" lon="05.951642"><ele>-4.5</ele><time>2021-05-12T14:10:16Z</time><name>PT10877</name></trkpt>
<trkpt lat="53.096915" lon="05.951633"><ele>-4.5</ele><time>2021-05-12T14:10:17Z</time><name>PT10878</name></trkpt>
<trkpt lat="53.096908" lon="05.951624"><ele>-4.5</ele><time>2021-05-12T14:10:18Z</time><name>PT10879</name></trkpt>
<trkpt lat="53.096901" lon="05.951616"><ele>-4.5</ele><time>2021-05-12T14:10:19Z</time><name>PT10880</name></trkpt>
<trkpt lat="53.096896" lon="05.951609"><ele>-4.4</ele><time>2021-05-12T14:10:20Z</time><name>PT10881</name></trkpt>
<trkpt lat="53.096891" lon="05.951601"><ele>-4.4</ele><time>2021-05-12T14:10:21Z</time><name>PT10882</name></trkpt>
<trkpt lat="53.096886" lon="05.951591"><ele>-4.5</ele><time>2021-05-12T14:10:22Z</time><name>PT10883</name></trkpt>
<trkpt lat="53.096880" lon="05.951579"><ele>-4.3</ele><time>2021-05-12T14:10:23Z</time><name>PT10884</name></trkpt>
<trkpt lat="53.096872" lon="05.951569"><ele>-4</ele><time>2021-05-12T14:10:24Z</time><name>PT10885</name></trkpt>
<trkpt lat="53.096866" lon="05.951556"><ele>-4</ele><time>2021-05-12T14:10:25Z</time><name>PT10886</name></trkpt>
<trkpt lat="53.096861" lon="05.951543"><ele>-4</ele><time>2021-05-12T14:10:26Z</time><name>PT10887</name></trkpt>
<trkpt lat="53.096859" lon="05.951532"><ele>-4</ele><time>2021-05-12T14:10:27Z</time><name>PT10888</name></trkpt>
<trkpt lat="53.096856" lon="05.951520"><ele>-4.1</ele><time>2021-05-12T14:10:28Z</time><name>PT10889</name></trkpt>
<trkpt lat="53.096849" lon="05.951510"><ele>-4.2</ele><time>2021-05-12T14:10:29Z</time><name>PT10890</name></trkpt>
<trkpt lat="53.096843" lon="05.951496"><ele>-4.3</ele><time>2021-05-12T14:10:30Z</time><name>PT10891</name></trkpt>
<trkpt lat="53.096837" lon="05.951482"><ele>-4.2</ele><time>2021-05-12T14:10:31Z</time><name>PT10892</name></trkpt>
<trkpt lat="53.096832" lon="05.951471"><ele>-4.2</ele><time>2021-05-12T14:10:32Z</time><name>PT10893</name></trkpt>
<trkpt lat="53.096827" lon="05.951460"><ele>-4.1</ele><time>2021-05-12T14:10:33Z</time><name>PT10894</name></trkpt>
<trkpt lat="53.096822" lon="05.951447"><ele>-4.2</ele><time>2021-05-12T14:10:34Z</time><name>PT10895</name></trkpt>
<trkpt lat="53.096815" lon="05.951434"><ele>-4.3</ele><time>2021-05-12T14:10:35Z</time><name>PT10896</name></trkpt>
<trkpt lat="53.096808" lon="05.951423"><ele>-4.4</ele><time>2021-05-12T14:10:36Z</time><name>PT10897</name></trkpt>
<trkpt lat="53.096800" lon="05.951413"><ele>-4.3</ele><time>2021-05-12T14:10:37Z</time><name>PT10898</name></trkpt>
<trkpt lat="53.096787" lon="05.951385"><ele>-4</ele><time>2021-05-12T14:10:38Z</time><name>PT10899</name></trkpt>
<trkpt lat="53.096779" lon="05.951370"><ele>-4.1</ele><time>2021-05-12T14:10:39Z</time><name>PT10900</name></trkpt>
<trkpt lat="53.096771" lon="05.951357"><ele>-3.9</ele><time>2021-05-12T14:10:40Z</time><name>PT10901</name></trkpt>
<trkpt lat="53.096765" lon="05.951344"><ele>-4</ele><time>2021-05-12T14:10:41Z</time><name>PT10902</name></trkpt>
<trkpt lat="53.096760" lon="05.951332"><ele>-4</ele><time>2021-05-12T14:10:42Z</time><name>PT10903</name></trkpt>
<trkpt lat="53.096754" lon="05.951323"><ele>-4</ele><time>2021-05-12T14:10:43Z</time><name>PT10904</name></trkpt>
<trkpt lat="53.096748" lon="05.951313"><ele>-4</ele><time>2021-05-12T14:10:44Z</time><name>PT10905</name></trkpt>
<trkpt lat="53.096743" lon="05.951302"><ele>-4.9</ele><time>2021-05-12T14:10:45Z</time><name>PT10906</name></trkpt>
<trkpt lat="53.096738" lon="05.951293"><ele>-4.9</ele><time>2021-05-12T14:10:46Z</time><name>PT10907</name></trkpt>
<trkpt lat="53.096732" lon="05.951284"><ele>-4.5</ele><time>2021-05-12T14:10:47Z</time><name>PT10908</name></trkpt>
<trkpt lat="53.096726" lon="05.951273"><ele>-4.5</ele><time>2021-05-12T14:10:48Z</time><name>PT10909</name></trkpt>
<trkpt lat="53.096721" lon="05.951264"><ele>-3.8</ele><time>2021-05-12T14:10:49Z</time><name>PT10910</name></trkpt>
<trkpt lat="53.096716" lon="05.951254"><ele>-3.2</ele><time>2021-05-12T14:10:50Z</time><name>PT10911</name></trkpt>
<trkpt lat="53.096711" lon="05.951246"><ele>-3.5</ele><time>2021-05-12T14:10:51Z</time><name>PT10912</name></trkpt>
<trkpt lat="53.096706" lon="05.951237"><ele>-3.7</ele><time>2021-05-12T14:10:52Z</time><name>PT10913</name></trkpt>
<trkpt lat="53.096702" lon="05.951230"><ele>-3.9</ele><time>2021-05-12T14:10:53Z</time><name>PT10914</name></trkpt>
<trkpt lat="53.096699" lon="05.951226"><ele>-4.2</ele><time>2021-05-12T14:10:54Z</time><name>PT10915</name></trkpt>
<trkpt lat="53.096697" lon="05.951225"><ele>-4.5</ele><time>2021-05-12T14:10:55Z</time><name>PT10916</name></trkpt>
<trkpt lat="53.096697" lon="05.951225"><ele>-4.3</ele><time>2021-05-12T14:10:56Z</time><name>PT10917</name></trkpt>
<trkpt lat="53.096697" lon="05.951224"><ele>-3.9</ele><time>2021-05-12T14:10:57Z</time><name>PT10918</name></trkpt></trkseg></trk></gpx>